<?xml version="1.0" encoding="UTF-8" standalone="no" ?>
<gpx xmlns="http://www.topografix.com/GPX/1/1" xmlns:xsi="http://www.w3.org/2001/XMLSchema-instance" xsi:schemaLocation="http://www.topografix.com/GPX/1/1 http://www.topografix.com/GPX/1/1/gpx.xsd" version="1.1" creator="VisuGPX - https://www.visugpx.com">
  <metadata>
    <name>Vezza d`Oglio a Pante di Legno -- 1º part AUT</name>
    <desc><![CDATA[1º PART ADAMELLO ULTRA TRAIL..........]]></desc>
  </metadata>
  <trk>
    <name><![CDATA[Move]]></name>
    <trkseg>
      <trkpt lat="46.24034" lon="10.39759">
        <ele>1076.5</ele>
        <time>2018-09-21T07:02:46.000Z</time>
      </trkpt>
      <trkpt lat="46.24035" lon="10.39773">
        <ele>1069</ele>
        <time>2018-09-21T07:02:59.014Z</time>
      </trkpt>
      <trkpt lat="46.24038" lon="10.39789">
        <ele>1069</ele>
        <time>2018-09-21T07:03:04.004Z</time>
      </trkpt>
      <trkpt lat="46.24038" lon="10.39803">
        <ele>1069</ele>
        <time>2018-09-21T07:03:08.014Z</time>
      </trkpt>
      <trkpt lat="46.24041" lon="10.39817">
        <ele>1069</ele>
        <time>2018-09-21T07:03:13.014Z</time>
      </trkpt>
      <trkpt lat="46.24045" lon="10.39831">
        <ele>1069</ele>
        <time>2018-09-21T07:03:18.014Z</time>
      </trkpt>
      <trkpt lat="46.24049" lon="10.39843">
        <ele>1069</ele>
        <time>2018-09-21T07:03:22.014Z</time>
      </trkpt>
      <trkpt lat="46.24052" lon="10.39863">
        <ele>1069</ele>
        <time>2018-09-21T07:03:29.014Z</time>
      </trkpt>
      <trkpt lat="46.24068" lon="10.39871">
        <ele>1069</ele>
        <time>2018-09-21T07:03:30.014Z</time>
      </trkpt>
      <trkpt lat="46.24077" lon="10.39879">
        <ele>1069</ele>
        <time>2018-09-21T07:03:32.014Z</time>
      </trkpt>
      <trkpt lat="46.24084" lon="10.3989">
        <ele>1069</ele>
        <time>2018-09-21T07:03:35.014Z</time>
      </trkpt>
      <trkpt lat="46.24088" lon="10.39904">
        <ele>1069</ele>
        <time>2018-09-21T07:03:42.001Z</time>
      </trkpt>
      <trkpt lat="46.24084" lon="10.39918">
        <ele>1069.4838026044</ele>
        <time>2018-09-21T07:03:48.014Z</time>
      </trkpt>
      <trkpt lat="46.24086" lon="10.39931">
        <ele>1070.4512116543</ele>
        <time>2018-09-21T07:03:53.001Z</time>
      </trkpt>
      <trkpt lat="46.24089" lon="10.39944">
        <ele>1070.8778121371</ele>
        <time>2018-09-21T07:03:57.014Z</time>
      </trkpt>
      <trkpt lat="46.24091" lon="10.3996">
        <ele>1070.4660469651</ele>
        <time>2018-09-21T07:04:01.004Z</time>
      </trkpt>
      <trkpt lat="46.24092" lon="10.39974">
        <ele>1070.0522184693</ele>
        <time>2018-09-21T07:04:05.014Z</time>
      </trkpt>
      <trkpt lat="46.24094" lon="10.39987">
        <ele>1070.24940032</ele>
        <time>2018-09-21T07:04:08.014Z</time>
      </trkpt>
      <trkpt lat="46.24097" lon="10.40002">
        <ele>1070.84940032</ele>
        <time>2018-09-21T07:04:14.014Z</time>
      </trkpt>
      <trkpt lat="46.24103" lon="10.40014">
        <ele>1071.2457145235</ele>
        <time>2018-09-21T07:04:18.014Z</time>
      </trkpt>
      <trkpt lat="46.24106" lon="10.40027">
        <ele>1071.5412809328</ele>
        <time>2018-09-21T07:04:21.014Z</time>
      </trkpt>
      <trkpt lat="46.2411" lon="10.4004">
        <ele>1072</ele>
        <time>2018-09-21T07:04:27.014Z</time>
      </trkpt>
      <trkpt lat="46.24118" lon="10.40057">
        <ele>1072</ele>
        <time>2018-09-21T07:04:32.014Z</time>
      </trkpt>
      <trkpt lat="46.24123" lon="10.40069">
        <ele>1072</ele>
        <time>2018-09-21T07:04:35.014Z</time>
      </trkpt>
      <trkpt lat="46.24122" lon="10.40085">
        <ele>1072.34940032</ele>
        <time>2018-09-21T07:04:39.014Z</time>
      </trkpt>
      <trkpt lat="46.24116" lon="10.40099">
        <ele>1072.85970048</ele>
        <time>2018-09-21T07:04:44.117Z</time>
      </trkpt>
      <trkpt lat="46.2411" lon="10.4011">
        <ele>1073.44819968</ele>
        <time>2018-09-21T07:04:50.002Z</time>
      </trkpt>
      <trkpt lat="46.24106" lon="10.40123">
        <ele>1074</ele>
        <time>2018-09-21T07:04:56.002Z</time>
      </trkpt>
      <trkpt lat="46.24107" lon="10.40145">
        <ele>1074</ele>
        <time>2018-09-21T07:05:03.014Z</time>
      </trkpt>
      <trkpt lat="46.24109" lon="10.40159">
        <ele>1074</ele>
        <time>2018-09-21T07:05:06.014Z</time>
      </trkpt>
      <trkpt lat="46.2411" lon="10.40175">
        <ele>1074</ele>
        <time>2018-09-21T07:05:09.014Z</time>
      </trkpt>
      <trkpt lat="46.24111" lon="10.40188">
        <ele>1074</ele>
        <time>2018-09-21T07:05:12.014Z</time>
      </trkpt>
      <trkpt lat="46.24109" lon="10.40203">
        <ele>1074.34819968</ele>
        <time>2018-09-21T07:05:19.002Z</time>
      </trkpt>
      <trkpt lat="46.24108" lon="10.40217">
        <ele>1074.84819968</ele>
        <time>2018-09-21T07:05:24.002Z</time>
      </trkpt>
      <trkpt lat="46.24112" lon="10.40231">
        <ele>1075</ele>
        <time>2018-09-21T07:05:28.004Z</time>
      </trkpt>
      <trkpt lat="46.24115" lon="10.40247">
        <ele>1075</ele>
        <time>2018-09-21T07:05:33.002Z</time>
      </trkpt>
      <trkpt lat="46.24115" lon="10.40263">
        <ele>1075.1440353384</ele>
        <time>2018-09-21T07:05:37.005Z</time>
      </trkpt>
      <trkpt lat="46.24112" lon="10.40278">
        <ele>1075.6289031608</ele>
        <time>2018-09-21T07:05:42.004Z</time>
      </trkpt>
      <trkpt lat="46.2411" lon="10.40292">
        <ele>1076</ele>
        <time>2018-09-21T07:05:47.002Z</time>
      </trkpt>
      <trkpt lat="46.2411" lon="10.40307">
        <ele>1076</ele>
        <time>2018-09-21T07:05:52.014Z</time>
      </trkpt>
      <trkpt lat="46.24106" lon="10.4032">
        <ele>1076</ele>
        <time>2018-09-21T07:05:56.002Z</time>
      </trkpt>
      <trkpt lat="46.24104" lon="10.40336">
        <ele>1076</ele>
        <time>2018-09-21T07:06:00.002Z</time>
      </trkpt>
      <trkpt lat="46.24101" lon="10.40351">
        <ele>1076</ele>
        <time>2018-09-21T07:06:04.012Z</time>
      </trkpt>
      <trkpt lat="46.24101" lon="10.40365">
        <ele>1075.7619887645</ele>
        <time>2018-09-21T07:06:08.002Z</time>
      </trkpt>
      <trkpt lat="46.24103" lon="10.4038">
        <ele>1075.3721254599</ele>
        <time>2018-09-21T07:06:12.002Z</time>
      </trkpt>
      <trkpt lat="46.24106" lon="10.40393">
        <ele>1075</ele>
        <time>2018-09-21T07:06:16.003Z</time>
      </trkpt>
      <trkpt lat="46.24108" lon="10.40408">
        <ele>1075</ele>
        <time>2018-09-21T07:06:20.002Z</time>
      </trkpt>
      <trkpt lat="46.2411" lon="10.40421">
        <ele>1075</ele>
        <time>2018-09-21T07:06:24.014Z</time>
      </trkpt>
      <trkpt lat="46.24113" lon="10.40436">
        <ele>1075</ele>
        <time>2018-09-21T07:06:28.002Z</time>
      </trkpt>
      <trkpt lat="46.24119" lon="10.40446">
        <ele>1075</ele>
        <time>2018-09-21T07:06:32.002Z</time>
      </trkpt>
      <trkpt lat="46.24122" lon="10.40462">
        <ele>1074.85180032</ele>
        <time>2018-09-21T07:06:37.002Z</time>
      </trkpt>
      <trkpt lat="46.24125" lon="10.40474">
        <ele>1074.45159936</ele>
        <time>2018-09-21T07:06:41.004Z</time>
      </trkpt>
      <trkpt lat="46.24128" lon="10.4049">
        <ele>1074.05190016</ele>
        <time>2018-09-21T07:06:45.001Z</time>
      </trkpt>
      <trkpt lat="46.24128" lon="10.40505">
        <ele>1074</ele>
        <time>2018-09-21T07:06:49.014Z</time>
      </trkpt>
      <trkpt lat="46.2413" lon="10.40518">
        <ele>1074</ele>
        <time>2018-09-21T07:06:53.004Z</time>
      </trkpt>
      <trkpt lat="46.24132" lon="10.40533">
        <ele>1074</ele>
        <time>2018-09-21T07:06:58.002Z</time>
      </trkpt>
      <trkpt lat="46.24137" lon="10.40545">
        <ele>1074</ele>
        <time>2018-09-21T07:07:01.004Z</time>
      </trkpt>
      <trkpt lat="46.24141" lon="10.40557">
        <ele>1074</ele>
        <time>2018-09-21T07:07:04.012Z</time>
      </trkpt>
      <trkpt lat="46.24144" lon="10.4057">
        <ele>1074</ele>
        <time>2018-09-21T07:07:08.002Z</time>
      </trkpt>
      <trkpt lat="46.24147" lon="10.40585">
        <ele>1074</ele>
        <time>2018-09-21T07:07:12.002Z</time>
      </trkpt>
      <trkpt lat="46.24146" lon="10.40598">
        <ele>1074</ele>
        <time>2018-09-21T07:07:15.004Z</time>
      </trkpt>
      <trkpt lat="46.24149" lon="10.40613">
        <ele>1074</ele>
        <time>2018-09-21T07:07:19.017Z</time>
      </trkpt>
      <trkpt lat="46.24149" lon="10.40627">
        <ele>1074</ele>
        <time>2018-09-21T07:07:23.002Z</time>
      </trkpt>
      <trkpt lat="46.24149" lon="10.40643">
        <ele>1074</ele>
        <time>2018-09-21T07:07:27.002Z</time>
      </trkpt>
      <trkpt lat="46.24151" lon="10.40656">
        <ele>1074</ele>
        <time>2018-09-21T07:07:31.002Z</time>
      </trkpt>
      <trkpt lat="46.24154" lon="10.40672">
        <ele>1074</ele>
        <time>2018-09-21T07:07:36.004Z</time>
      </trkpt>
      <trkpt lat="46.24154" lon="10.40687">
        <ele>1074</ele>
        <time>2018-09-21T07:07:40.002Z</time>
      </trkpt>
      <trkpt lat="46.24156" lon="10.40703">
        <ele>1074</ele>
        <time>2018-09-21T07:07:44.012Z</time>
      </trkpt>
      <trkpt lat="46.24157" lon="10.40716">
        <ele>1074.2437120998</ele>
        <time>2018-09-21T07:07:48.002Z</time>
      </trkpt>
      <trkpt lat="46.24162" lon="10.40728">
        <ele>1074.6429134417</ele>
        <time>2018-09-21T07:07:52.002Z</time>
      </trkpt>
      <trkpt lat="46.24167" lon="10.40743">
        <ele>1075</ele>
        <time>2018-09-21T07:07:56.004Z</time>
      </trkpt>
      <trkpt lat="46.24169" lon="10.40756">
        <ele>1075</ele>
        <time>2018-09-21T07:08:01.001Z</time>
      </trkpt>
      <trkpt lat="46.24171" lon="10.40769">
        <ele>1075.240697962</ele>
        <time>2018-09-21T07:08:07.001Z</time>
      </trkpt>
      <trkpt lat="46.24174" lon="10.40783">
        <ele>1076.4737922216</ele>
        <time>2018-09-21T07:08:13.000Z</time>
      </trkpt>
      <trkpt lat="46.24175" lon="10.40797">
        <ele>1077.8915662651</ele>
        <time>2018-09-21T07:08:20.000Z</time>
      </trkpt>
      <trkpt lat="46.24178" lon="10.4081">
        <ele>1079.04809984</ele>
        <time>2018-09-21T07:08:26.001Z</time>
      </trkpt>
      <trkpt lat="46.24182" lon="10.40824">
        <ele>1079.64809984</ele>
        <time>2018-09-21T07:08:32.001Z</time>
      </trkpt>
      <trkpt lat="46.24184" lon="10.40838">
        <ele>1080.4940239044</ele>
        <time>2018-09-21T07:08:38.000Z</time>
      </trkpt>
      <trkpt lat="46.24183" lon="10.40852">
        <ele>1081.69203251</ele>
        <time>2018-09-21T07:08:44.014Z</time>
      </trkpt>
      <trkpt lat="46.24183" lon="10.40867">
        <ele>1082.5465869879</ele>
        <time>2018-09-21T07:08:51.004Z</time>
      </trkpt>
      <trkpt lat="46.24181" lon="10.40881">
        <ele>1083.14840064</ele>
        <time>2018-09-21T07:08:57.004Z</time>
      </trkpt>
      <trkpt lat="46.24182" lon="10.40895">
        <ele>1083.84940032</ele>
        <time>2018-09-21T07:09:04.014Z</time>
      </trkpt>
      <trkpt lat="46.2418" lon="10.4091">
        <ele>1084.89679872</ele>
        <time>2018-09-21T07:09:10.004Z</time>
      </trkpt>
      <trkpt lat="46.24179" lon="10.40925">
        <ele>1086.0467957768</ele>
        <time>2018-09-21T07:09:16.002Z</time>
      </trkpt>
      <trkpt lat="46.24176" lon="10.4094">
        <ele>1086.7266990436</ele>
        <time>2018-09-21T07:09:23.005Z</time>
      </trkpt>
      <trkpt lat="46.24175" lon="10.40953">
        <ele>1087.658142125</ele>
        <time>2018-09-21T07:09:29.012Z</time>
      </trkpt>
      <trkpt lat="46.24173" lon="10.40967">
        <ele>1088.8938153526</ele>
        <time>2018-09-21T07:09:35.005Z</time>
      </trkpt>
      <trkpt lat="46.2417" lon="10.40981">
        <ele>1089.6244694416</ele>
        <time>2018-09-21T07:09:42.002Z</time>
      </trkpt>
      <trkpt lat="46.24164" lon="10.40993">
        <ele>1089.7802496667</ele>
        <time>2018-09-21T07:09:48.014Z</time>
      </trkpt>
      <trkpt lat="46.24157" lon="10.41007">
        <ele>1089.4683991474</ele>
        <time>2018-09-21T07:09:51.014Z</time>
      </trkpt>
      <trkpt lat="46.24148" lon="10.41019">
        <ele>1089.0525984549</ele>
        <time>2018-09-21T07:09:55.014Z</time>
      </trkpt>
      <trkpt lat="46.24144" lon="10.41031">
        <ele>1089</ele>
        <time>2018-09-21T07:09:58.014Z</time>
      </trkpt>
      <trkpt lat="46.2415" lon="10.41042">
        <ele>1089</ele>
        <time>2018-09-21T07:10:01.014Z</time>
      </trkpt>
      <trkpt lat="46.24149" lon="10.41057">
        <ele>1089</ele>
        <time>2018-09-21T07:10:05.002Z</time>
      </trkpt>
      <trkpt lat="46.24152" lon="10.41071">
        <ele>1089.34840064</ele>
        <time>2018-09-21T07:10:09.004Z</time>
      </trkpt>
      <trkpt lat="46.24153" lon="10.41087">
        <ele>1089.84819968</ele>
        <time>2018-09-21T07:10:14.002Z</time>
      </trkpt>
      <trkpt lat="46.24159" lon="10.41098">
        <ele>1090</ele>
        <time>2018-09-21T07:10:18.001Z</time>
      </trkpt>
      <trkpt lat="46.24163" lon="10.41112">
        <ele>1090</ele>
        <time>2018-09-21T07:10:22.014Z</time>
      </trkpt>
      <trkpt lat="46.2417" lon="10.41122">
        <ele>1090</ele>
        <time>2018-09-21T07:10:29.001Z</time>
      </trkpt>
      <trkpt lat="46.24177" lon="10.41132">
        <ele>1090.2807015793</ele>
        <time>2018-09-21T07:10:37.010Z</time>
      </trkpt>
      <trkpt lat="46.24184" lon="10.41144">
        <ele>1092.2421269478</ele>
        <time>2018-09-21T07:10:47.014Z</time>
      </trkpt>
      <trkpt lat="46.24189" lon="10.41156">
        <ele>1093.6707570852</ele>
        <time>2018-09-21T07:10:54.000Z</time>
      </trkpt>
      <trkpt lat="46.24196" lon="10.41166">
        <ele>1095.0274495976</ele>
        <time>2018-09-21T07:10:59.004Z</time>
      </trkpt>
      <trkpt lat="46.24203" lon="10.41176">
        <ele>1096.5398588771</ele>
        <time>2018-09-21T07:11:04.000Z</time>
      </trkpt>
      <trkpt lat="46.24208" lon="10.41187">
        <ele>1097</ele>
        <time>2018-09-21T07:11:11.000Z</time>
      </trkpt>
      <trkpt lat="46.24215" lon="10.41197">
        <ele>1097.2962962014</ele>
        <time>2018-09-21T07:11:17.010Z</time>
      </trkpt>
      <trkpt lat="46.24221" lon="10.41207">
        <ele>1098.4954956571</ele>
        <time>2018-09-21T07:11:23.000Z</time>
      </trkpt>
      <trkpt lat="46.24225" lon="10.4122">
        <ele>1100.6325714772</ele>
        <time>2018-09-21T07:11:31.000Z</time>
      </trkpt>
      <trkpt lat="46.24233" lon="10.41228">
        <ele>1102.0833817791</ele>
        <time>2018-09-21T07:11:36.004Z</time>
      </trkpt>
      <trkpt lat="46.24242" lon="10.41235">
        <ele>1103.2940585036</ele>
        <time>2018-09-21T07:11:42.015Z</time>
      </trkpt>
      <trkpt lat="46.24251" lon="10.41242">
        <ele>1104.24829952</ele>
        <time>2018-09-21T07:11:48.003Z</time>
      </trkpt>
      <trkpt lat="46.2426" lon="10.41248">
        <ele>1104.74840064</ele>
        <time>2018-09-21T07:11:53.004Z</time>
      </trkpt>
      <trkpt lat="46.24262" lon="10.41261">
        <ele>1105.64691251</ele>
        <time>2018-09-21T07:12:02.015Z</time>
      </trkpt>
      <trkpt lat="46.24267" lon="10.41272">
        <ele>1106.4903608032</ele>
        <time>2018-09-21T07:12:08.002Z</time>
      </trkpt>
      <trkpt lat="46.2427" lon="10.41284">
        <ele>1107.6957840964</ele>
        <time>2018-09-21T07:12:14.005Z</time>
      </trkpt>
      <trkpt lat="46.24278" lon="10.41294">
        <ele>1109.64489856</ele>
        <time>2018-09-21T07:12:21.003Z</time>
      </trkpt>
      <trkpt lat="46.24285" lon="10.41304">
        <ele>1111.7199979223</ele>
        <time>2018-09-21T07:12:28.004Z</time>
      </trkpt>
      <trkpt lat="46.24288" lon="10.41316">
        <ele>1114.0269423509</ele>
        <time>2018-09-21T07:12:36.000Z</time>
      </trkpt>
      <trkpt lat="46.24294" lon="10.41328">
        <ele>1115.4783408011</ele>
        <time>2018-09-21T07:12:43.003Z</time>
      </trkpt>
      <trkpt lat="46.24299" lon="10.4134">
        <ele>1116.548</ele>
        <time>2018-09-21T07:12:51.000Z</time>
      </trkpt>
      <trkpt lat="46.24304" lon="10.41352">
        <ele>1117.4930414358</ele>
        <time>2018-09-21T07:12:58.000Z</time>
      </trkpt>
      <trkpt lat="46.24309" lon="10.41364">
        <ele>1119.2887316145</ele>
        <time>2018-09-21T07:13:07.015Z</time>
      </trkpt>
      <trkpt lat="46.24313" lon="10.41376">
        <ele>1121.04850048</ele>
        <time>2018-09-21T07:13:16.005Z</time>
      </trkpt>
      <trkpt lat="46.24318" lon="10.4139">
        <ele>1121.94840064</ele>
        <time>2018-09-21T07:13:25.004Z</time>
      </trkpt>
      <trkpt lat="46.24324" lon="10.41403">
        <ele>1124.2601180952</ele>
        <time>2018-09-21T07:13:33.114Z</time>
      </trkpt>
      <trkpt lat="46.24333" lon="10.41398">
        <ele>1126.0904340271</ele>
        <time>2018-09-21T07:13:41.014Z</time>
      </trkpt>
      <trkpt lat="46.24341" lon="10.4139">
        <ele>1127.659849697</ele>
        <time>2018-09-21T07:13:49.014Z</time>
      </trkpt>
      <trkpt lat="46.24349" lon="10.41383">
        <ele>1129.2939573976</ele>
        <time>2018-09-21T07:13:57.014Z</time>
      </trkpt>
      <trkpt lat="46.24356" lon="10.41372">
        <ele>1132.09880064</ele>
        <time>2018-09-21T07:14:06.014Z</time>
      </trkpt>
      <trkpt lat="46.2436" lon="10.4136">
        <ele>1133.69639936</ele>
        <time>2018-09-21T07:14:14.002Z</time>
      </trkpt>
      <trkpt lat="46.24365" lon="10.41348">
        <ele>1135.09880064</ele>
        <time>2018-09-21T07:14:21.014Z</time>
      </trkpt>
      <trkpt lat="46.24372" lon="10.41337">
        <ele>1136.84940032</ele>
        <time>2018-09-21T07:14:34.014Z</time>
      </trkpt>
      <trkpt lat="46.24379" lon="10.41328">
        <ele>1138.64820096</ele>
        <time>2018-09-21T07:14:41.014Z</time>
      </trkpt>
      <trkpt lat="46.24385" lon="10.41318">
        <ele>1140.8943292798</ele>
        <time>2018-09-21T07:14:50.014Z</time>
      </trkpt>
      <trkpt lat="46.24393" lon="10.41309">
        <ele>1143.3399009962</ele>
        <time>2018-09-21T07:15:00.014Z</time>
      </trkpt>
      <trkpt lat="46.24399" lon="10.41297">
        <ele>1146.39760128</ele>
        <time>2018-09-21T07:15:09.014Z</time>
      </trkpt>
      <trkpt lat="46.24408" lon="10.41299">
        <ele>1149.54940032</ele>
        <time>2018-09-21T07:15:21.014Z</time>
      </trkpt>
      <trkpt lat="46.24415" lon="10.41309">
        <ele>1150.89880064</ele>
        <time>2018-09-21T07:15:30.014Z</time>
      </trkpt>
      <trkpt lat="46.24422" lon="10.41318">
        <ele>1153.6413527679</ele>
        <time>2018-09-21T07:15:44.014Z</time>
      </trkpt>
      <trkpt lat="46.24431" lon="10.41327">
        <ele>1156.5318143111</ele>
        <time>2018-09-21T07:15:54.014Z</time>
      </trkpt>
      <trkpt lat="46.24437" lon="10.41337">
        <ele>1159.24820096</ele>
        <time>2018-09-21T07:16:03.014Z</time>
      </trkpt>
      <trkpt lat="46.24445" lon="10.4135">
        <ele>1162.8312118768</ele>
        <time>2018-09-21T07:16:15.014Z</time>
      </trkpt>
      <trkpt lat="46.24451" lon="10.41363">
        <ele>1163.647283797</ele>
        <time>2018-09-21T07:16:22.014Z</time>
      </trkpt>
      <trkpt lat="46.2446" lon="10.41372">
        <ele>1167.1346903326</ele>
        <time>2018-09-21T07:16:37.014Z</time>
      </trkpt>
      <trkpt lat="46.24455" lon="10.41388">
        <ele>1168.0985050932</ele>
        <time>2018-09-21T07:16:46.014Z</time>
      </trkpt>
      <trkpt lat="46.24451" lon="10.41399">
        <ele>1169.2927204649</ele>
        <time>2018-09-21T07:16:52.003Z</time>
      </trkpt>
      <trkpt lat="46.24448" lon="10.41413">
        <ele>1170.6636015326</ele>
        <time>2018-09-21T07:16:59.014Z</time>
      </trkpt>
      <trkpt lat="46.24441" lon="10.41424">
        <ele>1172.2149003869</ele>
        <time>2018-09-21T07:17:07.014Z</time>
      </trkpt>
      <trkpt lat="46.2444" lon="10.41438">
        <ele>1173.89380966</ele>
        <time>2018-09-21T07:17:15.014Z</time>
      </trkpt>
      <trkpt lat="46.24445" lon="10.41449">
        <ele>1175.4878730892</ele>
        <time>2018-09-21T07:17:23.004Z</time>
      </trkpt>
      <trkpt lat="46.2445" lon="10.4146">
        <ele>1177.9418513911</ele>
        <time>2018-09-21T07:17:32.014Z</time>
      </trkpt>
      <trkpt lat="46.24458" lon="10.41466">
        <ele>1182.11879936</ele>
        <time>2018-09-21T07:17:46.114Z</time>
      </trkpt>
      <trkpt lat="46.24463" lon="10.41453">
        <ele>1184.49659904</ele>
        <time>2018-09-21T07:17:58.003Z</time>
      </trkpt>
      <trkpt lat="46.24468" lon="10.41442">
        <ele>1186.49659904</ele>
        <time>2018-09-21T07:18:08.003Z</time>
      </trkpt>
      <trkpt lat="46.24473" lon="10.41431">
        <ele>1188.89880064</ele>
        <time>2018-09-21T07:18:20.014Z</time>
      </trkpt>
      <trkpt lat="46.24483" lon="10.41429">
        <ele>1191.49880064</ele>
        <time>2018-09-21T07:18:33.014Z</time>
      </trkpt>
      <trkpt lat="46.24492" lon="10.41426">
        <ele>1193.7005005964</ele>
        <time>2018-09-21T07:18:44.014Z</time>
      </trkpt>
      <trkpt lat="46.24501" lon="10.41421">
        <ele>1197.2708257223</ele>
        <time>2018-09-21T07:18:57.014Z</time>
      </trkpt>
      <trkpt lat="46.24511" lon="10.41425">
        <ele>1200.0795978475</ele>
        <time>2018-09-21T07:19:06.014Z</time>
      </trkpt>
      <trkpt lat="46.24521" lon="10.4142">
        <ele>1203.09659904</ele>
        <time>2018-09-21T07:19:21.003Z</time>
      </trkpt>
      <trkpt lat="46.24519" lon="10.41403">
        <ele>1204.7257039067</ele>
        <time>2018-09-21T07:19:28.014Z</time>
      </trkpt>
      <trkpt lat="46.24529" lon="10.41412">
        <ele>1206.1773985094</ele>
        <time>2018-09-21T07:19:33.003Z</time>
      </trkpt>
      <trkpt lat="46.24538" lon="10.4141">
        <ele>1209.5303389161</ele>
        <time>2018-09-21T07:19:44.003Z</time>
      </trkpt>
      <trkpt lat="46.24548" lon="10.4141">
        <ele>1213.9354153345</ele>
        <time>2018-09-21T07:20:02.003Z</time>
      </trkpt>
      <trkpt lat="46.24557" lon="10.41406">
        <ele>1216.09900032</ele>
        <time>2018-09-21T07:20:16.015Z</time>
      </trkpt>
      <trkpt lat="46.24567" lon="10.41401">
        <ele>1218.89880064</ele>
        <time>2018-09-21T07:20:30.014Z</time>
      </trkpt>
      <trkpt lat="46.24574" lon="10.4139">
        <ele>1221.04969856</ele>
        <time>2018-09-21T07:20:39.019Z</time>
      </trkpt>
      <trkpt lat="46.24584" lon="10.41393">
        <ele>1226.79720192</ele>
        <time>2018-09-21T07:20:55.013Z</time>
      </trkpt>
      <trkpt lat="46.24592" lon="10.41398">
        <ele>1228.6836483437</ele>
        <time>2018-09-21T07:21:04.014Z</time>
      </trkpt>
      <trkpt lat="46.24601" lon="10.41392">
        <ele>1230.3604924006</ele>
        <time>2018-09-21T07:21:17.014Z</time>
      </trkpt>
      <trkpt lat="46.24612" lon="10.41389">
        <ele>1236.3921306504</ele>
        <time>2018-09-21T07:21:34.014Z</time>
      </trkpt>
      <trkpt lat="46.24616" lon="10.41377">
        <ele>1239.49659904</ele>
        <time>2018-09-21T07:21:48.003Z</time>
      </trkpt>
      <trkpt lat="46.24613" lon="10.41363">
        <ele>1240.69880064</ele>
        <time>2018-09-21T07:21:54.014Z</time>
      </trkpt>
      <trkpt lat="46.24621" lon="10.41372">
        <ele>1241.1916597659</ele>
        <time>2018-09-21T07:21:56.014Z</time>
      </trkpt>
      <trkpt lat="46.24633" lon="10.41376">
        <ele>1245.0188717887</ele>
        <time>2018-09-21T07:22:06.014Z</time>
      </trkpt>
      <trkpt lat="46.2464" lon="10.41383">
        <ele>1245.8393843399</ele>
        <time>2018-09-21T07:22:14.014Z</time>
      </trkpt>
      <trkpt lat="46.24649" lon="10.4138">
        <ele>1248.0951836022</ele>
        <time>2018-09-21T07:22:26.014Z</time>
      </trkpt>
      <trkpt lat="46.24645" lon="10.41362">
        <ele>1250.3474004806</ele>
        <time>2018-09-21T07:22:37.014Z</time>
      </trkpt>
      <trkpt lat="46.24641" lon="10.41348">
        <ele>1250.9711015192</ele>
        <time>2018-09-21T07:22:39.014Z</time>
      </trkpt>
      <trkpt lat="46.2464" lon="10.41334">
        <ele>1252.5303541158</ele>
        <time>2018-09-21T07:22:44.014Z</time>
      </trkpt>
      <trkpt lat="46.2465" lon="10.41348">
        <ele>1253.895219761</ele>
        <time>2018-09-21T07:22:50.014Z</time>
      </trkpt>
      <trkpt lat="46.2466" lon="10.41346">
        <ele>1256.697591004</ele>
        <time>2018-09-21T07:23:04.014Z</time>
      </trkpt>
      <trkpt lat="46.24668" lon="10.41352">
        <ele>1257.49659904</ele>
        <time>2018-09-21T07:23:08.003Z</time>
      </trkpt>
      <trkpt lat="46.2468" lon="10.41361">
        <ele>1258.69880064</ele>
        <time>2018-09-21T07:23:14.014Z</time>
      </trkpt>
      <trkpt lat="46.24676" lon="10.41348">
        <ele>1261</ele>
        <time>2018-09-21T07:23:33.013Z</time>
      </trkpt>
      <trkpt lat="46.24671" lon="10.41337">
        <ele>1261</ele>
        <time>2018-09-21T07:23:38.014Z</time>
      </trkpt>
      <trkpt lat="46.24663" lon="10.41326">
        <ele>1261</ele>
        <time>2018-09-21T07:23:45.003Z</time>
      </trkpt>
      <trkpt lat="46.24654" lon="10.41324">
        <ele>1260.35059968</ele>
        <time>2018-09-21T07:23:52.014Z</time>
      </trkpt>
      <trkpt lat="46.24644" lon="10.41319">
        <ele>1261.2949154792</ele>
        <time>2018-09-21T07:24:02.014Z</time>
      </trkpt>
      <trkpt lat="46.24641" lon="10.41305">
        <ele>1262.6483452432</ele>
        <time>2018-09-21T07:24:12.014Z</time>
      </trkpt>
      <trkpt lat="46.24637" lon="10.41293">
        <ele>1264.94820096</ele>
        <time>2018-09-21T07:24:22.014Z</time>
      </trkpt>
      <trkpt lat="46.24629" lon="10.41288">
        <ele>1267.69880064</ele>
        <time>2018-09-21T07:24:34.014Z</time>
      </trkpt>
      <trkpt lat="46.24619" lon="10.41289">
        <ele>1269.2884926984</ele>
        <time>2018-09-21T07:24:42.014Z</time>
      </trkpt>
      <trkpt lat="46.24619" lon="10.41276">
        <ele>1270.8877006452</ele>
        <time>2018-09-21T07:24:50.003Z</time>
      </trkpt>
      <trkpt lat="46.24615" lon="10.41263">
        <ele>1273.3302652169</ele>
        <time>2018-09-21T07:25:00.003Z</time>
      </trkpt>
      <trkpt lat="46.24611" lon="10.41251">
        <ele>1275.3316668235</ele>
        <time>2018-09-21T07:25:09.013Z</time>
      </trkpt>
      <trkpt lat="46.2461" lon="10.41237">
        <ele>1276.0179556716</ele>
        <time>2018-09-21T07:25:16.004Z</time>
      </trkpt>
      <trkpt lat="46.24606" lon="10.41225">
        <ele>1277.09659904</ele>
        <time>2018-09-21T07:25:26.003Z</time>
      </trkpt>
      <trkpt lat="46.24604" lon="10.41212">
        <ele>1278.89659904</ele>
        <time>2018-09-21T07:25:35.003Z</time>
      </trkpt>
      <trkpt lat="46.24602" lon="10.41198">
        <ele>1281.24489856</ele>
        <time>2018-09-21T07:25:43.003Z</time>
      </trkpt>
      <trkpt lat="46.24602" lon="10.41185">
        <ele>1283.09680128</ele>
        <time>2018-09-21T07:25:51.004Z</time>
      </trkpt>
      <trkpt lat="46.24608" lon="10.41174">
        <ele>1285.0889758605</ele>
        <time>2018-09-21T07:26:01.003Z</time>
      </trkpt>
      <trkpt lat="46.24612" lon="10.41162">
        <ele>1287.023829973</ele>
        <time>2018-09-21T07:26:09.013Z</time>
      </trkpt>
      <trkpt lat="46.24617" lon="10.4115">
        <ele>1289.1160610159</ele>
        <time>2018-09-21T07:26:16.003Z</time>
      </trkpt>
      <trkpt lat="46.24625" lon="10.41142">
        <ele>1291.8433319801</ele>
        <time>2018-09-21T07:26:25.003Z</time>
      </trkpt>
      <trkpt lat="46.24633" lon="10.41133">
        <ele>1292.6426160214</ele>
        <time>2018-09-21T07:26:32.004Z</time>
      </trkpt>
      <trkpt lat="46.24638" lon="10.41122">
        <ele>1293</ele>
        <time>2018-09-21T07:26:36.004Z</time>
      </trkpt>
      <trkpt lat="46.24646" lon="10.41112">
        <ele>1293</ele>
        <time>2018-09-21T07:26:40.003Z</time>
      </trkpt>
      <trkpt lat="46.24657" lon="10.41106">
        <ele>1293</ele>
        <time>2018-09-21T07:26:45.003Z</time>
      </trkpt>
      <trkpt lat="46.24665" lon="10.41094">
        <ele>1291.9383571978</ele>
        <time>2018-09-21T07:26:51.014Z</time>
      </trkpt>
      <trkpt lat="46.24673" lon="10.41083">
        <ele>1290.7629014758</ele>
        <time>2018-09-21T07:26:57.014Z</time>
      </trkpt>
      <trkpt lat="46.24688" lon="10.41078">
        <ele>1289.5193777474</ele>
        <time>2018-09-21T07:27:03.014Z</time>
      </trkpt>
      <trkpt lat="46.24699" lon="10.4108">
        <ele>1289.0976290909</ele>
        <time>2018-09-21T07:27:06.014Z</time>
      </trkpt>
      <trkpt lat="46.24707" lon="10.41088">
        <ele>1290.0857713834</ele>
        <time>2018-09-21T07:27:11.014Z</time>
      </trkpt>
      <trkpt lat="46.24716" lon="10.41081">
        <ele>1291.73629952</ele>
        <time>2018-09-21T07:27:23.003Z</time>
      </trkpt>
      <trkpt lat="46.24713" lon="10.41069">
        <ele>1292</ele>
        <time>2018-09-21T07:27:32.003Z</time>
      </trkpt>
      <trkpt lat="46.24703" lon="10.41069">
        <ele>1292.3490039841</ele>
        <time>2018-09-21T07:27:39.014Z</time>
      </trkpt>
      <trkpt lat="46.24696" lon="10.41062">
        <ele>1293</ele>
        <time>2018-09-21T07:27:46.003Z</time>
      </trkpt>
      <trkpt lat="46.24691" lon="10.41049">
        <ele>1293</ele>
        <time>2018-09-21T07:27:52.013Z</time>
      </trkpt>
      <trkpt lat="46.24687" lon="10.41037">
        <ele>1293</ele>
        <time>2018-09-21T07:27:59.004Z</time>
      </trkpt>
      <trkpt lat="46.2468" lon="10.41026">
        <ele>1293</ele>
        <time>2018-09-21T07:28:05.114Z</time>
      </trkpt>
      <trkpt lat="46.24671" lon="10.41022">
        <ele>1293</ele>
        <time>2018-09-21T07:28:10.004Z</time>
      </trkpt>
      <trkpt lat="46.24666" lon="10.4101">
        <ele>1293</ele>
        <time>2018-09-21T07:28:14.014Z</time>
      </trkpt>
      <trkpt lat="46.2466" lon="10.40999">
        <ele>1293</ele>
        <time>2018-09-21T07:28:20.003Z</time>
      </trkpt>
      <trkpt lat="46.24653" lon="10.40987">
        <ele>1293</ele>
        <time>2018-09-21T07:28:24.005Z</time>
      </trkpt>
      <trkpt lat="46.24646" lon="10.40978">
        <ele>1293</ele>
        <time>2018-09-21T07:28:28.002Z</time>
      </trkpt>
      <trkpt lat="46.24639" lon="10.40965">
        <ele>1293</ele>
        <time>2018-09-21T07:28:33.004Z</time>
      </trkpt>
      <trkpt lat="46.24629" lon="10.40958">
        <ele>1293</ele>
        <time>2018-09-21T07:28:37.002Z</time>
      </trkpt>
      <trkpt lat="46.24619" lon="10.40952">
        <ele>1293</ele>
        <time>2018-09-21T07:28:42.004Z</time>
      </trkpt>
      <trkpt lat="46.24611" lon="10.40946">
        <ele>1293</ele>
        <time>2018-09-21T07:28:47.004Z</time>
      </trkpt>
      <trkpt lat="46.24602" lon="10.40944">
        <ele>1293</ele>
        <time>2018-09-21T07:28:53.005Z</time>
      </trkpt>
      <trkpt lat="46.24599" lon="10.40931">
        <ele>1294.49659904</ele>
        <time>2018-09-21T07:29:03.003Z</time>
      </trkpt>
      <trkpt lat="46.24597" lon="10.40917">
        <ele>1295</ele>
        <time>2018-09-21T07:29:10.004Z</time>
      </trkpt>
      <trkpt lat="46.246" lon="10.40903">
        <ele>1295</ele>
        <time>2018-09-21T07:29:14.004Z</time>
      </trkpt>
      <trkpt lat="46.24602" lon="10.40883">
        <ele>1294.554481226</ele>
        <time>2018-09-21T07:29:20.014Z</time>
      </trkpt>
      <trkpt lat="46.24601" lon="10.40868">
        <ele>1294</ele>
        <time>2018-09-21T07:29:26.002Z</time>
      </trkpt>
      <trkpt lat="46.24603" lon="10.40854">
        <ele>1294</ele>
        <time>2018-09-21T07:29:32.002Z</time>
      </trkpt>
      <trkpt lat="46.24601" lon="10.4084">
        <ele>1294.6981027606</ele>
        <time>2018-09-21T07:29:39.014Z</time>
      </trkpt>
      <trkpt lat="46.24594" lon="10.4083">
        <ele>1296.0471583499</ele>
        <time>2018-09-21T07:29:46.003Z</time>
      </trkpt>
      <trkpt lat="46.2459" lon="10.40817">
        <ele>1296.845862781</ele>
        <time>2018-09-21T07:29:54.014Z</time>
      </trkpt>
      <trkpt lat="46.24588" lon="10.40803">
        <ele>1298.08880128</ele>
        <time>2018-09-21T07:30:01.004Z</time>
      </trkpt>
      <trkpt lat="46.24584" lon="10.4079">
        <ele>1299</ele>
        <time>2018-09-21T07:30:09.012Z</time>
      </trkpt>
      <trkpt lat="46.24578" lon="10.40775">
        <ele>1299</ele>
        <time>2018-09-21T07:30:14.013Z</time>
      </trkpt>
      <trkpt lat="46.24575" lon="10.40759">
        <ele>1298.75059968</ele>
        <time>2018-09-21T07:30:18.014Z</time>
      </trkpt>
      <trkpt lat="46.24574" lon="10.40746">
        <ele>1298.45180032</ele>
        <time>2018-09-21T07:30:21.002Z</time>
      </trkpt>
      <trkpt lat="46.24573" lon="10.40731">
        <ele>1298.05030016</ele>
        <time>2018-09-21T07:30:25.017Z</time>
      </trkpt>
      <trkpt lat="46.24572" lon="10.40716">
        <ele>1297.65170048</ele>
        <time>2018-09-21T07:30:29.003Z</time>
      </trkpt>
      <trkpt lat="46.24572" lon="10.40701">
        <ele>1297.25159936</ele>
        <time>2018-09-21T07:30:33.004Z</time>
      </trkpt>
      <trkpt lat="46.24572" lon="10.40685">
        <ele>1296.10119936</ele>
        <time>2018-09-21T07:30:40.014Z</time>
      </trkpt>
      <trkpt lat="46.24563" lon="10.40677">
        <ele>1295.30139904</ele>
        <time>2018-09-21T07:30:44.013Z</time>
      </trkpt>
      <trkpt lat="46.24557" lon="10.40665">
        <ele>1294.75160064</ele>
        <time>2018-09-21T07:30:48.004Z</time>
      </trkpt>
      <trkpt lat="46.24551" lon="10.40653">
        <ele>1294.35180032</ele>
        <time>2018-09-21T07:30:52.002Z</time>
      </trkpt>
      <trkpt lat="46.24546" lon="10.40641">
        <ele>1293.9520385541</ele>
        <time>2018-09-21T07:30:56.014Z</time>
      </trkpt>
      <trkpt lat="46.24543" lon="10.40626">
        <ele>1293.564758018</ele>
        <time>2018-09-21T07:31:00.003Z</time>
      </trkpt>
      <trkpt lat="46.2454" lon="10.40613">
        <ele>1293.2733978884</ele>
        <time>2018-09-21T07:31:03.004Z</time>
      </trkpt>
      <trkpt lat="46.24537" lon="10.40598">
        <ele>1292.8779380638</ele>
        <time>2018-09-21T07:31:07.004Z</time>
      </trkpt>
      <trkpt lat="46.24537" lon="10.40583">
        <ele>1292.4645360591</ele>
        <time>2018-09-21T07:31:11.014Z</time>
      </trkpt>
      <trkpt lat="46.24536" lon="10.40569">
        <ele>1292.053402427</ele>
        <time>2018-09-21T07:31:15.002Z</time>
      </trkpt>
      <trkpt lat="46.24537" lon="10.40556">
        <ele>1292.54829952</ele>
        <time>2018-09-21T07:31:21.003Z</time>
      </trkpt>
      <trkpt lat="46.24536" lon="10.40543">
        <ele>1293</ele>
        <time>2018-09-21T07:31:27.004Z</time>
      </trkpt>
      <trkpt lat="46.24535" lon="10.4053">
        <ele>1293</ele>
        <time>2018-09-21T07:31:31.004Z</time>
      </trkpt>
      <trkpt lat="46.24536" lon="10.40516">
        <ele>1293</ele>
        <time>2018-09-21T07:31:36.004Z</time>
      </trkpt>
      <trkpt lat="46.24535" lon="10.40498">
        <ele>1293</ele>
        <time>2018-09-21T07:31:42.014Z</time>
      </trkpt>
      <trkpt lat="46.24535" lon="10.40482">
        <ele>1292.95059968</ele>
        <time>2018-09-21T07:31:46.014Z</time>
      </trkpt>
      <trkpt lat="46.24535" lon="10.40468">
        <ele>1292.45059968</ele>
        <time>2018-09-21T07:31:51.014Z</time>
      </trkpt>
      <trkpt lat="46.24536" lon="10.40453">
        <ele>1292.05170048</ele>
        <time>2018-09-21T07:31:55.003Z</time>
      </trkpt>
      <trkpt lat="46.24533" lon="10.40437">
        <ele>1291.30340096</ele>
        <time>2018-09-21T07:31:59.003Z</time>
      </trkpt>
      <trkpt lat="46.24534" lon="10.40422">
        <ele>1290.30340096</ele>
        <time>2018-09-21T07:32:04.003Z</time>
      </trkpt>
      <trkpt lat="46.24534" lon="10.40408">
        <ele>1290</ele>
        <time>2018-09-21T07:32:08.003Z</time>
      </trkpt>
      <trkpt lat="46.24533" lon="10.40394">
        <ele>1290</ele>
        <time>2018-09-21T07:32:12.003Z</time>
      </trkpt>
      <trkpt lat="46.24536" lon="10.40379">
        <ele>1290</ele>
        <time>2018-09-21T07:32:17.003Z</time>
      </trkpt>
      <trkpt lat="46.24534" lon="10.40365">
        <ele>1290</ele>
        <time>2018-09-21T07:32:21.012Z</time>
      </trkpt>
      <trkpt lat="46.24535" lon="10.40351">
        <ele>1290</ele>
        <time>2018-09-21T07:32:25.002Z</time>
      </trkpt>
      <trkpt lat="46.24539" lon="10.40338">
        <ele>1290</ele>
        <time>2018-09-21T07:32:32.003Z</time>
      </trkpt>
      <trkpt lat="46.24542" lon="10.40326">
        <ele>1290.24839936</ele>
        <time>2018-09-21T07:32:38.004Z</time>
      </trkpt>
      <trkpt lat="46.24545" lon="10.40312">
        <ele>1290.84829952</ele>
        <time>2018-09-21T07:32:44.003Z</time>
      </trkpt>
      <trkpt lat="46.24548" lon="10.40298">
        <ele>1291.4365135154</ele>
        <time>2018-09-21T07:32:50.003Z</time>
      </trkpt>
      <trkpt lat="46.24551" lon="10.40284">
        <ele>1292.1239258071</ele>
        <time>2018-09-21T07:32:57.002Z</time>
      </trkpt>
      <trkpt lat="46.24554" lon="10.4027">
        <ele>1292.737525227</ele>
        <time>2018-09-21T07:33:03.003Z</time>
      </trkpt>
      <trkpt lat="46.24558" lon="10.40257">
        <ele>1293.7425565706</ele>
        <time>2018-09-21T07:33:13.003Z</time>
      </trkpt>
      <trkpt lat="46.24561" lon="10.40243">
        <ele>1294</ele>
        <time>2018-09-21T07:33:21.013Z</time>
      </trkpt>
      <trkpt lat="46.24562" lon="10.40228">
        <ele>1294.49639936</ele>
        <time>2018-09-21T07:33:28.002Z</time>
      </trkpt>
      <trkpt lat="46.24564" lon="10.40214">
        <ele>1295.89659904</ele>
        <time>2018-09-21T07:33:35.003Z</time>
      </trkpt>
      <trkpt lat="46.24566" lon="10.40201">
        <ele>1297.09860096</ele>
        <time>2018-09-21T07:33:41.013Z</time>
      </trkpt>
      <trkpt lat="46.24569" lon="10.40188">
        <ele>1298</ele>
        <time>2018-09-21T07:33:47.003Z</time>
      </trkpt>
      <trkpt lat="46.24574" lon="10.40176">
        <ele>1298</ele>
        <time>2018-09-21T07:33:54.003Z</time>
      </trkpt>
      <trkpt lat="46.24578" lon="10.40164">
        <ele>1298.44829952</ele>
        <time>2018-09-21T07:34:00.003Z</time>
      </trkpt>
      <trkpt lat="46.2458" lon="10.40151">
        <ele>1298.94809984</ele>
        <time>2018-09-21T07:34:05.001Z</time>
      </trkpt>
      <trkpt lat="46.24585" lon="10.40137">
        <ele>1299.54930048</ele>
        <time>2018-09-21T07:34:11.013Z</time>
      </trkpt>
      <trkpt lat="46.2459" lon="10.40124">
        <ele>1300.29639936</ele>
        <time>2018-09-21T07:34:17.002Z</time>
      </trkpt>
      <trkpt lat="46.24596" lon="10.40115">
        <ele>1301.49639936</ele>
        <time>2018-09-21T07:34:23.002Z</time>
      </trkpt>
      <trkpt lat="46.24603" lon="10.40103">
        <ele>1302</ele>
        <time>2018-09-21T07:34:30.003Z</time>
      </trkpt>
      <trkpt lat="46.24605" lon="10.4009">
        <ele>1302</ele>
        <time>2018-09-21T07:34:37.003Z</time>
      </trkpt>
      <trkpt lat="46.24605" lon="10.40077">
        <ele>1302</ele>
        <time>2018-09-21T07:34:42.003Z</time>
      </trkpt>
      <trkpt lat="46.24611" lon="10.40063">
        <ele>1302.6620613028</ele>
        <time>2018-09-21T07:34:49.031Z</time>
      </trkpt>
      <trkpt lat="46.24613" lon="10.40048">
        <ele>1303.8934010018</ele>
        <time>2018-09-21T07:34:55.003Z</time>
      </trkpt>
      <trkpt lat="46.2462" lon="10.40037">
        <ele>1304.5215570056</ele>
        <time>2018-09-21T07:35:01.012Z</time>
      </trkpt>
      <trkpt lat="46.24623" lon="10.40023">
        <ele>1305.101795784</ele>
        <time>2018-09-21T07:35:07.014Z</time>
      </trkpt>
      <trkpt lat="46.24631" lon="10.40014">
        <ele>1305.8409718806</ele>
        <time>2018-09-21T07:35:14.014Z</time>
      </trkpt>
      <trkpt lat="46.24636" lon="10.40001">
        <ele>1306.34829952</ele>
        <time>2018-09-21T07:35:19.003Z</time>
      </trkpt>
      <trkpt lat="46.24641" lon="10.39989">
        <ele>1306.94829952</ele>
        <time>2018-09-21T07:35:25.003Z</time>
      </trkpt>
      <trkpt lat="46.24649" lon="10.39982">
        <ele>1307.54829952</ele>
        <time>2018-09-21T07:35:31.003Z</time>
      </trkpt>
      <trkpt lat="46.24656" lon="10.39971">
        <ele>1308.34819968</ele>
        <time>2018-09-21T07:35:39.002Z</time>
      </trkpt>
      <trkpt lat="46.24661" lon="10.3996">
        <ele>1308.94829952</ele>
        <time>2018-09-21T07:35:45.003Z</time>
      </trkpt>
      <trkpt lat="46.24667" lon="10.39949">
        <ele>1309.54819968</ele>
        <time>2018-09-21T07:35:51.002Z</time>
      </trkpt>
      <trkpt lat="46.24672" lon="10.39937">
        <ele>1310</ele>
        <time>2018-09-21T07:35:57.003Z</time>
      </trkpt>
      <trkpt lat="46.24677" lon="10.39923">
        <ele>1310</ele>
        <time>2018-09-21T07:36:04.014Z</time>
      </trkpt>
      <trkpt lat="46.24687" lon="10.39918">
        <ele>1310.34829952</ele>
        <time>2018-09-21T07:36:09.003Z</time>
      </trkpt>
      <trkpt lat="46.24693" lon="10.39908">
        <ele>1310.84819968</ele>
        <time>2018-09-21T07:36:14.002Z</time>
      </trkpt>
      <trkpt lat="46.247" lon="10.39899">
        <ele>1312.0616428022</ele>
        <time>2018-09-21T07:36:21.014Z</time>
      </trkpt>
      <trkpt lat="46.24708" lon="10.39892">
        <ele>1313.1158479286</ele>
        <time>2018-09-21T07:36:27.003Z</time>
      </trkpt>
      <trkpt lat="46.24717" lon="10.39886">
        <ele>1313.8316969042</ele>
        <time>2018-09-21T07:36:34.004Z</time>
      </trkpt>
      <trkpt lat="46.24724" lon="10.39877">
        <ele>1315.0869310356</ele>
        <time>2018-09-21T07:36:41.014Z</time>
      </trkpt>
      <trkpt lat="46.24731" lon="10.39868">
        <ele>1316.4954088593</ele>
        <time>2018-09-21T07:36:48.002Z</time>
      </trkpt>
      <trkpt lat="46.24738" lon="10.39856">
        <ele>1317.6934129778</ele>
        <time>2018-09-21T07:36:54.004Z</time>
      </trkpt>
      <trkpt lat="46.24745" lon="10.39845">
        <ele>1318.5483975642</ele>
        <time>2018-09-21T07:37:01.013Z</time>
      </trkpt>
      <trkpt lat="46.24752" lon="10.39834">
        <ele>1319.2464673195</ele>
        <time>2018-09-21T07:37:08.014Z</time>
      </trkpt>
      <trkpt lat="46.2476" lon="10.3982">
        <ele>1320.0376469893</ele>
        <time>2018-09-21T07:37:16.014Z</time>
      </trkpt>
      <trkpt lat="46.24771" lon="10.39813">
        <ele>1320.6399962478</ele>
        <time>2018-09-21T07:37:22.014Z</time>
      </trkpt>
      <trkpt lat="46.24779" lon="10.39805">
        <ele>1321.3408812243</ele>
        <time>2018-09-21T07:37:29.002Z</time>
      </trkpt>
      <trkpt lat="46.24788" lon="10.39802">
        <ele>1321.841882907</ele>
        <time>2018-09-21T07:37:34.002Z</time>
      </trkpt>
      <trkpt lat="46.24794" lon="10.39791">
        <ele>1322.3454727375</ele>
        <time>2018-09-21T07:37:39.014Z</time>
      </trkpt>
      <trkpt lat="46.24799" lon="10.39779">
        <ele>1322.9480891416</ele>
        <time>2018-09-21T07:37:45.004Z</time>
      </trkpt>
      <trkpt lat="46.24804" lon="10.39767">
        <ele>1323.719616</ele>
        <time>2018-09-21T07:37:53.004Z</time>
      </trkpt>
      <trkpt lat="46.24812" lon="10.39759">
        <ele>1324</ele>
        <time>2018-09-21T07:37:59.042Z</time>
      </trkpt>
      <trkpt lat="46.2482" lon="10.39752">
        <ele>1324</ele>
        <time>2018-09-21T07:38:05.002Z</time>
      </trkpt>
      <trkpt lat="46.24829" lon="10.39746">
        <ele>1325.0617634267</ele>
        <time>2018-09-21T07:38:11.004Z</time>
      </trkpt>
      <trkpt lat="46.24839" lon="10.39744">
        <ele>1326</ele>
        <time>2018-09-21T07:38:17.002Z</time>
      </trkpt>
      <trkpt lat="46.24848" lon="10.39742">
        <ele>1326</ele>
        <time>2018-09-21T07:38:22.014Z</time>
      </trkpt>
      <trkpt lat="46.24858" lon="10.39739">
        <ele>1326.69880064</ele>
        <time>2018-09-21T07:38:29.014Z</time>
      </trkpt>
      <trkpt lat="46.24868" lon="10.39741">
        <ele>1328.4958074225</ele>
        <time>2018-09-21T07:38:38.004Z</time>
      </trkpt>
      <trkpt lat="46.24876" lon="10.39735">
        <ele>1330.7359557151</ele>
        <time>2018-09-21T07:38:48.003Z</time>
      </trkpt>
      <trkpt lat="46.24884" lon="10.39728">
        <ele>1333.0426546753</ele>
        <time>2018-09-21T07:38:56.004Z</time>
      </trkpt>
      <trkpt lat="46.24894" lon="10.39726">
        <ele>1333.6461763517</ele>
        <time>2018-09-21T07:39:02.003Z</time>
      </trkpt>
      <trkpt lat="46.24903" lon="10.39724">
        <ele>1334.49659904</ele>
        <time>2018-09-21T07:39:08.003Z</time>
      </trkpt>
      <trkpt lat="46.24912" lon="10.39717">
        <ele>1336.04839936</ele>
        <time>2018-09-21T07:39:16.004Z</time>
      </trkpt>
      <trkpt lat="46.24917" lon="10.39706">
        <ele>1336.74840064</ele>
        <time>2018-09-21T07:39:23.004Z</time>
      </trkpt>
      <trkpt lat="46.24921" lon="10.39693">
        <ele>1338.09639936</ele>
        <time>2018-09-21T07:39:31.002Z</time>
      </trkpt>
      <trkpt lat="46.24921" lon="10.39676">
        <ele>1339.2467192069</ele>
        <time>2018-09-21T07:39:38.002Z</time>
      </trkpt>
      <trkpt lat="46.24929" lon="10.39669">
        <ele>1340</ele>
        <time>2018-09-21T07:39:46.004Z</time>
      </trkpt>
      <trkpt lat="46.24938" lon="10.39665">
        <ele>1340</ele>
        <time>2018-09-21T07:39:52.012Z</time>
      </trkpt>
      <trkpt lat="46.24948" lon="10.39661">
        <ele>1339.9055775207</ele>
        <time>2018-09-21T07:39:57.014Z</time>
      </trkpt>
      <trkpt lat="46.24957" lon="10.39655">
        <ele>1339.4935947107</ele>
        <time>2018-09-21T07:40:01.002Z</time>
      </trkpt>
      <trkpt lat="46.24965" lon="10.39644">
        <ele>1339.1266949476</ele>
        <time>2018-09-21T07:40:07.014Z</time>
      </trkpt>
      <trkpt lat="46.24975" lon="10.39641">
        <ele>1339.6390139538</ele>
        <time>2018-09-21T07:40:12.004Z</time>
      </trkpt>
      <trkpt lat="46.24985" lon="10.39635">
        <ele>1340.34819968</ele>
        <time>2018-09-21T07:40:19.002Z</time>
      </trkpt>
      <trkpt lat="46.24994" lon="10.39633">
        <ele>1340.94940032</ele>
        <time>2018-09-21T07:40:25.014Z</time>
      </trkpt>
      <trkpt lat="46.25" lon="10.39623">
        <ele>1341</ele>
        <time>2018-09-21T07:40:30.004Z</time>
      </trkpt>
      <trkpt lat="46.25009" lon="10.39618">
        <ele>1341</ele>
        <time>2018-09-21T07:40:35.014Z</time>
      </trkpt>
      <trkpt lat="46.25017" lon="10.39611">
        <ele>1341</ele>
        <time>2018-09-21T07:40:42.002Z</time>
      </trkpt>
      <trkpt lat="46.25026" lon="10.39608">
        <ele>1341.04940032</ele>
        <time>2018-09-21T07:40:46.014Z</time>
      </trkpt>
      <trkpt lat="46.25034" lon="10.39601">
        <ele>1341.44940032</ele>
        <time>2018-09-21T07:40:50.014Z</time>
      </trkpt>
      <trkpt lat="46.25043" lon="10.39603">
        <ele>1341.84940032</ele>
        <time>2018-09-21T07:40:54.014Z</time>
      </trkpt>
      <trkpt lat="46.25053" lon="10.396">
        <ele>1342</ele>
        <time>2018-09-21T07:40:58.989Z</time>
      </trkpt>
      <trkpt lat="46.25062" lon="10.39596">
        <ele>1342</ele>
        <time>2018-09-21T07:41:05.014Z</time>
      </trkpt>
      <trkpt lat="46.2507" lon="10.39589">
        <ele>1342.5077225488</ele>
        <time>2018-09-21T07:41:11.014Z</time>
      </trkpt>
      <trkpt lat="46.2508" lon="10.39586">
        <ele>1343.1011548194</ele>
        <time>2018-09-21T07:41:17.014Z</time>
      </trkpt>
      <trkpt lat="46.25088" lon="10.39578">
        <ele>1343.8346263156</ele>
        <time>2018-09-21T07:41:24.004Z</time>
      </trkpt>
      <trkpt lat="46.2508" lon="10.39568">
        <ele>1343.4533198895</ele>
        <time>2018-09-21T07:41:31.014Z</time>
      </trkpt>
      <trkpt lat="46.25075" lon="10.39555">
        <ele>1343</ele>
        <time>2018-09-21T07:41:36.002Z</time>
      </trkpt>
      <trkpt lat="46.25075" lon="10.39539">
        <ele>1343</ele>
        <time>2018-09-21T07:41:40.002Z</time>
      </trkpt>
      <trkpt lat="46.25079" lon="10.39526">
        <ele>1343</ele>
        <time>2018-09-21T07:41:45.002Z</time>
      </trkpt>
      <trkpt lat="46.25084" lon="10.39514">
        <ele>1343.89639936</ele>
        <time>2018-09-21T07:41:50.002Z</time>
      </trkpt>
      <trkpt lat="46.25093" lon="10.39507">
        <ele>1345</ele>
        <time>2018-09-21T07:41:56.002Z</time>
      </trkpt>
      <trkpt lat="46.25101" lon="10.39497">
        <ele>1345</ele>
        <time>2018-09-21T07:42:03.014Z</time>
      </trkpt>
      <trkpt lat="46.25105" lon="10.39485">
        <ele>1345.2471645798</ele>
        <time>2018-09-21T07:42:08.014Z</time>
      </trkpt>
      <trkpt lat="46.25114" lon="10.39477">
        <ele>1345.8429842694</ele>
        <time>2018-09-21T07:42:14.002Z</time>
      </trkpt>
      <trkpt lat="46.25123" lon="10.39471">
        <ele>1346</ele>
        <time>2018-09-21T07:42:20.004Z</time>
      </trkpt>
      <trkpt lat="46.25131" lon="10.39467">
        <ele>1346</ele>
        <time>2018-09-21T07:42:25.002Z</time>
      </trkpt>
      <trkpt lat="46.25139" lon="10.39459">
        <ele>1346.54840064</ele>
        <time>2018-09-21T07:42:31.004Z</time>
      </trkpt>
      <trkpt lat="46.25148" lon="10.39453">
        <ele>1347.14840064</ele>
        <time>2018-09-21T07:42:37.004Z</time>
      </trkpt>
      <trkpt lat="46.25154" lon="10.39442">
        <ele>1347.74930048</ele>
        <time>2018-09-21T07:42:43.013Z</time>
      </trkpt>
      <trkpt lat="46.25161" lon="10.3943">
        <ele>1348.54819968</ele>
        <time>2018-09-21T07:42:51.002Z</time>
      </trkpt>
      <trkpt lat="46.25168" lon="10.39421">
        <ele>1349.1467324494</ele>
        <time>2018-09-21T07:42:57.002Z</time>
      </trkpt>
      <trkpt lat="46.25177" lon="10.39415">
        <ele>1349.741980985</ele>
        <time>2018-09-21T07:43:03.014Z</time>
      </trkpt>
      <trkpt lat="46.25185" lon="10.3941">
        <ele>1350.2418189952</ele>
        <time>2018-09-21T07:43:08.014Z</time>
      </trkpt>
      <trkpt lat="46.25193" lon="10.39401">
        <ele>1350.947879468</ele>
        <time>2018-09-21T07:43:15.004Z</time>
      </trkpt>
      <trkpt lat="46.25201" lon="10.39393">
        <ele>1351.7412463727</ele>
        <time>2018-09-21T07:43:23.014Z</time>
      </trkpt>
      <trkpt lat="46.2521" lon="10.39387">
        <ele>1352.543377648</ele>
        <time>2018-09-21T07:43:31.004Z</time>
      </trkpt>
      <trkpt lat="46.25218" lon="10.39383">
        <ele>1353.29659904</ele>
        <time>2018-09-21T07:43:37.003Z</time>
      </trkpt>
      <trkpt lat="46.25227" lon="10.39379">
        <ele>1354.49839872</ele>
        <time>2018-09-21T07:43:43.012Z</time>
      </trkpt>
      <trkpt lat="46.25238" lon="10.39379">
        <ele>1355</ele>
        <time>2018-09-21T07:43:49.002Z</time>
      </trkpt>
      <trkpt lat="46.25248" lon="10.39375">
        <ele>1355</ele>
        <time>2018-09-21T07:43:55.004Z</time>
      </trkpt>
      <trkpt lat="46.25258" lon="10.39369">
        <ele>1355.44940032</ele>
        <time>2018-09-21T07:44:00.014Z</time>
      </trkpt>
      <trkpt lat="46.25267" lon="10.39362">
        <ele>1356</ele>
        <time>2018-09-21T07:44:06.014Z</time>
      </trkpt>
      <trkpt lat="46.25276" lon="10.39356">
        <ele>1356</ele>
        <time>2018-09-21T07:44:12.002Z</time>
      </trkpt>
      <trkpt lat="46.25284" lon="10.39351">
        <ele>1356</ele>
        <time>2018-09-21T07:44:19.039Z</time>
      </trkpt>
      <trkpt lat="46.25292" lon="10.39342">
        <ele>1356.09679872</ele>
        <time>2018-09-21T07:44:26.004Z</time>
      </trkpt>
      <trkpt lat="46.253" lon="10.39336">
        <ele>1357.29700096</ele>
        <time>2018-09-21T07:44:32.005Z</time>
      </trkpt>
      <trkpt lat="46.2531" lon="10.39337">
        <ele>1358.4924596825</ele>
        <time>2018-09-21T07:44:38.002Z</time>
      </trkpt>
      <trkpt lat="46.25319" lon="10.39338">
        <ele>1360.1245987097</ele>
        <time>2018-09-21T07:44:46.012Z</time>
      </trkpt>
      <trkpt lat="46.25327" lon="10.39346">
        <ele>1362.8436477419</ele>
        <time>2018-09-21T07:44:55.003Z</time>
      </trkpt>
      <trkpt lat="46.25335" lon="10.39352">
        <ele>1365.8395246879</ele>
        <time>2018-09-21T07:45:05.004Z</time>
      </trkpt>
      <trkpt lat="46.25345" lon="10.39357">
        <ele>1367.6974914849</ele>
        <time>2018-09-21T07:45:14.002Z</time>
      </trkpt>
      <trkpt lat="46.25355" lon="10.39356">
        <ele>1369.4969022967</ele>
        <time>2018-09-21T07:45:23.002Z</time>
      </trkpt>
      <trkpt lat="46.25364" lon="10.39352">
        <ele>1373.76160256</ele>
        <time>2018-09-21T07:45:40.014Z</time>
      </trkpt>
      <trkpt lat="46.25373" lon="10.39347">
        <ele>1377.4942490432</ele>
        <time>2018-09-21T07:45:53.014Z</time>
      </trkpt>
      <trkpt lat="46.25383" lon="10.39343">
        <ele>1378.64940032</ele>
        <time>2018-09-21T07:46:02.014Z</time>
      </trkpt>
      <trkpt lat="46.25392" lon="10.39342">
        <ele>1380.09880064</ele>
        <time>2018-09-21T07:46:11.014Z</time>
      </trkpt>
      <trkpt lat="46.25401" lon="10.39337">
        <ele>1381.24940032</ele>
        <time>2018-09-21T07:46:18.014Z</time>
      </trkpt>
      <trkpt lat="46.25409" lon="10.3933">
        <ele>1381.94940032</ele>
        <time>2018-09-21T07:46:25.014Z</time>
      </trkpt>
      <trkpt lat="46.25419" lon="10.39328">
        <ele>1383.09680128</ele>
        <time>2018-09-21T07:46:31.004Z</time>
      </trkpt>
      <trkpt lat="46.25428" lon="10.39326">
        <ele>1384.55929984</ele>
        <time>2018-09-21T07:46:41.113Z</time>
      </trkpt>
      <trkpt lat="46.2544" lon="10.39324">
        <ele>1385.4467197158</ele>
        <time>2018-09-21T07:46:50.014Z</time>
      </trkpt>
      <trkpt lat="46.25448" lon="10.39317">
        <ele>1386.1442653645</ele>
        <time>2018-09-21T07:46:57.014Z</time>
      </trkpt>
      <trkpt lat="46.25457" lon="10.39315">
        <ele>1386.7467800382</ele>
        <time>2018-09-21T07:47:03.003Z</time>
      </trkpt>
      <trkpt lat="46.25466" lon="10.39309">
        <ele>1387.89880064</ele>
        <time>2018-09-21T07:47:10.014Z</time>
      </trkpt>
      <trkpt lat="46.25476" lon="10.39302">
        <ele>1389</ele>
        <time>2018-09-21T07:47:18.014Z</time>
      </trkpt>
      <trkpt lat="46.25485" lon="10.39296">
        <ele>1389.009792</ele>
        <time>2018-09-21T07:47:26.014Z</time>
      </trkpt>
      <trkpt lat="46.25495" lon="10.39295">
        <ele>1389.6337493333</ele>
        <time>2018-09-21T07:47:32.004Z</time>
      </trkpt>
      <trkpt lat="46.25504" lon="10.39296">
        <ele>1390.24940032</ele>
        <time>2018-09-21T07:47:38.014Z</time>
      </trkpt>
      <trkpt lat="46.25514" lon="10.39295">
        <ele>1390.84940032</ele>
        <time>2018-09-21T07:47:44.014Z</time>
      </trkpt>
      <trkpt lat="46.25524" lon="10.39295">
        <ele>1391.6488483207</ele>
        <time>2018-09-21T07:47:52.002Z</time>
      </trkpt>
      <trkpt lat="46.25533" lon="10.39289">
        <ele>1392.8999003876</ele>
        <time>2018-09-21T07:48:00.014Z</time>
      </trkpt>
      <trkpt lat="46.25542" lon="10.39287">
        <ele>1394.29880064</ele>
        <time>2018-09-21T07:48:07.014Z</time>
      </trkpt>
      <trkpt lat="46.25552" lon="10.39283">
        <ele>1395.69880064</ele>
        <time>2018-09-21T07:48:14.014Z</time>
      </trkpt>
      <trkpt lat="46.2556" lon="10.39276">
        <ele>1396</ele>
        <time>2018-09-21T07:48:20.004Z</time>
      </trkpt>
      <trkpt lat="46.2557" lon="10.39274">
        <ele>1396.6671269291</ele>
        <time>2018-09-21T07:48:28.999Z</time>
      </trkpt>
      <trkpt lat="46.2558" lon="10.39271">
        <ele>1398.2541380987</ele>
        <time>2018-09-21T07:48:37.014Z</time>
      </trkpt>
      <trkpt lat="46.25589" lon="10.39267">
        <ele>1400.0455826506</ele>
        <time>2018-09-21T07:48:46.014Z</time>
      </trkpt>
      <trkpt lat="46.25599" lon="10.39266">
        <ele>1400.7483938956</ele>
        <time>2018-09-21T07:48:53.014Z</time>
      </trkpt>
      <trkpt lat="46.25608" lon="10.39264">
        <ele>1401.8360933697</ele>
        <time>2018-09-21T07:49:00.014Z</time>
      </trkpt>
      <trkpt lat="46.25617" lon="10.39265">
        <ele>1403.0804324603</ele>
        <time>2018-09-21T07:49:07.014Z</time>
      </trkpt>
      <trkpt lat="46.25626" lon="10.39269">
        <ele>1403.7290813333</ele>
        <time>2018-09-21T07:49:13.014Z</time>
      </trkpt>
      <trkpt lat="46.25635" lon="10.39267">
        <ele>1405.09008</ele>
        <time>2018-09-21T07:49:21.014Z</time>
      </trkpt>
      <trkpt lat="46.25645" lon="10.39265">
        <ele>1406.2411592379</ele>
        <time>2018-09-21T07:49:28.014Z</time>
      </trkpt>
      <trkpt lat="46.25655" lon="10.39264">
        <ele>1407.0407675348</ele>
        <time>2018-09-21T07:49:36.014Z</time>
      </trkpt>
      <trkpt lat="46.25665" lon="10.3926">
        <ele>1407.7471245216</ele>
        <time>2018-09-21T07:49:43.014Z</time>
      </trkpt>
      <trkpt lat="46.25674" lon="10.39255">
        <ele>1409.0846998885</ele>
        <time>2018-09-21T07:49:51.014Z</time>
      </trkpt>
      <trkpt lat="46.25683" lon="10.39254">
        <ele>1410.6768620189</ele>
        <time>2018-09-21T07:49:59.014Z</time>
      </trkpt>
      <trkpt lat="46.25693" lon="10.39254">
        <ele>1412.0416908896</ele>
        <time>2018-09-21T07:50:06.004Z</time>
      </trkpt>
      <trkpt lat="46.25702" lon="10.39248">
        <ele>1412.747633675</ele>
        <time>2018-09-21T07:50:13.014Z</time>
      </trkpt>
      <trkpt lat="46.25714" lon="10.39242">
        <ele>1414.4958099774</ele>
        <time>2018-09-21T07:50:23.014Z</time>
      </trkpt>
      <trkpt lat="46.25724" lon="10.39237">
        <ele>1416.2563642312</ele>
        <time>2018-09-21T07:50:32.004Z</time>
      </trkpt>
      <trkpt lat="46.25733" lon="10.39238">
        <ele>1417.3313721631</ele>
        <time>2018-09-21T07:50:39.041Z</time>
      </trkpt>
      <trkpt lat="46.25743" lon="10.39241">
        <ele>1418.2950309058</ele>
        <time>2018-09-21T07:50:47.004Z</time>
      </trkpt>
      <trkpt lat="46.25752" lon="10.39239">
        <ele>1420.130985034</ele>
        <time>2018-09-21T07:50:56.014Z</time>
      </trkpt>
      <trkpt lat="46.25762" lon="10.39238">
        <ele>1422.844568753</ele>
        <time>2018-09-21T07:51:05.005Z</time>
      </trkpt>
      <trkpt lat="46.25772" lon="10.3924">
        <ele>1425.54820096</ele>
        <time>2018-09-21T07:51:14.014Z</time>
      </trkpt>
      <trkpt lat="46.25782" lon="10.39237">
        <ele>1426.84839936</ele>
        <time>2018-09-21T07:51:24.004Z</time>
      </trkpt>
      <trkpt lat="46.2579" lon="10.39231">
        <ele>1428.4715130666</ele>
        <time>2018-09-21T07:51:33.010Z</time>
      </trkpt>
      <trkpt lat="46.25799" lon="10.3923">
        <ele>1429.6749505988</ele>
        <time>2018-09-21T07:51:39.014Z</time>
      </trkpt>
      <trkpt lat="46.25809" lon="10.3923">
        <ele>1430.8969457291</ele>
        <time>2018-09-21T07:51:45.014Z</time>
      </trkpt>
      <trkpt lat="46.25817" lon="10.39226">
        <ele>1431.648</ele>
        <time>2018-09-21T07:51:52.000Z</time>
      </trkpt>
      <trkpt lat="46.25827" lon="10.39226">
        <ele>1432.4971139493</ele>
        <time>2018-09-21T07:51:58.018Z</time>
      </trkpt>
      <trkpt lat="46.25837" lon="10.39224">
        <ele>1433.8865677649</ele>
        <time>2018-09-21T07:52:05.000Z</time>
      </trkpt>
      <trkpt lat="46.25847" lon="10.39223">
        <ele>1434</ele>
        <time>2018-09-21T07:52:15.014Z</time>
      </trkpt>
      <trkpt lat="46.25855" lon="10.39214">
        <ele>1434.8467879156</ele>
        <time>2018-09-21T07:52:24.014Z</time>
      </trkpt>
      <trkpt lat="46.25863" lon="10.3921">
        <ele>1437.8478968511</ele>
        <time>2018-09-21T07:52:35.014Z</time>
      </trkpt>
      <trkpt lat="46.25874" lon="10.39207">
        <ele>1441.1134489346</ele>
        <time>2018-09-21T07:52:46.014Z</time>
      </trkpt>
      <trkpt lat="46.25883" lon="10.39206">
        <ele>1444.0484490736</ele>
        <time>2018-09-21T07:52:56.014Z</time>
      </trkpt>
      <trkpt lat="46.25893" lon="10.39208">
        <ele>1445.73251878</ele>
        <time>2018-09-21T07:53:08.013Z</time>
      </trkpt>
      <trkpt lat="46.25902" lon="10.39206">
        <ele>1448.2545104417</ele>
        <time>2018-09-21T07:53:17.014Z</time>
      </trkpt>
      <trkpt lat="46.25911" lon="10.3921">
        <ele>1450.2461850696</ele>
        <time>2018-09-21T07:53:27.014Z</time>
      </trkpt>
      <trkpt lat="46.25921" lon="10.39213">
        <ele>1452.0937854174</ele>
        <time>2018-09-21T07:53:36.003Z</time>
      </trkpt>
      <trkpt lat="46.2593" lon="10.39214">
        <ele>1453.8434946215</ele>
        <time>2018-09-21T07:53:45.014Z</time>
      </trkpt>
      <trkpt lat="46.2594" lon="10.39216">
        <ele>1455.8956706941</ele>
        <time>2018-09-21T07:53:55.014Z</time>
      </trkpt>
      <trkpt lat="46.25949" lon="10.39213">
        <ele>1460.09880064</ele>
        <time>2018-09-21T07:54:06.014Z</time>
      </trkpt>
      <trkpt lat="46.25958" lon="10.39215">
        <ele>1461.49880064</ele>
        <time>2018-09-21T07:54:13.014Z</time>
      </trkpt>
      <trkpt lat="46.25967" lon="10.39219">
        <ele>1462.89880064</ele>
        <time>2018-09-21T07:54:20.014Z</time>
      </trkpt>
      <trkpt lat="46.25976" lon="10.39218">
        <ele>1465.69880064</ele>
        <time>2018-09-21T07:54:34.014Z</time>
      </trkpt>
      <trkpt lat="46.25985" lon="10.39223">
        <ele>1468.54820096</ele>
        <time>2018-09-21T07:54:44.014Z</time>
      </trkpt>
      <trkpt lat="46.25994" lon="10.39227">
        <ele>1470.49880064</ele>
        <time>2018-09-21T07:54:53.014Z</time>
      </trkpt>
      <trkpt lat="46.26003" lon="10.39227">
        <ele>1472.69880064</ele>
        <time>2018-09-21T07:55:04.014Z</time>
      </trkpt>
      <trkpt lat="46.26012" lon="10.3923">
        <ele>1476.09880064</ele>
        <time>2018-09-21T07:55:16.014Z</time>
      </trkpt>
      <trkpt lat="46.26021" lon="10.39233">
        <ele>1478.14820096</ele>
        <time>2018-09-21T07:55:26.014Z</time>
      </trkpt>
      <trkpt lat="46.26031" lon="10.39235">
        <ele>1482.34820096</ele>
        <time>2018-09-21T07:55:40.014Z</time>
      </trkpt>
      <trkpt lat="46.26039" lon="10.39242">
        <ele>1484.4480560086</ele>
        <time>2018-09-21T07:55:50.014Z</time>
      </trkpt>
      <trkpt lat="46.26049" lon="10.39245">
        <ele>1485.9885660144</ele>
        <time>2018-09-21T07:55:58.014Z</time>
      </trkpt>
      <trkpt lat="46.26056" lon="10.39237">
        <ele>1489.74940032</ele>
        <time>2018-09-21T07:56:13.014Z</time>
      </trkpt>
      <trkpt lat="46.26064" lon="10.39232">
        <ele>1491.8837307937</ele>
        <time>2018-09-21T07:56:25.014Z</time>
      </trkpt>
      <trkpt lat="46.26073" lon="10.39233">
        <ele>1493.4947587097</ele>
        <time>2018-09-21T07:56:33.014Z</time>
      </trkpt>
      <trkpt lat="46.26083" lon="10.39233">
        <ele>1495.49880064</ele>
        <time>2018-09-21T07:56:43.014Z</time>
      </trkpt>
      <trkpt lat="46.26092" lon="10.39236">
        <ele>1497.2560942397</ele>
        <time>2018-09-21T07:56:52.014Z</time>
      </trkpt>
      <trkpt lat="46.26098" lon="10.39247">
        <ele>1497.836365392</ele>
        <time>2018-09-21T07:56:55.014Z</time>
      </trkpt>
      <trkpt lat="46.26108" lon="10.39249">
        <ele>1500.4961221275</ele>
        <time>2018-09-21T07:57:04.014Z</time>
      </trkpt>
      <trkpt lat="46.26118" lon="10.39252">
        <ele>1502.085397812</ele>
        <time>2018-09-21T07:57:16.014Z</time>
      </trkpt>
      <trkpt lat="46.26127" lon="10.39258">
        <ele>1503.4952673499</ele>
        <time>2018-09-21T07:57:23.014Z</time>
      </trkpt>
      <trkpt lat="46.26137" lon="10.39256">
        <ele>1507.321675716</ele>
        <time>2018-09-21T07:57:37.014Z</time>
      </trkpt>
      <trkpt lat="46.26146" lon="10.39255">
        <ele>1510.1424877643</ele>
        <time>2018-09-21T07:57:46.014Z</time>
      </trkpt>
      <trkpt lat="46.26156" lon="10.39257">
        <ele>1512.8445878351</ele>
        <time>2018-09-21T07:57:55.003Z</time>
      </trkpt>
      <trkpt lat="46.26165" lon="10.39253">
        <ele>1515.4791554211</ele>
        <time>2018-09-21T07:58:08.014Z</time>
      </trkpt>
      <trkpt lat="46.26174" lon="10.39249">
        <ele>1517.1130350405</ele>
        <time>2018-09-21T07:58:17.014Z</time>
      </trkpt>
      <trkpt lat="46.26184" lon="10.39253">
        <ele>1517.9472370562</ele>
        <time>2018-09-21T07:58:25.014Z</time>
      </trkpt>
      <trkpt lat="46.26192" lon="10.39263">
        <ele>1518.5434224986</ele>
        <time>2018-09-21T07:58:31.014Z</time>
      </trkpt>
      <trkpt lat="46.26201" lon="10.39273">
        <ele>1519.4821032905</ele>
        <time>2018-09-21T07:58:38.014Z</time>
      </trkpt>
      <trkpt lat="46.26209" lon="10.39278">
        <ele>1520.4930240625</ele>
        <time>2018-09-21T07:58:43.013Z</time>
      </trkpt>
      <trkpt lat="46.26218" lon="10.39283">
        <ele>1521.34940032</ele>
        <time>2018-09-21T07:58:49.014Z</time>
      </trkpt>
      <trkpt lat="46.26227" lon="10.39287">
        <ele>1522.49880064</ele>
        <time>2018-09-21T07:58:58.014Z</time>
      </trkpt>
      <trkpt lat="46.26236" lon="10.39293">
        <ele>1524.4822155824</ele>
        <time>2018-09-21T07:59:08.001Z</time>
      </trkpt>
      <trkpt lat="46.26244" lon="10.39301">
        <ele>1526.2449656171</ele>
        <time>2018-09-21T07:59:17.014Z</time>
      </trkpt>
      <trkpt lat="46.26255" lon="10.39303">
        <ele>1529.081287674</ele>
        <time>2018-09-21T07:59:31.014Z</time>
      </trkpt>
      <trkpt lat="46.26265" lon="10.39299">
        <ele>1531.8981897131</ele>
        <time>2018-09-21T07:59:45.014Z</time>
      </trkpt>
      <trkpt lat="46.26267" lon="10.39313">
        <ele>1537.3785303044</ele>
        <time>2018-09-21T07:59:57.014Z</time>
      </trkpt>
      <trkpt lat="46.26265" lon="10.39328">
        <ele>1539.8285272288</ele>
        <time>2018-09-21T08:00:05.001Z</time>
      </trkpt>
      <trkpt lat="46.2626" lon="10.39341">
        <ele>1540.7416920969</ele>
        <time>2018-09-21T08:00:13.014Z</time>
      </trkpt>
      <trkpt lat="46.26255" lon="10.39353">
        <ele>1542.2924327613</ele>
        <time>2018-09-21T08:00:22.014Z</time>
      </trkpt>
      <trkpt lat="46.26247" lon="10.39359">
        <ele>1543.2461998014</ele>
        <time>2018-09-21T08:00:28.014Z</time>
      </trkpt>
      <trkpt lat="46.26238" lon="10.39364">
        <ele>1543.8385000872</ele>
        <time>2018-09-21T08:00:34.014Z</time>
      </trkpt>
      <trkpt lat="46.26228" lon="10.39362">
        <ele>1544.7460996973</ele>
        <time>2018-09-21T08:00:43.014Z</time>
      </trkpt>
      <trkpt lat="46.2622" lon="10.39356">
        <ele>1545.64940032</ele>
        <time>2018-09-21T08:00:52.014Z</time>
      </trkpt>
      <trkpt lat="46.2621" lon="10.39353">
        <ele>1546.34940032</ele>
        <time>2018-09-21T08:00:59.014Z</time>
      </trkpt>
      <trkpt lat="46.262" lon="10.39348">
        <ele>1547.0978224778</ele>
        <time>2018-09-21T08:01:06.014Z</time>
      </trkpt>
      <trkpt lat="46.26191" lon="10.39343">
        <ele>1548.880001825</ele>
        <time>2018-09-21T08:01:15.014Z</time>
      </trkpt>
      <trkpt lat="46.26183" lon="10.39345">
        <ele>1550.6948426016</ele>
        <time>2018-09-21T08:01:24.001Z</time>
      </trkpt>
      <trkpt lat="46.26179" lon="10.39357">
        <ele>1553.1844184194</ele>
        <time>2018-09-21T08:01:37.014Z</time>
      </trkpt>
      <trkpt lat="46.26174" lon="10.39368">
        <ele>1555.2485061355</ele>
        <time>2018-09-21T08:01:48.015Z</time>
      </trkpt>
      <trkpt lat="46.26168" lon="10.39382">
        <ele>1556.3467874699</ele>
        <time>2018-09-21T08:01:59.014Z</time>
      </trkpt>
      <trkpt lat="46.26162" lon="10.39395">
        <ele>1557.09880064</ele>
        <time>2018-09-21T08:02:06.014Z</time>
      </trkpt>
      <trkpt lat="46.26152" lon="10.39399">
        <ele>1558.69880064</ele>
        <time>2018-09-21T08:02:14.014Z</time>
      </trkpt>
      <trkpt lat="46.26142" lon="10.394">
        <ele>1560.2962090515</ele>
        <time>2018-09-21T08:02:22.014Z</time>
      </trkpt>
      <trkpt lat="46.26133" lon="10.39406">
        <ele>1561.8965945352</ele>
        <time>2018-09-21T08:02:30.014Z</time>
      </trkpt>
      <trkpt lat="46.26125" lon="10.39413">
        <ele>1563.2926874308</ele>
        <time>2018-09-21T08:02:37.001Z</time>
      </trkpt>
      <trkpt lat="46.26116" lon="10.39417">
        <ele>1564.4810283004</ele>
        <time>2018-09-21T08:02:43.014Z</time>
      </trkpt>
      <trkpt lat="46.26106" lon="10.3942">
        <ele>1565.6451420243</ele>
        <time>2018-09-21T08:02:52.014Z</time>
      </trkpt>
      <trkpt lat="46.26096" lon="10.39425">
        <ele>1567.29880064</ele>
        <time>2018-09-21T08:03:02.014Z</time>
      </trkpt>
      <trkpt lat="46.26089" lon="10.39435">
        <ele>1569.066796075</ele>
        <time>2018-09-21T08:03:11.014Z</time>
      </trkpt>
      <trkpt lat="46.26081" lon="10.39444">
        <ele>1570.3292782379</ele>
        <time>2018-09-21T08:03:19.014Z</time>
      </trkpt>
      <trkpt lat="46.26072" lon="10.3944">
        <ele>1570.8434017936</ele>
        <time>2018-09-21T08:03:24.001Z</time>
      </trkpt>
      <trkpt lat="46.26066" lon="10.39449">
        <ele>1573.0988995079</ele>
        <time>2018-09-21T08:03:36.014Z</time>
      </trkpt>
      <trkpt lat="46.26058" lon="10.39455">
        <ele>1574.89789729</ele>
        <time>2018-09-21T08:03:45.000Z</time>
      </trkpt>
      <trkpt lat="46.26049" lon="10.39455">
        <ele>1577.2111474368</ele>
        <time>2018-09-21T08:03:57.014Z</time>
      </trkpt>
      <trkpt lat="46.26039" lon="10.39456">
        <ele>1578.1152470695</ele>
        <time>2018-09-21T08:04:01.313Z</time>
      </trkpt>
      <trkpt lat="46.26029" lon="10.39461">
        <ele>1579.6500501621</ele>
        <time>2018-09-21T08:04:12.014Z</time>
      </trkpt>
      <trkpt lat="46.2602" lon="10.39462">
        <ele>1581.2988999157</ele>
        <time>2018-09-21T08:04:22.011Z</time>
      </trkpt>
      <trkpt lat="46.26011" lon="10.39463">
        <ele>1583.6340936798</ele>
        <time>2018-09-21T08:04:31.016Z</time>
      </trkpt>
      <trkpt lat="46.26001" lon="10.39463">
        <ele>1586.4927432258</ele>
        <time>2018-09-21T08:04:43.014Z</time>
      </trkpt>
      <trkpt lat="46.25993" lon="10.39472">
        <ele>1588.8986993718</ele>
        <time>2018-09-21T08:04:55.014Z</time>
      </trkpt>
      <trkpt lat="46.25984" lon="10.39479">
        <ele>1591.4930414358</ele>
        <time>2018-09-21T08:05:08.000Z</time>
      </trkpt>
      <trkpt lat="46.25979" lon="10.39492">
        <ele>1593.0431408624</ele>
        <time>2018-09-21T08:05:16.014Z</time>
      </trkpt>
      <trkpt lat="46.25969" lon="10.39495">
        <ele>1593.7389663548</ele>
        <time>2018-09-21T08:05:23.014Z</time>
      </trkpt>
      <trkpt lat="46.25958" lon="10.39505">
        <ele>1595.2837875638</ele>
        <time>2018-09-21T08:05:32.014Z</time>
      </trkpt>
      <trkpt lat="46.25948" lon="10.3951">
        <ele>1596.7481411061</ele>
        <time>2018-09-21T08:05:43.014Z</time>
      </trkpt>
      <trkpt lat="46.25938" lon="10.39511">
        <ele>1598.29880064</ele>
        <time>2018-09-21T08:05:52.014Z</time>
      </trkpt>
      <trkpt lat="46.25928" lon="10.39515">
        <ele>1600.64820096</ele>
        <time>2018-09-21T08:06:01.014Z</time>
      </trkpt>
      <trkpt lat="46.25918" lon="10.39514">
        <ele>1602.7427161127</ele>
        <time>2018-09-21T08:06:13.014Z</time>
      </trkpt>
      <trkpt lat="46.25908" lon="10.39516">
        <ele>1604.6462288929</ele>
        <time>2018-09-21T08:06:24.014Z</time>
      </trkpt>
      <trkpt lat="46.25898" lon="10.3952">
        <ele>1606.0709278818</ele>
        <time>2018-09-21T08:06:31.014Z</time>
      </trkpt>
      <trkpt lat="46.2589" lon="10.3953">
        <ele>1607.8431530766</ele>
        <time>2018-09-21T08:06:40.014Z</time>
      </trkpt>
      <trkpt lat="46.25881" lon="10.39534">
        <ele>1609.0879019526</ele>
        <time>2018-09-21T08:06:47.001Z</time>
      </trkpt>
      <trkpt lat="46.25874" lon="10.39543">
        <ele>1609.9463592659</ele>
        <time>2018-09-21T08:06:55.019Z</time>
      </trkpt>
      <trkpt lat="46.25867" lon="10.39551">
        <ele>1612.24550144</ele>
        <time>2018-09-21T08:07:03.005Z</time>
      </trkpt>
      <trkpt lat="46.25862" lon="10.39565">
        <ele>1615.09880064</ele>
        <time>2018-09-21T08:07:16.014Z</time>
      </trkpt>
      <trkpt lat="46.25858" lon="10.39578">
        <ele>1617.1452950588</ele>
        <time>2018-09-21T08:07:26.014Z</time>
      </trkpt>
      <trkpt lat="46.2585" lon="10.39585">
        <ele>1620.2482555039</ele>
        <time>2018-09-21T08:07:37.001Z</time>
      </trkpt>
      <trkpt lat="46.25843" lon="10.39594">
        <ele>1622.2029173333</ele>
        <time>2018-09-21T08:07:47.014Z</time>
      </trkpt>
      <trkpt lat="46.25835" lon="10.396">
        <ele>1623.87</ele>
        <time>2018-09-21T08:07:55.016Z</time>
      </trkpt>
      <trkpt lat="46.25827" lon="10.3961">
        <ele>1626.09880064</ele>
        <time>2018-09-21T08:08:06.014Z</time>
      </trkpt>
      <trkpt lat="46.25822" lon="10.39621">
        <ele>1627.89880064</ele>
        <time>2018-09-21T08:08:15.014Z</time>
      </trkpt>
      <trkpt lat="46.25816" lon="10.39631">
        <ele>1628.74829952</ele>
        <time>2018-09-21T08:08:23.003Z</time>
      </trkpt>
      <trkpt lat="46.25809" lon="10.39642">
        <ele>1631.0985050932</ele>
        <time>2018-09-21T08:08:36.014Z</time>
      </trkpt>
      <trkpt lat="46.25799" lon="10.39651">
        <ele>1632.8931206722</ele>
        <time>2018-09-21T08:08:45.014Z</time>
      </trkpt>
      <trkpt lat="46.2579" lon="10.3966">
        <ele>1636.09880064</ele>
        <time>2018-09-21T08:08:56.014Z</time>
      </trkpt>
      <trkpt lat="46.25801" lon="10.3965">
        <ele>1643.2423158532</ele>
        <time>2018-09-21T08:09:27.014Z</time>
      </trkpt>
      <trkpt lat="46.25809" lon="10.39657">
        <ele>1646.0709278818</ele>
        <time>2018-09-21T08:09:41.014Z</time>
      </trkpt>
      <trkpt lat="46.25804" lon="10.39669">
        <ele>1649.24820096</ele>
        <time>2018-09-21T08:09:53.014Z</time>
      </trkpt>
      <trkpt lat="46.25797" lon="10.39678">
        <ele>1651.2956086519</ele>
        <time>2018-09-21T08:10:02.011Z</time>
      </trkpt>
      <trkpt lat="46.2579" lon="10.39689">
        <ele>1652.6390921485</ele>
        <time>2018-09-21T08:10:12.014Z</time>
      </trkpt>
      <trkpt lat="46.25787" lon="10.39702">
        <ele>1654.6892709312</ele>
        <time>2018-09-21T08:10:24.015Z</time>
      </trkpt>
      <trkpt lat="46.25784" lon="10.39716">
        <ele>1657.8477441437</ele>
        <time>2018-09-21T08:10:35.014Z</time>
      </trkpt>
      <trkpt lat="46.25786" lon="10.3973">
        <ele>1665.0969330653</ele>
        <time>2018-09-21T08:11:06.010Z</time>
      </trkpt>
      <trkpt lat="46.25782" lon="10.39744">
        <ele>1666.8781404936</ele>
        <time>2018-09-21T08:11:15.014Z</time>
      </trkpt>
      <trkpt lat="46.25775" lon="10.39752">
        <ele>1669.4787459109</ele>
        <time>2018-09-21T08:11:28.014Z</time>
      </trkpt>
      <trkpt lat="46.2577" lon="10.39763">
        <ele>1671.2445849084</ele>
        <time>2018-09-21T08:11:38.002Z</time>
      </trkpt>
      <trkpt lat="46.25763" lon="10.39771">
        <ele>1672.071869948</ele>
        <time>2018-09-21T08:11:46.013Z</time>
      </trkpt>
      <trkpt lat="46.25755" lon="10.39779">
        <ele>1674.2090670098</ele>
        <time>2018-09-21T08:11:57.014Z</time>
      </trkpt>
      <trkpt lat="46.25765" lon="10.39778">
        <ele>1680.89799936</ele>
        <time>2018-09-21T08:12:30.010Z</time>
      </trkpt>
      <trkpt lat="46.25774" lon="10.3978">
        <ele>1682.2403674704</ele>
        <time>2018-09-21T08:12:38.003Z</time>
      </trkpt>
      <trkpt lat="46.25775" lon="10.39793">
        <ele>1684.6893479415</ele>
        <time>2018-09-21T08:12:54.018Z</time>
      </trkpt>
      <trkpt lat="46.25768" lon="10.39803">
        <ele>1687.84820096</ele>
        <time>2018-09-21T08:13:05.014Z</time>
      </trkpt>
      <trkpt lat="46.2576" lon="10.39809">
        <ele>1688.74940032</ele>
        <time>2018-09-21T08:13:13.014Z</time>
      </trkpt>
      <trkpt lat="46.2575" lon="10.39811">
        <ele>1690.09880064</ele>
        <time>2018-09-21T08:13:21.014Z</time>
      </trkpt>
      <trkpt lat="46.25741" lon="10.39814">
        <ele>1692.49880064</ele>
        <time>2018-09-21T08:13:33.014Z</time>
      </trkpt>
      <trkpt lat="46.25734" lon="10.39823">
        <ele>1695.24820096</ele>
        <time>2018-09-21T08:13:43.014Z</time>
      </trkpt>
      <trkpt lat="46.25729" lon="10.39834">
        <ele>1697.09880064</ele>
        <time>2018-09-21T08:13:51.014Z</time>
      </trkpt>
      <trkpt lat="46.25722" lon="10.39844">
        <ele>1698.84829952</ele>
        <time>2018-09-21T08:14:04.003Z</time>
      </trkpt>
      <trkpt lat="46.25718" lon="10.39856">
        <ele>1699.6468130677</ele>
        <time>2018-09-21T08:14:12.014Z</time>
      </trkpt>
      <trkpt lat="46.25716" lon="10.3987">
        <ele>1701.0951813655</ele>
        <time>2018-09-21T08:14:21.014Z</time>
      </trkpt>
      <trkpt lat="46.25723" lon="10.3988">
        <ele>1702.94840064</ele>
        <time>2018-09-21T08:14:35.004Z</time>
      </trkpt>
      <trkpt lat="46.25726" lon="10.39892">
        <ele>1704.94820096</ele>
        <time>2018-09-21T08:14:42.014Z</time>
      </trkpt>
      <trkpt lat="46.25731" lon="10.39903">
        <ele>1708.09880064</ele>
        <time>2018-09-21T08:14:56.014Z</time>
      </trkpt>
      <trkpt lat="46.25737" lon="10.39917">
        <ele>1709.69880064</ele>
        <time>2018-09-21T08:15:04.014Z</time>
      </trkpt>
      <trkpt lat="46.25741" lon="10.39928">
        <ele>1711.49880064</ele>
        <time>2018-09-21T08:15:13.014Z</time>
      </trkpt>
      <trkpt lat="46.25744" lon="10.39942">
        <ele>1713.29880064</ele>
        <time>2018-09-21T08:15:22.014Z</time>
      </trkpt>
      <trkpt lat="46.25741" lon="10.39929">
        <ele>1717.64759808</ele>
        <time>2018-09-21T08:15:41.012Z</time>
      </trkpt>
      <trkpt lat="46.25745" lon="10.39915">
        <ele>1719.6763093273</ele>
        <time>2018-09-21T08:15:49.003Z</time>
      </trkpt>
      <trkpt lat="46.25749" lon="10.39903">
        <ele>1721.6616495912</ele>
        <time>2018-09-21T08:15:59.029Z</time>
      </trkpt>
      <trkpt lat="46.25757" lon="10.39895">
        <ele>1723.9741151373</ele>
        <time>2018-09-21T08:16:08.004Z</time>
      </trkpt>
      <trkpt lat="46.25766" lon="10.39893">
        <ele>1727.4381635918</ele>
        <time>2018-09-21T08:16:20.014Z</time>
      </trkpt>
      <trkpt lat="46.25767" lon="10.39907">
        <ele>1729.29880064</ele>
        <time>2018-09-21T08:16:32.014Z</time>
      </trkpt>
      <trkpt lat="46.25767" lon="10.39921">
        <ele>1732.84759808</ele>
        <time>2018-09-21T08:16:45.012Z</time>
      </trkpt>
      <trkpt lat="46.25769" lon="10.39934">
        <ele>1733.94940032</ele>
        <time>2018-09-21T08:16:55.014Z</time>
      </trkpt>
      <trkpt lat="46.25774" lon="10.39945">
        <ele>1735.6786567589</ele>
        <time>2018-09-21T08:17:04.014Z</time>
      </trkpt>
      <trkpt lat="46.25777" lon="10.39932">
        <ele>1741.5197031412</ele>
        <time>2018-09-21T08:17:24.003Z</time>
      </trkpt>
      <trkpt lat="46.25784" lon="10.39922">
        <ele>1743.4937383475</ele>
        <time>2018-09-21T08:17:33.014Z</time>
      </trkpt>
      <trkpt lat="46.25787" lon="10.3991">
        <ele>1745.29639936</ele>
        <time>2018-09-21T08:17:42.002Z</time>
      </trkpt>
      <trkpt lat="46.25798" lon="10.39912">
        <ele>1746.8970071997</ele>
        <time>2018-09-21T08:17:50.014Z</time>
      </trkpt>
      <trkpt lat="46.25799" lon="10.39926">
        <ele>1749.0442907932</ele>
        <time>2018-09-21T08:17:59.014Z</time>
      </trkpt>
      <trkpt lat="46.25801" lon="10.39939">
        <ele>1752.04820096</ele>
        <time>2018-09-21T08:18:09.014Z</time>
      </trkpt>
      <trkpt lat="46.25799" lon="10.39952">
        <ele>1754.5499500941</ele>
        <time>2018-09-21T08:18:21.014Z</time>
      </trkpt>
      <trkpt lat="46.25801" lon="10.39965">
        <ele>1755.8468592752</ele>
        <time>2018-09-21T08:18:34.004Z</time>
      </trkpt>
      <trkpt lat="46.25806" lon="10.39978">
        <ele>1757.2973958814</ele>
        <time>2018-09-21T08:18:42.014Z</time>
      </trkpt>
      <trkpt lat="46.25806" lon="10.39963">
        <ele>1762.5219414233</ele>
        <time>2018-09-21T08:19:02.014Z</time>
      </trkpt>
      <trkpt lat="46.25811" lon="10.39949">
        <ele>1764.5342261669</ele>
        <time>2018-09-21T08:19:11.002Z</time>
      </trkpt>
      <trkpt lat="46.25818" lon="10.3994">
        <ele>1765.3319385551</ele>
        <time>2018-09-21T08:19:19.012Z</time>
      </trkpt>
      <trkpt lat="46.25828" lon="10.39944">
        <ele>1767.0493677637</ele>
        <time>2018-09-21T08:19:31.014Z</time>
      </trkpt>
      <trkpt lat="46.25825" lon="10.39958">
        <ele>1768.49880064</ele>
        <time>2018-09-21T08:19:38.014Z</time>
      </trkpt>
      <trkpt lat="46.25823" lon="10.39972">
        <ele>1769.89880064</ele>
        <time>2018-09-21T08:19:45.014Z</time>
      </trkpt>
      <trkpt lat="46.25824" lon="10.39986">
        <ele>1770.64839936</ele>
        <time>2018-09-21T08:19:52.004Z</time>
      </trkpt>
      <trkpt lat="46.25824" lon="10.39999">
        <ele>1771.69880064</ele>
        <time>2018-09-21T08:19:59.014Z</time>
      </trkpt>
      <trkpt lat="46.25826" lon="10.39984">
        <ele>1775.4268859382</ele>
        <time>2018-09-21T08:20:17.003Z</time>
      </trkpt>
      <trkpt lat="46.25831" lon="10.39972">
        <ele>1778.0979193968</ele>
        <time>2018-09-21T08:20:26.014Z</time>
      </trkpt>
      <trkpt lat="46.25834" lon="10.39959">
        <ele>1779.4834506984</ele>
        <time>2018-09-21T08:20:33.004Z</time>
      </trkpt>
      <trkpt lat="46.25843" lon="10.39952">
        <ele>1781.5144293798</ele>
        <time>2018-09-21T08:20:43.114Z</time>
      </trkpt>
      <trkpt lat="46.25852" lon="10.3995">
        <ele>1783.0870184617</ele>
        <time>2018-09-21T08:20:51.004Z</time>
      </trkpt>
      <trkpt lat="46.25857" lon="10.39961">
        <ele>1784.0811257831</ele>
        <time>2018-09-21T08:20:56.014Z</time>
      </trkpt>
      <trkpt lat="46.25853" lon="10.39975">
        <ele>1785.8883546988</ele>
        <time>2018-09-21T08:21:05.014Z</time>
      </trkpt>
      <trkpt lat="46.25847" lon="10.39986">
        <ele>1787.6972871727</ele>
        <time>2018-09-21T08:21:14.014Z</time>
      </trkpt>
      <trkpt lat="46.2585" lon="10.40002">
        <ele>1789.71879936</ele>
        <time>2018-09-21T08:21:24.114Z</time>
      </trkpt>
      <trkpt lat="46.25848" lon="10.40015">
        <ele>1791.09880064</ele>
        <time>2018-09-21T08:21:36.014Z</time>
      </trkpt>
      <trkpt lat="46.25854" lon="10.40005">
        <ele>1794.09639936</ele>
        <time>2018-09-21T08:21:51.002Z</time>
      </trkpt>
      <trkpt lat="46.25862" lon="10.39998">
        <ele>1797.59760128</ele>
        <time>2018-09-21T08:22:02.014Z</time>
      </trkpt>
      <trkpt lat="46.2587" lon="10.39992">
        <ele>1799.6456172112</ele>
        <time>2018-09-21T08:22:12.002Z</time>
      </trkpt>
      <trkpt lat="46.2588" lon="10.39992">
        <ele>1801.0951813655</ele>
        <time>2018-09-21T08:22:21.014Z</time>
      </trkpt>
      <trkpt lat="46.25889" lon="10.39991">
        <ele>1802.34840064</ele>
        <time>2018-09-21T08:22:29.004Z</time>
      </trkpt>
      <trkpt lat="46.25898" lon="10.39986">
        <ele>1803.8961120172</ele>
        <time>2018-09-21T08:22:40.014Z</time>
      </trkpt>
      <trkpt lat="46.25907" lon="10.39984">
        <ele>1805.6928795002</ele>
        <time>2018-09-21T08:22:49.004Z</time>
      </trkpt>
      <trkpt lat="46.25916" lon="10.39987">
        <ele>1807.14519808</ele>
        <time>2018-09-21T08:22:56.004Z</time>
      </trkpt>
      <trkpt lat="46.25916" lon="10.4">
        <ele>1809.24820096</ele>
        <time>2018-09-21T08:23:03.014Z</time>
      </trkpt>
      <trkpt lat="46.25913" lon="10.40016">
        <ele>1810.8477054516</ele>
        <time>2018-09-21T08:23:14.014Z</time>
      </trkpt>
      <trkpt lat="46.25911" lon="10.40029">
        <ele>1812.9003013197</ele>
        <time>2018-09-21T08:23:25.013Z</time>
      </trkpt>
      <trkpt lat="46.25906" lon="10.4004">
        <ele>1816.49880064</ele>
        <time>2018-09-21T08:23:38.014Z</time>
      </trkpt>
      <trkpt lat="46.25899" lon="10.40049">
        <ele>1818.493373375</ele>
        <time>2018-09-21T08:23:48.014Z</time>
      </trkpt>
      <trkpt lat="46.25892" lon="10.4006">
        <ele>1820.0776542213</ele>
        <time>2018-09-21T08:23:56.014Z</time>
      </trkpt>
      <trkpt lat="46.25887" lon="10.40073">
        <ele>1822.4775871264</ele>
        <time>2018-09-21T08:24:08.013Z</time>
      </trkpt>
      <trkpt lat="46.25879" lon="10.40081">
        <ele>1824.3307541423</ele>
        <time>2018-09-21T08:24:17.014Z</time>
      </trkpt>
      <trkpt lat="46.25879" lon="10.40095">
        <ele>1827.1478094024</ele>
        <time>2018-09-21T08:24:27.004Z</time>
      </trkpt>
      <trkpt lat="46.25877" lon="10.4011">
        <ele>1827.9456178486</ele>
        <time>2018-09-21T08:24:35.014Z</time>
      </trkpt>
      <trkpt lat="46.25878" lon="10.40125">
        <ele>1830.0488145455</ele>
        <time>2018-09-21T08:24:46.014Z</time>
      </trkpt>
      <trkpt lat="46.25878" lon="10.4014">
        <ele>1831.4654908235</ele>
        <time>2018-09-21T08:24:58.014Z</time>
      </trkpt>
      <trkpt lat="46.25877" lon="10.40155">
        <ele>1833.2425626446</ele>
        <time>2018-09-21T08:25:07.014Z</time>
      </trkpt>
      <trkpt lat="46.25874" lon="10.40169">
        <ele>1834.8954552066</ele>
        <time>2018-09-21T08:25:15.014Z</time>
      </trkpt>
      <trkpt lat="46.2587" lon="10.40182">
        <ele>1835.7418821335</ele>
        <time>2018-09-21T08:25:23.013Z</time>
      </trkpt>
      <trkpt lat="46.25867" lon="10.40195">
        <ele>1836</ele>
        <time>2018-09-21T08:25:33.014Z</time>
      </trkpt>
      <trkpt lat="46.25875" lon="10.40185">
        <ele>1841.65929984</ele>
        <time>2018-09-21T08:26:02.113Z</time>
      </trkpt>
      <trkpt lat="46.25882" lon="10.40173">
        <ele>1843.2923222996</ele>
        <time>2018-09-21T08:26:12.001Z</time>
      </trkpt>
      <trkpt lat="46.25883" lon="10.40158">
        <ele>1844.4207352824</ele>
        <time>2018-09-21T08:26:20.014Z</time>
      </trkpt>
      <trkpt lat="46.25888" lon="10.40147">
        <ele>1845</ele>
        <time>2018-09-21T08:26:27.003Z</time>
      </trkpt>
      <trkpt lat="46.25892" lon="10.40134">
        <ele>1845</ele>
        <time>2018-09-21T08:26:34.014Z</time>
      </trkpt>
      <trkpt lat="46.25897" lon="10.40122">
        <ele>1846.0604256371</ele>
        <time>2018-09-21T08:26:41.013Z</time>
      </trkpt>
      <trkpt lat="46.25905" lon="10.40115">
        <ele>1847</ele>
        <time>2018-09-21T08:26:47.014Z</time>
      </trkpt>
      <trkpt lat="46.25913" lon="10.40107">
        <ele>1847.19760128</ele>
        <time>2018-09-21T08:26:56.014Z</time>
      </trkpt>
      <trkpt lat="46.25912" lon="10.40123">
        <ele>1851.89880064</ele>
        <time>2018-09-21T08:27:10.014Z</time>
      </trkpt>
      <trkpt lat="46.25913" lon="10.40136">
        <ele>1854.34820096</ele>
        <time>2018-09-21T08:27:20.014Z</time>
      </trkpt>
      <trkpt lat="46.25914" lon="10.40149">
        <ele>1856.89880064</ele>
        <time>2018-09-21T08:27:30.014Z</time>
      </trkpt>
      <trkpt lat="46.25913" lon="10.40163">
        <ele>1858.89880064</ele>
        <time>2018-09-21T08:27:40.014Z</time>
      </trkpt>
      <trkpt lat="46.25915" lon="10.40176">
        <ele>1861.2884926984</ele>
        <time>2018-09-21T08:27:52.014Z</time>
      </trkpt>
      <trkpt lat="46.25912" lon="10.40188">
        <ele>1863.2931458064</ele>
        <time>2018-09-21T08:28:02.014Z</time>
      </trkpt>
      <trkpt lat="46.25913" lon="10.40202">
        <ele>1865.09659904</ele>
        <time>2018-09-21T08:28:11.003Z</time>
      </trkpt>
      <trkpt lat="46.25915" lon="10.40214">
        <ele>1867.34820096</ele>
        <time>2018-09-21T08:28:20.014Z</time>
      </trkpt>
      <trkpt lat="46.25917" lon="10.40228">
        <ele>1869.6784468017</ele>
        <time>2018-09-21T08:28:29.014Z</time>
      </trkpt>
      <trkpt lat="46.25915" lon="10.40241">
        <ele>1873.1712277964</ele>
        <time>2018-09-21T08:28:43.014Z</time>
      </trkpt>
      <trkpt lat="46.25918" lon="10.40254">
        <ele>1875.61496</ele>
        <time>2018-09-21T08:28:51.014Z</time>
      </trkpt>
      <trkpt lat="46.25922" lon="10.40266">
        <ele>1879.24820096</ele>
        <time>2018-09-21T08:29:03.014Z</time>
      </trkpt>
      <trkpt lat="46.25921" lon="10.4028">
        <ele>1881.69880064</ele>
        <time>2018-09-21T08:29:14.014Z</time>
      </trkpt>
      <trkpt lat="46.25921" lon="10.40293">
        <ele>1883.09680128</ele>
        <time>2018-09-21T08:29:21.004Z</time>
      </trkpt>
      <trkpt lat="46.25929" lon="10.40284">
        <ele>1885.4939298687</ele>
        <time>2018-09-21T08:29:38.002Z</time>
      </trkpt>
      <trkpt lat="46.25931" lon="10.40269">
        <ele>1888.0280619393</ele>
        <time>2018-09-21T08:29:49.014Z</time>
      </trkpt>
      <trkpt lat="46.25932" lon="10.40255">
        <ele>1889.8161231653</ele>
        <time>2018-09-21T08:29:55.004Z</time>
      </trkpt>
      <trkpt lat="46.25935" lon="10.40243">
        <ele>1892.2406075212</ele>
        <time>2018-09-21T08:30:03.014Z</time>
      </trkpt>
      <trkpt lat="46.25937" lon="10.4023">
        <ele>1894.89880064</ele>
        <time>2018-09-21T08:30:15.014Z</time>
      </trkpt>
      <trkpt lat="46.25946" lon="10.40225">
        <ele>1896.69880064</ele>
        <time>2018-09-21T08:30:24.014Z</time>
      </trkpt>
      <trkpt lat="46.25952" lon="10.40215">
        <ele>1898.49880064</ele>
        <time>2018-09-21T08:30:33.014Z</time>
      </trkpt>
      <trkpt lat="46.25962" lon="10.40217">
        <ele>1901.0980165079</ele>
        <time>2018-09-21T08:30:46.014Z</time>
      </trkpt>
      <trkpt lat="46.25961" lon="10.40231">
        <ele>1903.0827179485</ele>
        <time>2018-09-21T08:30:56.014Z</time>
      </trkpt>
      <trkpt lat="46.25958" lon="10.40244">
        <ele>1904.8809203216</ele>
        <time>2018-09-21T08:31:05.014Z</time>
      </trkpt>
      <trkpt lat="46.25959" lon="10.40258">
        <ele>1907.1193967713</ele>
        <time>2018-09-21T08:31:16.014Z</time>
      </trkpt>
      <trkpt lat="46.25961" lon="10.40274">
        <ele>1910.6617430303</ele>
        <time>2018-09-21T08:31:29.014Z</time>
      </trkpt>
      <trkpt lat="46.25962" lon="10.40287">
        <ele>1912.1902245603</ele>
        <time>2018-09-21T08:31:37.014Z</time>
      </trkpt>
      <trkpt lat="46.25964" lon="10.40303">
        <ele>1914.6522354721</ele>
        <time>2018-09-21T08:31:49.034Z</time>
      </trkpt>
      <trkpt lat="46.25966" lon="10.40316">
        <ele>1917.4993011786</ele>
        <time>2018-09-21T08:32:03.014Z</time>
      </trkpt>
      <trkpt lat="46.25969" lon="10.4033">
        <ele>1919.2936261355</ele>
        <time>2018-09-21T08:32:12.014Z</time>
      </trkpt>
      <trkpt lat="46.25973" lon="10.40342">
        <ele>1921.7847363855</ele>
        <time>2018-09-21T08:32:20.004Z</time>
      </trkpt>
      <trkpt lat="46.25973" lon="10.40357">
        <ele>1924.6905144664</ele>
        <time>2018-09-21T08:32:29.014Z</time>
      </trkpt>
      <trkpt lat="46.2597" lon="10.40369">
        <ele>1926.9865500279</ele>
        <time>2018-09-21T08:32:39.014Z</time>
      </trkpt>
      <trkpt lat="46.25971" lon="10.40383">
        <ele>1929.2316003204</ele>
        <time>2018-09-21T08:32:47.014Z</time>
      </trkpt>
      <trkpt lat="46.25975" lon="10.4037">
        <ele>1933.11533666</ele>
        <time>2018-09-21T08:33:07.003Z</time>
      </trkpt>
      <trkpt lat="46.25981" lon="10.40356">
        <ele>1934.6961938622</ele>
        <time>2018-09-21T08:33:19.014Z</time>
      </trkpt>
      <trkpt lat="46.25985" lon="10.40343">
        <ele>1936.69819904</ele>
        <time>2018-09-21T08:33:29.011Z</time>
      </trkpt>
      <trkpt lat="46.2599" lon="10.40331">
        <ele>1938.29680128</ele>
        <time>2018-09-21T08:33:37.004Z</time>
      </trkpt>
      <trkpt lat="46.25996" lon="10.40319">
        <ele>1940.09659904</ele>
        <time>2018-09-21T08:33:46.003Z</time>
      </trkpt>
      <trkpt lat="46.26003" lon="10.40308">
        <ele>1942.17819904</ele>
        <time>2018-09-21T08:33:56.114Z</time>
      </trkpt>
      <trkpt lat="46.2601" lon="10.403">
        <ele>1945.09880064</ele>
        <time>2018-09-21T08:34:06.014Z</time>
      </trkpt>
      <trkpt lat="46.2602" lon="10.403">
        <ele>1946.89880064</ele>
        <time>2018-09-21T08:34:15.014Z</time>
      </trkpt>
      <trkpt lat="46.26031" lon="10.40296">
        <ele>1949.4805674494</ele>
        <time>2018-09-21T08:34:28.014Z</time>
      </trkpt>
      <trkpt lat="46.2604" lon="10.40292">
        <ele>1952.09880064</ele>
        <time>2018-09-21T08:34:41.014Z</time>
      </trkpt>
      <trkpt lat="46.26051" lon="10.40287">
        <ele>1955.1827180224</ele>
        <time>2018-09-21T08:34:53.014Z</time>
      </trkpt>
      <trkpt lat="46.26061" lon="10.40287">
        <ele>1957.8956706941</ele>
        <time>2018-09-21T08:35:05.014Z</time>
      </trkpt>
      <trkpt lat="46.26063" lon="10.403">
        <ele>1959.69860096</ele>
        <time>2018-09-21T08:35:14.013Z</time>
      </trkpt>
      <trkpt lat="46.26059" lon="10.40311">
        <ele>1961.49880064</ele>
        <time>2018-09-21T08:35:23.014Z</time>
      </trkpt>
      <trkpt lat="46.26053" lon="10.40321">
        <ele>1963.69619968</ele>
        <time>2018-09-21T08:35:34.001Z</time>
      </trkpt>
      <trkpt lat="46.26049" lon="10.40335">
        <ele>1965.8893544722</ele>
        <time>2018-09-21T08:35:45.014Z</time>
      </trkpt>
      <trkpt lat="46.26049" lon="10.4035">
        <ele>1967.4962822122</ele>
        <time>2018-09-21T08:35:53.014Z</time>
      </trkpt>
      <trkpt lat="46.26048" lon="10.40363">
        <ele>1968.64839936</ele>
        <time>2018-09-21T08:36:02.004Z</time>
      </trkpt>
      <trkpt lat="46.26046" lon="10.40379">
        <ele>1970.49880064</ele>
        <time>2018-09-21T08:36:13.014Z</time>
      </trkpt>
      <trkpt lat="46.26044" lon="10.40392">
        <ele>1972.09880064</ele>
        <time>2018-09-21T08:36:21.014Z</time>
      </trkpt>
      <trkpt lat="46.26043" lon="10.40405">
        <ele>1975.84820096</ele>
        <time>2018-09-21T08:36:35.014Z</time>
      </trkpt>
      <trkpt lat="46.26043" lon="10.40418">
        <ele>1978.54489856</ele>
        <time>2018-09-21T08:36:44.003Z</time>
      </trkpt>
      <trkpt lat="46.2604" lon="10.40431">
        <ele>1980.49659904</ele>
        <time>2018-09-21T08:36:53.003Z</time>
      </trkpt>
      <trkpt lat="46.26036" lon="10.40444">
        <ele>1983.5247009524</ele>
        <time>2018-09-21T08:37:04.003Z</time>
      </trkpt>
      <trkpt lat="46.26035" lon="10.40457">
        <ele>1985.4927432258</ele>
        <time>2018-09-21T08:37:13.004Z</time>
      </trkpt>
      <trkpt lat="46.26029" lon="10.40471">
        <ele>1988.244</ele>
        <time>2018-09-21T08:37:23.000Z</time>
      </trkpt>
      <trkpt lat="46.26025" lon="10.40483">
        <ele>1989.4439600437</ele>
        <time>2018-09-21T08:37:30.004Z</time>
      </trkpt>
      <trkpt lat="46.26019" lon="10.40494">
        <ele>1990</ele>
        <time>2018-09-21T08:37:37.003Z</time>
      </trkpt>
      <trkpt lat="46.2601" lon="10.40502">
        <ele>1990.1135637247</ele>
        <time>2018-09-21T08:37:46.014Z</time>
      </trkpt>
      <trkpt lat="46.26003" lon="10.40511">
        <ele>1992.2351209717</ele>
        <time>2018-09-21T08:37:53.001Z</time>
      </trkpt>
      <trkpt lat="46.25998" lon="10.40522">
        <ele>1994.06485495</ele>
        <time>2018-09-21T08:38:01.004Z</time>
      </trkpt>
      <trkpt lat="46.26007" lon="10.4052">
        <ele>1999.99239936</ele>
        <time>2018-09-21T08:38:28.001Z</time>
      </trkpt>
      <trkpt lat="46.26014" lon="10.40511">
        <ele>2003.1384682313</ele>
        <time>2018-09-21T08:38:37.003Z</time>
      </trkpt>
      <trkpt lat="46.26024" lon="10.4051">
        <ele>2004.1903108513</ele>
        <time>2018-09-21T08:38:47.114Z</time>
      </trkpt>
      <trkpt lat="46.26031" lon="10.40502">
        <ele>2006.2857407101</ele>
        <time>2018-09-21T08:38:57.003Z</time>
      </trkpt>
      <trkpt lat="46.2604" lon="10.40502">
        <ele>2008.2264865554</ele>
        <time>2018-09-21T08:39:07.003Z</time>
      </trkpt>
      <trkpt lat="46.26049" lon="10.40497">
        <ele>2010.2761146559</ele>
        <time>2018-09-21T08:39:17.004Z</time>
      </trkpt>
      <trkpt lat="46.26059" lon="10.40496">
        <ele>2012.09659904</ele>
        <time>2018-09-21T08:39:26.003Z</time>
      </trkpt>
      <trkpt lat="46.26068" lon="10.40494">
        <ele>2013.89880064</ele>
        <time>2018-09-21T08:39:35.014Z</time>
      </trkpt>
      <trkpt lat="46.26077" lon="10.4049">
        <ele>2017.392</ele>
        <time>2018-09-21T08:39:44.000Z</time>
      </trkpt>
      <trkpt lat="46.26085" lon="10.40483">
        <ele>2020.24520192</ele>
        <time>2018-09-21T08:39:53.004Z</time>
      </trkpt>
      <trkpt lat="46.26093" lon="10.40476">
        <ele>2022.49680128</ele>
        <time>2018-09-21T08:40:03.004Z</time>
      </trkpt>
      <trkpt lat="46.26102" lon="10.40472">
        <ele>2024.89659904</ele>
        <time>2018-09-21T08:40:15.003Z</time>
      </trkpt>
      <trkpt lat="46.26111" lon="10.40466">
        <ele>2025.84940032</ele>
        <time>2018-09-21T08:40:24.014Z</time>
      </trkpt>
      <trkpt lat="46.2612" lon="10.40464">
        <ele>2027.49700096</ele>
        <time>2018-09-21T08:40:33.005Z</time>
      </trkpt>
      <trkpt lat="46.26128" lon="10.40459">
        <ele>2029.496</ele>
        <time>2018-09-21T08:40:43.000Z</time>
      </trkpt>
      <trkpt lat="46.26137" lon="10.40456">
        <ele>2030.89700096</ele>
        <time>2018-09-21T08:40:50.005Z</time>
      </trkpt>
      <trkpt lat="46.26147" lon="10.40459">
        <ele>2032.5823548235</ele>
        <time>2018-09-21T08:40:57.005Z</time>
      </trkpt>
      <trkpt lat="46.26156" lon="10.4046">
        <ele>2036.2544562348</ele>
        <time>2018-09-21T08:41:07.005Z</time>
      </trkpt>
      <trkpt lat="46.26166" lon="10.4046">
        <ele>2038.3309277235</ele>
        <time>2018-09-21T08:41:19.030Z</time>
      </trkpt>
      <trkpt lat="46.26175" lon="10.40456">
        <ele>2040.096</ele>
        <time>2018-09-21T08:41:31.000Z</time>
      </trkpt>
      <trkpt lat="46.26186" lon="10.40456">
        <ele>2043.24550144</ele>
        <time>2018-09-21T08:41:43.005Z</time>
      </trkpt>
      <trkpt lat="46.26194" lon="10.40451">
        <ele>2045.2677074006</ele>
        <time>2018-09-21T08:41:52.017Z</time>
      </trkpt>
      <trkpt lat="46.26204" lon="10.4045">
        <ele>2047.9091748901</ele>
        <time>2018-09-21T08:42:02.013Z</time>
      </trkpt>
      <trkpt lat="46.26214" lon="10.40448">
        <ele>2050.0933602211</ele>
        <time>2018-09-21T08:42:11.014Z</time>
      </trkpt>
      <trkpt lat="46.26223" lon="10.40451">
        <ele>2051.69659904</ele>
        <time>2018-09-21T08:42:19.003Z</time>
      </trkpt>
      <trkpt lat="46.26232" lon="10.40455">
        <ele>2053.14829952</ele>
        <time>2018-09-21T08:42:27.003Z</time>
      </trkpt>
      <trkpt lat="46.26242" lon="10.40458">
        <ele>2055.8837307937</ele>
        <time>2018-09-21T08:42:45.014Z</time>
      </trkpt>
      <trkpt lat="46.26251" lon="10.40461">
        <ele>2059.3927432258</ele>
        <time>2018-09-21T08:42:54.014Z</time>
      </trkpt>
      <trkpt lat="46.2626" lon="10.40464">
        <ele>2060.7434526984</ele>
        <time>2018-09-21T08:43:03.014Z</time>
      </trkpt>
      <trkpt lat="46.26262" lon="10.4048">
        <ele>2062.4947587097</ele>
        <time>2018-09-21T08:43:13.014Z</time>
      </trkpt>
      <trkpt lat="46.26255" lon="10.40489">
        <ele>2064.9237368392</ele>
        <time>2018-09-21T08:43:22.003Z</time>
      </trkpt>
      <trkpt lat="46.26246" lon="10.40497">
        <ele>2066</ele>
        <time>2018-09-21T08:43:31.018Z</time>
      </trkpt>
      <trkpt lat="46.26239" lon="10.40506">
        <ele>2066.69939968</ele>
        <time>2018-09-21T08:43:39.017Z</time>
      </trkpt>
      <trkpt lat="46.26233" lon="10.40518">
        <ele>2068.69880064</ele>
        <time>2018-09-21T08:43:49.014Z</time>
      </trkpt>
      <trkpt lat="46.26226" lon="10.40527">
        <ele>2070.248</ele>
        <time>2018-09-21T08:43:58.000Z</time>
      </trkpt>
      <trkpt lat="46.26218" lon="10.40531">
        <ele>2072.4659796889</ele>
        <time>2018-09-21T08:44:31.000Z</time>
      </trkpt>
      <trkpt lat="46.26227" lon="10.40531">
        <ele>2073.8979030243</ele>
        <time>2018-09-21T08:44:50.014Z</time>
      </trkpt>
      <trkpt lat="46.26236" lon="10.40531">
        <ele>2075.3480526987</ele>
        <time>2018-09-21T08:44:59.014Z</time>
      </trkpt>
      <trkpt lat="46.26247" lon="10.4053">
        <ele>2076.8965945353</ele>
        <time>2018-09-21T08:45:10.014Z</time>
      </trkpt>
      <trkpt lat="46.26256" lon="10.40532">
        <ele>2078.498302497</ele>
        <time>2018-09-21T08:45:18.014Z</time>
      </trkpt>
      <trkpt lat="46.26265" lon="10.40534">
        <ele>2079.8969043427</ele>
        <time>2018-09-21T08:45:25.014Z</time>
      </trkpt>
      <trkpt lat="46.26274" lon="10.40537">
        <ele>2081.2980989636</ele>
        <time>2018-09-21T08:45:32.014Z</time>
      </trkpt>
      <trkpt lat="46.26284" lon="10.40537">
        <ele>2084.99760128</ele>
        <time>2018-09-21T08:45:43.014Z</time>
      </trkpt>
      <trkpt lat="46.26293" lon="10.40537">
        <ele>2087.9324043372</ele>
        <time>2018-09-21T08:45:52.000Z</time>
      </trkpt>
      <trkpt lat="46.26303" lon="10.40538">
        <ele>2089.647283797</ele>
        <time>2018-09-21T08:46:02.014Z</time>
      </trkpt>
      <trkpt lat="46.26312" lon="10.40538">
        <ele>2090.896</ele>
        <time>2018-09-21T08:46:10.000Z</time>
      </trkpt>
      <trkpt lat="46.26322" lon="10.4054">
        <ele>2093.2987465637</ele>
        <time>2018-09-21T08:46:20.005Z</time>
      </trkpt>
      <trkpt lat="46.26329" lon="10.40548">
        <ele>2095.2332284168</ele>
        <time>2018-09-21T08:46:27.003Z</time>
      </trkpt>
      <trkpt lat="46.26338" lon="10.40552">
        <ele>2097.7504497904</ele>
        <time>2018-09-21T08:46:38.014Z</time>
      </trkpt>
      <trkpt lat="46.26348" lon="10.40552">
        <ele>2101.49680128</ele>
        <time>2018-09-21T08:46:53.004Z</time>
      </trkpt>
      <trkpt lat="46.26357" lon="10.40553">
        <ele>2103.8922167775</ele>
        <time>2018-09-21T08:47:05.000Z</time>
      </trkpt>
      <trkpt lat="46.26366" lon="10.40558">
        <ele>2104.8476954884</ele>
        <time>2018-09-21T08:47:14.000Z</time>
      </trkpt>
      <trkpt lat="46.26375" lon="10.40559">
        <ele>2106.496</ele>
        <time>2018-09-21T08:47:23.000Z</time>
      </trkpt>
      <trkpt lat="46.26383" lon="10.40565">
        <ele>2110.2844141055</ele>
        <time>2018-09-21T08:47:34.002Z</time>
      </trkpt>
      <trkpt lat="46.26392" lon="10.40571">
        <ele>2112.6862452331</ele>
        <time>2018-09-21T08:47:44.003Z</time>
      </trkpt>
      <trkpt lat="46.26401" lon="10.40572">
        <ele>2114.303802658</ele>
        <time>2018-09-21T08:47:57.018Z</time>
      </trkpt>
      <trkpt lat="46.2641" lon="10.40571">
        <ele>2117.496</ele>
        <time>2018-09-21T08:48:08.000Z</time>
      </trkpt>
      <trkpt lat="46.2642" lon="10.40573">
        <ele>2119.49880064</ele>
        <time>2018-09-21T08:48:18.014Z</time>
      </trkpt>
      <trkpt lat="46.2643" lon="10.40576">
        <ele>2121.0981009704</ele>
        <time>2018-09-21T08:48:26.011Z</time>
      </trkpt>
      <trkpt lat="46.26439" lon="10.40579">
        <ele>2123.4798058378</ele>
        <time>2018-09-21T08:48:38.001Z</time>
      </trkpt>
      <trkpt lat="46.26448" lon="10.40582">
        <ele>2125.2421036919</ele>
        <time>2018-09-21T08:48:47.003Z</time>
      </trkpt>
      <trkpt lat="46.26456" lon="10.40588">
        <ele>2127.0988088889</ele>
        <time>2018-09-21T08:48:56.018Z</time>
      </trkpt>
      <trkpt lat="46.26463" lon="10.40598">
        <ele>2129.2422374194</ele>
        <time>2018-09-21T08:49:08.003Z</time>
      </trkpt>
      <trkpt lat="46.26468" lon="10.40611">
        <ele>2130.8970071997</ele>
        <time>2018-09-21T08:49:20.014Z</time>
      </trkpt>
      <trkpt lat="46.26473" lon="10.40623">
        <ele>2132.6932933915</ele>
        <time>2018-09-21T08:49:29.003Z</time>
      </trkpt>
      <trkpt lat="46.26477" lon="10.40635">
        <ele>2134.6954971946</ele>
        <time>2018-09-21T08:49:39.004Z</time>
      </trkpt>
      <trkpt lat="46.2648" lon="10.40649">
        <ele>2136.491107668</ele>
        <time>2018-09-21T08:49:48.005Z</time>
      </trkpt>
      <trkpt lat="46.26484" lon="10.40662">
        <ele>2138.0738876113</ele>
        <time>2018-09-21T08:49:56.005Z</time>
      </trkpt>
      <trkpt lat="46.26489" lon="10.40674">
        <ele>2140.14919936</ele>
        <time>2018-09-21T08:50:07.012Z</time>
      </trkpt>
      <trkpt lat="46.26493" lon="10.40687">
        <ele>2141.1412634462</ele>
        <time>2018-09-21T08:50:16.005Z</time>
      </trkpt>
      <trkpt lat="46.26496" lon="10.40699">
        <ele>2144.2463909255</ele>
        <time>2018-09-21T08:50:27.015Z</time>
      </trkpt>
      <trkpt lat="46.26501" lon="10.40711">
        <ele>2146.7230855564</ele>
        <time>2018-09-21T08:50:38.005Z</time>
      </trkpt>
      <trkpt lat="46.26504" lon="10.40723">
        <ele>2149.6610931388</ele>
        <time>2018-09-21T08:50:49.033Z</time>
      </trkpt>
      <trkpt lat="46.26507" lon="10.40737">
        <ele>2151.34840064</ele>
        <time>2018-09-21T08:50:59.004Z</time>
      </trkpt>
      <trkpt lat="46.26509" lon="10.4075">
        <ele>2152.49679872</ele>
        <time>2018-09-21T08:51:08.004Z</time>
      </trkpt>
      <trkpt lat="46.26502" lon="10.40759">
        <ele>2155.09680128</ele>
        <time>2018-09-21T08:51:21.004Z</time>
      </trkpt>
      <trkpt lat="46.26493" lon="10.40757">
        <ele>2157.9462553275</ele>
        <time>2018-09-21T08:51:32.014Z</time>
      </trkpt>
      <trkpt lat="46.26484" lon="10.40763">
        <ele>2159.7481488695</ele>
        <time>2018-09-21T08:51:43.004Z</time>
      </trkpt>
      <trkpt lat="46.26476" lon="10.40772">
        <ele>2161.94760192</ele>
        <time>2018-09-21T08:51:52.012Z</time>
      </trkpt>
      <trkpt lat="46.26468" lon="10.40779">
        <ele>2163.44850048</ele>
        <time>2018-09-21T08:52:00.005Z</time>
      </trkpt>
      <trkpt lat="46.26461" lon="10.40787">
        <ele>2165.6399781009</ele>
        <time>2018-09-21T08:52:11.003Z</time>
      </trkpt>
      <trkpt lat="46.2647" lon="10.40791">
        <ele>2167.5467399147</ele>
        <time>2018-09-21T08:52:21.001Z</time>
      </trkpt>
      <trkpt lat="46.26478" lon="10.40794">
        <ele>2168.64950016</ele>
        <time>2018-09-21T08:52:32.015Z</time>
      </trkpt>
      <trkpt lat="46.26487" lon="10.40803">
        <ele>2171.24429952</ele>
        <time>2018-09-21T08:52:43.001Z</time>
      </trkpt>
      <trkpt lat="46.26494" lon="10.40811">
        <ele>2175.29860096</ele>
        <time>2018-09-21T08:52:57.013Z</time>
      </trkpt>
      <trkpt lat="46.26503" lon="10.40815">
        <ele>2177.04940032</ele>
        <time>2018-09-21T08:53:06.014Z</time>
      </trkpt>
      <trkpt lat="46.2651" lon="10.40824">
        <ele>2178.14820096</ele>
        <time>2018-09-21T08:53:16.014Z</time>
      </trkpt>
      <trkpt lat="46.26518" lon="10.40833">
        <ele>2181.49679872</ele>
        <time>2018-09-21T08:53:28.004Z</time>
      </trkpt>
      <trkpt lat="46.26524" lon="10.40843">
        <ele>2184.09659904</ele>
        <time>2018-09-21T08:53:41.003Z</time>
      </trkpt>
      <trkpt lat="46.26532" lon="10.4085">
        <ele>2186.2588332372</ele>
        <time>2018-09-21T08:53:52.003Z</time>
      </trkpt>
      <trkpt lat="46.2654" lon="10.40856">
        <ele>2188.4808237399</ele>
        <time>2018-09-21T08:54:03.002Z</time>
      </trkpt>
      <trkpt lat="46.26547" lon="10.40865">
        <ele>2190.49680128</ele>
        <time>2018-09-21T08:54:13.004Z</time>
      </trkpt>
      <trkpt lat="46.26556" lon="10.40873">
        <ele>2192.89880064</ele>
        <time>2018-09-21T08:54:25.014Z</time>
      </trkpt>
      <trkpt lat="46.26564" lon="10.4088">
        <ele>2196.0956258636</ele>
        <time>2018-09-21T08:54:36.001Z</time>
      </trkpt>
      <trkpt lat="46.26572" lon="10.40887">
        <ele>2198.4291724292</ele>
        <time>2018-09-21T08:54:47.002Z</time>
      </trkpt>
      <trkpt lat="46.2658" lon="10.40894">
        <ele>2201.49679872</ele>
        <time>2018-09-21T08:54:58.004Z</time>
      </trkpt>
      <trkpt lat="46.26588" lon="10.40898">
        <ele>2203.24839936</ele>
        <time>2018-09-21T08:55:08.004Z</time>
      </trkpt>
      <trkpt lat="46.26596" lon="10.40905">
        <ele>2204.49619968</ele>
        <time>2018-09-21T08:55:18.001Z</time>
      </trkpt>
      <trkpt lat="46.26587" lon="10.40907">
        <ele>2208.8194058262</ele>
        <time>2018-09-21T08:55:35.012Z</time>
      </trkpt>
      <trkpt lat="46.26578" lon="10.40909">
        <ele>2210.8977784903</ele>
        <time>2018-09-21T08:55:45.014Z</time>
      </trkpt>
      <trkpt lat="46.26569" lon="10.40913">
        <ele>2212.89639936</ele>
        <time>2018-09-21T08:55:55.002Z</time>
      </trkpt>
      <trkpt lat="46.26559" lon="10.40911">
        <ele>2213.84839936</ele>
        <time>2018-09-21T08:56:04.004Z</time>
      </trkpt>
      <trkpt lat="46.26549" lon="10.40911">
        <ele>2215.49639936</ele>
        <time>2018-09-21T08:56:13.002Z</time>
      </trkpt>
      <trkpt lat="46.26539" lon="10.4091">
        <ele>2216.64940032</ele>
        <time>2018-09-21T08:56:22.014Z</time>
      </trkpt>
      <trkpt lat="46.2653" lon="10.4091">
        <ele>2218.69659904</ele>
        <time>2018-09-21T08:56:34.003Z</time>
      </trkpt>
      <trkpt lat="46.2652" lon="10.40911">
        <ele>2221.84429952</ele>
        <time>2018-09-21T08:56:45.001Z</time>
      </trkpt>
      <trkpt lat="46.26511" lon="10.40912">
        <ele>2223.69700096</ele>
        <time>2018-09-21T08:56:54.005Z</time>
      </trkpt>
      <trkpt lat="46.26502" lon="10.40916">
        <ele>2225.2928280478</ele>
        <time>2018-09-21T08:57:02.010Z</time>
      </trkpt>
      <trkpt lat="46.26494" lon="10.40923">
        <ele>2226</ele>
        <time>2018-09-21T08:57:10.005Z</time>
      </trkpt>
      <trkpt lat="46.26485" lon="10.40926">
        <ele>2226.284676129</ele>
        <time>2018-09-21T08:57:17.012Z</time>
      </trkpt>
      <trkpt lat="46.26476" lon="10.40933">
        <ele>2227.6943535484</ele>
        <time>2018-09-21T08:57:24.004Z</time>
      </trkpt>
      <trkpt lat="46.26467" lon="10.40939">
        <ele>2228</ele>
        <time>2018-09-21T08:57:32.010Z</time>
      </trkpt>
      <trkpt lat="46.26461" lon="10.40948">
        <ele>2228.6774144247</ele>
        <time>2018-09-21T08:57:39.004Z</time>
      </trkpt>
      <trkpt lat="46.26459" lon="10.40962">
        <ele>2230.3397160398</ele>
        <time>2018-09-21T08:57:49.003Z</time>
      </trkpt>
      <trkpt lat="46.26459" lon="10.40976">
        <ele>2232.0407356175</ele>
        <time>2018-09-21T08:57:59.003Z</time>
      </trkpt>
      <trkpt lat="46.26458" lon="10.40989">
        <ele>2235.0931739759</ele>
        <time>2018-09-21T08:58:11.004Z</time>
      </trkpt>
      <trkpt lat="46.26456" lon="10.41002">
        <ele>2236.8425015793</ele>
        <time>2018-09-21T08:58:24.004Z</time>
      </trkpt>
      <trkpt lat="46.26461" lon="10.41014">
        <ele>2240.74519808</ele>
        <time>2018-09-21T08:58:38.004Z</time>
      </trkpt>
      <trkpt lat="46.2647" lon="10.41012">
        <ele>2244.8903608032</ele>
        <time>2018-09-21T08:59:00.004Z</time>
      </trkpt>
      <trkpt lat="46.26479" lon="10.41008">
        <ele>2246.6475536136</ele>
        <time>2018-09-21T08:59:12.012Z</time>
      </trkpt>
      <trkpt lat="46.26489" lon="10.41009">
        <ele>2248.4955905439</ele>
        <time>2018-09-21T08:59:23.003Z</time>
      </trkpt>
      <trkpt lat="46.26498" lon="10.41009">
        <ele>2250.8836153697</ele>
        <time>2018-09-21T08:59:35.004Z</time>
      </trkpt>
      <trkpt lat="46.26507" lon="10.41009">
        <ele>2252.89679872</ele>
        <time>2018-09-21T08:59:50.004Z</time>
      </trkpt>
      <trkpt lat="46.2651" lon="10.41022">
        <ele>2256.1945521874</ele>
        <time>2018-09-21T09:00:07.014Z</time>
      </trkpt>
      <trkpt lat="46.26509" lon="10.41035">
        <ele>2258.6428866946</ele>
        <time>2018-09-21T09:00:19.033Z</time>
      </trkpt>
      <trkpt lat="46.26511" lon="10.41048">
        <ele>2260.34829952</ele>
        <time>2018-09-21T09:00:29.003Z</time>
      </trkpt>
      <trkpt lat="46.26515" lon="10.41061">
        <ele>2262.3411741284</ele>
        <time>2018-09-21T09:00:40.004Z</time>
      </trkpt>
      <trkpt lat="46.26517" lon="10.41074">
        <ele>2266.8447360785</ele>
        <time>2018-09-21T09:00:55.004Z</time>
      </trkpt>
      <trkpt lat="46.26526" lon="10.41068">
        <ele>2271.49700096</ele>
        <time>2018-09-21T09:01:18.005Z</time>
      </trkpt>
      <trkpt lat="46.26533" lon="10.4106">
        <ele>2273.34840064</ele>
        <time>2018-09-21T09:01:29.004Z</time>
      </trkpt>
      <trkpt lat="46.26542" lon="10.41055">
        <ele>2275.29860096</ele>
        <time>2018-09-21T09:01:42.013Z</time>
      </trkpt>
      <trkpt lat="46.26547" lon="10.41066">
        <ele>2284.24489856</ele>
        <time>2018-09-21T09:02:23.003Z</time>
      </trkpt>
      <trkpt lat="46.26555" lon="10.41073">
        <ele>2287.746061098</ele>
        <time>2018-09-21T09:02:43.003Z</time>
      </trkpt>
      <trkpt lat="46.26564" lon="10.4107">
        <ele>2289.4948838499</ele>
        <time>2018-09-21T09:02:53.002Z</time>
      </trkpt>
      <trkpt lat="46.26558" lon="10.4108">
        <ele>2292</ele>
        <time>2018-09-21T09:03:12.012Z</time>
      </trkpt>
      <trkpt lat="46.26557" lon="10.41094">
        <ele>2292.6294166186</ele>
        <time>2018-09-21T09:03:22.003Z</time>
      </trkpt>
      <trkpt lat="46.26564" lon="10.41106">
        <ele>2294.49840128</ele>
        <time>2018-09-21T09:03:38.012Z</time>
      </trkpt>
      <trkpt lat="46.26572" lon="10.41113">
        <ele>2298.24820096</ele>
        <time>2018-09-21T09:03:53.014Z</time>
      </trkpt>
      <trkpt lat="46.2658" lon="10.41106">
        <ele>2306.4838844372</ele>
        <time>2018-09-21T09:04:28.012Z</time>
      </trkpt>
      <trkpt lat="46.26588" lon="10.41111">
        <ele>2308.1219576887</ele>
        <time>2018-09-21T09:04:37.003Z</time>
      </trkpt>
      <trkpt lat="46.26593" lon="10.41122">
        <ele>2309.0481585825</ele>
        <time>2018-09-21T09:04:46.004Z</time>
      </trkpt>
      <trkpt lat="46.26602" lon="10.41116">
        <ele>2311.0350745616</ele>
        <time>2018-09-21T09:04:59.003Z</time>
      </trkpt>
      <trkpt lat="46.2661" lon="10.41123">
        <ele>2315.29700096</ele>
        <time>2018-09-21T09:05:17.005Z</time>
      </trkpt>
      <trkpt lat="46.26615" lon="10.41136">
        <ele>2317.44829952</ele>
        <time>2018-09-21T09:05:30.003Z</time>
      </trkpt>
      <trkpt lat="46.26622" lon="10.41143">
        <ele>2320.84489856</ele>
        <time>2018-09-21T09:05:45.003Z</time>
      </trkpt>
      <trkpt lat="46.26628" lon="10.41153">
        <ele>2325.4444102137</ele>
        <time>2018-09-21T09:06:00.003Z</time>
      </trkpt>
      <trkpt lat="46.26633" lon="10.41165">
        <ele>2330.1398634749</ele>
        <time>2018-09-21T09:06:26.003Z</time>
      </trkpt>
      <trkpt lat="46.26635" lon="10.41178">
        <ele>2334.6852687137</ele>
        <time>2018-09-21T09:06:44.003Z</time>
      </trkpt>
      <trkpt lat="46.26644" lon="10.41178">
        <ele>2339.09639936</ele>
        <time>2018-09-21T09:07:06.002Z</time>
      </trkpt>
      <trkpt lat="46.26652" lon="10.41184">
        <ele>2342.89659904</ele>
        <time>2018-09-21T09:07:25.003Z</time>
      </trkpt>
      <trkpt lat="46.26654" lon="10.41197">
        <ele>2347</ele>
        <time>2018-09-21T09:07:49.004Z</time>
      </trkpt>
      <trkpt lat="46.26645" lon="10.412">
        <ele>2347</ele>
        <time>2018-09-21T09:07:58.015Z</time>
      </trkpt>
      <trkpt lat="46.26637" lon="10.41209">
        <ele>2347</ele>
        <time>2018-09-21T09:08:08.015Z</time>
      </trkpt>
      <trkpt lat="46.26635" lon="10.41223">
        <ele>2347</ele>
        <time>2018-09-21T09:08:15.003Z</time>
      </trkpt>
      <trkpt lat="46.26633" lon="10.41237">
        <ele>2344.7567973436</ele>
        <time>2018-09-21T09:08:23.015Z</time>
      </trkpt>
      <trkpt lat="46.26632" lon="10.41251">
        <ele>2343.452347797</ele>
        <time>2018-09-21T09:08:31.002Z</time>
      </trkpt>
      <trkpt lat="46.26634" lon="10.41264">
        <ele>2343.5487482527</ele>
        <time>2018-09-21T09:08:41.012Z</time>
      </trkpt>
      <trkpt lat="46.26643" lon="10.41264">
        <ele>2346.74519808</ele>
        <time>2018-09-21T09:08:58.004Z</time>
      </trkpt>
      <trkpt lat="46.26651" lon="10.41258">
        <ele>2350.69639936</ele>
        <time>2018-09-21T09:09:14.002Z</time>
      </trkpt>
      <trkpt lat="46.2666" lon="10.4126">
        <ele>2352.4916825294</ele>
        <time>2018-09-21T09:09:28.003Z</time>
      </trkpt>
      <trkpt lat="46.26669" lon="10.41267">
        <ele>2355.0743036503</ele>
        <time>2018-09-21T09:09:41.013Z</time>
      </trkpt>
      <trkpt lat="46.26678" lon="10.41265">
        <ele>2357.140474801</ele>
        <time>2018-09-21T09:09:56.014Z</time>
      </trkpt>
      <trkpt lat="46.26681" lon="10.41252">
        <ele>2360.0988363509</ele>
        <time>2018-09-21T09:10:07.004Z</time>
      </trkpt>
      <trkpt lat="46.26689" lon="10.41246">
        <ele>2362.29659904</ele>
        <time>2018-09-21T09:10:22.003Z</time>
      </trkpt>
      <trkpt lat="46.26698" lon="10.41248">
        <ele>2368.3188853117</ele>
        <time>2018-09-21T09:10:47.003Z</time>
      </trkpt>
      <trkpt lat="46.26707" lon="10.41253">
        <ele>2372.69639936</ele>
        <time>2018-09-21T09:11:09.002Z</time>
      </trkpt>
      <trkpt lat="46.26715" lon="10.41249">
        <ele>2375.084502771</ele>
        <time>2018-09-21T09:11:21.013Z</time>
      </trkpt>
      <trkpt lat="46.26719" lon="10.41261">
        <ele>2377.8722716726</ele>
        <time>2018-09-21T09:11:35.002Z</time>
      </trkpt>
      <trkpt lat="46.26722" lon="10.41274">
        <ele>2379.8953431579</ele>
        <time>2018-09-21T09:11:45.003Z</time>
      </trkpt>
      <trkpt lat="46.2673" lon="10.41269">
        <ele>2383.29459968</ele>
        <time>2018-09-21T09:12:02.003Z</time>
      </trkpt>
      <trkpt lat="46.26738" lon="10.41276">
        <ele>2387.64759808</ele>
        <time>2018-09-21T09:12:21.012Z</time>
      </trkpt>
      <trkpt lat="46.26737" lon="10.41289">
        <ele>2391.09840128</ele>
        <time>2018-09-21T09:12:36.012Z</time>
      </trkpt>
      <trkpt lat="46.26734" lon="10.41302">
        <ele>2393.4821346907</ele>
        <time>2018-09-21T09:12:48.003Z</time>
      </trkpt>
      <trkpt lat="46.26743" lon="10.41306">
        <ele>2395.535361013</ele>
        <time>2018-09-21T09:13:01.013Z</time>
      </trkpt>
      <trkpt lat="46.26748" lon="10.41317">
        <ele>2399.29659904</ele>
        <time>2018-09-21T09:13:22.003Z</time>
      </trkpt>
      <trkpt lat="46.26756" lon="10.41324">
        <ele>2405.54519808</ele>
        <time>2018-09-21T09:13:44.004Z</time>
      </trkpt>
      <trkpt lat="46.26763" lon="10.41333">
        <ele>2408.1564924675</ele>
        <time>2018-09-21T09:13:57.003Z</time>
      </trkpt>
      <trkpt lat="46.26773" lon="10.41334">
        <ele>2410.24829952</ele>
        <time>2018-09-21T09:14:08.003Z</time>
      </trkpt>
      <trkpt lat="46.26783" lon="10.41334">
        <ele>2411.24829952</ele>
        <time>2018-09-21T09:14:18.003Z</time>
      </trkpt>
      <trkpt lat="46.26792" lon="10.41338">
        <ele>2412.0977214978</ele>
        <time>2018-09-21T09:14:26.013Z</time>
      </trkpt>
      <trkpt lat="46.26801" lon="10.41338">
        <ele>2413.879682499</ele>
        <time>2018-09-21T09:14:35.003Z</time>
      </trkpt>
      <trkpt lat="46.26811" lon="10.41338">
        <ele>2416.09860096</ele>
        <time>2018-09-21T09:14:46.013Z</time>
      </trkpt>
      <trkpt lat="46.2682" lon="10.4134">
        <ele>2417.69659904</ele>
        <time>2018-09-21T09:14:54.003Z</time>
      </trkpt>
      <trkpt lat="46.2683" lon="10.41342">
        <ele>2418.64829952</ele>
        <time>2018-09-21T09:15:02.003Z</time>
      </trkpt>
      <trkpt lat="46.26839" lon="10.41343">
        <ele>2419.44829952</ele>
        <time>2018-09-21T09:15:10.003Z</time>
      </trkpt>
      <trkpt lat="46.26849" lon="10.41344">
        <ele>2420.49659904</ele>
        <time>2018-09-21T09:15:18.003Z</time>
      </trkpt>
      <trkpt lat="46.26858" lon="10.41346">
        <ele>2422.04930048</ele>
        <time>2018-09-21T09:15:26.013Z</time>
      </trkpt>
      <trkpt lat="46.26867" lon="10.41351">
        <ele>2422.84829952</ele>
        <time>2018-09-21T09:15:34.003Z</time>
      </trkpt>
      <trkpt lat="46.26875" lon="10.41356">
        <ele>2424.49639936</ele>
        <time>2018-09-21T09:15:43.002Z</time>
      </trkpt>
      <trkpt lat="46.26884" lon="10.41363">
        <ele>2425</ele>
        <time>2018-09-21T09:15:52.003Z</time>
      </trkpt>
      <trkpt lat="46.26892" lon="10.41369">
        <ele>2426.305725946</ele>
        <time>2018-09-21T09:16:00.003Z</time>
      </trkpt>
      <trkpt lat="46.26902" lon="10.41374">
        <ele>2428</ele>
        <time>2018-09-21T09:16:09.033Z</time>
      </trkpt>
      <trkpt lat="46.26911" lon="10.41377">
        <ele>2428.1218547608</ele>
        <time>2018-09-21T09:16:17.002Z</time>
      </trkpt>
      <trkpt lat="46.26902" lon="10.41379">
        <ele>2430.89680128</ele>
        <time>2018-09-21T09:16:35.004Z</time>
      </trkpt>
      <trkpt lat="46.26893" lon="10.41374">
        <ele>2431.74850048</ele>
        <time>2018-09-21T09:16:43.005Z</time>
      </trkpt>
      <trkpt lat="46.26883" lon="10.41373">
        <ele>2432.89700096</ele>
        <time>2018-09-21T09:16:50.005Z</time>
      </trkpt>
      <trkpt lat="46.26874" lon="10.41373">
        <ele>2434.245453913</ele>
        <time>2018-09-21T09:16:58.004Z</time>
      </trkpt>
      <trkpt lat="46.26864" lon="10.41375">
        <ele>2434.9371547826</ele>
        <time>2018-09-21T09:17:05.004Z</time>
      </trkpt>
      <trkpt lat="46.26855" lon="10.41382">
        <ele>2436.6927119028</ele>
        <time>2018-09-21T09:17:14.002Z</time>
      </trkpt>
      <trkpt lat="46.26863" lon="10.41389">
        <ele>2437.94829952</ele>
        <time>2018-09-21T09:17:25.003Z</time>
      </trkpt>
      <trkpt lat="46.26873" lon="10.4139">
        <ele>2438.64819968</ele>
        <time>2018-09-21T09:17:32.002Z</time>
      </trkpt>
      <trkpt lat="46.26883" lon="10.41392">
        <ele>2439.34829952</ele>
        <time>2018-09-21T09:17:39.003Z</time>
      </trkpt>
      <trkpt lat="46.26892" lon="10.41391">
        <ele>2440</ele>
        <time>2018-09-21T09:17:46.013Z</time>
      </trkpt>
      <trkpt lat="46.269" lon="10.41397">
        <ele>2440</ele>
        <time>2018-09-21T09:17:55.003Z</time>
      </trkpt>
      <trkpt lat="46.26909" lon="10.41403">
        <ele>2440.94819968</ele>
        <time>2018-09-21T09:18:05.002Z</time>
      </trkpt>
      <trkpt lat="46.26918" lon="10.41409">
        <ele>2442.8928146222</ele>
        <time>2018-09-21T09:18:15.003Z</time>
      </trkpt>
      <trkpt lat="46.26927" lon="10.41414">
        <ele>2445.2430856958</ele>
        <time>2018-09-21T09:18:23.002Z</time>
      </trkpt>
      <trkpt lat="46.26936" lon="10.41417">
        <ele>2446.74829952</ele>
        <time>2018-09-21T09:18:33.003Z</time>
      </trkpt>
      <trkpt lat="46.26944" lon="10.41421">
        <ele>2448.9253468042</ele>
        <time>2018-09-21T09:18:42.002Z</time>
      </trkpt>
      <trkpt lat="46.26954" lon="10.41423">
        <ele>2450.3418192538</ele>
        <time>2018-09-21T09:18:49.004Z</time>
      </trkpt>
      <trkpt lat="46.26963" lon="10.41426">
        <ele>2451.69659904</ele>
        <time>2018-09-21T09:18:59.003Z</time>
      </trkpt>
      <trkpt lat="46.26973" lon="10.41429">
        <ele>2453.4330430352</ele>
        <time>2018-09-21T09:19:10.002Z</time>
      </trkpt>
      <trkpt lat="46.26982" lon="10.41436">
        <ele>2454.655543264</ele>
        <time>2018-09-21T09:19:19.033Z</time>
      </trkpt>
      <trkpt lat="46.2699" lon="10.41441">
        <ele>2456.04930048</ele>
        <time>2018-09-21T09:19:26.013Z</time>
      </trkpt>
      <trkpt lat="46.26999" lon="10.41446">
        <ele>2456.84819968</ele>
        <time>2018-09-21T09:19:34.002Z</time>
      </trkpt>
      <trkpt lat="46.27008" lon="10.41449">
        <ele>2457.74829952</ele>
        <time>2018-09-21T09:19:43.003Z</time>
      </trkpt>
      <trkpt lat="46.27017" lon="10.41452">
        <ele>2459.0992</ele>
        <time>2018-09-21T09:19:51.016Z</time>
      </trkpt>
      <trkpt lat="46.27027" lon="10.41457">
        <ele>2461.04459904</ele>
        <time>2018-09-21T09:19:59.002Z</time>
      </trkpt>
      <trkpt lat="46.27036" lon="10.41458">
        <ele>2463.49659904</ele>
        <time>2018-09-21T09:20:08.003Z</time>
      </trkpt>
      <trkpt lat="46.27046" lon="10.41461">
        <ele>2465.49639936</ele>
        <time>2018-09-21T09:20:18.002Z</time>
      </trkpt>
      <trkpt lat="46.27055" lon="10.41465">
        <ele>2467.1470234921</ele>
        <time>2018-09-21T09:20:27.002Z</time>
      </trkpt>
      <trkpt lat="46.27063" lon="10.4147">
        <ele>2467.9406742857</ele>
        <time>2018-09-21T09:20:35.002Z</time>
      </trkpt>
      <trkpt lat="46.27072" lon="10.41474">
        <ele>2468</ele>
        <time>2018-09-21T09:20:43.004Z</time>
      </trkpt>
      <trkpt lat="46.2708" lon="10.41481">
        <ele>2469.29639936</ele>
        <time>2018-09-21T09:20:52.002Z</time>
      </trkpt>
      <trkpt lat="46.27088" lon="10.41488">
        <ele>2470.8892850794</ele>
        <time>2018-09-21T09:21:00.002Z</time>
      </trkpt>
      <trkpt lat="46.27097" lon="10.41492">
        <ele>2472.4842735484</ele>
        <time>2018-09-21T09:21:08.002Z</time>
      </trkpt>
      <trkpt lat="46.27106" lon="10.41497">
        <ele>2474.049056906</ele>
        <time>2018-09-21T09:21:16.014Z</time>
      </trkpt>
      <trkpt lat="46.27115" lon="10.41502">
        <ele>2474.8423032874</ele>
        <time>2018-09-21T09:21:24.002Z</time>
      </trkpt>
      <trkpt lat="46.2712" lon="10.41514">
        <ele>2475.6457196039</ele>
        <time>2018-09-21T09:21:32.002Z</time>
      </trkpt>
      <trkpt lat="46.27125" lon="10.41526">
        <ele>2476.5481035038</ele>
        <time>2018-09-21T09:21:41.012Z</time>
      </trkpt>
      <trkpt lat="46.27127" lon="10.41541">
        <ele>2477.8941884446</ele>
        <time>2018-09-21T09:21:50.002Z</time>
      </trkpt>
      <trkpt lat="46.27132" lon="10.41553">
        <ele>2479.24819968</ele>
        <time>2018-09-21T09:21:58.002Z</time>
      </trkpt>
      <trkpt lat="46.27136" lon="10.41564">
        <ele>2480.0979117526</ele>
        <time>2018-09-21T09:22:06.012Z</time>
      </trkpt>
      <trkpt lat="46.27143" lon="10.41573">
        <ele>2481.6879600996</ele>
        <time>2018-09-21T09:22:14.002Z</time>
      </trkpt>
      <trkpt lat="46.27151" lon="10.41583">
        <ele>2482.6275116074</ele>
        <time>2018-09-21T09:22:22.002Z</time>
      </trkpt>
      <trkpt lat="46.27158" lon="10.41591">
        <ele>2483.8622666308</ele>
        <time>2018-09-21T09:22:30.002Z</time>
      </trkpt>
      <trkpt lat="46.27165" lon="10.41601">
        <ele>2485.69639936</ele>
        <time>2018-09-21T09:22:39.002Z</time>
      </trkpt>
      <trkpt lat="46.27173" lon="10.41609">
        <ele>2487.2477044297</ele>
        <time>2018-09-21T09:22:48.002Z</time>
      </trkpt>
      <trkpt lat="46.27181" lon="10.41616">
        <ele>2487.9465082293</ele>
        <time>2018-09-21T09:22:55.004Z</time>
      </trkpt>
      <trkpt lat="46.27189" lon="10.41621">
        <ele>2488.6392680073</ele>
        <time>2018-09-21T09:23:02.003Z</time>
      </trkpt>
      <trkpt lat="46.27198" lon="10.41629">
        <ele>2490.3230993887</ele>
        <time>2018-09-21T09:23:10.003Z</time>
      </trkpt>
      <trkpt lat="46.27206" lon="10.41635">
        <ele>2492.14840064</ele>
        <time>2018-09-21T09:23:17.004Z</time>
      </trkpt>
      <trkpt lat="46.27216" lon="10.41638">
        <ele>2493.0981138119</ele>
        <time>2018-09-21T09:23:26.014Z</time>
      </trkpt>
      <trkpt lat="46.27226" lon="10.4164">
        <ele>2494.8836153697</ele>
        <time>2018-09-21T09:23:35.004Z</time>
      </trkpt>
      <trkpt lat="46.27235" lon="10.41642">
        <ele>2498.0496</ele>
        <time>2018-09-21T09:23:46.016Z</time>
      </trkpt>
      <trkpt lat="46.27245" lon="10.41645">
        <ele>2498.94840064</ele>
        <time>2018-09-21T09:23:55.004Z</time>
      </trkpt>
      <trkpt lat="46.27254" lon="10.41649">
        <ele>2499.74840064</ele>
        <time>2018-09-21T09:24:03.004Z</time>
      </trkpt>
      <trkpt lat="46.27263" lon="10.41653">
        <ele>2500.8852902303</ele>
        <time>2018-09-21T09:24:10.004Z</time>
      </trkpt>
      <trkpt lat="46.27273" lon="10.41654">
        <ele>2502.6794320796</ele>
        <time>2018-09-21T09:24:19.003Z</time>
      </trkpt>
      <trkpt lat="46.27282" lon="10.41655">
        <ele>2504.24839936</ele>
        <time>2018-09-21T09:24:28.004Z</time>
      </trkpt>
      <trkpt lat="46.2729" lon="10.41662">
        <ele>2505</ele>
        <time>2018-09-21T09:24:37.004Z</time>
      </trkpt>
      <trkpt lat="46.27297" lon="10.4167">
        <ele>2505</ele>
        <time>2018-09-21T09:24:44.002Z</time>
      </trkpt>
      <trkpt lat="46.27304" lon="10.41679">
        <ele>2505</ele>
        <time>2018-09-21T09:24:51.013Z</time>
      </trkpt>
      <trkpt lat="46.27311" lon="10.4169">
        <ele>2505.54940032</ele>
        <time>2018-09-21T09:25:01.014Z</time>
      </trkpt>
      <trkpt lat="46.27315" lon="10.41704">
        <ele>2506</ele>
        <time>2018-09-21T09:25:08.006Z</time>
      </trkpt>
      <trkpt lat="46.2732" lon="10.41715">
        <ele>2506</ele>
        <time>2018-09-21T09:25:13.002Z</time>
      </trkpt>
      <trkpt lat="46.27326" lon="10.41726">
        <ele>2505.4504</ele>
        <time>2018-09-21T09:25:21.016Z</time>
      </trkpt>
      <trkpt lat="46.27332" lon="10.41738">
        <ele>2505.3372589961</ele>
        <time>2018-09-21T09:25:29.014Z</time>
      </trkpt>
      <trkpt lat="46.27338" lon="10.4175">
        <ele>2506.3172028541</ele>
        <time>2018-09-21T09:25:39.033Z</time>
      </trkpt>
      <trkpt lat="46.27338" lon="10.41764">
        <ele>2507.1232983906</ele>
        <time>2018-09-21T09:25:47.016Z</time>
      </trkpt>
      <trkpt lat="46.27341" lon="10.41778">
        <ele>2507.946597573</ele>
        <time>2018-09-21T09:25:55.002Z</time>
      </trkpt>
      <trkpt lat="46.27347" lon="10.41788">
        <ele>2508</ele>
        <time>2018-09-21T09:26:02.017Z</time>
      </trkpt>
      <trkpt lat="46.27355" lon="10.41796">
        <ele>2508</ele>
        <time>2018-09-21T09:26:08.004Z</time>
      </trkpt>
      <trkpt lat="46.27363" lon="10.41804">
        <ele>2508</ele>
        <time>2018-09-21T09:26:13.002Z</time>
      </trkpt>
      <trkpt lat="46.2737" lon="10.41813">
        <ele>2508</ele>
        <time>2018-09-21T09:26:18.002Z</time>
      </trkpt>
      <trkpt lat="46.2738" lon="10.41816">
        <ele>2508</ele>
        <time>2018-09-21T09:26:23.001Z</time>
      </trkpt>
      <trkpt lat="46.27388" lon="10.4182">
        <ele>2508</ele>
        <time>2018-09-21T09:26:28.001Z</time>
      </trkpt>
      <trkpt lat="46.27398" lon="10.41821">
        <ele>2508</ele>
        <time>2018-09-21T09:26:42.014Z</time>
      </trkpt>
      <trkpt lat="46.27407" lon="10.41824">
        <ele>2507.4779998342</ele>
        <time>2018-09-21T09:26:51.001Z</time>
      </trkpt>
      <trkpt lat="46.27415" lon="10.41833">
        <ele>2507.1048427083</ele>
        <time>2018-09-21T09:26:57.016Z</time>
      </trkpt>
      <trkpt lat="46.27424" lon="10.4184">
        <ele>2507.8401052025</ele>
        <time>2018-09-21T09:27:04.001Z</time>
      </trkpt>
      <trkpt lat="46.27435" lon="10.41846">
        <ele>2509.49619968</ele>
        <time>2018-09-21T09:27:13.001Z</time>
      </trkpt>
      <trkpt lat="46.27444" lon="10.41846">
        <ele>2509.8512923411</ele>
        <time>2018-09-21T09:27:17.016Z</time>
      </trkpt>
      <trkpt lat="46.27454" lon="10.41847">
        <ele>2509</ele>
        <time>2018-09-21T09:27:26.002Z</time>
      </trkpt>
      <trkpt lat="46.27464" lon="10.41848">
        <ele>2509</ele>
        <time>2018-09-21T09:27:30.002Z</time>
      </trkpt>
      <trkpt lat="46.27475" lon="10.41852">
        <ele>2509</ele>
        <time>2018-09-21T09:27:35.004Z</time>
      </trkpt>
      <trkpt lat="46.27484" lon="10.41854">
        <ele>2509</ele>
        <time>2018-09-21T09:27:40.004Z</time>
      </trkpt>
      <trkpt lat="46.27494" lon="10.41852">
        <ele>2509</ele>
        <time>2018-09-21T09:27:45.001Z</time>
      </trkpt>
      <trkpt lat="46.27504" lon="10.41852">
        <ele>2509</ele>
        <time>2018-09-21T09:27:53.004Z</time>
      </trkpt>
      <trkpt lat="46.27512" lon="10.41854">
        <ele>2509</ele>
        <time>2018-09-21T09:28:02.014Z</time>
      </trkpt>
      <trkpt lat="46.27523" lon="10.41854">
        <ele>2509</ele>
        <time>2018-09-21T09:28:10.001Z</time>
      </trkpt>
      <trkpt lat="46.27532" lon="10.41852">
        <ele>2509.34840064</ele>
        <time>2018-09-21T09:28:19.004Z</time>
      </trkpt>
      <trkpt lat="46.27542" lon="10.41854">
        <ele>2510.04819968</ele>
        <time>2018-09-21T09:28:26.002Z</time>
      </trkpt>
      <trkpt lat="46.27551" lon="10.41853">
        <ele>2511.0466988448</ele>
        <time>2018-09-21T09:28:36.001Z</time>
      </trkpt>
      <trkpt lat="46.27561" lon="10.41856">
        <ele>2512.0379355302</ele>
        <time>2018-09-21T09:28:46.004Z</time>
      </trkpt>
      <trkpt lat="46.27568" lon="10.41864">
        <ele>2514.14429952</ele>
        <time>2018-09-21T09:28:56.001Z</time>
      </trkpt>
      <trkpt lat="46.27576" lon="10.41873">
        <ele>2516.54429952</ele>
        <time>2018-09-21T09:29:04.001Z</time>
      </trkpt>
      <trkpt lat="46.27582" lon="10.41884">
        <ele>2518.69619968</ele>
        <time>2018-09-21T09:29:14.001Z</time>
      </trkpt>
      <trkpt lat="46.27587" lon="10.41894">
        <ele>2518.10380032</ele>
        <time>2018-09-21T09:29:20.001Z</time>
      </trkpt>
      <trkpt lat="46.27594" lon="10.41903">
        <ele>2516.00760064</ele>
        <time>2018-09-21T09:29:28.001Z</time>
      </trkpt>
      <trkpt lat="46.276" lon="10.41912">
        <ele>2513.60760064</ele>
        <time>2018-09-21T09:29:34.001Z</time>
      </trkpt>
      <trkpt lat="46.2761" lon="10.41918">
        <ele>2511.2831423755</ele>
        <time>2018-09-21T09:29:40.001Z</time>
      </trkpt>
      <trkpt lat="46.27618" lon="10.41924">
        <ele>2509</ele>
        <time>2018-09-21T09:29:47.015Z</time>
      </trkpt>
      <trkpt lat="46.27627" lon="10.41928">
        <ele>2509</ele>
        <time>2018-09-21T09:29:53.001Z</time>
      </trkpt>
      <trkpt lat="46.27636" lon="10.41934">
        <ele>2508.65190016</ele>
        <time>2018-09-21T09:29:59.001Z</time>
      </trkpt>
      <trkpt lat="46.27645" lon="10.41941">
        <ele>2508.04809984</ele>
        <time>2018-09-21T09:30:06.001Z</time>
      </trkpt>
      <trkpt lat="46.27655" lon="10.41944">
        <ele>2508.6496</ele>
        <time>2018-09-21T09:30:12.016Z</time>
      </trkpt>
      <trkpt lat="46.27662" lon="10.41954">
        <ele>2509</ele>
        <time>2018-09-21T09:30:21.001Z</time>
      </trkpt>
      <trkpt lat="46.27669" lon="10.41964">
        <ele>2509</ele>
        <time>2018-09-21T09:30:30.001Z</time>
      </trkpt>
      <trkpt lat="46.27677" lon="10.41973">
        <ele>2509</ele>
        <time>2018-09-21T09:30:37.016Z</time>
      </trkpt>
      <trkpt lat="46.27678" lon="10.41987">
        <ele>2509</ele>
        <time>2018-09-21T09:30:45.000Z</time>
      </trkpt>
      <trkpt lat="46.27678" lon="10.42001">
        <ele>2509</ele>
        <time>2018-09-21T09:30:53.000Z</time>
      </trkpt>
      <trkpt lat="46.27679" lon="10.42015">
        <ele>2509</ele>
        <time>2018-09-21T09:31:01.001Z</time>
      </trkpt>
      <trkpt lat="46.27682" lon="10.42028">
        <ele>2509</ele>
        <time>2018-09-21T09:31:10.001Z</time>
      </trkpt>
      <trkpt lat="46.27679" lon="10.42041">
        <ele>2508.565180038</ele>
        <time>2018-09-21T09:31:20.003Z</time>
      </trkpt>
      <trkpt lat="46.27674" lon="10.42054">
        <ele>2508.1220848288</ele>
        <time>2018-09-21T09:31:27.013Z</time>
      </trkpt>
      <trkpt lat="46.27667" lon="10.42064">
        <ele>2508.8432402372</ele>
        <time>2018-09-21T09:31:34.001Z</time>
      </trkpt>
      <trkpt lat="46.27661" lon="10.42075">
        <ele>2508.55190016</ele>
        <time>2018-09-21T09:31:40.001Z</time>
      </trkpt>
      <trkpt lat="46.27657" lon="10.42088">
        <ele>2507.9537126183</ele>
        <time>2018-09-21T09:31:46.000Z</time>
      </trkpt>
      <trkpt lat="46.27653" lon="10.42102">
        <ele>2507.2785920242</ele>
        <time>2018-09-21T09:31:53.001Z</time>
      </trkpt>
      <trkpt lat="46.27649" lon="10.42114">
        <ele>2506.1520235424</ele>
        <time>2018-09-21T09:31:59.973Z</time>
      </trkpt>
      <trkpt lat="46.27648" lon="10.42127">
        <ele>2505</ele>
        <time>2018-09-21T09:32:08.002Z</time>
      </trkpt>
      <trkpt lat="46.27644" lon="10.42139">
        <ele>2505</ele>
        <time>2018-09-21T09:32:15.001Z</time>
      </trkpt>
      <trkpt lat="46.2764" lon="10.42151">
        <ele>2506.696</ele>
        <time>2018-09-21T09:32:24.000Z</time>
      </trkpt>
      <trkpt lat="46.27645" lon="10.42164">
        <ele>2507.74809984</ele>
        <time>2018-09-21T09:32:33.001Z</time>
      </trkpt>
      <trkpt lat="46.27651" lon="10.42174">
        <ele>2508.4459699728</ele>
        <time>2018-09-21T09:32:40.002Z</time>
      </trkpt>
      <trkpt lat="46.27652" lon="10.42188">
        <ele>2509.4452263091</ele>
        <time>2018-09-21T09:32:50.000Z</time>
      </trkpt>
      <trkpt lat="46.27652" lon="10.42202">
        <ele>2510.34809984</ele>
        <time>2018-09-21T09:32:59.001Z</time>
      </trkpt>
      <trkpt lat="46.27649" lon="10.42215">
        <ele>2511.89619968</ele>
        <time>2018-09-21T09:33:10.001Z</time>
      </trkpt>
      <trkpt lat="46.27648" lon="10.42228">
        <ele>2514.04429952</ele>
        <time>2018-09-21T09:33:19.001Z</time>
      </trkpt>
      <trkpt lat="46.27651" lon="10.42241">
        <ele>2516</ele>
        <time>2018-09-21T09:33:28.002Z</time>
      </trkpt>
      <trkpt lat="46.27649" lon="10.42254">
        <ele>2516.2466199624</ele>
        <time>2018-09-21T09:33:38.001Z</time>
      </trkpt>
      <trkpt lat="46.2765" lon="10.42268">
        <ele>2517</ele>
        <time>2018-09-21T09:33:49.004Z</time>
      </trkpt>
      <trkpt lat="46.27643" lon="10.42279">
        <ele>2517.1099367364</ele>
        <time>2018-09-21T09:33:57.011Z</time>
      </trkpt>
      <trkpt lat="46.27634" lon="10.42282">
        <ele>2518</ele>
        <time>2018-09-21T09:34:08.002Z</time>
      </trkpt>
      <trkpt lat="46.27626" lon="10.42291">
        <ele>2518</ele>
        <time>2018-09-21T09:34:15.002Z</time>
      </trkpt>
      <trkpt lat="46.27622" lon="10.42303">
        <ele>2518</ele>
        <time>2018-09-21T09:34:24.001Z</time>
      </trkpt>
      <trkpt lat="46.2762" lon="10.42316">
        <ele>2518.5476476324</ele>
        <time>2018-09-21T09:34:31.001Z</time>
      </trkpt>
      <trkpt lat="46.27615" lon="10.42328">
        <ele>2519</ele>
        <time>2018-09-21T09:34:38.003Z</time>
      </trkpt>
      <trkpt lat="46.27609" lon="10.4234">
        <ele>2519</ele>
        <time>2018-09-21T09:34:45.004Z</time>
      </trkpt>
      <trkpt lat="46.27603" lon="10.4235">
        <ele>2520</ele>
        <time>2018-09-21T09:34:56.004Z</time>
      </trkpt>
      <trkpt lat="46.27597" lon="10.42361">
        <ele>2520</ele>
        <time>2018-09-21T09:35:04.001Z</time>
      </trkpt>
      <trkpt lat="46.27595" lon="10.42376">
        <ele>2520.842814312</ele>
        <time>2018-09-21T09:35:14.005Z</time>
      </trkpt>
      <trkpt lat="46.27594" lon="10.4239">
        <ele>2520.4828407955</ele>
        <time>2018-09-21T09:35:21.005Z</time>
      </trkpt>
      <trkpt lat="46.27594" lon="10.42404">
        <ele>2519.7997889692</ele>
        <time>2018-09-21T09:35:27.016Z</time>
      </trkpt>
      <trkpt lat="46.27592" lon="10.42419">
        <ele>2518.7415875527</ele>
        <time>2018-09-21T09:35:32.016Z</time>
      </trkpt>
      <trkpt lat="46.27588" lon="10.42431">
        <ele>2518</ele>
        <time>2018-09-21T09:35:41.001Z</time>
      </trkpt>
      <trkpt lat="46.27587" lon="10.42445">
        <ele>2519.09619968</ele>
        <time>2018-09-21T09:35:51.001Z</time>
      </trkpt>
      <trkpt lat="46.27586" lon="10.42459">
        <ele>2520</ele>
        <time>2018-09-21T09:36:00.001Z</time>
      </trkpt>
      <trkpt lat="46.27588" lon="10.42473">
        <ele>2520.4755511484</ele>
        <time>2018-09-21T09:36:08.000Z</time>
      </trkpt>
      <trkpt lat="46.27585" lon="10.42485">
        <ele>2522.3338554094</ele>
        <time>2018-09-21T09:36:17.015Z</time>
      </trkpt>
      <trkpt lat="46.27582" lon="10.42498">
        <ele>2524.8373035193</ele>
        <time>2018-09-21T09:36:25.001Z</time>
      </trkpt>
      <trkpt lat="46.27575" lon="10.42508">
        <ele>2525.2443297282</ele>
        <time>2018-09-21T09:36:37.005Z</time>
      </trkpt>
      <trkpt lat="46.27576" lon="10.42521">
        <ele>2527.09880064</ele>
        <time>2018-09-21T09:36:46.014Z</time>
      </trkpt>
      <trkpt lat="46.27578" lon="10.42535">
        <ele>2528.89880064</ele>
        <time>2018-09-21T09:36:55.014Z</time>
      </trkpt>
      <trkpt lat="46.27573" lon="10.42547">
        <ele>2531</ele>
        <time>2018-09-21T09:37:08.014Z</time>
      </trkpt>
      <trkpt lat="46.27566" lon="10.42557">
        <ele>2531</ele>
        <time>2018-09-21T09:37:17.014Z</time>
      </trkpt>
      <trkpt lat="46.27559" lon="10.42565">
        <ele>2531</ele>
        <time>2018-09-21T09:37:24.014Z</time>
      </trkpt>
      <trkpt lat="46.27559" lon="10.42578">
        <ele>2531.8477054516</ele>
        <time>2018-09-21T09:37:34.014Z</time>
      </trkpt>
      <trkpt lat="46.27555" lon="10.42591">
        <ele>2534.8246502905</ele>
        <time>2018-09-21T09:37:45.012Z</time>
      </trkpt>
      <trkpt lat="46.27555" lon="10.42606">
        <ele>2537.14429952</ele>
        <time>2018-09-21T09:37:56.001Z</time>
      </trkpt>
      <trkpt lat="46.27556" lon="10.4262">
        <ele>2540</ele>
        <time>2018-09-21T09:38:06.001Z</time>
      </trkpt>
      <trkpt lat="46.27561" lon="10.42632">
        <ele>2540.6509349861</ele>
        <time>2018-09-21T09:38:19.031Z</time>
      </trkpt>
      <trkpt lat="46.27567" lon="10.42641">
        <ele>2542.744</ele>
        <time>2018-09-21T09:38:28.000Z</time>
      </trkpt>
      <trkpt lat="46.27572" lon="10.42652">
        <ele>2545.69659904</ele>
        <time>2018-09-21T09:38:39.003Z</time>
      </trkpt>
      <trkpt lat="46.27579" lon="10.42662">
        <ele>2547.4705879496</ele>
        <time>2018-09-21T09:38:48.000Z</time>
      </trkpt>
      <trkpt lat="46.27583" lon="10.42674">
        <ele>2549.1987302824</ele>
        <time>2018-09-21T09:38:57.000Z</time>
      </trkpt>
      <trkpt lat="46.27588" lon="10.42686">
        <ele>2551.348</ele>
        <time>2018-09-21T09:39:09.000Z</time>
      </trkpt>
      <trkpt lat="46.2759" lon="10.427">
        <ele>2553.6949046777</ele>
        <time>2018-09-21T09:39:24.003Z</time>
      </trkpt>
      <trkpt lat="46.27595" lon="10.42711">
        <ele>2555.689331465</ele>
        <time>2018-09-21T09:39:34.002Z</time>
      </trkpt>
      <trkpt lat="46.27599" lon="10.42724">
        <ele>2556.6470888353</ele>
        <time>2018-09-21T09:39:42.005Z</time>
      </trkpt>
      <trkpt lat="46.27604" lon="10.42736">
        <ele>2558.922432253</ele>
        <time>2018-09-21T09:39:52.005Z</time>
      </trkpt>
      <trkpt lat="46.27606" lon="10.42749">
        <ele>2560.9390781172</ele>
        <time>2018-09-21T09:40:05.012Z</time>
      </trkpt>
      <trkpt lat="46.27599" lon="10.42759">
        <ele>2561.948585407</ele>
        <time>2018-09-21T09:40:15.011Z</time>
      </trkpt>
      <trkpt lat="46.27594" lon="10.4277">
        <ele>2562</ele>
        <time>2018-09-21T09:40:21.002Z</time>
      </trkpt>
      <trkpt lat="46.27587" lon="10.42781">
        <ele>2561.5599001982</ele>
        <time>2018-09-21T09:40:30.013Z</time>
      </trkpt>
      <trkpt lat="46.27582" lon="10.42793">
        <ele>2561.1617907779</ele>
        <time>2018-09-21T09:40:34.014Z</time>
      </trkpt>
      <trkpt lat="46.27576" lon="10.42802">
        <ele>2561</ele>
        <time>2018-09-21T09:40:41.002Z</time>
      </trkpt>
      <trkpt lat="46.27566" lon="10.42809">
        <ele>2561.5434224986</ele>
        <time>2018-09-21T09:40:51.014Z</time>
      </trkpt>
      <trkpt lat="46.27557" lon="10.42815">
        <ele>2562</ele>
        <time>2018-09-21T09:40:59.014Z</time>
      </trkpt>
      <trkpt lat="46.27549" lon="10.4282">
        <ele>2562</ele>
        <time>2018-09-21T09:41:08.003Z</time>
      </trkpt>
      <trkpt lat="46.2754" lon="10.42825">
        <ele>2562</ele>
        <time>2018-09-21T09:41:14.003Z</time>
      </trkpt>
      <trkpt lat="46.2753" lon="10.42827">
        <ele>2562</ele>
        <time>2018-09-21T09:41:22.014Z</time>
      </trkpt>
      <trkpt lat="46.27521" lon="10.42823">
        <ele>2563.0520498361</ele>
        <time>2018-09-21T09:41:31.014Z</time>
      </trkpt>
      <trkpt lat="46.27512" lon="10.4282">
        <ele>2564.7208511741</ele>
        <time>2018-09-21T09:41:38.014Z</time>
      </trkpt>
      <trkpt lat="46.27519" lon="10.4283">
        <ele>2573.69880064</ele>
        <time>2018-09-21T09:42:09.014Z</time>
      </trkpt>
      <trkpt lat="46.27522" lon="10.42842">
        <ele>2580.1447775983</ele>
        <time>2018-09-21T09:42:46.005Z</time>
      </trkpt>
      <trkpt lat="46.27531" lon="10.42849">
        <ele>2587.6396843087</ele>
        <time>2018-09-21T09:43:22.000Z</time>
      </trkpt>
      <trkpt lat="46.27538" lon="10.42857">
        <ele>2589.4921993946</ele>
        <time>2018-09-21T09:43:33.014Z</time>
      </trkpt>
      <trkpt lat="46.27544" lon="10.42866">
        <ele>2598.34489856</ele>
        <time>2018-09-21T09:44:10.003Z</time>
      </trkpt>
      <trkpt lat="46.27553" lon="10.42871">
        <ele>2601.4533980872</ele>
        <time>2018-09-21T09:44:33.005Z</time>
      </trkpt>
      <trkpt lat="46.27543" lon="10.42872">
        <ele>2609.69939968</ele>
        <time>2018-09-21T09:45:04.017Z</time>
      </trkpt>
      <trkpt lat="46.27544" lon="10.42885">
        <ele>2610.25149952</ele>
        <time>2018-09-21T09:45:23.005Z</time>
      </trkpt>
      <trkpt lat="46.27548" lon="10.42897">
        <ele>2606.7574976</ele>
        <time>2018-09-21T09:45:36.005Z</time>
      </trkpt>
      <trkpt lat="46.27551" lon="10.42911">
        <ele>2602.2579968</ele>
        <time>2018-09-21T09:45:45.004Z</time>
      </trkpt>
      <trkpt lat="46.27541" lon="10.42904">
        <ele>2598.6065897643</ele>
        <time>2018-09-21T09:45:54.012Z</time>
      </trkpt>
      <trkpt lat="46.27533" lon="10.42899">
        <ele>2596.3570571028</ele>
        <time>2018-09-21T09:46:01.001Z</time>
      </trkpt>
      <trkpt lat="46.27531" lon="10.42912">
        <ele>2592.75540096</ele>
        <time>2018-09-21T09:46:13.002Z</time>
      </trkpt>
      <trkpt lat="46.27523" lon="10.42918">
        <ele>2583.80720128</ele>
        <time>2018-09-21T09:46:46.002Z</time>
      </trkpt>
      <trkpt lat="46.27513" lon="10.42919">
        <ele>2578.2529984</ele>
        <time>2018-09-21T09:46:59.014Z</time>
      </trkpt>
      <trkpt lat="46.27519" lon="10.42931">
        <ele>2572.3600218991</ele>
        <time>2018-09-21T09:47:21.003Z</time>
      </trkpt>
      <trkpt lat="46.27523" lon="10.42945">
        <ele>2569.3547985289</ele>
        <time>2018-09-21T09:47:27.999Z</time>
      </trkpt>
      <trkpt lat="46.27525" lon="10.42958">
        <ele>2563.790457057</ele>
        <time>2018-09-21T09:47:37.002Z</time>
      </trkpt>
      <trkpt lat="46.27526" lon="10.42971">
        <ele>2561.34480384</ele>
        <time>2018-09-21T09:47:48.004Z</time>
      </trkpt>
      <trkpt lat="46.27525" lon="10.42985">
        <ele>2558.0235045103</ele>
        <time>2018-09-21T09:47:57.004Z</time>
      </trkpt>
      <trkpt lat="46.27517" lon="10.42992">
        <ele>2549.55449856</ele>
        <time>2018-09-21T09:48:17.005Z</time>
      </trkpt>
      <trkpt lat="46.2752" lon="10.43005">
        <ele>2547.45449856</ele>
        <time>2018-09-21T09:48:24.005Z</time>
      </trkpt>
      <trkpt lat="46.27526" lon="10.43015">
        <ele>2543.7128822259</ele>
        <time>2018-09-21T09:48:31.004Z</time>
      </trkpt>
      <trkpt lat="46.27532" lon="10.43028">
        <ele>2541.492921079</ele>
        <time>2018-09-21T09:48:38.002Z</time>
      </trkpt>
      <trkpt lat="46.27536" lon="10.43041">
        <ele>2542.689331465</ele>
        <time>2018-09-21T09:48:44.002Z</time>
      </trkpt>
      <trkpt lat="46.27538" lon="10.43055">
        <ele>2543</ele>
        <time>2018-09-21T09:48:51.000Z</time>
      </trkpt>
      <trkpt lat="46.27529" lon="10.43057">
        <ele>2537.30480384</ele>
        <time>2018-09-21T09:49:05.012Z</time>
      </trkpt>
      <trkpt lat="46.2752" lon="10.43054">
        <ele>2536.05080064</ele>
        <time>2018-09-21T09:49:15.012Z</time>
      </trkpt>
      <trkpt lat="46.2751" lon="10.43054">
        <ele>2531.7613875716</ele>
        <time>2018-09-21T09:49:26.002Z</time>
      </trkpt>
      <trkpt lat="46.27504" lon="10.43044">
        <ele>2528.7901001442</ele>
        <time>2018-09-21T09:49:32.004Z</time>
      </trkpt>
      <trkpt lat="46.27499" lon="10.43033">
        <ele>2525.6684828002</ele>
        <time>2018-09-21T09:49:40.014Z</time>
      </trkpt>
      <trkpt lat="46.27489" lon="10.43029">
        <ele>2523.1008</ele>
        <time>2018-09-21T09:49:50.016Z</time>
      </trkpt>
      <trkpt lat="46.27483" lon="10.4302">
        <ele>2521.30319872</ele>
        <time>2018-09-21T09:49:59.004Z</time>
      </trkpt>
      <trkpt lat="46.27477" lon="10.4301">
        <ele>2519.75190016</ele>
        <time>2018-09-21T09:50:08.001Z</time>
      </trkpt>
      <trkpt lat="46.27468" lon="10.43003">
        <ele>2518.3134573459</ele>
        <time>2018-09-21T09:50:18.003Z</time>
      </trkpt>
      <trkpt lat="46.27463" lon="10.42993">
        <ele>2515.7922546712</ele>
        <time>2018-09-21T09:50:27.005Z</time>
      </trkpt>
      <trkpt lat="46.27455" lon="10.42986">
        <ele>2511.9052108023</ele>
        <time>2018-09-21T09:50:41.003Z</time>
      </trkpt>
      <trkpt lat="46.27449" lon="10.42974">
        <ele>2509.9367610672</ele>
        <time>2018-09-21T09:50:51.001Z</time>
      </trkpt>
      <trkpt lat="46.27441" lon="10.42965">
        <ele>2506.4722651291</ele>
        <time>2018-09-21T09:51:02.004Z</time>
      </trkpt>
      <trkpt lat="46.27438" lon="10.42952">
        <ele>2503.5074606452</ele>
        <time>2018-09-21T09:51:13.003Z</time>
      </trkpt>
      <trkpt lat="46.27433" lon="10.42941">
        <ele>2502.15190016</ele>
        <time>2018-09-21T09:51:24.001Z</time>
      </trkpt>
      <trkpt lat="46.27428" lon="10.42929">
        <ele>2499.95479808</ele>
        <time>2018-09-21T09:51:39.004Z</time>
      </trkpt>
      <trkpt lat="46.27422" lon="10.4292">
        <ele>2496.35479808</ele>
        <time>2018-09-21T09:51:51.004Z</time>
      </trkpt>
      <trkpt lat="46.27413" lon="10.42917">
        <ele>2492.80720128</ele>
        <time>2018-09-21T09:52:01.002Z</time>
      </trkpt>
      <trkpt lat="46.27404" lon="10.42922">
        <ele>2488.1690858566</ele>
        <time>2018-09-21T09:52:15.013Z</time>
      </trkpt>
      <trkpt lat="46.27395" lon="10.42917">
        <ele>2485.7816704786</ele>
        <time>2018-09-21T09:52:23.004Z</time>
      </trkpt>
      <trkpt lat="46.27385" lon="10.42916">
        <ele>2484.150095381</ele>
        <time>2018-09-21T09:52:30.014Z</time>
      </trkpt>
      <trkpt lat="46.27377" lon="10.4291">
        <ele>2482.6723829289</ele>
        <time>2018-09-21T09:52:37.004Z</time>
      </trkpt>
      <trkpt lat="46.27367" lon="10.4291">
        <ele>2480.7901683682</ele>
        <time>2018-09-21T09:52:43.002Z</time>
      </trkpt>
      <trkpt lat="46.27357" lon="10.42911">
        <ele>2478.0762631608</ele>
        <time>2018-09-21T09:52:52.003Z</time>
      </trkpt>
      <trkpt lat="46.27348" lon="10.42913">
        <ele>2475.295250409</ele>
        <time>2018-09-21T09:52:59.002Z</time>
      </trkpt>
      <trkpt lat="46.27338" lon="10.42912">
        <ele>2471.95160064</ele>
        <time>2018-09-21T09:53:06.004Z</time>
      </trkpt>
      <trkpt lat="46.27329" lon="10.42917">
        <ele>2471.05059968</ele>
        <time>2018-09-21T09:53:15.014Z</time>
      </trkpt>
      <trkpt lat="46.27324" lon="10.4293">
        <ele>2471</ele>
        <time>2018-09-21T09:53:22.004Z</time>
      </trkpt>
      <trkpt lat="46.27318" lon="10.42942">
        <ele>2469.9994262069</ele>
        <time>2018-09-21T09:53:29.002Z</time>
      </trkpt>
      <trkpt lat="46.27311" lon="10.4295">
        <ele>2467.5631772385</ele>
        <time>2018-09-21T09:53:37.004Z</time>
      </trkpt>
      <trkpt lat="46.27301" lon="10.4295">
        <ele>2464.2117141423</ele>
        <time>2018-09-21T09:53:45.014Z</time>
      </trkpt>
      <trkpt lat="46.27293" lon="10.42941">
        <ele>2459.51140096</ele>
        <time>2018-09-21T09:53:53.001Z</time>
      </trkpt>
      <trkpt lat="46.27288" lon="10.42929">
        <ele>2456.7500481389</ele>
        <time>2018-09-21T09:54:02.001Z</time>
      </trkpt>
      <trkpt lat="46.27285" lon="10.42916">
        <ele>2454.4074771647</ele>
        <time>2018-09-21T09:54:11.002Z</time>
      </trkpt>
      <trkpt lat="46.27282" lon="10.42904">
        <ele>2451.95479808</ele>
        <time>2018-09-21T09:54:19.004Z</time>
      </trkpt>
      <trkpt lat="46.27273" lon="10.42899">
        <ele>2449.0115544223</ele>
        <time>2018-09-21T09:54:28.001Z</time>
      </trkpt>
      <trkpt lat="46.27266" lon="10.42891">
        <ele>2445.9574311156</ele>
        <time>2018-09-21T09:54:36.004Z</time>
      </trkpt>
      <trkpt lat="46.27259" lon="10.42883">
        <ele>2444.6807963671</ele>
        <time>2018-09-21T09:54:47.004Z</time>
      </trkpt>
      <trkpt lat="46.2725" lon="10.42877">
        <ele>2441.80720128</ele>
        <time>2018-09-21T09:54:56.002Z</time>
      </trkpt>
      <trkpt lat="46.27241" lon="10.42879">
        <ele>2438</ele>
        <time>2018-09-21T09:55:06.004Z</time>
      </trkpt>
      <trkpt lat="46.27233" lon="10.42888">
        <ele>2435.0145135484</ele>
        <time>2018-09-21T09:55:23.004Z</time>
      </trkpt>
      <trkpt lat="46.27236" lon="10.42901">
        <ele>2432.10200064</ele>
        <time>2018-09-21T09:55:35.010Z</time>
      </trkpt>
      <trkpt lat="46.27226" lon="10.42904">
        <ele>2425.90320128</ele>
        <time>2018-09-21T09:55:46.004Z</time>
      </trkpt>
      <trkpt lat="46.27221" lon="10.42916">
        <ele>2420.7580032</ele>
        <time>2018-09-21T09:56:02.004Z</time>
      </trkpt>
      <trkpt lat="46.27212" lon="10.42918">
        <ele>2416.7637431076</ele>
        <time>2018-09-21T09:56:13.004Z</time>
      </trkpt>
      <trkpt lat="46.27202" lon="10.42916">
        <ele>2411.60680192</ele>
        <time>2018-09-21T09:56:29.003Z</time>
      </trkpt>
      <trkpt lat="46.27193" lon="10.42919">
        <ele>2408.10119936</ele>
        <time>2018-09-21T09:56:40.014Z</time>
      </trkpt>
      <trkpt lat="46.27184" lon="10.42918">
        <ele>2405.65209856</ele>
        <time>2018-09-21T09:56:50.013Z</time>
      </trkpt>
      <trkpt lat="46.27174" lon="10.42919">
        <ele>2402.7659077434</ele>
        <time>2018-09-21T09:56:58.003Z</time>
      </trkpt>
      <trkpt lat="46.27165" lon="10.42922">
        <ele>2398.91719</ele>
        <time>2018-09-21T09:57:06.004Z</time>
      </trkpt>
      <trkpt lat="46.27155" lon="10.42925">
        <ele>2397.1574225</ele>
        <time>2018-09-21T09:57:15.014Z</time>
      </trkpt>
      <trkpt lat="46.27146" lon="10.42928">
        <ele>2393.6251576908</ele>
        <time>2018-09-21T09:57:24.004Z</time>
      </trkpt>
      <trkpt lat="46.27139" lon="10.42936">
        <ele>2388.5110922713</ele>
        <time>2018-09-21T09:57:38.004Z</time>
      </trkpt>
      <trkpt lat="46.27132" lon="10.42946">
        <ele>2383.70319872</ele>
        <time>2018-09-21T09:57:47.014Z</time>
      </trkpt>
      <trkpt lat="46.27123" lon="10.42951">
        <ele>2381.8102115523</ele>
        <time>2018-09-21T09:57:56.004Z</time>
      </trkpt>
      <trkpt lat="46.27115" lon="10.42959">
        <ele>2378.2034059008</ele>
        <time>2018-09-21T09:58:05.012Z</time>
      </trkpt>
      <trkpt lat="46.27106" lon="10.42963">
        <ele>2376.70360064</ele>
        <time>2018-09-21T09:58:12.002Z</time>
      </trkpt>
      <trkpt lat="46.27098" lon="10.42967">
        <ele>2375.30319872</ele>
        <time>2018-09-21T09:58:19.004Z</time>
      </trkpt>
      <trkpt lat="46.2709" lon="10.42975">
        <ele>2373.85480192</ele>
        <time>2018-09-21T09:58:26.004Z</time>
      </trkpt>
      <trkpt lat="46.27083" lon="10.42982">
        <ele>2370.8171884972</ele>
        <time>2018-09-21T09:58:36.004Z</time>
      </trkpt>
      <trkpt lat="46.27076" lon="10.42992">
        <ele>2366.6199772565</ele>
        <time>2018-09-21T09:58:47.004Z</time>
      </trkpt>
      <trkpt lat="46.27066" lon="10.42997">
        <ele>2363.2150890423</ele>
        <time>2018-09-21T09:58:55.014Z</time>
      </trkpt>
      <trkpt lat="46.27058" lon="10.43004">
        <ele>2360.40640256</ele>
        <time>2018-09-21T09:59:02.004Z</time>
      </trkpt>
      <trkpt lat="46.27049" lon="10.43005">
        <ele>2359</ele>
        <time>2018-09-21T09:59:11.004Z</time>
      </trkpt>
      <trkpt lat="46.27039" lon="10.4301">
        <ele>2359</ele>
        <time>2018-09-21T09:59:20.014Z</time>
      </trkpt>
      <trkpt lat="46.2703" lon="10.43011">
        <ele>2359</ele>
        <time>2018-09-21T09:59:26.004Z</time>
      </trkpt>
      <trkpt lat="46.27021" lon="10.43019">
        <ele>2359</ele>
        <time>2018-09-21T09:59:32.004Z</time>
      </trkpt>
      <trkpt lat="46.27013" lon="10.43027">
        <ele>2358.10119936</ele>
        <time>2018-09-21T09:59:40.014Z</time>
      </trkpt>
      <trkpt lat="46.27004" lon="10.43026">
        <ele>2356.3121406712</ele>
        <time>2018-09-21T09:59:49.004Z</time>
      </trkpt>
      <trkpt lat="46.27001" lon="10.43039">
        <ele>2354.0459995798</ele>
        <time>2018-09-21T09:59:58.004Z</time>
      </trkpt>
      <trkpt lat="46.26993" lon="10.43045">
        <ele>2350.30319872</ele>
        <time>2018-09-21T10:00:09.004Z</time>
      </trkpt>
      <trkpt lat="46.26987" lon="10.43055">
        <ele>2347.6200035556</ele>
        <time>2018-09-21T10:00:18.004Z</time>
      </trkpt>
      <trkpt lat="46.26978" lon="10.43063">
        <ele>2342.5539088696</ele>
        <time>2018-09-21T10:00:27.004Z</time>
      </trkpt>
      <trkpt lat="46.2697" lon="10.43058">
        <ele>2336.55479808</ele>
        <time>2018-09-21T10:00:37.004Z</time>
      </trkpt>
      <trkpt lat="46.2696" lon="10.43057">
        <ele>2334.45480192</ele>
        <time>2018-09-21T10:00:44.004Z</time>
      </trkpt>
      <trkpt lat="46.26951" lon="10.43059">
        <ele>2330.1134891072</ele>
        <time>2018-09-21T10:00:52.004Z</time>
      </trkpt>
      <trkpt lat="46.26943" lon="10.43065">
        <ele>2325.7555533916</ele>
        <time>2018-09-21T10:01:03.004Z</time>
      </trkpt>
      <trkpt lat="46.26936" lon="10.43074">
        <ele>2320.46120448</ele>
        <time>2018-09-21T10:01:12.004Z</time>
      </trkpt>
      <trkpt lat="46.26926" lon="10.43079">
        <ele>2318</ele>
        <time>2018-09-21T10:01:24.004Z</time>
      </trkpt>
      <trkpt lat="46.26922" lon="10.43092">
        <ele>2311.10119936</ele>
        <time>2018-09-21T10:01:40.014Z</time>
      </trkpt>
      <trkpt lat="46.26922" lon="10.43105">
        <ele>2308.5110922713</ele>
        <time>2018-09-21T10:01:48.004Z</time>
      </trkpt>
      <trkpt lat="46.26913" lon="10.43108">
        <ele>2304.309286972</ele>
        <time>2018-09-21T10:01:55.014Z</time>
      </trkpt>
      <trkpt lat="46.26904" lon="10.43105">
        <ele>2302.0558574396</ele>
        <time>2018-09-21T10:02:02.004Z</time>
      </trkpt>
      <trkpt lat="46.26904" lon="10.4312">
        <ele>2299.125566397</ele>
        <time>2018-09-21T10:02:15.014Z</time>
      </trkpt>
      <trkpt lat="46.26895" lon="10.43127">
        <ele>2292.61378641</ele>
        <time>2018-09-21T10:02:34.004Z</time>
      </trkpt>
      <trkpt lat="46.26885" lon="10.43127">
        <ele>2290.9584141349</ele>
        <time>2018-09-21T10:02:39.005Z</time>
      </trkpt>
      <trkpt lat="46.26889" lon="10.43141">
        <ele>2283.90320128</ele>
        <time>2018-09-21T10:02:56.004Z</time>
      </trkpt>
      <trkpt lat="46.26893" lon="10.43153">
        <ele>2282.70320128</ele>
        <time>2018-09-21T10:03:02.004Z</time>
      </trkpt>
      <trkpt lat="46.26884" lon="10.43154">
        <ele>2280.20279808</ele>
        <time>2018-09-21T10:03:10.013Z</time>
      </trkpt>
      <trkpt lat="46.2688" lon="10.43168">
        <ele>2275.45510144</ele>
        <time>2018-09-21T10:03:24.003Z</time>
      </trkpt>
      <trkpt lat="46.2687" lon="10.43174">
        <ele>2272.3891560547</ele>
        <time>2018-09-21T10:03:30.015Z</time>
      </trkpt>
      <trkpt lat="46.26862" lon="10.43166">
        <ele>2269.484992522</ele>
        <time>2018-09-21T10:03:35.015Z</time>
      </trkpt>
      <trkpt lat="46.26853" lon="10.43162">
        <ele>2269</ele>
        <time>2018-09-21T10:03:43.004Z</time>
      </trkpt>
      <trkpt lat="46.26843" lon="10.43162">
        <ele>2267.2912535361</ele>
        <time>2018-09-21T10:03:50.014Z</time>
      </trkpt>
      <trkpt lat="46.26834" lon="10.4316">
        <ele>2264.2911819656</ele>
        <time>2018-09-21T10:03:57.005Z</time>
      </trkpt>
      <trkpt lat="46.26825" lon="10.43163">
        <ele>2258.4083899797</ele>
        <time>2018-09-21T10:04:05.014Z</time>
      </trkpt>
      <trkpt lat="46.26817" lon="10.43169">
        <ele>2256.5055265108</ele>
        <time>2018-09-21T10:04:13.005Z</time>
      </trkpt>
      <trkpt lat="46.26809" lon="10.43178">
        <ele>2253.90899712</ele>
        <time>2018-09-21T10:04:19.005Z</time>
      </trkpt>
      <trkpt lat="46.26805" lon="10.43189">
        <ele>2250.30359808</ele>
        <time>2018-09-21T10:04:25.014Z</time>
      </trkpt>
      <trkpt lat="46.26803" lon="10.43203">
        <ele>2249.10119936</ele>
        <time>2018-09-21T10:04:30.014Z</time>
      </trkpt>
      <trkpt lat="46.26802" lon="10.43217">
        <ele>2247.90299904</ele>
        <time>2018-09-21T10:04:36.005Z</time>
      </trkpt>
      <trkpt lat="46.26797" lon="10.43227">
        <ele>2246.70299904</ele>
        <time>2018-09-21T10:04:42.005Z</time>
      </trkpt>
      <trkpt lat="46.26791" lon="10.43237">
        <ele>2245.5590696719</ele>
        <time>2018-09-21T10:04:47.003Z</time>
      </trkpt>
      <trkpt lat="46.26783" lon="10.43245">
        <ele>2243.4772029264</ele>
        <time>2018-09-21T10:04:54.005Z</time>
      </trkpt>
      <trkpt lat="46.26777" lon="10.43255">
        <ele>2240.8232102286</ele>
        <time>2018-09-21T10:05:01.003Z</time>
      </trkpt>
      <trkpt lat="46.2677" lon="10.43266">
        <ele>2238.25480192</ele>
        <time>2018-09-21T10:05:08.004Z</time>
      </trkpt>
      <trkpt lat="46.26763" lon="10.43275">
        <ele>2236.15179904</ele>
        <time>2018-09-21T10:05:15.014Z</time>
      </trkpt>
      <trkpt lat="46.26754" lon="10.43282">
        <ele>2233.4089927381</ele>
        <time>2018-09-21T10:05:22.004Z</time>
      </trkpt>
      <trkpt lat="46.26745" lon="10.4329">
        <ele>2231.0090061232</ele>
        <time>2018-09-21T10:05:28.005Z</time>
      </trkpt>
      <trkpt lat="46.26739" lon="10.43301">
        <ele>2227.90299904</ele>
        <time>2018-09-21T10:05:36.005Z</time>
      </trkpt>
      <trkpt lat="46.26745" lon="10.43309">
        <ele>2226.30320128</ele>
        <time>2018-09-21T10:05:44.004Z</time>
      </trkpt>
      <trkpt lat="46.26753" lon="10.43316">
        <ele>2224.45159936</ele>
        <time>2018-09-21T10:06:01.004Z</time>
      </trkpt>
      <trkpt lat="46.26763" lon="10.43319">
        <ele>2223.75180032</ele>
        <time>2018-09-21T10:06:08.002Z</time>
      </trkpt>
      <trkpt lat="46.26772" lon="10.43318">
        <ele>2223.05059968</ele>
        <time>2018-09-21T10:06:15.014Z</time>
      </trkpt>
      <trkpt lat="46.26782" lon="10.43319">
        <ele>2222.25180032</ele>
        <time>2018-09-21T10:06:23.002Z</time>
      </trkpt>
      <trkpt lat="46.26794" lon="10.43319">
        <ele>2222</ele>
        <time>2018-09-21T10:06:45.014Z</time>
      </trkpt>
      <trkpt lat="46.26803" lon="10.43322">
        <ele>2220.90360064</ele>
        <time>2018-09-21T10:06:56.002Z</time>
      </trkpt>
      <trkpt lat="46.26813" lon="10.43322">
        <ele>2219.48120064</ele>
        <time>2018-09-21T10:07:03.114Z</time>
      </trkpt>
      <trkpt lat="46.26822" lon="10.43317">
        <ele>2218.6520483203</ele>
        <time>2018-09-21T10:07:09.003Z</time>
      </trkpt>
      <trkpt lat="46.26831" lon="10.43314">
        <ele>2218.0968981471</ele>
        <time>2018-09-21T10:07:16.014Z</time>
      </trkpt>
      <trkpt lat="46.2684" lon="10.43318">
        <ele>2219.4960952965</ele>
        <time>2018-09-21T10:07:23.003Z</time>
      </trkpt>
      <trkpt lat="46.26841" lon="10.43333">
        <ele>2220</ele>
        <time>2018-09-21T10:07:31.014Z</time>
      </trkpt>
      <trkpt lat="46.26848" lon="10.43342">
        <ele>2220</ele>
        <time>2018-09-21T10:07:37.004Z</time>
      </trkpt>
      <trkpt lat="46.26853" lon="10.43354">
        <ele>2220</ele>
        <time>2018-09-21T10:07:43.004Z</time>
      </trkpt>
      <trkpt lat="46.26862" lon="10.4336">
        <ele>2220</ele>
        <time>2018-09-21T10:07:49.014Z</time>
      </trkpt>
      <trkpt lat="46.26867" lon="10.43372">
        <ele>2219.7585251527</ele>
        <time>2018-09-21T10:07:58.002Z</time>
      </trkpt>
      <trkpt lat="46.2687" lon="10.43386">
        <ele>2219.1601201134</ele>
        <time>2018-09-21T10:08:04.004Z</time>
      </trkpt>
      <trkpt lat="46.26871" lon="10.43401">
        <ele>2219</ele>
        <time>2018-09-21T10:08:10.014Z</time>
      </trkpt>
      <trkpt lat="46.26874" lon="10.43414">
        <ele>2218.95059968</ele>
        <time>2018-09-21T10:08:16.014Z</time>
      </trkpt>
      <trkpt lat="46.26876" lon="10.43428">
        <ele>2218.35160064</ele>
        <time>2018-09-21T10:08:22.004Z</time>
      </trkpt>
      <trkpt lat="46.26879" lon="10.43441">
        <ele>2217.7518487119</ele>
        <time>2018-09-21T10:08:28.004Z</time>
      </trkpt>
      <trkpt lat="46.26882" lon="10.43455">
        <ele>2217.1526474014</ele>
        <time>2018-09-21T10:08:34.002Z</time>
      </trkpt>
      <trkpt lat="46.26884" lon="10.43469">
        <ele>2217</ele>
        <time>2018-09-21T10:08:41.004Z</time>
      </trkpt>
      <trkpt lat="46.26881" lon="10.43483">
        <ele>2217</ele>
        <time>2018-09-21T10:08:48.004Z</time>
      </trkpt>
      <trkpt lat="46.26881" lon="10.43497">
        <ele>2217.0481585825</ele>
        <time>2018-09-21T10:08:56.004Z</time>
      </trkpt>
      <trkpt lat="46.26884" lon="10.43509">
        <ele>2217.8441787365</ele>
        <time>2018-09-21T10:09:04.004Z</time>
      </trkpt>
      <trkpt lat="46.26884" lon="10.43522">
        <ele>2218.5471361456</ele>
        <time>2018-09-21T10:09:11.014Z</time>
      </trkpt>
      <trkpt lat="46.26883" lon="10.43537">
        <ele>2219</ele>
        <time>2018-09-21T10:09:18.003Z</time>
      </trkpt>
      <trkpt lat="46.26885" lon="10.43552">
        <ele>2219.1276067445</ele>
        <time>2018-09-21T10:09:27.004Z</time>
      </trkpt>
      <trkpt lat="46.26885" lon="10.43567">
        <ele>2221.0288770612</ele>
        <time>2018-09-21T10:09:36.003Z</time>
      </trkpt>
      <trkpt lat="46.26887" lon="10.43582">
        <ele>2222.0937386907</ele>
        <time>2018-09-21T10:09:46.014Z</time>
      </trkpt>
      <trkpt lat="46.2689" lon="10.43595">
        <ele>2223.4199223257</ele>
        <time>2018-09-21T10:09:53.003Z</time>
      </trkpt>
      <trkpt lat="46.2689" lon="10.43608">
        <ele>2224</ele>
        <time>2018-09-21T10:10:00.014Z</time>
      </trkpt>
      <trkpt lat="46.2689" lon="10.43622">
        <ele>2224.49659904</ele>
        <time>2018-09-21T10:10:08.003Z</time>
      </trkpt>
      <trkpt lat="46.26885" lon="10.43633">
        <ele>2225.89659904</ele>
        <time>2018-09-21T10:10:15.003Z</time>
      </trkpt>
      <trkpt lat="46.26885" lon="10.43647">
        <ele>2226</ele>
        <time>2018-09-21T10:10:21.003Z</time>
      </trkpt>
      <trkpt lat="46.2688" lon="10.4366">
        <ele>2226.6596581818</ele>
        <time>2018-09-21T10:10:29.003Z</time>
      </trkpt>
      <trkpt lat="46.26876" lon="10.43673">
        <ele>2228.1968216949</ele>
        <time>2018-09-21T10:10:37.009Z</time>
      </trkpt>
      <trkpt lat="46.26873" lon="10.43686">
        <ele>2229.6790264407</ele>
        <time>2018-09-21T10:10:44.005Z</time>
      </trkpt>
      <trkpt lat="46.26869" lon="10.43698">
        <ele>2230.64930048</ele>
        <time>2018-09-21T10:10:52.013Z</time>
      </trkpt>
      <trkpt lat="46.26866" lon="10.43711">
        <ele>2231</ele>
        <time>2018-09-21T10:11:00.002Z</time>
      </trkpt>
      <trkpt lat="46.2687" lon="10.43724">
        <ele>2231.2327080089</ele>
        <time>2018-09-21T10:11:08.003Z</time>
      </trkpt>
      <trkpt lat="46.26875" lon="10.43735">
        <ele>2232.1766345729</ele>
        <time>2018-09-21T10:11:17.014Z</time>
      </trkpt>
      <trkpt lat="46.26883" lon="10.43744">
        <ele>2233.6778130513</ele>
        <time>2018-09-21T10:11:24.017Z</time>
      </trkpt>
      <trkpt lat="46.26891" lon="10.43751">
        <ele>2235.29880064</ele>
        <time>2018-09-21T10:11:32.014Z</time>
      </trkpt>
      <trkpt lat="46.26896" lon="10.43763">
        <ele>2236.94819968</ele>
        <time>2018-09-21T10:11:45.002Z</time>
      </trkpt>
      <trkpt lat="46.26901" lon="10.43774">
        <ele>2238.69639936</ele>
        <time>2018-09-21T10:11:54.002Z</time>
      </trkpt>
      <trkpt lat="46.26906" lon="10.43786">
        <ele>2240.69659904</ele>
        <time>2018-09-21T10:12:04.003Z</time>
      </trkpt>
      <trkpt lat="46.26912" lon="10.43797">
        <ele>2241</ele>
        <time>2018-09-21T10:12:14.004Z</time>
      </trkpt>
      <trkpt lat="46.26917" lon="10.43809">
        <ele>2242.6934803429</ele>
        <time>2018-09-21T10:12:24.002Z</time>
      </trkpt>
      <trkpt lat="46.26919" lon="10.43822">
        <ele>2244.4960952965</ele>
        <time>2018-09-21T10:12:33.003Z</time>
      </trkpt>
      <trkpt lat="46.2692" lon="10.43836">
        <ele>2245.64850048</ele>
        <time>2018-09-21T10:12:42.005Z</time>
      </trkpt>
      <trkpt lat="46.26922" lon="10.4385">
        <ele>2247.09839872</ele>
        <time>2018-09-21T10:12:51.012Z</time>
      </trkpt>
      <trkpt lat="46.26925" lon="10.43863">
        <ele>2248.3468124303</ele>
        <time>2018-09-21T10:12:59.002Z</time>
      </trkpt>
      <trkpt lat="46.26929" lon="10.43877">
        <ele>2248.9542085478</ele>
        <time>2018-09-21T10:13:06.017Z</time>
      </trkpt>
      <trkpt lat="46.26936" lon="10.43886">
        <ele>2248.2543084597</ele>
        <time>2018-09-21T10:13:13.002Z</time>
      </trkpt>
      <trkpt lat="46.26945" lon="10.43894">
        <ele>2248.5487977242</ele>
        <time>2018-09-21T10:13:21.017Z</time>
      </trkpt>
      <trkpt lat="46.26952" lon="10.43902">
        <ele>2249.3478519394</ele>
        <time>2018-09-21T10:13:29.002Z</time>
      </trkpt>
      <trkpt lat="46.26959" lon="10.43911">
        <ele>2250.0484490736</ele>
        <time>2018-09-21T10:13:36.014Z</time>
      </trkpt>
      <trkpt lat="46.26963" lon="10.43923">
        <ele>2250.7481488695</ele>
        <time>2018-09-21T10:13:43.004Z</time>
      </trkpt>
      <trkpt lat="46.26968" lon="10.43935">
        <ele>2252.097703288</ele>
        <time>2018-09-21T10:13:51.014Z</time>
      </trkpt>
      <trkpt lat="46.26971" lon="10.43948">
        <ele>2253</ele>
        <time>2018-09-21T10:13:58.004Z</time>
      </trkpt>
      <trkpt lat="46.26974" lon="10.43961">
        <ele>2253</ele>
        <time>2018-09-21T10:14:05.002Z</time>
      </trkpt>
      <trkpt lat="46.26975" lon="10.43974">
        <ele>2253</ele>
        <time>2018-09-21T10:14:13.005Z</time>
      </trkpt>
      <trkpt lat="46.26978" lon="10.43987">
        <ele>2253</ele>
        <time>2018-09-21T10:14:19.005Z</time>
      </trkpt>
      <trkpt lat="46.26979" lon="10.44001">
        <ele>2253.1331145155</ele>
        <time>2018-09-21T10:14:27.001Z</time>
      </trkpt>
      <trkpt lat="46.26981" lon="10.44015">
        <ele>2254.4403049693</ele>
        <time>2018-09-21T10:14:33.001Z</time>
      </trkpt>
      <trkpt lat="46.26982" lon="10.44029">
        <ele>2255.4215985015</ele>
        <time>2018-09-21T10:14:40.001Z</time>
      </trkpt>
      <trkpt lat="46.26983" lon="10.44042">
        <ele>2256</ele>
        <time>2018-09-21T10:14:47.001Z</time>
      </trkpt>
      <trkpt lat="46.26983" lon="10.44056">
        <ele>2256</ele>
        <time>2018-09-21T10:14:54.003Z</time>
      </trkpt>
      <trkpt lat="46.26984" lon="10.44072">
        <ele>2256</ele>
        <time>2018-09-21T10:15:02.003Z</time>
      </trkpt>
      <trkpt lat="46.26984" lon="10.44086">
        <ele>2256.24839936</ele>
        <time>2018-09-21T10:15:08.004Z</time>
      </trkpt>
      <trkpt lat="46.26983" lon="10.441">
        <ele>2257</ele>
        <time>2018-09-21T10:15:17.003Z</time>
      </trkpt>
      <trkpt lat="46.26983" lon="10.44113">
        <ele>2257</ele>
        <time>2018-09-21T10:15:25.005Z</time>
      </trkpt>
      <trkpt lat="46.2698" lon="10.44126">
        <ele>2255.4072464055</ele>
        <time>2018-09-21T10:15:31.015Z</time>
      </trkpt>
      <trkpt lat="46.26979" lon="10.4414">
        <ele>2253.5342899609</ele>
        <time>2018-09-21T10:15:37.004Z</time>
      </trkpt>
      <trkpt lat="46.26974" lon="10.44151">
        <ele>2250.659960023</ele>
        <time>2018-09-21T10:15:44.003Z</time>
      </trkpt>
      <trkpt lat="46.26969" lon="10.44163">
        <ele>2248.9095850141</ele>
        <time>2018-09-21T10:15:51.013Z</time>
      </trkpt>
      <trkpt lat="46.26965" lon="10.44175">
        <ele>2248.24809984</ele>
        <time>2018-09-21T10:15:58.001Z</time>
      </trkpt>
      <trkpt lat="46.26962" lon="10.44187">
        <ele>2248.9039764411</ele>
        <time>2018-09-21T10:16:06.015Z</time>
      </trkpt>
      <trkpt lat="46.26967" lon="10.44199">
        <ele>2247</ele>
        <time>2018-09-21T10:16:16.014Z</time>
      </trkpt>
      <trkpt lat="46.26967" lon="10.44212">
        <ele>2247</ele>
        <time>2018-09-21T10:16:25.003Z</time>
      </trkpt>
      <trkpt lat="46.26966" lon="10.44225">
        <ele>2250.39319808</ele>
        <time>2018-09-21T10:16:34.003Z</time>
      </trkpt>
      <trkpt lat="46.26963" lon="10.44238">
        <ele>2251</ele>
        <time>2018-09-21T10:16:43.000Z</time>
      </trkpt>
      <trkpt lat="46.26961" lon="10.44252">
        <ele>2252.296</ele>
        <time>2018-09-21T10:16:52.000Z</time>
      </trkpt>
      <trkpt lat="46.26957" lon="10.44265">
        <ele>2253.6752662114</ele>
        <time>2018-09-21T10:16:59.001Z</time>
      </trkpt>
      <trkpt lat="46.26955" lon="10.44278">
        <ele>2255</ele>
        <time>2018-09-21T10:17:07.000Z</time>
      </trkpt>
      <trkpt lat="46.2695" lon="10.4429">
        <ele>2255</ele>
        <time>2018-09-21T10:17:14.003Z</time>
      </trkpt>
      <trkpt lat="46.26945" lon="10.44302">
        <ele>2256.0913279071</ele>
        <time>2018-09-21T10:17:21.013Z</time>
      </trkpt>
      <trkpt lat="46.2694" lon="10.44314">
        <ele>2257</ele>
        <time>2018-09-21T10:17:29.003Z</time>
      </trkpt>
      <trkpt lat="46.2694" lon="10.44327">
        <ele>2256.95069952</ele>
        <time>2018-09-21T10:17:36.013Z</time>
      </trkpt>
      <trkpt lat="46.2694" lon="10.44341">
        <ele>2256.35149952</ele>
        <time>2018-09-21T10:17:42.005Z</time>
      </trkpt>
      <trkpt lat="46.26943" lon="10.44355">
        <ele>2255.85190016</ele>
        <time>2018-09-21T10:17:47.001Z</time>
      </trkpt>
      <trkpt lat="46.26945" lon="10.4437">
        <ele>2255.35190016</ele>
        <time>2018-09-21T10:17:52.001Z</time>
      </trkpt>
      <trkpt lat="46.26946" lon="10.44385">
        <ele>2255</ele>
        <time>2018-09-21T10:17:58.005Z</time>
      </trkpt>
      <trkpt lat="46.26949" lon="10.44397">
        <ele>2255</ele>
        <time>2018-09-21T10:18:04.001Z</time>
      </trkpt>
      <trkpt lat="46.26946" lon="10.44409">
        <ele>2255</ele>
        <time>2018-09-21T10:18:11.015Z</time>
      </trkpt>
      <trkpt lat="46.26938" lon="10.44417">
        <ele>2255.3467938457</ele>
        <time>2018-09-21T10:18:19.001Z</time>
      </trkpt>
      <trkpt lat="46.26933" lon="10.4443">
        <ele>2255.95049984</ele>
        <time>2018-09-21T10:18:26.015Z</time>
      </trkpt>
      <trkpt lat="46.2693" lon="10.44444">
        <ele>2255.352</ele>
        <time>2018-09-21T10:18:32.000Z</time>
      </trkpt>
      <trkpt lat="46.26923" lon="10.44452">
        <ele>2254.2565877886</ele>
        <time>2018-09-21T10:18:38.003Z</time>
      </trkpt>
      <trkpt lat="46.26917" lon="10.44464">
        <ele>2251.1138224521</ele>
        <time>2018-09-21T10:18:47.014Z</time>
      </trkpt>
      <trkpt lat="46.2691" lon="10.44472">
        <ele>2246.3042062979</ele>
        <time>2018-09-21T10:18:55.014Z</time>
      </trkpt>
      <trkpt lat="46.26902" lon="10.44477">
        <ele>2244.0749002371</ele>
        <time>2018-09-21T10:19:02.014Z</time>
      </trkpt>
      <trkpt lat="46.26894" lon="10.44486">
        <ele>2241.9921090085</ele>
        <time>2018-09-21T10:19:09.003Z</time>
      </trkpt>
      <trkpt lat="46.26886" lon="10.44493">
        <ele>2240.1939066354</ele>
        <time>2018-09-21T10:19:15.003Z</time>
      </trkpt>
      <trkpt lat="46.26879" lon="10.44503">
        <ele>2237.0350812903</ele>
        <time>2018-09-21T10:19:23.003Z</time>
      </trkpt>
      <trkpt lat="46.26869" lon="10.44501">
        <ele>2234.2242215898</ele>
        <time>2018-09-21T10:19:30.005Z</time>
      </trkpt>
      <trkpt lat="46.26864" lon="10.44489">
        <ele>2230.9851360643</ele>
        <time>2018-09-21T10:19:37.004Z</time>
      </trkpt>
      <trkpt lat="46.26861" lon="10.44476">
        <ele>2226.7612427309</ele>
        <time>2018-09-21T10:19:43.014Z</time>
      </trkpt>
      <trkpt lat="46.26859" lon="10.44461">
        <ele>2224.30340096</ele>
        <time>2018-09-21T10:19:49.003Z</time>
      </trkpt>
      <trkpt lat="46.26856" lon="10.44447">
        <ele>2223.10319872</ele>
        <time>2018-09-21T10:19:55.004Z</time>
      </trkpt>
      <trkpt lat="46.26848" lon="10.44439">
        <ele>2221.208</ele>
        <time>2018-09-21T10:20:00.000Z</time>
      </trkpt>
      <trkpt lat="46.2684" lon="10.44429">
        <ele>2219.208</ele>
        <time>2018-09-21T10:20:05.000Z</time>
      </trkpt>
      <trkpt lat="46.26829" lon="10.44429">
        <ele>2217.356</ele>
        <time>2018-09-21T10:20:11.000Z</time>
      </trkpt>
      <trkpt lat="46.26822" lon="10.44435">
        <ele>2215.55449856</ele>
        <time>2018-09-21T10:20:17.005Z</time>
      </trkpt>
      <trkpt lat="46.26814" lon="10.44446">
        <ele>2213.45510144</ele>
        <time>2018-09-21T10:20:24.003Z</time>
      </trkpt>
      <trkpt lat="46.26809" lon="10.44457">
        <ele>2208.61360384</ele>
        <time>2018-09-21T10:20:31.003Z</time>
      </trkpt>
      <trkpt lat="46.26801" lon="10.44467">
        <ele>2204.7059394572</ele>
        <time>2018-09-21T10:20:37.005Z</time>
      </trkpt>
      <trkpt lat="46.26794" lon="10.44474">
        <ele>2203.5158403269</ele>
        <time>2018-09-21T10:20:43.015Z</time>
      </trkpt>
      <trkpt lat="46.26785" lon="10.44478">
        <ele>2201.7327193647</ele>
        <time>2018-09-21T10:20:47.014Z</time>
      </trkpt>
      <trkpt lat="46.26775" lon="10.44482">
        <ele>2196.2909076099</ele>
        <time>2018-09-21T10:20:53.000Z</time>
      </trkpt>
      <trkpt lat="46.26766" lon="10.44485">
        <ele>2192.65179904</ele>
        <time>2018-09-21T10:21:00.014Z</time>
      </trkpt>
      <trkpt lat="46.26756" lon="10.44491">
        <ele>2190.00680192</ele>
        <time>2018-09-21T10:21:08.003Z</time>
      </trkpt>
      <trkpt lat="46.26747" lon="10.44486">
        <ele>2187.60239872</ele>
        <time>2018-09-21T10:21:14.014Z</time>
      </trkpt>
      <trkpt lat="46.26745" lon="10.44473">
        <ele>2183.86190336</ele>
        <time>2018-09-21T10:21:20.003Z</time>
      </trkpt>
      <trkpt lat="46.26735" lon="10.4447">
        <ele>2178.50119936</ele>
        <time>2018-09-21T10:21:33.014Z</time>
      </trkpt>
      <trkpt lat="46.26725" lon="10.44477">
        <ele>2173.05539712</ele>
        <time>2018-09-21T10:21:41.014Z</time>
      </trkpt>
      <trkpt lat="46.26717" lon="10.44482">
        <ele>2168.7125028571</ele>
        <time>2018-09-21T10:21:46.003Z</time>
      </trkpt>
      <trkpt lat="46.26719" lon="10.44469">
        <ele>2163.9505980952</ele>
        <time>2018-09-21T10:21:54.003Z</time>
      </trkpt>
      <trkpt lat="46.26722" lon="10.44455">
        <ele>2161.2205625807</ele>
        <time>2018-09-21T10:22:00.013Z</time>
      </trkpt>
      <trkpt lat="46.26727" lon="10.44443">
        <ele>2159.2032258065</ele>
        <time>2018-09-21T10:22:05.016Z</time>
      </trkpt>
      <trkpt lat="46.26732" lon="10.44431">
        <ele>2159</ele>
        <time>2018-09-21T10:22:10.013Z</time>
      </trkpt>
      <trkpt lat="46.26733" lon="10.44417">
        <ele>2158.90340096</ele>
        <time>2018-09-21T10:22:16.003Z</time>
      </trkpt>
      <trkpt lat="46.26733" lon="10.44403">
        <ele>2157.30340096</ele>
        <time>2018-09-21T10:22:24.003Z</time>
      </trkpt>
      <trkpt lat="46.2673" lon="10.4439">
        <ele>2153.9501420911</ele>
        <time>2018-09-21T10:22:30.012Z</time>
      </trkpt>
      <trkpt lat="46.26726" lon="10.44377">
        <ele>2149.8861854919</ele>
        <time>2018-09-21T10:22:36.014Z</time>
      </trkpt>
      <trkpt lat="46.26725" lon="10.44364">
        <ele>2147.4181485645</ele>
        <time>2018-09-21T10:22:40.004Z</time>
      </trkpt>
      <trkpt lat="46.26723" lon="10.44351">
        <ele>2144.3259805862</ele>
        <time>2018-09-21T10:22:45.003Z</time>
      </trkpt>
      <trkpt lat="46.26719" lon="10.44338">
        <ele>2141.398765019</ele>
        <time>2018-09-21T10:22:51.003Z</time>
      </trkpt>
      <trkpt lat="46.2672" lon="10.44325">
        <ele>2138.6898602949</ele>
        <time>2018-09-21T10:22:57.029Z</time>
      </trkpt>
      <trkpt lat="46.26721" lon="10.44312">
        <ele>2136.7976776185</ele>
        <time>2018-09-21T10:23:03.002Z</time>
      </trkpt>
      <trkpt lat="46.26721" lon="10.44299">
        <ele>2134.51020288</ele>
        <time>2018-09-21T10:23:08.003Z</time>
      </trkpt>
      <trkpt lat="46.26722" lon="10.44284">
        <ele>2130.90359808</ele>
        <time>2018-09-21T10:23:14.014Z</time>
      </trkpt>
      <trkpt lat="46.26726" lon="10.44272">
        <ele>2128.65480192</ele>
        <time>2018-09-21T10:23:20.004Z</time>
      </trkpt>
      <trkpt lat="46.26726" lon="10.44258">
        <ele>2126.7510016</ele>
        <time>2018-09-21T10:23:26.018Z</time>
      </trkpt>
      <trkpt lat="46.26728" lon="10.44243">
        <ele>2124.2529984</ele>
        <time>2018-09-21T10:23:31.014Z</time>
      </trkpt>
      <trkpt lat="46.2673" lon="10.4423">
        <ele>2121.80239872</ele>
        <time>2018-09-21T10:23:36.014Z</time>
      </trkpt>
      <trkpt lat="46.26728" lon="10.44216">
        <ele>2119.80239872</ele>
        <time>2018-09-21T10:23:41.014Z</time>
      </trkpt>
      <trkpt lat="46.26724" lon="10.44203">
        <ele>2117.8112691312</ele>
        <time>2018-09-21T10:23:46.014Z</time>
      </trkpt>
      <trkpt lat="46.26723" lon="10.44189">
        <ele>2115.9021992276</ele>
        <time>2018-09-21T10:23:51.011Z</time>
      </trkpt>
      <trkpt lat="46.26721" lon="10.44175">
        <ele>2113.6817432719</ele>
        <time>2018-09-21T10:23:57.001Z</time>
      </trkpt>
      <trkpt lat="46.26717" lon="10.44161">
        <ele>2112.1071372448</ele>
        <time>2018-09-21T10:24:02.003Z</time>
      </trkpt>
      <trkpt lat="46.26714" lon="10.44149">
        <ele>2110.504</ele>
        <time>2018-09-21T10:24:08.000Z</time>
      </trkpt>
      <trkpt lat="46.26708" lon="10.44139">
        <ele>2109.50319872</ele>
        <time>2018-09-21T10:24:13.004Z</time>
      </trkpt>
      <trkpt lat="46.26701" lon="10.44128">
        <ele>2108.0185789723</ele>
        <time>2018-09-21T10:24:18.003Z</time>
      </trkpt>
      <trkpt lat="46.26693" lon="10.44121">
        <ele>2106.0426890119</ele>
        <time>2018-09-21T10:24:23.002Z</time>
      </trkpt>
      <trkpt lat="46.26683" lon="10.44116">
        <ele>2104.2834008097</ele>
        <time>2018-09-21T10:24:28.000Z</time>
      </trkpt>
      <trkpt lat="46.26674" lon="10.44107">
        <ele>2102.4606289879</ele>
        <time>2018-09-21T10:24:34.003Z</time>
      </trkpt>
      <trkpt lat="46.26667" lon="10.44097">
        <ele>2101.3064664856</ele>
        <time>2018-09-21T10:24:39.005Z</time>
      </trkpt>
      <trkpt lat="46.26661" lon="10.44087">
        <ele>2100.3114412932</ele>
        <time>2018-09-21T10:24:44.005Z</time>
      </trkpt>
      <trkpt lat="46.26651" lon="10.44083">
        <ele>2100</ele>
        <time>2018-09-21T10:24:52.014Z</time>
      </trkpt>
      <trkpt lat="46.26641" lon="10.44076">
        <ele>2098.0087786084</ele>
        <time>2018-09-21T10:24:58.014Z</time>
      </trkpt>
      <trkpt lat="46.26632" lon="10.44069">
        <ele>2093.2295365937</ele>
        <time>2018-09-21T10:25:04.000Z</time>
      </trkpt>
      <trkpt lat="46.26626" lon="10.44057">
        <ele>2089.7585136619</ele>
        <time>2018-09-21T10:25:10.014Z</time>
      </trkpt>
      <trkpt lat="46.26623" lon="10.44044">
        <ele>2086.85059968</ele>
        <time>2018-09-21T10:25:17.014Z</time>
      </trkpt>
      <trkpt lat="46.26619" lon="10.44033">
        <ele>2086</ele>
        <time>2018-09-21T10:25:55.004Z</time>
      </trkpt>
      <trkpt lat="46.26625" lon="10.44044">
        <ele>2086.50340096</ele>
        <time>2018-09-21T10:26:43.003Z</time>
      </trkpt>
      <trkpt lat="46.26629" lon="10.44056">
        <ele>2087.11899904</ele>
        <time>2018-09-21T10:26:51.115Z</time>
      </trkpt>
      <trkpt lat="46.26635" lon="10.44067">
        <ele>2089.09880064</ele>
        <time>2018-09-21T10:27:01.014Z</time>
      </trkpt>
      <trkpt lat="46.26641" lon="10.44077">
        <ele>2090.54829952</ele>
        <time>2018-09-21T10:27:11.003Z</time>
      </trkpt>
      <trkpt lat="46.26648" lon="10.44087">
        <ele>2091.69639936</ele>
        <time>2018-09-21T10:27:19.002Z</time>
      </trkpt>
      <trkpt lat="46.26653" lon="10.44097">
        <ele>2093.34940032</ele>
        <time>2018-09-21T10:27:29.014Z</time>
      </trkpt>
      <trkpt lat="46.26662" lon="10.44103">
        <ele>2093.94940032</ele>
        <time>2018-09-21T10:27:35.014Z</time>
      </trkpt>
      <trkpt lat="46.26669" lon="10.44111">
        <ele>2094.54829952</ele>
        <time>2018-09-21T10:27:41.003Z</time>
      </trkpt>
      <trkpt lat="46.26676" lon="10.44121">
        <ele>2095.548</ele>
        <time>2018-09-21T10:27:51.000Z</time>
      </trkpt>
      <trkpt lat="46.26682" lon="10.44131">
        <ele>2096</ele>
        <time>2018-09-21T10:28:01.014Z</time>
      </trkpt>
      <trkpt lat="46.26686" lon="10.44146">
        <ele>2096.69880064</ele>
        <time>2018-09-21T10:28:09.014Z</time>
      </trkpt>
      <trkpt lat="46.26691" lon="10.44158">
        <ele>2098</ele>
        <time>2018-09-21T10:28:18.014Z</time>
      </trkpt>
      <trkpt lat="46.26694" lon="10.44174">
        <ele>2098.0463536612</ele>
        <time>2018-09-21T10:28:26.014Z</time>
      </trkpt>
      <trkpt lat="46.26697" lon="10.44192">
        <ele>2098.8455547159</ele>
        <time>2018-09-21T10:28:34.014Z</time>
      </trkpt>
      <trkpt lat="46.26702" lon="10.44204">
        <ele>2099.2467868273</ele>
        <time>2018-09-21T10:28:38.018Z</time>
      </trkpt>
      <trkpt lat="46.26696" lon="10.44213">
        <ele>2099.9518893348</ele>
        <time>2018-09-21T10:28:46.004Z</time>
      </trkpt>
      <trkpt lat="46.2669" lon="10.44227">
        <ele>2099.1569589459</ele>
        <time>2018-09-21T10:28:54.001Z</time>
      </trkpt>
      <trkpt lat="46.26689" lon="10.4424">
        <ele>2099.647283797</ele>
        <time>2018-09-21T10:29:02.014Z</time>
      </trkpt>
      <trkpt lat="46.26686" lon="10.44253">
        <ele>2100.69880064</ele>
        <time>2018-09-21T10:29:09.014Z</time>
      </trkpt>
      <trkpt lat="46.26687" lon="10.44267">
        <ele>2102</ele>
        <time>2018-09-21T10:29:18.014Z</time>
      </trkpt>
      <trkpt lat="46.26684" lon="10.44281">
        <ele>2102</ele>
        <time>2018-09-21T10:29:24.014Z</time>
      </trkpt>
      <trkpt lat="46.26678" lon="10.44291">
        <ele>2102</ele>
        <time>2018-09-21T10:29:31.014Z</time>
      </trkpt>
      <trkpt lat="46.26675" lon="10.44306">
        <ele>2102</ele>
        <time>2018-09-21T10:29:37.014Z</time>
      </trkpt>
      <trkpt lat="46.2667" lon="10.44318">
        <ele>2102</ele>
        <time>2018-09-21T10:29:43.014Z</time>
      </trkpt>
      <trkpt lat="46.26666" lon="10.4433">
        <ele>2102</ele>
        <time>2018-09-21T10:29:51.014Z</time>
      </trkpt>
      <trkpt lat="46.26659" lon="10.4434">
        <ele>2101.8557346355</ele>
        <time>2018-09-21T10:29:57.014Z</time>
      </trkpt>
      <trkpt lat="46.26656" lon="10.44353">
        <ele>2101.0509051434</ele>
        <time>2018-09-21T10:30:05.014Z</time>
      </trkpt>
      <trkpt lat="46.26651" lon="10.44365">
        <ele>2101.74940032</ele>
        <time>2018-09-21T10:30:13.014Z</time>
      </trkpt>
      <trkpt lat="46.26643" lon="10.44372">
        <ele>2102</ele>
        <time>2018-09-21T10:30:19.014Z</time>
      </trkpt>
      <trkpt lat="46.26636" lon="10.44382">
        <ele>2102</ele>
        <time>2018-09-21T10:30:25.014Z</time>
      </trkpt>
      <trkpt lat="46.26629" lon="10.44393">
        <ele>2100.0927072038</ele>
        <time>2018-09-21T10:30:32.014Z</time>
      </trkpt>
      <trkpt lat="46.26624" lon="10.44405">
        <ele>2098.5225155521</ele>
        <time>2018-09-21T10:30:38.014Z</time>
      </trkpt>
      <trkpt lat="46.26617" lon="10.44418">
        <ele>2097.1022313037</ele>
        <time>2018-09-21T10:30:45.016Z</time>
      </trkpt>
      <trkpt lat="46.26612" lon="10.44429">
        <ele>2096.10139904</ele>
        <time>2018-09-21T10:30:50.013Z</time>
      </trkpt>
      <trkpt lat="46.26609" lon="10.44441">
        <ele>2094.56552875</ele>
        <time>2018-09-21T10:30:57.003Z</time>
      </trkpt>
      <trkpt lat="46.26602" lon="10.44452">
        <ele>2092.51504</ele>
        <time>2018-09-21T10:31:04.002Z</time>
      </trkpt>
      <trkpt lat="46.26598" lon="10.44465">
        <ele>2092.5388719462</ele>
        <time>2018-09-21T10:31:11.014Z</time>
      </trkpt>
      <trkpt lat="46.26593" lon="10.44479">
        <ele>2093</ele>
        <time>2018-09-21T10:31:19.014Z</time>
      </trkpt>
      <trkpt lat="46.26588" lon="10.44491">
        <ele>2093</ele>
        <time>2018-09-21T10:31:25.014Z</time>
      </trkpt>
      <trkpt lat="46.26583" lon="10.44502">
        <ele>2093</ele>
        <time>2018-09-21T10:31:32.015Z</time>
      </trkpt>
      <trkpt lat="46.26579" lon="10.44515">
        <ele>2093</ele>
        <time>2018-09-21T10:31:38.011Z</time>
      </trkpt>
      <trkpt lat="46.26576" lon="10.44528">
        <ele>2093</ele>
        <time>2018-09-21T10:31:44.014Z</time>
      </trkpt>
      <trkpt lat="46.26574" lon="10.44543">
        <ele>2093</ele>
        <time>2018-09-21T10:31:51.014Z</time>
      </trkpt>
      <trkpt lat="46.26568" lon="10.44557">
        <ele>2092.3435493403</ele>
        <time>2018-09-21T10:31:59.014Z</time>
      </trkpt>
      <trkpt lat="46.26569" lon="10.4457">
        <ele>2091.1819588115</ele>
        <time>2018-09-21T10:32:05.002Z</time>
      </trkpt>
      <trkpt lat="46.26568" lon="10.44586">
        <ele>2090.4723489581</ele>
        <time>2018-09-21T10:32:11.016Z</time>
      </trkpt>
      <trkpt lat="46.26564" lon="10.446">
        <ele>2089.5072282731</ele>
        <time>2018-09-21T10:32:18.014Z</time>
      </trkpt>
      <trkpt lat="46.26563" lon="10.44616">
        <ele>2088.1016057831</ele>
        <time>2018-09-21T10:32:25.014Z</time>
      </trkpt>
      <trkpt lat="46.26564" lon="10.44629">
        <ele>2088</ele>
        <time>2018-09-21T10:32:30.014Z</time>
      </trkpt>
      <trkpt lat="46.26558" lon="10.44641">
        <ele>2087.90119936</ele>
        <time>2018-09-21T10:32:36.014Z</time>
      </trkpt>
      <trkpt lat="46.26549" lon="10.44651">
        <ele>2086.30119936</ele>
        <time>2018-09-21T10:32:44.014Z</time>
      </trkpt>
      <trkpt lat="46.26542" lon="10.44661">
        <ele>2085.55190016</ele>
        <time>2018-09-21T10:32:50.001Z</time>
      </trkpt>
      <trkpt lat="46.26536" lon="10.44673">
        <ele>2085</ele>
        <time>2018-09-21T10:33:00.014Z</time>
      </trkpt>
      <trkpt lat="46.26534" lon="10.44688">
        <ele>2085</ele>
        <time>2018-09-21T10:33:07.003Z</time>
      </trkpt>
      <trkpt lat="46.26535" lon="10.44701">
        <ele>2085</ele>
        <time>2018-09-21T10:33:13.014Z</time>
      </trkpt>
      <trkpt lat="46.26535" lon="10.44714">
        <ele>2085</ele>
        <time>2018-09-21T10:33:21.004Z</time>
      </trkpt>
      <trkpt lat="46.26536" lon="10.44729">
        <ele>2085</ele>
        <time>2018-09-21T10:33:27.014Z</time>
      </trkpt>
      <trkpt lat="46.26534" lon="10.44741">
        <ele>2085</ele>
        <time>2018-09-21T10:33:32.014Z</time>
      </trkpt>
      <trkpt lat="46.26536" lon="10.44754">
        <ele>2084.5102194724</ele>
        <time>2018-09-21T10:33:38.014Z</time>
      </trkpt>
      <trkpt lat="46.26531" lon="10.44769">
        <ele>2082.8603810986</ele>
        <time>2018-09-21T10:33:46.014Z</time>
      </trkpt>
      <trkpt lat="46.26529" lon="10.44785">
        <ele>2080.453158661</ele>
        <time>2018-09-21T10:33:54.014Z</time>
      </trkpt>
      <trkpt lat="46.26529" lon="10.44802">
        <ele>2080</ele>
        <time>2018-09-21T10:34:01.014Z</time>
      </trkpt>
      <trkpt lat="46.26526" lon="10.44817">
        <ele>2079.6416729211</ele>
        <time>2018-09-21T10:34:07.005Z</time>
      </trkpt>
      <trkpt lat="46.26522" lon="10.44829">
        <ele>2077.1569793069</ele>
        <time>2018-09-21T10:34:15.014Z</time>
      </trkpt>
      <trkpt lat="46.2652" lon="10.44843">
        <ele>2077</ele>
        <time>2018-09-21T10:34:22.014Z</time>
      </trkpt>
      <trkpt lat="46.26514" lon="10.44855">
        <ele>2076.5263793064</ele>
        <time>2018-09-21T10:34:28.001Z</time>
      </trkpt>
      <trkpt lat="46.2651" lon="10.44868">
        <ele>2075.1191568687</ele>
        <time>2018-09-21T10:34:35.016Z</time>
      </trkpt>
      <trkpt lat="46.26502" lon="10.44877">
        <ele>2072.7625633057</ele>
        <time>2018-09-21T10:34:43.001Z</time>
      </trkpt>
      <trkpt lat="46.26498" lon="10.4489">
        <ele>2071.30380032</ele>
        <time>2018-09-21T10:34:49.001Z</time>
      </trkpt>
      <trkpt lat="46.26498" lon="10.44904">
        <ele>2069.90320128</ele>
        <time>2018-09-21T10:34:56.004Z</time>
      </trkpt>
      <trkpt lat="46.26499" lon="10.44918">
        <ele>2068.70180096</ele>
        <time>2018-09-21T10:35:02.011Z</time>
      </trkpt>
      <trkpt lat="46.26499" lon="10.44931">
        <ele>2067.7550491619</ele>
        <time>2018-09-21T10:35:08.043Z</time>
      </trkpt>
      <trkpt lat="46.265" lon="10.44944">
        <ele>2067.0782526892</ele>
        <time>2018-09-21T10:35:15.014Z</time>
      </trkpt>
      <trkpt lat="46.26503" lon="10.44957">
        <ele>2063.621030018</ele>
        <time>2018-09-21T10:35:24.014Z</time>
      </trkpt>
      <trkpt lat="46.26509" lon="10.44967">
        <ele>2061.90139904</ele>
        <time>2018-09-21T10:35:31.013Z</time>
      </trkpt>
      <trkpt lat="46.26512" lon="10.44983">
        <ele>2060.85179904</ele>
        <time>2018-09-21T10:35:36.014Z</time>
      </trkpt>
      <trkpt lat="46.26513" lon="10.44997">
        <ele>2059.35570048</ele>
        <time>2018-09-21T10:35:41.001Z</time>
      </trkpt>
      <trkpt lat="46.26517" lon="10.45012">
        <ele>2057.50119936</ele>
        <time>2018-09-21T10:35:48.014Z</time>
      </trkpt>
      <trkpt lat="46.26522" lon="10.45024">
        <ele>2056.48079872</ele>
        <time>2018-09-21T10:35:53.116Z</time>
      </trkpt>
      <trkpt lat="46.26532" lon="10.45035">
        <ele>2052.7030016</ele>
        <time>2018-09-21T10:36:02.114Z</time>
      </trkpt>
      <trkpt lat="46.26534" lon="10.4505">
        <ele>2050.308243477</ele>
        <time>2018-09-21T10:36:09.003Z</time>
      </trkpt>
      <trkpt lat="46.26526" lon="10.45061">
        <ele>2048.744409827</ele>
        <time>2018-09-21T10:36:16.013Z</time>
      </trkpt>
      <trkpt lat="46.26523" lon="10.45074">
        <ele>2045.1244758508</ele>
        <time>2018-09-21T10:36:22.004Z</time>
      </trkpt>
      <trkpt lat="46.26516" lon="10.45087">
        <ele>2041.60639744</ele>
        <time>2018-09-21T10:36:29.004Z</time>
      </trkpt>
      <trkpt lat="46.26509" lon="10.45098">
        <ele>2039.20639744</ele>
        <time>2018-09-21T10:36:35.004Z</time>
      </trkpt>
      <trkpt lat="46.26503" lon="10.45109">
        <ele>2037.4075357967</ele>
        <time>2018-09-21T10:36:41.014Z</time>
      </trkpt>
      <trkpt lat="46.26499" lon="10.45122">
        <ele>2035.6480847745</ele>
        <time>2018-09-21T10:36:47.002Z</time>
      </trkpt>
      <trkpt lat="46.26495" lon="10.45134">
        <ele>2034.0930593469</ele>
        <time>2018-09-21T10:36:52.004Z</time>
      </trkpt>
      <trkpt lat="46.26492" lon="10.45148">
        <ele>2032.55179904</ele>
        <time>2018-09-21T10:36:57.014Z</time>
      </trkpt>
      <trkpt lat="46.26487" lon="10.45161">
        <ele>2030.45209856</ele>
        <time>2018-09-21T10:37:04.013Z</time>
      </trkpt>
      <trkpt lat="46.26481" lon="10.45172">
        <ele>2029.55160064</ele>
        <time>2018-09-21T10:37:10.004Z</time>
      </trkpt>
      <trkpt lat="46.26479" lon="10.45186">
        <ele>2028.8027930078</ele>
        <time>2018-09-21T10:37:16.014Z</time>
      </trkpt>
      <trkpt lat="46.26474" lon="10.45198">
        <ele>2026.0127744593</ele>
        <time>2018-09-21T10:37:23.003Z</time>
      </trkpt>
      <trkpt lat="46.26467" lon="10.45209">
        <ele>2022.5633214824</ele>
        <time>2018-09-21T10:37:29.014Z</time>
      </trkpt>
      <trkpt lat="46.26462" lon="10.4522">
        <ele>2019.0563097034</ele>
        <time>2018-09-21T10:37:34.014Z</time>
      </trkpt>
      <trkpt lat="46.26457" lon="10.45231">
        <ele>2016.7025054434</ele>
        <time>2018-09-21T10:37:40.005Z</time>
      </trkpt>
      <trkpt lat="46.26451" lon="10.45242">
        <ele>2014.909860383</ele>
        <time>2018-09-21T10:37:46.014Z</time>
      </trkpt>
      <trkpt lat="46.26445" lon="10.45253">
        <ele>2009.8215962379</ele>
        <time>2018-09-21T10:37:53.014Z</time>
      </trkpt>
      <trkpt lat="46.2644" lon="10.45267">
        <ele>2006.90119936</ele>
        <time>2018-09-21T10:38:01.014Z</time>
      </trkpt>
      <trkpt lat="46.26435" lon="10.4528">
        <ele>2004.1856</ele>
        <time>2018-09-21T10:38:08.112Z</time>
      </trkpt>
      <trkpt lat="46.26433" lon="10.45293">
        <ele>2000.76330112</ele>
        <time>2018-09-21T10:38:13.001Z</time>
      </trkpt>
      <trkpt lat="46.26436" lon="10.45305">
        <ele>1998.6532870119</ele>
        <time>2018-09-21T10:38:19.001Z</time>
      </trkpt>
      <trkpt lat="46.26435" lon="10.45318">
        <ele>1994.9067662987</ele>
        <time>2018-09-21T10:38:30.001Z</time>
      </trkpt>
      <trkpt lat="46.26427" lon="10.45328">
        <ele>1990.2729819355</ele>
        <time>2018-09-21T10:38:38.014Z</time>
      </trkpt>
      <trkpt lat="46.26417" lon="10.45336">
        <ele>1987.257254292</ele>
        <time>2018-09-21T10:38:47.014Z</time>
      </trkpt>
      <trkpt lat="46.2641" lon="10.45345">
        <ele>1984.2607611577</ele>
        <time>2018-09-21T10:38:53.001Z</time>
      </trkpt>
      <trkpt lat="46.26403" lon="10.45354">
        <ele>1981.2529984</ele>
        <time>2018-09-21T10:38:59.014Z</time>
      </trkpt>
      <trkpt lat="46.26395" lon="10.45359">
        <ele>1978.2574976</ele>
        <time>2018-09-21T10:39:05.005Z</time>
      </trkpt>
      <trkpt lat="46.26389" lon="10.45369">
        <ele>1975.40239872</ele>
        <time>2018-09-21T10:39:12.014Z</time>
      </trkpt>
      <trkpt lat="46.26383" lon="10.45379">
        <ele>1972.2271030735</ele>
        <time>2018-09-21T10:39:20.001Z</time>
      </trkpt>
      <trkpt lat="46.26374" lon="10.45383">
        <ele>1969.0232548508</ele>
        <time>2018-09-21T10:39:28.045Z</time>
      </trkpt>
      <trkpt lat="46.26366" lon="10.45389">
        <ele>1966.209909714</ele>
        <time>2018-09-21T10:39:35.001Z</time>
      </trkpt>
      <trkpt lat="46.26358" lon="10.45396">
        <ele>1964.9075684462</ele>
        <time>2018-09-21T10:39:41.004Z</time>
      </trkpt>
      <trkpt lat="46.26348" lon="10.45396">
        <ele>1963.778615261</ele>
        <time>2018-09-21T10:39:46.001Z</time>
      </trkpt>
      <trkpt lat="46.26338" lon="10.45393">
        <ele>1961.2685751004</ele>
        <time>2018-09-21T10:39:51.001Z</time>
      </trkpt>
      <trkpt lat="46.26328" lon="10.4539">
        <ele>1958.807984548</ele>
        <time>2018-09-21T10:39:56.001Z</time>
      </trkpt>
      <trkpt lat="46.26319" lon="10.45386">
        <ele>1956.8119752891</ele>
        <time>2018-09-21T10:40:01.001Z</time>
      </trkpt>
      <trkpt lat="46.26309" lon="10.45383">
        <ele>1954.5630096708</ele>
        <time>2018-09-21T10:40:07.001Z</time>
      </trkpt>
      <trkpt lat="46.26299" lon="10.45386">
        <ele>1952.4683956232</ele>
        <time>2018-09-21T10:40:14.004Z</time>
      </trkpt>
      <trkpt lat="46.26288" lon="10.45391">
        <ele>1949.4094454965</ele>
        <time>2018-09-21T10:40:22.014Z</time>
      </trkpt>
      <trkpt lat="46.26277" lon="10.45389">
        <ele>1947.2590016</ele>
        <time>2018-09-21T10:40:27.002Z</time>
      </trkpt>
      <trkpt lat="46.26269" lon="10.45381">
        <ele>1944.7585024</ele>
        <time>2018-09-21T10:40:32.003Z</time>
      </trkpt>
      <trkpt lat="46.26261" lon="10.45375">
        <ele>1942.25149952</ele>
        <time>2018-09-21T10:40:38.015Z</time>
      </trkpt>
      <trkpt lat="46.2625" lon="10.45377">
        <ele>1940.15179904</ele>
        <time>2018-09-21T10:40:45.014Z</time>
      </trkpt>
      <trkpt lat="46.26242" lon="10.45383">
        <ele>1937.0422943874</ele>
        <time>2018-09-21T10:40:53.003Z</time>
      </trkpt>
      <trkpt lat="46.26233" lon="10.4539">
        <ele>1933.2793522267</ele>
        <time>2018-09-21T10:40:59.000Z</time>
      </trkpt>
      <trkpt lat="46.26223" lon="10.45392">
        <ele>1929.2194306073</ele>
        <time>2018-09-21T10:41:04.014Z</time>
      </trkpt>
      <trkpt lat="46.26216" lon="10.45383">
        <ele>1927.5521912351</ele>
        <time>2018-09-21T10:41:10.016Z</time>
      </trkpt>
      <trkpt lat="46.26207" lon="10.45379">
        <ele>1926.8228922088</ele>
        <time>2018-09-21T10:41:16.001Z</time>
      </trkpt>
      <trkpt lat="46.26195" lon="10.45382">
        <ele>1923.604817992</ele>
        <time>2018-09-21T10:41:24.014Z</time>
      </trkpt>
      <trkpt lat="46.26186" lon="10.45384">
        <ele>1919.8564525761</ele>
        <time>2018-09-21T10:41:32.002Z</time>
      </trkpt>
      <trkpt lat="46.26182" lon="10.45396">
        <ele>1917.3450994741</ele>
        <time>2018-09-21T10:41:39.003Z</time>
      </trkpt>
      <trkpt lat="46.2618" lon="10.45409">
        <ele>1915.55510144</ele>
        <time>2018-09-21T10:41:47.003Z</time>
      </trkpt>
      <trkpt lat="46.26171" lon="10.45408">
        <ele>1914.05570048</ele>
        <time>2018-09-21T10:41:52.001Z</time>
      </trkpt>
      <trkpt lat="46.26162" lon="10.45409">
        <ele>1911.50540288</ele>
        <time>2018-09-21T10:41:58.011Z</time>
      </trkpt>
      <trkpt lat="46.26153" lon="10.45406">
        <ele>1908.5024</ele>
        <time>2018-09-21T10:42:03.016Z</time>
      </trkpt>
      <trkpt lat="46.26144" lon="10.45403">
        <ele>1906.1312024806</ele>
        <time>2018-09-21T10:42:10.003Z</time>
      </trkpt>
      <trkpt lat="46.26136" lon="10.45393">
        <ele>1904.9488621488</ele>
        <time>2018-09-21T10:42:16.005Z</time>
      </trkpt>
      <trkpt lat="46.26128" lon="10.45385">
        <ele>1903.0893580165</ele>
        <time>2018-09-21T10:42:22.005Z</time>
      </trkpt>
      <trkpt lat="46.26119" lon="10.45376">
        <ele>1898.86190336</ele>
        <time>2018-09-21T10:42:30.003Z</time>
      </trkpt>
      <trkpt lat="46.26113" lon="10.45366">
        <ele>1896.05419776</ele>
        <time>2018-09-21T10:42:34.014Z</time>
      </trkpt>
      <trkpt lat="46.2611" lon="10.45354">
        <ele>1894.5093967923</ele>
        <time>2018-09-21T10:42:38.000Z</time>
      </trkpt>
      <trkpt lat="46.26104" lon="10.45342">
        <ele>1893.3216635184</ele>
        <time>2018-09-21T10:42:44.004Z</time>
      </trkpt>
      <trkpt lat="46.26097" lon="10.45333">
        <ele>1890.3165504075</ele>
        <time>2018-09-21T10:42:51.013Z</time>
      </trkpt>
      <trkpt lat="46.26088" lon="10.45338">
        <ele>1885.3612123547</ele>
        <time>2018-09-21T10:43:00.014Z</time>
      </trkpt>
      <trkpt lat="46.26078" lon="10.4534">
        <ele>1881.5040154217</ele>
        <time>2018-09-21T10:43:08.030Z</time>
      </trkpt>
      <trkpt lat="46.2607" lon="10.45346">
        <ele>1880.1038162249</ele>
        <time>2018-09-21T10:43:15.003Z</time>
      </trkpt>
      <trkpt lat="46.26067" lon="10.45361">
        <ele>1877.2557417801</ele>
        <time>2018-09-21T10:43:21.014Z</time>
      </trkpt>
      <trkpt lat="46.26062" lon="10.45376">
        <ele>1874.4062031932</ele>
        <time>2018-09-21T10:43:27.013Z</time>
      </trkpt>
      <trkpt lat="46.26059" lon="10.45389">
        <ele>1872.0082091665</ele>
        <time>2018-09-21T10:43:33.002Z</time>
      </trkpt>
      <trkpt lat="46.26055" lon="10.45402">
        <ele>1870.25540096</ele>
        <time>2018-09-21T10:43:38.002Z</time>
      </trkpt>
      <trkpt lat="46.2605" lon="10.45415">
        <ele>1868.45540096</ele>
        <time>2018-09-21T10:43:44.002Z</time>
      </trkpt>
      <trkpt lat="46.26045" lon="10.45428">
        <ele>1868</ele>
        <time>2018-09-21T10:43:49.004Z</time>
      </trkpt>
      <trkpt lat="46.26039" lon="10.4544">
        <ele>1868</ele>
        <time>2018-09-21T10:43:55.001Z</time>
      </trkpt>
      <trkpt lat="46.26034" lon="10.45452">
        <ele>1866.90319872</ele>
        <time>2018-09-21T10:44:01.004Z</time>
      </trkpt>
      <trkpt lat="46.2603" lon="10.45466">
        <ele>1865.851488254</ele>
        <time>2018-09-21T10:44:07.017Z</time>
      </trkpt>
      <trkpt lat="46.26028" lon="10.45479">
        <ele>1865.1584330159</ele>
        <time>2018-09-21T10:44:14.003Z</time>
      </trkpt>
      <trkpt lat="46.26026" lon="10.45492">
        <ele>1863.2250012903</ele>
        <time>2018-09-21T10:44:20.002Z</time>
      </trkpt>
      <trkpt lat="46.26026" lon="10.45507">
        <ele>1860.85540096</ele>
        <time>2018-09-21T10:44:26.002Z</time>
      </trkpt>
      <trkpt lat="46.26026" lon="10.45521">
        <ele>1859.35540096</ele>
        <time>2018-09-21T10:44:31.002Z</time>
      </trkpt>
      <trkpt lat="46.2603" lon="10.45536">
        <ele>1857.5185264734</ele>
        <time>2018-09-21T10:44:38.002Z</time>
      </trkpt>
      <trkpt lat="46.26035" lon="10.45548">
        <ele>1856.5482048347</ele>
        <time>2018-09-21T10:44:43.004Z</time>
      </trkpt>
      <trkpt lat="46.26041" lon="10.45559">
        <ele>1855.344890764</ele>
        <time>2018-09-21T10:44:49.004Z</time>
      </trkpt>
      <trkpt lat="46.2605" lon="10.45569">
        <ele>1854.3131073893</ele>
        <time>2018-09-21T10:44:54.003Z</time>
      </trkpt>
      <trkpt lat="46.26057" lon="10.45578">
        <ele>1853.30340096</ele>
        <time>2018-09-21T10:44:59.003Z</time>
      </trkpt>
      <trkpt lat="46.26064" lon="10.45588">
        <ele>1852.10340096</ele>
        <time>2018-09-21T10:45:05.003Z</time>
      </trkpt>
      <trkpt lat="46.26072" lon="10.45599">
        <ele>1852</ele>
        <time>2018-09-21T10:45:09.003Z</time>
      </trkpt>
      <trkpt lat="46.26077" lon="10.45611">
        <ele>1852</ele>
        <time>2018-09-21T10:45:13.004Z</time>
      </trkpt>
      <trkpt lat="46.2608" lon="10.45624">
        <ele>1851.00680192</ele>
        <time>2018-09-21T10:45:18.003Z</time>
      </trkpt>
      <trkpt lat="46.26086" lon="10.45638">
        <ele>1849.00720128</ele>
        <time>2018-09-21T10:45:23.002Z</time>
      </trkpt>
      <trkpt lat="46.2609" lon="10.4565">
        <ele>1846.7580032</ele>
        <time>2018-09-21T10:45:28.004Z</time>
      </trkpt>
      <trkpt lat="46.26095" lon="10.45661">
        <ele>1844.2585024</ele>
        <time>2018-09-21T10:45:33.003Z</time>
      </trkpt>
      <trkpt lat="46.26103" lon="10.45671">
        <ele>1842.0101710835</ele>
        <time>2018-09-21T10:45:38.002Z</time>
      </trkpt>
      <trkpt lat="46.26108" lon="10.45684">
        <ele>1840.0157556081</ele>
        <time>2018-09-21T10:45:43.003Z</time>
      </trkpt>
      <trkpt lat="46.26113" lon="10.45695">
        <ele>1838.5485555598</ele>
        <time>2018-09-21T10:45:47.112Z</time>
      </trkpt>
      <trkpt lat="46.26122" lon="10.45704">
        <ele>1837.42109683</ele>
        <time>2018-09-21T10:45:51.013Z</time>
      </trkpt>
      <trkpt lat="46.2613" lon="10.45714">
        <ele>1835.4348247976</ele>
        <time>2018-09-21T10:45:57.014Z</time>
      </trkpt>
      <trkpt lat="46.26135" lon="10.45725">
        <ele>1832.8342033504</ele>
        <time>2018-09-21T10:46:02.002Z</time>
      </trkpt>
      <trkpt lat="46.26142" lon="10.45736">
        <ele>1830.25480192</ele>
        <time>2018-09-21T10:46:08.004Z</time>
      </trkpt>
      <trkpt lat="46.26151" lon="10.45745">
        <ele>1828.75540096</ele>
        <time>2018-09-21T10:46:13.002Z</time>
      </trkpt>
      <trkpt lat="46.26157" lon="10.45757">
        <ele>1826.7030016</ele>
        <time>2018-09-21T10:46:18.114Z</time>
      </trkpt>
      <trkpt lat="46.26156" lon="10.4577">
        <ele>1823.2585024</ele>
        <time>2018-09-21T10:46:25.003Z</time>
      </trkpt>
      <trkpt lat="46.2615" lon="10.45783">
        <ele>1820.4521574902</ele>
        <time>2018-09-21T10:46:32.017Z</time>
      </trkpt>
      <trkpt lat="46.26154" lon="10.45795">
        <ele>1818.4743882927</ele>
        <time>2018-09-21T10:46:37.013Z</time>
      </trkpt>
      <trkpt lat="46.2616" lon="10.45807">
        <ele>1815.6333346342</ele>
        <time>2018-09-21T10:46:44.002Z</time>
      </trkpt>
      <trkpt lat="46.2617" lon="10.45815">
        <ele>1812.7695807229</ele>
        <time>2018-09-21T10:46:50.003Z</time>
      </trkpt>
      <trkpt lat="46.26179" lon="10.45821">
        <ele>1810.2595405623</ele>
        <time>2018-09-21T10:46:55.003Z</time>
      </trkpt>
      <trkpt lat="46.26188" lon="10.45827">
        <ele>1806.15419776</ele>
        <time>2018-09-21T10:47:01.014Z</time>
      </trkpt>
      <trkpt lat="46.26196" lon="10.45832">
        <ele>1802.70340096</ele>
        <time>2018-09-21T10:47:07.003Z</time>
      </trkpt>
      <trkpt lat="46.26206" lon="10.45837">
        <ele>1801.70119936</ele>
        <time>2018-09-21T10:47:12.014Z</time>
      </trkpt>
      <trkpt lat="46.26215" lon="10.4584">
        <ele>1799.7671328645</ele>
        <time>2018-09-21T10:47:18.003Z</time>
      </trkpt>
      <trkpt lat="46.26224" lon="10.45845">
        <ele>1795.7870081892</ele>
        <time>2018-09-21T10:47:26.013Z</time>
      </trkpt>
      <trkpt lat="46.26233" lon="10.45846">
        <ele>1792.7653564601</ele>
        <time>2018-09-21T10:47:32.014Z</time>
      </trkpt>
      <trkpt lat="46.26243" lon="10.45846">
        <ele>1790.2529984</ele>
        <time>2018-09-21T10:47:37.014Z</time>
      </trkpt>
      <trkpt lat="46.26253" lon="10.45847">
        <ele>1787.2574976</ele>
        <time>2018-09-21T10:47:43.005Z</time>
      </trkpt>
      <trkpt lat="46.26262" lon="10.45851">
        <ele>1784.3291712445</ele>
        <time>2018-09-21T10:47:50.002Z</time>
      </trkpt>
      <trkpt lat="46.26272" lon="10.4585">
        <ele>1781.6703317643</ele>
        <time>2018-09-21T10:47:57.014Z</time>
      </trkpt>
      <trkpt lat="46.26282" lon="10.45846">
        <ele>1779.0813358943</ele>
        <time>2018-09-21T10:48:03.014Z</time>
      </trkpt>
      <trkpt lat="46.26291" lon="10.45843">
        <ele>1776.2529984</ele>
        <time>2018-09-21T10:48:09.014Z</time>
      </trkpt>
      <trkpt lat="46.26301" lon="10.45844">
        <ele>1773.7585024</ele>
        <time>2018-09-21T10:48:14.003Z</time>
      </trkpt>
      <trkpt lat="46.26311" lon="10.45838">
        <ele>1770.40239872</ele>
        <time>2018-09-21T10:48:22.014Z</time>
      </trkpt>
      <trkpt lat="46.2632" lon="10.45836">
        <ele>1767.7529984</ele>
        <time>2018-09-21T10:48:28.014Z</time>
      </trkpt>
      <trkpt lat="46.26331" lon="10.45838">
        <ele>1764.2579968</ele>
        <time>2018-09-21T10:48:35.004Z</time>
      </trkpt>
      <trkpt lat="46.2634" lon="10.4584">
        <ele>1762.0540438934</ele>
        <time>2018-09-21T10:48:42.013Z</time>
      </trkpt>
      <trkpt lat="46.26351" lon="10.4584">
        <ele>1759.2562536116</ele>
        <time>2018-09-21T10:48:49.014Z</time>
      </trkpt>
      <trkpt lat="46.26361" lon="10.45843">
        <ele>1756.2587610783</ele>
        <time>2018-09-21T10:48:55.003Z</time>
      </trkpt>
      <trkpt lat="46.2637" lon="10.45852">
        <ele>1752.70359808</ele>
        <time>2018-09-21T10:49:01.014Z</time>
      </trkpt>
      <trkpt lat="46.2638" lon="10.45849">
        <ele>1747.7634732222</ele>
        <time>2018-09-21T10:49:10.002Z</time>
      </trkpt>
      <trkpt lat="46.26389" lon="10.45849">
        <ele>1744.8608212516</ele>
        <time>2018-09-21T10:49:16.003Z</time>
      </trkpt>
      <trkpt lat="46.26399" lon="10.45852">
        <ele>1743.054506418</ele>
        <time>2018-09-21T10:49:22.012Z</time>
      </trkpt>
      <trkpt lat="46.26408" lon="10.45853">
        <ele>1740.8697810769</ele>
        <time>2018-09-21T10:49:27.415Z</time>
      </trkpt>
      <trkpt lat="46.26418" lon="10.45851">
        <ele>1736.9405627416</ele>
        <time>2018-09-21T10:49:34.003Z</time>
      </trkpt>
      <trkpt lat="46.26429" lon="10.45855">
        <ele>1733.2703555573</ele>
        <time>2018-09-21T10:49:41.012Z</time>
      </trkpt>
      <trkpt lat="46.26431" lon="10.45869">
        <ele>1729.7622634595</ele>
        <time>2018-09-21T10:49:48.003Z</time>
      </trkpt>
      <trkpt lat="46.26425" lon="10.4588">
        <ele>1726.7607605171</ele>
        <time>2018-09-21T10:49:54.000Z</time>
      </trkpt>
      <trkpt lat="46.26421" lon="10.45892">
        <ele>1722.7244591813</ele>
        <time>2018-09-21T10:50:01.012Z</time>
      </trkpt>
      <trkpt lat="46.26425" lon="10.45906">
        <ele>1719.1102629281</ele>
        <time>2018-09-21T10:50:10.002Z</time>
      </trkpt>
      <trkpt lat="46.26422" lon="10.45919">
        <ele>1718</ele>
        <time>2018-09-21T10:50:35.002Z</time>
      </trkpt>
      <trkpt lat="46.26414" lon="10.45926">
        <ele>1717.3504</ele>
        <time>2018-09-21T10:50:42.016Z</time>
      </trkpt>
      <trkpt lat="46.26405" lon="10.45929">
        <ele>1717</ele>
        <time>2018-09-21T10:50:48.001Z</time>
      </trkpt>
      <trkpt lat="46.26395" lon="10.45932">
        <ele>1717</ele>
        <time>2018-09-21T10:50:52.014Z</time>
      </trkpt>
      <trkpt lat="46.26389" lon="10.45943">
        <ele>1715.9601593626</ele>
        <time>2018-09-21T10:50:59.000Z</time>
      </trkpt>
      <trkpt lat="46.26382" lon="10.45952">
        <ele>1714.4661354582</ele>
        <time>2018-09-21T10:51:04.000Z</time>
      </trkpt>
      <trkpt lat="46.26374" lon="10.45962">
        <ele>1714.3279886622</ele>
        <time>2018-09-21T10:51:09.017Z</time>
      </trkpt>
      <trkpt lat="46.26368" lon="10.45974">
        <ele>1714.902971446</ele>
        <time>2018-09-21T10:51:17.014Z</time>
      </trkpt>
      <trkpt lat="46.26365" lon="10.45986">
        <ele>1714.4798298226</ele>
        <time>2018-09-21T10:51:21.000Z</time>
      </trkpt>
      <trkpt lat="46.26362" lon="10.46001">
        <ele>1714.0539284559</ele>
        <time>2018-09-21T10:51:25.012Z</time>
      </trkpt>
      <trkpt lat="46.26358" lon="10.46015">
        <ele>1713.35180032</ele>
        <time>2018-09-21T10:51:32.002Z</time>
      </trkpt>
      <trkpt lat="46.26352" lon="10.46028">
        <ele>1712.008</ele>
        <time>2018-09-21T10:51:38.000Z</time>
      </trkpt>
      <trkpt lat="46.26349" lon="10.4604">
        <ele>1709.60760064</ele>
        <time>2018-09-21T10:51:44.001Z</time>
      </trkpt>
      <trkpt lat="46.26346" lon="10.46054">
        <ele>1706.7557411407</ele>
        <time>2018-09-21T10:51:50.013Z</time>
      </trkpt>
      <trkpt lat="46.26348" lon="10.46067">
        <ele>1703.6692317824</ele>
        <time>2018-09-21T10:51:56.003Z</time>
      </trkpt>
      <trkpt lat="46.26349" lon="10.4608">
        <ele>1700.171321853</ele>
        <time>2018-09-21T10:52:01.005Z</time>
      </trkpt>
      <trkpt lat="46.2635" lon="10.46095">
        <ele>1696.5030896102</ele>
        <time>2018-09-21T10:52:08.032Z</time>
      </trkpt>
      <trkpt lat="46.2636" lon="10.46092">
        <ele>1694.3862854788</ele>
        <time>2018-09-21T10:52:22.014Z</time>
      </trkpt>
      <trkpt lat="46.26366" lon="10.46083">
        <ele>1693.9013763052</ele>
        <time>2018-09-21T10:52:27.002Z</time>
      </trkpt>
      <trkpt lat="46.26373" lon="10.46075">
        <ele>1693.1605296628</ele>
        <time>2018-09-21T10:52:34.003Z</time>
      </trkpt>
      <trkpt lat="46.2638" lon="10.46064">
        <ele>1693</ele>
        <time>2018-09-21T10:52:41.000Z</time>
      </trkpt>
      <trkpt lat="46.26387" lon="10.46054">
        <ele>1693</ele>
        <time>2018-09-21T10:52:47.003Z</time>
      </trkpt>
      <trkpt lat="46.26392" lon="10.46042">
        <ele>1693</ele>
        <time>2018-09-21T10:52:53.003Z</time>
      </trkpt>
      <trkpt lat="46.26397" lon="10.46029">
        <ele>1693.4487494058</ele>
        <time>2018-09-21T10:53:00.013Z</time>
      </trkpt>
      <trkpt lat="46.26404" lon="10.46022">
        <ele>1694</ele>
        <time>2018-09-21T10:53:06.005Z</time>
      </trkpt>
      <trkpt lat="46.26413" lon="10.46014">
        <ele>1694</ele>
        <time>2018-09-21T10:53:14.003Z</time>
      </trkpt>
      <trkpt lat="46.26423" lon="10.46015">
        <ele>1694.544576435</ele>
        <time>2018-09-21T10:53:21.003Z</time>
      </trkpt>
      <trkpt lat="46.26432" lon="10.46011">
        <ele>1695.6887305843</ele>
        <time>2018-09-21T10:53:29.003Z</time>
      </trkpt>
      <trkpt lat="46.2644" lon="10.46004">
        <ele>1696.8979888277</ele>
        <time>2018-09-21T10:53:35.013Z</time>
      </trkpt>
      <trkpt lat="46.26446" lon="10.45992">
        <ele>1697.74829952</ele>
        <time>2018-09-21T10:53:43.003Z</time>
      </trkpt>
      <trkpt lat="46.26451" lon="10.45981">
        <ele>1698</ele>
        <time>2018-09-21T10:53:51.003Z</time>
      </trkpt>
      <trkpt lat="46.26455" lon="10.45968">
        <ele>1698</ele>
        <time>2018-09-21T10:53:57.003Z</time>
      </trkpt>
      <trkpt lat="46.26462" lon="10.45959">
        <ele>1698</ele>
        <time>2018-09-21T10:54:02.003Z</time>
      </trkpt>
      <trkpt lat="46.2647" lon="10.45951">
        <ele>1698</ele>
        <time>2018-09-21T10:54:07.003Z</time>
      </trkpt>
      <trkpt lat="46.26478" lon="10.45943">
        <ele>1698</ele>
        <time>2018-09-21T10:54:13.003Z</time>
      </trkpt>
      <trkpt lat="46.26486" lon="10.45936">
        <ele>1698.5314310373</ele>
        <time>2018-09-21T10:54:21.003Z</time>
      </trkpt>
      <trkpt lat="46.26496" lon="10.45933">
        <ele>1698.75180032</ele>
        <time>2018-09-21T10:54:28.002Z</time>
      </trkpt>
      <trkpt lat="46.26504" lon="10.45925">
        <ele>1698.05080064</ele>
        <time>2018-09-21T10:54:35.012Z</time>
      </trkpt>
      <trkpt lat="46.26512" lon="10.45917">
        <ele>1697.55030016</ele>
        <time>2018-09-21T10:54:40.017Z</time>
      </trkpt>
      <trkpt lat="46.26519" lon="10.45909">
        <ele>1697.05069952</ele>
        <time>2018-09-21T10:54:45.013Z</time>
      </trkpt>
      <trkpt lat="46.26528" lon="10.45901">
        <ele>1697</ele>
        <time>2018-09-21T10:54:51.003Z</time>
      </trkpt>
      <trkpt lat="46.26536" lon="10.45893">
        <ele>1696.65170048</ele>
        <time>2018-09-21T10:54:59.003Z</time>
      </trkpt>
      <trkpt lat="46.26544" lon="10.45886">
        <ele>1696.15190016</ele>
        <time>2018-09-21T10:55:04.001Z</time>
      </trkpt>
      <trkpt lat="46.26552" lon="10.45881">
        <ele>1696</ele>
        <time>2018-09-21T10:55:09.003Z</time>
      </trkpt>
      <trkpt lat="46.26561" lon="10.45875">
        <ele>1696</ele>
        <time>2018-09-21T10:55:15.017Z</time>
      </trkpt>
      <trkpt lat="46.2657" lon="10.45875">
        <ele>1696</ele>
        <time>2018-09-21T10:55:21.003Z</time>
      </trkpt>
      <trkpt lat="46.26574" lon="10.45887">
        <ele>1696</ele>
        <time>2018-09-21T10:55:26.002Z</time>
      </trkpt>
      <trkpt lat="46.26578" lon="10.459">
        <ele>1696</ele>
        <time>2018-09-21T10:55:33.001Z</time>
      </trkpt>
      <trkpt lat="46.26586" lon="10.45912">
        <ele>1696.69659904</ele>
        <time>2018-09-21T10:55:39.003Z</time>
      </trkpt>
      <trkpt lat="46.2659" lon="10.45923">
        <ele>1697.89900032</ele>
        <time>2018-09-21T10:55:45.015Z</time>
      </trkpt>
      <trkpt lat="46.26596" lon="10.45934">
        <ele>1698</ele>
        <time>2018-09-21T10:55:52.002Z</time>
      </trkpt>
      <trkpt lat="46.26605" lon="10.45939">
        <ele>1697.65149952</ele>
        <time>2018-09-21T10:55:59.005Z</time>
      </trkpt>
      <trkpt lat="46.26614" lon="10.45941">
        <ele>1697.09700096</ele>
        <time>2018-09-21T10:56:06.005Z</time>
      </trkpt>
      <trkpt lat="46.26624" lon="10.45942">
        <ele>1698.89779968</ele>
        <time>2018-09-21T10:56:15.009Z</time>
      </trkpt>
      <trkpt lat="46.26633" lon="10.45942">
        <ele>1699.8468074071</ele>
        <time>2018-09-21T10:56:24.005Z</time>
      </trkpt>
      <trkpt lat="46.26642" lon="10.45945">
        <ele>1701.6909077889</ele>
        <time>2018-09-21T10:56:34.003Z</time>
      </trkpt>
      <trkpt lat="46.26652" lon="10.45941">
        <ele>1702.8480445651</ele>
        <time>2018-09-21T10:56:44.005Z</time>
      </trkpt>
      <trkpt lat="46.2666" lon="10.45938">
        <ele>1704.69679872</ele>
        <time>2018-09-21T10:56:54.004Z</time>
      </trkpt>
      <trkpt lat="46.2667" lon="10.4594">
        <ele>1705.0464929562</ele>
        <time>2018-09-21T10:57:06.004Z</time>
      </trkpt>
      <trkpt lat="46.26678" lon="10.45931">
        <ele>1705.8477955285</ele>
        <time>2018-09-21T10:57:14.001Z</time>
      </trkpt>
      <trkpt lat="46.26685" lon="10.45919">
        <ele>1706</ele>
        <time>2018-09-21T10:57:20.016Z</time>
      </trkpt>
      <trkpt lat="46.26689" lon="10.45906">
        <ele>1706</ele>
        <time>2018-09-21T10:57:28.033Z</time>
      </trkpt>
      <trkpt lat="46.26693" lon="10.45894">
        <ele>1706</ele>
        <time>2018-09-21T10:57:34.001Z</time>
      </trkpt>
      <trkpt lat="46.26697" lon="10.45881">
        <ele>1706</ele>
        <time>2018-09-21T10:57:41.003Z</time>
      </trkpt>
      <trkpt lat="46.26701" lon="10.45869">
        <ele>1706.6950097852</ele>
        <time>2018-09-21T10:57:49.002Z</time>
      </trkpt>
      <trkpt lat="46.26706" lon="10.45858">
        <ele>1707.8954103923</ele>
        <time>2018-09-21T10:57:55.016Z</time>
      </trkpt>
      <trkpt lat="46.2671" lon="10.45846">
        <ele>1707.4528054812</ele>
        <time>2018-09-21T10:58:01.001Z</time>
      </trkpt>
      <trkpt lat="46.26714" lon="10.45832">
        <ele>1707</ele>
        <time>2018-09-21T10:58:09.002Z</time>
      </trkpt>
      <trkpt lat="46.26718" lon="10.45819">
        <ele>1707</ele>
        <time>2018-09-21T10:58:16.004Z</time>
      </trkpt>
      <trkpt lat="46.26723" lon="10.45806">
        <ele>1707</ele>
        <time>2018-09-21T10:58:25.013Z</time>
      </trkpt>
      <trkpt lat="46.26731" lon="10.45797">
        <ele>1708.2812243478</ele>
        <time>2018-09-21T10:58:32.003Z</time>
      </trkpt>
      <trkpt lat="46.26738" lon="10.4579">
        <ele>1709.4421644302</ele>
        <time>2018-09-21T10:58:40.013Z</time>
      </trkpt>
      <trkpt lat="46.26747" lon="10.45784">
        <ele>1710</ele>
        <time>2018-09-21T10:58:48.003Z</time>
      </trkpt>
      <trkpt lat="46.26756" lon="10.45781">
        <ele>1710</ele>
        <time>2018-09-21T10:58:55.013Z</time>
      </trkpt>
      <trkpt lat="46.26766" lon="10.45779">
        <ele>1710.64839936</ele>
        <time>2018-09-21T10:59:02.004Z</time>
      </trkpt>
      <trkpt lat="46.26775" lon="10.45776">
        <ele>1711.34840064</ele>
        <time>2018-09-21T10:59:09.004Z</time>
      </trkpt>
      <trkpt lat="46.26784" lon="10.45769">
        <ele>1712.29659904</ele>
        <time>2018-09-21T10:59:17.003Z</time>
      </trkpt>
      <trkpt lat="46.26793" lon="10.45765">
        <ele>1713.29659904</ele>
        <time>2018-09-21T10:59:22.003Z</time>
      </trkpt>
      <trkpt lat="46.26799" lon="10.45755">
        <ele>1714</ele>
        <time>2018-09-21T10:59:30.013Z</time>
      </trkpt>
      <trkpt lat="46.26808" lon="10.4575">
        <ele>1714.2802409774</ele>
        <time>2018-09-21T10:59:37.004Z</time>
      </trkpt>
      <trkpt lat="46.26817" lon="10.45743">
        <ele>1716.0386870053</ele>
        <time>2018-09-21T10:59:46.003Z</time>
      </trkpt>
      <trkpt lat="46.26825" lon="10.45734">
        <ele>1716.8464647457</ele>
        <time>2018-09-21T10:59:54.000Z</time>
      </trkpt>
      <trkpt lat="46.26833" lon="10.45729">
        <ele>1717.54509952</ele>
        <time>2018-09-21T11:00:00.971Z</time>
      </trkpt>
      <trkpt lat="46.26841" lon="10.4572">
        <ele>1718</ele>
        <time>2018-09-21T11:00:09.003Z</time>
      </trkpt>
      <trkpt lat="46.26851" lon="10.45714">
        <ele>1718</ele>
        <time>2018-09-21T11:00:15.011Z</time>
      </trkpt>
      <trkpt lat="46.2686" lon="10.4571">
        <ele>1718.54829952</ele>
        <time>2018-09-21T11:00:21.003Z</time>
      </trkpt>
      <trkpt lat="46.26868" lon="10.45701">
        <ele>1719.3379607997</ele>
        <time>2018-09-21T11:00:29.001Z</time>
      </trkpt>
      <trkpt lat="46.26874" lon="10.45691">
        <ele>1720.2244351372</ele>
        <time>2018-09-21T11:00:38.006Z</time>
      </trkpt>
      <trkpt lat="46.26881" lon="10.45681">
        <ele>1720.9554223293</ele>
        <time>2018-09-21T11:00:46.004Z</time>
      </trkpt>
      <trkpt lat="46.26889" lon="10.45671">
        <ele>1720.1523097189</ele>
        <time>2018-09-21T11:00:54.003Z</time>
      </trkpt>
      <trkpt lat="46.26898" lon="10.45664">
        <ele>1721.2953041503</ele>
        <time>2018-09-21T11:01:02.003Z</time>
      </trkpt>
      <trkpt lat="46.26907" lon="10.4566">
        <ele>1722.4485482447</ele>
        <time>2018-09-21T11:01:10.011Z</time>
      </trkpt>
      <trkpt lat="46.26916" lon="10.45656">
        <ele>1723.69659904</ele>
        <time>2018-09-21T11:01:19.003Z</time>
      </trkpt>
      <trkpt lat="46.26926" lon="10.45655">
        <ele>1725.0483027853</ele>
        <time>2018-09-21T11:01:26.004Z</time>
      </trkpt>
      <trkpt lat="46.26937" lon="10.4565">
        <ele>1725.8467064889</ele>
        <time>2018-09-21T11:01:34.004Z</time>
      </trkpt>
      <trkpt lat="46.26946" lon="10.45646">
        <ele>1726.64740096</ele>
        <time>2018-09-21T11:01:42.014Z</time>
      </trkpt>
      <trkpt lat="46.26954" lon="10.45638">
        <ele>1727.8965945352</ele>
        <time>2018-09-21T11:01:50.014Z</time>
      </trkpt>
      <trkpt lat="46.26961" lon="10.45629">
        <ele>1729.49880064</ele>
        <time>2018-09-21T11:01:58.014Z</time>
      </trkpt>
      <trkpt lat="46.26969" lon="10.45622">
        <ele>1731.09880064</ele>
        <time>2018-09-21T11:02:06.014Z</time>
      </trkpt>
      <trkpt lat="46.26979" lon="10.45617">
        <ele>1732.69679872</ele>
        <time>2018-09-21T11:02:14.004Z</time>
      </trkpt>
      <trkpt lat="46.26986" lon="10.45608">
        <ele>1733.7486519077</ele>
        <time>2018-09-21T11:02:23.014Z</time>
      </trkpt>
      <trkpt lat="46.26993" lon="10.456">
        <ele>1734.4477474442</ele>
        <time>2018-09-21T11:02:30.003Z</time>
      </trkpt>
      <trkpt lat="46.26998" lon="10.45588">
        <ele>1735.50459904</ele>
        <time>2018-09-21T11:02:38.043Z</time>
      </trkpt>
      <trkpt lat="46.27005" lon="10.45579">
        <ele>1737.04829952</ele>
        <time>2018-09-21T11:02:46.003Z</time>
      </trkpt>
      <trkpt lat="46.27014" lon="10.45573">
        <ele>1737.74969984</ele>
        <time>2018-09-21T11:02:53.017Z</time>
      </trkpt>
      <trkpt lat="46.2702" lon="10.45562">
        <ele>1738.8953046618</ele>
        <time>2018-09-21T11:03:00.001Z</time>
      </trkpt>
      <trkpt lat="46.27029" lon="10.45555">
        <ele>1740</ele>
        <time>2018-09-21T11:03:07.004Z</time>
      </trkpt>
      <trkpt lat="46.27032" lon="10.45542">
        <ele>1740</ele>
        <time>2018-09-21T11:03:14.003Z</time>
      </trkpt>
      <trkpt lat="46.27038" lon="10.45532">
        <ele>1741.4971043347</ele>
        <time>2018-09-21T11:03:23.013Z</time>
      </trkpt>
      <trkpt lat="46.27048" lon="10.45526">
        <ele>1742.5479487334</ele>
        <time>2018-09-21T11:03:31.004Z</time>
      </trkpt>
      <trkpt lat="46.27057" lon="10.4552">
        <ele>1743.8689910078</ele>
        <time>2018-09-21T11:03:40.004Z</time>
      </trkpt>
      <trkpt lat="46.27065" lon="10.45515">
        <ele>1745.3604323967</ele>
        <time>2018-09-21T11:03:47.003Z</time>
      </trkpt>
      <trkpt lat="46.27074" lon="10.45513">
        <ele>1747.5295444628</ele>
        <time>2018-09-21T11:03:54.002Z</time>
      </trkpt>
      <trkpt lat="46.27083" lon="10.45507">
        <ele>1748.546659367</ele>
        <time>2018-09-21T11:04:01.003Z</time>
      </trkpt>
      <trkpt lat="46.27091" lon="10.45503">
        <ele>1749.2493491085</ele>
        <time>2018-09-21T11:04:08.041Z</time>
      </trkpt>
      <trkpt lat="46.27101" lon="10.455">
        <ele>1749.9462463547</ele>
        <time>2018-09-21T11:04:15.003Z</time>
      </trkpt>
      <trkpt lat="46.2711" lon="10.45496">
        <ele>1750.7487982372</ele>
        <time>2018-09-21T11:04:23.013Z</time>
      </trkpt>
      <trkpt lat="46.27117" lon="10.45488">
        <ele>1752.0944109186</ele>
        <time>2018-09-21T11:04:31.003Z</time>
      </trkpt>
      <trkpt lat="46.27123" lon="10.45477">
        <ele>1753.4464</ele>
        <time>2018-09-21T11:04:40.004Z</time>
      </trkpt>
      <trkpt lat="46.27132" lon="10.45474">
        <ele>1754.2922179371</ele>
        <time>2018-09-21T11:04:47.004Z</time>
      </trkpt>
      <trkpt lat="46.27139" lon="10.45466">
        <ele>1755.8886221869</ele>
        <time>2018-09-21T11:04:55.002Z</time>
      </trkpt>
      <trkpt lat="46.27147" lon="10.45457">
        <ele>1757.7008038554</ele>
        <time>2018-09-21T11:05:04.030Z</time>
      </trkpt>
      <trkpt lat="46.27156" lon="10.45453">
        <ele>1758.54840064</ele>
        <time>2018-09-21T11:05:11.004Z</time>
      </trkpt>
      <trkpt lat="46.27165" lon="10.4545">
        <ele>1759</ele>
        <time>2018-09-21T11:05:16.004Z</time>
      </trkpt>
      <trkpt lat="46.27174" lon="10.45442">
        <ele>1759</ele>
        <time>2018-09-21T11:05:23.045Z</time>
      </trkpt>
      <trkpt lat="46.27182" lon="10.45434">
        <ele>1759.884326272</ele>
        <time>2018-09-21T11:05:30.003Z</time>
      </trkpt>
      <trkpt lat="46.27191" lon="10.45426">
        <ele>1761</ele>
        <time>2018-09-21T11:05:37.001Z</time>
      </trkpt>
      <trkpt lat="46.27193" lon="10.45413">
        <ele>1761</ele>
        <time>2018-09-21T11:05:42.003Z</time>
      </trkpt>
      <trkpt lat="46.27203" lon="10.45407">
        <ele>1761.2496</ele>
        <time>2018-09-21T11:05:48.016Z</time>
      </trkpt>
      <trkpt lat="46.27213" lon="10.45404">
        <ele>1761.848</ele>
        <time>2018-09-21T11:05:54.000Z</time>
      </trkpt>
      <trkpt lat="46.27223" lon="10.45401">
        <ele>1762.45939968</ele>
        <time>2018-09-21T11:06:00.114Z</time>
      </trkpt>
      <trkpt lat="46.27229" lon="10.4539">
        <ele>1763</ele>
        <time>2018-09-21T11:06:06.004Z</time>
      </trkpt>
      <trkpt lat="46.27239" lon="10.45387">
        <ele>1763</ele>
        <time>2018-09-21T11:06:12.003Z</time>
      </trkpt>
      <trkpt lat="46.27249" lon="10.45387">
        <ele>1763</ele>
        <time>2018-09-21T11:06:18.003Z</time>
      </trkpt>
      <trkpt lat="46.27259" lon="10.45386">
        <ele>1763</ele>
        <time>2018-09-21T11:06:24.013Z</time>
      </trkpt>
      <trkpt lat="46.27268" lon="10.45386">
        <ele>1763</ele>
        <time>2018-09-21T11:06:30.000Z</time>
      </trkpt>
      <trkpt lat="46.27278" lon="10.45386">
        <ele>1763</ele>
        <time>2018-09-21T11:06:37.003Z</time>
      </trkpt>
      <trkpt lat="46.27287" lon="10.45386">
        <ele>1763</ele>
        <time>2018-09-21T11:06:44.013Z</time>
      </trkpt>
      <trkpt lat="46.27296" lon="10.45387">
        <ele>1763</ele>
        <time>2018-09-21T11:06:51.003Z</time>
      </trkpt>
      <trkpt lat="46.27306" lon="10.45392">
        <ele>1763.0433431693</ele>
        <time>2018-09-21T11:06:56.003Z</time>
      </trkpt>
      <trkpt lat="46.27316" lon="10.45394">
        <ele>1763.6440435174</ele>
        <time>2018-09-21T11:07:02.004Z</time>
      </trkpt>
      <trkpt lat="46.27326" lon="10.45397">
        <ele>1764</ele>
        <time>2018-09-21T11:07:09.016Z</time>
      </trkpt>
      <trkpt lat="46.27336" lon="10.45399">
        <ele>1764</ele>
        <time>2018-09-21T11:07:16.003Z</time>
      </trkpt>
      <trkpt lat="46.27346" lon="10.45396">
        <ele>1764</ele>
        <time>2018-09-21T11:07:23.003Z</time>
      </trkpt>
      <trkpt lat="46.27356" lon="10.45394">
        <ele>1764.34909952</ele>
        <time>2018-09-21T11:07:29.011Z</time>
      </trkpt>
      <trkpt lat="46.27365" lon="10.45392">
        <ele>1764.94809984</ele>
        <time>2018-09-21T11:07:35.001Z</time>
      </trkpt>
      <trkpt lat="46.27375" lon="10.45389">
        <ele>1765.64829952</ele>
        <time>2018-09-21T11:07:42.003Z</time>
      </trkpt>
      <trkpt lat="46.27384" lon="10.45387">
        <ele>1766.4470580428</ele>
        <time>2018-09-21T11:07:50.004Z</time>
      </trkpt>
      <trkpt lat="46.27393" lon="10.4538">
        <ele>1767.8857704711</ele>
        <time>2018-09-21T11:08:00.001Z</time>
      </trkpt>
      <trkpt lat="46.27399" lon="10.45369">
        <ele>1770</ele>
        <time>2018-09-21T11:13:41.003Z</time>
      </trkpt>
      <trkpt lat="46.27403" lon="10.45357">
        <ele>1770</ele>
        <time>2018-09-21T11:13:48.003Z</time>
      </trkpt>
      <trkpt lat="46.27409" lon="10.45346">
        <ele>1770</ele>
        <time>2018-09-21T11:13:58.000Z</time>
      </trkpt>
      <trkpt lat="46.27412" lon="10.45334">
        <ele>1770.0814503226</ele>
        <time>2018-09-21T11:14:06.004Z</time>
      </trkpt>
      <trkpt lat="46.27417" lon="10.45323">
        <ele>1771.4925393548</ele>
        <time>2018-09-21T11:14:13.003Z</time>
      </trkpt>
      <trkpt lat="46.27424" lon="10.45313">
        <ele>1772</ele>
        <time>2018-09-21T11:14:20.014Z</time>
      </trkpt>
      <trkpt lat="46.27433" lon="10.45308">
        <ele>1772.2880397868</ele>
        <time>2018-09-21T11:14:27.003Z</time>
      </trkpt>
      <trkpt lat="46.27442" lon="10.45303">
        <ele>1773.6954784497</ele>
        <time>2018-09-21T11:14:34.005Z</time>
      </trkpt>
      <trkpt lat="46.27452" lon="10.45301">
        <ele>1775.2929195476</ele>
        <time>2018-09-21T11:14:42.004Z</time>
      </trkpt>
      <trkpt lat="46.27462" lon="10.45303">
        <ele>1777.4972923562</ele>
        <time>2018-09-21T11:14:53.014Z</time>
      </trkpt>
      <trkpt lat="46.27471" lon="10.45299">
        <ele>1779.05577085</ele>
        <time>2018-09-21T11:15:06.003Z</time>
      </trkpt>
      <trkpt lat="46.27474" lon="10.45313">
        <ele>1782.8907265752</ele>
        <time>2018-09-21T11:15:25.002Z</time>
      </trkpt>
      <trkpt lat="46.27476" lon="10.45326">
        <ele>1785.74163251</ele>
        <time>2018-09-21T11:15:38.002Z</time>
      </trkpt>
      <trkpt lat="46.27478" lon="10.4534">
        <ele>1789.6208895868</ele>
        <time>2018-09-21T11:15:51.017Z</time>
      </trkpt>
      <trkpt lat="46.27479" lon="10.45354">
        <ele>1792.04940032</ele>
        <time>2018-09-21T11:16:06.014Z</time>
      </trkpt>
      <trkpt lat="46.27481" lon="10.45367">
        <ele>1793.8919399457</ele>
        <time>2018-09-21T11:16:20.002Z</time>
      </trkpt>
      <trkpt lat="46.27481" lon="10.4538">
        <ele>1797.2437616056</ele>
        <time>2018-09-21T11:16:38.003Z</time>
      </trkpt>
      <trkpt lat="46.27481" lon="10.45394">
        <ele>1801.0944944642</ele>
        <time>2018-09-21T11:16:56.002Z</time>
      </trkpt>
      <trkpt lat="46.27483" lon="10.45407">
        <ele>1802.6976971539</ele>
        <time>2018-09-21T11:17:04.010Z</time>
      </trkpt>
      <trkpt lat="46.27485" lon="10.4542">
        <ele>1803.8946107111</ele>
        <time>2018-09-21T11:17:10.002Z</time>
      </trkpt>
      <trkpt lat="46.27482" lon="10.45433">
        <ele>1806.493894056</ele>
        <time>2018-09-21T11:17:23.002Z</time>
      </trkpt>
      <trkpt lat="46.27479" lon="10.45446">
        <ele>1807</ele>
        <time>2018-09-21T11:17:34.014Z</time>
      </trkpt>
      <trkpt lat="46.27471" lon="10.45452">
        <ele>1809.14820096</ele>
        <time>2018-09-21T11:17:46.014Z</time>
      </trkpt>
      <trkpt lat="46.27469" lon="10.45465">
        <ele>1812.24839936</ele>
        <time>2018-09-21T11:17:58.004Z</time>
      </trkpt>
      <trkpt lat="46.27466" lon="10.45477">
        <ele>1815.74820096</ele>
        <time>2018-09-21T11:18:18.014Z</time>
      </trkpt>
      <trkpt lat="46.2746" lon="10.45488">
        <ele>1819.49880064</ele>
        <time>2018-09-21T11:18:33.014Z</time>
      </trkpt>
      <trkpt lat="46.27463" lon="10.45503">
        <ele>1822.0502056198</ele>
        <time>2018-09-21T11:18:46.002Z</time>
      </trkpt>
      <trkpt lat="46.27459" lon="10.45514">
        <ele>1825.7425313147</ele>
        <time>2018-09-21T11:18:58.005Z</time>
      </trkpt>
      <trkpt lat="46.27451" lon="10.45522">
        <ele>1828.2919685141</ele>
        <time>2018-09-21T11:19:07.014Z</time>
      </trkpt>
      <trkpt lat="46.27442" lon="10.45526">
        <ele>1829.8983942169</ele>
        <time>2018-09-21T11:19:15.014Z</time>
      </trkpt>
      <trkpt lat="46.2744" lon="10.45539">
        <ele>1832.7258975827</ele>
        <time>2018-09-21T11:19:33.004Z</time>
      </trkpt>
      <trkpt lat="46.27443" lon="10.45553">
        <ele>1837.8360898629</ele>
        <time>2018-09-21T11:19:55.002Z</time>
      </trkpt>
      <trkpt lat="46.27442" lon="10.45566">
        <ele>1839.14820096</ele>
        <time>2018-09-21T11:20:06.014Z</time>
      </trkpt>
      <trkpt lat="46.27438" lon="10.45579">
        <ele>1841.54550144</ele>
        <time>2018-09-21T11:20:14.005Z</time>
      </trkpt>
      <trkpt lat="46.27433" lon="10.4559">
        <ele>1842.6475523349</ele>
        <time>2018-09-21T11:20:22.002Z</time>
      </trkpt>
      <trkpt lat="46.27426" lon="10.456">
        <ele>1843</ele>
        <time>2018-09-21T11:20:30.004Z</time>
      </trkpt>
      <trkpt lat="46.27418" lon="10.45607">
        <ele>1843.1440782017</ele>
        <time>2018-09-21T11:20:37.004Z</time>
      </trkpt>
      <trkpt lat="46.27412" lon="10.45619">
        <ele>1844.0399993666</ele>
        <time>2018-09-21T11:20:46.014Z</time>
      </trkpt>
      <trkpt lat="46.27405" lon="10.45628">
        <ele>1845.689484991</ele>
        <time>2018-09-21T11:20:54.014Z</time>
      </trkpt>
      <trkpt lat="46.274" lon="10.45639">
        <ele>1846</ele>
        <time>2018-09-21T11:21:02.004Z</time>
      </trkpt>
      <trkpt lat="46.27393" lon="10.45651">
        <ele>1846.6465729032</ele>
        <time>2018-09-21T11:21:12.014Z</time>
      </trkpt>
      <trkpt lat="46.27388" lon="10.45662">
        <ele>1847.6950097852</ele>
        <time>2018-09-21T11:21:19.002Z</time>
      </trkpt>
      <trkpt lat="46.27384" lon="10.45673">
        <ele>1849.4932931353</ele>
        <time>2018-09-21T11:21:28.004Z</time>
      </trkpt>
      <trkpt lat="46.27381" lon="10.45686">
        <ele>1851.4995019379</ele>
        <time>2018-09-21T11:21:38.030Z</time>
      </trkpt>
      <trkpt lat="46.27383" lon="10.457">
        <ele>1853.3468938858</ele>
        <time>2018-09-21T11:21:49.002Z</time>
      </trkpt>
      <trkpt lat="46.27375" lon="10.4571">
        <ele>1854.2481512881</ele>
        <time>2018-09-21T11:21:58.004Z</time>
      </trkpt>
      <trkpt lat="46.27372" lon="10.45722">
        <ele>1855.49479936</ele>
        <time>2018-09-21T11:22:08.004Z</time>
      </trkpt>
      <trkpt lat="46.27367" lon="10.45734">
        <ele>1857.2486492096</ele>
        <time>2018-09-21T11:22:18.014Z</time>
      </trkpt>
      <trkpt lat="46.27361" lon="10.45745">
        <ele>1859.09639936</ele>
        <time>2018-09-21T11:22:31.002Z</time>
      </trkpt>
      <trkpt lat="46.27356" lon="10.45756">
        <ele>1860.9217473108</ele>
        <time>2018-09-21T11:22:45.014Z</time>
      </trkpt>
      <trkpt lat="46.27352" lon="10.45769">
        <ele>1862.29880064</ele>
        <time>2018-09-21T11:22:57.014Z</time>
      </trkpt>
      <trkpt lat="46.27349" lon="10.45782">
        <ele>1864.49880064</ele>
        <time>2018-09-21T11:23:08.014Z</time>
      </trkpt>
      <trkpt lat="46.27341" lon="10.45789">
        <ele>1866.24940032</ele>
        <time>2018-09-21T11:23:18.014Z</time>
      </trkpt>
      <trkpt lat="46.27334" lon="10.45799">
        <ele>1867.69880064</ele>
        <time>2018-09-21T11:23:29.014Z</time>
      </trkpt>
      <trkpt lat="46.27332" lon="10.45812">
        <ele>1870.2846688713</ele>
        <time>2018-09-21T11:23:42.014Z</time>
      </trkpt>
      <trkpt lat="46.27333" lon="10.45827">
        <ele>1873.5090897931</ele>
        <time>2018-09-21T11:23:54.002Z</time>
      </trkpt>
      <trkpt lat="46.2733" lon="10.4584">
        <ele>1876.8339083401</ele>
        <time>2018-09-21T11:24:04.973Z</time>
      </trkpt>
      <trkpt lat="46.27323" lon="10.45851">
        <ele>1877.019584</ele>
        <time>2018-09-21T11:24:16.014Z</time>
      </trkpt>
      <trkpt lat="46.27322" lon="10.45865">
        <ele>1878.894584</ele>
        <time>2018-09-21T11:24:25.014Z</time>
      </trkpt>
      <trkpt lat="46.27317" lon="10.45877">
        <ele>1880.4824927454</ele>
        <time>2018-09-21T11:24:33.014Z</time>
      </trkpt>
      <trkpt lat="46.27316" lon="10.4589">
        <ele>1882.2889772421</ele>
        <time>2018-09-21T11:24:42.004Z</time>
      </trkpt>
      <trkpt lat="46.27314" lon="10.45903">
        <ele>1883.64839936</ele>
        <time>2018-09-21T11:24:52.004Z</time>
      </trkpt>
      <trkpt lat="46.27309" lon="10.45915">
        <ele>1884.44819968</ele>
        <time>2018-09-21T11:25:00.002Z</time>
      </trkpt>
      <trkpt lat="46.27302" lon="10.45923">
        <ele>1887.0559193138</ele>
        <time>2018-09-21T11:25:16.001Z</time>
      </trkpt>
      <trkpt lat="46.27293" lon="10.45928">
        <ele>1889.2195696507</ele>
        <time>2018-09-21T11:25:23.004Z</time>
      </trkpt>
      <trkpt lat="46.27291" lon="10.45941">
        <ele>1890.7481488695</ele>
        <time>2018-09-21T11:25:33.004Z</time>
      </trkpt>
      <trkpt lat="46.27284" lon="10.45951">
        <ele>1891.64940032</ele>
        <time>2018-09-21T11:25:42.014Z</time>
      </trkpt>
      <trkpt lat="46.27277" lon="10.4596">
        <ele>1894.2154010291</ele>
        <time>2018-09-21T11:25:58.030Z</time>
      </trkpt>
      <trkpt lat="46.27273" lon="10.45974">
        <ele>1897.0029173333</ele>
        <time>2018-09-21T11:26:16.014Z</time>
      </trkpt>
      <trkpt lat="46.27267" lon="10.45985">
        <ele>1898.875416</ele>
        <time>2018-09-21T11:26:25.002Z</time>
      </trkpt>
      <trkpt lat="46.2726" lon="10.45994">
        <ele>1900.4923380645</ele>
        <time>2018-09-21T11:26:33.002Z</time>
      </trkpt>
      <trkpt lat="46.27258" lon="10.46007">
        <ele>1901.885742008</ele>
        <time>2018-09-21T11:26:50.001Z</time>
      </trkpt>
      <trkpt lat="46.27252" lon="10.46021">
        <ele>1904.0960886166</ele>
        <time>2018-09-21T11:27:01.014Z</time>
      </trkpt>
      <trkpt lat="46.27253" lon="10.46035">
        <ele>1905.49679872</ele>
        <time>2018-09-21T11:27:08.004Z</time>
      </trkpt>
      <trkpt lat="46.27249" lon="10.46049">
        <ele>1907</ele>
        <time>2018-09-21T11:27:21.014Z</time>
      </trkpt>
      <trkpt lat="46.27246" lon="10.46061">
        <ele>1908.2997005647</ele>
        <time>2018-09-21T11:27:32.012Z</time>
      </trkpt>
      <trkpt lat="46.27246" lon="10.46075">
        <ele>1910.297102033</ele>
        <time>2018-09-21T11:27:42.002Z</time>
      </trkpt>
      <trkpt lat="46.27244" lon="10.46088">
        <ele>1912.2456287049</ele>
        <time>2018-09-21T11:27:58.014Z</time>
      </trkpt>
      <trkpt lat="46.27241" lon="10.461">
        <ele>1913.34819968</ele>
        <time>2018-09-21T11:28:09.002Z</time>
      </trkpt>
      <trkpt lat="46.27238" lon="10.46114">
        <ele>1914.5131544963</ele>
        <time>2018-09-21T11:28:18.114Z</time>
      </trkpt>
      <trkpt lat="46.27239" lon="10.46128">
        <ele>1916.6762388437</ele>
        <time>2018-09-21T11:28:28.974Z</time>
      </trkpt>
      <trkpt lat="46.27238" lon="10.46142">
        <ele>1919.09959936</ele>
        <time>2018-09-21T11:28:41.018Z</time>
      </trkpt>
      <trkpt lat="46.27244" lon="10.46131">
        <ele>1920.84839936</ele>
        <time>2018-09-21T11:28:54.004Z</time>
      </trkpt>
      <trkpt lat="46.27251" lon="10.46123">
        <ele>1923.5325362094</ele>
        <time>2018-09-21T11:29:04.004Z</time>
      </trkpt>
      <trkpt lat="46.27256" lon="10.4611">
        <ele>1926.0776542213</ele>
        <time>2018-09-21T11:29:16.014Z</time>
      </trkpt>
      <trkpt lat="46.27265" lon="10.46112">
        <ele>1929.6894419124</ele>
        <time>2018-09-21T11:29:34.001Z</time>
      </trkpt>
      <trkpt lat="46.27269" lon="10.46123">
        <ele>1933</ele>
        <time>2018-09-21T11:29:48.004Z</time>
      </trkpt>
      <trkpt lat="46.27269" lon="10.46136">
        <ele>1933.7444538644</ele>
        <time>2018-09-21T11:29:58.004Z</time>
      </trkpt>
      <trkpt lat="46.2727" lon="10.4615">
        <ele>1936.2944328942</ele>
        <time>2018-09-21T11:30:07.011Z</time>
      </trkpt>
      <trkpt lat="46.27272" lon="10.46164">
        <ele>1938.8889548594</ele>
        <time>2018-09-21T11:30:20.017Z</time>
      </trkpt>
      <trkpt lat="46.27269" lon="10.46177">
        <ele>1941.2927854383</ele>
        <time>2018-09-21T11:30:32.001Z</time>
      </trkpt>
      <trkpt lat="46.27261" lon="10.46183">
        <ele>1943.4982990996</ele>
        <time>2018-09-21T11:30:43.014Z</time>
      </trkpt>
      <trkpt lat="46.27261" lon="10.46197">
        <ele>1946.0489634903</ele>
        <time>2018-09-21T11:30:56.016Z</time>
      </trkpt>
      <trkpt lat="46.27256" lon="10.4621">
        <ele>1947.4737484737</ele>
        <time>2018-09-21T11:31:08.014Z</time>
      </trkpt>
      <trkpt lat="46.27255" lon="10.46224">
        <ele>1949.4189711425</ele>
        <time>2018-09-21T11:31:17.014Z</time>
      </trkpt>
      <trkpt lat="46.27255" lon="10.46238">
        <ele>1952.24979992</ele>
        <time>2018-09-21T11:31:28.033Z</time>
      </trkpt>
      <trkpt lat="46.27246" lon="10.46244">
        <ele>1953.4726913118</ele>
        <time>2018-09-21T11:31:38.004Z</time>
      </trkpt>
      <trkpt lat="46.2724" lon="10.46253">
        <ele>1955.2046355168</ele>
        <time>2018-09-21T11:31:47.001Z</time>
      </trkpt>
      <trkpt lat="46.27235" lon="10.46265">
        <ele>1957.09880064</ele>
        <time>2018-09-21T11:31:56.014Z</time>
      </trkpt>
      <trkpt lat="46.27231" lon="10.46277">
        <ele>1959.0468018605</ele>
        <time>2018-09-21T11:32:06.003Z</time>
      </trkpt>
      <trkpt lat="46.27228" lon="10.46289">
        <ele>1960.4491742149</ele>
        <time>2018-09-21T11:32:18.014Z</time>
      </trkpt>
      <trkpt lat="46.27222" lon="10.46301">
        <ele>1962.69639936</ele>
        <time>2018-09-21T11:32:29.002Z</time>
      </trkpt>
      <trkpt lat="46.2722" lon="10.46314">
        <ele>1964.24850048</ele>
        <time>2018-09-21T11:32:38.005Z</time>
      </trkpt>
      <trkpt lat="46.2722" lon="10.46327">
        <ele>1965</ele>
        <time>2018-09-21T11:32:50.014Z</time>
      </trkpt>
      <trkpt lat="46.27213" lon="10.46337">
        <ele>1965.1136010051</ele>
        <time>2018-09-21T11:32:57.002Z</time>
      </trkpt>
      <trkpt lat="46.27206" lon="10.46348">
        <ele>1967.0349897185</ele>
        <time>2018-09-21T11:33:06.015Z</time>
      </trkpt>
      <trkpt lat="46.27202" lon="10.4636">
        <ele>1968.6834155524</ele>
        <time>2018-09-21T11:33:18.971Z</time>
      </trkpt>
      <trkpt lat="46.272" lon="10.46373">
        <ele>1971.634276129</ele>
        <time>2018-09-21T11:33:31.004Z</time>
      </trkpt>
      <trkpt lat="46.27198" lon="10.46387">
        <ele>1976.4957931891</ele>
        <time>2018-09-21T11:33:48.014Z</time>
      </trkpt>
      <trkpt lat="46.27198" lon="10.46401">
        <ele>1978.4959036151</ele>
        <time>2018-09-21T11:33:58.002Z</time>
      </trkpt>
      <trkpt lat="46.27195" lon="10.46415">
        <ele>1980.2473474283</ele>
        <time>2018-09-21T11:34:08.001Z</time>
      </trkpt>
      <trkpt lat="46.27194" lon="10.46429">
        <ele>1981.2511486118</ele>
        <time>2018-09-21T11:34:18.034Z</time>
      </trkpt>
      <trkpt lat="46.27189" lon="10.46441">
        <ele>1982.4649107914</ele>
        <time>2018-09-21T11:34:28.001Z</time>
      </trkpt>
      <trkpt lat="46.27186" lon="10.46454">
        <ele>1984.0899898309</ele>
        <time>2018-09-21T11:34:37.005Z</time>
      </trkpt>
      <trkpt lat="46.27181" lon="10.46467">
        <ele>1984.8354634853</ele>
        <time>2018-09-21T11:34:44.005Z</time>
      </trkpt>
      <trkpt lat="46.27173" lon="10.46474">
        <ele>1986.2946825419</ele>
        <time>2018-09-21T11:34:52.004Z</time>
      </trkpt>
      <trkpt lat="46.27166" lon="10.46484">
        <ele>1987.89619968</ele>
        <time>2018-09-21T11:35:00.001Z</time>
      </trkpt>
      <trkpt lat="46.27164" lon="10.46497">
        <ele>1990.09860096</ele>
        <time>2018-09-21T11:35:11.013Z</time>
      </trkpt>
      <trkpt lat="46.27163" lon="10.4651">
        <ele>1991</ele>
        <time>2018-09-21T11:35:19.004Z</time>
      </trkpt>
      <trkpt lat="46.27153" lon="10.46515">
        <ele>1991</ele>
        <time>2018-09-21T11:35:26.014Z</time>
      </trkpt>
      <trkpt lat="46.27144" lon="10.46515">
        <ele>1991</ele>
        <time>2018-09-21T11:35:30.011Z</time>
      </trkpt>
      <trkpt lat="46.27136" lon="10.46523">
        <ele>1993.3501036388</ele>
        <time>2018-09-21T11:35:47.034Z</time>
      </trkpt>
      <trkpt lat="46.27133" lon="10.46536">
        <ele>1997.04809984</ele>
        <time>2018-09-21T11:35:56.001Z</time>
      </trkpt>
      <trkpt lat="46.27128" lon="10.46549">
        <ele>1997.94940032</ele>
        <time>2018-09-21T11:36:05.014Z</time>
      </trkpt>
      <trkpt lat="46.27121" lon="10.46558">
        <ele>1998</ele>
        <time>2018-09-21T11:36:14.004Z</time>
      </trkpt>
      <trkpt lat="46.27117" lon="10.46571">
        <ele>1999.64520192</ele>
        <time>2018-09-21T11:36:21.004Z</time>
      </trkpt>
      <trkpt lat="46.27112" lon="10.46582">
        <ele>2001.54829952</ele>
        <time>2018-09-21T11:36:31.003Z</time>
      </trkpt>
      <trkpt lat="46.27106" lon="10.46592">
        <ele>2002.44790016</ele>
        <time>2018-09-21T11:36:39.999Z</time>
      </trkpt>
      <trkpt lat="46.271" lon="10.46604">
        <ele>2003.24809984</ele>
        <time>2018-09-21T11:36:48.001Z</time>
      </trkpt>
      <trkpt lat="46.27093" lon="10.46614">
        <ele>2004.6967102862</ele>
        <time>2018-09-21T11:36:59.014Z</time>
      </trkpt>
      <trkpt lat="46.27085" lon="10.46625">
        <ele>2007.2966904864</ele>
        <time>2018-09-21T11:37:12.014Z</time>
      </trkpt>
      <trkpt lat="46.27079" lon="10.46635">
        <ele>2008.49619968</ele>
        <time>2018-09-21T11:37:18.001Z</time>
      </trkpt>
      <trkpt lat="46.27074" lon="10.46646">
        <ele>2009.6992</ele>
        <time>2018-09-21T11:37:24.016Z</time>
      </trkpt>
      <trkpt lat="46.2707" lon="10.46658">
        <ele>2010.9455636465</ele>
        <time>2018-09-21T11:37:35.004Z</time>
      </trkpt>
      <trkpt lat="46.27065" lon="10.46671">
        <ele>2011</ele>
        <time>2018-09-21T11:37:45.001Z</time>
      </trkpt>
      <trkpt lat="46.27063" lon="10.46684">
        <ele>2012.89619968</ele>
        <time>2018-09-21T11:37:55.001Z</time>
      </trkpt>
      <trkpt lat="46.27057" lon="10.46695">
        <ele>2013.74829952</ele>
        <time>2018-09-21T11:38:03.003Z</time>
      </trkpt>
      <trkpt lat="46.27053" lon="10.46708">
        <ele>2015.69900032</ele>
        <time>2018-09-21T11:38:14.015Z</time>
      </trkpt>
      <trkpt lat="46.27048" lon="10.4672">
        <ele>2018.2419825744</ele>
        <time>2018-09-21T11:38:23.000Z</time>
      </trkpt>
      <trkpt lat="46.27045" lon="10.46733">
        <ele>2019.5312103145</ele>
        <time>2018-09-21T11:38:31.001Z</time>
      </trkpt>
      <trkpt lat="46.27042" lon="10.46746">
        <ele>2020</ele>
        <time>2018-09-21T11:38:42.001Z</time>
      </trkpt>
      <trkpt lat="46.27041" lon="10.4676">
        <ele>2021.2936261355</ele>
        <time>2018-09-21T11:38:52.014Z</time>
      </trkpt>
      <trkpt lat="46.27036" lon="10.46772">
        <ele>2023.0949808835</ele>
        <time>2018-09-21T11:39:01.013Z</time>
      </trkpt>
      <trkpt lat="46.27034" lon="10.46786">
        <ele>2027.1451017978</ele>
        <time>2018-09-21T11:39:17.016Z</time>
      </trkpt>
      <trkpt lat="46.27033" lon="10.468">
        <ele>2028.6551440329</ele>
        <time>2018-09-21T11:39:29.014Z</time>
      </trkpt>
      <trkpt lat="46.27025" lon="10.46808">
        <ele>2030.6468588741</ele>
        <time>2018-09-21T11:39:42.005Z</time>
      </trkpt>
      <trkpt lat="46.27021" lon="10.46823">
        <ele>2032.9433646717</ele>
        <time>2018-09-21T11:39:52.014Z</time>
      </trkpt>
      <trkpt lat="46.27019" lon="10.46836">
        <ele>2034.4935871785</ele>
        <time>2018-09-21T11:39:58.003Z</time>
      </trkpt>
      <trkpt lat="46.27019" lon="10.4685">
        <ele>2036</ele>
        <time>2018-09-21T11:40:08.004Z</time>
      </trkpt>
      <trkpt lat="46.27013" lon="10.46862">
        <ele>2036.248</ele>
        <time>2018-09-21T11:40:18.000Z</time>
      </trkpt>
      <trkpt lat="46.27006" lon="10.46871">
        <ele>2037.696</ele>
        <time>2018-09-21T11:40:29.000Z</time>
      </trkpt>
      <trkpt lat="46.27" lon="10.46881">
        <ele>2040.038210241</ele>
        <time>2018-09-21T11:40:38.998Z</time>
      </trkpt>
      <trkpt lat="46.26993" lon="10.4689">
        <ele>2042.5768874527</ele>
        <time>2018-09-21T11:40:47.005Z</time>
      </trkpt>
      <trkpt lat="46.26986" lon="10.469">
        <ele>2046.8431402986</ele>
        <time>2018-09-21T11:41:04.002Z</time>
      </trkpt>
      <trkpt lat="46.26981" lon="10.46911">
        <ele>2048.0796530585</ele>
        <time>2018-09-21T11:41:17.003Z</time>
      </trkpt>
      <trkpt lat="46.26975" lon="10.46924">
        <ele>2049.2035915679</ele>
        <time>2018-09-21T11:41:27.014Z</time>
      </trkpt>
      <trkpt lat="46.26969" lon="10.46934">
        <ele>2053.9767629865</ele>
        <time>2018-09-21T11:41:43.014Z</time>
      </trkpt>
      <trkpt lat="46.26964" lon="10.46946">
        <ele>2057.8204610763</ele>
        <time>2018-09-21T11:41:55.000Z</time>
      </trkpt>
      <trkpt lat="46.26959" lon="10.46957">
        <ele>2059.49019904</ele>
        <time>2018-09-21T11:42:07.971Z</time>
      </trkpt>
      <trkpt lat="46.26952" lon="10.46966">
        <ele>2061.49880064</ele>
        <time>2018-09-21T11:42:18.014Z</time>
      </trkpt>
      <trkpt lat="46.26946" lon="10.46976">
        <ele>2063.54809984</ele>
        <time>2018-09-21T11:42:31.001Z</time>
      </trkpt>
      <trkpt lat="46.26955" lon="10.46981">
        <ele>2066.2941059881</ele>
        <time>2018-09-21T11:42:47.002Z</time>
      </trkpt>
      <trkpt lat="46.26964" lon="10.46977">
        <ele>2068.9493989904</ele>
        <time>2018-09-21T11:43:05.015Z</time>
      </trkpt>
      <trkpt lat="46.26973" lon="10.46976">
        <ele>2071.09619968</ele>
        <time>2018-09-21T11:43:21.001Z</time>
      </trkpt>
      <trkpt lat="46.26981" lon="10.46986">
        <ele>2074.99639808</ele>
        <time>2018-09-21T11:43:33.011Z</time>
      </trkpt>
      <trkpt lat="46.26986" lon="10.46997">
        <ele>2078.0484490736</ele>
        <time>2018-09-21T11:43:46.014Z</time>
      </trkpt>
      <trkpt lat="46.26978" lon="10.47003">
        <ele>2079.6963048779</ele>
        <time>2018-09-21T11:43:59.005Z</time>
      </trkpt>
      <trkpt lat="46.26981" lon="10.47016">
        <ele>2082.6438462002</ele>
        <time>2018-09-21T11:44:11.004Z</time>
      </trkpt>
      <trkpt lat="46.26977" lon="10.47028">
        <ele>2084.4472057148</ele>
        <time>2018-09-21T11:44:20.001Z</time>
      </trkpt>
      <trkpt lat="46.2697" lon="10.47036">
        <ele>2085.4937872585</ele>
        <time>2018-09-21T11:44:28.004Z</time>
      </trkpt>
      <trkpt lat="46.26964" lon="10.47047">
        <ele>2087.2451131278</ele>
        <time>2018-09-21T11:44:38.003Z</time>
      </trkpt>
      <trkpt lat="46.26959" lon="10.47058">
        <ele>2087.8385000872</ele>
        <time>2018-09-21T11:44:44.014Z</time>
      </trkpt>
      <trkpt lat="46.26958" lon="10.47072">
        <ele>2088.9449044779</ele>
        <time>2018-09-21T11:44:55.014Z</time>
      </trkpt>
      <trkpt lat="46.26953" lon="10.47084">
        <ele>2092.0852223482</ele>
        <time>2018-09-21T11:45:11.001Z</time>
      </trkpt>
      <trkpt lat="46.2695" lon="10.47097">
        <ele>2094.89659904</ele>
        <time>2018-09-21T11:45:25.003Z</time>
      </trkpt>
      <trkpt lat="46.26948" lon="10.4711">
        <ele>2095.94850048</ele>
        <time>2018-09-21T11:45:35.005Z</time>
      </trkpt>
      <trkpt lat="46.26946" lon="10.47124">
        <ele>2099.0922932237</ele>
        <time>2018-09-21T11:45:46.001Z</time>
      </trkpt>
      <trkpt lat="46.26942" lon="10.47137">
        <ele>2101.7516518914</ele>
        <time>2018-09-21T11:45:58.033Z</time>
      </trkpt>
      <trkpt lat="46.26945" lon="10.4715">
        <ele>2104.34860032</ele>
        <time>2018-09-21T11:46:09.006Z</time>
      </trkpt>
      <trkpt lat="46.26943" lon="10.47163">
        <ele>2106.0961048859</ele>
        <time>2018-09-21T11:46:21.006Z</time>
      </trkpt>
      <trkpt lat="46.26941" lon="10.47176">
        <ele>2107.7408335353</ele>
        <time>2018-09-21T11:46:33.005Z</time>
      </trkpt>
      <trkpt lat="46.26941" lon="10.4719">
        <ele>2110.09679872</ele>
        <time>2018-09-21T11:46:46.004Z</time>
      </trkpt>
      <trkpt lat="46.26941" lon="10.47203">
        <ele>2112.345055375</ele>
        <time>2018-09-21T11:46:58.974Z</time>
      </trkpt>
      <trkpt lat="46.26942" lon="10.47216">
        <ele>2114.4890454183</ele>
        <time>2018-09-21T11:47:13.005Z</time>
      </trkpt>
      <trkpt lat="46.26941" lon="10.4723">
        <ele>2116.8966840935</ele>
        <time>2018-09-21T11:47:25.006Z</time>
      </trkpt>
      <trkpt lat="46.26943" lon="10.47243">
        <ele>2118.25110016</ele>
        <time>2018-09-21T11:47:38.031Z</time>
      </trkpt>
      <trkpt lat="46.26944" lon="10.47257">
        <ele>2119.8952111107</ele>
        <time>2018-09-21T11:47:50.005Z</time>
      </trkpt>
      <trkpt lat="46.26952" lon="10.47263">
        <ele>2122.4499513003</ele>
        <time>2018-09-21T11:48:03.000Z</time>
      </trkpt>
      <trkpt lat="46.26961" lon="10.47267">
        <ele>2126.0186589814</ele>
        <time>2018-09-21T11:48:16.001Z</time>
      </trkpt>
      <trkpt lat="46.2697" lon="10.47273">
        <ele>2127.30419968</ele>
        <time>2018-09-21T11:48:27.041Z</time>
      </trkpt>
      <trkpt lat="46.26978" lon="10.4728">
        <ele>2129.89700096</ele>
        <time>2018-09-21T11:48:40.005Z</time>
      </trkpt>
      <trkpt lat="46.26985" lon="10.4729">
        <ele>2131.5459546412</ele>
        <time>2018-09-21T11:49:11.005Z</time>
      </trkpt>
      <trkpt lat="46.2699" lon="10.47301">
        <ele>2132</ele>
        <time>2018-09-21T11:49:21.005Z</time>
      </trkpt>
      <trkpt lat="46.26995" lon="10.47313">
        <ele>2132.896</ele>
        <time>2018-09-21T11:49:30.000Z</time>
      </trkpt>
      <trkpt lat="46.27" lon="10.47325">
        <ele>2134.89700096</ele>
        <time>2018-09-21T11:49:40.005Z</time>
      </trkpt>
      <trkpt lat="46.27" lon="10.47339">
        <ele>2137.03620096</ele>
        <time>2018-09-21T11:49:48.974Z</time>
      </trkpt>
      <trkpt lat="46.27001" lon="10.47353">
        <ele>2139</ele>
        <time>2018-09-21T11:49:59.005Z</time>
      </trkpt>
      <trkpt lat="46.27003" lon="10.47366">
        <ele>2139.6844228553</ele>
        <time>2018-09-21T11:50:08.975Z</time>
      </trkpt>
      <trkpt lat="46.27002" lon="10.4738">
        <ele>2141.048307251</ele>
        <time>2018-09-21T11:50:16.005Z</time>
      </trkpt>
      <trkpt lat="46.27001" lon="10.47393">
        <ele>2141.7455184064</ele>
        <time>2018-09-21T11:50:23.005Z</time>
      </trkpt>
      <trkpt lat="46.27002" lon="10.47407">
        <ele>2142</ele>
        <time>2018-09-21T11:50:30.005Z</time>
      </trkpt>
      <trkpt lat="46.26998" lon="10.4742">
        <ele>2142</ele>
        <time>2018-09-21T11:50:36.004Z</time>
      </trkpt>
      <trkpt lat="46.26997" lon="10.47434">
        <ele>2142</ele>
        <time>2018-09-21T11:50:42.010Z</time>
      </trkpt>
      <trkpt lat="46.26997" lon="10.47449">
        <ele>2142</ele>
        <time>2018-09-21T11:50:48.000Z</time>
      </trkpt>
      <trkpt lat="46.26997" lon="10.47463">
        <ele>2142</ele>
        <time>2018-09-21T11:50:55.005Z</time>
      </trkpt>
      <trkpt lat="46.26998" lon="10.47477">
        <ele>2142</ele>
        <time>2018-09-21T11:51:01.005Z</time>
      </trkpt>
      <trkpt lat="46.26997" lon="10.4749">
        <ele>2142.1442653645</ele>
        <time>2018-09-21T11:51:07.014Z</time>
      </trkpt>
      <trkpt lat="46.26997" lon="10.47504">
        <ele>2142.7469822113</ele>
        <time>2018-09-21T11:51:13.005Z</time>
      </trkpt>
      <trkpt lat="46.26996" lon="10.47517">
        <ele>2143.4480525708</ele>
        <time>2018-09-21T11:51:20.005Z</time>
      </trkpt>
      <trkpt lat="46.26993" lon="10.47533">
        <ele>2144</ele>
        <time>2018-09-21T11:51:27.015Z</time>
      </trkpt>
      <trkpt lat="46.2699" lon="10.47549">
        <ele>2144</ele>
        <time>2018-09-21T11:51:31.005Z</time>
      </trkpt>
      <trkpt lat="46.26988" lon="10.47562">
        <ele>2144</ele>
        <time>2018-09-21T11:51:34.004Z</time>
      </trkpt>
      <trkpt lat="46.26984" lon="10.47576">
        <ele>2143.701795578</ele>
        <time>2018-09-21T11:51:37.014Z</time>
      </trkpt>
      <trkpt lat="46.26982" lon="10.47593">
        <ele>2142.9051879634</ele>
        <time>2018-09-21T11:51:41.005Z</time>
      </trkpt>
      <trkpt lat="46.26984" lon="10.4761">
        <ele>2142.1067842598</ele>
        <time>2018-09-21T11:51:45.005Z</time>
      </trkpt>
      <trkpt lat="46.26989" lon="10.47624">
        <ele>2141.3056094233</ele>
        <time>2018-09-21T11:51:49.005Z</time>
      </trkpt>
      <trkpt lat="46.26995" lon="10.47635">
        <ele>2140.5040067309</ele>
        <time>2018-09-21T11:51:53.005Z</time>
      </trkpt>
      <trkpt lat="46.27001" lon="10.47646">
        <ele>2140.34540032</ele>
        <time>2018-09-21T11:51:58.974Z</time>
      </trkpt>
      <trkpt lat="46.27007" lon="10.47658">
        <ele>2140.9516446017</ele>
        <time>2018-09-21T11:52:06.005Z</time>
      </trkpt>
      <trkpt lat="46.2701" lon="10.4767">
        <ele>2140.1540376777</ele>
        <time>2018-09-21T11:52:14.005Z</time>
      </trkpt>
      <trkpt lat="46.27018" lon="10.4768">
        <ele>2140.6485455241</ele>
        <time>2018-09-21T11:52:22.016Z</time>
      </trkpt>
      <trkpt lat="46.27027" lon="10.47685">
        <ele>2141.24839936</ele>
        <time>2018-09-21T11:52:28.004Z</time>
      </trkpt>
      <trkpt lat="46.27038" lon="10.4769">
        <ele>2141.94850048</ele>
        <time>2018-09-21T11:52:35.005Z</time>
      </trkpt>
      <trkpt lat="46.27047" lon="10.47694">
        <ele>2142</ele>
        <time>2018-09-21T11:52:41.002Z</time>
      </trkpt>
      <trkpt lat="46.27056" lon="10.477">
        <ele>2141.85080064</ele>
        <time>2018-09-21T11:52:47.012Z</time>
      </trkpt>
      <trkpt lat="46.27065" lon="10.47707">
        <ele>2141.25180032</ele>
        <time>2018-09-21T11:52:53.002Z</time>
      </trkpt>
      <trkpt lat="46.27074" lon="10.47711">
        <ele>2140.55149952</ele>
        <time>2018-09-21T11:53:00.005Z</time>
      </trkpt>
      <trkpt lat="46.27085" lon="10.47715">
        <ele>2140.14909952</ele>
        <time>2018-09-21T11:53:07.011Z</time>
      </trkpt>
      <trkpt lat="46.27094" lon="10.47716">
        <ele>2140.84819968</ele>
        <time>2018-09-21T11:53:14.002Z</time>
      </trkpt>
      <trkpt lat="46.27104" lon="10.47717">
        <ele>2141</ele>
        <time>2018-09-21T11:53:20.001Z</time>
      </trkpt>
      <trkpt lat="46.27113" lon="10.47719">
        <ele>2141.1426412903</ele>
        <time>2018-09-21T11:53:27.015Z</time>
      </trkpt>
      <trkpt lat="46.27122" lon="10.47723">
        <ele>2141.7464722581</ele>
        <time>2018-09-21T11:53:33.005Z</time>
      </trkpt>
      <trkpt lat="46.2713" lon="10.47731">
        <ele>2142</ele>
        <time>2018-09-21T11:53:39.005Z</time>
      </trkpt>
      <trkpt lat="46.27137" lon="10.47741">
        <ele>2142</ele>
        <time>2018-09-21T11:53:45.005Z</time>
      </trkpt>
      <trkpt lat="46.27145" lon="10.4775">
        <ele>2142</ele>
        <time>2018-09-21T11:53:52.011Z</time>
      </trkpt>
      <trkpt lat="46.27153" lon="10.47757">
        <ele>2142.74550144</ele>
        <time>2018-09-21T11:53:58.005Z</time>
      </trkpt>
      <trkpt lat="46.27163" lon="10.4776">
        <ele>2145</ele>
        <time>2018-09-21T11:54:10.004Z</time>
      </trkpt>
      <trkpt lat="46.27172" lon="10.47754">
        <ele>2145.4327838812</ele>
        <time>2018-09-21T11:54:20.002Z</time>
      </trkpt>
      <trkpt lat="46.27181" lon="10.47756">
        <ele>2146.225543338</ele>
        <time>2018-09-21T11:54:28.031Z</time>
      </trkpt>
      <trkpt lat="46.27191" lon="10.47754">
        <ele>2147.69700096</ele>
        <time>2018-09-21T11:54:39.005Z</time>
      </trkpt>
      <trkpt lat="46.272" lon="10.47751">
        <ele>2149.6936248606</ele>
        <time>2018-09-21T11:54:49.002Z</time>
      </trkpt>
      <trkpt lat="46.2721" lon="10.47752">
        <ele>2151</ele>
        <time>2018-09-21T11:55:00.005Z</time>
      </trkpt>
      <trkpt lat="46.27219" lon="10.4775">
        <ele>2151.4950208765</ele>
        <time>2018-09-21T11:55:08.005Z</time>
      </trkpt>
      <trkpt lat="46.27229" lon="10.47749">
        <ele>2153.6935749398</ele>
        <time>2018-09-21T11:55:19.014Z</time>
      </trkpt>
      <trkpt lat="46.27238" lon="10.47749">
        <ele>2155.3441236653</ele>
        <time>2018-09-21T11:55:28.975Z</time>
      </trkpt>
      <trkpt lat="46.27248" lon="10.47749">
        <ele>2156.6915675502</ele>
        <time>2018-09-21T11:55:39.004Z</time>
      </trkpt>
      <trkpt lat="46.27257" lon="10.47748">
        <ele>2158</ele>
        <time>2018-09-21T11:55:50.014Z</time>
      </trkpt>
      <trkpt lat="46.27267" lon="10.47749">
        <ele>2158.2453808835</ele>
        <time>2018-09-21T11:55:58.004Z</time>
      </trkpt>
      <trkpt lat="46.27276" lon="10.47749">
        <ele>2158.9494978313</ele>
        <time>2018-09-21T11:56:05.017Z</time>
      </trkpt>
      <trkpt lat="46.27286" lon="10.4775">
        <ele>2159.8447209562</ele>
        <time>2018-09-21T11:56:14.001Z</time>
      </trkpt>
      <trkpt lat="46.27296" lon="10.47746">
        <ele>2162.44820096</ele>
        <time>2018-09-21T11:56:27.014Z</time>
      </trkpt>
      <trkpt lat="46.27306" lon="10.47747">
        <ele>2165.2973141643</ele>
        <time>2018-09-21T11:56:37.014Z</time>
      </trkpt>
      <trkpt lat="46.27315" lon="10.47751">
        <ele>2167.0827586207</ele>
        <time>2018-09-21T11:56:46.002Z</time>
      </trkpt>
      <trkpt lat="46.27325" lon="10.47752">
        <ele>2169.3135675917</ele>
        <time>2018-09-21T11:56:57.004Z</time>
      </trkpt>
      <trkpt lat="46.27334" lon="10.47756">
        <ele>2172</ele>
        <time>2018-09-21T11:57:07.001Z</time>
      </trkpt>
      <trkpt lat="46.27343" lon="10.47757">
        <ele>2172.0750243317</ele>
        <time>2018-09-21T11:57:16.001Z</time>
      </trkpt>
      <trkpt lat="46.27352" lon="10.47762">
        <ele>2173.8982807355</ele>
        <time>2018-09-21T11:57:25.017Z</time>
      </trkpt>
      <trkpt lat="46.2736" lon="10.47768">
        <ele>2174.9190712624</ele>
        <time>2018-09-21T11:57:35.014Z</time>
      </trkpt>
      <trkpt lat="46.27366" lon="10.4778">
        <ele>2176.6864517273</ele>
        <time>2018-09-21T11:57:44.004Z</time>
      </trkpt>
      <trkpt lat="46.2737" lon="10.47792">
        <ele>2178.8973033038</ele>
        <time>2018-09-21T11:57:55.016Z</time>
      </trkpt>
      <trkpt lat="46.27379" lon="10.47795">
        <ele>2181.49639936</ele>
        <time>2018-09-21T11:58:08.002Z</time>
      </trkpt>
      <trkpt lat="46.27389" lon="10.47794">
        <ele>2183.4476098805</ele>
        <time>2018-09-21T11:58:20.014Z</time>
      </trkpt>
      <trkpt lat="46.27397" lon="10.47799">
        <ele>2184.4877121239</ele>
        <time>2018-09-21T11:58:28.001Z</time>
      </trkpt>
      <trkpt lat="46.27407" lon="10.47798">
        <ele>2186.14381921</ele>
        <time>2018-09-21T11:58:37.001Z</time>
      </trkpt>
      <trkpt lat="46.27416" lon="10.47798">
        <ele>2187.49639936</ele>
        <time>2018-09-21T11:58:48.002Z</time>
      </trkpt>
      <trkpt lat="46.27425" lon="10.47795">
        <ele>2189.2482523071</ele>
        <time>2018-09-21T11:58:58.005Z</time>
      </trkpt>
      <trkpt lat="46.27435" lon="10.47795">
        <ele>2190.2473474283</ele>
        <time>2018-09-21T11:59:08.001Z</time>
      </trkpt>
      <trkpt lat="46.27443" lon="10.47799">
        <ele>2191.6941171066</ele>
        <time>2018-09-21T11:59:19.001Z</time>
      </trkpt>
      <trkpt lat="46.27452" lon="10.47802">
        <ele>2193.68440064</ele>
        <time>2018-09-21T11:59:28.972Z</time>
      </trkpt>
      <trkpt lat="46.27462" lon="10.47804">
        <ele>2195.4437680738</ele>
        <time>2018-09-21T11:59:40.001Z</time>
      </trkpt>
      <trkpt lat="46.2747" lon="10.47812">
        <ele>2196.4401978715</ele>
        <time>2018-09-21T11:59:50.004Z</time>
      </trkpt>
      <trkpt lat="46.27477" lon="10.4782">
        <ele>2198.3267922594</ele>
        <time>2018-09-21T12:00:00.004Z</time>
      </trkpt>
      <trkpt lat="46.27485" lon="10.47829">
        <ele>2200.44839936</ele>
        <time>2018-09-21T12:00:10.004Z</time>
      </trkpt>
      <trkpt lat="46.27492" lon="10.47836">
        <ele>2202.09880064</ele>
        <time>2018-09-21T12:00:21.014Z</time>
      </trkpt>
      <trkpt lat="46.27502" lon="10.47838">
        <ele>2205.2862115444</ele>
        <time>2018-09-21T12:00:37.004Z</time>
      </trkpt>
      <trkpt lat="46.27509" lon="10.47846">
        <ele>2208.0641754304</ele>
        <time>2018-09-21T12:00:51.014Z</time>
      </trkpt>
      <trkpt lat="46.27517" lon="10.47853">
        <ele>2211.0496</ele>
        <time>2018-09-21T12:01:06.016Z</time>
      </trkpt>
      <trkpt lat="46.27521" lon="10.47864">
        <ele>2212.34840064</ele>
        <time>2018-09-21T12:01:19.004Z</time>
      </trkpt>
      <trkpt lat="46.27526" lon="10.47875">
        <ele>2213.4958074225</ele>
        <time>2018-09-21T12:01:28.004Z</time>
      </trkpt>
      <trkpt lat="46.27534" lon="10.47883">
        <ele>2215.4910189279</ele>
        <time>2018-09-21T12:01:38.000Z</time>
      </trkpt>
      <trkpt lat="46.27542" lon="10.47889">
        <ele>2217.7429143359</ele>
        <time>2018-09-21T12:01:53.004Z</time>
      </trkpt>
      <trkpt lat="46.2755" lon="10.47884">
        <ele>2218.7466795955</ele>
        <time>2018-09-21T12:02:03.002Z</time>
      </trkpt>
      <trkpt lat="46.27559" lon="10.47878">
        <ele>2220.6934129778</ele>
        <time>2018-09-21T12:02:14.004Z</time>
      </trkpt>
      <trkpt lat="46.27567" lon="10.47871">
        <ele>2224.1479088446</ele>
        <time>2018-09-21T12:02:27.005Z</time>
      </trkpt>
      <trkpt lat="46.27576" lon="10.47867">
        <ele>2225.5439679222</ele>
        <time>2018-09-21T12:02:41.016Z</time>
      </trkpt>
      <trkpt lat="46.27583" lon="10.47876">
        <ele>2228.148</ele>
        <time>2018-09-21T12:02:57.000Z</time>
      </trkpt>
      <trkpt lat="46.27591" lon="10.47884">
        <ele>2228.94840064</ele>
        <time>2018-09-21T12:03:05.004Z</time>
      </trkpt>
      <trkpt lat="46.27599" lon="10.47892">
        <ele>2229.84850048</ele>
        <time>2018-09-21T12:03:14.005Z</time>
      </trkpt>
      <trkpt lat="46.27605" lon="10.47901">
        <ele>2230.64839936</ele>
        <time>2018-09-21T12:03:22.004Z</time>
      </trkpt>
      <trkpt lat="46.27613" lon="10.4791">
        <ele>2232.09880064</ele>
        <time>2018-09-21T12:03:31.014Z</time>
      </trkpt>
      <trkpt lat="46.27615" lon="10.47924">
        <ele>2232.6500003187</ele>
        <time>2018-09-21T12:03:39.034Z</time>
      </trkpt>
      <trkpt lat="46.27622" lon="10.47932">
        <ele>2232.4744410416</ele>
        <time>2018-09-21T12:03:48.001Z</time>
      </trkpt>
      <trkpt lat="46.27628" lon="10.47942">
        <ele>2234.0169603253</ele>
        <time>2018-09-21T12:03:56.014Z</time>
      </trkpt>
      <trkpt lat="46.27636" lon="10.47949">
        <ele>2234.8432258637</ele>
        <time>2018-09-21T12:04:04.004Z</time>
      </trkpt>
      <trkpt lat="46.27643" lon="10.4796">
        <ele>2235</ele>
        <time>2018-09-21T12:04:12.000Z</time>
      </trkpt>
      <trkpt lat="46.27646" lon="10.47973">
        <ele>2235.5477568741</ele>
        <time>2018-09-21T12:04:21.014Z</time>
      </trkpt>
      <trkpt lat="46.27644" lon="10.47987">
        <ele>2235.4519556917</ele>
        <time>2018-09-21T12:04:31.014Z</time>
      </trkpt>
      <trkpt lat="46.27639" lon="10.47998">
        <ele>2235</ele>
        <time>2018-09-21T12:04:38.029Z</time>
      </trkpt>
      <trkpt lat="46.27639" lon="10.48011">
        <ele>2235.4457627292</ele>
        <time>2018-09-21T12:04:50.001Z</time>
      </trkpt>
      <trkpt lat="46.27638" lon="10.48026">
        <ele>2236</ele>
        <time>2018-09-21T12:04:58.032Z</time>
      </trkpt>
      <trkpt lat="46.27636" lon="10.48039">
        <ele>2236</ele>
        <time>2018-09-21T12:05:05.004Z</time>
      </trkpt>
      <trkpt lat="46.27635" lon="10.48052">
        <ele>2236.6479922892</ele>
        <time>2018-09-21T12:05:12.014Z</time>
      </trkpt>
      <trkpt lat="46.27638" lon="10.48065">
        <ele>2237.4463753894</ele>
        <time>2018-09-21T12:05:20.015Z</time>
      </trkpt>
      <trkpt lat="46.27642" lon="10.48077">
        <ele>2238.3438070796</ele>
        <time>2018-09-21T12:05:29.004Z</time>
      </trkpt>
      <trkpt lat="46.27646" lon="10.48089">
        <ele>2239</ele>
        <time>2018-09-21T12:05:38.034Z</time>
      </trkpt>
      <trkpt lat="46.2765" lon="10.48102">
        <ele>2238.7513507904</ele>
        <time>2018-09-21T12:05:48.014Z</time>
      </trkpt>
      <trkpt lat="46.27658" lon="10.48109">
        <ele>2238.0930495753</ele>
        <time>2018-09-21T12:05:56.002Z</time>
      </trkpt>
      <trkpt lat="46.27666" lon="10.48116">
        <ele>2239.9614127801</ele>
        <time>2018-09-21T12:06:06.004Z</time>
      </trkpt>
      <trkpt lat="46.27675" lon="10.48125">
        <ele>2237.158093278</ele>
        <time>2018-09-21T12:06:15.012Z</time>
      </trkpt>
      <trkpt lat="46.27685" lon="10.48131">
        <ele>2237</ele>
        <time>2018-09-21T12:06:22.014Z</time>
      </trkpt>
      <trkpt lat="46.27692" lon="10.4814">
        <ele>2235.904</ele>
        <time>2018-09-21T12:06:31.000Z</time>
      </trkpt>
      <trkpt lat="46.27699" lon="10.48148">
        <ele>2235</ele>
        <time>2018-09-21T12:06:41.004Z</time>
      </trkpt>
      <trkpt lat="46.27707" lon="10.48158">
        <ele>2234.8535115795</ele>
        <time>2018-09-21T12:06:47.001Z</time>
      </trkpt>
      <trkpt lat="46.27713" lon="10.48167">
        <ele>2234.0609297532</ele>
        <time>2018-09-21T12:06:55.014Z</time>
      </trkpt>
      <trkpt lat="46.27719" lon="10.48178">
        <ele>2234</ele>
        <time>2018-09-21T12:07:02.004Z</time>
      </trkpt>
      <trkpt lat="46.27718" lon="10.48192">
        <ele>2234.4306106538</ele>
        <time>2018-09-21T12:07:10.014Z</time>
      </trkpt>
      <trkpt lat="46.27722" lon="10.48204">
        <ele>2235.54840064</ele>
        <time>2018-09-21T12:07:21.004Z</time>
      </trkpt>
      <trkpt lat="46.27723" lon="10.48218">
        <ele>2236</ele>
        <time>2018-09-21T12:07:30.014Z</time>
      </trkpt>
      <trkpt lat="46.27723" lon="10.48233">
        <ele>2236.445518774</ele>
        <time>2018-09-21T12:07:40.014Z</time>
      </trkpt>
      <trkpt lat="46.2772" lon="10.48247">
        <ele>2237.3447111184</ele>
        <time>2018-09-21T12:07:48.974Z</time>
      </trkpt>
      <trkpt lat="46.27715" lon="10.48258">
        <ele>2238.2454638499</ele>
        <time>2018-09-21T12:07:58.002Z</time>
      </trkpt>
      <trkpt lat="46.27709" lon="10.48269">
        <ele>2239</ele>
        <time>2018-09-21T12:08:08.029Z</time>
      </trkpt>
      <trkpt lat="46.27711" lon="10.48282">
        <ele>2239</ele>
        <time>2018-09-21T12:08:17.004Z</time>
      </trkpt>
      <trkpt lat="46.27711" lon="10.48297">
        <ele>2239</ele>
        <time>2018-09-21T12:08:24.034Z</time>
      </trkpt>
      <trkpt lat="46.27714" lon="10.48311">
        <ele>2239.8467064889</ele>
        <time>2018-09-21T12:08:34.004Z</time>
      </trkpt>
      <trkpt lat="46.2772" lon="10.48321">
        <ele>2240</ele>
        <time>2018-09-21T12:08:41.001Z</time>
      </trkpt>
      <trkpt lat="46.27728" lon="10.48331">
        <ele>2239.3112657831</ele>
        <time>2018-09-21T12:08:48.974Z</time>
      </trkpt>
      <trkpt lat="46.27731" lon="10.48343">
        <ele>2237.9545099508</ele>
        <time>2018-09-21T12:08:56.004Z</time>
      </trkpt>
      <trkpt lat="46.27736" lon="10.48355">
        <ele>2237.0527044827</ele>
        <time>2018-09-21T12:09:05.004Z</time>
      </trkpt>
      <trkpt lat="46.27743" lon="10.48364">
        <ele>2238.6964953124</ele>
        <time>2018-09-21T12:09:14.004Z</time>
      </trkpt>
      <trkpt lat="46.27748" lon="10.48377">
        <ele>2238.2572838873</ele>
        <time>2018-09-21T12:09:23.014Z</time>
      </trkpt>
      <trkpt lat="46.27755" lon="10.48385">
        <ele>2237.7584262334</ele>
        <time>2018-09-21T12:09:28.004Z</time>
      </trkpt>
      <trkpt lat="46.27763" lon="10.48394">
        <ele>2237.0511599431</ele>
        <time>2018-09-21T12:09:35.013Z</time>
      </trkpt>
      <trkpt lat="46.27772" lon="10.484">
        <ele>2235.50340096</ele>
        <time>2018-09-21T12:09:43.003Z</time>
      </trkpt>
      <trkpt lat="46.27781" lon="10.48403">
        <ele>2233.3613526693</ele>
        <time>2018-09-21T12:09:51.004Z</time>
      </trkpt>
      <trkpt lat="46.27791" lon="10.48406">
        <ele>2231.308635502</ele>
        <time>2018-09-21T12:09:59.003Z</time>
      </trkpt>
      <trkpt lat="46.27801" lon="10.48404">
        <ele>2230.870088014</ele>
        <time>2018-09-21T12:10:10.014Z</time>
      </trkpt>
      <trkpt lat="46.27809" lon="10.48408">
        <ele>2231.3239894688</ele>
        <time>2018-09-21T12:10:18.029Z</time>
      </trkpt>
      <trkpt lat="46.27818" lon="10.48412">
        <ele>2229.470322409</ele>
        <time>2018-09-21T12:10:24.004Z</time>
      </trkpt>
      <trkpt lat="46.27828" lon="10.48416">
        <ele>2228.25159936</ele>
        <time>2018-09-21T12:10:33.004Z</time>
      </trkpt>
      <trkpt lat="46.27836" lon="10.48423">
        <ele>2227.5519439914</ele>
        <time>2018-09-21T12:10:40.014Z</time>
      </trkpt>
      <trkpt lat="46.27843" lon="10.48433">
        <ele>2226.6576804464</ele>
        <time>2018-09-21T12:10:49.004Z</time>
      </trkpt>
      <trkpt lat="46.27846" lon="10.48446">
        <ele>2225.9269234008</ele>
        <time>2018-09-21T12:10:56.001Z</time>
      </trkpt>
      <trkpt lat="46.27855" lon="10.4845">
        <ele>2224.3070859919</ele>
        <time>2018-09-21T12:11:04.003Z</time>
      </trkpt>
      <trkpt lat="46.27864" lon="10.48447">
        <ele>2227.708626746</ele>
        <time>2018-09-21T12:11:13.004Z</time>
      </trkpt>
      <trkpt lat="46.27874" lon="10.48445">
        <ele>2229.73929984</ele>
        <time>2018-09-21T12:11:23.003Z</time>
      </trkpt>
      <trkpt lat="46.27883" lon="10.4845">
        <ele>2231.4892269854</ele>
        <time>2018-09-21T12:11:33.004Z</time>
      </trkpt>
      <trkpt lat="46.27892" lon="10.48454">
        <ele>2233.696191297</ele>
        <time>2018-09-21T12:11:44.004Z</time>
      </trkpt>
      <trkpt lat="46.27901" lon="10.48458">
        <ele>2236</ele>
        <time>2018-09-21T12:11:57.004Z</time>
      </trkpt>
      <trkpt lat="46.2791" lon="10.48462">
        <ele>2236.04839936</ele>
        <time>2018-09-21T12:12:06.004Z</time>
      </trkpt>
      <trkpt lat="46.27918" lon="10.48468">
        <ele>2236.94940032</ele>
        <time>2018-09-21T12:12:15.014Z</time>
      </trkpt>
      <trkpt lat="46.27928" lon="10.48471">
        <ele>2237.09679872</ele>
        <time>2018-09-21T12:12:26.004Z</time>
      </trkpt>
      <trkpt lat="46.27937" lon="10.48467">
        <ele>2240.9384834493</ele>
        <time>2018-09-21T12:12:42.001Z</time>
      </trkpt>
      <trkpt lat="46.27946" lon="10.48465">
        <ele>2244.6457166534</ele>
        <time>2018-09-21T12:13:02.003Z</time>
      </trkpt>
      <trkpt lat="46.27956" lon="10.48466">
        <ele>2248.0258749334</ele>
        <time>2018-09-21T12:13:18.973Z</time>
      </trkpt>
      <trkpt lat="46.27965" lon="10.48465">
        <ele>2250.8418734702</ele>
        <time>2018-09-21T12:13:34.004Z</time>
      </trkpt>
      <trkpt lat="46.27974" lon="10.48463">
        <ele>2252.295913445</ele>
        <time>2018-09-21T12:13:47.004Z</time>
      </trkpt>
      <trkpt lat="46.27983" lon="10.4846">
        <ele>2254.6928795002</ele>
        <time>2018-09-21T12:13:59.004Z</time>
      </trkpt>
      <trkpt lat="46.27992" lon="10.48458">
        <ele>2256.7458620153</ele>
        <time>2018-09-21T12:14:13.001Z</time>
      </trkpt>
      <trkpt lat="46.28001" lon="10.48452">
        <ele>2258.0940832398</ele>
        <time>2018-09-21T12:14:21.004Z</time>
      </trkpt>
      <trkpt lat="46.2801" lon="10.48446">
        <ele>2259</ele>
        <time>2018-09-21T12:14:31.003Z</time>
      </trkpt>
      <trkpt lat="46.28019" lon="10.48443">
        <ele>2259.69659904</ele>
        <time>2018-09-21T12:14:39.003Z</time>
      </trkpt>
      <trkpt lat="46.28028" lon="10.48443">
        <ele>2261.6880484462</ele>
        <time>2018-09-21T12:14:48.974Z</time>
      </trkpt>
      <trkpt lat="46.28037" lon="10.48437">
        <ele>2263.2873645492</ele>
        <time>2018-09-21T12:14:57.004Z</time>
      </trkpt>
      <trkpt lat="46.28045" lon="10.48432">
        <ele>2265.1406669172</ele>
        <time>2018-09-21T12:15:07.004Z</time>
      </trkpt>
      <trkpt lat="46.28054" lon="10.48429">
        <ele>2266.2466725731</ele>
        <time>2018-09-21T12:15:18.004Z</time>
      </trkpt>
      <trkpt lat="46.28064" lon="10.48429">
        <ele>2267.3377247666</ele>
        <time>2018-09-21T12:15:28.974Z</time>
      </trkpt>
      <trkpt lat="46.28073" lon="10.48429">
        <ele>2268.2415737666</ele>
        <time>2018-09-21T12:15:38.004Z</time>
      </trkpt>
      <trkpt lat="46.28081" lon="10.48436">
        <ele>2269.8961120172</ele>
        <time>2018-09-21T12:15:50.014Z</time>
      </trkpt>
      <trkpt lat="46.28089" lon="10.48443">
        <ele>2272.4817090937</ele>
        <time>2018-09-21T12:16:03.003Z</time>
      </trkpt>
      <trkpt lat="46.28089" lon="10.48456">
        <ele>2273.9489408036</ele>
        <time>2018-09-21T12:16:15.014Z</time>
      </trkpt>
      <trkpt lat="46.28085" lon="10.48469">
        <ele>2277.5044509063</ele>
        <time>2018-09-21T12:16:32.014Z</time>
      </trkpt>
      <trkpt lat="46.2809" lon="10.4848">
        <ele>2279.8437762656</ele>
        <time>2018-09-21T12:16:44.014Z</time>
      </trkpt>
      <trkpt lat="46.28097" lon="10.48489">
        <ele>2282.29880064</ele>
        <time>2018-09-21T12:17:02.014Z</time>
      </trkpt>
      <trkpt lat="46.28103" lon="10.485">
        <ele>2286.0926304383</ele>
        <time>2018-09-21T12:17:21.005Z</time>
      </trkpt>
      <trkpt lat="46.28105" lon="10.48513">
        <ele>2287.7414349004</ele>
        <time>2018-09-21T12:17:33.004Z</time>
      </trkpt>
      <trkpt lat="46.28109" lon="10.48524">
        <ele>2289.6941522581</ele>
        <time>2018-09-21T12:17:44.003Z</time>
      </trkpt>
      <trkpt lat="46.28114" lon="10.48535">
        <ele>2292.7504470449</ele>
        <time>2018-09-21T12:17:58.034Z</time>
      </trkpt>
      <trkpt lat="46.28121" lon="10.48545">
        <ele>2295.4465333237</ele>
        <time>2018-09-21T12:18:10.013Z</time>
      </trkpt>
      <trkpt lat="46.28129" lon="10.48552">
        <ele>2296.3439247809</ele>
        <time>2018-09-21T12:18:18.973Z</time>
      </trkpt>
      <trkpt lat="46.28135" lon="10.48561">
        <ele>2297.888135948</ele>
        <time>2018-09-21T12:18:30.014Z</time>
      </trkpt>
      <trkpt lat="46.28143" lon="10.48568">
        <ele>2300.0902303614</ele>
        <time>2018-09-21T12:18:41.003Z</time>
      </trkpt>
      <trkpt lat="46.2815" lon="10.48577">
        <ele>2301.7431980161</ele>
        <time>2018-09-21T12:18:53.004Z</time>
      </trkpt>
      <trkpt lat="46.28159" lon="10.48579">
        <ele>2304.69700096</ele>
        <time>2018-09-21T12:19:09.005Z</time>
      </trkpt>
      <trkpt lat="46.28168" lon="10.48579">
        <ele>2307.4233183764</ele>
        <time>2018-09-21T12:19:27.004Z</time>
      </trkpt>
      <trkpt lat="46.28178" lon="10.48578">
        <ele>2313</ele>
        <time>2018-09-21T12:19:46.004Z</time>
      </trkpt>
      <trkpt lat="46.28187" lon="10.48575">
        <ele>2314.4412309824</ele>
        <time>2018-09-21T12:20:07.004Z</time>
      </trkpt>
      <trkpt lat="46.28194" lon="10.48566">
        <ele>2318.8978816071</ele>
        <time>2018-09-21T12:20:25.014Z</time>
      </trkpt>
      <trkpt lat="46.28202" lon="10.4856">
        <ele>2323.0877139141</ele>
        <time>2018-09-21T12:20:51.004Z</time>
      </trkpt>
      <trkpt lat="46.28206" lon="10.48548">
        <ele>2327.84829952</ele>
        <time>2018-09-21T12:21:14.003Z</time>
      </trkpt>
      <trkpt lat="46.28205" lon="10.48534">
        <ele>2332.492323831</ele>
        <time>2018-09-21T12:21:48.029Z</time>
      </trkpt>
      <trkpt lat="46.28207" lon="10.48521">
        <ele>2336.75300096</ele>
        <time>2018-09-21T12:22:08.030Z</time>
      </trkpt>
      <trkpt lat="46.28211" lon="10.48509">
        <ele>2339.0297224463</ele>
        <time>2018-09-21T12:22:28.973Z</time>
      </trkpt>
      <trkpt lat="46.28218" lon="10.48501">
        <ele>2344.6318517374</ele>
        <time>2018-09-21T12:22:54.003Z</time>
      </trkpt>
      <trkpt lat="46.28225" lon="10.48493">
        <ele>2350.0328027014</ele>
        <time>2018-09-21T12:23:18.973Z</time>
      </trkpt>
      <trkpt lat="46.28232" lon="10.48485">
        <ele>2353.501096231</ele>
        <time>2018-09-21T12:23:38.033Z</time>
      </trkpt>
      <trkpt lat="46.28237" lon="10.48473">
        <ele>2355.43289856</ele>
        <time>2018-09-21T12:23:57.003Z</time>
      </trkpt>
      <trkpt lat="46.28246" lon="10.48468">
        <ele>2358.6470888353</ele>
        <time>2018-09-21T12:24:12.005Z</time>
      </trkpt>
      <trkpt lat="46.28253" lon="10.4846">
        <ele>2361.09700096</ele>
        <time>2018-09-21T12:24:26.005Z</time>
      </trkpt>
      <trkpt lat="46.28259" lon="10.48451">
        <ele>2362.5513967594</ele>
        <time>2018-09-21T12:24:40.015Z</time>
      </trkpt>
      <trkpt lat="46.28265" lon="10.4844">
        <ele>2366.0893583936</ele>
        <time>2018-09-21T12:25:06.005Z</time>
      </trkpt>
      <trkpt lat="46.28273" lon="10.48435">
        <ele>2372.4881354375</ele>
        <time>2018-09-21T12:25:33.003Z</time>
      </trkpt>
      <trkpt lat="46.28282" lon="10.48429">
        <ele>2375.948352431</ele>
        <time>2018-09-21T12:25:55.013Z</time>
      </trkpt>
      <trkpt lat="46.28287" lon="10.48418">
        <ele>2380.64829952</ele>
        <time>2018-09-21T12:26:22.003Z</time>
      </trkpt>
      <trkpt lat="46.28288" lon="10.48405">
        <ele>2383.6441329249</ele>
        <time>2018-09-21T12:26:41.014Z</time>
      </trkpt>
      <trkpt lat="46.28296" lon="10.48396">
        <ele>2388.2891344242</ele>
        <time>2018-09-21T12:27:02.005Z</time>
      </trkpt>
      <trkpt lat="46.283" lon="10.48384">
        <ele>2392.2923527033</ele>
        <time>2018-09-21T12:27:22.003Z</time>
      </trkpt>
      <trkpt lat="46.28307" lon="10.48376">
        <ele>2395.9490968675</ele>
        <time>2018-09-21T12:27:45.013Z</time>
      </trkpt>
      <trkpt lat="46.28314" lon="10.48367">
        <ele>2399.2994026663</ele>
        <time>2018-09-21T12:28:02.030Z</time>
      </trkpt>
      <trkpt lat="46.28321" lon="10.48358">
        <ele>2400.9493989904</ele>
        <time>2018-09-21T12:28:15.015Z</time>
      </trkpt>
      <trkpt lat="46.2833" lon="10.48352">
        <ele>2403</ele>
        <time>2018-09-21T12:28:27.005Z</time>
      </trkpt>
      <trkpt lat="46.28336" lon="10.48342">
        <ele>2404.0947891977</ele>
        <time>2018-09-21T12:28:41.003Z</time>
      </trkpt>
      <trkpt lat="46.28342" lon="10.48332">
        <ele>2409.3463383258</ele>
        <time>2018-09-21T12:28:59.003Z</time>
      </trkpt>
      <trkpt lat="46.28351" lon="10.48328">
        <ele>2412</ele>
        <time>2018-09-21T12:29:18.973Z</time>
      </trkpt>
      <trkpt lat="46.2836" lon="10.48324">
        <ele>2413.0947891977</ele>
        <time>2018-09-21T12:29:31.003Z</time>
      </trkpt>
      <trkpt lat="46.28369" lon="10.48324">
        <ele>2414.74829952</ele>
        <time>2018-09-21T12:29:43.003Z</time>
      </trkpt>
      <trkpt lat="46.28378" lon="10.48328">
        <ele>2416.3361758053</ele>
        <time>2018-09-21T12:30:00.014Z</time>
      </trkpt>
      <trkpt lat="46.28387" lon="10.48325">
        <ele>2420.2090632669</ele>
        <time>2018-09-21T12:30:13.003Z</time>
      </trkpt>
      <trkpt lat="46.28396" lon="10.48325">
        <ele>2421</ele>
        <time>2018-09-21T12:30:23.003Z</time>
      </trkpt>
      <trkpt lat="46.28406" lon="10.48328">
        <ele>2420.5523567671</ele>
        <time>2018-09-21T12:30:30.013Z</time>
      </trkpt>
      <trkpt lat="46.28416" lon="10.48326">
        <ele>2419.7494518845</ele>
        <time>2018-09-21T12:30:38.033Z</time>
      </trkpt>
      <trkpt lat="46.28425" lon="10.48323">
        <ele>2418.8540619792</ele>
        <time>2018-09-21T12:30:47.005Z</time>
      </trkpt>
      <trkpt lat="46.28433" lon="10.48315">
        <ele>2418.0506518116</ele>
        <time>2018-09-21T12:30:55.015Z</time>
      </trkpt>
      <trkpt lat="46.28443" lon="10.48317">
        <ele>2416.30340096</ele>
        <time>2018-09-21T12:31:04.003Z</time>
      </trkpt>
      <trkpt lat="46.28452" lon="10.48321">
        <ele>2416</ele>
        <time>2018-09-21T12:31:15.012Z</time>
      </trkpt>
      <trkpt lat="46.28461" lon="10.48325">
        <ele>2416.74819968</ele>
        <time>2018-09-21T12:31:23.002Z</time>
      </trkpt>
      <trkpt lat="46.28468" lon="10.48333">
        <ele>2417</ele>
        <time>2018-09-21T12:31:33.002Z</time>
      </trkpt>
      <trkpt lat="46.28478" lon="10.48335">
        <ele>2418</ele>
        <time>2018-09-21T12:31:46.003Z</time>
      </trkpt>
      <trkpt lat="46.28487" lon="10.48337">
        <ele>2418</ele>
        <time>2018-09-21T12:31:54.003Z</time>
      </trkpt>
      <trkpt lat="46.28496" lon="10.48332">
        <ele>2418.74819968</ele>
        <time>2018-09-21T12:32:03.002Z</time>
      </trkpt>
      <trkpt lat="46.28504" lon="10.48324">
        <ele>2419.74850048</ele>
        <time>2018-09-21T12:32:13.005Z</time>
      </trkpt>
      <trkpt lat="46.28513" lon="10.48318">
        <ele>2420</ele>
        <time>2018-09-21T12:32:21.005Z</time>
      </trkpt>
      <trkpt lat="46.28522" lon="10.48312">
        <ele>2420.3199374222</ele>
        <time>2018-09-21T12:32:28.971Z</time>
      </trkpt>
      <trkpt lat="46.28532" lon="10.48308">
        <ele>2421.24809984</ele>
        <time>2018-09-21T12:32:38.001Z</time>
      </trkpt>
      <trkpt lat="46.28541" lon="10.48306">
        <ele>2422</ele>
        <time>2018-09-21T12:32:47.003Z</time>
      </trkpt>
      <trkpt lat="46.2855" lon="10.48303">
        <ele>2422.2861149528</ele>
        <time>2018-09-21T12:32:57.002Z</time>
      </trkpt>
      <trkpt lat="46.2856" lon="10.48303">
        <ele>2424.2949248302</ele>
        <time>2018-09-21T12:33:07.002Z</time>
      </trkpt>
      <trkpt lat="46.28569" lon="10.48298">
        <ele>2426.4871743569</ele>
        <time>2018-09-21T12:33:18.001Z</time>
      </trkpt>
      <trkpt lat="46.28578" lon="10.48293">
        <ele>2428.544211126</ele>
        <time>2018-09-21T12:33:31.003Z</time>
      </trkpt>
      <trkpt lat="46.28587" lon="10.48293">
        <ele>2429</ele>
        <time>2018-09-21T12:33:42.003Z</time>
      </trkpt>
      <trkpt lat="46.28598" lon="10.48293">
        <ele>2429</ele>
        <time>2018-09-21T12:33:51.003Z</time>
      </trkpt>
      <trkpt lat="46.28607" lon="10.48296">
        <ele>2429</ele>
        <time>2018-09-21T12:33:59.002Z</time>
      </trkpt>
      <trkpt lat="46.28615" lon="10.48303">
        <ele>2429.2955127272</ele>
        <time>2018-09-21T12:34:07.002Z</time>
      </trkpt>
      <trkpt lat="46.28625" lon="10.48303">
        <ele>2431.0903084405</ele>
        <time>2018-09-21T12:34:16.002Z</time>
      </trkpt>
      <trkpt lat="46.28634" lon="10.48308">
        <ele>2432.8905081768</ele>
        <time>2018-09-21T12:34:25.012Z</time>
      </trkpt>
      <trkpt lat="46.28643" lon="10.48311">
        <ele>2434.8989956627</ele>
        <time>2018-09-21T12:34:35.017Z</time>
      </trkpt>
      <trkpt lat="46.28651" lon="10.48317">
        <ele>2435</ele>
        <time>2018-09-21T12:34:44.003Z</time>
      </trkpt>
      <trkpt lat="46.28661" lon="10.48322">
        <ele>2435.7422615873</ele>
        <time>2018-09-21T12:34:53.002Z</time>
      </trkpt>
      <trkpt lat="46.2867" lon="10.48325">
        <ele>2436.6454632258</ele>
        <time>2018-09-21T12:35:02.003Z</time>
      </trkpt>
      <trkpt lat="46.28678" lon="10.48331">
        <ele>2437</ele>
        <time>2018-09-21T12:35:11.002Z</time>
      </trkpt>
      <trkpt lat="46.28687" lon="10.48335">
        <ele>2437.84819968</ele>
        <time>2018-09-21T12:35:24.002Z</time>
      </trkpt>
      <trkpt lat="46.28696" lon="10.48335">
        <ele>2441.0316439192</ele>
        <time>2018-09-21T12:35:36.003Z</time>
      </trkpt>
      <trkpt lat="46.28702" lon="10.48346">
        <ele>2443.84829952</ele>
        <time>2018-09-21T12:35:54.003Z</time>
      </trkpt>
      <trkpt lat="46.28701" lon="10.4836">
        <ele>2447.5465598256</ele>
        <time>2018-09-21T12:36:21.002Z</time>
      </trkpt>
      <trkpt lat="46.28701" lon="10.48373">
        <ele>2452.5432285796</ele>
        <time>2018-09-21T12:36:44.002Z</time>
      </trkpt>
      <trkpt lat="46.2871" lon="10.48378">
        <ele>2455.6479922892</ele>
        <time>2018-09-21T12:37:12.014Z</time>
      </trkpt>
      <trkpt lat="46.2872" lon="10.48378">
        <ele>2459.6344915248</ele>
        <time>2018-09-21T12:37:31.001Z</time>
      </trkpt>
      <trkpt lat="46.28729" lon="10.4838">
        <ele>2463.6475523349</ele>
        <time>2018-09-21T12:37:52.002Z</time>
      </trkpt>
      <trkpt lat="46.28738" lon="10.48374">
        <ele>2466.69639936</ele>
        <time>2018-09-21T12:38:14.002Z</time>
      </trkpt>
      <trkpt lat="46.28746" lon="10.48381">
        <ele>2472.0926778619</ele>
        <time>2018-09-21T12:38:36.001Z</time>
      </trkpt>
      <trkpt lat="46.28756" lon="10.48381">
        <ele>2474.2216211038</ele>
        <time>2018-09-21T12:38:48.032Z</time>
      </trkpt>
      <trkpt lat="46.28765" lon="10.48385">
        <ele>2478.448902163</ele>
        <time>2018-09-21T12:39:10.018Z</time>
      </trkpt>
      <trkpt lat="46.28774" lon="10.48382">
        <ele>2482.5003984064</ele>
        <time>2018-09-21T12:39:28.032Z</time>
      </trkpt>
      <trkpt lat="46.28783" lon="10.48382">
        <ele>2486.0479559568</ele>
        <time>2018-09-21T12:39:46.001Z</time>
      </trkpt>
      <trkpt lat="46.28792" lon="10.48378">
        <ele>2487.3462381854</ele>
        <time>2018-09-21T12:39:59.002Z</time>
      </trkpt>
      <trkpt lat="46.28801" lon="10.48382">
        <ele>2489.69639936</ele>
        <time>2018-09-21T12:40:14.002Z</time>
      </trkpt>
      <trkpt lat="46.28807" lon="10.48393">
        <ele>2492.0713272312</ele>
        <time>2018-09-21T12:40:26.002Z</time>
      </trkpt>
      <trkpt lat="46.28815" lon="10.48402">
        <ele>2494</ele>
        <time>2018-09-21T12:40:37.003Z</time>
      </trkpt>
      <trkpt lat="46.28824" lon="10.48409">
        <ele>2494.0480076494</ele>
        <time>2018-09-21T12:40:46.002Z</time>
      </trkpt>
      <trkpt lat="46.28833" lon="10.48404">
        <ele>2494.8448203984</ele>
        <time>2018-09-21T12:40:54.002Z</time>
      </trkpt>
      <trkpt lat="46.28838" lon="10.48391">
        <ele>2496.2937741365</ele>
        <time>2018-09-21T12:41:02.003Z</time>
      </trkpt>
      <trkpt lat="46.28843" lon="10.48379">
        <ele>2497.94969984</ele>
        <time>2018-09-21T12:41:15.017Z</time>
      </trkpt>
      <trkpt lat="46.28848" lon="10.48367">
        <ele>2500.5912173038</ele>
        <time>2018-09-21T12:41:27.001Z</time>
      </trkpt>
      <trkpt lat="46.28853" lon="10.48355">
        <ele>2504.8478955685</ele>
        <time>2018-09-21T12:41:44.002Z</time>
      </trkpt>
      <trkpt lat="46.28858" lon="10.48344">
        <ele>2506.3172063175</ele>
        <time>2018-09-21T12:41:58.972Z</time>
      </trkpt>
      <trkpt lat="46.28862" lon="10.48332">
        <ele>2509.0735005724</ele>
        <time>2018-09-21T12:42:16.002Z</time>
      </trkpt>
      <trkpt lat="46.28868" lon="10.48323">
        <ele>2515.2950196016</ele>
        <time>2018-09-21T12:42:37.001Z</time>
      </trkpt>
      <trkpt lat="46.28872" lon="10.48309">
        <ele>2520.343712994</ele>
        <time>2018-09-21T12:42:59.014Z</time>
      </trkpt>
      <trkpt lat="46.28875" lon="10.48297">
        <ele>2523.09959936</ele>
        <time>2018-09-21T12:43:21.018Z</time>
      </trkpt>
      <trkpt lat="46.28875" lon="10.48283">
        <ele>2527.69040128</ele>
        <time>2018-09-21T12:43:38.972Z</time>
      </trkpt>
      <trkpt lat="46.28881" lon="10.48273">
        <ele>2534.3448241705</ele>
        <time>2018-09-21T12:45:19.001Z</time>
      </trkpt>
      <trkpt lat="46.28887" lon="10.48263">
        <ele>2537.54459904</ele>
        <time>2018-09-21T12:45:34.002Z</time>
      </trkpt>
      <trkpt lat="46.28892" lon="10.48252">
        <ele>2541.75190016</ele>
        <time>2018-09-21T12:45:58.001Z</time>
      </trkpt>
      <trkpt lat="46.28896" lon="10.4824">
        <ele>2541.0990020592</ele>
        <time>2018-09-21T12:46:06.016Z</time>
      </trkpt>
      <trkpt lat="46.28899" lon="10.48226">
        <ele>2542.8928146222</ele>
        <time>2018-09-21T12:46:15.003Z</time>
      </trkpt>
      <trkpt lat="46.28904" lon="10.48215">
        <ele>2545.8301097252</ele>
        <time>2018-09-21T12:46:25.002Z</time>
      </trkpt>
      <trkpt lat="46.28913" lon="10.48212">
        <ele>2547</ele>
        <time>2018-09-21T12:46:38.003Z</time>
      </trkpt>
      <trkpt lat="46.28917" lon="10.482">
        <ele>2549</ele>
        <time>2018-09-21T12:47:02.001Z</time>
      </trkpt>
      <trkpt lat="46.28926" lon="10.48194">
        <ele>2550.04429952</ele>
        <time>2018-09-21T12:47:09.001Z</time>
      </trkpt>
      <trkpt lat="46.28935" lon="10.48189">
        <ele>2552.49639936</ele>
        <time>2018-09-21T12:47:18.002Z</time>
      </trkpt>
      <trkpt lat="46.28935" lon="10.48176">
        <ele>2555.3780473473</ele>
        <time>2018-09-21T12:47:28.972Z</time>
      </trkpt>
      <trkpt lat="46.28943" lon="10.4817">
        <ele>2559.74820096</ele>
        <time>2018-09-21T12:47:48.014Z</time>
      </trkpt>
      <trkpt lat="46.28952" lon="10.48166">
        <ele>2565.84809984</ele>
        <time>2018-09-21T12:48:34.001Z</time>
      </trkpt>
      <trkpt lat="46.28961" lon="10.48161">
        <ele>2568.0904704804</ele>
        <time>2018-09-21T12:48:46.001Z</time>
      </trkpt>
      <trkpt lat="46.28969" lon="10.48156">
        <ele>2571.940419922</ele>
        <time>2018-09-21T12:49:02.001Z</time>
      </trkpt>
      <trkpt lat="46.28977" lon="10.48151">
        <ele>2574.2909088119</ele>
        <time>2018-09-21T12:49:12.001Z</time>
      </trkpt>
      <trkpt lat="46.28986" lon="10.48145">
        <ele>2576.6954857197</ele>
        <time>2018-09-21T12:49:24.002Z</time>
      </trkpt>
      <trkpt lat="46.28984" lon="10.48133">
        <ele>2579.5543644444</ele>
        <time>2018-09-21T12:49:40.012Z</time>
      </trkpt>
      <trkpt lat="46.28993" lon="10.48132">
        <ele>2581</ele>
        <time>2018-09-21T12:50:02.002Z</time>
      </trkpt>
      <trkpt lat="46.29" lon="10.48122">
        <ele>2581</ele>
        <time>2018-09-21T12:50:09.014Z</time>
      </trkpt>
      <trkpt lat="46.29009" lon="10.48113">
        <ele>2580.7511482906</ele>
        <time>2018-09-21T12:50:18.031Z</time>
      </trkpt>
      <trkpt lat="46.29017" lon="10.48109">
        <ele>2580.1546458457</ele>
        <time>2018-09-21T12:50:24.002Z</time>
      </trkpt>
      <trkpt lat="46.29027" lon="10.48111">
        <ele>2580</ele>
        <time>2018-09-21T12:50:32.002Z</time>
      </trkpt>
      <trkpt lat="46.29035" lon="10.48117">
        <ele>2580.89840128</ele>
        <time>2018-09-21T12:50:40.012Z</time>
      </trkpt>
      <trkpt lat="46.29037" lon="10.48131">
        <ele>2582.09639936</ele>
        <time>2018-09-21T12:50:46.002Z</time>
      </trkpt>
      <trkpt lat="46.29041" lon="10.48142">
        <ele>2583.89900032</ele>
        <time>2018-09-21T12:50:55.015Z</time>
      </trkpt>
      <trkpt lat="46.29049" lon="10.48152">
        <ele>2587.0115266421</ele>
        <time>2018-09-21T12:51:26.001Z</time>
      </trkpt>
      <trkpt lat="46.29056" lon="10.48162">
        <ele>2588.44459904</ele>
        <time>2018-09-21T12:51:37.002Z</time>
      </trkpt>
      <trkpt lat="46.29063" lon="10.4817">
        <ele>2591.0952380952</ele>
        <time>2018-09-21T12:51:46.000Z</time>
      </trkpt>
      <trkpt lat="46.29071" lon="10.48177">
        <ele>2593.0806451613</ele>
        <time>2018-09-21T12:51:56.000Z</time>
      </trkpt>
      <trkpt lat="46.29079" lon="10.48183">
        <ele>2595.5009989627</ele>
        <time>2018-09-21T12:52:08.030Z</time>
      </trkpt>
      <trkpt lat="46.29086" lon="10.48193">
        <ele>2597.4933870984</ele>
        <time>2018-09-21T12:52:18.002Z</time>
      </trkpt>
      <trkpt lat="46.29095" lon="10.48195">
        <ele>2600.1486490815</ele>
        <time>2018-09-21T12:52:37.015Z</time>
      </trkpt>
      <trkpt lat="46.29104" lon="10.48197">
        <ele>2600.9481478444</ele>
        <time>2018-09-21T12:52:45.002Z</time>
      </trkpt>
      <trkpt lat="46.29113" lon="10.48205">
        <ele>2601</ele>
        <time>2018-09-21T12:52:52.015Z</time>
      </trkpt>
      <trkpt lat="46.29119" lon="10.48217">
        <ele>2600.10360064</ele>
        <time>2018-09-21T12:53:00.002Z</time>
      </trkpt>
      <trkpt lat="46.29127" lon="10.48227">
        <ele>2599.4475525906</ele>
        <time>2018-09-21T12:53:10.000Z</time>
      </trkpt>
      <trkpt lat="46.2912" lon="10.48238">
        <ele>2600.8961837751</ele>
        <time>2018-09-21T12:53:35.003Z</time>
      </trkpt>
      <trkpt lat="46.29112" lon="10.48243">
        <ele>2603</ele>
        <time>2018-09-21T12:53:58.003Z</time>
      </trkpt>
      <trkpt lat="46.29102" lon="10.48243">
        <ele>2603.4465134661</ele>
        <time>2018-09-21T12:54:10.003Z</time>
      </trkpt>
      <trkpt lat="46.29093" lon="10.4825">
        <ele>2603.9108446586</ele>
        <time>2018-09-21T12:54:16.004Z</time>
      </trkpt>
      <trkpt lat="46.29087" lon="10.48264">
        <ele>2602.9070290763</ele>
        <time>2018-09-21T12:54:21.003Z</time>
      </trkpt>
      <trkpt lat="46.29083" lon="10.48276">
        <ele>2602.1038162249</ele>
        <time>2018-09-21T12:54:25.003Z</time>
      </trkpt>
      <trkpt lat="46.29075" lon="10.48283">
        <ele>2603.4698437206</ele>
        <time>2018-09-21T12:54:43.002Z</time>
      </trkpt>
      <trkpt lat="46.29073" lon="10.48297">
        <ele>2602.6614477108</ele>
        <time>2018-09-21T12:54:50.004Z</time>
      </trkpt>
      <trkpt lat="46.29068" lon="10.48311">
        <ele>2601.155419759</ele>
        <time>2018-09-21T12:54:55.004Z</time>
      </trkpt>
      <trkpt lat="46.29059" lon="10.48319">
        <ele>2599.7067716335</ele>
        <time>2018-09-21T12:55:02.012Z</time>
      </trkpt>
      <trkpt lat="46.2905" lon="10.48323">
        <ele>2599.6911640161</ele>
        <time>2018-09-21T12:55:09.002Z</time>
      </trkpt>
      <trkpt lat="46.29041" lon="10.48328">
        <ele>2600.70139904</ele>
        <time>2018-09-21T12:55:17.013Z</time>
      </trkpt>
      <trkpt lat="46.29038" lon="10.48341">
        <ele>2599.10340096</ele>
        <time>2018-09-21T12:55:25.003Z</time>
      </trkpt>
      <trkpt lat="46.29039" lon="10.48356">
        <ele>2595.1306845265</ele>
        <time>2018-09-21T12:55:32.014Z</time>
      </trkpt>
      <trkpt lat="46.29034" lon="10.48367">
        <ele>2589.4600006723</ele>
        <time>2018-09-21T12:55:54.002Z</time>
      </trkpt>
      <trkpt lat="46.29026" lon="10.48375">
        <ele>2585.554086472</ele>
        <time>2018-09-21T12:56:00.004Z</time>
      </trkpt>
      <trkpt lat="46.29021" lon="10.48389">
        <ele>2581</ele>
        <time>2018-09-21T12:56:06.005Z</time>
      </trkpt>
      <trkpt lat="46.29022" lon="10.48402">
        <ele>2581</ele>
        <time>2018-09-21T12:56:14.004Z</time>
      </trkpt>
      <trkpt lat="46.29022" lon="10.48415">
        <ele>2579.70159872</ele>
        <time>2018-09-21T12:56:22.012Z</time>
      </trkpt>
      <trkpt lat="46.29021" lon="10.48429">
        <ele>2578.2591051969</ele>
        <time>2018-09-21T12:56:28.002Z</time>
      </trkpt>
      <trkpt lat="46.29017" lon="10.48442">
        <ele>2575.5688223108</ele>
        <time>2018-09-21T12:56:37.013Z</time>
      </trkpt>
      <trkpt lat="46.29012" lon="10.48456">
        <ele>2573.7789845418</ele>
        <time>2018-09-21T12:56:43.003Z</time>
      </trkpt>
      <trkpt lat="46.29011" lon="10.48469">
        <ele>2571.6304753565</ele>
        <time>2018-09-21T12:56:49.003Z</time>
      </trkpt>
      <trkpt lat="46.29005" lon="10.48478">
        <ele>2569.2082718197</ele>
        <time>2018-09-21T12:56:55.004Z</time>
      </trkpt>
      <trkpt lat="46.28995" lon="10.48484">
        <ele>2567.90360064</ele>
        <time>2018-09-21T12:57:01.002Z</time>
      </trkpt>
      <trkpt lat="46.28988" lon="10.48492">
        <ele>2567.24839936</ele>
        <time>2018-09-21T12:57:08.004Z</time>
      </trkpt>
      <trkpt lat="46.28979" lon="10.48499">
        <ele>2567.94819968</ele>
        <time>2018-09-21T12:57:15.002Z</time>
      </trkpt>
      <trkpt lat="46.28972" lon="10.48509">
        <ele>2568</ele>
        <time>2018-09-21T12:57:23.003Z</time>
      </trkpt>
      <trkpt lat="46.28969" lon="10.48522">
        <ele>2567.1124753188</ele>
        <time>2018-09-21T12:57:30.002Z</time>
      </trkpt>
      <trkpt lat="46.28965" lon="10.48533">
        <ele>2564.3687199629</ele>
        <time>2018-09-21T12:57:38.004Z</time>
      </trkpt>
      <trkpt lat="46.28961" lon="10.4852">
        <ele>2558.3099601594</ele>
        <time>2018-09-21T12:58:08.984Z</time>
      </trkpt>
      <trkpt lat="46.28957" lon="10.48508">
        <ele>2557.5071706773</ele>
        <time>2018-09-21T12:58:13.014Z</time>
      </trkpt>
      <trkpt lat="46.28952" lon="10.48519">
        <ele>2551.1680693976</ele>
        <time>2018-09-21T12:58:22.014Z</time>
      </trkpt>
      <trkpt lat="46.28948" lon="10.48532">
        <ele>2547.5031866136</ele>
        <time>2018-09-21T12:58:28.014Z</time>
      </trkpt>
      <trkpt lat="46.28941" lon="10.48543">
        <ele>2546.30796749</ele>
        <time>2018-09-21T12:58:34.014Z</time>
      </trkpt>
      <trkpt lat="46.28934" lon="10.48553">
        <ele>2544.661120424</ele>
        <time>2018-09-21T12:58:40.014Z</time>
      </trkpt>
      <trkpt lat="46.2893" lon="10.48566">
        <ele>2542.1217423248</ele>
        <time>2018-09-21T12:58:47.014Z</time>
      </trkpt>
      <trkpt lat="46.28921" lon="10.48573">
        <ele>2537.9509392807</ele>
        <time>2018-09-21T12:58:54.014Z</time>
      </trkpt>
      <trkpt lat="46.28911" lon="10.48568">
        <ele>2537</ele>
        <time>2018-09-21T12:58:59.014Z</time>
      </trkpt>
      <trkpt lat="46.28903" lon="10.48574">
        <ele>2536.7045826295</ele>
        <time>2018-09-21T12:59:07.003Z</time>
      </trkpt>
      <trkpt lat="46.28897" lon="10.48584">
        <ele>2535.3105580876</ele>
        <time>2018-09-21T12:59:14.001Z</time>
      </trkpt>
      <trkpt lat="46.28891" lon="10.48595">
        <ele>2531.7144559036</ele>
        <time>2018-09-21T12:59:21.014Z</time>
      </trkpt>
      <trkpt lat="46.28886" lon="10.48605">
        <ele>2528.3093257143</ele>
        <time>2018-09-21T12:59:29.001Z</time>
      </trkpt>
      <trkpt lat="46.28878" lon="10.48613">
        <ele>2527.3172622222</ele>
        <time>2018-09-21T12:59:34.001Z</time>
      </trkpt>
      <trkpt lat="46.28873" lon="10.48627">
        <ele>2526.5578319679</ele>
        <time>2018-09-21T12:59:40.004Z</time>
      </trkpt>
      <trkpt lat="46.28864" lon="10.48631">
        <ele>2525.56710144</ele>
        <time>2018-09-21T12:59:47.003Z</time>
      </trkpt>
      <trkpt lat="46.28862" lon="10.48618">
        <ele>2523.46649856</ele>
        <time>2018-09-21T12:59:54.005Z</time>
      </trkpt>
      <trkpt lat="46.28864" lon="10.48604">
        <ele>2521.2705799197</ele>
        <time>2018-09-21T12:59:59.005Z</time>
      </trkpt>
      <trkpt lat="46.28857" lon="10.48613">
        <ele>2517.50340096</ele>
        <time>2018-09-21T13:00:08.003Z</time>
      </trkpt>
      <trkpt lat="46.28847" lon="10.48618">
        <ele>2515.80279808</ele>
        <time>2018-09-21T13:00:16.013Z</time>
      </trkpt>
      <trkpt lat="46.28849" lon="10.48604">
        <ele>2513.40599808</ele>
        <time>2018-09-21T13:00:22.005Z</time>
      </trkpt>
      <trkpt lat="46.28847" lon="10.4859">
        <ele>2510.51020288</ele>
        <time>2018-09-21T13:00:28.003Z</time>
      </trkpt>
      <trkpt lat="46.28839" lon="10.48585">
        <ele>2506.91020288</ele>
        <time>2018-09-21T13:00:34.003Z</time>
      </trkpt>
      <trkpt lat="46.28836" lon="10.4857">
        <ele>2507</ele>
        <time>2018-09-21T13:00:48.970Z</time>
      </trkpt>
      <trkpt lat="46.28835" lon="10.48557">
        <ele>2507</ele>
        <time>2018-09-21T13:00:55.003Z</time>
      </trkpt>
      <trkpt lat="46.28834" lon="10.48544">
        <ele>2506.4698854113</ele>
        <time>2018-09-21T13:01:01.015Z</time>
      </trkpt>
      <trkpt lat="46.28832" lon="10.4853">
        <ele>2506</ele>
        <time>2018-09-21T13:01:06.012Z</time>
      </trkpt>
      <trkpt lat="46.2883" lon="10.48514">
        <ele>2506</ele>
        <time>2018-09-21T13:01:12.002Z</time>
      </trkpt>
      <trkpt lat="46.28829" lon="10.48501">
        <ele>2506</ele>
        <time>2018-09-21T13:01:18.029Z</time>
      </trkpt>
      <trkpt lat="46.28826" lon="10.48488">
        <ele>2506.1412834365</ele>
        <time>2018-09-21T13:01:26.010Z</time>
      </trkpt>
      <trkpt lat="46.28824" lon="10.48475">
        <ele>2508.8445878351</ele>
        <time>2018-09-21T13:01:35.003Z</time>
      </trkpt>
      <trkpt lat="46.28823" lon="10.48461">
        <ele>2507.3151951332</ele>
        <time>2018-09-21T13:01:44.003Z</time>
      </trkpt>
      <trkpt lat="46.28822" lon="10.48447">
        <ele>2507.6448693086</ele>
        <time>2018-09-21T13:01:52.000Z</time>
      </trkpt>
      <trkpt lat="46.28825" lon="10.48434">
        <ele>2507.5543368122</ele>
        <time>2018-09-21T13:02:00.000Z</time>
      </trkpt>
      <trkpt lat="46.28826" lon="10.4842">
        <ele>2507.345682249</ele>
        <time>2018-09-21T13:02:09.003Z</time>
      </trkpt>
      <trkpt lat="46.28818" lon="10.48409">
        <ele>2507.9508469947</ele>
        <time>2018-09-21T13:02:16.013Z</time>
      </trkpt>
      <trkpt lat="46.28809" lon="10.48409">
        <ele>2507.3535402262</ele>
        <time>2018-09-21T13:02:22.004Z</time>
      </trkpt>
      <trkpt lat="46.28799" lon="10.48407">
        <ele>2507</ele>
        <time>2018-09-21T13:02:28.004Z</time>
      </trkpt>
      <trkpt lat="46.28788" lon="10.48406">
        <ele>2507</ele>
        <time>2018-09-21T13:02:33.003Z</time>
      </trkpt>
      <trkpt lat="46.28779" lon="10.48414">
        <ele>2506.55540096</ele>
        <time>2018-09-21T13:02:37.002Z</time>
      </trkpt>
      <trkpt lat="46.28773" lon="10.48426">
        <ele>2505.05480192</ele>
        <time>2018-09-21T13:02:42.004Z</time>
      </trkpt>
      <trkpt lat="46.28763" lon="10.48434">
        <ele>2501.26980352</ele>
        <time>2018-09-21T13:02:48.002Z</time>
      </trkpt>
      <trkpt lat="46.28755" lon="10.48436">
        <ele>2496.86870528</ele>
        <time>2018-09-21T13:02:52.003Z</time>
      </trkpt>
      <trkpt lat="46.28745" lon="10.48441">
        <ele>2492.40720128</ele>
        <time>2018-09-21T13:02:57.002Z</time>
      </trkpt>
      <trkpt lat="46.28736" lon="10.48445">
        <ele>2490.80239872</ele>
        <time>2018-09-21T13:03:01.014Z</time>
      </trkpt>
      <trkpt lat="46.28727" lon="10.48449">
        <ele>2489.20639744</ele>
        <time>2018-09-21T13:03:05.004Z</time>
      </trkpt>
      <trkpt lat="46.28717" lon="10.48456">
        <ele>2487.65540096</ele>
        <time>2018-09-21T13:03:10.002Z</time>
      </trkpt>
      <trkpt lat="46.28708" lon="10.48459">
        <ele>2486.15510144</ele>
        <time>2018-09-21T13:03:15.003Z</time>
      </trkpt>
      <trkpt lat="46.287" lon="10.48464">
        <ele>2483.30899712</ele>
        <time>2018-09-21T13:03:20.005Z</time>
      </trkpt>
      <trkpt lat="46.28691" lon="10.48472">
        <ele>2479.85239808</ele>
        <time>2018-09-21T13:03:26.012Z</time>
      </trkpt>
      <trkpt lat="46.28682" lon="10.48477">
        <ele>2478.35149952</ele>
        <time>2018-09-21T13:03:31.015Z</time>
      </trkpt>
      <trkpt lat="46.28672" lon="10.48478">
        <ele>2477.15540096</ele>
        <time>2018-09-21T13:03:35.002Z</time>
      </trkpt>
      <trkpt lat="46.28661" lon="10.48476">
        <ele>2475.20640256</ele>
        <time>2018-09-21T13:03:40.004Z</time>
      </trkpt>
      <trkpt lat="46.28651" lon="10.48474">
        <ele>2473.60720128</ele>
        <time>2018-09-21T13:03:44.002Z</time>
      </trkpt>
      <trkpt lat="46.28641" lon="10.48476">
        <ele>2471.95540096</ele>
        <time>2018-09-21T13:03:49.002Z</time>
      </trkpt>
      <trkpt lat="46.28631" lon="10.48478">
        <ele>2470.75479808</ele>
        <time>2018-09-21T13:03:53.004Z</time>
      </trkpt>
      <trkpt lat="46.28621" lon="10.4848">
        <ele>2469.2609529881</ele>
        <time>2018-09-21T13:03:57.004Z</time>
      </trkpt>
      <trkpt lat="46.28612" lon="10.4848">
        <ele>2466.7719139442</ele>
        <time>2018-09-21T13:04:02.002Z</time>
      </trkpt>
      <trkpt lat="46.28602" lon="10.48485">
        <ele>2464.5060937482</ele>
        <time>2018-09-21T13:04:08.032Z</time>
      </trkpt>
      <trkpt lat="46.28593" lon="10.48493">
        <ele>2463.3128878523</ele>
        <time>2018-09-21T13:04:14.004Z</time>
      </trkpt>
      <trkpt lat="46.28584" lon="10.48494">
        <ele>2459.8938616623</ele>
        <time>2018-09-21T13:04:19.004Z</time>
      </trkpt>
      <trkpt lat="46.28573" lon="10.48497">
        <ele>2454.4667277293</ele>
        <time>2018-09-21T13:04:25.004Z</time>
      </trkpt>
      <trkpt lat="46.28563" lon="10.485">
        <ele>2453.45069952</ele>
        <time>2018-09-21T13:04:31.013Z</time>
      </trkpt>
      <trkpt lat="46.28553" lon="10.48499">
        <ele>2452.70479616</ele>
        <time>2018-09-21T13:04:36.012Z</time>
      </trkpt>
      <trkpt lat="46.28542" lon="10.48497">
        <ele>2449.70480384</ele>
        <time>2018-09-21T13:04:41.012Z</time>
      </trkpt>
      <trkpt lat="46.2853" lon="10.48498">
        <ele>2446.90159872</ele>
        <time>2018-09-21T13:04:46.012Z</time>
      </trkpt>
      <trkpt lat="46.2852" lon="10.48495">
        <ele>2445.90119936</ele>
        <time>2018-09-21T13:04:51.014Z</time>
      </trkpt>
      <trkpt lat="46.2851" lon="10.48493">
        <ele>2444.557155908</ele>
        <time>2018-09-21T13:04:57.005Z</time>
      </trkpt>
      <trkpt lat="46.285" lon="10.48494">
        <ele>2442.1723685583</ele>
        <time>2018-09-21T13:05:05.002Z</time>
      </trkpt>
      <trkpt lat="46.2849" lon="10.48493">
        <ele>2442</ele>
        <time>2018-09-21T13:05:10.002Z</time>
      </trkpt>
      <trkpt lat="46.28481" lon="10.48494">
        <ele>2442</ele>
        <time>2018-09-21T13:05:15.002Z</time>
      </trkpt>
      <trkpt lat="46.2847" lon="10.48495">
        <ele>2437.05539712</ele>
        <time>2018-09-21T13:05:21.014Z</time>
      </trkpt>
      <trkpt lat="46.2846" lon="10.48498">
        <ele>2432.85159936</ele>
        <time>2018-09-21T13:05:27.004Z</time>
      </trkpt>
      <trkpt lat="46.2845" lon="10.485">
        <ele>2432.35160064</ele>
        <time>2018-09-21T13:05:32.004Z</time>
      </trkpt>
      <trkpt lat="46.28439" lon="10.48504">
        <ele>2430.96260224</ele>
        <time>2018-09-21T13:05:37.002Z</time>
      </trkpt>
      <trkpt lat="46.28428" lon="10.48505">
        <ele>2427.46120448</ele>
        <time>2018-09-21T13:05:42.004Z</time>
      </trkpt>
      <trkpt lat="46.28419" lon="10.48506">
        <ele>2424.70299904</ele>
        <time>2018-09-21T13:05:47.005Z</time>
      </trkpt>
      <trkpt lat="46.28408" lon="10.48513">
        <ele>2421.66620288</ele>
        <time>2018-09-21T13:05:57.002Z</time>
      </trkpt>
      <trkpt lat="46.28401" lon="10.48521">
        <ele>2416.26620288</ele>
        <time>2018-09-21T13:06:03.002Z</time>
      </trkpt>
      <trkpt lat="46.28392" lon="10.48528">
        <ele>2413.30319872</ele>
        <time>2018-09-21T13:06:09.004Z</time>
      </trkpt>
      <trkpt lat="46.28382" lon="10.48529">
        <ele>2412.10299904</ele>
        <time>2018-09-21T13:06:15.005Z</time>
      </trkpt>
      <trkpt lat="46.28373" lon="10.48532">
        <ele>2410.20640256</ele>
        <time>2018-09-21T13:06:20.004Z</time>
      </trkpt>
      <trkpt lat="46.28364" lon="10.48535">
        <ele>2408.20720128</ele>
        <time>2018-09-21T13:06:25.002Z</time>
      </trkpt>
      <trkpt lat="46.28354" lon="10.48536">
        <ele>2404.86190336</ele>
        <time>2018-09-21T13:06:30.003Z</time>
      </trkpt>
      <trkpt lat="46.28345" lon="10.48542">
        <ele>2401.36119552</ele>
        <time>2018-09-21T13:06:35.004Z</time>
      </trkpt>
      <trkpt lat="46.28336" lon="10.4855">
        <ele>2400.10320128</ele>
        <time>2018-09-21T13:06:40.004Z</time>
      </trkpt>
      <trkpt lat="46.28326" lon="10.48553">
        <ele>2397.66439424</ele>
        <time>2018-09-21T13:06:47.004Z</time>
      </trkpt>
      <trkpt lat="46.28317" lon="10.48557">
        <ele>2392.26620288</ele>
        <time>2018-09-21T13:06:53.002Z</time>
      </trkpt>
      <trkpt lat="46.28307" lon="10.48559">
        <ele>2389.00640256</ele>
        <time>2018-09-21T13:06:58.004Z</time>
      </trkpt>
      <trkpt lat="46.28297" lon="10.4856">
        <ele>2387.008</ele>
        <time>2018-09-21T13:07:03.000Z</time>
      </trkpt>
      <trkpt lat="46.28288" lon="10.48566">
        <ele>2384.6601612749</ele>
        <time>2018-09-21T13:07:10.004Z</time>
      </trkpt>
      <trkpt lat="46.2828" lon="10.48571">
        <ele>2383.1661335458</ele>
        <time>2018-09-21T13:07:15.004Z</time>
      </trkpt>
      <trkpt lat="46.2827" lon="10.4857">
        <ele>2379.186010529</ele>
        <time>2018-09-21T13:07:21.014Z</time>
      </trkpt>
      <trkpt lat="46.28261" lon="10.48572">
        <ele>2375.711756957</ele>
        <time>2018-09-21T13:07:27.004Z</time>
      </trkpt>
      <trkpt lat="46.28251" lon="10.48573">
        <ele>2373.85209856</ele>
        <time>2018-09-21T13:07:36.013Z</time>
      </trkpt>
      <trkpt lat="46.28242" lon="10.48579">
        <ele>2371.45480192</ele>
        <time>2018-09-21T13:07:44.004Z</time>
      </trkpt>
      <trkpt lat="46.28232" lon="10.48584">
        <ele>2368.90959616</ele>
        <time>2018-09-21T13:07:49.004Z</time>
      </trkpt>
      <trkpt lat="46.28225" lon="10.48591">
        <ele>2365.91020288</ele>
        <time>2018-09-21T13:07:54.003Z</time>
      </trkpt>
      <trkpt lat="46.28221" lon="10.48606">
        <ele>2363.354047346</ele>
        <time>2018-09-21T13:08:01.012Z</time>
      </trkpt>
      <trkpt lat="46.28218" lon="10.48619">
        <ele>2361.807003225</ele>
        <time>2018-09-21T13:08:06.012Z</time>
      </trkpt>
      <trkpt lat="46.28218" lon="10.48633">
        <ele>2359.4086094387</ele>
        <time>2018-09-21T13:08:12.002Z</time>
      </trkpt>
      <trkpt lat="46.28218" lon="10.48646">
        <ele>2357.85239808</ele>
        <time>2018-09-21T13:08:16.012Z</time>
      </trkpt>
      <trkpt lat="46.28216" lon="10.48659">
        <ele>2356.35240192</ele>
        <time>2018-09-21T13:08:21.012Z</time>
      </trkpt>
      <trkpt lat="46.28207" lon="10.48654">
        <ele>2353.7580032</ele>
        <time>2018-09-21T13:08:28.004Z</time>
      </trkpt>
      <trkpt lat="46.28201" lon="10.48644">
        <ele>2351.2590016</ele>
        <time>2018-09-21T13:08:33.002Z</time>
      </trkpt>
      <trkpt lat="46.28194" lon="10.48636">
        <ele>2348.35179904</ele>
        <time>2018-09-21T13:08:41.014Z</time>
      </trkpt>
      <trkpt lat="46.28192" lon="10.48622">
        <ele>2346.40239872</ele>
        <time>2018-09-21T13:08:47.014Z</time>
      </trkpt>
      <trkpt lat="46.28189" lon="10.48608">
        <ele>2344.00239872</ele>
        <time>2018-09-21T13:08:53.014Z</time>
      </trkpt>
      <trkpt lat="46.28185" lon="10.48595">
        <ele>2340.90359808</ele>
        <time>2018-09-21T13:08:59.014Z</time>
      </trkpt>
      <trkpt lat="46.28179" lon="10.48585">
        <ele>2337.30359808</ele>
        <time>2018-09-21T13:09:05.014Z</time>
      </trkpt>
      <trkpt lat="46.28173" lon="10.48574">
        <ele>2335.9131550028</ele>
        <time>2018-09-21T13:09:11.014Z</time>
      </trkpt>
      <trkpt lat="46.2817" lon="10.48587">
        <ele>2333.2268952807</ele>
        <time>2018-09-21T13:09:20.014Z</time>
      </trkpt>
      <trkpt lat="46.2817" lon="10.48601">
        <ele>2330.552693367</ele>
        <time>2018-09-21T13:09:27.014Z</time>
      </trkpt>
      <trkpt lat="46.2817" lon="10.48616">
        <ele>2328.4568836451</ele>
        <time>2018-09-21T13:09:34.014Z</time>
      </trkpt>
      <trkpt lat="46.28168" lon="10.48629">
        <ele>2327.1034054647</ele>
        <time>2018-09-21T13:09:40.014Z</time>
      </trkpt>
      <trkpt lat="46.28163" lon="10.48643">
        <ele>2323.04809984</ele>
        <time>2018-09-21T13:10:06.001Z</time>
      </trkpt>
      <trkpt lat="46.28156" lon="10.48652">
        <ele>2324</ele>
        <time>2018-09-21T13:10:44.002Z</time>
      </trkpt>
      <trkpt lat="46.28147" lon="10.48658">
        <ele>2323.35160064</ele>
        <time>2018-09-21T13:10:52.004Z</time>
      </trkpt>
      <trkpt lat="46.28138" lon="10.48664">
        <ele>2322.40639744</ele>
        <time>2018-09-21T13:10:57.004Z</time>
      </trkpt>
      <trkpt lat="46.28128" lon="10.4867">
        <ele>2319.60640256</ele>
        <time>2018-09-21T13:11:04.004Z</time>
      </trkpt>
      <trkpt lat="46.28118" lon="10.48674">
        <ele>2318.3038946026</ele>
        <time>2018-09-21T13:11:09.004Z</time>
      </trkpt>
      <trkpt lat="46.28109" lon="10.48681">
        <ele>2317.3048958417</ele>
        <time>2018-09-21T13:11:14.004Z</time>
      </trkpt>
      <trkpt lat="46.28101" lon="10.4869">
        <ele>2315.6098102551</ele>
        <time>2018-09-21T13:11:19.002Z</time>
      </trkpt>
      <trkpt lat="46.28091" lon="10.48699">
        <ele>2313.6078088944</ele>
        <time>2018-09-21T13:11:24.002Z</time>
      </trkpt>
      <trkpt lat="46.28084" lon="10.48707">
        <ele>2311.60720128</ele>
        <time>2018-09-21T13:11:29.002Z</time>
      </trkpt>
      <trkpt lat="46.28076" lon="10.48714">
        <ele>2309.60640256</ele>
        <time>2018-09-21T13:11:34.004Z</time>
      </trkpt>
      <trkpt lat="46.28067" lon="10.4872">
        <ele>2307.6188275501</ele>
        <time>2018-09-21T13:11:39.004Z</time>
      </trkpt>
      <trkpt lat="46.28059" lon="10.48728">
        <ele>2306.0334994754</ele>
        <time>2018-09-21T13:11:43.003Z</time>
      </trkpt>
      <trkpt lat="46.28049" lon="10.48732">
        <ele>2304.3150336016</ele>
        <time>2018-09-21T13:11:49.004Z</time>
      </trkpt>
      <trkpt lat="46.28044" lon="10.48742">
        <ele>2303.3063577618</ele>
        <time>2018-09-21T13:11:54.002Z</time>
      </trkpt>
      <trkpt lat="46.28039" lon="10.48754">
        <ele>2302.00720128</ele>
        <time>2018-09-21T13:11:58.002Z</time>
      </trkpt>
      <trkpt lat="46.2803" lon="10.48765">
        <ele>2300.00639744</ele>
        <time>2018-09-21T13:12:03.004Z</time>
      </trkpt>
      <trkpt lat="46.2802" lon="10.48768">
        <ele>2298.65180032</ele>
        <time>2018-09-21T13:12:09.002Z</time>
      </trkpt>
      <trkpt lat="46.28009" lon="10.48769">
        <ele>2298.15190016</ele>
        <time>2018-09-21T13:12:14.001Z</time>
      </trkpt>
      <trkpt lat="46.27999" lon="10.48773">
        <ele>2296.20360192</ele>
        <time>2018-09-21T13:12:20.011Z</time>
      </trkpt>
      <trkpt lat="46.2799" lon="10.48781">
        <ele>2294.20320256</ele>
        <time>2018-09-21T13:12:25.012Z</time>
      </trkpt>
      <trkpt lat="46.27981" lon="10.48788">
        <ele>2292.65179904</ele>
        <time>2018-09-21T13:12:30.014Z</time>
      </trkpt>
      <trkpt lat="46.27972" lon="10.48795">
        <ele>2291.15179904</ele>
        <time>2018-09-21T13:12:35.014Z</time>
      </trkpt>
      <trkpt lat="46.27963" lon="10.48801">
        <ele>2289.65179904</ele>
        <time>2018-09-21T13:12:40.014Z</time>
      </trkpt>
      <trkpt lat="46.27955" lon="10.48807">
        <ele>2288.15179904</ele>
        <time>2018-09-21T13:12:45.014Z</time>
      </trkpt>
      <trkpt lat="46.27945" lon="10.48813">
        <ele>2286.65179904</ele>
        <time>2018-09-21T13:12:50.014Z</time>
      </trkpt>
      <trkpt lat="46.27939" lon="10.48823">
        <ele>2284.80640256</ele>
        <time>2018-09-21T13:12:56.004Z</time>
      </trkpt>
      <trkpt lat="46.27934" lon="10.48836">
        <ele>2282.80720128</ele>
        <time>2018-09-21T13:13:01.002Z</time>
      </trkpt>
      <trkpt lat="46.2793" lon="10.48849">
        <ele>2280.7038966486</ele>
        <time>2018-09-21T13:13:07.002Z</time>
      </trkpt>
      <trkpt lat="46.2792" lon="10.48853">
        <ele>2279.5050950666</ele>
        <time>2018-09-21T13:13:13.002Z</time>
      </trkpt>
      <trkpt lat="46.27912" lon="10.48861">
        <ele>2277.9573576913</ele>
        <time>2018-09-21T13:13:19.002Z</time>
      </trkpt>
      <trkpt lat="46.27903" lon="10.48867">
        <ele>2276.4558566708</ele>
        <time>2018-09-21T13:13:24.002Z</time>
      </trkpt>
      <trkpt lat="46.27896" lon="10.48874">
        <ele>2274.6585060803</ele>
        <time>2018-09-21T13:13:30.014Z</time>
      </trkpt>
      <trkpt lat="46.27887" lon="10.48881">
        <ele>2272.5685423699</ele>
        <time>2018-09-21T13:13:37.001Z</time>
      </trkpt>
      <trkpt lat="46.2788" lon="10.48889">
        <ele>2270.1525618002</ele>
        <time>2018-09-21T13:13:45.014Z</time>
      </trkpt>
      <trkpt lat="46.27875" lon="10.48902">
        <ele>2268.30360064</ele>
        <time>2018-09-21T13:13:54.002Z</time>
      </trkpt>
      <trkpt lat="46.27872" lon="10.48917">
        <ele>2267.1277662895</ele>
        <time>2018-09-21T13:14:00.012Z</time>
      </trkpt>
      <trkpt lat="46.27867" lon="10.48928">
        <ele>2266</ele>
        <time>2018-09-21T13:14:06.004Z</time>
      </trkpt>
      <trkpt lat="46.27861" lon="10.4894">
        <ele>2266</ele>
        <time>2018-09-21T13:14:11.001Z</time>
      </trkpt>
      <trkpt lat="46.27855" lon="10.4895">
        <ele>2265.95180032</ele>
        <time>2018-09-21T13:14:16.002Z</time>
      </trkpt>
      <trkpt lat="46.27846" lon="10.48958">
        <ele>2265.15180032</ele>
        <time>2018-09-21T13:14:24.002Z</time>
      </trkpt>
      <trkpt lat="46.27839" lon="10.48965">
        <ele>2264.5638831448</ele>
        <time>2018-09-21T13:14:30.012Z</time>
      </trkpt>
      <trkpt lat="46.27832" lon="10.48975">
        <ele>2264</ele>
        <time>2018-09-21T13:14:36.002Z</time>
      </trkpt>
      <trkpt lat="46.27824" lon="10.48984">
        <ele>2264</ele>
        <time>2018-09-21T13:14:43.004Z</time>
      </trkpt>
      <trkpt lat="46.27814" lon="10.48986">
        <ele>2263.45180032</ele>
        <time>2018-09-21T13:14:51.002Z</time>
      </trkpt>
      <trkpt lat="46.27806" lon="10.48992">
        <ele>2262.25540096</ele>
        <time>2018-09-21T13:14:58.002Z</time>
      </trkpt>
      <trkpt lat="46.27798" lon="10.48996">
        <ele>2260</ele>
        <time>2018-09-21T13:15:08.004Z</time>
      </trkpt>
      <trkpt lat="46.27788" lon="10.49">
        <ele>2260.14840064</ele>
        <time>2018-09-21T13:15:27.004Z</time>
      </trkpt>
      <trkpt lat="46.2778" lon="10.49007">
        <ele>2260.95149952</ele>
        <time>2018-09-21T13:15:36.005Z</time>
      </trkpt>
      <trkpt lat="46.27771" lon="10.49012">
        <ele>2260.25180032</ele>
        <time>2018-09-21T13:15:43.002Z</time>
      </trkpt>
      <trkpt lat="46.27767" lon="10.49026">
        <ele>2259.00720128</ele>
        <time>2018-09-21T13:15:48.002Z</time>
      </trkpt>
      <trkpt lat="46.27765" lon="10.49038">
        <ele>2256.60720128</ele>
        <time>2018-09-21T13:15:54.002Z</time>
      </trkpt>
      <trkpt lat="46.2776" lon="10.49051">
        <ele>2254.05510144</ele>
        <time>2018-09-21T13:16:02.003Z</time>
      </trkpt>
      <trkpt lat="46.27752" lon="10.49061">
        <ele>2253</ele>
        <time>2018-09-21T13:16:09.002Z</time>
      </trkpt>
      <trkpt lat="46.27746" lon="10.49073">
        <ele>2253</ele>
        <time>2018-09-21T13:16:15.015Z</time>
      </trkpt>
      <trkpt lat="46.27739" lon="10.49084">
        <ele>2251.35479808</ele>
        <time>2018-09-21T13:16:21.004Z</time>
      </trkpt>
      <trkpt lat="46.27732" lon="10.49093">
        <ele>2249.6520483203</ele>
        <time>2018-09-21T13:16:29.003Z</time>
      </trkpt>
      <trkpt lat="46.27722" lon="10.49098">
        <ele>2248.8566563048</ele>
        <time>2018-09-21T13:16:37.005Z</time>
      </trkpt>
      <trkpt lat="46.27715" lon="10.49107">
        <ele>2248.2738587921</ele>
        <time>2018-09-21T13:16:43.002Z</time>
      </trkpt>
      <trkpt lat="46.27709" lon="10.49121">
        <ele>2247.5676289106</ele>
        <time>2018-09-21T13:16:50.014Z</time>
      </trkpt>
      <trkpt lat="46.27703" lon="10.49131">
        <ele>2247.1564952785</ele>
        <time>2018-09-21T13:16:54.002Z</time>
      </trkpt>
      <trkpt lat="46.27696" lon="10.49143">
        <ele>2245.95449856</ele>
        <time>2018-09-21T13:16:59.005Z</time>
      </trkpt>
      <trkpt lat="46.2769" lon="10.49153">
        <ele>2244.45540096</ele>
        <time>2018-09-21T13:17:04.002Z</time>
      </trkpt>
      <trkpt lat="46.27682" lon="10.49163">
        <ele>2243.6521480606</ele>
        <time>2018-09-21T13:17:09.002Z</time>
      </trkpt>
      <trkpt lat="46.27677" lon="10.49175">
        <ele>2243.051748588</ele>
        <time>2018-09-21T13:17:15.012Z</time>
      </trkpt>
      <trkpt lat="46.2767" lon="10.49187">
        <ele>2241.2042028575</ele>
        <time>2018-09-21T13:17:20.015Z</time>
      </trkpt>
      <trkpt lat="46.27666" lon="10.49199">
        <ele>2239.6078088944</ele>
        <time>2018-09-21T13:17:24.002Z</time>
      </trkpt>
      <trkpt lat="46.27661" lon="10.49211">
        <ele>2237.95510144</ele>
        <time>2018-09-21T13:17:29.003Z</time>
      </trkpt>
      <trkpt lat="46.27656" lon="10.49224">
        <ele>2236.15149952</ele>
        <time>2018-09-21T13:17:35.015Z</time>
      </trkpt>
      <trkpt lat="46.27652" lon="10.49238">
        <ele>2235.55069952</ele>
        <time>2018-09-21T13:17:40.013Z</time>
      </trkpt>
      <trkpt lat="46.27648" lon="10.49251">
        <ele>2234.90299904</ele>
        <time>2018-09-21T13:17:46.005Z</time>
      </trkpt>
      <trkpt lat="46.27644" lon="10.49265">
        <ele>2233.90319872</ele>
        <time>2018-09-21T13:17:51.004Z</time>
      </trkpt>
      <trkpt lat="46.2764" lon="10.49278">
        <ele>2231.6073902441</ele>
        <time>2018-09-21T13:17:59.005Z</time>
      </trkpt>
      <trkpt lat="46.27638" lon="10.49292">
        <ele>2229.2057923535</ele>
        <time>2018-09-21T13:18:05.015Z</time>
      </trkpt>
      <trkpt lat="46.27639" lon="10.49307">
        <ele>2227.5041045833</ele>
        <time>2018-09-21T13:18:13.002Z</time>
      </trkpt>
      <trkpt lat="46.27636" lon="10.49321">
        <ele>2225.60720128</ele>
        <time>2018-09-21T13:18:19.002Z</time>
      </trkpt>
      <trkpt lat="46.27635" lon="10.49334">
        <ele>2222.85540096</ele>
        <time>2018-09-21T13:18:26.002Z</time>
      </trkpt>
      <trkpt lat="46.27632" lon="10.49349">
        <ele>2221.35540096</ele>
        <time>2018-09-21T13:18:31.002Z</time>
      </trkpt>
      <trkpt lat="46.2763" lon="10.49364">
        <ele>2219.70299904</ele>
        <time>2018-09-21T13:18:37.005Z</time>
      </trkpt>
      <trkpt lat="46.27632" lon="10.49378">
        <ele>2218.50360064</ele>
        <time>2018-09-21T13:18:43.002Z</time>
      </trkpt>
      <trkpt lat="46.27636" lon="10.49392">
        <ele>2216.7622161477</ele>
        <time>2018-09-21T13:18:48.003Z</time>
      </trkpt>
      <trkpt lat="46.27632" lon="10.49407">
        <ele>2213.7716878894</ele>
        <time>2018-09-21T13:18:54.002Z</time>
      </trkpt>
      <trkpt lat="46.27627" lon="10.49421">
        <ele>2210.8130403412</ele>
        <time>2018-09-21T13:19:01.001Z</time>
      </trkpt>
      <trkpt lat="46.27624" lon="10.49434">
        <ele>2208.90360064</ele>
        <time>2018-09-21T13:19:06.002Z</time>
      </trkpt>
      <trkpt lat="46.27622" lon="10.49447">
        <ele>2208.10119936</ele>
        <time>2018-09-21T13:19:10.014Z</time>
      </trkpt>
      <trkpt lat="46.2762" lon="10.49461">
        <ele>2207.10119936</ele>
        <time>2018-09-21T13:19:15.014Z</time>
      </trkpt>
      <trkpt lat="46.27619" lon="10.49476">
        <ele>2205.65149952</ele>
        <time>2018-09-21T13:19:20.015Z</time>
      </trkpt>
      <trkpt lat="46.27617" lon="10.49489">
        <ele>2204.15179904</ele>
        <time>2018-09-21T13:19:25.014Z</time>
      </trkpt>
      <trkpt lat="46.27616" lon="10.49504">
        <ele>2200.8528</ele>
        <time>2018-09-21T13:19:30.016Z</time>
      </trkpt>
      <trkpt lat="46.27613" lon="10.49517">
        <ele>2198.06190336</ele>
        <time>2018-09-21T13:19:34.003Z</time>
      </trkpt>
      <trkpt lat="46.27611" lon="10.49531">
        <ele>2196.65149952</ele>
        <time>2018-09-21T13:19:39.005Z</time>
      </trkpt>
      <trkpt lat="46.2761" lon="10.49547">
        <ele>2196.15160064</ele>
        <time>2018-09-21T13:19:44.004Z</time>
      </trkpt>
      <trkpt lat="46.2761" lon="10.49562">
        <ele>2192.9557244547</ele>
        <time>2018-09-21T13:19:49.004Z</time>
      </trkpt>
      <trkpt lat="46.27611" lon="10.49577">
        <ele>2187.7016570397</ele>
        <time>2018-09-21T13:19:55.017Z</time>
      </trkpt>
      <trkpt lat="46.27612" lon="10.4959">
        <ele>2183.8139195473</ele>
        <time>2018-09-21T13:20:02.001Z</time>
      </trkpt>
      <trkpt lat="46.27608" lon="10.49601">
        <ele>2181.65159936</ele>
        <time>2018-09-21T13:20:09.004Z</time>
      </trkpt>
      <trkpt lat="46.27598" lon="10.49602">
        <ele>2180.00640256</ele>
        <time>2018-09-21T13:20:18.004Z</time>
      </trkpt>
      <trkpt lat="46.27589" lon="10.49599">
        <ele>2177.60680192</ele>
        <time>2018-09-21T13:20:24.003Z</time>
      </trkpt>
      <trkpt lat="46.2758" lon="10.49603">
        <ele>2168</ele>
        <time>2018-09-21T13:26:07.002Z</time>
      </trkpt>
      <trkpt lat="46.27571" lon="10.4961">
        <ele>2167.4656709052</ele>
        <time>2018-09-21T13:26:21.003Z</time>
      </trkpt>
      <trkpt lat="46.27562" lon="10.49613">
        <ele>2166.35149952</ele>
        <time>2018-09-21T13:26:52.005Z</time>
      </trkpt>
      <trkpt lat="46.27553" lon="10.49617">
        <ele>2165.3059748207</ele>
        <time>2018-09-21T13:26:59.004Z</time>
      </trkpt>
      <trkpt lat="46.27543" lon="10.49619">
        <ele>2164.1109571315</ele>
        <time>2018-09-21T13:27:05.003Z</time>
      </trkpt>
      <trkpt lat="46.27533" lon="10.49618">
        <ele>2163.1078322892</ele>
        <time>2018-09-21T13:27:10.003Z</time>
      </trkpt>
      <trkpt lat="46.27524" lon="10.49622">
        <ele>2162.1034126908</ele>
        <time>2018-09-21T13:27:15.005Z</time>
      </trkpt>
      <trkpt lat="46.27517" lon="10.49615">
        <ele>2159.40640256</ele>
        <time>2018-09-21T13:27:22.004Z</time>
      </trkpt>
      <trkpt lat="46.27509" lon="10.49605">
        <ele>2154.60640256</ele>
        <time>2018-09-21T13:27:34.004Z</time>
      </trkpt>
      <trkpt lat="46.27504" lon="10.49616">
        <ele>2152.2598075279</ele>
        <time>2018-09-21T13:27:40.001Z</time>
      </trkpt>
      <trkpt lat="46.27503" lon="10.49631">
        <ele>2150</ele>
        <time>2018-09-21T13:27:46.001Z</time>
      </trkpt>
      <trkpt lat="46.275" lon="10.49646">
        <ele>2150</ele>
        <time>2018-09-21T13:27:52.001Z</time>
      </trkpt>
      <trkpt lat="46.27498" lon="10.49658">
        <ele>2149.7040961292</ele>
        <time>2018-09-21T13:27:57.001Z</time>
      </trkpt>
      <trkpt lat="46.27496" lon="10.49673">
        <ele>2148.3054942835</ele>
        <time>2018-09-21T13:28:04.001Z</time>
      </trkpt>
      <trkpt lat="46.27498" lon="10.49687">
        <ele>2147.453992205</ele>
        <time>2018-09-21T13:28:11.001Z</time>
      </trkpt>
      <trkpt lat="46.27499" lon="10.497">
        <ele>2146.7524579346</ele>
        <time>2018-09-21T13:28:18.018Z</time>
      </trkpt>
      <trkpt lat="46.275" lon="10.49715">
        <ele>2146.1520568592</ele>
        <time>2018-09-21T13:28:24.004Z</time>
      </trkpt>
      <trkpt lat="46.275" lon="10.49729">
        <ele>2144.9567434027</ele>
        <time>2018-09-21T13:28:29.001Z</time>
      </trkpt>
      <trkpt lat="46.275" lon="10.49743">
        <ele>2143.1585410297</ele>
        <time>2018-09-21T13:28:35.001Z</time>
      </trkpt>
      <trkpt lat="46.27502" lon="10.49757">
        <ele>2142.2511515512</ele>
        <time>2018-09-21T13:28:43.011Z</time>
      </trkpt>
      <trkpt lat="46.27503" lon="10.49771">
        <ele>2141.55190016</ele>
        <time>2018-09-21T13:28:50.001Z</time>
      </trkpt>
      <trkpt lat="46.27504" lon="10.49785">
        <ele>2140.85570048</ele>
        <time>2018-09-21T13:28:56.001Z</time>
      </trkpt>
      <trkpt lat="46.27505" lon="10.49799">
        <ele>2139.05570048</ele>
        <time>2018-09-21T13:29:02.001Z</time>
      </trkpt>
      <trkpt lat="46.27508" lon="10.49814">
        <ele>2137.7048764831</ele>
        <time>2018-09-21T13:29:07.003Z</time>
      </trkpt>
      <trkpt lat="46.27512" lon="10.49826">
        <ele>2136.710248664</ele>
        <time>2018-09-21T13:29:12.001Z</time>
      </trkpt>
      <trkpt lat="46.27516" lon="10.49838">
        <ele>2135.330147281</ele>
        <time>2018-09-21T13:29:19.003Z</time>
      </trkpt>
      <trkpt lat="46.27522" lon="10.49848">
        <ele>2134.1594166702</ele>
        <time>2018-09-21T13:29:25.003Z</time>
      </trkpt>
      <trkpt lat="46.27526" lon="10.4986">
        <ele>2133.4656709052</ele>
        <time>2018-09-21T13:29:31.003Z</time>
      </trkpt>
      <trkpt lat="46.2753" lon="10.49872">
        <ele>2132.50139904</ele>
        <time>2018-09-21T13:29:38.013Z</time>
      </trkpt>
      <trkpt lat="46.27534" lon="10.49885">
        <ele>2131.30119936</ele>
        <time>2018-09-21T13:29:44.014Z</time>
      </trkpt>
      <trkpt lat="46.27539" lon="10.49897">
        <ele>2130.104780239</ele>
        <time>2018-09-21T13:29:50.014Z</time>
      </trkpt>
      <trkpt lat="46.27543" lon="10.4991">
        <ele>2127.2785024</ele>
        <time>2018-09-21T13:29:59.003Z</time>
      </trkpt>
      <trkpt lat="46.27552" lon="10.49917">
        <ele>2123.7553560744</ele>
        <time>2018-09-21T13:30:08.004Z</time>
      </trkpt>
      <trkpt lat="46.27559" lon="10.49925">
        <ele>2123.1548556061</ele>
        <time>2018-09-21T13:30:14.003Z</time>
      </trkpt>
      <trkpt lat="46.27566" lon="10.49936">
        <ele>2121.9083088608</ele>
        <time>2018-09-21T13:30:21.003Z</time>
      </trkpt>
      <trkpt lat="46.27574" lon="10.49944">
        <ele>2120.8534522191</ele>
        <time>2018-09-21T13:30:27.004Z</time>
      </trkpt>
      <trkpt lat="46.27582" lon="10.49952">
        <ele>2120.152952904</ele>
        <time>2018-09-21T13:30:34.002Z</time>
      </trkpt>
      <trkpt lat="46.2759" lon="10.49959">
        <ele>2119.5521469098</ele>
        <time>2018-09-21T13:30:40.013Z</time>
      </trkpt>
      <trkpt lat="46.276" lon="10.49966">
        <ele>2119.0525465103</ele>
        <time>2018-09-21T13:30:45.014Z</time>
      </trkpt>
      <trkpt lat="46.27607" lon="10.49974">
        <ele>2119</ele>
        <time>2018-09-21T13:30:50.014Z</time>
      </trkpt>
      <trkpt lat="46.27614" lon="10.49985">
        <ele>2118.85080064</ele>
        <time>2018-09-21T13:30:57.012Z</time>
      </trkpt>
      <trkpt lat="46.27621" lon="10.49992">
        <ele>2118</ele>
        <time>2018-09-21T13:31:06.003Z</time>
      </trkpt>
      <trkpt lat="46.27632" lon="10.49995">
        <ele>2118</ele>
        <time>2018-09-21T13:31:14.003Z</time>
      </trkpt>
      <trkpt lat="46.27641" lon="10.5">
        <ele>2118</ele>
        <time>2018-09-21T13:31:22.014Z</time>
      </trkpt>
      <trkpt lat="46.27649" lon="10.50006">
        <ele>2118</ele>
        <time>2018-09-21T13:31:26.003Z</time>
      </trkpt>
      <trkpt lat="46.27657" lon="10.50012">
        <ele>2118</ele>
        <time>2018-09-21T13:31:32.003Z</time>
      </trkpt>
      <trkpt lat="46.27666" lon="10.50016">
        <ele>2117.5589359036</ele>
        <time>2018-09-21T13:31:40.003Z</time>
      </trkpt>
      <trkpt lat="46.27676" lon="10.5002">
        <ele>2117</ele>
        <time>2018-09-21T13:31:46.003Z</time>
      </trkpt>
      <trkpt lat="46.27684" lon="10.50024">
        <ele>2117</ele>
        <time>2018-09-21T13:31:52.014Z</time>
      </trkpt>
      <trkpt lat="46.27693" lon="10.50026">
        <ele>2117</ele>
        <time>2018-09-21T13:31:59.012Z</time>
      </trkpt>
      <trkpt lat="46.27702" lon="10.50027">
        <ele>2117</ele>
        <time>2018-09-21T13:32:05.003Z</time>
      </trkpt>
      <trkpt lat="46.27712" lon="10.50029">
        <ele>2117</ele>
        <time>2018-09-21T13:32:11.003Z</time>
      </trkpt>
      <trkpt lat="46.27722" lon="10.5003">
        <ele>2117.14829952</ele>
        <time>2018-09-21T13:32:17.003Z</time>
      </trkpt>
      <trkpt lat="46.27732" lon="10.5003">
        <ele>2118.0934227271</ele>
        <time>2018-09-21T13:32:26.003Z</time>
      </trkpt>
      <trkpt lat="46.27742" lon="10.50034">
        <ele>2119.8342361837</ele>
        <time>2018-09-21T13:32:35.003Z</time>
      </trkpt>
      <trkpt lat="46.27749" lon="10.50043">
        <ele>2120</ele>
        <time>2018-09-21T13:32:41.003Z</time>
      </trkpt>
      <trkpt lat="46.27756" lon="10.50053">
        <ele>2119.752</ele>
        <time>2018-09-21T13:32:48.000Z</time>
      </trkpt>
      <trkpt lat="46.27765" lon="10.50059">
        <ele>2119.05170048</ele>
        <time>2018-09-21T13:32:55.003Z</time>
      </trkpt>
      <trkpt lat="46.27772" lon="10.50068">
        <ele>2119</ele>
        <time>2018-09-21T13:33:02.002Z</time>
      </trkpt>
      <trkpt lat="46.27779" lon="10.50077">
        <ele>2119.89679872</ele>
        <time>2018-09-21T13:33:10.004Z</time>
      </trkpt>
      <trkpt lat="46.27785" lon="10.50087">
        <ele>2121</ele>
        <time>2018-09-21T13:33:17.004Z</time>
      </trkpt>
      <trkpt lat="46.27793" lon="10.50094">
        <ele>2121</ele>
        <time>2018-09-21T13:33:23.004Z</time>
      </trkpt>
      <trkpt lat="46.27802" lon="10.501">
        <ele>2120.6509509026</ele>
        <time>2018-09-21T13:33:29.017Z</time>
      </trkpt>
      <trkpt lat="46.27812" lon="10.50103">
        <ele>2120.0515510546</ele>
        <time>2018-09-21T13:33:35.005Z</time>
      </trkpt>
      <trkpt lat="46.27821" lon="10.50108">
        <ele>2120</ele>
        <time>2018-09-21T13:33:41.003Z</time>
      </trkpt>
      <trkpt lat="46.27829" lon="10.50115">
        <ele>2119.851848584</ele>
        <time>2018-09-21T13:33:47.003Z</time>
      </trkpt>
      <trkpt lat="46.27838" lon="10.50121">
        <ele>2119.2525475333</ele>
        <time>2018-09-21T13:33:53.002Z</time>
      </trkpt>
      <trkpt lat="46.27847" lon="10.50127">
        <ele>2118.504705504</ele>
        <time>2018-09-21T13:33:58.004Z</time>
      </trkpt>
      <trkpt lat="46.27854" lon="10.50134">
        <ele>2117.3015007643</ele>
        <time>2018-09-21T13:34:04.014Z</time>
      </trkpt>
      <trkpt lat="46.27861" lon="10.50146">
        <ele>2116.45170048</ele>
        <time>2018-09-21T13:34:11.003Z</time>
      </trkpt>
      <trkpt lat="46.27869" lon="10.50154">
        <ele>2115.6621732183</ele>
        <time>2018-09-21T13:34:19.003Z</time>
      </trkpt>
      <trkpt lat="46.27874" lon="10.50167">
        <ele>2115</ele>
        <time>2018-09-21T13:34:26.003Z</time>
      </trkpt>
      <trkpt lat="46.27882" lon="10.50177">
        <ele>2115</ele>
        <time>2018-09-21T13:34:32.013Z</time>
      </trkpt>
      <trkpt lat="46.27889" lon="10.50188">
        <ele>2115</ele>
        <time>2018-09-21T13:34:40.001Z</time>
      </trkpt>
      <trkpt lat="46.27894" lon="10.502">
        <ele>2115.14930048</ele>
        <time>2018-09-21T13:34:47.013Z</time>
      </trkpt>
      <trkpt lat="46.27899" lon="10.50212">
        <ele>2115.84829952</ele>
        <time>2018-09-21T13:34:54.003Z</time>
      </trkpt>
      <trkpt lat="46.27906" lon="10.50222">
        <ele>2116.74829952</ele>
        <time>2018-09-21T13:35:03.003Z</time>
      </trkpt>
      <trkpt lat="46.27915" lon="10.50222">
        <ele>2117</ele>
        <time>2018-09-21T13:35:11.003Z</time>
      </trkpt>
      <trkpt lat="46.27925" lon="10.5022">
        <ele>2117.14899968</ele>
        <time>2018-09-21T13:35:17.010Z</time>
      </trkpt>
      <trkpt lat="46.27934" lon="10.5022">
        <ele>2117.848</ele>
        <time>2018-09-21T13:35:24.000Z</time>
      </trkpt>
      <trkpt lat="46.27943" lon="10.50223">
        <ele>2118</ele>
        <time>2018-09-21T13:35:31.001Z</time>
      </trkpt>
      <trkpt lat="46.27952" lon="10.50222">
        <ele>2118.870483964</ele>
        <time>2018-09-21T13:35:40.003Z</time>
      </trkpt>
      <trkpt lat="46.27962" lon="10.50224">
        <ele>2120.6562867835</ele>
        <time>2018-09-21T13:35:49.003Z</time>
      </trkpt>
      <trkpt lat="46.27971" lon="10.50226">
        <ele>2122.69659904</ele>
        <time>2018-09-21T13:35:59.003Z</time>
      </trkpt>
      <trkpt lat="46.2798" lon="10.50228">
        <ele>2124.34809984</ele>
        <time>2018-09-21T13:36:09.001Z</time>
      </trkpt>
      <trkpt lat="46.2799" lon="10.50227">
        <ele>2125</ele>
        <time>2018-09-21T13:36:18.003Z</time>
      </trkpt>
      <trkpt lat="46.27999" lon="10.50228">
        <ele>2125</ele>
        <time>2018-09-21T13:36:25.003Z</time>
      </trkpt>
      <trkpt lat="46.28009" lon="10.50228">
        <ele>2125</ele>
        <time>2018-09-21T13:36:33.001Z</time>
      </trkpt>
      <trkpt lat="46.28019" lon="10.50231">
        <ele>2125.4456365723</ele>
        <time>2018-09-21T13:36:40.003Z</time>
      </trkpt>
      <trkpt lat="46.28028" lon="10.50233">
        <ele>2126.34740096</ele>
        <time>2018-09-21T13:36:49.004Z</time>
      </trkpt>
      <trkpt lat="46.28038" lon="10.50234">
        <ele>2127</ele>
        <time>2018-09-21T13:36:57.013Z</time>
      </trkpt>
      <trkpt lat="46.28048" lon="10.50237">
        <ele>2127</ele>
        <time>2018-09-21T13:37:04.004Z</time>
      </trkpt>
      <trkpt lat="46.28057" lon="10.50239">
        <ele>2127</ele>
        <time>2018-09-21T13:37:11.003Z</time>
      </trkpt>
      <trkpt lat="46.28067" lon="10.50237">
        <ele>2126.55149952</ele>
        <time>2018-09-21T13:37:20.005Z</time>
      </trkpt>
      <trkpt lat="46.28076" lon="10.5024">
        <ele>2125.8508486237</ele>
        <time>2018-09-21T13:37:27.013Z</time>
      </trkpt>
      <trkpt lat="46.28086" lon="10.50239">
        <ele>2125.252447793</ele>
        <time>2018-09-21T13:37:33.003Z</time>
      </trkpt>
      <trkpt lat="46.28096" lon="10.50242">
        <ele>2123.9894285193</ele>
        <time>2018-09-21T13:37:39.003Z</time>
      </trkpt>
      <trkpt lat="46.28106" lon="10.50242">
        <ele>2121.9491755372</ele>
        <time>2018-09-21T13:37:46.004Z</time>
      </trkpt>
      <trkpt lat="46.28116" lon="10.50242">
        <ele>2120.0868786777</ele>
        <time>2018-09-21T13:37:52.013Z</time>
      </trkpt>
      <trkpt lat="46.28125" lon="10.50245">
        <ele>2119</ele>
        <time>2018-09-21T13:37:59.003Z</time>
      </trkpt>
      <trkpt lat="46.28135" lon="10.50245">
        <ele>2119.0476796992</ele>
        <time>2018-09-21T13:38:06.003Z</time>
      </trkpt>
      <trkpt lat="46.28144" lon="10.50247">
        <ele>2119.8372162961</ele>
        <time>2018-09-21T13:38:14.001Z</time>
      </trkpt>
      <trkpt lat="46.28154" lon="10.50244">
        <ele>2120</ele>
        <time>2018-09-21T13:38:21.000Z</time>
      </trkpt>
      <trkpt lat="46.28163" lon="10.50241">
        <ele>2120</ele>
        <time>2018-09-21T13:38:27.013Z</time>
      </trkpt>
      <trkpt lat="46.28173" lon="10.50236">
        <ele>2120</ele>
        <time>2018-09-21T13:38:33.003Z</time>
      </trkpt>
      <trkpt lat="46.28183" lon="10.50236">
        <ele>2120.4471942623</ele>
        <time>2018-09-21T13:38:40.003Z</time>
      </trkpt>
      <trkpt lat="46.28192" lon="10.50236">
        <ele>2121</ele>
        <time>2018-09-21T13:38:47.010Z</time>
      </trkpt>
      <trkpt lat="46.28202" lon="10.5024">
        <ele>2121</ele>
        <time>2018-09-21T13:38:53.003Z</time>
      </trkpt>
      <trkpt lat="46.28212" lon="10.5024">
        <ele>2122.6122777726</ele>
        <time>2018-09-21T13:39:01.005Z</time>
      </trkpt>
      <trkpt lat="46.28222" lon="10.50243">
        <ele>2124.3403841295</ele>
        <time>2018-09-21T13:39:09.003Z</time>
      </trkpt>
      <trkpt lat="46.28231" lon="10.50248">
        <ele>2125.6486520355</ele>
        <time>2018-09-21T13:39:22.013Z</time>
      </trkpt>
      <trkpt lat="46.28235" lon="10.5026">
        <ele>2126</ele>
        <time>2018-09-21T13:39:30.003Z</time>
      </trkpt>
      <trkpt lat="46.28241" lon="10.5027">
        <ele>2126</ele>
        <time>2018-09-21T13:39:37.013Z</time>
      </trkpt>
      <trkpt lat="46.28249" lon="10.50273">
        <ele>2126</ele>
        <time>2018-09-21T13:39:43.001Z</time>
      </trkpt>
      <trkpt lat="46.28259" lon="10.50271">
        <ele>2125.6556347078</ele>
        <time>2018-09-21T13:39:49.003Z</time>
      </trkpt>
      <trkpt lat="46.28269" lon="10.50276">
        <ele>2125.0520125888</ele>
        <time>2018-09-21T13:39:55.003Z</time>
      </trkpt>
      <trkpt lat="46.28279" lon="10.50277">
        <ele>2124.3519951151</ele>
        <time>2018-09-21T13:40:02.013Z</time>
      </trkpt>
      <trkpt lat="46.28288" lon="10.50277">
        <ele>2124.3376099474</ele>
        <time>2018-09-21T13:40:09.014Z</time>
      </trkpt>
      <trkpt lat="46.28298" lon="10.50278">
        <ele>2125.0189886544</ele>
        <time>2018-09-21T13:40:16.014Z</time>
      </trkpt>
      <trkpt lat="46.28307" lon="10.5028">
        <ele>2125.6368418202</ele>
        <time>2018-09-21T13:40:22.001Z</time>
      </trkpt>
      <trkpt lat="46.28316" lon="10.50276">
        <ele>2126.54809984</ele>
        <time>2018-09-21T13:40:31.001Z</time>
      </trkpt>
      <trkpt lat="46.28326" lon="10.50275">
        <ele>2127</ele>
        <time>2018-09-21T13:40:39.005Z</time>
      </trkpt>
      <trkpt lat="46.28335" lon="10.50273">
        <ele>2127.04829952</ele>
        <time>2018-09-21T13:40:46.003Z</time>
      </trkpt>
      <trkpt lat="46.28345" lon="10.5027">
        <ele>2127.94979968</ele>
        <time>2018-09-21T13:40:55.018Z</time>
      </trkpt>
      <trkpt lat="46.28354" lon="10.50272">
        <ele>2128.74829952</ele>
        <time>2018-09-21T13:41:03.003Z</time>
      </trkpt>
      <trkpt lat="46.28364" lon="10.50274">
        <ele>2129</ele>
        <time>2018-09-21T13:41:13.003Z</time>
      </trkpt>
      <trkpt lat="46.28372" lon="10.50282">
        <ele>2130.8857991227</ele>
        <time>2018-09-21T13:41:25.015Z</time>
      </trkpt>
      <trkpt lat="46.28381" lon="10.50279">
        <ele>2131.7465251147</ele>
        <time>2018-09-21T13:41:33.003Z</time>
      </trkpt>
      <trkpt lat="46.28391" lon="10.50273">
        <ele>2130.90340096</ele>
        <time>2018-09-21T13:41:41.003Z</time>
      </trkpt>
      <trkpt lat="46.28399" lon="10.50266">
        <ele>2129.5083174706</ele>
        <time>2018-09-21T13:41:48.003Z</time>
      </trkpt>
      <trkpt lat="46.28407" lon="10.50257">
        <ele>2128.5182178333</ele>
        <time>2018-09-21T13:41:53.003Z</time>
      </trkpt>
      <trkpt lat="46.28416" lon="10.50252">
        <ele>2127.005000778</ele>
        <time>2018-09-21T13:41:59.003Z</time>
      </trkpt>
      <trkpt lat="46.28425" lon="10.50244">
        <ele>2125.5350016816</ele>
        <time>2018-09-21T13:42:04.001Z</time>
      </trkpt>
      <trkpt lat="46.28434" lon="10.50237">
        <ele>2124.4659796889</ele>
        <time>2018-09-21T13:42:11.000Z</time>
      </trkpt>
      <trkpt lat="46.28443" lon="10.50232">
        <ele>2123.25510144</ele>
        <time>2018-09-21T13:42:18.003Z</time>
      </trkpt>
      <trkpt lat="46.28452" lon="10.50223">
        <ele>2121.45570048</ele>
        <time>2018-09-21T13:42:24.001Z</time>
      </trkpt>
      <trkpt lat="46.2846" lon="10.50216">
        <ele>2120.35149952</ele>
        <time>2018-09-21T13:42:32.005Z</time>
      </trkpt>
      <trkpt lat="46.28471" lon="10.50214">
        <ele>2120.4364076512</ele>
        <time>2018-09-21T13:42:40.015Z</time>
      </trkpt>
      <trkpt lat="46.28479" lon="10.50208">
        <ele>2120.9811351628</ele>
        <time>2018-09-21T13:42:46.003Z</time>
      </trkpt>
      <trkpt lat="46.28487" lon="10.50201">
        <ele>2120.3625780537</ele>
        <time>2018-09-21T13:42:52.003Z</time>
      </trkpt>
      <trkpt lat="46.28496" lon="10.50198">
        <ele>2119.7527418536</ele>
        <time>2018-09-21T13:42:58.000Z</time>
      </trkpt>
      <trkpt lat="46.28504" lon="10.50191">
        <ele>2119.1545366606</ele>
        <time>2018-09-21T13:43:04.000Z</time>
      </trkpt>
      <trkpt lat="46.28513" lon="10.50186">
        <ele>2119</ele>
        <time>2018-09-21T13:43:09.003Z</time>
      </trkpt>
      <trkpt lat="46.2852" lon="10.50176">
        <ele>2118.55479808</ele>
        <time>2018-09-21T13:43:17.004Z</time>
      </trkpt>
      <trkpt lat="46.28528" lon="10.50169">
        <ele>2116.45510144</ele>
        <time>2018-09-21T13:43:24.003Z</time>
      </trkpt>
      <trkpt lat="46.28536" lon="10.50162">
        <ele>2115.304</ele>
        <time>2018-09-21T13:43:29.000Z</time>
      </trkpt>
      <trkpt lat="46.28544" lon="10.50155">
        <ele>2113.90340096</ele>
        <time>2018-09-21T13:43:36.003Z</time>
      </trkpt>
      <trkpt lat="46.28551" lon="10.50144">
        <ele>2112.50360064</ele>
        <time>2018-09-21T13:43:43.002Z</time>
      </trkpt>
      <trkpt lat="46.28557" lon="10.50135">
        <ele>2111.65170048</ele>
        <time>2018-09-21T13:43:49.003Z</time>
      </trkpt>
      <trkpt lat="46.28563" lon="10.50124">
        <ele>2111.15180032</ele>
        <time>2018-09-21T13:43:54.002Z</time>
      </trkpt>
      <trkpt lat="46.28569" lon="10.50112">
        <ele>2109.65239808</ele>
        <time>2018-09-21T13:44:00.012Z</time>
      </trkpt>
      <trkpt lat="46.28575" lon="10.501">
        <ele>2107.9044520184</ele>
        <time>2018-09-21T13:44:06.003Z</time>
      </trkpt>
      <trkpt lat="46.2858" lon="10.50088">
        <ele>2107.1105838621</ele>
        <time>2018-09-21T13:44:10.016Z</time>
      </trkpt>
      <trkpt lat="46.28583" lon="10.50076">
        <ele>2106.1220570138</ele>
        <time>2018-09-21T13:44:15.013Z</time>
      </trkpt>
      <trkpt lat="46.28591" lon="10.50068">
        <ele>2104.5105057038</ele>
        <time>2018-09-21T13:44:23.003Z</time>
      </trkpt>
      <trkpt lat="46.28601" lon="10.50072">
        <ele>2104</ele>
        <time>2018-09-21T13:44:33.003Z</time>
      </trkpt>
      <trkpt lat="46.2861" lon="10.50074">
        <ele>2105.55510144</ele>
        <time>2018-09-21T13:44:47.003Z</time>
      </trkpt>
      <trkpt lat="46.28618" lon="10.50067">
        <ele>2103.75510144</ele>
        <time>2018-09-21T13:44:53.003Z</time>
      </trkpt>
      <trkpt lat="46.28625" lon="10.50057">
        <ele>2102.00760064</ele>
        <time>2018-09-21T13:44:58.001Z</time>
      </trkpt>
      <trkpt lat="46.28633" lon="10.50047">
        <ele>2099.60680192</ele>
        <time>2018-09-21T13:45:04.003Z</time>
      </trkpt>
      <trkpt lat="46.28638" lon="10.50035">
        <ele>2099</ele>
        <time>2018-09-21T13:45:11.003Z</time>
      </trkpt>
      <trkpt lat="46.28644" lon="10.50025">
        <ele>2098.7603305785</ele>
        <time>2018-09-21T13:45:17.000Z</time>
      </trkpt>
      <trkpt lat="46.28651" lon="10.50017">
        <ele>2097.520042314</ele>
        <time>2018-09-21T13:45:23.003Z</time>
      </trkpt>
      <trkpt lat="46.28659" lon="10.50008">
        <ele>2096.5654731546</ele>
        <time>2018-09-21T13:45:30.013Z</time>
      </trkpt>
      <trkpt lat="46.28667" lon="10.49998">
        <ele>2095.9854032395</ele>
        <time>2018-09-21T13:45:36.001Z</time>
      </trkpt>
      <trkpt lat="46.28673" lon="10.49988">
        <ele>2095.3640789306</ele>
        <time>2018-09-21T13:45:42.003Z</time>
      </trkpt>
      <trkpt lat="46.28681" lon="10.4998">
        <ele>2093.95540096</ele>
        <time>2018-09-21T13:45:49.002Z</time>
      </trkpt>
      <trkpt lat="46.28687" lon="10.49969">
        <ele>2091.111091504</ele>
        <time>2018-09-21T13:45:57.003Z</time>
      </trkpt>
      <trkpt lat="46.28691" lon="10.49957">
        <ele>2086.9152859669</ele>
        <time>2018-09-21T13:46:04.003Z</time>
      </trkpt>
      <trkpt lat="46.28697" lon="10.49946">
        <ele>2084.9047047352</ele>
        <time>2018-09-21T13:46:11.001Z</time>
      </trkpt>
      <trkpt lat="46.28705" lon="10.49939">
        <ele>2083.0069907715</ele>
        <time>2018-09-21T13:46:18.005Z</time>
      </trkpt>
      <trkpt lat="46.28713" lon="10.49933">
        <ele>2080.6101906446</ele>
        <time>2018-09-21T13:46:24.003Z</time>
      </trkpt>
      <trkpt lat="46.28722" lon="10.4993">
        <ele>2078.6531521431</ele>
        <time>2018-09-21T13:46:30.015Z</time>
      </trkpt>
      <trkpt lat="46.28731" lon="10.49925">
        <ele>2076.00680192</ele>
        <time>2018-09-21T13:46:38.003Z</time>
      </trkpt>
      <trkpt lat="46.28741" lon="10.49922">
        <ele>2073.2016</ele>
        <time>2018-09-21T13:46:45.016Z</time>
      </trkpt>
      <trkpt lat="46.2875" lon="10.49921">
        <ele>2069.7585024</ele>
        <time>2018-09-21T13:46:52.003Z</time>
      </trkpt>
      <trkpt lat="46.28761" lon="10.49917">
        <ele>2066.95570048</ele>
        <time>2018-09-21T13:46:59.001Z</time>
      </trkpt>
      <trkpt lat="46.28769" lon="10.49912">
        <ele>2064.952</ele>
        <time>2018-09-21T13:47:06.000Z</time>
      </trkpt>
      <trkpt lat="46.28778" lon="10.49907">
        <ele>2064.352</ele>
        <time>2018-09-21T13:47:12.000Z</time>
      </trkpt>
      <trkpt lat="46.28787" lon="10.49903">
        <ele>2062.2055870375</ele>
        <time>2018-09-21T13:47:20.015Z</time>
      </trkpt>
      <trkpt lat="46.28796" lon="10.49899">
        <ele>2059.4165814187</ele>
        <time>2018-09-21T13:47:27.000Z</time>
      </trkpt>
      <trkpt lat="46.28805" lon="10.49896">
        <ele>2057.0169814023</ele>
        <time>2018-09-21T13:47:33.005Z</time>
      </trkpt>
      <trkpt lat="46.28814" lon="10.49892">
        <ele>2054.2193431803</ele>
        <time>2018-09-21T13:47:40.015Z</time>
      </trkpt>
      <trkpt lat="46.28824" lon="10.49894">
        <ele>2051.4273683235</ele>
        <time>2018-09-21T13:47:47.003Z</time>
      </trkpt>
      <trkpt lat="46.28834" lon="10.49896">
        <ele>2048.6096564086</ele>
        <time>2018-09-21T13:47:54.005Z</time>
      </trkpt>
      <trkpt lat="46.28843" lon="10.49892">
        <ele>2046.60599808</ele>
        <time>2018-09-21T13:47:59.005Z</time>
      </trkpt>
      <trkpt lat="46.28853" lon="10.49893">
        <ele>2043.5044857413</ele>
        <time>2018-09-21T13:48:08.005Z</time>
      </trkpt>
      <trkpt lat="46.28861" lon="10.49902">
        <ele>2042.3080753553</ele>
        <time>2018-09-21T13:48:14.005Z</time>
      </trkpt>
      <trkpt lat="46.2887" lon="10.49909">
        <ele>2040.117705214</ele>
        <time>2018-09-21T13:48:22.000Z</time>
      </trkpt>
      <trkpt lat="46.28879" lon="10.49913">
        <ele>2037.3243255017</ele>
        <time>2018-09-21T13:48:30.015Z</time>
      </trkpt>
      <trkpt lat="46.28888" lon="10.49917">
        <ele>2034.9237119497</ele>
        <time>2018-09-21T13:48:36.005Z</time>
      </trkpt>
      <trkpt lat="46.28896" lon="10.4992">
        <ele>2032.449900503</ele>
        <time>2018-09-21T13:48:42.004Z</time>
      </trkpt>
      <trkpt lat="46.28906" lon="10.49921">
        <ele>2029.9555426831</ele>
        <time>2018-09-21T13:48:49.005Z</time>
      </trkpt>
      <trkpt lat="46.28915" lon="10.49924">
        <ele>2027.8098066675</ele>
        <time>2018-09-21T13:48:56.005Z</time>
      </trkpt>
      <trkpt lat="46.28925" lon="10.49926">
        <ele>2025.4074050347</ele>
        <time>2018-09-21T13:49:02.005Z</time>
      </trkpt>
      <trkpt lat="46.28934" lon="10.49931">
        <ele>2022.6547881228</ele>
        <time>2018-09-21T13:49:10.013Z</time>
      </trkpt>
      <trkpt lat="46.28941" lon="10.49942">
        <ele>2020.0128256431</ele>
        <time>2018-09-21T13:49:18.003Z</time>
      </trkpt>
      <trkpt lat="46.2895" lon="10.49942">
        <ele>2016.8565359883</ele>
        <time>2018-09-21T13:49:26.003Z</time>
      </trkpt>
      <trkpt lat="46.28959" lon="10.49947">
        <ele>2014.7767298387</ele>
        <time>2018-09-21T13:49:33.005Z</time>
      </trkpt>
      <trkpt lat="46.28967" lon="10.49953">
        <ele>2012.6331315503</ele>
        <time>2018-09-21T13:49:39.003Z</time>
      </trkpt>
      <trkpt lat="46.28977" lon="10.49954">
        <ele>2010.2040396257</ele>
        <time>2018-09-21T13:49:45.015Z</time>
      </trkpt>
      <trkpt lat="46.28986" lon="10.4995">
        <ele>2007.7589791674</ele>
        <time>2018-09-21T13:49:53.005Z</time>
      </trkpt>
      <trkpt lat="46.28995" lon="10.49949">
        <ele>2004.3096161542</ele>
        <time>2018-09-21T13:50:00.015Z</time>
      </trkpt>
      <trkpt lat="46.29004" lon="10.49945">
        <ele>2000.8519963925</ele>
        <time>2018-09-21T13:50:07.003Z</time>
      </trkpt>
      <trkpt lat="46.29012" lon="10.49937">
        <ele>2000.0525937262</ele>
        <time>2018-09-21T13:50:15.013Z</time>
      </trkpt>
      <trkpt lat="46.29021" lon="10.49928">
        <ele>1999.3524050646</ele>
        <time>2018-09-21T13:50:22.003Z</time>
      </trkpt>
      <trkpt lat="46.29027" lon="10.49918">
        <ele>1998.75170048</ele>
        <time>2018-09-21T13:50:28.003Z</time>
      </trkpt>
      <trkpt lat="46.29034" lon="10.49908">
        <ele>1998.05069952</ele>
        <time>2018-09-21T13:50:35.013Z</time>
      </trkpt>
      <trkpt lat="46.29042" lon="10.49898">
        <ele>1996.35179904</ele>
        <time>2018-09-21T13:50:41.014Z</time>
      </trkpt>
      <trkpt lat="46.29047" lon="10.49886">
        <ele>1994.2525462546</ele>
        <time>2018-09-21T13:50:48.014Z</time>
      </trkpt>
      <trkpt lat="46.29049" lon="10.49872">
        <ele>1992.154643486</ele>
        <time>2018-09-21T13:50:55.014Z</time>
      </trkpt>
      <trkpt lat="46.29058" lon="10.49865">
        <ele>1990.055553776</ele>
        <time>2018-09-21T13:51:02.005Z</time>
      </trkpt>
      <trkpt lat="46.29067" lon="10.49864">
        <ele>1988.55059968</ele>
        <time>2018-09-21T13:51:10.014Z</time>
      </trkpt>
      <trkpt lat="46.29077" lon="10.49857">
        <ele>1987.25510144</ele>
        <time>2018-09-21T13:51:18.003Z</time>
      </trkpt>
      <trkpt lat="46.29084" lon="10.49847">
        <ele>1984.8558248663</ele>
        <time>2018-09-21T13:51:27.005Z</time>
      </trkpt>
      <trkpt lat="46.29092" lon="10.4984">
        <ele>1983.9620644698</ele>
        <time>2018-09-21T13:51:36.004Z</time>
      </trkpt>
      <trkpt lat="46.29101" lon="10.49839">
        <ele>1982.9309274596</ele>
        <time>2018-09-21T13:51:41.005Z</time>
      </trkpt>
      <trkpt lat="46.29111" lon="10.49837">
        <ele>1981.70299904</ele>
        <time>2018-09-21T13:51:47.005Z</time>
      </trkpt>
      <trkpt lat="46.29121" lon="10.49834">
        <ele>1980.30299904</ele>
        <time>2018-09-21T13:51:54.005Z</time>
      </trkpt>
      <trkpt lat="46.29129" lon="10.49829">
        <ele>1978.3570433909</ele>
        <time>2018-09-21T13:52:01.002Z</time>
      </trkpt>
      <trkpt lat="46.29138" lon="10.49827">
        <ele>1976.2567545924</ele>
        <time>2018-09-21T13:52:08.005Z</time>
      </trkpt>
      <trkpt lat="46.29149" lon="10.49825">
        <ele>1974.1531540651</ele>
        <time>2018-09-21T13:52:15.010Z</time>
      </trkpt>
      <trkpt lat="46.29159" lon="10.49825">
        <ele>1973.45149952</ele>
        <time>2018-09-21T13:52:21.005Z</time>
      </trkpt>
      <trkpt lat="46.29169" lon="10.49822">
        <ele>1972.75149952</ele>
        <time>2018-09-21T13:52:28.005Z</time>
      </trkpt>
      <trkpt lat="46.29179" lon="10.49823">
        <ele>1972.05069952</ele>
        <time>2018-09-21T13:52:35.013Z</time>
      </trkpt>
      <trkpt lat="46.29189" lon="10.49818">
        <ele>1971.3540831872</ele>
        <time>2018-09-21T13:52:42.005Z</time>
      </trkpt>
      <trkpt lat="46.29197" lon="10.49811">
        <ele>1970.7545175904</ele>
        <time>2018-09-21T13:52:48.005Z</time>
      </trkpt>
      <trkpt lat="46.29206" lon="10.49806">
        <ele>1970.1521079518</ele>
        <time>2018-09-21T13:52:54.005Z</time>
      </trkpt>
      <trkpt lat="46.29214" lon="10.49798">
        <ele>1970.54850048</ele>
        <time>2018-09-21T13:53:01.005Z</time>
      </trkpt>
      <trkpt lat="46.29222" lon="10.4979">
        <ele>1970.85149952</ele>
        <time>2018-09-21T13:53:07.005Z</time>
      </trkpt>
      <trkpt lat="46.29228" lon="10.49781">
        <ele>1970.15160064</ele>
        <time>2018-09-21T13:53:14.004Z</time>
      </trkpt>
      <trkpt lat="46.29225" lon="10.49767">
        <ele>1970</ele>
        <time>2018-09-21T13:53:25.014Z</time>
      </trkpt>
      <trkpt lat="46.29221" lon="10.49755">
        <ele>1972.1479039667</ele>
        <time>2018-09-21T13:53:37.002Z</time>
      </trkpt>
      <trkpt lat="46.2923" lon="10.49757">
        <ele>1975.0481585825</ele>
        <time>2018-09-21T13:53:56.004Z</time>
      </trkpt>
      <trkpt lat="46.29238" lon="10.49763">
        <ele>1976</ele>
        <time>2018-09-21T13:54:06.003Z</time>
      </trkpt>
      <trkpt lat="46.29248" lon="10.49767">
        <ele>1976</ele>
        <time>2018-09-21T13:54:14.002Z</time>
      </trkpt>
      <trkpt lat="46.29257" lon="10.49769">
        <ele>1976.64850048</ele>
        <time>2018-09-21T13:54:22.005Z</time>
      </trkpt>
      <trkpt lat="46.29266" lon="10.49773">
        <ele>1976.45170048</ele>
        <time>2018-09-21T13:54:31.003Z</time>
      </trkpt>
      <trkpt lat="46.29275" lon="10.4977">
        <ele>1976.4363107192</ele>
        <time>2018-09-21T13:54:40.014Z</time>
      </trkpt>
      <trkpt lat="46.29284" lon="10.49766">
        <ele>1977.429277974</ele>
        <time>2018-09-21T13:54:49.984Z</time>
      </trkpt>
      <trkpt lat="46.29292" lon="10.49759">
        <ele>1978</ele>
        <time>2018-09-21T13:55:02.004Z</time>
      </trkpt>
      <trkpt lat="46.293" lon="10.49753">
        <ele>1980.14519808</ele>
        <time>2018-09-21T13:55:16.004Z</time>
      </trkpt>
      <trkpt lat="46.2931" lon="10.4975">
        <ele>1983.892552487</ele>
        <time>2018-09-21T13:55:30.014Z</time>
      </trkpt>
      <trkpt lat="46.29317" lon="10.49741">
        <ele>1985.5440198214</ele>
        <time>2018-09-21T13:55:41.003Z</time>
      </trkpt>
      <trkpt lat="46.29323" lon="10.49732">
        <ele>1986.7440677187</ele>
        <time>2018-09-21T13:55:53.003Z</time>
      </trkpt>
      <trkpt lat="46.29333" lon="10.4973">
        <ele>1987</ele>
        <time>2018-09-21T13:56:01.005Z</time>
      </trkpt>
      <trkpt lat="46.29342" lon="10.49724">
        <ele>1987.4485035998</ele>
        <time>2018-09-21T13:56:10.014Z</time>
      </trkpt>
      <trkpt lat="46.29352" lon="10.4972">
        <ele>1987.6531061142</ele>
        <time>2018-09-21T13:56:19.002Z</time>
      </trkpt>
      <trkpt lat="46.2936" lon="10.49714">
        <ele>1986.6533325861</ele>
        <time>2018-09-21T13:56:29.004Z</time>
      </trkpt>
      <trkpt lat="46.29369" lon="10.49708">
        <ele>1986</ele>
        <time>2018-09-21T13:56:36.004Z</time>
      </trkpt>
      <trkpt lat="46.29377" lon="10.49699">
        <ele>1986</ele>
        <time>2018-09-21T13:56:45.014Z</time>
      </trkpt>
      <trkpt lat="46.2938" lon="10.49687">
        <ele>1986.7445768739</ele>
        <time>2018-09-21T13:56:53.003Z</time>
      </trkpt>
      <trkpt lat="46.29383" lon="10.49674">
        <ele>1985.9077371151</ele>
        <time>2018-09-21T13:57:01.004Z</time>
      </trkpt>
      <trkpt lat="46.29385" lon="10.49662">
        <ele>1984.2562888663</ele>
        <time>2018-09-21T13:57:08.004Z</time>
      </trkpt>
      <trkpt lat="46.2939" lon="10.49651">
        <ele>1982.1574822563</ele>
        <time>2018-09-21T13:57:15.014Z</time>
      </trkpt>
      <trkpt lat="46.29397" lon="10.49641">
        <ele>1983.4957931891</ele>
        <time>2018-09-21T13:57:23.004Z</time>
      </trkpt>
      <trkpt lat="46.29403" lon="10.49631">
        <ele>1984</ele>
        <time>2018-09-21T13:57:30.014Z</time>
      </trkpt>
      <trkpt lat="46.29411" lon="10.49623">
        <ele>1984</ele>
        <time>2018-09-21T13:57:37.004Z</time>
      </trkpt>
      <trkpt lat="46.2942" lon="10.49617">
        <ele>1984</ele>
        <time>2018-09-21T13:57:44.004Z</time>
      </trkpt>
      <trkpt lat="46.29429" lon="10.49609">
        <ele>1984</ele>
        <time>2018-09-21T13:57:52.004Z</time>
      </trkpt>
      <trkpt lat="46.29438" lon="10.49603">
        <ele>1984</ele>
        <time>2018-09-21T13:58:00.014Z</time>
      </trkpt>
      <trkpt lat="46.29446" lon="10.49595">
        <ele>1984.54840064</ele>
        <time>2018-09-21T13:58:11.004Z</time>
      </trkpt>
      <trkpt lat="46.29454" lon="10.49588">
        <ele>1985</ele>
        <time>2018-09-21T13:58:22.004Z</time>
      </trkpt>
      <trkpt lat="46.29464" lon="10.49585">
        <ele>1985.6480475201</ele>
        <time>2018-09-21T13:58:32.004Z</time>
      </trkpt>
      <trkpt lat="46.29472" lon="10.4958">
        <ele>1987.29639936</ele>
        <time>2018-09-21T13:58:42.002Z</time>
      </trkpt>
      <trkpt lat="46.29482" lon="10.49577">
        <ele>1989.294211126</ele>
        <time>2018-09-21T13:58:52.004Z</time>
      </trkpt>
      <trkpt lat="46.2949" lon="10.49572">
        <ele>1991.2913077726</ele>
        <time>2018-09-21T13:59:02.003Z</time>
      </trkpt>
      <trkpt lat="46.29496" lon="10.49561">
        <ele>1991.4529583801</ele>
        <time>2018-09-21T13:59:11.004Z</time>
      </trkpt>
      <trkpt lat="46.29503" lon="10.49551">
        <ele>1990.65159936</ele>
        <time>2018-09-21T13:59:19.004Z</time>
      </trkpt>
      <trkpt lat="46.29511" lon="10.49546">
        <ele>1990</ele>
        <time>2018-09-21T13:59:26.005Z</time>
      </trkpt>
      <trkpt lat="46.29521" lon="10.49544">
        <ele>1990</ele>
        <time>2018-09-21T13:59:32.002Z</time>
      </trkpt>
      <trkpt lat="46.29531" lon="10.49541">
        <ele>1989.6533325861</ele>
        <time>2018-09-21T13:59:39.004Z</time>
      </trkpt>
      <trkpt lat="46.2954" lon="10.49536">
        <ele>1989</ele>
        <time>2018-09-21T13:59:47.002Z</time>
      </trkpt>
      <trkpt lat="46.29548" lon="10.49527">
        <ele>1989</ele>
        <time>2018-09-21T13:59:55.014Z</time>
      </trkpt>
      <trkpt lat="46.29556" lon="10.49521">
        <ele>1989.84829952</ele>
        <time>2018-09-21T14:00:04.003Z</time>
      </trkpt>
      <trkpt lat="46.29565" lon="10.49514">
        <ele>1990</ele>
        <time>2018-09-21T14:00:11.002Z</time>
      </trkpt>
      <trkpt lat="46.29575" lon="10.49511">
        <ele>1991.0909444449</ele>
        <time>2018-09-21T14:00:21.002Z</time>
      </trkpt>
      <trkpt lat="46.29581" lon="10.49501">
        <ele>1993.2865066667</ele>
        <time>2018-09-21T14:00:32.004Z</time>
      </trkpt>
      <trkpt lat="46.29589" lon="10.49492">
        <ele>1995.0895174193</ele>
        <time>2018-09-21T14:00:41.004Z</time>
      </trkpt>
      <trkpt lat="46.29596" lon="10.49483">
        <ele>1996</ele>
        <time>2018-09-21T14:00:51.003Z</time>
      </trkpt>
      <trkpt lat="46.29605" lon="10.49478">
        <ele>1996</ele>
        <time>2018-09-21T14:01:00.014Z</time>
      </trkpt>
      <trkpt lat="46.29615" lon="10.49475">
        <ele>1996</ele>
        <time>2018-09-21T14:01:11.014Z</time>
      </trkpt>
      <trkpt lat="46.29624" lon="10.49472">
        <ele>1995.55059968</ele>
        <time>2018-09-21T14:01:20.014Z</time>
      </trkpt>
      <trkpt lat="46.29631" lon="10.49464">
        <ele>1994.30119936</ele>
        <time>2018-09-21T14:01:29.014Z</time>
      </trkpt>
      <trkpt lat="46.29638" lon="10.49456">
        <ele>1992.85179904</ele>
        <time>2018-09-21T14:01:36.014Z</time>
      </trkpt>
      <trkpt lat="46.29646" lon="10.49448">
        <ele>1990.45179904</ele>
        <time>2018-09-21T14:01:44.014Z</time>
      </trkpt>
      <trkpt lat="46.29655" lon="10.49441">
        <ele>1988.05179904</ele>
        <time>2018-09-21T14:01:52.014Z</time>
      </trkpt>
      <trkpt lat="46.29664" lon="10.49434">
        <ele>1986.10119936</ele>
        <time>2018-09-21T14:02:00.014Z</time>
      </trkpt>
      <trkpt lat="46.29671" lon="10.49426">
        <ele>1984.850897789</ele>
        <time>2018-09-21T14:02:07.014Z</time>
      </trkpt>
      <trkpt lat="46.29681" lon="10.49426">
        <ele>1983.55229952</ele>
        <time>2018-09-21T14:02:20.017Z</time>
      </trkpt>
      <trkpt lat="46.2969" lon="10.49422">
        <ele>1983.8937076744</ele>
        <time>2018-09-21T14:02:30.013Z</time>
      </trkpt>
      <trkpt lat="46.29699" lon="10.49418">
        <ele>1985.5470416199</ele>
        <time>2018-09-21T14:02:41.004Z</time>
      </trkpt>
      <trkpt lat="46.29707" lon="10.49412">
        <ele>1986.7461619155</ele>
        <time>2018-09-21T14:02:53.004Z</time>
      </trkpt>
      <trkpt lat="46.29714" lon="10.49404">
        <ele>1989.4324662322</ele>
        <time>2018-09-21T14:03:07.003Z</time>
      </trkpt>
      <trkpt lat="46.29722" lon="10.49397">
        <ele>1992.4461853815</ele>
        <time>2018-09-21T14:03:20.014Z</time>
      </trkpt>
      <trkpt lat="46.2973" lon="10.49392">
        <ele>1994.0956950244</ele>
        <time>2018-09-21T14:03:31.003Z</time>
      </trkpt>
      <trkpt lat="46.29739" lon="10.49385">
        <ele>1997.04819968</ele>
        <time>2018-09-21T14:03:46.002Z</time>
      </trkpt>
      <trkpt lat="46.29744" lon="10.49374">
        <ele>1999.89839872</ele>
        <time>2018-09-21T14:04:05.012Z</time>
      </trkpt>
      <trkpt lat="46.2975" lon="10.49363">
        <ele>2004.29680128</ele>
        <time>2018-09-21T14:04:27.004Z</time>
      </trkpt>
      <trkpt lat="46.29759" lon="10.49361">
        <ele>2006</ele>
        <time>2018-09-21T14:04:37.004Z</time>
      </trkpt>
      <trkpt lat="46.29768" lon="10.49357">
        <ele>2006</ele>
        <time>2018-09-21T14:04:44.002Z</time>
      </trkpt>
      <trkpt lat="46.29777" lon="10.49354">
        <ele>2006</ele>
        <time>2018-09-21T14:04:54.002Z</time>
      </trkpt>
      <trkpt lat="46.29785" lon="10.4935">
        <ele>2004.3066792242</ele>
        <time>2018-09-21T14:05:04.012Z</time>
      </trkpt>
      <trkpt lat="46.29794" lon="10.49347">
        <ele>2005.8962878704</ele>
        <time>2018-09-21T14:05:15.003Z</time>
      </trkpt>
      <trkpt lat="46.29804" lon="10.49347">
        <ele>2007</ele>
        <time>2018-09-21T14:05:27.002Z</time>
      </trkpt>
      <trkpt lat="46.29813" lon="10.49342">
        <ele>2007</ele>
        <time>2018-09-21T14:05:35.002Z</time>
      </trkpt>
      <trkpt lat="46.29823" lon="10.49343">
        <ele>2007</ele>
        <time>2018-09-21T14:05:43.003Z</time>
      </trkpt>
      <trkpt lat="46.29833" lon="10.49341">
        <ele>2007</ele>
        <time>2018-09-21T14:05:49.012Z</time>
      </trkpt>
      <trkpt lat="46.29842" lon="10.49338">
        <ele>2007</ele>
        <time>2018-09-21T14:05:55.003Z</time>
      </trkpt>
      <trkpt lat="46.29851" lon="10.4934">
        <ele>2010.64489856</ele>
        <time>2018-09-21T14:06:11.003Z</time>
      </trkpt>
      <trkpt lat="46.29861" lon="10.49338">
        <ele>2014.0399993666</ele>
        <time>2018-09-21T14:06:26.014Z</time>
      </trkpt>
      <trkpt lat="46.2987" lon="10.49336">
        <ele>2016.34819968</ele>
        <time>2018-09-21T14:06:39.002Z</time>
      </trkpt>
      <trkpt lat="46.29879" lon="10.49335">
        <ele>2020.1443105113</ele>
        <time>2018-09-21T14:06:56.002Z</time>
      </trkpt>
      <trkpt lat="46.29889" lon="10.49331">
        <ele>2024.6909077889</ele>
        <time>2018-09-21T14:07:14.003Z</time>
      </trkpt>
      <trkpt lat="46.29899" lon="10.4933">
        <ele>2029.95170048</ele>
        <time>2018-09-21T14:07:36.003Z</time>
      </trkpt>
      <trkpt lat="46.29905" lon="10.4932">
        <ele>2029.15170048</ele>
        <time>2018-09-21T14:07:44.003Z</time>
      </trkpt>
      <trkpt lat="46.29912" lon="10.49311">
        <ele>2028.05170048</ele>
        <time>2018-09-21T14:07:55.003Z</time>
      </trkpt>
      <trkpt lat="46.2992" lon="10.49306">
        <ele>2028</ele>
        <time>2018-09-21T14:08:04.004Z</time>
      </trkpt>
      <trkpt lat="46.2993" lon="10.49305">
        <ele>2029</ele>
        <time>2018-09-21T14:08:19.003Z</time>
      </trkpt>
      <trkpt lat="46.29939" lon="10.49307">
        <ele>2028.8532595718</ele>
        <time>2018-09-21T14:08:27.013Z</time>
      </trkpt>
      <trkpt lat="46.29949" lon="10.49307">
        <ele>2028.0507519521</ele>
        <time>2018-09-21T14:08:35.014Z</time>
      </trkpt>
      <trkpt lat="46.29958" lon="10.49302">
        <ele>2029.0475811404</ele>
        <time>2018-09-21T14:08:46.002Z</time>
      </trkpt>
      <trkpt lat="46.29967" lon="10.49297">
        <ele>2029.8383029696</ele>
        <time>2018-09-21T14:08:54.012Z</time>
      </trkpt>
      <trkpt lat="46.29976" lon="10.49293">
        <ele>2030.8455017498</ele>
        <time>2018-09-21T14:09:04.012Z</time>
      </trkpt>
      <trkpt lat="46.29985" lon="10.49293">
        <ele>2032.6981972276</ele>
        <time>2018-09-21T14:09:14.014Z</time>
      </trkpt>
      <trkpt lat="46.29994" lon="10.49287">
        <ele>2033.8478050924</ele>
        <time>2018-09-21T14:09:24.015Z</time>
      </trkpt>
      <trkpt lat="46.30001" lon="10.49279">
        <ele>2034.6474948954</ele>
        <time>2018-09-21T14:09:32.002Z</time>
      </trkpt>
      <trkpt lat="46.3001" lon="10.49274">
        <ele>2035</ele>
        <time>2018-09-21T14:09:45.004Z</time>
      </trkpt>
      <trkpt lat="46.30019" lon="10.49269">
        <ele>2035.7400587964</ele>
        <time>2018-09-21T14:09:53.002Z</time>
      </trkpt>
      <trkpt lat="46.30027" lon="10.49261">
        <ele>2037.8954489449</ele>
        <time>2018-09-21T14:10:05.003Z</time>
      </trkpt>
      <trkpt lat="46.30035" lon="10.49254">
        <ele>2041.6421837966</ele>
        <time>2018-09-21T14:10:21.003Z</time>
      </trkpt>
      <trkpt lat="46.3004" lon="10.49243">
        <ele>2047.74840064</ele>
        <time>2018-09-21T14:10:53.004Z</time>
      </trkpt>
      <trkpt lat="46.30043" lon="10.49231">
        <ele>2051.69959936</ele>
        <time>2018-09-21T14:11:14.018Z</time>
      </trkpt>
      <trkpt lat="46.30046" lon="10.49218">
        <ele>2056.6372904846</ele>
        <time>2018-09-21T14:11:41.014Z</time>
      </trkpt>
      <trkpt lat="46.30051" lon="10.49206">
        <ele>2058.09659904</ele>
        <time>2018-09-21T14:11:56.003Z</time>
      </trkpt>
      <trkpt lat="46.30056" lon="10.49195">
        <ele>2061.69659904</ele>
        <time>2018-09-21T14:12:19.003Z</time>
      </trkpt>
      <trkpt lat="46.3006" lon="10.49183">
        <ele>2066.1468592154</ele>
        <time>2018-09-21T14:12:37.003Z</time>
      </trkpt>
      <trkpt lat="46.30068" lon="10.49175">
        <ele>2067.4471890763</ele>
        <time>2018-09-21T14:12:50.014Z</time>
      </trkpt>
      <trkpt lat="46.30074" lon="10.49166">
        <ele>2067.75069952</ele>
        <time>2018-09-21T14:12:58.013Z</time>
      </trkpt>
      <trkpt lat="46.30083" lon="10.49159">
        <ele>2067</ele>
        <time>2018-09-21T14:13:07.003Z</time>
      </trkpt>
      <trkpt lat="46.30091" lon="10.49152">
        <ele>2067.4979035358</ele>
        <time>2018-09-21T14:13:18.012Z</time>
      </trkpt>
      <trkpt lat="46.30099" lon="10.49144">
        <ele>2070.6895305477</ele>
        <time>2018-09-21T14:13:34.003Z</time>
      </trkpt>
      <trkpt lat="46.30108" lon="10.49137">
        <ele>2071</ele>
        <time>2018-09-21T14:13:42.000Z</time>
      </trkpt>
      <trkpt lat="46.30113" lon="10.49125">
        <ele>2069.905788363</ele>
        <time>2018-09-21T14:13:51.002Z</time>
      </trkpt>
      <trkpt lat="46.30117" lon="10.49114">
        <ele>2070.0945891177</ele>
        <time>2018-09-21T14:14:01.002Z</time>
      </trkpt>
      <trkpt lat="46.30126" lon="10.49107">
        <ele>2071.7486519077</ele>
        <time>2018-09-21T14:14:13.014Z</time>
      </trkpt>
      <trkpt lat="46.30133" lon="10.49097">
        <ele>2071.3519524798</ele>
        <time>2018-09-21T14:14:22.004Z</time>
      </trkpt>
      <trkpt lat="46.30138" lon="10.49086">
        <ele>2071.54840064</ele>
        <time>2018-09-21T14:14:31.004Z</time>
      </trkpt>
      <trkpt lat="46.30145" lon="10.49077">
        <ele>2073.2910355378</ele>
        <time>2018-09-21T14:14:42.001Z</time>
      </trkpt>
      <trkpt lat="46.30148" lon="10.49064">
        <ele>2073.4539610685</ele>
        <time>2018-09-21T14:14:51.004Z</time>
      </trkpt>
      <trkpt lat="46.30157" lon="10.49057">
        <ele>2071.2562536116</ele>
        <time>2018-09-21T14:14:59.014Z</time>
      </trkpt>
      <trkpt lat="46.30165" lon="10.49051">
        <ele>2068.2592607778</ele>
        <time>2018-09-21T14:15:05.002Z</time>
      </trkpt>
      <trkpt lat="46.30171" lon="10.49039">
        <ele>2068.94940032</ele>
        <time>2018-09-21T14:15:15.014Z</time>
      </trkpt>
      <trkpt lat="46.30179" lon="10.49031">
        <ele>2068.9510980925</ele>
        <time>2018-09-21T14:15:26.010Z</time>
      </trkpt>
      <trkpt lat="46.30186" lon="10.49022">
        <ele>2068.1534927927</ele>
        <time>2018-09-21T14:15:34.002Z</time>
      </trkpt>
      <trkpt lat="46.30193" lon="10.49011">
        <ele>2067.1536</ele>
        <time>2018-09-21T14:15:44.004Z</time>
      </trkpt>
      <trkpt lat="46.30199" lon="10.49002">
        <ele>2067.7476952319</ele>
        <time>2018-09-21T14:15:53.002Z</time>
      </trkpt>
      <trkpt lat="46.30206" lon="10.48992">
        <ele>2066.70320128</ele>
        <time>2018-09-21T14:16:02.004Z</time>
      </trkpt>
      <trkpt lat="46.30208" lon="10.48979">
        <ele>2064.50360064</ele>
        <time>2018-09-21T14:16:13.002Z</time>
      </trkpt>
      <trkpt lat="46.30209" lon="10.48965">
        <ele>2061.90159872</ele>
        <time>2018-09-21T14:17:06.012Z</time>
      </trkpt>
      <trkpt lat="46.30209" lon="10.48951">
        <ele>2059.40639744</ele>
        <time>2018-09-21T14:17:17.004Z</time>
      </trkpt>
      <trkpt lat="46.30205" lon="10.48938">
        <ele>2055.95049984</ele>
        <time>2018-09-21T14:17:26.015Z</time>
      </trkpt>
      <trkpt lat="46.30203" lon="10.48925">
        <ele>2055</ele>
        <time>2018-09-21T14:17:36.015Z</time>
      </trkpt>
      <trkpt lat="46.30203" lon="10.48911">
        <ele>2054.9597947776</ele>
        <time>2018-09-21T14:17:46.015Z</time>
      </trkpt>
      <trkpt lat="46.30201" lon="10.48897">
        <ele>2052.80120064</ele>
        <time>2018-09-21T14:17:56.017Z</time>
      </trkpt>
      <trkpt lat="46.302" lon="10.48884">
        <ele>2049.60720128</ele>
        <time>2018-09-21T14:18:04.002Z</time>
      </trkpt>
      <trkpt lat="46.30198" lon="10.48871">
        <ele>2046.80320256</ele>
        <time>2018-09-21T14:18:11.012Z</time>
      </trkpt>
      <trkpt lat="46.30194" lon="10.48858">
        <ele>2045</ele>
        <time>2018-09-21T14:18:18.004Z</time>
      </trkpt>
      <trkpt lat="46.30191" lon="10.48845">
        <ele>2045.8932785214</ele>
        <time>2018-09-21T14:18:30.003Z</time>
      </trkpt>
      <trkpt lat="46.30187" lon="10.48833">
        <ele>2047.34819968</ele>
        <time>2018-09-21T14:18:39.002Z</time>
      </trkpt>
      <trkpt lat="46.30183" lon="10.48821">
        <ele>2047.8516478247</ele>
        <time>2018-09-21T14:18:46.015Z</time>
      </trkpt>
      <trkpt lat="46.30178" lon="10.48809">
        <ele>2045.4579422043</ele>
        <time>2018-09-21T14:18:54.002Z</time>
      </trkpt>
      <trkpt lat="46.30176" lon="10.48796">
        <ele>2043.3543548815</ele>
        <time>2018-09-21T14:19:01.010Z</time>
      </trkpt>
      <trkpt lat="46.3017" lon="10.48784">
        <ele>2042.49880064</ele>
        <time>2018-09-21T14:19:08.014Z</time>
      </trkpt>
      <trkpt lat="46.30166" lon="10.48772">
        <ele>2045.0959054053</ele>
        <time>2018-09-21T14:19:21.005Z</time>
      </trkpt>
      <trkpt lat="46.3016" lon="10.48761">
        <ele>2048.09639936</ele>
        <time>2018-09-21T14:19:36.002Z</time>
      </trkpt>
      <trkpt lat="46.30156" lon="10.4875">
        <ele>2050.0969040869</ele>
        <time>2018-09-21T14:19:46.005Z</time>
      </trkpt>
      <trkpt lat="46.30152" lon="10.48737">
        <ele>2052.3388725313</ele>
        <time>2018-09-21T14:19:59.017Z</time>
      </trkpt>
      <trkpt lat="46.3015" lon="10.48724">
        <ele>2053.4304838036</ele>
        <time>2018-09-21T14:20:10.000Z</time>
      </trkpt>
      <trkpt lat="46.30148" lon="10.48711">
        <ele>2055.2954954008</ele>
        <time>2018-09-21T14:20:22.001Z</time>
      </trkpt>
      <trkpt lat="46.30147" lon="10.48697">
        <ele>2056.74819968</ele>
        <time>2018-09-21T14:20:33.002Z</time>
      </trkpt>
      <trkpt lat="46.30145" lon="10.48684">
        <ele>2058.09639936</ele>
        <time>2018-09-21T14:20:46.002Z</time>
      </trkpt>
      <trkpt lat="46.30136" lon="10.48679">
        <ele>2059.896</ele>
        <time>2018-09-21T14:20:55.000Z</time>
      </trkpt>
      <trkpt lat="46.30129" lon="10.48669">
        <ele>2061.4841269841</ele>
        <time>2018-09-21T14:21:03.000Z</time>
      </trkpt>
      <trkpt lat="46.30123" lon="10.48658">
        <ele>2062</ele>
        <time>2018-09-21T14:21:12.002Z</time>
      </trkpt>
      <trkpt lat="46.30119" lon="10.48645">
        <ele>2062</ele>
        <time>2018-09-21T14:21:20.002Z</time>
      </trkpt>
      <trkpt lat="46.30115" lon="10.48633">
        <ele>2062</ele>
        <time>2018-09-21T14:21:28.000Z</time>
      </trkpt>
      <trkpt lat="46.30112" lon="10.48618">
        <ele>2062</ele>
        <time>2018-09-21T14:21:35.000Z</time>
      </trkpt>
      <trkpt lat="46.3011" lon="10.48605">
        <ele>2064.1480516757</ele>
        <time>2018-09-21T14:21:47.002Z</time>
      </trkpt>
      <trkpt lat="46.30111" lon="10.48591">
        <ele>2065</ele>
        <time>2018-09-21T14:22:00.005Z</time>
      </trkpt>
      <trkpt lat="46.30108" lon="10.48578">
        <ele>2066.0960886166</ele>
        <time>2018-09-21T14:22:11.014Z</time>
      </trkpt>
      <trkpt lat="46.30102" lon="10.48568">
        <ele>2067.748</ele>
        <time>2018-09-21T14:22:23.000Z</time>
      </trkpt>
      <trkpt lat="46.30096" lon="10.48558">
        <ele>2069.4786554941</ele>
        <time>2018-09-21T14:22:33.002Z</time>
      </trkpt>
      <trkpt lat="46.30096" lon="10.48545">
        <ele>2072</ele>
        <time>2018-09-21T14:22:46.000Z</time>
      </trkpt>
      <trkpt lat="46.30098" lon="10.48532">
        <ele>2072.248</ele>
        <time>2018-09-21T14:22:58.000Z</time>
      </trkpt>
      <trkpt lat="46.30095" lon="10.48519">
        <ele>2073.3370762709</ele>
        <time>2018-09-21T14:23:09.002Z</time>
      </trkpt>
      <trkpt lat="46.3009" lon="10.48507">
        <ele>2074.3227505033</ele>
        <time>2018-09-21T14:23:18.971Z</time>
      </trkpt>
      <trkpt lat="46.30086" lon="10.48494">
        <ele>2075</ele>
        <time>2018-09-21T14:23:30.010Z</time>
      </trkpt>
      <trkpt lat="46.30085" lon="10.48481">
        <ele>2074.7488</ele>
        <time>2018-09-21T14:23:38.032Z</time>
      </trkpt>
      <trkpt lat="46.30087" lon="10.48467">
        <ele>2075.29619968</ele>
        <time>2018-09-21T14:23:52.001Z</time>
      </trkpt>
      <trkpt lat="46.30093" lon="10.48456">
        <ele>2077.2890669734</ele>
        <time>2018-09-21T14:24:07.001Z</time>
      </trkpt>
      <trkpt lat="46.30096" lon="10.48443">
        <ele>2082.04809984</ele>
        <time>2018-09-21T14:24:26.001Z</time>
      </trkpt>
      <trkpt lat="46.30096" lon="10.4843">
        <ele>2083.44950016</ele>
        <time>2018-09-21T14:24:40.015Z</time>
      </trkpt>
      <trkpt lat="46.30095" lon="10.48416">
        <ele>2085.69619968</ele>
        <time>2018-09-21T14:24:54.001Z</time>
      </trkpt>
      <trkpt lat="46.30093" lon="10.48403">
        <ele>2087.69619968</ele>
        <time>2018-09-21T14:25:04.001Z</time>
      </trkpt>
      <trkpt lat="46.30087" lon="10.48392">
        <ele>2089.8849345634</ele>
        <time>2018-09-21T14:25:20.016Z</time>
      </trkpt>
      <trkpt lat="46.30085" lon="10.48379">
        <ele>2092.2954954008</ele>
        <time>2018-09-21T14:25:32.001Z</time>
      </trkpt>
      <trkpt lat="46.3008" lon="10.48367">
        <ele>2093</ele>
        <time>2018-09-21T14:25:40.016Z</time>
      </trkpt>
      <trkpt lat="46.30074" lon="10.48355">
        <ele>2093</ele>
        <time>2018-09-21T14:25:50.016Z</time>
      </trkpt>
      <trkpt lat="46.30075" lon="10.48341">
        <ele>2093.14819968</ele>
        <time>2018-09-21T14:25:57.002Z</time>
      </trkpt>
      <trkpt lat="46.30069" lon="10.48331">
        <ele>2094.14819968</ele>
        <time>2018-09-21T14:26:07.002Z</time>
      </trkpt>
      <trkpt lat="46.30065" lon="10.48319">
        <ele>2096.452426282</ele>
        <time>2018-09-21T14:26:23.000Z</time>
      </trkpt>
      <trkpt lat="46.3006" lon="10.48307">
        <ele>2099.8992</ele>
        <time>2018-09-21T14:26:40.016Z</time>
      </trkpt>
      <trkpt lat="46.30059" lon="10.48294">
        <ele>2102.49619968</ele>
        <time>2018-09-21T14:26:58.001Z</time>
      </trkpt>
      <trkpt lat="46.30051" lon="10.48285">
        <ele>2104.84819968</ele>
        <time>2018-09-21T14:27:14.002Z</time>
      </trkpt>
      <trkpt lat="46.30048" lon="10.48273">
        <ele>2108.6955910569</ele>
        <time>2018-09-21T14:27:34.001Z</time>
      </trkpt>
      <trkpt lat="46.30045" lon="10.4826">
        <ele>2112.29619968</ele>
        <time>2018-09-21T14:27:57.001Z</time>
      </trkpt>
      <trkpt lat="46.30039" lon="10.48249">
        <ele>2116.74809984</ele>
        <time>2018-09-21T14:28:23.001Z</time>
      </trkpt>
      <trkpt lat="46.30039" lon="10.48236">
        <ele>2119.29680128</ele>
        <time>2018-09-21T14:28:37.004Z</time>
      </trkpt>
      <trkpt lat="46.30039" lon="10.48223">
        <ele>2123.54840064</ele>
        <time>2018-09-21T14:29:01.004Z</time>
      </trkpt>
      <trkpt lat="46.30033" lon="10.48212">
        <ele>2127.34729856</ele>
        <time>2018-09-21T14:29:20.011Z</time>
      </trkpt>
      <trkpt lat="46.30031" lon="10.48199">
        <ele>2131.4558755998</ele>
        <time>2018-09-21T14:29:38.031Z</time>
      </trkpt>
      <trkpt lat="46.3003" lon="10.48186">
        <ele>2138</ele>
        <time>2018-09-21T14:30:06.001Z</time>
      </trkpt>
      <trkpt lat="46.30039" lon="10.48188">
        <ele>2142.4953064521</ele>
        <time>2018-09-21T14:30:33.004Z</time>
      </trkpt>
      <trkpt lat="46.30046" lon="10.48178">
        <ele>2145</ele>
        <time>2018-09-21T14:30:51.001Z</time>
      </trkpt>
      <trkpt lat="46.30047" lon="10.48165">
        <ele>2147.54429952</ele>
        <time>2018-09-21T14:31:04.001Z</time>
      </trkpt>
      <trkpt lat="46.30043" lon="10.48152">
        <ele>2149.34819968</ele>
        <time>2018-09-21T14:31:19.002Z</time>
      </trkpt>
      <trkpt lat="46.30044" lon="10.48139">
        <ele>2151.49619968</ele>
        <time>2018-09-21T14:31:33.001Z</time>
      </trkpt>
      <trkpt lat="46.30043" lon="10.48126">
        <ele>2153.54819968</ele>
        <time>2018-09-21T14:31:51.002Z</time>
      </trkpt>
      <trkpt lat="46.30041" lon="10.48113">
        <ele>2156.49619968</ele>
        <time>2018-09-21T14:32:08.001Z</time>
      </trkpt>
      <trkpt lat="46.3004" lon="10.481">
        <ele>2159.89939968</ele>
        <time>2018-09-21T14:32:30.017Z</time>
      </trkpt>
      <trkpt lat="46.30033" lon="10.48091">
        <ele>2163.958369205</ele>
        <time>2018-09-21T14:32:49.014Z</time>
      </trkpt>
      <trkpt lat="46.30037" lon="10.48079">
        <ele>2168.49680128</ele>
        <time>2018-09-21T14:33:13.004Z</time>
      </trkpt>
      <trkpt lat="46.30028" lon="10.48076">
        <ele>2172.0482512842</ele>
        <time>2018-09-21T14:33:36.003Z</time>
      </trkpt>
      <trkpt lat="46.30019" lon="10.48069">
        <ele>2174.4958954167</ele>
        <time>2018-09-21T14:33:53.002Z</time>
      </trkpt>
      <trkpt lat="46.30018" lon="10.48056">
        <ele>2178.6950948724</ele>
        <time>2018-09-21T14:34:19.002Z</time>
      </trkpt>
      <trkpt lat="46.30018" lon="10.48042">
        <ele>2183.4950946162</ele>
        <time>2018-09-21T14:34:48.003Z</time>
      </trkpt>
      <trkpt lat="46.3001" lon="10.48036">
        <ele>2187.0187619093</ele>
        <time>2018-09-21T14:35:06.002Z</time>
      </trkpt>
      <trkpt lat="46.30005" lon="10.48024">
        <ele>2189.6947051971</ele>
        <time>2018-09-21T14:35:24.002Z</time>
      </trkpt>
      <trkpt lat="46.30009" lon="10.48012">
        <ele>2193</ele>
        <time>2018-09-21T14:35:43.002Z</time>
      </trkpt>
      <trkpt lat="46.30006" lon="10.47999">
        <ele>2195.019416438</ele>
        <time>2018-09-21T14:35:56.002Z</time>
      </trkpt>
      <trkpt lat="46.30004" lon="10.47986">
        <ele>2198.14819968</ele>
        <time>2018-09-21T14:36:07.002Z</time>
      </trkpt>
      <trkpt lat="46.30004" lon="10.47973">
        <ele>2199.54819968</ele>
        <time>2018-09-21T14:36:21.002Z</time>
      </trkpt>
      <trkpt lat="46.30004" lon="10.4796">
        <ele>2200.84809984</ele>
        <time>2018-09-21T14:36:34.001Z</time>
      </trkpt>
      <trkpt lat="46.30005" lon="10.47947">
        <ele>2202.8992</ele>
        <time>2018-09-21T14:36:45.016Z</time>
      </trkpt>
      <trkpt lat="46.30005" lon="10.47933">
        <ele>2204.5477475723</ele>
        <time>2018-09-21T14:37:01.002Z</time>
      </trkpt>
      <trkpt lat="46.30009" lon="10.47921">
        <ele>2206.8933197549</ele>
        <time>2018-09-21T14:37:15.015Z</time>
      </trkpt>
      <trkpt lat="46.3001" lon="10.47907">
        <ele>2208.14819968</ele>
        <time>2018-09-21T14:37:27.002Z</time>
      </trkpt>
      <trkpt lat="46.30009" lon="10.47893">
        <ele>2210.492323831</ele>
        <time>2018-09-21T14:37:43.004Z</time>
      </trkpt>
      <trkpt lat="46.30007" lon="10.4788">
        <ele>2213.04819968</ele>
        <time>2018-09-21T14:37:56.002Z</time>
      </trkpt>
      <trkpt lat="46.3" lon="10.47871">
        <ele>2214.64829952</ele>
        <time>2018-09-21T14:38:12.003Z</time>
      </trkpt>
      <trkpt lat="46.29996" lon="10.47859">
        <ele>2216.49720064</ele>
        <time>2018-09-21T14:38:28.006Z</time>
      </trkpt>
      <trkpt lat="46.2999" lon="10.4785">
        <ele>2219.89839872</ele>
        <time>2018-09-21T14:38:45.012Z</time>
      </trkpt>
      <trkpt lat="46.29986" lon="10.47838">
        <ele>2221.7412698413</ele>
        <time>2018-09-21T14:39:03.002Z</time>
      </trkpt>
      <trkpt lat="46.29995" lon="10.47832">
        <ele>2223.4844748387</ele>
        <time>2018-09-21T14:39:18.003Z</time>
      </trkpt>
      <trkpt lat="46.3" lon="10.47821">
        <ele>2225.2962090515</ele>
        <time>2018-09-21T14:39:27.004Z</time>
      </trkpt>
      <trkpt lat="46.30007" lon="10.47811">
        <ele>2227.89599173</ele>
        <time>2018-09-21T14:39:40.011Z</time>
      </trkpt>
      <trkpt lat="46.30009" lon="10.47798">
        <ele>2229</ele>
        <time>2018-09-21T14:39:50.012Z</time>
      </trkpt>
      <trkpt lat="46.30015" lon="10.47787">
        <ele>2230.09639936</ele>
        <time>2018-09-21T14:40:01.002Z</time>
      </trkpt>
      <trkpt lat="46.30023" lon="10.47781">
        <ele>2233.04850048</ele>
        <time>2018-09-21T14:40:16.005Z</time>
      </trkpt>
      <trkpt lat="46.30029" lon="10.4777">
        <ele>2234.6472064813</ele>
        <time>2018-09-21T14:40:32.005Z</time>
      </trkpt>
      <trkpt lat="46.30036" lon="10.4776">
        <ele>2235.9490975878</ele>
        <time>2018-09-21T14:40:45.012Z</time>
      </trkpt>
      <trkpt lat="46.30042" lon="10.4775">
        <ele>2238.693106795</ele>
        <time>2018-09-21T14:41:04.004Z</time>
      </trkpt>
      <trkpt lat="46.3005" lon="10.47755">
        <ele>2240.29680128</ele>
        <time>2018-09-21T14:41:17.004Z</time>
      </trkpt>
      <trkpt lat="46.30058" lon="10.47762">
        <ele>2242.7461619155</ele>
        <time>2018-09-21T14:41:33.004Z</time>
      </trkpt>
      <trkpt lat="46.30066" lon="10.47769">
        <ele>2243</ele>
        <time>2018-09-21T14:41:44.004Z</time>
      </trkpt>
      <trkpt lat="46.30075" lon="10.47772">
        <ele>2245.89860096</ele>
        <time>2018-09-21T14:42:00.013Z</time>
      </trkpt>
      <trkpt lat="46.30084" lon="10.4777">
        <ele>2250</ele>
        <time>2018-09-21T14:42:21.004Z</time>
      </trkpt>
      <trkpt lat="46.30081" lon="10.47757">
        <ele>2252.3476045334</ele>
        <time>2018-09-21T14:42:39.003Z</time>
      </trkpt>
      <trkpt lat="46.30076" lon="10.47745">
        <ele>2254.49260032</ele>
        <time>2018-09-21T14:42:53.003Z</time>
      </trkpt>
      <trkpt lat="46.30072" lon="10.47734">
        <ele>2257.1471527344</ele>
        <time>2018-09-21T14:43:07.003Z</time>
      </trkpt>
      <trkpt lat="46.30066" lon="10.47723">
        <ele>2258.4957931891</ele>
        <time>2018-09-21T14:43:18.014Z</time>
      </trkpt>
      <trkpt lat="46.30062" lon="10.47711">
        <ele>2260.34829952</ele>
        <time>2018-09-21T14:43:29.003Z</time>
      </trkpt>
      <trkpt lat="46.30059" lon="10.47699">
        <ele>2261.89860096</ele>
        <time>2018-09-21T14:43:40.013Z</time>
      </trkpt>
      <trkpt lat="46.30053" lon="10.47689">
        <ele>2263</ele>
        <time>2018-09-21T14:43:51.005Z</time>
      </trkpt>
      <trkpt lat="46.30052" lon="10.47675">
        <ele>2264.6951041583</ele>
        <time>2018-09-21T14:44:04.004Z</time>
      </trkpt>
      <trkpt lat="46.30056" lon="10.47662">
        <ele>2265</ele>
        <time>2018-09-21T14:44:11.003Z</time>
      </trkpt>
      <trkpt lat="46.30064" lon="10.47655">
        <ele>2265</ele>
        <time>2018-09-21T14:44:21.004Z</time>
      </trkpt>
      <trkpt lat="46.30074" lon="10.47652">
        <ele>2265</ele>
        <time>2018-09-21T14:44:28.004Z</time>
      </trkpt>
      <trkpt lat="46.30083" lon="10.47654">
        <ele>2265</ele>
        <time>2018-09-21T14:44:37.004Z</time>
      </trkpt>
      <trkpt lat="46.30092" lon="10.4766">
        <ele>2265</ele>
        <time>2018-09-21T14:44:45.014Z</time>
      </trkpt>
      <trkpt lat="46.30101" lon="10.47661">
        <ele>2264.25159936</ele>
        <time>2018-09-21T14:44:53.004Z</time>
      </trkpt>
      <trkpt lat="46.30109" lon="10.47668">
        <ele>2265</ele>
        <time>2018-09-21T14:45:09.004Z</time>
      </trkpt>
      <trkpt lat="46.30118" lon="10.47676">
        <ele>2265</ele>
        <time>2018-09-21T14:45:18.004Z</time>
      </trkpt>
      <trkpt lat="46.30126" lon="10.47683">
        <ele>2265</ele>
        <time>2018-09-21T14:45:31.004Z</time>
      </trkpt>
      <trkpt lat="46.30134" lon="10.47687">
        <ele>2265.54819968</ele>
        <time>2018-09-21T14:45:41.002Z</time>
      </trkpt>
      <trkpt lat="46.30141" lon="10.47697">
        <ele>2266</ele>
        <time>2018-09-21T14:45:51.003Z</time>
      </trkpt>
      <trkpt lat="46.30147" lon="10.47706">
        <ele>2266</ele>
        <time>2018-09-21T14:46:02.004Z</time>
      </trkpt>
      <trkpt lat="46.3015" lon="10.47719">
        <ele>2266.94930048</ele>
        <time>2018-09-21T14:46:15.013Z</time>
      </trkpt>
      <trkpt lat="46.30159" lon="10.47717">
        <ele>2270.0895092394</ele>
        <time>2018-09-21T14:46:31.003Z</time>
      </trkpt>
      <trkpt lat="46.30167" lon="10.4771">
        <ele>2272.0361200532</ele>
        <time>2018-09-21T14:46:46.005Z</time>
      </trkpt>
      <trkpt lat="46.30175" lon="10.47715">
        <ele>2277.0454355211</ele>
        <time>2018-09-21T14:47:06.003Z</time>
      </trkpt>
      <trkpt lat="46.30185" lon="10.47715">
        <ele>2278</ele>
        <time>2018-09-21T14:47:17.004Z</time>
      </trkpt>
      <trkpt lat="46.30194" lon="10.47719">
        <ele>2278</ele>
        <time>2018-09-21T14:47:28.005Z</time>
      </trkpt>
      <trkpt lat="46.30202" lon="10.47726">
        <ele>2278.5398810352</ele>
        <time>2018-09-21T14:47:41.005Z</time>
      </trkpt>
      <trkpt lat="46.30211" lon="10.47719">
        <ele>2281.24850048</ele>
        <time>2018-09-21T14:47:58.005Z</time>
      </trkpt>
      <trkpt lat="46.3022" lon="10.47722">
        <ele>2282</ele>
        <time>2018-09-21T14:48:13.000Z</time>
      </trkpt>
      <trkpt lat="46.3023" lon="10.47721">
        <ele>2283.8987979807</ele>
        <time>2018-09-21T14:48:25.015Z</time>
      </trkpt>
      <trkpt lat="46.3024" lon="10.47724">
        <ele>2284.822987601</ele>
        <time>2018-09-21T14:48:34.005Z</time>
      </trkpt>
      <trkpt lat="46.30249" lon="10.47722">
        <ele>2285.8436536945</ele>
        <time>2018-09-21T14:48:44.005Z</time>
      </trkpt>
      <trkpt lat="46.30258" lon="10.47719">
        <ele>2286.64839936</ele>
        <time>2018-09-21T14:48:52.004Z</time>
      </trkpt>
      <trkpt lat="46.30266" lon="10.47714">
        <ele>2287.54840064</ele>
        <time>2018-09-21T14:49:01.004Z</time>
      </trkpt>
      <trkpt lat="46.30275" lon="10.47708">
        <ele>2288</ele>
        <time>2018-09-21T14:49:09.003Z</time>
      </trkpt>
      <trkpt lat="46.30283" lon="10.47702">
        <ele>2288.44930048</ele>
        <time>2018-09-21T14:49:20.013Z</time>
      </trkpt>
      <trkpt lat="46.30292" lon="10.47696">
        <ele>2290.0889758605</ele>
        <time>2018-09-21T14:49:31.003Z</time>
      </trkpt>
      <trkpt lat="46.303" lon="10.47692">
        <ele>2291.8379474104</ele>
        <time>2018-09-21T14:49:44.003Z</time>
      </trkpt>
      <trkpt lat="46.30309" lon="10.47685">
        <ele>2293.6939878515</ele>
        <time>2018-09-21T14:49:59.003Z</time>
      </trkpt>
      <trkpt lat="46.30317" lon="10.4768">
        <ele>2295.69659904</ele>
        <time>2018-09-21T14:50:09.003Z</time>
      </trkpt>
      <trkpt lat="46.30326" lon="10.47677">
        <ele>2297.4946205578</ele>
        <time>2018-09-21T14:50:18.003Z</time>
      </trkpt>
      <trkpt lat="46.30335" lon="10.47676">
        <ele>2299.24429952</ele>
        <time>2018-09-21T14:50:28.003Z</time>
      </trkpt>
      <trkpt lat="46.30345" lon="10.47676">
        <ele>2300.8865677649</ele>
        <time>2018-09-21T14:50:40.015Z</time>
      </trkpt>
      <trkpt lat="46.30354" lon="10.47676">
        <ele>2303</ele>
        <time>2018-09-21T14:50:57.003Z</time>
      </trkpt>
      <trkpt lat="46.30363" lon="10.47678">
        <ele>2303.6847623218</ele>
        <time>2018-09-21T14:51:09.003Z</time>
      </trkpt>
      <trkpt lat="46.30372" lon="10.47673">
        <ele>2305.4950208765</ele>
        <time>2018-09-21T14:51:18.005Z</time>
      </trkpt>
      <trkpt lat="46.3038" lon="10.47667">
        <ele>2307.345682249</ele>
        <time>2018-09-21T14:51:29.003Z</time>
      </trkpt>
      <trkpt lat="46.30388" lon="10.4766">
        <ele>2309.4435886422</ele>
        <time>2018-09-21T14:51:43.005Z</time>
      </trkpt>
      <trkpt lat="46.30396" lon="10.47653">
        <ele>2311.14829952</ele>
        <time>2018-09-21T14:51:57.003Z</time>
      </trkpt>
      <trkpt lat="46.30405" lon="10.47646">
        <ele>2313.09659904</ele>
        <time>2018-09-21T14:52:11.003Z</time>
      </trkpt>
      <trkpt lat="46.30413" lon="10.47639">
        <ele>2315.49659904</ele>
        <time>2018-09-21T14:52:23.003Z</time>
      </trkpt>
      <trkpt lat="46.3042" lon="10.47629">
        <ele>2317.8933197549</ele>
        <time>2018-09-21T14:52:35.015Z</time>
      </trkpt>
      <trkpt lat="46.30425" lon="10.47619">
        <ele>2319.2436682772</ele>
        <time>2018-09-21T14:52:48.004Z</time>
      </trkpt>
      <trkpt lat="46.30428" lon="10.47606">
        <ele>2321.9377620746</ele>
        <time>2018-09-21T14:53:02.004Z</time>
      </trkpt>
      <trkpt lat="46.30432" lon="10.47594">
        <ele>2324.6943905767</ele>
        <time>2018-09-21T14:53:19.005Z</time>
      </trkpt>
      <trkpt lat="46.3044" lon="10.47585">
        <ele>2326</ele>
        <time>2018-09-21T14:53:28.005Z</time>
      </trkpt>
      <trkpt lat="46.30444" lon="10.47572">
        <ele>2326.8961120172</ele>
        <time>2018-09-21T14:53:40.014Z</time>
      </trkpt>
      <trkpt lat="46.30446" lon="10.4756">
        <ele>2329.4868525896</ele>
        <time>2018-09-21T14:53:53.014Z</time>
      </trkpt>
      <trkpt lat="46.30453" lon="10.47551">
        <ele>2330.949043609</ele>
        <time>2018-09-21T14:54:05.014Z</time>
      </trkpt>
      <trkpt lat="46.30454" lon="10.47538">
        <ele>2333.7473793548</ele>
        <time>2018-09-21T14:54:23.014Z</time>
      </trkpt>
      <trkpt lat="46.30448" lon="10.47529">
        <ele>2338.04820096</ele>
        <time>2018-09-21T14:54:39.014Z</time>
      </trkpt>
      <trkpt lat="46.30444" lon="10.47516">
        <ele>2341.6768351845</ele>
        <time>2018-09-21T14:54:58.975Z</time>
      </trkpt>
      <trkpt lat="46.30452" lon="10.47506">
        <ele>2341.2480515478</ele>
        <time>2018-09-21T14:55:08.003Z</time>
      </trkpt>
      <trkpt lat="46.30458" lon="10.47497">
        <ele>2342</ele>
        <time>2018-09-21T14:55:16.001Z</time>
      </trkpt>
      <trkpt lat="46.30466" lon="10.47489">
        <ele>2341.85170048</ele>
        <time>2018-09-21T14:55:27.003Z</time>
      </trkpt>
      <trkpt lat="46.30475" lon="10.4749">
        <ele>2341.24829952</ele>
        <time>2018-09-21T14:55:38.003Z</time>
      </trkpt>
      <trkpt lat="46.30483" lon="10.47482">
        <ele>2343.0361761859</ele>
        <time>2018-09-21T14:55:49.005Z</time>
      </trkpt>
      <trkpt lat="46.3049" lon="10.47473">
        <ele>2345.338485236</ele>
        <time>2018-09-21T14:55:59.005Z</time>
      </trkpt>
      <trkpt lat="46.30498" lon="10.47466">
        <ele>2346.4777790563</ele>
        <time>2018-09-21T14:56:08.005Z</time>
      </trkpt>
      <trkpt lat="46.30505" lon="10.47457">
        <ele>2348.1410416086</ele>
        <time>2018-09-21T14:56:17.004Z</time>
      </trkpt>
      <trkpt lat="46.30512" lon="10.47448">
        <ele>2349.008565039</ele>
        <time>2018-09-21T14:56:26.003Z</time>
      </trkpt>
      <trkpt lat="46.3052" lon="10.47438">
        <ele>2349.8342617409</ele>
        <time>2018-09-21T14:56:34.004Z</time>
      </trkpt>
      <trkpt lat="46.30526" lon="10.47429">
        <ele>2350.6453083688</ele>
        <time>2018-09-21T14:56:42.005Z</time>
      </trkpt>
      <trkpt lat="46.30534" lon="10.47422">
        <ele>2351</ele>
        <time>2018-09-21T14:56:52.005Z</time>
      </trkpt>
      <trkpt lat="46.30541" lon="10.47412">
        <ele>2351.5479527026</ele>
        <time>2018-09-21T14:57:01.005Z</time>
      </trkpt>
      <trkpt lat="46.30549" lon="10.47404">
        <ele>2352</ele>
        <time>2018-09-21T14:57:10.016Z</time>
      </trkpt>
      <trkpt lat="46.30558" lon="10.47399">
        <ele>2352</ele>
        <time>2018-09-21T14:57:21.003Z</time>
      </trkpt>
      <trkpt lat="46.30567" lon="10.47394">
        <ele>2353.34790144</ele>
        <time>2018-09-21T14:57:30.013Z</time>
      </trkpt>
      <trkpt lat="46.30574" lon="10.47387">
        <ele>2355.24850048</ele>
        <time>2018-09-21T14:57:38.005Z</time>
      </trkpt>
      <trkpt lat="46.30584" lon="10.47383">
        <ele>2356</ele>
        <time>2018-09-21T14:57:49.004Z</time>
      </trkpt>
      <trkpt lat="46.30594" lon="10.47382">
        <ele>2356.5274043077</ele>
        <time>2018-09-21T14:58:01.005Z</time>
      </trkpt>
      <trkpt lat="46.30603" lon="10.47384">
        <ele>2358.4617129285</ele>
        <time>2018-09-21T14:58:13.002Z</time>
      </trkpt>
      <trkpt lat="46.30611" lon="10.4739">
        <ele>2360.8970730504</ele>
        <time>2018-09-21T14:58:25.010Z</time>
      </trkpt>
      <trkpt lat="46.30618" lon="10.47398">
        <ele>2362.2918760415</ele>
        <time>2018-09-21T14:58:37.005Z</time>
      </trkpt>
      <trkpt lat="46.30628" lon="10.47398">
        <ele>2364.347257636</ele>
        <time>2018-09-21T14:58:49.003Z</time>
      </trkpt>
      <trkpt lat="46.30637" lon="10.47394">
        <ele>2365.14097034</ele>
        <time>2018-09-21T14:58:57.002Z</time>
      </trkpt>
      <trkpt lat="46.30647" lon="10.47392">
        <ele>2365.9843845346</ele>
        <time>2018-09-21T14:59:06.001Z</time>
      </trkpt>
      <trkpt lat="46.30656" lon="10.47386">
        <ele>2365.2603932127</ele>
        <time>2018-09-21T14:59:13.002Z</time>
      </trkpt>
      <trkpt lat="46.30665" lon="10.47392">
        <ele>2364.45149952</ele>
        <time>2018-09-21T14:59:21.005Z</time>
      </trkpt>
      <trkpt lat="46.30675" lon="10.47394">
        <ele>2364</ele>
        <time>2018-09-21T14:59:30.018Z</time>
      </trkpt>
      <trkpt lat="46.30684" lon="10.4739">
        <ele>2364</ele>
        <time>2018-09-21T14:59:39.005Z</time>
      </trkpt>
      <trkpt lat="46.30694" lon="10.47385">
        <ele>2363.7068256516</ele>
        <time>2018-09-21T14:59:47.002Z</time>
      </trkpt>
      <trkpt lat="46.30703" lon="10.47385">
        <ele>2362.5198824072</ele>
        <time>2018-09-21T14:59:53.002Z</time>
      </trkpt>
      <trkpt lat="46.30712" lon="10.47381">
        <ele>2362</ele>
        <time>2018-09-21T15:00:05.017Z</time>
      </trkpt>
      <trkpt lat="46.30721" lon="10.47386">
        <ele>2361.75170048</ele>
        <time>2018-09-21T15:00:18.003Z</time>
      </trkpt>
      <trkpt lat="46.3073" lon="10.47383">
        <ele>2360.95170048</ele>
        <time>2018-09-21T15:00:26.003Z</time>
      </trkpt>
      <trkpt lat="46.30737" lon="10.47375">
        <ele>2360.05100032</ele>
        <time>2018-09-21T15:00:35.010Z</time>
      </trkpt>
      <trkpt lat="46.30745" lon="10.47364">
        <ele>2358.2556871893</ele>
        <time>2018-09-21T15:00:48.006Z</time>
      </trkpt>
      <trkpt lat="46.30754" lon="10.47362">
        <ele>2353.7569143042</ele>
        <time>2018-09-21T15:01:03.002Z</time>
      </trkpt>
      <trkpt lat="46.30762" lon="10.47356">
        <ele>2350.7617374108</ele>
        <time>2018-09-21T15:01:17.002Z</time>
      </trkpt>
      <trkpt lat="46.30772" lon="10.47356">
        <ele>2345.85540096</ele>
        <time>2018-09-21T15:01:36.002Z</time>
      </trkpt>
      <trkpt lat="46.30781" lon="10.47359">
        <ele>2341.6608738317</ele>
        <time>2018-09-21T15:01:50.015Z</time>
      </trkpt>
      <trkpt lat="46.30791" lon="10.47357">
        <ele>2339.1610159866</ele>
        <time>2018-09-21T15:02:04.005Z</time>
      </trkpt>
      <trkpt lat="46.308" lon="10.47356">
        <ele>2337.7184646721</ele>
        <time>2018-09-21T15:02:17.005Z</time>
      </trkpt>
      <trkpt lat="46.30809" lon="10.47361">
        <ele>2335.45190016</ele>
        <time>2018-09-21T15:02:31.001Z</time>
      </trkpt>
      <trkpt lat="46.30819" lon="10.47367">
        <ele>2334.7528886056</ele>
        <time>2018-09-21T15:02:38.001Z</time>
      </trkpt>
      <trkpt lat="46.30827" lon="10.47373">
        <ele>2333.3088359839</ele>
        <time>2018-09-21T15:02:49.002Z</time>
      </trkpt>
      <trkpt lat="46.30837" lon="10.47373">
        <ele>2328.2850077347</ele>
        <time>2018-09-21T15:03:03.002Z</time>
      </trkpt>
      <trkpt lat="46.30845" lon="10.47376">
        <ele>2325.3780233776</ele>
        <time>2018-09-21T15:03:11.002Z</time>
      </trkpt>
      <trkpt lat="46.30855" lon="10.47375">
        <ele>2322.9108877419</ele>
        <time>2018-09-21T15:03:21.002Z</time>
      </trkpt>
      <trkpt lat="46.30863" lon="10.47367">
        <ele>2321.50360064</ele>
        <time>2018-09-21T15:03:28.002Z</time>
      </trkpt>
      <trkpt lat="46.30869" lon="10.47357">
        <ele>2320.10099968</ele>
        <time>2018-09-21T15:03:35.015Z</time>
      </trkpt>
      <trkpt lat="46.30874" lon="10.47344">
        <ele>2319.45149952</ele>
        <time>2018-09-21T15:03:41.005Z</time>
      </trkpt>
      <trkpt lat="46.30883" lon="10.4734">
        <ele>2318.2574845557</ele>
        <time>2018-09-21T15:03:48.000Z</time>
      </trkpt>
      <trkpt lat="46.3089" lon="10.47332">
        <ele>2316.4595777786</ele>
        <time>2018-09-21T15:03:54.005Z</time>
      </trkpt>
      <trkpt lat="46.309" lon="10.47331">
        <ele>2316.7475951919</ele>
        <time>2018-09-21T15:04:03.001Z</time>
      </trkpt>
      <trkpt lat="46.30909" lon="10.47328">
        <ele>2317</ele>
        <time>2018-09-21T15:04:11.014Z</time>
      </trkpt>
      <trkpt lat="46.30918" lon="10.47328">
        <ele>2316.5578171273</ele>
        <time>2018-09-21T15:04:20.017Z</time>
      </trkpt>
      <trkpt lat="46.30925" lon="10.47338">
        <ele>2315.5600200008</ele>
        <time>2018-09-21T15:04:30.015Z</time>
      </trkpt>
      <trkpt lat="46.30932" lon="10.47348">
        <ele>2314.95149952</ele>
        <time>2018-09-21T15:04:36.005Z</time>
      </trkpt>
      <trkpt lat="46.30938" lon="10.47359">
        <ele>2314.15149952</ele>
        <time>2018-09-21T15:04:44.005Z</time>
      </trkpt>
      <trkpt lat="46.30942" lon="10.47373">
        <ele>2314</ele>
        <time>2018-09-21T15:04:51.002Z</time>
      </trkpt>
      <trkpt lat="46.3095" lon="10.4738">
        <ele>2313.4285736361</ele>
        <time>2018-09-21T15:04:57.000Z</time>
      </trkpt>
      <trkpt lat="46.30959" lon="10.47385">
        <ele>2311.0132816182</ele>
        <time>2018-09-21T15:05:03.002Z</time>
      </trkpt>
      <trkpt lat="46.30969" lon="10.47387">
        <ele>2310</ele>
        <time>2018-09-21T15:05:11.002Z</time>
      </trkpt>
      <trkpt lat="46.30978" lon="10.47384">
        <ele>2309.3560880518</ele>
        <time>2018-09-21T15:05:22.002Z</time>
      </trkpt>
      <trkpt lat="46.30988" lon="10.47384">
        <ele>2309.4429284462</ele>
        <time>2018-09-21T15:05:30.017Z</time>
      </trkpt>
      <trkpt lat="46.30999" lon="10.47383">
        <ele>2310</ele>
        <time>2018-09-21T15:05:39.002Z</time>
      </trkpt>
      <trkpt lat="46.31008" lon="10.47377">
        <ele>2310</ele>
        <time>2018-09-21T15:05:47.005Z</time>
      </trkpt>
      <trkpt lat="46.31016" lon="10.47371">
        <ele>2310</ele>
        <time>2018-09-21T15:05:54.002Z</time>
      </trkpt>
      <trkpt lat="46.31023" lon="10.47362">
        <ele>2310</ele>
        <time>2018-09-21T15:06:02.002Z</time>
      </trkpt>
      <trkpt lat="46.31026" lon="10.47348">
        <ele>2310</ele>
        <time>2018-09-21T15:06:10.016Z</time>
      </trkpt>
      <trkpt lat="46.31029" lon="10.47335">
        <ele>2310</ele>
        <time>2018-09-21T15:06:17.001Z</time>
      </trkpt>
      <trkpt lat="46.31035" lon="10.47324">
        <ele>2309.0570012927</ele>
        <time>2018-09-21T15:06:35.016Z</time>
      </trkpt>
      <trkpt lat="46.31044" lon="10.4733">
        <ele>2309</ele>
        <time>2018-09-21T15:06:44.001Z</time>
      </trkpt>
      <trkpt lat="46.31054" lon="10.47328">
        <ele>2308.0541832669</ele>
        <time>2018-09-21T15:06:55.016Z</time>
      </trkpt>
      <trkpt lat="46.31062" lon="10.47322">
        <ele>2305.7575286747</ele>
        <time>2018-09-21T15:07:03.005Z</time>
      </trkpt>
      <trkpt lat="46.3107" lon="10.47314">
        <ele>2304.65149952</ele>
        <time>2018-09-21T15:07:09.005Z</time>
      </trkpt>
      <trkpt lat="46.31075" lon="10.47302">
        <ele>2303.752</ele>
        <time>2018-09-21T15:07:18.000Z</time>
      </trkpt>
      <trkpt lat="46.31083" lon="10.47293">
        <ele>2303.0504</ele>
        <time>2018-09-21T15:07:25.016Z</time>
      </trkpt>
      <trkpt lat="46.31091" lon="10.47299">
        <ele>2302.2756052742</ele>
        <time>2018-09-21T15:07:33.003Z</time>
      </trkpt>
      <trkpt lat="46.31097" lon="10.47309">
        <ele>2301.4674248712</ele>
        <time>2018-09-21T15:07:41.000Z</time>
      </trkpt>
      <trkpt lat="46.31103" lon="10.47319">
        <ele>2301.34809984</ele>
        <time>2018-09-21T15:07:49.001Z</time>
      </trkpt>
      <trkpt lat="46.31109" lon="10.47329">
        <ele>2302</ele>
        <time>2018-09-21T15:07:57.001Z</time>
      </trkpt>
      <trkpt lat="46.31114" lon="10.47341">
        <ele>2302</ele>
        <time>2018-09-21T15:08:06.001Z</time>
      </trkpt>
      <trkpt lat="46.31122" lon="10.47348">
        <ele>2302</ele>
        <time>2018-09-21T15:08:14.001Z</time>
      </trkpt>
      <trkpt lat="46.3113" lon="10.47355">
        <ele>2301.4541832669</ele>
        <time>2018-09-21T15:08:21.000Z</time>
      </trkpt>
      <trkpt lat="46.31138" lon="10.47363">
        <ele>2300.7545175904</ele>
        <time>2018-09-21T15:08:28.005Z</time>
      </trkpt>
      <trkpt lat="46.31146" lon="10.4737">
        <ele>2300.0506024096</ele>
        <time>2018-09-21T15:08:35.016Z</time>
      </trkpt>
      <trkpt lat="46.31155" lon="10.47369">
        <ele>2297.1512</ele>
        <time>2018-09-21T15:08:45.016Z</time>
      </trkpt>
      <trkpt lat="46.31166" lon="10.47367">
        <ele>2295.50380032</ele>
        <time>2018-09-21T15:08:53.001Z</time>
      </trkpt>
      <trkpt lat="46.31172" lon="10.47357">
        <ele>2293.2595008</ele>
        <time>2018-09-21T15:08:59.001Z</time>
      </trkpt>
      <trkpt lat="46.31181" lon="10.4735">
        <ele>2289.85190016</ele>
        <time>2018-09-21T15:09:07.001Z</time>
      </trkpt>
      <trkpt lat="46.31187" lon="10.47339">
        <ele>2289.15190016</ele>
        <time>2018-09-21T15:09:14.001Z</time>
      </trkpt>
      <trkpt lat="46.31192" lon="10.47327">
        <ele>2289</ele>
        <time>2018-09-21T15:09:24.001Z</time>
      </trkpt>
      <trkpt lat="46.31202" lon="10.47322">
        <ele>2287.3649696671</ele>
        <time>2018-09-21T15:09:31.001Z</time>
      </trkpt>
      <trkpt lat="46.3121" lon="10.47315">
        <ele>2284.2104417671</ele>
        <time>2018-09-21T15:09:40.016Z</time>
      </trkpt>
      <trkpt lat="46.31218" lon="10.47319">
        <ele>2279.4671619398</ele>
        <time>2018-09-21T15:09:54.005Z</time>
      </trkpt>
      <trkpt lat="46.31226" lon="10.47328">
        <ele>2277.3053268566</ele>
        <time>2018-09-21T15:10:04.001Z</time>
      </trkpt>
      <trkpt lat="46.31236" lon="10.47334">
        <ele>2274.1512</ele>
        <time>2018-09-21T15:10:15.016Z</time>
      </trkpt>
      <trkpt lat="46.31236" lon="10.47347">
        <ele>2272.70299904</ele>
        <time>2018-09-21T15:10:22.005Z</time>
      </trkpt>
      <trkpt lat="46.31236" lon="10.47362">
        <ele>2272</ele>
        <time>2018-09-21T15:10:30.011Z</time>
      </trkpt>
      <trkpt lat="46.31241" lon="10.47375">
        <ele>2271.5648593424</ele>
        <time>2018-09-21T15:10:40.015Z</time>
      </trkpt>
      <trkpt lat="46.31235" lon="10.47387">
        <ele>2269.0950463059</ele>
        <time>2018-09-21T15:10:52.003Z</time>
      </trkpt>
      <trkpt lat="46.31234" lon="10.474">
        <ele>2265.2625203928</ele>
        <time>2018-09-21T15:11:01.004Z</time>
      </trkpt>
      <trkpt lat="46.31238" lon="10.47413">
        <ele>2262.5550489062</ele>
        <time>2018-09-21T15:11:10.014Z</time>
      </trkpt>
      <trkpt lat="46.31242" lon="10.47424">
        <ele>2262</ele>
        <time>2018-09-21T15:11:19.003Z</time>
      </trkpt>
      <trkpt lat="46.31246" lon="10.47438">
        <ele>2261.55479808</ele>
        <time>2018-09-21T15:11:27.004Z</time>
      </trkpt>
      <trkpt lat="46.31248" lon="10.47451">
        <ele>2259.45449856</ele>
        <time>2018-09-21T15:11:34.005Z</time>
      </trkpt>
      <trkpt lat="46.31248" lon="10.47465">
        <ele>2259</ele>
        <time>2018-09-21T15:11:41.004Z</time>
      </trkpt>
      <trkpt lat="46.31241" lon="10.47474">
        <ele>2258.25159936</ele>
        <time>2018-09-21T15:12:23.004Z</time>
      </trkpt>
      <trkpt lat="46.31234" lon="10.47484">
        <ele>2256.50319872</ele>
        <time>2018-09-21T15:12:33.004Z</time>
      </trkpt>
      <trkpt lat="46.31227" lon="10.47494">
        <ele>2254.3681561905</ele>
        <time>2018-09-21T15:12:41.003Z</time>
      </trkpt>
      <trkpt lat="46.3122" lon="10.47503">
        <ele>2251.9102812903</ele>
        <time>2018-09-21T15:12:51.005Z</time>
      </trkpt>
      <trkpt lat="46.31218" lon="10.47517">
        <ele>2249.70320128</ele>
        <time>2018-09-21T15:13:02.004Z</time>
      </trkpt>
      <trkpt lat="46.31217" lon="10.47531">
        <ele>2248.10119936</ele>
        <time>2018-09-21T15:13:10.014Z</time>
      </trkpt>
      <trkpt lat="46.3121" lon="10.4754">
        <ele>2247</ele>
        <time>2018-09-21T15:13:17.005Z</time>
      </trkpt>
      <trkpt lat="46.31201" lon="10.4754">
        <ele>2246.8691467356</ele>
        <time>2018-09-21T15:13:26.004Z</time>
      </trkpt>
      <trkpt lat="46.31192" lon="10.4754">
        <ele>2244.4570872098</ele>
        <time>2018-09-21T15:13:34.004Z</time>
      </trkpt>
      <trkpt lat="46.31183" lon="10.47547">
        <ele>2242.30320128</ele>
        <time>2018-09-21T15:13:44.004Z</time>
      </trkpt>
      <trkpt lat="46.31175" lon="10.47552">
        <ele>2240.7409728988</ele>
        <time>2018-09-21T15:13:52.004Z</time>
      </trkpt>
      <trkpt lat="46.31166" lon="10.47555">
        <ele>2237.037112107</ele>
        <time>2018-09-21T15:14:03.005Z</time>
      </trkpt>
      <trkpt lat="46.31158" lon="10.47561">
        <ele>2234.70320128</ele>
        <time>2018-09-21T15:14:12.004Z</time>
      </trkpt>
      <trkpt lat="46.31149" lon="10.47566">
        <ele>2232.70320128</ele>
        <time>2018-09-21T15:14:22.004Z</time>
      </trkpt>
      <trkpt lat="46.31141" lon="10.47573">
        <ele>2229.45480192</ele>
        <time>2018-09-21T15:14:34.004Z</time>
      </trkpt>
      <trkpt lat="46.31132" lon="10.4758">
        <ele>2226.9240453826</ele>
        <time>2018-09-21T15:14:46.014Z</time>
      </trkpt>
      <trkpt lat="46.31123" lon="10.47583">
        <ele>2223.208873877</ele>
        <time>2018-09-21T15:14:55.014Z</time>
      </trkpt>
      <trkpt lat="46.31116" lon="10.47592">
        <ele>2220.4796999475</ele>
        <time>2018-09-21T15:15:04.005Z</time>
      </trkpt>
      <trkpt lat="46.31107" lon="10.47597">
        <ele>2218.9108446586</ele>
        <time>2018-09-21T15:15:16.004Z</time>
      </trkpt>
      <trkpt lat="46.31099" lon="10.47601">
        <ele>2216.25480192</ele>
        <time>2018-09-21T15:15:28.004Z</time>
      </trkpt>
      <trkpt lat="46.31091" lon="10.47611">
        <ele>2212.2037949902</ele>
        <time>2018-09-21T15:15:40.015Z</time>
      </trkpt>
      <trkpt lat="46.31082" lon="10.47612">
        <ele>2209.5511506543</ele>
        <time>2018-09-21T15:15:50.014Z</time>
      </trkpt>
      <trkpt lat="46.31075" lon="10.47619">
        <ele>2204.85159936</ele>
        <time>2018-09-21T15:16:07.004Z</time>
      </trkpt>
      <trkpt lat="46.31068" lon="10.4763">
        <ele>2201.80599808</ele>
        <time>2018-09-21T15:16:21.005Z</time>
      </trkpt>
      <trkpt lat="46.31061" lon="10.47637">
        <ele>2198.65300096</ele>
        <time>2018-09-21T15:16:30.010Z</time>
      </trkpt>
      <trkpt lat="46.31055" lon="10.47647">
        <ele>2196.10200064</ele>
        <time>2018-09-21T15:16:40.010Z</time>
      </trkpt>
      <trkpt lat="46.31053" lon="10.47661">
        <ele>2192.75449856</ele>
        <time>2018-09-21T15:16:53.005Z</time>
      </trkpt>
      <trkpt lat="46.31045" lon="10.47668">
        <ele>2188.708441914</ele>
        <time>2018-09-21T15:17:04.004Z</time>
      </trkpt>
      <trkpt lat="46.31037" lon="10.47674">
        <ele>2185.4693519816</ele>
        <time>2018-09-21T15:17:14.004Z</time>
      </trkpt>
      <trkpt lat="46.31027" lon="10.47673">
        <ele>2182.75479808</ele>
        <time>2018-09-21T15:17:23.004Z</time>
      </trkpt>
      <trkpt lat="46.31018" lon="10.47676">
        <ele>2179.7592780898</ele>
        <time>2018-09-21T15:17:33.004Z</time>
      </trkpt>
      <trkpt lat="46.31009" lon="10.47678">
        <ele>2177.2068109295</ele>
        <time>2018-09-21T15:17:40.014Z</time>
      </trkpt>
      <trkpt lat="46.31" lon="10.47681">
        <ele>2175</ele>
        <time>2018-09-21T15:17:48.005Z</time>
      </trkpt>
      <trkpt lat="46.30992" lon="10.47688">
        <ele>2174.2555461356</ele>
        <time>2018-09-21T15:17:58.004Z</time>
      </trkpt>
      <trkpt lat="46.3099" lon="10.47702">
        <ele>2171.8524515387</ele>
        <time>2018-09-21T15:18:07.004Z</time>
      </trkpt>
      <trkpt lat="46.30988" lon="10.47715">
        <ele>2170.70319872</ele>
        <time>2018-09-21T15:18:17.004Z</time>
      </trkpt>
      <trkpt lat="46.30991" lon="10.47729">
        <ele>2167.50960384</ele>
        <time>2018-09-21T15:18:28.004Z</time>
      </trkpt>
      <trkpt lat="46.30988" lon="10.47742">
        <ele>2162.75160064</ele>
        <time>2018-09-21T15:18:38.004Z</time>
      </trkpt>
      <trkpt lat="46.30982" lon="10.47752">
        <ele>2160.95449856</ele>
        <time>2018-09-21T15:18:49.005Z</time>
      </trkpt>
      <trkpt lat="46.30978" lon="10.47764">
        <ele>2155.7574976</ele>
        <time>2018-09-21T15:19:02.005Z</time>
      </trkpt>
      <trkpt lat="46.3098" lon="10.47777">
        <ele>2152.3082769904</ele>
        <time>2018-09-21T15:19:14.004Z</time>
      </trkpt>
      <trkpt lat="46.30986" lon="10.47788">
        <ele>2147.9768518951</ele>
        <time>2018-09-21T15:19:26.004Z</time>
      </trkpt>
      <trkpt lat="46.30993" lon="10.47798">
        <ele>2144.50320128</ele>
        <time>2018-09-21T15:19:38.004Z</time>
      </trkpt>
      <trkpt lat="46.30993" lon="10.47811">
        <ele>2141.35479808</ele>
        <time>2018-09-21T15:19:51.004Z</time>
      </trkpt>
      <trkpt lat="46.30993" lon="10.47824">
        <ele>2137.00599808</ele>
        <time>2018-09-21T15:20:03.005Z</time>
      </trkpt>
      <trkpt lat="46.30989" lon="10.47836">
        <ele>2132.3182670195</ele>
        <time>2018-09-21T15:20:18.032Z</time>
      </trkpt>
      <trkpt lat="46.30983" lon="10.47847">
        <ele>2128.90319872</ele>
        <time>2018-09-21T15:20:31.004Z</time>
      </trkpt>
      <trkpt lat="46.30977" lon="10.47857">
        <ele>2124.7580032</ele>
        <time>2018-09-21T15:20:42.004Z</time>
      </trkpt>
      <trkpt lat="46.30975" lon="10.47872">
        <ele>2121.10119936</ele>
        <time>2018-09-21T15:20:55.014Z</time>
      </trkpt>
      <trkpt lat="46.30974" lon="10.47886">
        <ele>2116.7051792829</ele>
        <time>2018-09-21T15:21:07.000Z</time>
      </trkpt>
      <trkpt lat="46.30972" lon="10.47899">
        <ele>2114.9116465863</ele>
        <time>2018-09-21T15:21:16.000Z</time>
      </trkpt>
      <trkpt lat="46.30963" lon="10.47904">
        <ele>2113.5050191165</ele>
        <time>2018-09-21T15:21:23.005Z</time>
      </trkpt>
      <trkpt lat="46.30962" lon="10.47917">
        <ele>2110.25570048</ele>
        <time>2018-09-21T15:21:38.001Z</time>
      </trkpt>
      <trkpt lat="46.30965" lon="10.4793">
        <ele>2107.40680192</ele>
        <time>2018-09-21T15:21:47.003Z</time>
      </trkpt>
      <trkpt lat="46.30962" lon="10.47943">
        <ele>2103.2594773713</ele>
        <time>2018-09-21T15:21:57.004Z</time>
      </trkpt>
      <trkpt lat="46.30954" lon="10.4795">
        <ele>2098.3063042863</ele>
        <time>2018-09-21T15:22:09.005Z</time>
      </trkpt>
      <trkpt lat="46.30946" lon="10.47958">
        <ele>2096.5509507745</ele>
        <time>2018-09-21T15:22:20.016Z</time>
      </trkpt>
      <trkpt lat="46.30939" lon="10.47967">
        <ele>2094.356</ele>
        <time>2018-09-21T15:22:31.000Z</time>
      </trkpt>
      <trkpt lat="46.3093" lon="10.47971">
        <ele>2092.3066651723</ele>
        <time>2018-09-21T15:22:39.004Z</time>
      </trkpt>
      <trkpt lat="46.30921" lon="10.47978">
        <ele>2089.9646205541</ele>
        <time>2018-09-21T15:22:49.004Z</time>
      </trkpt>
      <trkpt lat="46.30912" lon="10.47981">
        <ele>2086.9605976392</ele>
        <time>2018-09-21T15:22:59.002Z</time>
      </trkpt>
      <trkpt lat="46.30902" lon="10.47986">
        <ele>2084.9563822452</ele>
        <time>2018-09-21T15:23:06.004Z</time>
      </trkpt>
      <trkpt lat="46.30898" lon="10.47998">
        <ele>2084.05065325</ele>
        <time>2018-09-21T15:23:15.016Z</time>
      </trkpt>
      <trkpt lat="46.30902" lon="10.4801">
        <ele>2081.531037197</ele>
        <time>2018-09-21T15:23:24.005Z</time>
      </trkpt>
      <trkpt lat="46.30908" lon="10.48022">
        <ele>2079.3993812671</ele>
        <time>2018-09-21T15:23:31.000Z</time>
      </trkpt>
      <trkpt lat="46.30915" lon="10.48031">
        <ele>2077.704</ele>
        <time>2018-09-21T15:23:37.000Z</time>
      </trkpt>
      <trkpt lat="46.30918" lon="10.48044">
        <ele>2076.30320128</ele>
        <time>2018-09-21T15:23:44.004Z</time>
      </trkpt>
      <trkpt lat="46.30922" lon="10.48057">
        <ele>2073.0169501043</ele>
        <time>2018-09-21T15:23:53.000Z</time>
      </trkpt>
      <trkpt lat="46.30914" lon="10.48062">
        <ele>2068.2034083702</ele>
        <time>2018-09-21T15:24:05.013Z</time>
      </trkpt>
      <trkpt lat="46.30904" lon="10.48061">
        <ele>2066.50380032</ele>
        <time>2018-09-21T15:24:13.001Z</time>
      </trkpt>
      <trkpt lat="46.30897" lon="10.4807">
        <ele>2062.2789796904</ele>
        <time>2018-09-21T15:24:28.001Z</time>
      </trkpt>
      <trkpt lat="46.30888" lon="10.48071">
        <ele>2059.3129916819</ele>
        <time>2018-09-21T15:24:39.001Z</time>
      </trkpt>
      <trkpt lat="46.3088" lon="10.48078">
        <ele>2056.95570048</ele>
        <time>2018-09-21T15:24:49.001Z</time>
      </trkpt>
      <trkpt lat="46.30874" lon="10.48091">
        <ele>2054.4075818971</ele>
        <time>2018-09-21T15:24:57.004Z</time>
      </trkpt>
      <trkpt lat="46.30871" lon="10.48103">
        <ele>2049.9564543883</ele>
        <time>2018-09-21T15:25:09.015Z</time>
      </trkpt>
      <trkpt lat="46.30872" lon="10.48117">
        <ele>2046.6528523234</ele>
        <time>2018-09-21T15:25:20.016Z</time>
      </trkpt>
      <trkpt lat="46.30871" lon="10.4813">
        <ele>2044.00680192</ele>
        <time>2018-09-21T15:25:28.003Z</time>
      </trkpt>
      <trkpt lat="46.30871" lon="10.48144">
        <ele>2040.8604060976</ele>
        <time>2018-09-21T15:25:36.003Z</time>
      </trkpt>
      <trkpt lat="46.30866" lon="10.48156">
        <ele>2037.9567620502</ele>
        <time>2018-09-21T15:25:46.004Z</time>
      </trkpt>
      <trkpt lat="46.3086" lon="10.48167">
        <ele>2033.8140538782</ele>
        <time>2018-09-21T15:25:56.003Z</time>
      </trkpt>
      <trkpt lat="46.30858" lon="10.4818">
        <ele>2029.9804390362</ele>
        <time>2018-09-21T15:26:06.004Z</time>
      </trkpt>
      <trkpt lat="46.30852" lon="10.48189">
        <ele>2027.35170048</ele>
        <time>2018-09-21T15:26:22.003Z</time>
      </trkpt>
      <trkpt lat="46.30852" lon="10.48204">
        <ele>2025.1244945418</ele>
        <time>2018-09-21T15:26:32.003Z</time>
      </trkpt>
      <trkpt lat="46.30845" lon="10.48216">
        <ele>2018.9430967047</ele>
        <time>2018-09-21T15:26:46.004Z</time>
      </trkpt>
      <trkpt lat="46.30836" lon="10.48215">
        <ele>2017.3936081772</ele>
        <time>2018-09-21T15:26:51.014Z</time>
      </trkpt>
      <trkpt lat="46.3083" lon="10.48204">
        <ele>2015.55479808</ele>
        <time>2018-09-21T15:26:57.004Z</time>
      </trkpt>
      <trkpt lat="46.30824" lon="10.48195">
        <ele>2013.45480192</ele>
        <time>2018-09-21T15:27:04.004Z</time>
      </trkpt>
      <trkpt lat="46.30822" lon="10.48181">
        <ele>2011.70320128</ele>
        <time>2018-09-21T15:27:12.004Z</time>
      </trkpt>
      <trkpt lat="46.30815" lon="10.4817">
        <ele>2009.3759107209</ele>
        <time>2018-09-21T15:27:21.004Z</time>
      </trkpt>
      <trkpt lat="46.30805" lon="10.48168">
        <ele>2007.7604857514</ele>
        <time>2018-09-21T15:27:28.014Z</time>
      </trkpt>
      <trkpt lat="46.30797" lon="10.48162">
        <ele>2007.0522789699</ele>
        <time>2018-09-21T15:27:35.004Z</time>
      </trkpt>
      <trkpt lat="46.3079" lon="10.48153">
        <ele>2005.10340096</ele>
        <time>2018-09-21T15:27:45.003Z</time>
      </trkpt>
      <trkpt lat="46.30781" lon="10.48146">
        <ele>2003.05510144</ele>
        <time>2018-09-21T15:27:52.003Z</time>
      </trkpt>
      <trkpt lat="46.30772" lon="10.4814">
        <ele>2000.6588258716</ele>
        <time>2018-09-21T15:28:00.004Z</time>
      </trkpt>
      <trkpt lat="46.30763" lon="10.48141">
        <ele>1998.4529583801</ele>
        <time>2018-09-21T15:28:11.004Z</time>
      </trkpt>
      <trkpt lat="46.30753" lon="10.48139">
        <ele>1996.05480192</ele>
        <time>2018-09-21T15:28:22.004Z</time>
      </trkpt>
      <trkpt lat="46.30744" lon="10.48142">
        <ele>1992.45480192</ele>
        <time>2018-09-21T15:28:34.004Z</time>
      </trkpt>
      <trkpt lat="46.30737" lon="10.48151">
        <ele>1991.30319872</ele>
        <time>2018-09-21T15:28:49.004Z</time>
      </trkpt>
      <trkpt lat="46.30732" lon="10.48163">
        <ele>1986.70959616</ele>
        <time>2018-09-21T15:29:01.004Z</time>
      </trkpt>
      <trkpt lat="46.30724" lon="10.48171">
        <ele>1983.1067741833</ele>
        <time>2018-09-21T15:29:10.004Z</time>
      </trkpt>
      <trkpt lat="46.30716" lon="10.48178">
        <ele>1981.5072282731</ele>
        <time>2018-09-21T15:29:18.014Z</time>
      </trkpt>
      <trkpt lat="46.30708" lon="10.48183">
        <ele>1979.00239872</ele>
        <time>2018-09-21T15:29:28.014Z</time>
      </trkpt>
      <trkpt lat="46.30699" lon="10.48189">
        <ele>1975.5645629113</ele>
        <time>2018-09-21T15:29:37.015Z</time>
      </trkpt>
      <trkpt lat="46.30701" lon="10.48202">
        <ele>1971.2722962115</ele>
        <time>2018-09-21T15:29:50.014Z</time>
      </trkpt>
      <trkpt lat="46.30696" lon="10.48214">
        <ele>1964.608428184</ele>
        <time>2018-09-21T15:30:03.003Z</time>
      </trkpt>
      <trkpt lat="46.30695" lon="10.48228">
        <ele>1959.90340096</ele>
        <time>2018-09-21T15:30:21.003Z</time>
      </trkpt>
      <trkpt lat="46.30691" lon="10.48241">
        <ele>1956.40640256</ele>
        <time>2018-09-21T15:30:32.004Z</time>
      </trkpt>
      <trkpt lat="46.30692" lon="10.48254">
        <ele>1951.6125621176</ele>
        <time>2018-09-21T15:30:44.014Z</time>
      </trkpt>
      <trkpt lat="46.30689" lon="10.48267">
        <ele>1948.4102292189</ele>
        <time>2018-09-21T15:30:52.005Z</time>
      </trkpt>
      <trkpt lat="46.30681" lon="10.48273">
        <ele>1944</ele>
        <time>2018-09-21T15:31:13.014Z</time>
      </trkpt>
      <trkpt lat="46.30692" lon="10.4827">
        <ele>1944</ele>
        <time>2018-09-21T15:32:05.014Z</time>
      </trkpt>
      <trkpt lat="46.30693" lon="10.48288">
        <ele>1942.30119936</ele>
        <time>2018-09-21T15:32:24.014Z</time>
      </trkpt>
      <trkpt lat="46.3069" lon="10.48302">
        <ele>1939.40680192</ele>
        <time>2018-09-21T15:32:32.003Z</time>
      </trkpt>
      <trkpt lat="46.3069" lon="10.48315">
        <ele>1934.7590016</ele>
        <time>2018-09-21T15:32:42.002Z</time>
      </trkpt>
      <trkpt lat="46.30686" lon="10.48327">
        <ele>1931.0637450199</ele>
        <time>2018-09-21T15:32:52.000Z</time>
      </trkpt>
      <trkpt lat="46.3069" lon="10.48339">
        <ele>1926.7433671008</ele>
        <time>2018-09-21T15:33:01.004Z</time>
      </trkpt>
      <trkpt lat="46.30697" lon="10.48348">
        <ele>1923.4547829864</ele>
        <time>2018-09-21T15:33:11.004Z</time>
      </trkpt>
      <trkpt lat="46.30695" lon="10.48361">
        <ele>1921.3613526693</ele>
        <time>2018-09-21T15:33:21.004Z</time>
      </trkpt>
      <trkpt lat="46.30699" lon="10.48374">
        <ele>1918.7751004016</ele>
        <time>2018-09-21T15:33:28.000Z</time>
      </trkpt>
      <trkpt lat="46.307" lon="10.48388">
        <ele>1914.5540287535</ele>
        <time>2018-09-21T15:33:37.014Z</time>
      </trkpt>
      <trkpt lat="46.30704" lon="10.48401">
        <ele>1910.9616064445</ele>
        <time>2018-09-21T15:33:49.014Z</time>
      </trkpt>
      <trkpt lat="46.30697" lon="10.4841">
        <ele>1908.2619537849</ele>
        <time>2018-09-21T15:33:57.002Z</time>
      </trkpt>
      <trkpt lat="46.30691" lon="10.48422">
        <ele>1903.7100388755</ele>
        <time>2018-09-21T15:34:07.004Z</time>
      </trkpt>
      <trkpt lat="46.30697" lon="10.48433">
        <ele>1901.5593458962</ele>
        <time>2018-09-21T15:34:17.005Z</time>
      </trkpt>
      <trkpt lat="46.30698" lon="10.48446">
        <ele>1898.0398417925</ele>
        <time>2018-09-21T15:34:28.004Z</time>
      </trkpt>
      <trkpt lat="46.30704" lon="10.48458">
        <ele>1893.90340096</ele>
        <time>2018-09-21T15:34:41.003Z</time>
      </trkpt>
      <trkpt lat="46.30696" lon="10.48466">
        <ele>1891.6107775558</ele>
        <time>2018-09-21T15:34:49.000Z</time>
      </trkpt>
      <trkpt lat="46.30689" lon="10.48476">
        <ele>1887.7652295558</ele>
        <time>2018-09-21T15:34:58.012Z</time>
      </trkpt>
      <trkpt lat="46.30689" lon="10.4849">
        <ele>1883.5661026265</ele>
        <time>2018-09-21T15:35:07.005Z</time>
      </trkpt>
      <trkpt lat="46.30691" lon="10.48503">
        <ele>1881.4795231679</ele>
        <time>2018-09-21T15:35:14.002Z</time>
      </trkpt>
      <trkpt lat="46.30695" lon="10.48516">
        <ele>1878.1559016247</ele>
        <time>2018-09-21T15:35:25.005Z</time>
      </trkpt>
      <trkpt lat="46.30698" lon="10.48529">
        <ele>1875.90360064</ele>
        <time>2018-09-21T15:35:36.002Z</time>
      </trkpt>
      <trkpt lat="46.307" lon="10.48542">
        <ele>1872.60239872</ele>
        <time>2018-09-21T15:35:49.014Z</time>
      </trkpt>
      <trkpt lat="46.30692" lon="10.48549">
        <ele>1868.2565499107</ele>
        <time>2018-09-21T15:35:59.115Z</time>
      </trkpt>
      <trkpt lat="46.30683" lon="10.48547">
        <ele>1864.9640886569</ele>
        <time>2018-09-21T15:36:06.004Z</time>
      </trkpt>
      <trkpt lat="46.30673" lon="10.48548">
        <ele>1863.9329208447</ele>
        <time>2018-09-21T15:36:11.000Z</time>
      </trkpt>
      <trkpt lat="46.30672" lon="10.48564">
        <ele>1856.20239872</ele>
        <time>2018-09-21T15:36:35.014Z</time>
      </trkpt>
      <trkpt lat="46.30673" lon="10.48578">
        <ele>1852.2574976</ele>
        <time>2018-09-21T15:36:43.005Z</time>
      </trkpt>
      <trkpt lat="46.30673" lon="10.48593">
        <ele>1849.05179904</ele>
        <time>2018-09-21T15:36:52.014Z</time>
      </trkpt>
      <trkpt lat="46.30673" lon="10.48607">
        <ele>1844.10899712</ele>
        <time>2018-09-21T15:37:02.005Z</time>
      </trkpt>
      <trkpt lat="46.30674" lon="10.48621">
        <ele>1841.65170048</ele>
        <time>2018-09-21T15:37:09.003Z</time>
      </trkpt>
      <trkpt lat="46.30675" lon="10.48635">
        <ele>1840.25480192</ele>
        <time>2018-09-21T15:37:18.004Z</time>
      </trkpt>
      <trkpt lat="46.30672" lon="10.48649">
        <ele>1837.40599808</ele>
        <time>2018-09-21T15:37:27.005Z</time>
      </trkpt>
      <trkpt lat="46.30676" lon="10.48661">
        <ele>1833.00640256</ele>
        <time>2018-09-21T15:37:38.004Z</time>
      </trkpt>
      <trkpt lat="46.30682" lon="10.48671">
        <ele>1829.25510144</ele>
        <time>2018-09-21T15:37:48.003Z</time>
      </trkpt>
      <trkpt lat="46.30687" lon="10.48684">
        <ele>1827.456</ele>
        <time>2018-09-21T15:37:54.000Z</time>
      </trkpt>
      <trkpt lat="46.30689" lon="10.48698">
        <ele>1823.225050831</ele>
        <time>2018-09-21T15:38:05.014Z</time>
      </trkpt>
      <trkpt lat="46.30683" lon="10.48709">
        <ele>1821.7208745739</ele>
        <time>2018-09-21T15:38:12.014Z</time>
      </trkpt>
      <trkpt lat="46.30676" lon="10.48718">
        <ele>1819.674543628</ele>
        <time>2018-09-21T15:38:20.014Z</time>
      </trkpt>
      <trkpt lat="46.30674" lon="10.48731">
        <ele>1817.3038061378</ele>
        <time>2018-09-21T15:38:29.014Z</time>
      </trkpt>
      <trkpt lat="46.30676" lon="10.48744">
        <ele>1815.25540096</ele>
        <time>2018-09-21T15:38:38.002Z</time>
      </trkpt>
      <trkpt lat="46.30682" lon="10.48759">
        <ele>1811.6109694561</ele>
        <time>2018-09-21T15:38:49.003Z</time>
      </trkpt>
      <trkpt lat="46.3069" lon="10.48768">
        <ele>1804.7123306591</ele>
        <time>2018-09-21T15:39:07.013Z</time>
      </trkpt>
      <trkpt lat="46.30699" lon="10.48769">
        <ele>1803.3633915293</ele>
        <time>2018-09-21T15:39:14.014Z</time>
      </trkpt>
      <trkpt lat="46.30704" lon="10.48781">
        <ele>1800.1577953649</ele>
        <time>2018-09-21T15:39:25.014Z</time>
      </trkpt>
      <trkpt lat="46.30716" lon="10.48784">
        <ele>1797.0017115439</ele>
        <time>2018-09-21T15:39:36.014Z</time>
      </trkpt>
      <trkpt lat="46.30724" lon="10.48791">
        <ele>1792.3062122285</ele>
        <time>2018-09-21T15:39:49.002Z</time>
      </trkpt>
      <trkpt lat="46.30727" lon="10.48804">
        <ele>1790.2626879244</ele>
        <time>2018-09-21T15:39:57.002Z</time>
      </trkpt>
      <trkpt lat="46.30722" lon="10.48816">
        <ele>1785.5676354355</ele>
        <time>2018-09-21T15:40:07.004Z</time>
      </trkpt>
      <trkpt lat="46.30716" lon="10.48827">
        <ele>1783.4582913099</ele>
        <time>2018-09-21T15:40:14.000Z</time>
      </trkpt>
      <trkpt lat="46.30711" lon="10.48839">
        <ele>1780.7693851169</ele>
        <time>2018-09-21T15:40:23.000Z</time>
      </trkpt>
      <trkpt lat="46.30704" lon="10.48847">
        <ele>1776.8774650318</ele>
        <time>2018-09-21T15:40:30.014Z</time>
      </trkpt>
      <trkpt lat="46.30695" lon="10.48854">
        <ele>1772.7042881901</ele>
        <time>2018-09-21T15:40:37.003Z</time>
      </trkpt>
      <trkpt lat="46.30704" lon="10.48857">
        <ele>1766.8607287449</ele>
        <time>2018-09-21T15:40:56.014Z</time>
      </trkpt>
      <trkpt lat="46.30716" lon="10.4886">
        <ele>1762.2816324297</ele>
        <time>2018-09-21T15:41:08.014Z</time>
      </trkpt>
      <trkpt lat="46.30724" lon="10.48866">
        <ele>1759.9460733884</ele>
        <time>2018-09-21T15:41:16.014Z</time>
      </trkpt>
      <trkpt lat="46.30732" lon="10.4886">
        <ele>1757.7766519008</ele>
        <time>2018-09-21T15:41:23.014Z</time>
      </trkpt>
      <trkpt lat="46.30743" lon="10.48858">
        <ele>1754.00239872</ele>
        <time>2018-09-21T15:41:33.014Z</time>
      </trkpt>
      <trkpt lat="46.30752" lon="10.48855">
        <ele>1751.6134907937</ele>
        <time>2018-09-21T15:41:39.014Z</time>
      </trkpt>
      <trkpt lat="46.30761" lon="10.48855">
        <ele>1749.6293638095</ele>
        <time>2018-09-21T15:41:44.014Z</time>
      </trkpt>
      <trkpt lat="46.30766" lon="10.48869">
        <ele>1746.1644568675</ele>
        <time>2018-09-21T15:41:55.014Z</time>
      </trkpt>
      <trkpt lat="46.30759" lon="10.48879">
        <ele>1742.7660658634</ele>
        <time>2018-09-21T15:42:02.002Z</time>
      </trkpt>
      <trkpt lat="46.30761" lon="10.48893">
        <ele>1740.14060032</ele>
        <time>2018-09-21T15:42:14.114Z</time>
      </trkpt>
      <trkpt lat="46.30756" lon="10.48906">
        <ele>1737.0897093035</ele>
        <time>2018-09-21T15:42:23.014Z</time>
      </trkpt>
      <trkpt lat="46.30753" lon="10.48919">
        <ele>1730.0932962265</ele>
        <time>2018-09-21T15:42:34.005Z</time>
      </trkpt>
      <trkpt lat="46.30746" lon="10.4893">
        <ele>1728.45059968</ele>
        <time>2018-09-21T15:42:41.014Z</time>
      </trkpt>
      <trkpt lat="46.30751" lon="10.48942">
        <ele>1723.6353387952</ele>
        <time>2018-09-21T15:42:56.014Z</time>
      </trkpt>
      <trkpt lat="46.30761" lon="10.48941">
        <ele>1717.2096359839</ele>
        <time>2018-09-21T15:43:04.014Z</time>
      </trkpt>
      <trkpt lat="46.30771" lon="10.48947">
        <ele>1714.70139904</ele>
        <time>2018-09-21T15:43:12.013Z</time>
      </trkpt>
      <trkpt lat="46.30778" lon="10.48957">
        <ele>1713.2582255607</ele>
        <time>2018-09-21T15:43:18.000Z</time>
      </trkpt>
      <trkpt lat="46.30787" lon="10.48962">
        <ele>1711.7618167061</ele>
        <time>2018-09-21T15:43:23.003Z</time>
      </trkpt>
      <trkpt lat="46.30794" lon="10.48971">
        <ele>1710.0158504364</ele>
        <time>2018-09-21T15:43:28.003Z</time>
      </trkpt>
      <trkpt lat="46.30804" lon="10.48973">
        <ele>1708.010632862</ele>
        <time>2018-09-21T15:43:33.001Z</time>
      </trkpt>
      <trkpt lat="46.30812" lon="10.48982">
        <ele>1705.20720128</ele>
        <time>2018-09-21T15:43:40.002Z</time>
      </trkpt>
      <trkpt lat="46.3081" lon="10.48997">
        <ele>1703.20720128</ele>
        <time>2018-09-21T15:43:45.002Z</time>
      </trkpt>
      <trkpt lat="46.30812" lon="10.49011">
        <ele>1701.60720128</ele>
        <time>2018-09-21T15:43:49.002Z</time>
      </trkpt>
      <trkpt lat="46.30811" lon="10.49024">
        <ele>1700.008</ele>
        <time>2018-09-21T15:43:53.000Z</time>
      </trkpt>
      <trkpt lat="46.3081" lon="10.49039">
        <ele>1698.40320256</ele>
        <time>2018-09-21T15:43:57.012Z</time>
      </trkpt>
      <trkpt lat="46.30812" lon="10.49052">
        <ele>1696.40279808</ele>
        <time>2018-09-21T15:44:02.013Z</time>
      </trkpt>
      <trkpt lat="46.30817" lon="10.49064">
        <ele>1694.2605771565</ele>
        <time>2018-09-21T15:44:08.002Z</time>
      </trkpt>
      <trkpt lat="46.30824" lon="10.49074">
        <ele>1692.7710046408</ele>
        <time>2018-09-21T15:44:13.002Z</time>
      </trkpt>
      <trkpt lat="46.30831" lon="10.49084">
        <ele>1691.0299520289</ele>
        <time>2018-09-21T15:44:18.003Z</time>
      </trkpt>
      <trkpt lat="46.30845" lon="10.49091">
        <ele>1688.2114536312</ele>
        <time>2018-09-21T15:44:25.014Z</time>
      </trkpt>
      <trkpt lat="46.30854" lon="10.49088">
        <ele>1686.9560093268</ele>
        <time>2018-09-21T15:44:29.013Z</time>
      </trkpt>
      <trkpt lat="46.30864" lon="10.49084">
        <ele>1685.4530042786</ele>
        <time>2018-09-21T15:44:34.013Z</time>
      </trkpt>
      <trkpt lat="46.30869" lon="10.49096">
        <ele>1683.252</ele>
        <time>2018-09-21T15:44:39.016Z</time>
      </trkpt>
      <trkpt lat="46.30875" lon="10.49111">
        <ele>1680.7545024</ele>
        <time>2018-09-21T15:44:44.011Z</time>
      </trkpt>
      <trkpt lat="46.3088" lon="10.49122">
        <ele>1679.70380032</ele>
        <time>2018-09-21T15:44:47.001Z</time>
      </trkpt>
      <trkpt lat="46.30882" lon="10.49137">
        <ele>1678.704</ele>
        <time>2018-09-21T15:44:52.000Z</time>
      </trkpt>
      <trkpt lat="46.30883" lon="10.49152">
        <ele>1677.85570048</ele>
        <time>2018-09-21T15:44:56.001Z</time>
      </trkpt>
      <trkpt lat="46.30881" lon="10.49167">
        <ele>1676.35449856</ele>
        <time>2018-09-21T15:45:01.005Z</time>
      </trkpt>
      <trkpt lat="46.30872" lon="10.49177">
        <ele>1675</ele>
        <time>2018-09-21T15:45:06.005Z</time>
      </trkpt>
      <trkpt lat="46.30864" lon="10.49186">
        <ele>1675</ele>
        <time>2018-09-21T15:45:09.015Z</time>
      </trkpt>
      <trkpt lat="46.30856" lon="10.49193">
        <ele>1675</ele>
        <time>2018-09-21T15:45:12.002Z</time>
      </trkpt>
      <trkpt lat="46.30848" lon="10.49201">
        <ele>1675</ele>
        <time>2018-09-21T15:45:16.000Z</time>
      </trkpt>
      <trkpt lat="46.30841" lon="10.49209">
        <ele>1675</ele>
        <time>2018-09-21T15:45:19.015Z</time>
      </trkpt>
      <trkpt lat="46.30832" lon="10.49215">
        <ele>1675</ele>
        <time>2018-09-21T15:45:23.000Z</time>
      </trkpt>
      <trkpt lat="46.30823" lon="10.49221">
        <ele>1674.5724551693</ele>
        <time>2018-09-21T15:45:27.005Z</time>
      </trkpt>
      <trkpt lat="46.30813" lon="10.49228">
        <ele>1673.4222639062</ele>
        <time>2018-09-21T15:45:31.000Z</time>
      </trkpt>
      <trkpt lat="46.30807" lon="10.49242">
        <ele>1672.2706317209</ele>
        <time>2018-09-21T15:45:35.000Z</time>
      </trkpt>
      <trkpt lat="46.30804" lon="10.49254">
        <ele>1671.0477006779</ele>
        <time>2018-09-21T15:45:38.981Z</time>
      </trkpt>
      <trkpt lat="46.30801" lon="10.49267">
        <ele>1669.7891435229</ele>
        <time>2018-09-21T15:45:43.000Z</time>
      </trkpt>
      <trkpt lat="46.30798" lon="10.49282">
        <ele>1668.704</ele>
        <time>2018-09-21T15:45:47.000Z</time>
      </trkpt>
      <trkpt lat="46.30795" lon="10.49294">
        <ele>1667.904</ele>
        <time>2018-09-21T15:45:51.000Z</time>
      </trkpt>
      <trkpt lat="46.30785" lon="10.49301">
        <ele>1667</ele>
        <time>2018-09-21T15:45:57.000Z</time>
      </trkpt>
      <trkpt lat="46.30778" lon="10.49313">
        <ele>1667</ele>
        <time>2018-09-21T15:46:02.000Z</time>
      </trkpt>
      <trkpt lat="46.30774" lon="10.49325">
        <ele>1666.7057051593</ele>
        <time>2018-09-21T15:46:07.000Z</time>
      </trkpt>
      <trkpt lat="46.3077" lon="10.49338">
        <ele>1665.704704479</ele>
        <time>2018-09-21T15:46:12.000Z</time>
      </trkpt>
      <trkpt lat="46.30764" lon="10.49351">
        <ele>1664.5689323067</ele>
        <time>2018-09-21T15:46:17.000Z</time>
      </trkpt>
      <trkpt lat="46.30756" lon="10.49361">
        <ele>1663.4024267791</ele>
        <time>2018-09-21T15:46:21.005Z</time>
      </trkpt>
      <trkpt lat="46.30749" lon="10.49373">
        <ele>1661.9429603923</ele>
        <time>2018-09-21T15:46:26.005Z</time>
      </trkpt>
      <trkpt lat="46.30742" lon="10.49384">
        <ele>1660.4025713143</ele>
        <time>2018-09-21T15:46:31.001Z</time>
      </trkpt>
      <trkpt lat="46.30734" lon="10.49394">
        <ele>1658.9546359467</ele>
        <time>2018-09-21T15:46:36.005Z</time>
      </trkpt>
      <trkpt lat="46.30727" lon="10.49402">
        <ele>1658.5549353364</ele>
        <time>2018-09-21T15:46:40.014Z</time>
      </trkpt>
      <trkpt lat="46.30722" lon="10.49415">
        <ele>1658.1561318744</ele>
        <time>2018-09-21T15:46:44.014Z</time>
      </trkpt>
      <trkpt lat="46.30717" lon="10.49426">
        <ele>1658</ele>
        <time>2018-09-21T15:46:48.014Z</time>
      </trkpt>
      <trkpt lat="46.30712" lon="10.49437">
        <ele>1658</ele>
        <time>2018-09-21T15:46:54.014Z</time>
      </trkpt>
      <trkpt lat="46.30708" lon="10.4945">
        <ele>1658.5434224986</ele>
        <time>2018-09-21T15:47:01.014Z</time>
      </trkpt>
      <trkpt lat="46.30702" lon="10.49461">
        <ele>1659</ele>
        <time>2018-09-21T15:47:08.014Z</time>
      </trkpt>
      <trkpt lat="46.30696" lon="10.49472">
        <ele>1659</ele>
        <time>2018-09-21T15:47:15.014Z</time>
      </trkpt>
      <trkpt lat="46.30686" lon="10.49479">
        <ele>1658.35059968</ele>
        <time>2018-09-21T15:47:22.014Z</time>
      </trkpt>
      <trkpt lat="46.30678" lon="10.49486">
        <ele>1658</ele>
        <time>2018-09-21T15:47:28.014Z</time>
      </trkpt>
      <trkpt lat="46.3067" lon="10.49493">
        <ele>1658</ele>
        <time>2018-09-21T15:47:34.014Z</time>
      </trkpt>
      <trkpt lat="46.3066" lon="10.49497">
        <ele>1658</ele>
        <time>2018-09-21T15:47:39.014Z</time>
      </trkpt>
      <trkpt lat="46.30651" lon="10.49499">
        <ele>1658</ele>
        <time>2018-09-21T15:47:43.014Z</time>
      </trkpt>
      <trkpt lat="46.30641" lon="10.495">
        <ele>1657.7123615799</ele>
        <time>2018-09-21T15:47:47.001Z</time>
      </trkpt>
      <trkpt lat="46.30631" lon="10.49504">
        <ele>1656.7073367775</ele>
        <time>2018-09-21T15:47:52.001Z</time>
      </trkpt>
      <trkpt lat="46.30623" lon="10.4951">
        <ele>1655.90360064</ele>
        <time>2018-09-21T15:47:56.002Z</time>
      </trkpt>
      <trkpt lat="46.30615" lon="10.49516">
        <ele>1655.1008</ele>
        <time>2018-09-21T15:48:00.016Z</time>
      </trkpt>
      <trkpt lat="46.30604" lon="10.49519">
        <ele>1654.1008</ele>
        <time>2018-09-21T15:48:05.016Z</time>
      </trkpt>
      <trkpt lat="46.30595" lon="10.49524">
        <ele>1654.4471646399</ele>
        <time>2018-09-21T15:48:10.014Z</time>
      </trkpt>
      <trkpt lat="46.30586" lon="10.49528">
        <ele>1654.9448759228</ele>
        <time>2018-09-21T15:48:15.016Z</time>
      </trkpt>
      <trkpt lat="46.30577" lon="10.49535">
        <ele>1654.1063313025</ele>
        <time>2018-09-21T15:48:20.016Z</time>
      </trkpt>
      <trkpt lat="46.30569" lon="10.49543">
        <ele>1653.1015071834</ele>
        <time>2018-09-21T15:48:25.015Z</time>
      </trkpt>
      <trkpt lat="46.30558" lon="10.49553">
        <ele>1652.10119936</ele>
        <time>2018-09-21T15:48:30.014Z</time>
      </trkpt>
      <trkpt lat="46.30551" lon="10.49565">
        <ele>1651.30119936</ele>
        <time>2018-09-21T15:48:34.014Z</time>
      </trkpt>
      <trkpt lat="46.30543" lon="10.49572">
        <ele>1650.6605827352</ele>
        <time>2018-09-21T15:48:39.016Z</time>
      </trkpt>
      <trkpt lat="46.30536" lon="10.49581">
        <ele>1650</ele>
        <time>2018-09-21T15:48:46.001Z</time>
      </trkpt>
      <trkpt lat="46.30528" lon="10.49589">
        <ele>1650</ele>
        <time>2018-09-21T15:48:54.018Z</time>
      </trkpt>
      <trkpt lat="46.30519" lon="10.49594">
        <ele>1650.4291187739</ele>
        <time>2018-09-21T15:49:00.000Z</time>
      </trkpt>
      <trkpt lat="46.30509" lon="10.49599">
        <ele>1651</ele>
        <time>2018-09-21T15:49:06.000Z</time>
      </trkpt>
      <trkpt lat="46.30503" lon="10.49611">
        <ele>1651</ele>
        <time>2018-09-21T15:49:14.013Z</time>
      </trkpt>
      <trkpt lat="46.30495" lon="10.49622">
        <ele>1651</ele>
        <time>2018-09-21T15:49:20.001Z</time>
      </trkpt>
      <trkpt lat="46.3049" lon="10.49634">
        <ele>1651</ele>
        <time>2018-09-21T15:49:25.000Z</time>
      </trkpt>
      <trkpt lat="46.30483" lon="10.49645">
        <ele>1650.55190016</ele>
        <time>2018-09-21T15:49:30.001Z</time>
      </trkpt>
      <trkpt lat="46.30476" lon="10.49656">
        <ele>1650.1504</ele>
        <time>2018-09-21T15:49:34.016Z</time>
      </trkpt>
      <trkpt lat="46.30471" lon="10.49669">
        <ele>1650</ele>
        <time>2018-09-21T15:49:39.016Z</time>
      </trkpt>
      <trkpt lat="46.30464" lon="10.49681">
        <ele>1650</ele>
        <time>2018-09-21T15:49:44.015Z</time>
      </trkpt>
      <trkpt lat="46.30457" lon="10.49695">
        <ele>1649.6524853105</ele>
        <time>2018-09-21T15:49:49.016Z</time>
      </trkpt>
      <trkpt lat="46.30452" lon="10.49708">
        <ele>1649.2561639722</ele>
        <time>2018-09-21T15:49:53.003Z</time>
      </trkpt>
      <trkpt lat="46.3045" lon="10.49721">
        <ele>1648.714286818</ele>
        <time>2018-09-21T15:49:57.000Z</time>
      </trkpt>
      <trkpt lat="46.30447" lon="10.49733">
        <ele>1647.9092564406</ele>
        <time>2018-09-21T15:50:01.001Z</time>
      </trkpt>
      <trkpt lat="46.30439" lon="10.49743">
        <ele>1647.1040251776</ele>
        <time>2018-09-21T15:50:05.003Z</time>
      </trkpt>
      <trkpt lat="46.30432" lon="10.49755">
        <ele>1647</ele>
        <time>2018-09-21T15:50:09.016Z</time>
      </trkpt>
      <trkpt lat="46.30427" lon="10.49768">
        <ele>1647</ele>
        <time>2018-09-21T15:50:13.000Z</time>
      </trkpt>
      <trkpt lat="46.30421" lon="10.49781">
        <ele>1646.5792120834</ele>
        <time>2018-09-21T15:50:17.000Z</time>
      </trkpt>
      <trkpt lat="46.30414" lon="10.49791">
        <ele>1645.3683143917</ele>
        <time>2018-09-21T15:50:21.000Z</time>
      </trkpt>
      <trkpt lat="46.30408" lon="10.498">
        <ele>1644.1574166999</ele>
        <time>2018-09-21T15:50:25.000Z</time>
      </trkpt>
      <trkpt lat="46.30401" lon="10.49811">
        <ele>1642.6016</ele>
        <time>2018-09-21T15:50:29.016Z</time>
      </trkpt>
      <trkpt lat="46.30394" lon="10.4982">
        <ele>1641.00760064</ele>
        <time>2018-09-21T15:50:33.001Z</time>
      </trkpt>
      <trkpt lat="46.30387" lon="10.49832">
        <ele>1639.504</ele>
        <time>2018-09-21T15:50:38.000Z</time>
      </trkpt>
      <trkpt lat="46.30382" lon="10.49842">
        <ele>1638.704</ele>
        <time>2018-09-21T15:50:42.000Z</time>
      </trkpt>
      <trkpt lat="46.30375" lon="10.49852">
        <ele>1637.808</ele>
        <time>2018-09-21T15:50:46.000Z</time>
      </trkpt>
      <trkpt lat="46.3037" lon="10.49863">
        <ele>1636.20760064</ele>
        <time>2018-09-21T15:50:50.001Z</time>
      </trkpt>
      <trkpt lat="46.30366" lon="10.49876">
        <ele>1634.6016</ele>
        <time>2018-09-21T15:50:54.016Z</time>
      </trkpt>
      <trkpt lat="46.30363" lon="10.49888">
        <ele>1633.25449856</ele>
        <time>2018-09-21T15:50:58.005Z</time>
      </trkpt>
      <trkpt lat="46.30358" lon="10.49903">
        <ele>1632.056</ele>
        <time>2018-09-21T15:51:02.000Z</time>
      </trkpt>
      <trkpt lat="46.30355" lon="10.49916">
        <ele>1630.570309676</ele>
        <time>2018-09-21T15:51:07.001Z</time>
      </trkpt>
      <trkpt lat="46.3035" lon="10.4993">
        <ele>1629.1199214669</ele>
        <time>2018-09-21T15:51:12.000Z</time>
      </trkpt>
      <trkpt lat="46.30341" lon="10.4994">
        <ele>1627.970806479</ele>
        <time>2018-09-21T15:51:16.001Z</time>
      </trkpt>
      <trkpt lat="46.30333" lon="10.49949">
        <ele>1627.1428563857</ele>
        <time>2018-09-21T15:51:20.000Z</time>
      </trkpt>
      <trkpt lat="46.30324" lon="10.49958">
        <ele>1626.3113869573</ele>
        <time>2018-09-21T15:51:24.016Z</time>
      </trkpt>
      <trkpt lat="46.30315" lon="10.49965">
        <ele>1625.75170048</ele>
        <time>2018-09-21T15:51:28.003Z</time>
      </trkpt>
      <trkpt lat="46.30307" lon="10.49975">
        <ele>1625.25180032</ele>
        <time>2018-09-21T15:51:33.002Z</time>
      </trkpt>
      <trkpt lat="46.30297" lon="10.49983">
        <ele>1624.7049803984</ele>
        <time>2018-09-21T15:51:37.001Z</time>
      </trkpt>
      <trkpt lat="46.30289" lon="10.4999">
        <ele>1623.9079687649</ele>
        <time>2018-09-21T15:51:41.002Z</time>
      </trkpt>
      <trkpt lat="46.3028" lon="10.49996">
        <ele>1623</ele>
        <time>2018-09-21T15:51:46.001Z</time>
      </trkpt>
      <trkpt lat="46.30271" lon="10.50002">
        <ele>1623</ele>
        <time>2018-09-21T15:51:51.001Z</time>
      </trkpt>
      <trkpt lat="46.30262" lon="10.50006">
        <ele>1623</ele>
        <time>2018-09-21T15:51:55.001Z</time>
      </trkpt>
      <trkpt lat="46.30253" lon="10.50011">
        <ele>1622.465876761</ele>
        <time>2018-09-21T15:52:01.001Z</time>
      </trkpt>
      <trkpt lat="46.30242" lon="10.50015">
        <ele>1622</ele>
        <time>2018-09-21T15:52:08.001Z</time>
      </trkpt>
      <trkpt lat="46.30234" lon="10.50022">
        <ele>1622</ele>
        <time>2018-09-21T15:52:14.016Z</time>
      </trkpt>
      <trkpt lat="46.30224" lon="10.50025">
        <ele>1622</ele>
        <time>2018-09-21T15:52:21.001Z</time>
      </trkpt>
      <trkpt lat="46.30216" lon="10.5003">
        <ele>1621.95180032</ele>
        <time>2018-09-21T15:52:26.002Z</time>
      </trkpt>
      <trkpt lat="46.30207" lon="10.50035">
        <ele>1621.35190016</ele>
        <time>2018-09-21T15:52:32.001Z</time>
      </trkpt>
      <trkpt lat="46.30199" lon="10.50042">
        <ele>1621</ele>
        <time>2018-09-21T15:52:39.016Z</time>
      </trkpt>
      <trkpt lat="46.30191" lon="10.50047">
        <ele>1621</ele>
        <time>2018-09-21T15:52:44.016Z</time>
      </trkpt>
      <trkpt lat="46.30183" lon="10.50055">
        <ele>1620.652830299</ele>
        <time>2018-09-21T15:52:49.016Z</time>
      </trkpt>
      <trkpt lat="46.30173" lon="10.50061">
        <ele>1620</ele>
        <time>2018-09-21T15:52:56.002Z</time>
      </trkpt>
      <trkpt lat="46.30164" lon="10.50064">
        <ele>1620</ele>
        <time>2018-09-21T15:53:01.001Z</time>
      </trkpt>
      <trkpt lat="46.30154" lon="10.50069">
        <ele>1620</ele>
        <time>2018-09-21T15:53:07.001Z</time>
      </trkpt>
      <trkpt lat="46.30146" lon="10.50076">
        <ele>1620</ele>
        <time>2018-09-21T15:53:13.001Z</time>
      </trkpt>
      <trkpt lat="46.30138" lon="10.50084">
        <ele>1620</ele>
        <time>2018-09-21T15:53:19.016Z</time>
      </trkpt>
      <trkpt lat="46.30132" lon="10.50095">
        <ele>1620</ele>
        <time>2018-09-21T15:53:25.001Z</time>
      </trkpt>
      <trkpt lat="46.30126" lon="10.50105">
        <ele>1620</ele>
        <time>2018-09-21T15:53:31.001Z</time>
      </trkpt>
      <trkpt lat="46.30118" lon="10.50112">
        <ele>1620</ele>
        <time>2018-09-21T15:53:38.001Z</time>
      </trkpt>
      <trkpt lat="46.3011" lon="10.50119">
        <ele>1620</ele>
        <time>2018-09-21T15:53:44.016Z</time>
      </trkpt>
      <trkpt lat="46.30102" lon="10.50126">
        <ele>1620</ele>
        <time>2018-09-21T15:53:50.001Z</time>
      </trkpt>
      <trkpt lat="46.30095" lon="10.50135">
        <ele>1619.9084545849</ele>
        <time>2018-09-21T15:53:56.001Z</time>
      </trkpt>
      <trkpt lat="46.30087" lon="10.50141">
        <ele>1618.9366381932</ele>
        <time>2018-09-21T15:54:01.001Z</time>
      </trkpt>
      <trkpt lat="46.30078" lon="10.50145">
        <ele>1617.9814936484</ele>
        <time>2018-09-21T15:54:06.001Z</time>
      </trkpt>
      <trkpt lat="46.30071" lon="10.50155">
        <ele>1617.4702458701</ele>
        <time>2018-09-21T15:54:11.001Z</time>
      </trkpt>
      <trkpt lat="46.30066" lon="10.50168">
        <ele>1617</ele>
        <time>2018-09-21T15:54:18.001Z</time>
      </trkpt>
      <trkpt lat="46.3006" lon="10.50178">
        <ele>1617</ele>
        <time>2018-09-21T15:54:24.016Z</time>
      </trkpt>
      <trkpt lat="46.30054" lon="10.50189">
        <ele>1617</ele>
        <time>2018-09-21T15:54:30.001Z</time>
      </trkpt>
      <trkpt lat="46.30049" lon="10.502">
        <ele>1617</ele>
        <time>2018-09-21T15:54:37.001Z</time>
      </trkpt>
      <trkpt lat="46.30044" lon="10.50212">
        <ele>1617</ele>
        <time>2018-09-21T15:54:42.001Z</time>
      </trkpt>
      <trkpt lat="46.30041" lon="10.50226">
        <ele>1617</ele>
        <time>2018-09-21T15:54:48.001Z</time>
      </trkpt>
      <trkpt lat="46.30037" lon="10.50238">
        <ele>1617</ele>
        <time>2018-09-21T15:54:54.016Z</time>
      </trkpt>
      <trkpt lat="46.30034" lon="10.50252">
        <ele>1616.6744877017</ele>
        <time>2018-09-21T15:54:59.016Z</time>
      </trkpt>
      <trkpt lat="46.3003" lon="10.50265">
        <ele>1616.0239291018</ele>
        <time>2018-09-21T15:55:06.003Z</time>
      </trkpt>
      <trkpt lat="46.30031" lon="10.5028">
        <ele>1616.6199784916</ele>
        <time>2018-09-21T15:55:12.001Z</time>
      </trkpt>
      <trkpt lat="46.30028" lon="10.50294">
        <ele>1617</ele>
        <time>2018-09-21T15:55:18.001Z</time>
      </trkpt>
      <trkpt lat="46.30024" lon="10.50307">
        <ele>1616.9526159771</ele>
        <time>2018-09-21T15:55:26.000Z</time>
      </trkpt>
      <trkpt lat="46.30022" lon="10.5032">
        <ele>1616.360020015</ele>
        <time>2018-09-21T15:55:32.003Z</time>
      </trkpt>
      <trkpt lat="46.30019" lon="10.50333">
        <ele>1615.8631204497</ele>
        <time>2018-09-21T15:55:37.001Z</time>
      </trkpt>
      <trkpt lat="46.30015" lon="10.50345">
        <ele>1615.3565350009</ele>
        <time>2018-09-21T15:55:42.001Z</time>
      </trkpt>
      <trkpt lat="46.30016" lon="10.50359">
        <ele>1615</ele>
        <time>2018-09-21T15:55:49.016Z</time>
      </trkpt>
      <trkpt lat="46.30016" lon="10.50373">
        <ele>1615</ele>
        <time>2018-09-21T15:55:55.001Z</time>
      </trkpt>
      <trkpt lat="46.30014" lon="10.50388">
        <ele>1615</ele>
        <time>2018-09-21T15:56:01.000Z</time>
      </trkpt>
      <trkpt lat="46.30009" lon="10.50401">
        <ele>1615</ele>
        <time>2018-09-21T15:56:08.001Z</time>
      </trkpt>
      <trkpt lat="46.30002" lon="10.50409">
        <ele>1615</ele>
        <time>2018-09-21T15:56:12.001Z</time>
      </trkpt>
      <trkpt lat="46.29995" lon="10.5042">
        <ele>1615</ele>
        <time>2018-09-21T15:56:18.001Z</time>
      </trkpt>
      <trkpt lat="46.29988" lon="10.5043">
        <ele>1615</ele>
        <time>2018-09-21T15:56:25.001Z</time>
      </trkpt>
      <trkpt lat="46.29979" lon="10.50438">
        <ele>1615</ele>
        <time>2018-09-21T15:56:31.003Z</time>
      </trkpt>
      <trkpt lat="46.29971" lon="10.50446">
        <ele>1615</ele>
        <time>2018-09-21T15:56:37.001Z</time>
      </trkpt>
      <trkpt lat="46.29965" lon="10.50459">
        <ele>1615</ele>
        <time>2018-09-21T15:56:44.016Z</time>
      </trkpt>
      <trkpt lat="46.29959" lon="10.50471">
        <ele>1615</ele>
        <time>2018-09-21T15:56:49.014Z</time>
      </trkpt>
      <trkpt lat="46.29951" lon="10.50478">
        <ele>1615</ele>
        <time>2018-09-21T15:56:54.001Z</time>
      </trkpt>
      <trkpt lat="46.29946" lon="10.5049">
        <ele>1615.6445886047</ele>
        <time>2018-09-21T15:57:02.003Z</time>
      </trkpt>
      <trkpt lat="46.29939" lon="10.50498">
        <ele>1616</ele>
        <time>2018-09-21T15:57:08.001Z</time>
      </trkpt>
      <trkpt lat="46.29933" lon="10.50511">
        <ele>1616</ele>
        <time>2018-09-21T15:57:13.014Z</time>
      </trkpt>
      <trkpt lat="46.29927" lon="10.5052">
        <ele>1615.65059968</ele>
        <time>2018-09-21T15:57:19.014Z</time>
      </trkpt>
      <trkpt lat="46.29918" lon="10.50528">
        <ele>1615.0504</ele>
        <time>2018-09-21T15:57:25.016Z</time>
      </trkpt>
      <trkpt lat="46.29909" lon="10.50535">
        <ele>1615.6487517758</ele>
        <time>2018-09-21T15:57:32.014Z</time>
      </trkpt>
      <trkpt lat="46.29901" lon="10.50546">
        <ele>1616</ele>
        <time>2018-09-21T15:57:38.002Z</time>
      </trkpt>
      <trkpt lat="46.29894" lon="10.50555">
        <ele>1616</ele>
        <time>2018-09-21T15:57:45.012Z</time>
      </trkpt>
      <trkpt lat="46.29884" lon="10.5056">
        <ele>1615.45159936</ele>
        <time>2018-09-21T15:57:51.004Z</time>
      </trkpt>
      <trkpt lat="46.29874" lon="10.50564">
        <ele>1615.24940032</ele>
        <time>2018-09-21T15:57:58.014Z</time>
      </trkpt>
      <trkpt lat="46.29866" lon="10.50572">
        <ele>1615.84839936</ele>
        <time>2018-09-21T15:58:04.004Z</time>
      </trkpt>
      <trkpt lat="46.29857" lon="10.50578">
        <ele>1616</ele>
        <time>2018-09-21T15:58:10.004Z</time>
      </trkpt>
      <trkpt lat="46.29851" lon="10.50589">
        <ele>1616</ele>
        <time>2018-09-21T15:58:16.014Z</time>
      </trkpt>
      <trkpt lat="46.29842" lon="10.50593">
        <ele>1615.4020638532</ele>
        <time>2018-09-21T15:58:22.014Z</time>
      </trkpt>
      <trkpt lat="46.29832" lon="10.50595">
        <ele>1615</ele>
        <time>2018-09-21T15:58:27.003Z</time>
      </trkpt>
      <trkpt lat="46.29823" lon="10.50602">
        <ele>1615</ele>
        <time>2018-09-21T15:58:32.003Z</time>
      </trkpt>
      <trkpt lat="46.29814" lon="10.50604">
        <ele>1615</ele>
        <time>2018-09-21T15:58:39.004Z</time>
      </trkpt>
      <trkpt lat="46.29804" lon="10.50607">
        <ele>1615</ele>
        <time>2018-09-21T15:58:44.001Z</time>
      </trkpt>
      <trkpt lat="46.29794" lon="10.50613">
        <ele>1614.54070016</ele>
        <time>2018-09-21T15:58:50.113Z</time>
      </trkpt>
      <trkpt lat="46.29786" lon="10.50617">
        <ele>1613.8518954743</ele>
        <time>2018-09-21T15:58:57.004Z</time>
      </trkpt>
      <trkpt lat="46.29775" lon="10.50616">
        <ele>1613.2533928964</ele>
        <time>2018-09-21T15:59:03.001Z</time>
      </trkpt>
      <trkpt lat="46.29763" lon="10.50619">
        <ele>1613.4465076589</ele>
        <time>2018-09-21T15:59:10.014Z</time>
      </trkpt>
      <trkpt lat="46.29754" lon="10.50622">
        <ele>1614</ele>
        <time>2018-09-21T15:59:16.001Z</time>
      </trkpt>
      <trkpt lat="46.29744" lon="10.50623">
        <ele>1614</ele>
        <time>2018-09-21T15:59:21.001Z</time>
      </trkpt>
      <trkpt lat="46.29735" lon="10.50624">
        <ele>1614</ele>
        <time>2018-09-21T15:59:27.003Z</time>
      </trkpt>
      <trkpt lat="46.29726" lon="10.50627">
        <ele>1614</ele>
        <time>2018-09-21T15:59:33.014Z</time>
      </trkpt>
      <trkpt lat="46.29713" lon="10.50627">
        <ele>1614</ele>
        <time>2018-09-21T15:59:41.014Z</time>
      </trkpt>
      <trkpt lat="46.29704" lon="10.50622">
        <ele>1614</ele>
        <time>2018-09-21T15:59:51.002Z</time>
      </trkpt>
      <trkpt lat="46.29696" lon="10.50618">
        <ele>1613.85059968</ele>
        <time>2018-09-21T16:00:27.014Z</time>
      </trkpt>
      <trkpt lat="46.29686" lon="10.50619">
        <ele>1613.15059968</ele>
        <time>2018-09-21T16:00:34.014Z</time>
      </trkpt>
      <trkpt lat="46.29696" lon="10.5062">
        <ele>1613</ele>
        <time>2018-09-21T16:00:42.002Z</time>
      </trkpt>
      <trkpt lat="46.29705" lon="10.50623">
        <ele>1613</ele>
        <time>2018-09-21T16:00:52.017Z</time>
      </trkpt>
      <trkpt lat="46.29706" lon="10.50609">
        <ele>1614</ele>
        <time>2018-09-21T16:02:07.014Z</time>
      </trkpt>
      <trkpt lat="46.29696" lon="10.50614">
        <ele>1614</ele>
        <time>2018-09-21T16:02:11.014Z</time>
      </trkpt>
      <trkpt lat="46.29694" lon="10.50628">
        <ele>1614</ele>
        <time>2018-09-21T16:02:13.014Z</time>
      </trkpt>
      <trkpt lat="46.29685" lon="10.50623">
        <ele>1614</ele>
        <time>2018-09-21T16:02:25.014Z</time>
      </trkpt>
      <trkpt lat="46.29695" lon="10.50621">
        <ele>1613.84940032</ele>
        <time>2018-09-21T16:02:44.014Z</time>
      </trkpt>
      <trkpt lat="46.29699" lon="10.50635">
        <ele>1614</ele>
        <time>2018-09-21T16:03:06.014Z</time>
      </trkpt>
      <trkpt lat="46.29707" lon="10.50627">
        <ele>1614</ele>
        <time>2018-09-21T16:03:36.015Z</time>
      </trkpt>
      <trkpt lat="46.29716" lon="10.50633">
        <ele>1614</ele>
        <time>2018-09-21T16:03:42.001Z</time>
      </trkpt>
      <trkpt lat="46.29711" lon="10.50644">
        <ele>1614</ele>
        <time>2018-09-21T16:03:51.012Z</time>
      </trkpt>
      <trkpt lat="46.29702" lon="10.50647">
        <ele>1614</ele>
        <time>2018-09-21T16:03:56.012Z</time>
      </trkpt>
      <trkpt lat="46.29693" lon="10.50652">
        <ele>1614</ele>
        <time>2018-09-21T16:04:03.002Z</time>
      </trkpt>
      <trkpt lat="46.29687" lon="10.50662">
        <ele>1614</ele>
        <time>2018-09-21T16:04:10.005Z</time>
      </trkpt>
      <trkpt lat="46.29696" lon="10.50665">
        <ele>1616.4819408268</ele>
        <time>2018-09-21T16:04:28.002Z</time>
      </trkpt>
      <trkpt lat="46.29693" lon="10.50678">
        <ele>1618.4311333154</ele>
        <time>2018-09-21T16:04:40.002Z</time>
      </trkpt>
      <trkpt lat="46.29685" lon="10.50687">
        <ele>1619</ele>
        <time>2018-09-21T16:04:52.016Z</time>
      </trkpt>
      <trkpt lat="46.29676" lon="10.50696">
        <ele>1619.84940032</ele>
        <time>2018-09-21T16:05:04.014Z</time>
      </trkpt>
      <trkpt lat="46.29669" lon="10.50707">
        <ele>1620.64940032</ele>
        <time>2018-09-21T16:05:12.014Z</time>
      </trkpt>
      <trkpt lat="46.29661" lon="10.50711">
        <ele>1621</ele>
        <time>2018-09-21T16:05:20.011Z</time>
      </trkpt>
      <trkpt lat="46.29651" lon="10.50719">
        <ele>1621.51940096</ele>
        <time>2018-09-21T16:05:28.117Z</time>
      </trkpt>
      <trkpt lat="46.29643" lon="10.50724">
        <ele>1622.89639936</ele>
        <time>2018-09-21T16:05:35.002Z</time>
      </trkpt>
      <trkpt lat="46.29636" lon="10.50733">
        <ele>1623.94829952</ele>
        <time>2018-09-21T16:05:45.003Z</time>
      </trkpt>
      <trkpt lat="46.29627" lon="10.50741">
        <ele>1624.94819968</ele>
        <time>2018-09-21T16:05:55.002Z</time>
      </trkpt>
      <trkpt lat="46.29618" lon="10.50748">
        <ele>1625</ele>
        <time>2018-09-21T16:06:02.017Z</time>
      </trkpt>
      <trkpt lat="46.2961" lon="10.50755">
        <ele>1625</ele>
        <time>2018-09-21T16:06:07.016Z</time>
      </trkpt>
      <trkpt lat="46.29602" lon="10.5076">
        <ele>1625</ele>
        <time>2018-09-21T16:06:13.002Z</time>
      </trkpt>
      <trkpt lat="46.29594" lon="10.50766">
        <ele>1624.10360064</ele>
        <time>2018-09-21T16:06:20.002Z</time>
      </trkpt>
      <trkpt lat="46.29585" lon="10.50771">
        <ele>1623</ele>
        <time>2018-09-21T16:06:27.012Z</time>
      </trkpt>
      <trkpt lat="46.29577" lon="10.50776">
        <ele>1623</ele>
        <time>2018-09-21T16:06:33.002Z</time>
      </trkpt>
      <trkpt lat="46.29567" lon="10.5078">
        <ele>1623</ele>
        <time>2018-09-21T16:06:41.002Z</time>
      </trkpt>
      <trkpt lat="46.2956" lon="10.50788">
        <ele>1623</ele>
        <time>2018-09-21T16:06:48.002Z</time>
      </trkpt>
      <trkpt lat="46.29552" lon="10.50795">
        <ele>1623</ele>
        <time>2018-09-21T16:06:55.002Z</time>
      </trkpt>
      <trkpt lat="46.29545" lon="10.50804">
        <ele>1623</ele>
        <time>2018-09-21T16:07:01.002Z</time>
      </trkpt>
      <trkpt lat="46.29538" lon="10.50814">
        <ele>1623</ele>
        <time>2018-09-21T16:07:09.002Z</time>
      </trkpt>
      <trkpt lat="46.29533" lon="10.50825">
        <ele>1623.14969984</ele>
        <time>2018-09-21T16:07:17.017Z</time>
      </trkpt>
      <trkpt lat="46.29527" lon="10.50837">
        <ele>1623.84819968</ele>
        <time>2018-09-21T16:07:24.002Z</time>
      </trkpt>
      <trkpt lat="46.29523" lon="10.50851">
        <ele>1623.35079936</ele>
        <time>2018-09-21T16:07:32.012Z</time>
      </trkpt>
      <trkpt lat="46.29519" lon="10.50862">
        <ele>1623</ele>
        <time>2018-09-21T16:07:37.013Z</time>
      </trkpt>
      <trkpt lat="46.29515" lon="10.50875">
        <ele>1623</ele>
        <time>2018-09-21T16:07:43.003Z</time>
      </trkpt>
      <trkpt lat="46.2951" lon="10.50887">
        <ele>1623</ele>
        <time>2018-09-21T16:07:50.002Z</time>
      </trkpt>
      <trkpt lat="46.29505" lon="10.50898">
        <ele>1622.50340096</ele>
        <time>2018-09-21T16:07:58.003Z</time>
      </trkpt>
      <trkpt lat="46.29496" lon="10.50907">
        <ele>1621.10360064</ele>
        <time>2018-09-21T16:08:05.002Z</time>
      </trkpt>
      <trkpt lat="46.2949" lon="10.50917">
        <ele>1621</ele>
        <time>2018-09-21T16:08:11.014Z</time>
      </trkpt>
      <trkpt lat="46.29484" lon="10.50927">
        <ele>1620.8618028412</ele>
        <time>2018-09-21T16:08:17.014Z</time>
      </trkpt>
      <trkpt lat="46.29477" lon="10.50935">
        <ele>1620.0509626583</ele>
        <time>2018-09-21T16:08:25.017Z</time>
      </trkpt>
      <trkpt lat="46.29469" lon="10.50944">
        <ele>1621.29639936</ele>
        <time>2018-09-21T16:08:32.002Z</time>
      </trkpt>
      <trkpt lat="46.29461" lon="10.50953">
        <ele>1621.6629237291</ele>
        <time>2018-09-21T16:08:39.002Z</time>
      </trkpt>
      <trkpt lat="46.29454" lon="10.50962">
        <ele>1621.0314699585</ele>
        <time>2018-09-21T16:08:46.002Z</time>
      </trkpt>
      <trkpt lat="46.29447" lon="10.50971">
        <ele>1622.4807443606</ele>
        <time>2018-09-21T16:08:53.002Z</time>
      </trkpt>
      <trkpt lat="46.2944" lon="10.5098">
        <ele>1623</ele>
        <time>2018-09-21T16:09:00.012Z</time>
      </trkpt>
      <trkpt lat="46.29432" lon="10.50986">
        <ele>1623</ele>
        <time>2018-09-21T16:09:08.004Z</time>
      </trkpt>
      <trkpt lat="46.29422" lon="10.5099">
        <ele>1623.0492992</ele>
        <time>2018-09-21T16:09:16.003Z</time>
      </trkpt>
      <trkpt lat="46.29424" lon="10.51004">
        <ele>1624.8982028891</ele>
        <time>2018-09-21T16:09:30.010Z</time>
      </trkpt>
      <trkpt lat="46.29431" lon="10.51012">
        <ele>1627.9463939422</ele>
        <time>2018-09-21T16:09:42.005Z</time>
      </trkpt>
      <trkpt lat="46.2944" lon="10.51014">
        <ele>1628.5539602718</ele>
        <time>2018-09-21T16:09:50.015Z</time>
      </trkpt>
      <trkpt lat="46.2945" lon="10.51016">
        <ele>1628.4828286172</ele>
        <time>2018-09-21T16:09:58.000Z</time>
      </trkpt>
      <trkpt lat="46.29458" lon="10.51011">
        <ele>1630.24919936</ele>
        <time>2018-09-21T16:10:08.002Z</time>
      </trkpt>
      <trkpt lat="46.29466" lon="10.51004">
        <ele>1631.1473376867</ele>
        <time>2018-09-21T16:10:17.004Z</time>
      </trkpt>
      <trkpt lat="46.29473" lon="10.50994">
        <ele>1632.1371195864</ele>
        <time>2018-09-21T16:10:27.002Z</time>
      </trkpt>
      <trkpt lat="46.29483" lon="10.50994">
        <ele>1633.889831515</ele>
        <time>2018-09-21T16:10:40.017Z</time>
      </trkpt>
      <trkpt lat="46.29491" lon="10.51">
        <ele>1637.4503593644</ele>
        <time>2018-09-21T16:10:58.002Z</time>
      </trkpt>
      <trkpt lat="46.295" lon="10.51006">
        <ele>1640</ele>
        <time>2018-09-21T16:11:16.002Z</time>
      </trkpt>
      <trkpt lat="46.29508" lon="10.51014">
        <ele>1640.90099968</ele>
        <time>2018-09-21T16:11:30.015Z</time>
      </trkpt>
      <trkpt lat="46.29515" lon="10.51023">
        <ele>1643.2941182476</ele>
        <time>2018-09-21T16:11:42.000Z</time>
      </trkpt>
      <trkpt lat="46.29523" lon="10.5103">
        <ele>1644.8485454618</ele>
        <time>2018-09-21T16:11:54.000Z</time>
      </trkpt>
      <trkpt lat="46.29533" lon="10.51033">
        <ele>1647</ele>
        <time>2018-09-21T16:12:12.005Z</time>
      </trkpt>
      <trkpt lat="46.29543" lon="10.51033">
        <ele>1649.6935749398</ele>
        <time>2018-09-21T16:12:29.004Z</time>
      </trkpt>
      <trkpt lat="46.29548" lon="10.51045">
        <ele>1650.8999980723</ele>
        <time>2018-09-21T16:12:35.012Z</time>
      </trkpt>
      <trkpt lat="46.29549" lon="10.51059">
        <ele>1654.0986034961</ele>
        <time>2018-09-21T16:12:51.014Z</time>
      </trkpt>
      <trkpt lat="46.29548" lon="10.51072">
        <ele>1656.0953475969</ele>
        <time>2018-09-21T16:13:06.002Z</time>
      </trkpt>
      <trkpt lat="46.29539" lon="10.51079">
        <ele>1658.2446280992</ele>
        <time>2018-09-21T16:13:17.014Z</time>
      </trkpt>
      <trkpt lat="46.29535" lon="10.51091">
        <ele>1661.5008</ele>
        <time>2018-09-21T16:13:38.014Z</time>
      </trkpt>
      <trkpt lat="46.29531" lon="10.51104">
        <ele>1664.9008</ele>
        <time>2018-09-21T16:13:55.014Z</time>
      </trkpt>
      <trkpt lat="46.29526" lon="10.51116">
        <ele>1667.1142976031</ele>
        <time>2018-09-21T16:14:07.004Z</time>
      </trkpt>
      <trkpt lat="46.29524" lon="10.51129">
        <ele>1668.892974472</ele>
        <time>2018-09-21T16:14:20.002Z</time>
      </trkpt>
      <trkpt lat="46.29519" lon="10.51141">
        <ele>1670.84939904</ele>
        <time>2018-09-21T16:14:34.004Z</time>
      </trkpt>
      <trkpt lat="46.29521" lon="10.51155">
        <ele>1672.89880064</ele>
        <time>2018-09-21T16:14:45.004Z</time>
      </trkpt>
      <trkpt lat="46.2952" lon="10.51169">
        <ele>1675.2999005861</ele>
        <time>2018-09-21T16:14:57.014Z</time>
      </trkpt>
      <trkpt lat="46.29517" lon="10.51182">
        <ele>1677</ele>
        <time>2018-09-21T16:15:08.989Z</time>
      </trkpt>
      <trkpt lat="46.29518" lon="10.51195">
        <ele>1678.14940032</ele>
        <time>2018-09-21T16:15:27.004Z</time>
      </trkpt>
      <trkpt lat="46.29515" lon="10.51207">
        <ele>1679.69839872</ele>
        <time>2018-09-21T16:15:39.002Z</time>
      </trkpt>
      <trkpt lat="46.29509" lon="10.51218">
        <ele>1681.3488854189</ele>
        <time>2018-09-21T16:15:49.002Z</time>
      </trkpt>
      <trkpt lat="46.29504" lon="10.5123">
        <ele>1683.0975866924</ele>
        <time>2018-09-21T16:16:01.002Z</time>
      </trkpt>
      <trkpt lat="46.29503" lon="10.51243">
        <ele>1684.7420373416</ele>
        <time>2018-09-21T16:16:13.012Z</time>
      </trkpt>
      <trkpt lat="46.29504" lon="10.51256">
        <ele>1687.0025012747</ele>
        <time>2018-09-21T16:16:26.004Z</time>
      </trkpt>
      <trkpt lat="46.29513" lon="10.5125">
        <ele>1690.6974062738</ele>
        <time>2018-09-21T16:16:49.004Z</time>
      </trkpt>
      <trkpt lat="46.29518" lon="10.51239">
        <ele>1692.4416577058</ele>
        <time>2018-09-21T16:17:00.004Z</time>
      </trkpt>
      <trkpt lat="46.29524" lon="10.51227">
        <ele>1693.2315943307</ele>
        <time>2018-09-21T16:17:08.013Z</time>
      </trkpt>
      <trkpt lat="46.29532" lon="10.51219">
        <ele>1694.3285862798</ele>
        <time>2018-09-21T16:17:19.004Z</time>
      </trkpt>
      <trkpt lat="46.2954" lon="10.51212">
        <ele>1696.09880064</ele>
        <time>2018-09-21T16:17:31.004Z</time>
      </trkpt>
      <trkpt lat="46.29548" lon="10.51205">
        <ele>1698.69879808</ele>
        <time>2018-09-21T16:17:44.004Z</time>
      </trkpt>
      <trkpt lat="46.29557" lon="10.512">
        <ele>1699.9492992</ele>
        <time>2018-09-21T16:17:55.003Z</time>
      </trkpt>
      <trkpt lat="46.29565" lon="10.51194">
        <ele>1702.8977905322</ele>
        <time>2018-09-21T16:18:10.003Z</time>
      </trkpt>
      <trkpt lat="46.29572" lon="10.51185">
        <ele>1704.5486934163</ele>
        <time>2018-09-21T16:18:21.001Z</time>
      </trkpt>
      <trkpt lat="46.2958" lon="10.51178">
        <ele>1706.4831502744</ele>
        <time>2018-09-21T16:18:33.014Z</time>
      </trkpt>
      <trkpt lat="46.29585" lon="10.51167">
        <ele>1707.7467139322</ele>
        <time>2018-09-21T16:18:43.014Z</time>
      </trkpt>
      <trkpt lat="46.29592" lon="10.51157">
        <ele>1708.6490832711</ele>
        <time>2018-09-21T16:18:52.004Z</time>
      </trkpt>
      <trkpt lat="46.29601" lon="10.51156">
        <ele>1710.09900032</ele>
        <time>2018-09-21T16:19:01.005Z</time>
      </trkpt>
      <trkpt lat="46.29611" lon="10.51155">
        <ele>1711.54919936</ele>
        <time>2018-09-21T16:19:11.002Z</time>
      </trkpt>
      <trkpt lat="46.2962" lon="10.51153">
        <ele>1712.5443008267</ele>
        <time>2018-09-21T16:19:21.002Z</time>
      </trkpt>
      <trkpt lat="46.2963" lon="10.51156">
        <ele>1713.8910192077</ele>
        <time>2018-09-21T16:19:30.015Z</time>
      </trkpt>
      <trkpt lat="46.29638" lon="10.5116">
        <ele>1715.6472582067</ele>
        <time>2018-09-21T16:19:42.002Z</time>
      </trkpt>
      <trkpt lat="46.29647" lon="10.51166">
        <ele>1716</ele>
        <time>2018-09-21T16:19:52.014Z</time>
      </trkpt>
      <trkpt lat="46.29657" lon="10.51166">
        <ele>1717.9438315486</ele>
        <time>2018-09-21T16:20:02.000Z</time>
      </trkpt>
      <trkpt lat="46.29666" lon="10.51159">
        <ele>1720.69839872</ele>
        <time>2018-09-21T16:20:14.002Z</time>
      </trkpt>
      <trkpt lat="46.29674" lon="10.51151">
        <ele>1722.6903161215</ele>
        <time>2018-09-21T16:20:24.003Z</time>
      </trkpt>
      <trkpt lat="46.2968" lon="10.51142">
        <ele>1723.9462517952</ele>
        <time>2018-09-21T16:20:35.013Z</time>
      </trkpt>
      <trkpt lat="46.29688" lon="10.51135">
        <ele>1724.9501005623</ele>
        <time>2018-09-21T16:20:45.013Z</time>
      </trkpt>
      <trkpt lat="46.29697" lon="10.51129">
        <ele>1727.29839872</ele>
        <time>2018-09-21T16:20:57.002Z</time>
      </trkpt>
      <trkpt lat="46.29706" lon="10.51124">
        <ele>1729.34919936</ele>
        <time>2018-09-21T16:21:09.002Z</time>
      </trkpt>
      <trkpt lat="46.29715" lon="10.51121">
        <ele>1730.8995911519</ele>
        <time>2018-09-21T16:21:20.012Z</time>
      </trkpt>
      <trkpt lat="46.29724" lon="10.51117">
        <ele>1733.0975866924</ele>
        <time>2018-09-21T16:21:31.002Z</time>
      </trkpt>
      <trkpt lat="46.29733" lon="10.5111">
        <ele>1734.64919936</ele>
        <time>2018-09-21T16:21:42.002Z</time>
      </trkpt>
      <trkpt lat="46.29742" lon="10.51109">
        <ele>1735</ele>
        <time>2018-09-21T16:21:59.002Z</time>
      </trkpt>
      <trkpt lat="46.29751" lon="10.51106">
        <ele>1735.69900032</ele>
        <time>2018-09-21T16:22:09.005Z</time>
      </trkpt>
      <trkpt lat="46.29761" lon="10.51104">
        <ele>1737.4497507132</ele>
        <time>2018-09-21T16:22:20.012Z</time>
      </trkpt>
      <trkpt lat="46.2977" lon="10.51103">
        <ele>1738</ele>
        <time>2018-09-21T16:22:31.002Z</time>
      </trkpt>
      <trkpt lat="46.29779" lon="10.51107">
        <ele>1739.09839872</ele>
        <time>2018-09-21T16:22:41.002Z</time>
      </trkpt>
      <trkpt lat="46.29788" lon="10.51111">
        <ele>1740.4487050199</ele>
        <time>2018-09-21T16:22:50.015Z</time>
      </trkpt>
      <trkpt lat="46.29798" lon="10.5111">
        <ele>1741.8911078973</ele>
        <time>2018-09-21T16:23:00.010Z</time>
      </trkpt>
      <trkpt lat="46.29806" lon="10.51103">
        <ele>1743.6918584308</ele>
        <time>2018-09-21T16:23:09.002Z</time>
      </trkpt>
      <trkpt lat="46.29813" lon="10.51097">
        <ele>1744.75049984</ele>
        <time>2018-09-21T16:23:18.005Z</time>
      </trkpt>
      <trkpt lat="46.29823" lon="10.51092">
        <ele>1744.1448100423</ele>
        <time>2018-09-21T16:23:27.003Z</time>
      </trkpt>
      <trkpt lat="46.29831" lon="10.51085">
        <ele>1745.2441670156</ele>
        <time>2018-09-21T16:23:37.003Z</time>
      </trkpt>
      <trkpt lat="46.29838" lon="10.51077">
        <ele>1747.14919936</ele>
        <time>2018-09-21T16:23:47.002Z</time>
      </trkpt>
      <trkpt lat="46.29847" lon="10.51072">
        <ele>1748.2490502295</ele>
        <time>2018-09-21T16:23:58.003Z</time>
      </trkpt>
      <trkpt lat="46.29856" lon="10.5107">
        <ele>1749.4906230178</ele>
        <time>2018-09-21T16:24:08.005Z</time>
      </trkpt>
      <trkpt lat="46.29865" lon="10.51067">
        <ele>1751.335635368</ele>
        <time>2018-09-21T16:24:19.003Z</time>
      </trkpt>
      <trkpt lat="46.29873" lon="10.51059">
        <ele>1752.6809729555</ele>
        <time>2018-09-21T16:24:29.004Z</time>
      </trkpt>
      <trkpt lat="46.29883" lon="10.51058">
        <ele>1754.4498500261</ele>
        <time>2018-09-21T16:24:40.014Z</time>
      </trkpt>
      <trkpt lat="46.29879" lon="10.5107">
        <ele>1755.70039808</ele>
        <time>2018-09-21T16:24:49.012Z</time>
      </trkpt>
      <trkpt lat="46.29874" lon="10.51082">
        <ele>1757.64939904</ele>
        <time>2018-09-21T16:25:02.004Z</time>
      </trkpt>
      <trkpt lat="46.29869" lon="10.51093">
        <ele>1759.89880064</ele>
        <time>2018-09-21T16:25:15.004Z</time>
      </trkpt>
      <trkpt lat="46.29866" lon="10.51107">
        <ele>1761.89779968</ele>
        <time>2018-09-21T16:25:24.999Z</time>
      </trkpt>
      <trkpt lat="46.2986" lon="10.51119">
        <ele>1762</ele>
        <time>2018-09-21T16:25:33.005Z</time>
      </trkpt>
      <trkpt lat="46.29853" lon="10.51127">
        <ele>1762</ele>
        <time>2018-09-21T16:25:42.005Z</time>
      </trkpt>
      <trkpt lat="46.29847" lon="10.51138">
        <ele>1763.29879808</ele>
        <time>2018-09-21T16:25:52.004Z</time>
      </trkpt>
      <trkpt lat="46.2984" lon="10.51149">
        <ele>1764.64939904</ele>
        <time>2018-09-21T16:26:02.004Z</time>
      </trkpt>
      <trkpt lat="46.29834" lon="10.51159">
        <ele>1765.64939904</ele>
        <time>2018-09-21T16:26:12.004Z</time>
      </trkpt>
      <trkpt lat="46.29827" lon="10.51168">
        <ele>1767.49839872</ele>
        <time>2018-09-21T16:26:23.002Z</time>
      </trkpt>
      <trkpt lat="46.29822" lon="10.51179">
        <ele>1768.74919936</ele>
        <time>2018-09-21T16:26:33.002Z</time>
      </trkpt>
      <trkpt lat="46.2982" lon="10.51193">
        <ele>1769.7268672041</ele>
        <time>2018-09-21T16:26:43.004Z</time>
      </trkpt>
      <trkpt lat="46.29821" lon="10.51207">
        <ele>1770.7396495881</ele>
        <time>2018-09-21T16:26:53.002Z</time>
      </trkpt>
      <trkpt lat="46.29816" lon="10.51219">
        <ele>1771.6487979807</ele>
        <time>2018-09-21T16:27:02.005Z</time>
      </trkpt>
      <trkpt lat="46.29811" lon="10.51229">
        <ele>1772.54919936</ele>
        <time>2018-09-21T16:27:11.002Z</time>
      </trkpt>
      <trkpt lat="46.2981" lon="10.51243">
        <ele>1774.09880064</ele>
        <time>2018-09-21T16:27:21.004Z</time>
      </trkpt>
      <trkpt lat="46.29815" lon="10.51256">
        <ele>1775.4482034001</ele>
        <time>2018-09-21T16:27:30.001Z</time>
      </trkpt>
      <trkpt lat="46.2982" lon="10.51267">
        <ele>1776.89599173</ele>
        <time>2018-09-21T16:27:40.001Z</time>
      </trkpt>
      <trkpt lat="46.29824" lon="10.5128">
        <ele>1778.54899968</ele>
        <time>2018-09-21T16:27:51.000Z</time>
      </trkpt>
      <trkpt lat="46.29824" lon="10.51294">
        <ele>1779</ele>
        <time>2018-09-21T16:28:00.000Z</time>
      </trkpt>
      <trkpt lat="46.2982" lon="10.51307">
        <ele>1779.3504</ele>
        <time>2018-09-21T16:28:09.014Z</time>
      </trkpt>
      <trkpt lat="46.29812" lon="10.51314">
        <ele>1780.44939904</ele>
        <time>2018-09-21T16:28:20.004Z</time>
      </trkpt>
      <trkpt lat="46.29822" lon="10.51316">
        <ele>1781.94909952</ele>
        <time>2018-09-21T16:28:35.001Z</time>
      </trkpt>
      <trkpt lat="46.29832" lon="10.51315">
        <ele>1782.64939904</ele>
        <time>2018-09-21T16:28:42.004Z</time>
      </trkpt>
      <trkpt lat="46.29841" lon="10.51309">
        <ele>1784.09839872</ele>
        <time>2018-09-21T16:28:51.002Z</time>
      </trkpt>
      <trkpt lat="46.29849" lon="10.513">
        <ele>1785</ele>
        <time>2018-09-21T16:28:59.015Z</time>
      </trkpt>
      <trkpt lat="46.29855" lon="10.51291">
        <ele>1785.2891460465</ele>
        <time>2018-09-21T16:29:07.002Z</time>
      </trkpt>
      <trkpt lat="46.2986" lon="10.51279">
        <ele>1787.0187182035</ele>
        <time>2018-09-21T16:29:16.014Z</time>
      </trkpt>
      <trkpt lat="46.29867" lon="10.5127">
        <ele>1788.0694396977</ele>
        <time>2018-09-21T16:29:26.002Z</time>
      </trkpt>
      <trkpt lat="46.29876" lon="10.51264">
        <ele>1790.1461306628</ele>
        <time>2018-09-21T16:29:37.002Z</time>
      </trkpt>
      <trkpt lat="46.29884" lon="10.51256">
        <ele>1791.0558409151</ele>
        <time>2018-09-21T16:29:46.002Z</time>
      </trkpt>
      <trkpt lat="46.29891" lon="10.51247">
        <ele>1793.0182905101</ele>
        <time>2018-09-21T16:29:56.002Z</time>
      </trkpt>
      <trkpt lat="46.29898" lon="10.51238">
        <ele>1794.0453125</ele>
        <time>2018-09-21T16:30:06.002Z</time>
      </trkpt>
      <trkpt lat="46.29906" lon="10.51231">
        <ele>1795.9988275</ele>
        <time>2018-09-21T16:30:16.004Z</time>
      </trkpt>
      <trkpt lat="46.2991" lon="10.51219">
        <ele>1797.2812119394</ele>
        <time>2018-09-21T16:30:27.002Z</time>
      </trkpt>
      <trkpt lat="46.29917" lon="10.51208">
        <ele>1799.14919936</ele>
        <time>2018-09-21T16:30:37.002Z</time>
      </trkpt>
      <trkpt lat="46.29917" lon="10.51222">
        <ele>1800.45020032</ele>
        <time>2018-09-21T16:30:50.012Z</time>
      </trkpt>
      <trkpt lat="46.29917" lon="10.51235">
        <ele>1801.89473624</ele>
        <time>2018-09-21T16:31:00.015Z</time>
      </trkpt>
      <trkpt lat="46.29917" lon="10.5125">
        <ele>1803</ele>
        <time>2018-09-21T16:31:10.014Z</time>
      </trkpt>
      <trkpt lat="46.29917" lon="10.51263">
        <ele>1804.0940832398</ele>
        <time>2018-09-21T16:31:21.004Z</time>
      </trkpt>
      <trkpt lat="46.29918" lon="10.51276">
        <ele>1805.5489494138</ele>
        <time>2018-09-21T16:31:31.004Z</time>
      </trkpt>
      <trkpt lat="46.29916" lon="10.5129">
        <ele>1807.09839872</ele>
        <time>2018-09-21T16:31:41.002Z</time>
      </trkpt>
      <trkpt lat="46.29915" lon="10.51303">
        <ele>1809.29879808</ele>
        <time>2018-09-21T16:31:52.004Z</time>
      </trkpt>
      <trkpt lat="46.29911" lon="10.51315">
        <ele>1810.54919936</ele>
        <time>2018-09-21T16:32:01.002Z</time>
      </trkpt>
      <trkpt lat="46.29921" lon="10.51315">
        <ele>1812.0414309677</ele>
        <time>2018-09-21T16:32:16.001Z</time>
      </trkpt>
      <trkpt lat="46.2993" lon="10.5131">
        <ele>1812.9503019355</ele>
        <time>2018-09-21T16:32:25.017Z</time>
      </trkpt>
      <trkpt lat="46.29937" lon="10.51301">
        <ele>1813.84919936</ele>
        <time>2018-09-21T16:32:34.002Z</time>
      </trkpt>
      <trkpt lat="46.29942" lon="10.5129">
        <ele>1814.7403155731</ele>
        <time>2018-09-21T16:32:43.002Z</time>
      </trkpt>
      <trkpt lat="46.29948" lon="10.51278">
        <ele>1816.6951397571</ele>
        <time>2018-09-21T16:32:54.004Z</time>
      </trkpt>
      <trkpt lat="46.29955" lon="10.5127">
        <ele>1819.0273845643</ele>
        <time>2018-09-21T16:33:06.002Z</time>
      </trkpt>
      <trkpt lat="46.2996" lon="10.51258">
        <ele>1821.69839872</ele>
        <time>2018-09-21T16:33:19.002Z</time>
      </trkpt>
      <trkpt lat="46.29967" lon="10.51247">
        <ele>1823.54940032</ele>
        <time>2018-09-21T16:33:31.004Z</time>
      </trkpt>
      <trkpt lat="46.29976" lon="10.51242">
        <ele>1825.0635437468</ele>
        <time>2018-09-21T16:33:46.002Z</time>
      </trkpt>
      <trkpt lat="46.29984" lon="10.51236">
        <ele>1828.0471541409</ele>
        <time>2018-09-21T16:33:59.004Z</time>
      </trkpt>
      <trkpt lat="46.2999" lon="10.51226">
        <ele>1831.54909952</ele>
        <time>2018-09-21T16:34:21.001Z</time>
      </trkpt>
      <trkpt lat="46.29995" lon="10.51215">
        <ele>1833.097703288</ele>
        <time>2018-09-21T16:34:31.004Z</time>
      </trkpt>
      <trkpt lat="46.30001" lon="10.51205">
        <ele>1835.8980971698</ele>
        <time>2018-09-21T16:34:45.001Z</time>
      </trkpt>
      <trkpt lat="46.30009" lon="10.51197">
        <ele>1838.478463896</ele>
        <time>2018-09-21T16:34:58.016Z</time>
      </trkpt>
      <trkpt lat="46.30017" lon="10.51192">
        <ele>1840.6483444108</ele>
        <time>2018-09-21T16:35:12.004Z</time>
      </trkpt>
      <trkpt lat="46.30026" lon="10.51186">
        <ele>1842.50119936</ele>
        <time>2018-09-21T16:35:28.016Z</time>
      </trkpt>
      <trkpt lat="46.30034" lon="10.51178">
        <ele>1845.09880064</ele>
        <time>2018-09-21T16:35:41.004Z</time>
      </trkpt>
      <trkpt lat="46.30039" lon="10.51167">
        <ele>1848.0403632564</ele>
        <time>2018-09-21T16:35:56.000Z</time>
      </trkpt>
      <trkpt lat="46.30047" lon="10.51159">
        <ele>1850.09819904</ele>
        <time>2018-09-21T16:36:11.001Z</time>
      </trkpt>
      <trkpt lat="46.30051" lon="10.51171">
        <ele>1856.0964958249</ele>
        <time>2018-09-21T16:36:46.002Z</time>
      </trkpt>
      <trkpt lat="46.30049" lon="10.51185">
        <ele>1858.34919936</ele>
        <time>2018-09-21T16:36:59.002Z</time>
      </trkpt>
      <trkpt lat="46.30048" lon="10.51199">
        <ele>1860.29799936</ele>
        <time>2018-09-21T16:37:12.000Z</time>
      </trkpt>
      <trkpt lat="46.30047" lon="10.51214">
        <ele>1861.7500992</ele>
        <time>2018-09-21T16:37:23.011Z</time>
      </trkpt>
      <trkpt lat="46.30048" lon="10.51227">
        <ele>1862.54919936</ele>
        <time>2018-09-21T16:37:31.002Z</time>
      </trkpt>
      <trkpt lat="46.30049" lon="10.5124">
        <ele>1863.3481552285</ele>
        <time>2018-09-21T16:37:39.002Z</time>
      </trkpt>
      <trkpt lat="46.30047" lon="10.51253">
        <ele>1864.6944834236</ele>
        <time>2018-09-21T16:37:49.002Z</time>
      </trkpt>
      <trkpt lat="46.30046" lon="10.51267">
        <ele>1866.34940032</ele>
        <time>2018-09-21T16:37:59.004Z</time>
      </trkpt>
      <trkpt lat="46.30046" lon="10.51281">
        <ele>1867.44919936</ele>
        <time>2018-09-21T16:38:10.002Z</time>
      </trkpt>
      <trkpt lat="46.30047" lon="10.51294">
        <ele>1868.3477086853</ele>
        <time>2018-09-21T16:38:19.001Z</time>
      </trkpt>
      <trkpt lat="46.30047" lon="10.51308">
        <ele>1869.6927704418</ele>
        <time>2018-09-21T16:38:29.000Z</time>
      </trkpt>
      <trkpt lat="46.30046" lon="10.51321">
        <ele>1871.697701242</ele>
        <time>2018-09-21T16:38:39.002Z</time>
      </trkpt>
      <trkpt lat="46.30046" lon="10.51335">
        <ele>1873.4486481846</ele>
        <time>2018-09-21T16:38:50.002Z</time>
      </trkpt>
      <trkpt lat="46.30044" lon="10.51348">
        <ele>1875.0966081256</ele>
        <time>2018-09-21T16:39:01.004Z</time>
      </trkpt>
      <trkpt lat="46.30044" lon="10.51361">
        <ele>1876.6483965381</ele>
        <time>2018-09-21T16:39:12.001Z</time>
      </trkpt>
      <trkpt lat="46.30043" lon="10.51374">
        <ele>1878.6473309339</ele>
        <time>2018-09-21T16:39:24.002Z</time>
      </trkpt>
      <trkpt lat="46.3004" lon="10.51388">
        <ele>1880.8947361469</ele>
        <time>2018-09-21T16:39:35.000Z</time>
      </trkpt>
      <trkpt lat="46.30041" lon="10.51401">
        <ele>1882.2996015936</ele>
        <time>2018-09-21T16:39:47.014Z</time>
      </trkpt>
      <trkpt lat="46.30039" lon="10.51415">
        <ele>1884.4947791165</ele>
        <time>2018-09-21T16:39:58.014Z</time>
      </trkpt>
      <trkpt lat="46.30035" lon="10.51427">
        <ele>1886</ele>
        <time>2018-09-21T16:40:08.014Z</time>
      </trkpt>
      <trkpt lat="46.3003" lon="10.51437">
        <ele>1886.2990996439</ele>
        <time>2018-09-21T16:40:17.014Z</time>
      </trkpt>
      <trkpt lat="46.30025" lon="10.51448">
        <ele>1888.5008</ele>
        <time>2018-09-21T16:40:28.014Z</time>
      </trkpt>
      <trkpt lat="46.3002" lon="10.51459">
        <ele>1891.3008</ele>
        <time>2018-09-21T16:40:42.014Z</time>
      </trkpt>
      <trkpt lat="46.30013" lon="10.51468">
        <ele>1894.2469409057</ele>
        <time>2018-09-21T16:40:58.002Z</time>
      </trkpt>
      <trkpt lat="46.30006" lon="10.51478">
        <ele>1895.6961113741</ele>
        <time>2018-09-21T16:41:09.001Z</time>
      </trkpt>
      <trkpt lat="46.29999" lon="10.51488">
        <ele>1897.4931870184</ele>
        <time>2018-09-21T16:41:18.001Z</time>
      </trkpt>
      <trkpt lat="46.29993" lon="10.51499">
        <ele>1899</ele>
        <time>2018-09-21T16:41:30.014Z</time>
      </trkpt>
      <trkpt lat="46.29985" lon="10.51507">
        <ele>1900.2887533816</ele>
        <time>2018-09-21T16:41:42.000Z</time>
      </trkpt>
      <trkpt lat="46.29981" lon="10.51519">
        <ele>1901.89799936</ele>
        <time>2018-09-21T16:41:50.000Z</time>
      </trkpt>
      <trkpt lat="46.29977" lon="10.51531">
        <ele>1903.642687747</ele>
        <time>2018-09-21T16:42:02.014Z</time>
      </trkpt>
      <trkpt lat="46.29976" lon="10.51546">
        <ele>1904.7463565992</ele>
        <time>2018-09-21T16:42:13.004Z</time>
      </trkpt>
      <trkpt lat="46.29972" lon="10.51558">
        <ele>1907.053861352</ele>
        <time>2018-09-21T16:42:26.002Z</time>
      </trkpt>
      <trkpt lat="46.29968" lon="10.51571">
        <ele>1909.4487590083</ele>
        <time>2018-09-21T16:42:38.002Z</time>
      </trkpt>
      <trkpt lat="46.29963" lon="10.51581">
        <ele>1912.70139904</ele>
        <time>2018-09-21T16:42:54.017Z</time>
      </trkpt>
      <trkpt lat="46.29956" lon="10.5159">
        <ele>1916.1474948954</ele>
        <time>2018-09-21T16:43:07.002Z</time>
      </trkpt>
      <trkpt lat="46.29948" lon="10.516">
        <ele>1917.35059968</ele>
        <time>2018-09-21T16:43:19.016Z</time>
      </trkpt>
      <trkpt lat="46.29941" lon="10.5161">
        <ele>1919.29819904</ele>
        <time>2018-09-21T16:43:32.001Z</time>
      </trkpt>
      <trkpt lat="46.29932" lon="10.51613">
        <ele>1921.70119936</ele>
        <time>2018-09-21T16:43:44.016Z</time>
      </trkpt>
      <trkpt lat="46.29922" lon="10.51608">
        <ele>1923.2483481086</ele>
        <time>2018-09-21T16:43:58.001Z</time>
      </trkpt>
      <trkpt lat="46.29913" lon="10.51613">
        <ele>1924.70099968</ele>
        <time>2018-09-21T16:44:09.015Z</time>
      </trkpt>
      <trkpt lat="46.29905" lon="10.51618">
        <ele>1926.29799936</ele>
        <time>2018-09-21T16:44:17.000Z</time>
      </trkpt>
      <trkpt lat="46.29897" lon="10.51625">
        <ele>1927.89839872</ele>
        <time>2018-09-21T16:44:25.002Z</time>
      </trkpt>
      <trkpt lat="46.2989" lon="10.51634">
        <ele>1928</ele>
        <time>2018-09-21T16:44:31.002Z</time>
      </trkpt>
      <trkpt lat="46.29882" lon="10.51642">
        <ele>1928</ele>
        <time>2018-09-21T16:44:38.001Z</time>
      </trkpt>
      <trkpt lat="46.29876" lon="10.51652">
        <ele>1928</ele>
        <time>2018-09-21T16:44:45.001Z</time>
      </trkpt>
      <trkpt lat="46.2987" lon="10.51664">
        <ele>1928.64909952</ele>
        <time>2018-09-21T16:44:52.001Z</time>
      </trkpt>
      <trkpt lat="46.29865" lon="10.51675">
        <ele>1929.3489548574</ele>
        <time>2018-09-21T16:44:59.017Z</time>
      </trkpt>
      <trkpt lat="46.29858" lon="10.51682">
        <ele>1930</ele>
        <time>2018-09-21T16:45:07.000Z</time>
      </trkpt>
      <trkpt lat="46.29851" lon="10.51692">
        <ele>1930</ele>
        <time>2018-09-21T16:45:15.001Z</time>
      </trkpt>
      <trkpt lat="46.29845" lon="10.51704">
        <ele>1930</ele>
        <time>2018-09-21T16:45:24.017Z</time>
      </trkpt>
      <trkpt lat="46.29841" lon="10.51716">
        <ele>1930</ele>
        <time>2018-09-21T16:45:30.002Z</time>
      </trkpt>
      <trkpt lat="46.29835" lon="10.51725">
        <ele>1930.4775059077</ele>
        <time>2018-09-21T16:45:38.002Z</time>
      </trkpt>
      <trkpt lat="46.29827" lon="10.51733">
        <ele>1931.8405048209</ele>
        <time>2018-09-21T16:45:45.001Z</time>
      </trkpt>
      <trkpt lat="46.29819" lon="10.5174">
        <ele>1932</ele>
        <time>2018-09-21T16:45:52.005Z</time>
      </trkpt>
      <trkpt lat="46.29812" lon="10.51747">
        <ele>1932.24909952</ele>
        <time>2018-09-21T16:45:58.001Z</time>
      </trkpt>
      <trkpt lat="46.29807" lon="10.51759">
        <ele>1933.24939904</ele>
        <time>2018-09-21T16:46:08.004Z</time>
      </trkpt>
      <trkpt lat="46.29817" lon="10.51758">
        <ele>1934.69979904</ele>
        <time>2018-09-21T16:46:19.009Z</time>
      </trkpt>
      <trkpt lat="46.29826" lon="10.51755">
        <ele>1936.24939904</ele>
        <time>2018-09-21T16:46:28.004Z</time>
      </trkpt>
      <trkpt lat="46.29836" lon="10.51751">
        <ele>1937.4982999395</ele>
        <time>2018-09-21T16:46:38.004Z</time>
      </trkpt>
      <trkpt lat="46.29844" lon="10.51743">
        <ele>1939.4972958567</ele>
        <time>2018-09-21T16:46:48.004Z</time>
      </trkpt>
      <trkpt lat="46.29853" lon="10.51739">
        <ele>1941.14899968</ele>
        <time>2018-09-21T16:46:57.000Z</time>
      </trkpt>
      <trkpt lat="46.29862" lon="10.51735">
        <ele>1942.49900032</ele>
        <time>2018-09-21T16:47:08.005Z</time>
      </trkpt>
      <trkpt lat="46.29871" lon="10.51729">
        <ele>1944</ele>
        <time>2018-09-21T16:47:18.005Z</time>
      </trkpt>
      <trkpt lat="46.29879" lon="10.51722">
        <ele>1944.2984037036</ele>
        <time>2018-09-21T16:47:27.005Z</time>
      </trkpt>
      <trkpt lat="46.29889" lon="10.51719">
        <ele>1946.4957906239</ele>
        <time>2018-09-21T16:47:38.004Z</time>
      </trkpt>
      <trkpt lat="46.29899" lon="10.51721">
        <ele>1948.64939904</ele>
        <time>2018-09-21T16:47:52.004Z</time>
      </trkpt>
      <trkpt lat="46.29908" lon="10.5172">
        <ele>1951.84820096</ele>
        <time>2018-09-21T16:48:05.004Z</time>
      </trkpt>
      <trkpt lat="46.29917" lon="10.51719">
        <ele>1954.24919936</ele>
        <time>2018-09-21T16:48:18.002Z</time>
      </trkpt>
      <trkpt lat="46.29926" lon="10.51718">
        <ele>1955.5492992</ele>
        <time>2018-09-21T16:48:31.003Z</time>
      </trkpt>
      <trkpt lat="46.29936" lon="10.51714">
        <ele>1957.69999872</ele>
        <time>2018-09-21T16:48:44.010Z</time>
      </trkpt>
      <trkpt lat="46.29945" lon="10.51712">
        <ele>1958</ele>
        <time>2018-09-21T16:48:56.005Z</time>
      </trkpt>
      <trkpt lat="46.29955" lon="10.51715">
        <ele>1961.2936833281</ele>
        <time>2018-09-21T16:49:07.004Z</time>
      </trkpt>
      <trkpt lat="46.29964" lon="10.51719">
        <ele>1963.3495002632</ele>
        <time>2018-09-21T16:49:19.012Z</time>
      </trkpt>
      <trkpt lat="46.29973" lon="10.51715">
        <ele>1964.6486966581</ele>
        <time>2018-09-21T16:49:32.004Z</time>
      </trkpt>
      <trkpt lat="46.29981" lon="10.51708">
        <ele>1966.89900032</ele>
        <time>2018-09-21T16:49:45.005Z</time>
      </trkpt>
      <trkpt lat="46.29989" lon="10.517">
        <ele>1969.7515031654</ele>
        <time>2018-09-21T16:49:58.010Z</time>
      </trkpt>
      <trkpt lat="46.29997" lon="10.51692">
        <ele>1969.1478736914</ele>
        <time>2018-09-21T16:50:07.005Z</time>
      </trkpt>
      <trkpt lat="46.30004" lon="10.51683">
        <ele>1970.0796783049</ele>
        <time>2018-09-21T16:50:16.014Z</time>
      </trkpt>
      <trkpt lat="46.30012" lon="10.51675">
        <ele>1972.49900032</ele>
        <time>2018-09-21T16:50:28.005Z</time>
      </trkpt>
      <trkpt lat="46.30019" lon="10.51666">
        <ele>1974.4495499539</ele>
        <time>2018-09-21T16:50:40.010Z</time>
      </trkpt>
      <trkpt lat="46.30027" lon="10.51658">
        <ele>1975.894821992</ele>
        <time>2018-09-21T16:50:50.012Z</time>
      </trkpt>
      <trkpt lat="46.30035" lon="10.5165">
        <ele>1977.6476373395</ele>
        <time>2018-09-21T16:51:02.004Z</time>
      </trkpt>
      <trkpt lat="46.30043" lon="10.51643">
        <ele>1979.49880064</ele>
        <time>2018-09-21T16:51:13.004Z</time>
      </trkpt>
      <trkpt lat="46.3005" lon="10.51635">
        <ele>1981.6920299602</ele>
        <time>2018-09-21T16:51:24.004Z</time>
      </trkpt>
      <trkpt lat="46.30056" lon="10.51624">
        <ele>1982.8487942169</ele>
        <time>2018-09-21T16:51:34.004Z</time>
      </trkpt>
      <trkpt lat="46.30061" lon="10.51613">
        <ele>1983.8384988236</ele>
        <time>2018-09-21T16:51:44.004Z</time>
      </trkpt>
      <trkpt lat="46.30064" lon="10.51626">
        <ele>1989.6885437981</ele>
        <time>2018-09-21T16:52:14.001Z</time>
      </trkpt>
      <trkpt lat="46.30059" lon="10.51638">
        <ele>1991.90060032</ele>
        <time>2018-09-21T16:52:25.013Z</time>
      </trkpt>
      <trkpt lat="46.30056" lon="10.51651">
        <ele>1993.0926785868</ele>
        <time>2018-09-21T16:52:36.002Z</time>
      </trkpt>
      <trkpt lat="46.30055" lon="10.51665">
        <ele>1995.29839872</ele>
        <time>2018-09-21T16:52:47.002Z</time>
      </trkpt>
      <trkpt lat="46.30052" lon="10.51678">
        <ele>1997.2488507489</ele>
        <time>2018-09-21T16:52:58.001Z</time>
      </trkpt>
      <trkpt lat="46.30049" lon="10.51691">
        <ele>1998.6500501621</ele>
        <time>2018-09-21T16:53:12.014Z</time>
      </trkpt>
      <trkpt lat="46.30045" lon="10.51703">
        <ele>2000.9008</ele>
        <time>2018-09-21T16:53:25.014Z</time>
      </trkpt>
      <trkpt lat="46.30039" lon="10.51715">
        <ele>2002.294663083</ele>
        <time>2018-09-21T16:53:37.001Z</time>
      </trkpt>
      <trkpt lat="46.30034" lon="10.51726">
        <ele>2005.01579904</ele>
        <time>2018-09-21T16:53:49.016Z</time>
      </trkpt>
      <trkpt lat="46.30033" lon="10.51739">
        <ele>2008.0496414955</ele>
        <time>2018-09-21T16:54:06.003Z</time>
      </trkpt>
      <trkpt lat="46.30028" lon="10.51751">
        <ele>2012.9923675502</ele>
        <time>2018-09-21T16:54:23.001Z</time>
      </trkpt>
      <trkpt lat="46.30026" lon="10.51764">
        <ele>2015.1445108148</ele>
        <time>2018-09-21T16:54:37.001Z</time>
      </trkpt>
      <trkpt lat="46.30024" lon="10.51777">
        <ele>2016.6827588266</ele>
        <time>2018-09-21T16:54:49.016Z</time>
      </trkpt>
      <trkpt lat="46.30016" lon="10.51785">
        <ele>2018.6426731993</ele>
        <time>2018-09-21T16:55:02.001Z</time>
      </trkpt>
      <trkpt lat="46.30008" lon="10.51793">
        <ele>2021.2464390494</ele>
        <time>2018-09-21T16:55:17.014Z</time>
      </trkpt>
      <trkpt lat="46.3" lon="10.51799">
        <ele>2025.2405270953</ele>
        <time>2018-09-21T16:55:38.014Z</time>
      </trkpt>
      <trkpt lat="46.29994" lon="10.5181">
        <ele>2026.30139904</ele>
        <time>2018-09-21T16:55:47.017Z</time>
      </trkpt>
      <trkpt lat="46.29988" lon="10.5182">
        <ele>2028.4977014978</ele>
        <time>2018-09-21T16:55:58.001Z</time>
      </trkpt>
      <trkpt lat="46.29984" lon="10.51831">
        <ele>2030.5475524627</ele>
        <time>2018-09-21T16:56:11.001Z</time>
      </trkpt>
      <trkpt lat="46.29981" lon="10.51844">
        <ele>2032.8979950955</ele>
        <time>2018-09-21T16:56:25.001Z</time>
      </trkpt>
      <trkpt lat="46.29977" lon="10.51856">
        <ele>2035.0346184884</ele>
        <time>2018-09-21T16:56:36.001Z</time>
      </trkpt>
      <trkpt lat="46.2997" lon="10.51865">
        <ele>2036.74759808</ele>
        <time>2018-09-21T16:56:48.002Z</time>
      </trkpt>
      <trkpt lat="46.29961" lon="10.51868">
        <ele>2040.09839872</ele>
        <time>2018-09-21T16:57:01.002Z</time>
      </trkpt>
      <trkpt lat="46.29953" lon="10.51874">
        <ele>2043.0476385724</ele>
        <time>2018-09-21T16:57:16.002Z</time>
      </trkpt>
      <trkpt lat="46.29944" lon="10.5188">
        <ele>2045.6479039667</ele>
        <time>2018-09-21T16:57:32.002Z</time>
      </trkpt>
      <trkpt lat="46.29936" lon="10.51887">
        <ele>2048.5008</ele>
        <time>2018-09-21T16:57:48.014Z</time>
      </trkpt>
      <trkpt lat="46.29928" lon="10.51893">
        <ele>2051.09819904</ele>
        <time>2018-09-21T16:58:01.001Z</time>
      </trkpt>
      <trkpt lat="46.29918" lon="10.51896">
        <ele>2052.8504</ele>
        <time>2018-09-21T16:58:14.014Z</time>
      </trkpt>
      <trkpt lat="46.29909" lon="10.51901">
        <ele>2053.7278368255</ele>
        <time>2018-09-21T16:58:23.014Z</time>
      </trkpt>
      <trkpt lat="46.29912" lon="10.51914">
        <ele>2057.067955868</ele>
        <time>2018-09-21T16:58:46.014Z</time>
      </trkpt>
      <trkpt lat="46.2992" lon="10.51919">
        <ele>2059.69880064</ele>
        <time>2018-09-21T16:58:59.004Z</time>
      </trkpt>
      <trkpt lat="46.29929" lon="10.51922">
        <ele>2061.44909952</ele>
        <time>2018-09-21T16:59:10.001Z</time>
      </trkpt>
      <trkpt lat="46.29928" lon="10.51935">
        <ele>2067.0012493333</ele>
        <time>2018-09-21T17:02:16.002Z</time>
      </trkpt>
      <trkpt lat="46.2992" lon="10.51944">
        <ele>2069.6989909677</ele>
        <time>2018-09-21T17:02:34.017Z</time>
      </trkpt>
      <trkpt lat="46.29911" lon="10.51947">
        <ele>2071.4860877419</ele>
        <time>2018-09-21T17:02:48.001Z</time>
      </trkpt>
      <trkpt lat="46.29903" lon="10.51956">
        <ele>2073.6476098805</ele>
        <time>2018-09-21T17:03:02.012Z</time>
      </trkpt>
      <trkpt lat="46.29896" lon="10.51966">
        <ele>2075.8979906827</ele>
        <time>2018-09-21T17:03:15.002Z</time>
      </trkpt>
      <trkpt lat="46.29892" lon="10.51978">
        <ele>2079.24919936</ele>
        <time>2018-09-21T17:03:28.002Z</time>
      </trkpt>
      <trkpt lat="46.2989" lon="10.51991">
        <ele>2080</ele>
        <time>2018-09-21T17:03:42.001Z</time>
      </trkpt>
      <trkpt lat="46.29887" lon="10.52004">
        <ele>2082.6986046215</ele>
        <time>2018-09-21T17:03:59.017Z</time>
      </trkpt>
      <trkpt lat="46.29887" lon="10.52017">
        <ele>2084.8939746185</ele>
        <time>2018-09-21T17:04:10.002Z</time>
      </trkpt>
      <trkpt lat="46.29889" lon="10.5203">
        <ele>2086.49839872</ele>
        <time>2018-09-21T17:04:18.002Z</time>
      </trkpt>
      <trkpt lat="46.2989" lon="10.52044">
        <ele>2088.3504</ele>
        <time>2018-09-21T17:04:29.014Z</time>
      </trkpt>
      <trkpt lat="46.29891" lon="10.52057">
        <ele>2089.8711804232</ele>
        <time>2018-09-21T17:04:40.014Z</time>
      </trkpt>
      <trkpt lat="46.29888" lon="10.5207">
        <ele>2091.6368525801</ele>
        <time>2018-09-21T17:04:52.002Z</time>
      </trkpt>
      <trkpt lat="46.29885" lon="10.52083">
        <ele>2093.70099968</ele>
        <time>2018-09-21T17:05:04.015Z</time>
      </trkpt>
      <trkpt lat="46.29884" lon="10.52097">
        <ele>2095.0926785868</ele>
        <time>2018-09-21T17:05:16.002Z</time>
      </trkpt>
      <trkpt lat="46.29887" lon="10.52109">
        <ele>2097.348850621</ele>
        <time>2018-09-21T17:05:29.002Z</time>
      </trkpt>
      <trkpt lat="46.29887" lon="10.52123">
        <ele>2099.3432683252</ele>
        <time>2018-09-21T17:05:40.011Z</time>
      </trkpt>
      <trkpt lat="46.29887" lon="10.52137">
        <ele>2101.8895094951</ele>
        <time>2018-09-21T17:05:50.002Z</time>
      </trkpt>
      <trkpt lat="46.29885" lon="10.5215">
        <ele>2103.8484416166</ele>
        <time>2018-09-21T17:06:04.002Z</time>
      </trkpt>
      <trkpt lat="46.29884" lon="10.52164">
        <ele>2106.29839872</ele>
        <time>2018-09-21T17:06:17.002Z</time>
      </trkpt>
      <trkpt lat="46.29885" lon="10.52177">
        <ele>2108</ele>
        <time>2018-09-21T17:06:29.002Z</time>
      </trkpt>
      <trkpt lat="46.29885" lon="10.5219">
        <ele>2109.4977870437</ele>
        <time>2018-09-21T17:06:43.014Z</time>
      </trkpt>
      <trkpt lat="46.29881" lon="10.52203">
        <ele>2112.29839872</ele>
        <time>2018-09-21T17:06:57.002Z</time>
      </trkpt>
      <trkpt lat="46.29882" lon="10.52216">
        <ele>2114.54919936</ele>
        <time>2018-09-21T17:07:11.002Z</time>
      </trkpt>
      <trkpt lat="46.29882" lon="10.52229">
        <ele>2116.09819904</ele>
        <time>2018-09-21T17:07:21.001Z</time>
      </trkpt>
      <trkpt lat="46.29881" lon="10.52243">
        <ele>2118.70139904</ele>
        <time>2018-09-21T17:07:34.017Z</time>
      </trkpt>
      <trkpt lat="46.29879" lon="10.52256">
        <ele>2121.0002008854</ele>
        <time>2018-09-21T17:07:46.002Z</time>
      </trkpt>
      <trkpt lat="46.29875" lon="10.52269">
        <ele>2122.2186002405</ele>
        <time>2018-09-21T17:07:58.032Z</time>
      </trkpt>
      <trkpt lat="46.29869" lon="10.5228">
        <ele>2123.35059968</ele>
        <time>2018-09-21T17:08:09.016Z</time>
      </trkpt>
      <trkpt lat="46.29864" lon="10.52291">
        <ele>2125.0929343978</ele>
        <time>2018-09-21T17:08:21.002Z</time>
      </trkpt>
      <trkpt lat="46.29858" lon="10.52302">
        <ele>2126.7479391363</ele>
        <time>2018-09-21T17:08:33.002Z</time>
      </trkpt>
      <trkpt lat="46.29852" lon="10.52311">
        <ele>2128.6985984</ele>
        <time>2018-09-21T17:08:44.003Z</time>
      </trkpt>
      <trkpt lat="46.2986" lon="10.52319">
        <ele>2131.0390869841</ele>
        <time>2018-09-21T17:09:06.004Z</time>
      </trkpt>
      <trkpt lat="46.29869" lon="10.52314">
        <ele>2132.0319752134</ele>
        <time>2018-09-21T17:09:16.004Z</time>
      </trkpt>
      <trkpt lat="46.29876" lon="10.52306">
        <ele>2133.0485201095</ele>
        <time>2018-09-21T17:09:26.002Z</time>
      </trkpt>
      <trkpt lat="46.29885" lon="10.52301">
        <ele>2134.0720096896</ele>
        <time>2018-09-21T17:09:36.005Z</time>
      </trkpt>
      <trkpt lat="46.29894" lon="10.52297">
        <ele>2136.0464012121</ele>
        <time>2018-09-21T17:09:46.000Z</time>
      </trkpt>
      <trkpt lat="46.29902" lon="10.52289">
        <ele>2136.99356</ele>
        <time>2018-09-21T17:09:56.002Z</time>
      </trkpt>
      <trkpt lat="46.2991" lon="10.52284">
        <ele>2138.04950016</ele>
        <time>2018-09-21T17:10:06.005Z</time>
      </trkpt>
      <trkpt lat="46.29913" lon="10.52296">
        <ele>2139.8978078088</ele>
        <time>2018-09-21T17:10:20.017Z</time>
      </trkpt>
      <trkpt lat="46.29913" lon="10.5231">
        <ele>2142.0945773494</ele>
        <time>2018-09-21T17:10:31.001Z</time>
      </trkpt>
      <trkpt lat="46.29909" lon="10.52323">
        <ele>2143.95019904</ele>
        <time>2018-09-21T17:10:45.012Z</time>
      </trkpt>
      <trkpt lat="46.29904" lon="10.52335">
        <ele>2146.2479518075</ele>
        <time>2018-09-21T17:10:58.032Z</time>
      </trkpt>
      <trkpt lat="46.29912" lon="10.52342">
        <ele>2148.279723591</ele>
        <time>2018-09-21T17:11:17.014Z</time>
      </trkpt>
      <trkpt lat="46.29921" lon="10.52337">
        <ele>2150.0595905306</ele>
        <time>2018-09-21T17:11:26.002Z</time>
      </trkpt>
      <trkpt lat="46.29929" lon="10.52331">
        <ele>2151.8993867755</ele>
        <time>2018-09-21T17:11:35.017Z</time>
      </trkpt>
      <trkpt lat="46.29936" lon="10.52322">
        <ele>2152.85219968</ele>
        <time>2018-09-21T17:11:44.032Z</time>
      </trkpt>
      <trkpt lat="46.29942" lon="10.52332">
        <ele>2155.9749763109</ele>
        <time>2018-09-21T17:12:06.002Z</time>
      </trkpt>
      <trkpt lat="46.29941" lon="10.52347">
        <ele>2158</ele>
        <time>2018-09-21T17:12:17.114Z</time>
      </trkpt>
      <trkpt lat="46.29945" lon="10.52359">
        <ele>2158.519241494</ele>
        <time>2018-09-21T17:12:28.114Z</time>
      </trkpt>
      <trkpt lat="46.29947" lon="10.52373">
        <ele>2160.6944834236</ele>
        <time>2018-09-21T17:12:39.002Z</time>
      </trkpt>
      <trkpt lat="46.29947" lon="10.52386">
        <ele>2162.4465205226</ele>
        <time>2018-09-21T17:12:50.002Z</time>
      </trkpt>
      <trkpt lat="46.29945" lon="10.52399">
        <ele>2164.6394355642</ele>
        <time>2018-09-21T17:13:01.002Z</time>
      </trkpt>
      <trkpt lat="46.29947" lon="10.52412">
        <ele>2166</ele>
        <time>2018-09-21T17:13:10.002Z</time>
      </trkpt>
      <trkpt lat="46.29945" lon="10.52425">
        <ele>2167.2990973248</ele>
        <time>2018-09-21T17:13:22.016Z</time>
      </trkpt>
      <trkpt lat="46.29944" lon="10.52438">
        <ele>2169.95060096</ele>
        <time>2018-09-21T17:13:32.012Z</time>
      </trkpt>
      <trkpt lat="46.29938" lon="10.52448">
        <ele>2172.0247693838</ele>
        <time>2018-09-21T17:13:46.002Z</time>
      </trkpt>
      <trkpt lat="46.29933" lon="10.5246">
        <ele>2173.0942115167</ele>
        <time>2018-09-21T17:13:56.002Z</time>
      </trkpt>
      <trkpt lat="46.29926" lon="10.52468">
        <ele>2175.4407917249</ele>
        <time>2018-09-21T17:14:10.002Z</time>
      </trkpt>
      <trkpt lat="46.29917" lon="10.52474">
        <ele>2177.4716715206</ele>
        <time>2018-09-21T17:14:23.001Z</time>
      </trkpt>
      <trkpt lat="46.2991" lon="10.52482">
        <ele>2179.6951423482</ele>
        <time>2018-09-21T17:14:34.014Z</time>
      </trkpt>
      <trkpt lat="46.29916" lon="10.52493">
        <ele>2182.5486946185</ele>
        <time>2018-09-21T17:14:51.015Z</time>
      </trkpt>
      <trkpt lat="46.29926" lon="10.52493">
        <ele>2183.6464140239</ele>
        <time>2018-09-21T17:15:02.000Z</time>
      </trkpt>
      <trkpt lat="46.29936" lon="10.52496">
        <ele>2184.6475900402</ele>
        <time>2018-09-21T17:15:12.000Z</time>
      </trkpt>
      <trkpt lat="46.29945" lon="10.52494">
        <ele>2185</ele>
        <time>2018-09-21T17:15:23.000Z</time>
      </trkpt>
      <trkpt lat="46.29954" lon="10.52496">
        <ele>2186.2965929962</ele>
        <time>2018-09-21T17:15:32.000Z</time>
      </trkpt>
      <trkpt lat="46.29959" lon="10.52508">
        <ele>2190.0987984938</ele>
        <time>2018-09-21T17:15:51.013Z</time>
      </trkpt>
      <trkpt lat="46.29953" lon="10.52519">
        <ele>2192.493918399</ele>
        <time>2018-09-21T17:16:03.002Z</time>
      </trkpt>
      <trkpt lat="46.29949" lon="10.52532">
        <ele>2193.8497497134</ele>
        <time>2018-09-21T17:16:14.012Z</time>
      </trkpt>
      <trkpt lat="46.2994" lon="10.52536">
        <ele>2194.94919936</ele>
        <time>2018-09-21T17:16:25.002Z</time>
      </trkpt>
      <trkpt lat="46.29931" lon="10.52538">
        <ele>2197.5504</ele>
        <time>2018-09-21T17:16:41.014Z</time>
      </trkpt>
      <trkpt lat="46.29922" lon="10.52541">
        <ele>2199.90039808</ele>
        <time>2018-09-21T17:16:55.012Z</time>
      </trkpt>
      <trkpt lat="46.29913" lon="10.52547">
        <ele>2202.04759808</ele>
        <time>2018-09-21T17:17:09.002Z</time>
      </trkpt>
      <trkpt lat="46.29907" lon="10.52557">
        <ele>2204.5312374661</ele>
        <time>2018-09-21T17:17:21.003Z</time>
      </trkpt>
      <trkpt lat="46.29901" lon="10.52567">
        <ele>2205.3262937797</ele>
        <time>2018-09-21T17:17:29.002Z</time>
      </trkpt>
      <trkpt lat="46.29896" lon="10.5258">
        <ele>2206.9008</ele>
        <time>2018-09-21T17:17:40.014Z</time>
      </trkpt>
      <trkpt lat="46.29894" lon="10.52593">
        <ele>2209.4926278884</ele>
        <time>2018-09-21T17:17:53.003Z</time>
      </trkpt>
      <trkpt lat="46.29892" lon="10.52606">
        <ele>2211.0696424186</ele>
        <time>2018-09-21T17:18:06.003Z</time>
      </trkpt>
      <trkpt lat="46.29895" lon="10.52619">
        <ele>2213.0981078919</ele>
        <time>2018-09-21T17:18:16.003Z</time>
      </trkpt>
      <trkpt lat="46.29897" lon="10.52632">
        <ele>2215.3458288737</ele>
        <time>2018-09-21T17:18:29.001Z</time>
      </trkpt>
      <trkpt lat="46.29902" lon="10.52643">
        <ele>2217.29839872</ele>
        <time>2018-09-21T17:18:42.002Z</time>
      </trkpt>
      <trkpt lat="46.29909" lon="10.52652">
        <ele>2219.0905612851</ele>
        <time>2018-09-21T17:18:56.001Z</time>
      </trkpt>
      <trkpt lat="46.29917" lon="10.52658">
        <ele>2221.8972111554</ele>
        <time>2018-09-21T17:19:10.014Z</time>
      </trkpt>
      <trkpt lat="46.29925" lon="10.52652">
        <ele>2224.4961837751</ele>
        <time>2018-09-21T17:19:23.001Z</time>
      </trkpt>
      <trkpt lat="46.29932" lon="10.52643">
        <ele>2226.6882701794</ele>
        <time>2018-09-21T17:19:34.002Z</time>
      </trkpt>
      <trkpt lat="46.29938" lon="10.52633">
        <ele>2227</ele>
        <time>2018-09-21T17:19:45.016Z</time>
      </trkpt>
      <trkpt lat="46.29947" lon="10.52626">
        <ele>2228.4479922892</ele>
        <time>2018-09-21T17:20:00.012Z</time>
      </trkpt>
      <trkpt lat="46.29954" lon="10.52617">
        <ele>2231.8376118886</ele>
        <time>2018-09-21T17:20:15.016Z</time>
      </trkpt>
      <trkpt lat="46.29963" lon="10.52613">
        <ele>2234.4301158301</ele>
        <time>2018-09-21T17:20:30.016Z</time>
      </trkpt>
      <trkpt lat="46.29971" lon="10.52615">
        <ele>2236.6800423651</ele>
        <time>2018-09-21T17:20:44.001Z</time>
      </trkpt>
      <trkpt lat="46.29981" lon="10.52619">
        <ele>2239.2492992</ele>
        <time>2018-09-21T17:20:58.003Z</time>
      </trkpt>
      <trkpt lat="46.2999" lon="10.52622">
        <ele>2241.49819904</ele>
        <time>2018-09-21T17:21:13.001Z</time>
      </trkpt>
      <trkpt lat="46.29999" lon="10.52626">
        <ele>2243.0940122354</ele>
        <time>2018-09-21T17:21:26.001Z</time>
      </trkpt>
      <trkpt lat="46.30005" lon="10.52637">
        <ele>2246.6877362512</ele>
        <time>2018-09-21T17:21:44.014Z</time>
      </trkpt>
      <trkpt lat="46.30008" lon="10.5265">
        <ele>2249.6471586653</ele>
        <time>2018-09-21T17:22:02.001Z</time>
      </trkpt>
      <trkpt lat="46.30014" lon="10.52661">
        <ele>2251.69220096</ele>
        <time>2018-09-21T17:22:14.001Z</time>
      </trkpt>
      <trkpt lat="46.30021" lon="10.5267">
        <ele>2253.2482065339</ele>
        <time>2018-09-21T17:22:28.002Z</time>
      </trkpt>
      <trkpt lat="46.30028" lon="10.52679">
        <ele>2254.5456456895</ele>
        <time>2018-09-21T17:22:41.001Z</time>
      </trkpt>
      <trkpt lat="46.30034" lon="10.5269">
        <ele>2256.496689592</ele>
        <time>2018-09-21T17:22:53.001Z</time>
      </trkpt>
      <trkpt lat="46.30041" lon="10.52699">
        <ele>2259.0454811245</ele>
        <time>2018-09-21T17:23:06.003Z</time>
      </trkpt>
      <trkpt lat="46.30048" lon="10.52708">
        <ele>2260.2969142438</ele>
        <time>2018-09-21T17:23:17.002Z</time>
      </trkpt>
      <trkpt lat="46.30055" lon="10.52719">
        <ele>2262.2453263935</ele>
        <time>2018-09-21T17:23:28.001Z</time>
      </trkpt>
      <trkpt lat="46.3006" lon="10.52729">
        <ele>2263.675241269</ele>
        <time>2018-09-21T17:23:39.001Z</time>
      </trkpt>
      <trkpt lat="46.30064" lon="10.52742">
        <ele>2265.3261904257</ele>
        <time>2018-09-21T17:23:49.001Z</time>
      </trkpt>
      <trkpt lat="46.30068" lon="10.52754">
        <ele>2266</ele>
        <time>2018-09-21T17:23:59.015Z</time>
      </trkpt>
      <trkpt lat="46.30073" lon="10.52766">
        <ele>2266.8946205578</ele>
        <time>2018-09-21T17:24:10.001Z</time>
      </trkpt>
      <trkpt lat="46.30077" lon="10.52778">
        <ele>2268.8893100146</ele>
        <time>2018-09-21T17:24:20.001Z</time>
      </trkpt>
      <trkpt lat="46.30079" lon="10.52792">
        <ele>2271.0875118761</ele>
        <time>2018-09-21T17:24:31.003Z</time>
      </trkpt>
      <trkpt lat="46.30079" lon="10.52805">
        <ele>2272.4446338839</ele>
        <time>2018-09-21T17:24:40.003Z</time>
      </trkpt>
      <trkpt lat="46.30086" lon="10.52795">
        <ele>2274.6947256341</ele>
        <time>2018-09-21T17:25:09.001Z</time>
      </trkpt>
      <trkpt lat="46.30088" lon="10.52782">
        <ele>2276.6916577474</ele>
        <time>2018-09-21T17:25:19.001Z</time>
      </trkpt>
      <trkpt lat="46.30092" lon="10.5277">
        <ele>2278.8919550691</ele>
        <time>2018-09-21T17:25:30.001Z</time>
      </trkpt>
      <trkpt lat="46.30098" lon="10.5276">
        <ele>2281.6377624613</ele>
        <time>2018-09-21T17:25:41.001Z</time>
      </trkpt>
      <trkpt lat="46.301" lon="10.52747">
        <ele>2283.6425890909</ele>
        <time>2018-09-21T17:25:52.013Z</time>
      </trkpt>
      <trkpt lat="46.30101" lon="10.52733">
        <ele>2284.543622996</ele>
        <time>2018-09-21T17:26:01.001Z</time>
      </trkpt>
      <trkpt lat="46.30101" lon="10.5272">
        <ele>2286.30139904</ele>
        <time>2018-09-21T17:26:12.017Z</time>
      </trkpt>
      <trkpt lat="46.30098" lon="10.52706">
        <ele>2287.8483512802</ele>
        <time>2018-09-21T17:26:24.002Z</time>
      </trkpt>
      <trkpt lat="46.30103" lon="10.52718">
        <ele>2290.84909952</ele>
        <time>2018-09-21T17:26:44.001Z</time>
      </trkpt>
      <trkpt lat="46.3011" lon="10.52727">
        <ele>2293.0312632505</ele>
        <time>2018-09-21T17:26:56.001Z</time>
      </trkpt>
      <trkpt lat="46.30116" lon="10.52737">
        <ele>2295.34909952</ele>
        <time>2018-09-21T17:27:09.001Z</time>
      </trkpt>
      <trkpt lat="46.30121" lon="10.52747">
        <ele>2297.686592036</ele>
        <time>2018-09-21T17:27:24.002Z</time>
      </trkpt>
      <trkpt lat="46.30127" lon="10.52758">
        <ele>2300.0472395601</ele>
        <time>2018-09-21T17:27:36.001Z</time>
      </trkpt>
      <trkpt lat="46.30127" lon="10.52772">
        <ele>2302.2474897992</ele>
        <time>2018-09-21T17:27:48.015Z</time>
      </trkpt>
      <trkpt lat="46.30126" lon="10.52786">
        <ele>2304.0973017694</ele>
        <time>2018-09-21T17:28:01.002Z</time>
      </trkpt>
      <trkpt lat="46.30128" lon="10.52799">
        <ele>2305.8490484568</ele>
        <time>2018-09-21T17:28:14.002Z</time>
      </trkpt>
      <trkpt lat="46.30136" lon="10.52793">
        <ele>2307.89839872</ele>
        <time>2018-09-21T17:28:25.002Z</time>
      </trkpt>
      <trkpt lat="46.30137" lon="10.52806">
        <ele>2309</ele>
        <time>2018-09-21T17:28:45.002Z</time>
      </trkpt>
      <trkpt lat="46.30139" lon="10.52819">
        <ele>2309.84919936</ele>
        <time>2018-09-21T17:28:54.002Z</time>
      </trkpt>
      <trkpt lat="46.3014" lon="10.52832">
        <ele>2310</ele>
        <time>2018-09-21T17:29:03.016Z</time>
      </trkpt>
      <trkpt lat="46.30138" lon="10.52846">
        <ele>2310</ele>
        <time>2018-09-21T17:29:11.001Z</time>
      </trkpt>
      <trkpt lat="46.30135" lon="10.52859">
        <ele>2310.25030016</ele>
        <time>2018-09-21T17:29:18.013Z</time>
      </trkpt>
      <trkpt lat="46.3013" lon="10.5287">
        <ele>2311</ele>
        <time>2018-09-21T17:29:26.003Z</time>
      </trkpt>
      <trkpt lat="46.30122" lon="10.52873">
        <ele>2311</ele>
        <time>2018-09-21T17:29:44.003Z</time>
      </trkpt>
      <trkpt lat="46.30112" lon="10.52874">
        <ele>2311</ele>
        <time>2018-09-21T17:29:54.001Z</time>
      </trkpt>
      <trkpt lat="46.30103" lon="10.5288">
        <ele>2311.6248067954</ele>
        <time>2018-09-21T17:30:02.003Z</time>
      </trkpt>
      <trkpt lat="46.30096" lon="10.5289">
        <ele>2312</ele>
        <time>2018-09-21T17:30:12.004Z</time>
      </trkpt>
      <trkpt lat="46.30096" lon="10.52905">
        <ele>2312.4269855599</ele>
        <time>2018-09-21T17:30:20.002Z</time>
      </trkpt>
      <trkpt lat="46.30101" lon="10.52916">
        <ele>2312.9974789916</ele>
        <time>2018-09-21T17:30:26.014Z</time>
      </trkpt>
      <trkpt lat="46.30106" lon="10.52927">
        <ele>2312.3671220168</ele>
        <time>2018-09-21T17:30:32.015Z</time>
      </trkpt>
      <trkpt lat="46.30106" lon="10.52941">
        <ele>2311.65090048</ele>
        <time>2018-09-21T17:30:39.001Z</time>
      </trkpt>
      <trkpt lat="46.30104" lon="10.52954">
        <ele>2311.353488029</ele>
        <time>2018-09-21T17:31:22.014Z</time>
      </trkpt>
      <trkpt lat="46.30102" lon="10.52968">
        <ele>2311</ele>
        <time>2018-09-21T17:31:30.004Z</time>
      </trkpt>
      <trkpt lat="46.30103" lon="10.52983">
        <ele>2311</ele>
        <time>2018-09-21T17:31:37.001Z</time>
      </trkpt>
      <trkpt lat="46.30106" lon="10.52996">
        <ele>2311</ele>
        <time>2018-09-21T17:31:44.004Z</time>
      </trkpt>
      <trkpt lat="46.30111" lon="10.53007">
        <ele>2309.9658640776</ele>
        <time>2018-09-21T17:31:49.003Z</time>
      </trkpt>
      <trkpt lat="46.30117" lon="10.5302">
        <ele>2308.1501506224</ele>
        <time>2018-09-21T17:31:55.013Z</time>
      </trkpt>
      <trkpt lat="46.30123" lon="10.53031">
        <ele>2307.45059968</ele>
        <time>2018-09-21T17:32:01.004Z</time>
      </trkpt>
      <trkpt lat="46.30129" lon="10.53043">
        <ele>2307</ele>
        <time>2018-09-21T17:32:07.003Z</time>
      </trkpt>
      <trkpt lat="46.30133" lon="10.53055">
        <ele>2307</ele>
        <time>2018-09-21T17:32:16.014Z</time>
      </trkpt>
      <trkpt lat="46.30131" lon="10.5307">
        <ele>2307</ele>
        <time>2018-09-21T17:32:24.014Z</time>
      </trkpt>
      <trkpt lat="46.3013" lon="10.53083">
        <ele>2307.5490475756</ele>
        <time>2018-09-21T17:32:31.014Z</time>
      </trkpt>
      <trkpt lat="46.30129" lon="10.53097">
        <ele>2308.3462450593</ele>
        <time>2018-09-21T17:32:39.014Z</time>
      </trkpt>
      <trkpt lat="46.30128" lon="10.53111">
        <ele>2309</ele>
        <time>2018-09-21T17:32:46.014Z</time>
      </trkpt>
      <trkpt lat="46.30124" lon="10.53124">
        <ele>2309</ele>
        <time>2018-09-21T17:32:54.014Z</time>
      </trkpt>
      <trkpt lat="46.3012" lon="10.53138">
        <ele>2309.5504</ele>
        <time>2018-09-21T17:33:01.014Z</time>
      </trkpt>
      <trkpt lat="46.30116" lon="10.5315">
        <ele>2310.2428709237</ele>
        <time>2018-09-21T17:33:08.014Z</time>
      </trkpt>
      <trkpt lat="46.30112" lon="10.53163">
        <ele>2311.0189873334</ele>
        <time>2018-09-21T17:33:16.004Z</time>
      </trkpt>
      <trkpt lat="46.30107" lon="10.53174">
        <ele>2311.7412787587</ele>
        <time>2018-09-21T17:33:23.003Z</time>
      </trkpt>
      <trkpt lat="46.30104" lon="10.53188">
        <ele>2312</ele>
        <time>2018-09-21T17:33:30.014Z</time>
      </trkpt>
      <trkpt lat="46.30102" lon="10.53201">
        <ele>2312</ele>
        <time>2018-09-21T17:33:38.003Z</time>
      </trkpt>
      <trkpt lat="46.30101" lon="10.53215">
        <ele>2312</ele>
        <time>2018-09-21T17:33:45.015Z</time>
      </trkpt>
      <trkpt lat="46.30103" lon="10.53229">
        <ele>2312.5470345175</ele>
        <time>2018-09-21T17:33:51.003Z</time>
      </trkpt>
      <trkpt lat="46.30101" lon="10.53242">
        <ele>2314.0985984</ele>
        <time>2018-09-21T17:34:01.003Z</time>
      </trkpt>
      <trkpt lat="46.30102" lon="10.53256">
        <ele>2316.0985984</ele>
        <time>2018-09-21T17:34:11.003Z</time>
      </trkpt>
      <trkpt lat="46.30102" lon="10.5327">
        <ele>2317.45049984</ele>
        <time>2018-09-21T17:34:20.015Z</time>
      </trkpt>
      <trkpt lat="46.30106" lon="10.53281">
        <ele>2318.45049984</ele>
        <time>2018-09-21T17:34:30.015Z</time>
      </trkpt>
      <trkpt lat="46.30113" lon="10.5329">
        <ele>2318.75000064</ele>
        <time>2018-09-21T17:35:18.010Z</time>
      </trkpt>
      <trkpt lat="46.30117" lon="10.53301">
        <ele>2319</ele>
        <time>2018-09-21T17:36:51.005Z</time>
      </trkpt>
      <trkpt lat="46.30123" lon="10.53314">
        <ele>2318.10200064</ele>
        <time>2018-09-21T17:37:00.000Z</time>
      </trkpt>
      <trkpt lat="46.30129" lon="10.53325">
        <ele>2316.74930048</ele>
        <time>2018-09-21T17:37:08.017Z</time>
      </trkpt>
      <trkpt lat="46.30138" lon="10.53331">
        <ele>2316.0507008</ele>
        <time>2018-09-21T17:37:15.003Z</time>
      </trkpt>
      <trkpt lat="46.30146" lon="10.5334">
        <ele>2316</ele>
        <time>2018-09-21T17:37:29.003Z</time>
      </trkpt>
      <trkpt lat="46.30151" lon="10.53352">
        <ele>2314.9488235656</ele>
        <time>2018-09-21T17:37:46.000Z</time>
      </trkpt>
      <trkpt lat="46.30158" lon="10.5336">
        <ele>2313.3111567038</ele>
        <time>2018-09-21T17:37:54.000Z</time>
      </trkpt>
      <trkpt lat="46.30165" lon="10.53373">
        <ele>2311</ele>
        <time>2018-09-21T17:38:09.005Z</time>
      </trkpt>
      <trkpt lat="46.3017" lon="10.53385">
        <ele>2311</ele>
        <time>2018-09-21T17:38:15.003Z</time>
      </trkpt>
      <trkpt lat="46.30173" lon="10.53398">
        <ele>2311</ele>
        <time>2018-09-21T17:38:21.005Z</time>
      </trkpt>
      <trkpt lat="46.30177" lon="10.53411">
        <ele>2311</ele>
        <time>2018-09-21T17:38:29.003Z</time>
      </trkpt>
      <trkpt lat="46.30177" lon="10.53425">
        <ele>2311.2758618899</ele>
        <time>2018-09-21T17:38:37.010Z</time>
      </trkpt>
      <trkpt lat="46.30179" lon="10.53439">
        <ele>2312.6943190625</ele>
        <time>2018-09-21T17:38:44.003Z</time>
      </trkpt>
      <trkpt lat="46.3018" lon="10.53453">
        <ele>2312.652</ele>
        <time>2018-09-21T17:38:59.000Z</time>
      </trkpt>
      <trkpt lat="46.30184" lon="10.53466">
        <ele>2312.052</ele>
        <time>2018-09-21T17:39:05.000Z</time>
      </trkpt>
      <trkpt lat="46.30188" lon="10.53478">
        <ele>2312</ele>
        <time>2018-09-21T17:39:12.018Z</time>
      </trkpt>
      <trkpt lat="46.30195" lon="10.53487">
        <ele>2310.3521024</ele>
        <time>2018-09-21T17:39:21.003Z</time>
      </trkpt>
      <trkpt lat="46.30203" lon="10.53492">
        <ele>2308.3044770721</ele>
        <time>2018-09-21T17:39:29.005Z</time>
      </trkpt>
      <trkpt lat="46.30212" lon="10.53496">
        <ele>2306.85480064</ele>
        <time>2018-09-21T17:39:37.012Z</time>
      </trkpt>
      <trkpt lat="46.3022" lon="10.53502">
        <ele>2306.15580032</ele>
        <time>2018-09-21T17:39:44.002Z</time>
      </trkpt>
      <trkpt lat="46.3023" lon="10.53505">
        <ele>2305.3519074699</ele>
        <time>2018-09-21T17:39:52.015Z</time>
      </trkpt>
      <trkpt lat="46.30235" lon="10.53516">
        <ele>2303.6996997959</ele>
        <time>2018-09-21T17:40:02.015Z</time>
      </trkpt>
      <trkpt lat="46.30236" lon="10.5353">
        <ele>2303</ele>
        <time>2018-09-21T17:40:10.004Z</time>
      </trkpt>
      <trkpt lat="46.30242" lon="10.5354">
        <ele>2303</ele>
        <time>2018-09-21T17:40:17.015Z</time>
      </trkpt>
      <trkpt lat="46.30248" lon="10.53551">
        <ele>2303</ele>
        <time>2018-09-21T17:40:25.003Z</time>
      </trkpt>
      <trkpt lat="46.30253" lon="10.53563">
        <ele>2303</ele>
        <time>2018-09-21T17:40:34.003Z</time>
      </trkpt>
      <trkpt lat="46.30257" lon="10.53575">
        <ele>2305.4510486157</ele>
        <time>2018-09-21T17:40:47.015Z</time>
      </trkpt>
      <trkpt lat="46.30262" lon="10.53586">
        <ele>2308</ele>
        <time>2018-09-21T17:40:57.010Z</time>
      </trkpt>
      <trkpt lat="46.30268" lon="10.53597">
        <ele>2308.1483713795</ele>
        <time>2018-09-21T17:41:07.013Z</time>
      </trkpt>
      <trkpt lat="46.30274" lon="10.53608">
        <ele>2308.9371169791</ele>
        <time>2018-09-21T17:41:15.003Z</time>
      </trkpt>
      <trkpt lat="46.30277" lon="10.53621">
        <ele>2309</ele>
        <time>2018-09-21T17:41:24.005Z</time>
      </trkpt>
      <trkpt lat="46.30283" lon="10.53632">
        <ele>2308.45100032</ele>
        <time>2018-09-21T17:41:31.000Z</time>
      </trkpt>
      <trkpt lat="46.30289" lon="10.53642">
        <ele>2308</ele>
        <time>2018-09-21T17:41:38.003Z</time>
      </trkpt>
      <trkpt lat="46.30295" lon="10.53653">
        <ele>2308.0188648372</ele>
        <time>2018-09-21T17:41:46.003Z</time>
      </trkpt>
      <trkpt lat="46.30301" lon="10.53663">
        <ele>2308.8437105773</ele>
        <time>2018-09-21T17:41:54.004Z</time>
      </trkpt>
      <trkpt lat="46.30305" lon="10.53677">
        <ele>2308.2512514911</ele>
        <time>2018-09-21T17:42:03.000Z</time>
      </trkpt>
      <trkpt lat="46.30308" lon="10.5369">
        <ele>2308.3492992</ele>
        <time>2018-09-21T17:42:09.003Z</time>
      </trkpt>
      <trkpt lat="46.30313" lon="10.53701">
        <ele>2309.14999936</ele>
        <time>2018-09-21T17:42:17.010Z</time>
      </trkpt>
      <trkpt lat="46.30319" lon="10.53713">
        <ele>2309.9492992</ele>
        <time>2018-09-21T17:42:25.003Z</time>
      </trkpt>
      <trkpt lat="46.30325" lon="10.53725">
        <ele>2310.84950016</ele>
        <time>2018-09-21T17:42:34.005Z</time>
      </trkpt>
      <trkpt lat="46.30331" lon="10.53735">
        <ele>2311.6235863841</ele>
        <time>2018-09-21T17:42:42.014Z</time>
      </trkpt>
      <trkpt lat="46.30338" lon="10.53744">
        <ele>2312.4252616783</ele>
        <time>2018-09-21T17:42:50.014Z</time>
      </trkpt>
      <trkpt lat="46.30346" lon="10.53752">
        <ele>2312.850450178</ele>
        <time>2018-09-21T17:42:57.014Z</time>
      </trkpt>
      <trkpt lat="46.30354" lon="10.53758">
        <ele>2312.1509515432</ele>
        <time>2018-09-21T17:43:04.002Z</time>
      </trkpt>
      <trkpt lat="46.30363" lon="10.53761">
        <ele>2312</ele>
        <time>2018-09-21T17:43:11.004Z</time>
      </trkpt>
      <trkpt lat="46.30372" lon="10.53766">
        <ele>2312</ele>
        <time>2018-09-21T17:43:20.013Z</time>
      </trkpt>
      <trkpt lat="46.30379" lon="10.53774">
        <ele>2312</ele>
        <time>2018-09-21T17:43:31.003Z</time>
      </trkpt>
      <trkpt lat="46.30385" lon="10.53783">
        <ele>2310.90160128</ele>
        <time>2018-09-21T17:43:41.002Z</time>
      </trkpt>
      <trkpt lat="46.30394" lon="10.5379">
        <ele>2309.4513491153</ele>
        <time>2018-09-21T17:43:51.002Z</time>
      </trkpt>
      <trkpt lat="46.30401" lon="10.53798">
        <ele>2308.5521430741</ele>
        <time>2018-09-21T17:44:00.012Z</time>
      </trkpt>
      <trkpt lat="46.3041" lon="10.53806">
        <ele>2308</ele>
        <time>2018-09-21T17:44:08.003Z</time>
      </trkpt>
      <trkpt lat="46.30417" lon="10.53815">
        <ele>2308</ele>
        <time>2018-09-21T17:44:15.015Z</time>
      </trkpt>
      <trkpt lat="46.30424" lon="10.53825">
        <ele>2307.1514545382</ele>
        <time>2018-09-21T17:44:24.000Z</time>
      </trkpt>
      <trkpt lat="46.30432" lon="10.53832">
        <ele>2307.64919936</ele>
        <time>2018-09-21T17:44:32.002Z</time>
      </trkpt>
      <trkpt lat="46.3044" lon="10.5384">
        <ele>2308</ele>
        <time>2018-09-21T17:44:41.003Z</time>
      </trkpt>
      <trkpt lat="46.30448" lon="10.53847">
        <ele>2307.3020992774</ele>
        <time>2018-09-21T17:44:49.003Z</time>
      </trkpt>
      <trkpt lat="46.30455" lon="10.53855">
        <ele>2305.7031041592</ele>
        <time>2018-09-21T17:44:57.003Z</time>
      </trkpt>
      <trkpt lat="46.30464" lon="10.5386">
        <ele>2304.0997015897</ele>
        <time>2018-09-21T17:45:05.012Z</time>
      </trkpt>
      <trkpt lat="46.30472" lon="10.53867">
        <ele>2304.84919936</ele>
        <time>2018-09-21T17:45:14.002Z</time>
      </trkpt>
      <trkpt lat="46.3048" lon="10.53875">
        <ele>2303.9014016</ele>
        <time>2018-09-21T17:45:21.003Z</time>
      </trkpt>
      <trkpt lat="46.30487" lon="10.53885">
        <ele>2302.7507008</ele>
        <time>2018-09-21T17:45:28.003Z</time>
      </trkpt>
      <trkpt lat="46.30496" lon="10.5389">
        <ele>2302.1490012928</ele>
        <time>2018-09-21T17:45:37.003Z</time>
      </trkpt>
      <trkpt lat="46.30505" lon="10.53896">
        <ele>2302.9483030408</ele>
        <time>2018-09-21T17:45:45.012Z</time>
      </trkpt>
      <trkpt lat="46.30514" lon="10.53904">
        <ele>2302.273761766</ele>
        <time>2018-09-21T17:45:53.003Z</time>
      </trkpt>
      <trkpt lat="46.30522" lon="10.53911">
        <ele>2300.3953589747</ele>
        <time>2018-09-21T17:46:01.003Z</time>
      </trkpt>
      <trkpt lat="46.30529" lon="10.53921">
        <ele>2298.7507008</ele>
        <time>2018-09-21T17:46:08.003Z</time>
      </trkpt>
      <trkpt lat="46.30534" lon="10.53932">
        <ele>2298.0507008</ele>
        <time>2018-09-21T17:46:15.003Z</time>
      </trkpt>
      <trkpt lat="46.30542" lon="10.5394">
        <ele>2297.4507008</ele>
        <time>2018-09-21T17:46:21.003Z</time>
      </trkpt>
      <trkpt lat="46.30549" lon="10.53949">
        <ele>2296.6627527506</ele>
        <time>2018-09-21T17:46:29.014Z</time>
      </trkpt>
      <trkpt lat="46.30556" lon="10.53959">
        <ele>2295.9785663196</ele>
        <time>2018-09-21T17:46:36.003Z</time>
      </trkpt>
      <trkpt lat="46.3056" lon="10.53971">
        <ele>2294.5213317865</ele>
        <time>2018-09-21T17:46:43.005Z</time>
      </trkpt>
      <trkpt lat="46.30566" lon="10.53981">
        <ele>2294</ele>
        <time>2018-09-21T17:46:52.010Z</time>
      </trkpt>
      <trkpt lat="46.30575" lon="10.53983">
        <ele>2293.5512518755</ele>
        <time>2018-09-21T17:47:00.003Z</time>
      </trkpt>
      <trkpt lat="46.30585" lon="10.53987">
        <ele>2292.6507008</ele>
        <time>2018-09-21T17:47:09.003Z</time>
      </trkpt>
      <trkpt lat="46.30594" lon="10.53992">
        <ele>2291.69939968</ele>
        <time>2018-09-21T17:47:17.013Z</time>
      </trkpt>
      <trkpt lat="46.30602" lon="10.53998">
        <ele>2290.30160128</ele>
        <time>2018-09-21T17:47:24.002Z</time>
      </trkpt>
      <trkpt lat="46.3061" lon="10.54007">
        <ele>2288.50160128</ele>
        <time>2018-09-21T17:47:33.002Z</time>
      </trkpt>
      <trkpt lat="46.30619" lon="10.54013">
        <ele>2286.3732496342</ele>
        <time>2018-09-21T17:47:41.003Z</time>
      </trkpt>
      <trkpt lat="46.30626" lon="10.54023">
        <ele>2283.2348178138</ele>
        <time>2018-09-21T17:47:50.000Z</time>
      </trkpt>
      <trkpt lat="46.30634" lon="10.5403">
        <ele>2280.0358859248</ele>
        <time>2018-09-21T17:47:58.005Z</time>
      </trkpt>
      <trkpt lat="46.30641" lon="10.54037">
        <ele>2276.9640515702</ele>
        <time>2018-09-21T17:48:06.004Z</time>
      </trkpt>
      <trkpt lat="46.3065" lon="10.54045">
        <ele>2275.3111590083</ele>
        <time>2018-09-21T17:48:14.004Z</time>
      </trkpt>
      <trkpt lat="46.30659" lon="10.5405">
        <ele>2273.69939968</ele>
        <time>2018-09-21T17:48:22.013Z</time>
      </trkpt>
      <trkpt lat="46.30667" lon="10.5406">
        <ele>2272.10120192</ele>
        <time>2018-09-21T17:48:30.004Z</time>
      </trkpt>
      <trkpt lat="46.30675" lon="10.54065">
        <ele>2270.84969984</ele>
        <time>2018-09-21T17:48:37.013Z</time>
      </trkpt>
      <trkpt lat="46.30683" lon="10.54072">
        <ele>2270.0507008</ele>
        <time>2018-09-21T17:48:45.003Z</time>
      </trkpt>
      <trkpt lat="46.30685" lon="10.54086">
        <ele>2268.0507486276</ele>
        <time>2018-09-21T17:48:52.014Z</time>
      </trkpt>
      <trkpt lat="46.30692" lon="10.54094">
        <ele>2266.3236906727</ele>
        <time>2018-09-21T17:48:59.003Z</time>
      </trkpt>
      <trkpt lat="46.307" lon="10.54103">
        <ele>2265.4505654326</ele>
        <time>2018-09-21T17:49:08.003Z</time>
      </trkpt>
      <trkpt lat="46.3071" lon="10.54102">
        <ele>2266.8575757576</ele>
        <time>2018-09-21T17:49:17.014Z</time>
      </trkpt>
      <trkpt lat="46.30718" lon="10.5411">
        <ele>2266.0062509091</ele>
        <time>2018-09-21T17:49:26.004Z</time>
      </trkpt>
      <trkpt lat="46.30728" lon="10.54112">
        <ele>2265.2655728814</ele>
        <time>2018-09-21T17:49:33.003Z</time>
      </trkpt>
      <trkpt lat="46.30737" lon="10.54115">
        <ele>2265</ele>
        <time>2018-09-21T17:49:41.004Z</time>
      </trkpt>
      <trkpt lat="46.30746" lon="10.54121">
        <ele>2265</ele>
        <time>2018-09-21T17:49:52.014Z</time>
      </trkpt>
      <trkpt lat="46.30756" lon="10.54118">
        <ele>2265</ele>
        <time>2018-09-21T17:49:56.003Z</time>
      </trkpt>
      <trkpt lat="46.30765" lon="10.54122">
        <ele>2265</ele>
        <time>2018-09-21T17:50:04.003Z</time>
      </trkpt>
      <trkpt lat="46.30775" lon="10.54118">
        <ele>2265</ele>
        <time>2018-09-21T17:50:12.014Z</time>
      </trkpt>
      <trkpt lat="46.30784" lon="10.54117">
        <ele>2264.1014016</ele>
        <time>2018-09-21T17:50:20.003Z</time>
      </trkpt>
      <trkpt lat="46.30794" lon="10.54114">
        <ele>2262.75060096</ele>
        <time>2018-09-21T17:50:28.004Z</time>
      </trkpt>
      <trkpt lat="46.30804" lon="10.54112">
        <ele>2262</ele>
        <time>2018-09-21T17:50:36.003Z</time>
      </trkpt>
      <trkpt lat="46.30813" lon="10.54112">
        <ele>2262</ele>
        <time>2018-09-21T17:50:44.004Z</time>
      </trkpt>
      <trkpt lat="46.30822" lon="10.54116">
        <ele>2259.9799373242</ele>
        <time>2018-09-21T17:50:56.004Z</time>
      </trkpt>
      <trkpt lat="46.30831" lon="10.54112">
        <ele>2257.1586195274</ele>
        <time>2018-09-21T17:51:05.004Z</time>
      </trkpt>
      <trkpt lat="46.3084" lon="10.54108">
        <ele>2258.4985984</ele>
        <time>2018-09-21T17:51:13.003Z</time>
      </trkpt>
      <trkpt lat="46.3085" lon="10.54109">
        <ele>2259</ele>
        <time>2018-09-21T17:51:21.003Z</time>
      </trkpt>
      <trkpt lat="46.30859" lon="10.54106">
        <ele>2257.2028032</ele>
        <time>2018-09-21T17:51:30.003Z</time>
      </trkpt>
      <trkpt lat="46.30867" lon="10.54113">
        <ele>2254.0628830209</ele>
        <time>2018-09-21T17:51:45.003Z</time>
      </trkpt>
      <trkpt lat="46.30877" lon="10.54114">
        <ele>2253.2546552227</ele>
        <time>2018-09-21T17:51:53.004Z</time>
      </trkpt>
      <trkpt lat="46.30887" lon="10.54115">
        <ele>2251.9023036149</ele>
        <time>2018-09-21T17:52:01.003Z</time>
      </trkpt>
      <trkpt lat="46.30897" lon="10.54115">
        <ele>2251</ele>
        <time>2018-09-21T17:52:10.004Z</time>
      </trkpt>
      <trkpt lat="46.30907" lon="10.54115">
        <ele>2250.8768835094</ele>
        <time>2018-09-21T17:52:17.013Z</time>
      </trkpt>
      <trkpt lat="46.30916" lon="10.54113">
        <ele>2250.1554189987</ele>
        <time>2018-09-21T17:52:24.004Z</time>
      </trkpt>
      <trkpt lat="46.30925" lon="10.54108">
        <ele>2248.90119936</ele>
        <time>2018-09-21T17:52:31.004Z</time>
      </trkpt>
      <trkpt lat="46.30935" lon="10.54103">
        <ele>2247.75060096</ele>
        <time>2018-09-21T17:52:38.004Z</time>
      </trkpt>
      <trkpt lat="46.30944" lon="10.54098">
        <ele>2246.7014977667</ele>
        <time>2018-09-21T17:52:47.004Z</time>
      </trkpt>
      <trkpt lat="46.30952" lon="10.54092">
        <ele>2245.3028984785</ele>
        <time>2018-09-21T17:52:54.004Z</time>
      </trkpt>
      <trkpt lat="46.30962" lon="10.54087">
        <ele>2243.8511491232</ele>
        <time>2018-09-21T17:53:07.000Z</time>
      </trkpt>
      <trkpt lat="46.30969" lon="10.54077">
        <ele>2239.9984</ele>
        <time>2018-09-21T17:53:28.014Z</time>
      </trkpt>
      <trkpt lat="46.30978" lon="10.5407">
        <ele>2237</ele>
        <time>2018-09-21T17:53:37.004Z</time>
      </trkpt>
      <trkpt lat="46.30986" lon="10.54064">
        <ele>2237.0230215903</ele>
        <time>2018-09-21T17:53:46.014Z</time>
      </trkpt>
      <trkpt lat="46.30993" lon="10.54055">
        <ele>2238.44940032</ele>
        <time>2018-09-21T17:54:00.014Z</time>
      </trkpt>
      <trkpt lat="46.31001" lon="10.54049">
        <ele>2239</ele>
        <time>2018-09-21T17:54:09.004Z</time>
      </trkpt>
      <trkpt lat="46.31011" lon="10.54045">
        <ele>2239</ele>
        <time>2018-09-21T17:54:19.004Z</time>
      </trkpt>
      <trkpt lat="46.31019" lon="10.54038">
        <ele>2239.24939904</ele>
        <time>2018-09-21T17:54:28.004Z</time>
      </trkpt>
      <trkpt lat="46.31028" lon="10.54032">
        <ele>2240</ele>
        <time>2018-09-21T17:54:37.004Z</time>
      </trkpt>
      <trkpt lat="46.31036" lon="10.54023">
        <ele>2240</ele>
        <time>2018-09-21T17:54:45.013Z</time>
      </trkpt>
      <trkpt lat="46.31045" lon="10.54027">
        <ele>2240</ele>
        <time>2018-09-21T17:54:54.004Z</time>
      </trkpt>
      <trkpt lat="46.31055" lon="10.54029">
        <ele>2241.6960627419</ele>
        <time>2018-09-21T17:55:04.004Z</time>
      </trkpt>
      <trkpt lat="46.31064" lon="10.54026">
        <ele>2242.74940032</ele>
        <time>2018-09-21T17:55:13.004Z</time>
      </trkpt>
      <trkpt lat="46.31074" lon="10.54023">
        <ele>2243.8238591429</ele>
        <time>2018-09-21T17:55:24.004Z</time>
      </trkpt>
      <trkpt lat="46.31082" lon="10.54019">
        <ele>2246.29880064</ele>
        <time>2018-09-21T17:55:37.004Z</time>
      </trkpt>
      <trkpt lat="46.3109" lon="10.54012">
        <ele>2248.4499501938</ele>
        <time>2018-09-21T17:55:50.014Z</time>
      </trkpt>
      <trkpt lat="46.31099" lon="10.54004">
        <ele>2249.74840064</ele>
        <time>2018-09-21T17:56:03.004Z</time>
      </trkpt>
      <trkpt lat="46.31107" lon="10.53997">
        <ele>2252.0984999316</ele>
        <time>2018-09-21T17:56:16.003Z</time>
      </trkpt>
      <trkpt lat="46.31114" lon="10.53989">
        <ele>2254.9503503662</ele>
        <time>2018-09-21T17:56:35.014Z</time>
      </trkpt>
      <trkpt lat="46.31123" lon="10.53985">
        <ele>2258.4973038153</ele>
        <time>2018-09-21T17:56:53.004Z</time>
      </trkpt>
      <trkpt lat="46.31132" lon="10.53979">
        <ele>2261.74819712</ele>
        <time>2018-09-21T17:57:08.004Z</time>
      </trkpt>
      <trkpt lat="46.31137" lon="10.53967">
        <ele>2264.84939904</ele>
        <time>2018-09-21T17:57:24.004Z</time>
      </trkpt>
      <trkpt lat="46.31144" lon="10.53957">
        <ele>2265.0492992</ele>
        <time>2018-09-21T17:57:36.003Z</time>
      </trkpt>
      <trkpt lat="46.31149" lon="10.53943">
        <ele>2265.9504</ele>
        <time>2018-09-21T17:57:45.014Z</time>
      </trkpt>
      <trkpt lat="46.31156" lon="10.53934">
        <ele>2266</ele>
        <time>2018-09-21T17:57:52.003Z</time>
      </trkpt>
      <trkpt lat="46.31162" lon="10.53924">
        <ele>2266.5489494138</ele>
        <time>2018-09-21T17:58:01.004Z</time>
      </trkpt>
      <trkpt lat="46.31165" lon="10.53912">
        <ele>2268.4973038153</ele>
        <time>2018-09-21T17:58:13.004Z</time>
      </trkpt>
      <trkpt lat="46.31174" lon="10.53907">
        <ele>2270.9007007325</ele>
        <time>2018-09-21T17:58:25.014Z</time>
      </trkpt>
      <trkpt lat="46.31183" lon="10.53905">
        <ele>2269.7404481116</ele>
        <time>2018-09-21T17:58:32.003Z</time>
      </trkpt>
      <trkpt lat="46.31192" lon="10.53901">
        <ele>2267.7238408995</ele>
        <time>2018-09-21T17:58:42.003Z</time>
      </trkpt>
      <trkpt lat="46.31202" lon="10.53897">
        <ele>2265.3537481251</ele>
        <time>2018-09-21T17:58:51.003Z</time>
      </trkpt>
      <trkpt lat="46.31211" lon="10.53897">
        <ele>2260.6030066537</ele>
        <time>2018-09-21T17:59:04.004Z</time>
      </trkpt>
      <trkpt lat="46.31222" lon="10.53896">
        <ele>2258.30120192</ele>
        <time>2018-09-21T17:59:14.004Z</time>
      </trkpt>
      <trkpt lat="46.3123" lon="10.539">
        <ele>2255.1547881228</ele>
        <time>2018-09-21T17:59:25.013Z</time>
      </trkpt>
      <trkpt lat="46.3124" lon="10.539">
        <ele>2252.1490981008</ele>
        <time>2018-09-21T17:59:35.014Z</time>
      </trkpt>
      <trkpt lat="46.31248" lon="10.53906">
        <ele>2249.7521024</ele>
        <time>2018-09-21T17:59:43.003Z</time>
      </trkpt>
      <trkpt lat="46.31257" lon="10.53911">
        <ele>2247.5024967041</ele>
        <time>2018-09-21T17:59:53.005Z</time>
      </trkpt>
      <trkpt lat="46.31263" lon="10.53923">
        <ele>2243.7661388628</ele>
        <time>2018-09-21T18:00:02.033Z</time>
      </trkpt>
      <trkpt lat="46.31268" lon="10.53935">
        <ele>2241.2527225806</ele>
        <time>2018-09-21T18:00:13.003Z</time>
      </trkpt>
      <trkpt lat="46.31278" lon="10.53932">
        <ele>2239.902296712</ele>
        <time>2018-09-21T18:00:21.004Z</time>
      </trkpt>
      <trkpt lat="46.31285" lon="10.53942">
        <ele>2237.2002001361</ele>
        <time>2018-09-21T18:00:30.015Z</time>
      </trkpt>
      <trkpt lat="46.31291" lon="10.53952">
        <ele>2233.90200064</ele>
        <time>2018-09-21T18:00:41.000Z</time>
      </trkpt>
      <trkpt lat="46.313" lon="10.53955">
        <ele>2230.4259686584</ele>
        <time>2018-09-21T18:00:52.003Z</time>
      </trkpt>
      <trkpt lat="46.31303" lon="10.53968">
        <ele>2226.7586264352</ele>
        <time>2018-09-21T18:01:03.004Z</time>
      </trkpt>
      <trkpt lat="46.31303" lon="10.53982">
        <ele>2224.50099968</ele>
        <time>2018-09-21T18:01:13.005Z</time>
      </trkpt>
      <trkpt lat="46.31301" lon="10.53996">
        <ele>2223.7817139923</ele>
        <time>2018-09-21T18:01:26.004Z</time>
      </trkpt>
      <trkpt lat="46.31298" lon="10.54008">
        <ele>2218.9442529581</ele>
        <time>2018-09-21T18:01:36.004Z</time>
      </trkpt>
      <trkpt lat="46.31292" lon="10.54019">
        <ele>2217.3171924908</ele>
        <time>2018-09-21T18:01:44.001Z</time>
      </trkpt>
      <trkpt lat="46.31289" lon="10.54033">
        <ele>2215.0725847824</ele>
        <time>2018-09-21T18:01:52.004Z</time>
      </trkpt>
      <trkpt lat="46.31286" lon="10.54045">
        <ele>2212.6620967742</ele>
        <time>2018-09-21T18:02:00.014Z</time>
      </trkpt>
      <trkpt lat="46.3128" lon="10.54057">
        <ele>2210.09860096</ele>
        <time>2018-09-21T18:02:10.017Z</time>
      </trkpt>
      <trkpt lat="46.31277" lon="10.5407">
        <ele>2207.19919872</ele>
        <time>2018-09-21T18:02:20.012Z</time>
      </trkpt>
      <trkpt lat="46.31267" lon="10.54071">
        <ele>2203.30099968</ele>
        <time>2018-09-21T18:02:34.005Z</time>
      </trkpt>
      <trkpt lat="46.31258" lon="10.54064">
        <ele>2201.5039907411</ele>
        <time>2018-09-21T18:02:43.005Z</time>
      </trkpt>
      <trkpt lat="46.31251" lon="10.54071">
        <ele>2198.7582607381</ele>
        <time>2018-09-21T18:02:56.003Z</time>
      </trkpt>
      <trkpt lat="46.31252" lon="10.54084">
        <ele>2193.6511972223</ele>
        <time>2018-09-21T18:03:09.005Z</time>
      </trkpt>
      <trkpt lat="46.3125" lon="10.54097">
        <ele>2191.0616788428</ele>
        <time>2018-09-21T18:03:22.004Z</time>
      </trkpt>
      <trkpt lat="46.31251" lon="10.54111">
        <ele>2188.3024115663</ele>
        <time>2018-09-21T18:03:34.004Z</time>
      </trkpt>
      <trkpt lat="46.31254" lon="10.54124">
        <ele>2185.0133323824</ele>
        <time>2018-09-21T18:03:43.014Z</time>
      </trkpt>
      <trkpt lat="46.3125" lon="10.54136">
        <ele>2182.1099121169</ele>
        <time>2018-09-21T18:03:57.002Z</time>
      </trkpt>
      <trkpt lat="46.3124" lon="10.54138">
        <ele>2177.2997044085</ele>
        <time>2018-09-21T18:04:05.011Z</time>
      </trkpt>
      <trkpt lat="46.31237" lon="10.54151">
        <ele>2175.0143142834</ele>
        <time>2018-09-21T18:04:26.010Z</time>
      </trkpt>
      <trkpt lat="46.31232" lon="10.54163">
        <ele>2175.9340498546</ele>
        <time>2018-09-21T18:04:35.005Z</time>
      </trkpt>
      <trkpt lat="46.31227" lon="10.54175">
        <ele>2170.5049705002</ele>
        <time>2018-09-21T18:04:48.000Z</time>
      </trkpt>
      <trkpt lat="46.31226" lon="10.54188">
        <ele>2168.2711295702</ele>
        <time>2018-09-21T18:04:58.002Z</time>
      </trkpt>
      <trkpt lat="46.31219" lon="10.54197">
        <ele>2164.9053379755</ele>
        <time>2018-09-21T18:05:11.015Z</time>
      </trkpt>
      <trkpt lat="46.31216" lon="10.54209">
        <ele>2162.10160128</ele>
        <time>2018-09-21T18:05:25.002Z</time>
      </trkpt>
      <trkpt lat="46.31223" lon="10.54218">
        <ele>2157.357614283</ele>
        <time>2018-09-21T18:05:41.012Z</time>
      </trkpt>
      <trkpt lat="46.31232" lon="10.54216">
        <ele>2154.0590380723</ele>
        <time>2018-09-21T18:05:52.004Z</time>
      </trkpt>
      <trkpt lat="46.31242" lon="10.54216">
        <ele>2151.0534550379</ele>
        <time>2018-09-21T18:06:02.002Z</time>
      </trkpt>
      <trkpt lat="46.31251" lon="10.54219">
        <ele>2149.45080064</ele>
        <time>2018-09-21T18:06:11.002Z</time>
      </trkpt>
      <trkpt lat="46.31258" lon="10.54228">
        <ele>2148.64980096</ele>
        <time>2018-09-21T18:06:19.012Z</time>
      </trkpt>
      <trkpt lat="46.31268" lon="10.54229">
        <ele>2147.55080064</ele>
        <time>2018-09-21T18:06:30.002Z</time>
      </trkpt>
      <trkpt lat="46.31274" lon="10.54219">
        <ele>2145.29840128</ele>
        <time>2018-09-21T18:06:44.018Z</time>
      </trkpt>
      <trkpt lat="46.31284" lon="10.54217">
        <ele>2142.0142132487</ele>
        <time>2018-09-21T18:06:58.002Z</time>
      </trkpt>
      <trkpt lat="46.31293" lon="10.54213">
        <ele>2139</ele>
        <time>2018-09-21T18:07:08.002Z</time>
      </trkpt>
      <trkpt lat="46.31303" lon="10.54207">
        <ele>2138.2623727888</ele>
        <time>2018-09-21T18:07:18.014Z</time>
      </trkpt>
      <trkpt lat="46.31308" lon="10.54218">
        <ele>2134.45049984</ele>
        <time>2018-09-21T18:07:41.005Z</time>
      </trkpt>
      <trkpt lat="46.31311" lon="10.54231">
        <ele>2131.804593424</ele>
        <time>2018-09-21T18:07:51.004Z</time>
      </trkpt>
      <trkpt lat="46.31308" lon="10.54245">
        <ele>2126.8525728489</ele>
        <time>2018-09-21T18:08:02.010Z</time>
      </trkpt>
      <trkpt lat="46.31305" lon="10.54259">
        <ele>2124.4659094215</ele>
        <time>2018-09-21T18:08:11.000Z</time>
      </trkpt>
      <trkpt lat="46.31314" lon="10.54265">
        <ele>2122.6992</ele>
        <time>2018-09-21T18:08:22.014Z</time>
      </trkpt>
      <trkpt lat="46.31324" lon="10.54267">
        <ele>2120.69900032</ele>
        <time>2018-09-21T18:08:32.015Z</time>
      </trkpt>
      <trkpt lat="46.31333" lon="10.54268">
        <ele>2120.84919936</ele>
        <time>2018-09-21T18:08:44.002Z</time>
      </trkpt>
      <trkpt lat="46.31343" lon="10.54267">
        <ele>2121</ele>
        <time>2018-09-21T18:08:51.004Z</time>
      </trkpt>
      <trkpt lat="46.31352" lon="10.54267">
        <ele>2119.9090364659</ele>
        <time>2018-09-21T18:09:01.003Z</time>
      </trkpt>
      <trkpt lat="46.31361" lon="10.54272">
        <ele>2118.6521044315</ele>
        <time>2018-09-21T18:09:09.002Z</time>
      </trkpt>
      <trkpt lat="46.31369" lon="10.5428">
        <ele>2117.9508955552</ele>
        <time>2018-09-21T18:09:16.004Z</time>
      </trkpt>
      <trkpt lat="46.31378" lon="10.54285">
        <ele>2117.0564612685</ele>
        <time>2018-09-21T18:09:25.002Z</time>
      </trkpt>
      <trkpt lat="46.31387" lon="10.54288">
        <ele>2117</ele>
        <time>2018-09-21T18:09:32.017Z</time>
      </trkpt>
      <trkpt lat="46.31397" lon="10.54287">
        <ele>2117</ele>
        <time>2018-09-21T18:09:39.002Z</time>
      </trkpt>
      <trkpt lat="46.31407" lon="10.54288">
        <ele>2117</ele>
        <time>2018-09-21T18:09:49.002Z</time>
      </trkpt>
      <trkpt lat="46.31417" lon="10.5429">
        <ele>2117</ele>
        <time>2018-09-21T18:09:55.000Z</time>
      </trkpt>
      <trkpt lat="46.31426" lon="10.54295">
        <ele>2114.7537544733</ele>
        <time>2018-09-21T18:10:03.000Z</time>
      </trkpt>
      <trkpt lat="46.31438" lon="10.5429">
        <ele>2113.25240192</ele>
        <time>2018-09-21T18:10:08.002Z</time>
      </trkpt>
      <trkpt lat="46.31447" lon="10.54295">
        <ele>2110.85000192</ele>
        <time>2018-09-21T18:10:16.010Z</time>
      </trkpt>
      <trkpt lat="46.31454" lon="10.54305">
        <ele>2108.75240192</ele>
        <time>2018-09-21T18:10:23.002Z</time>
      </trkpt>
      <trkpt lat="46.31457" lon="10.54318">
        <ele>2106.20400128</ele>
        <time>2018-09-21T18:10:30.000Z</time>
      </trkpt>
      <trkpt lat="46.31454" lon="10.54331">
        <ele>2103.7534655071</ele>
        <time>2018-09-21T18:10:38.000Z</time>
      </trkpt>
      <trkpt lat="46.31448" lon="10.54341">
        <ele>2103.1594057248</ele>
        <time>2018-09-21T18:10:44.000Z</time>
      </trkpt>
      <trkpt lat="46.31443" lon="10.54352">
        <ele>2103</ele>
        <time>2018-09-21T18:10:50.000Z</time>
      </trkpt>
      <trkpt lat="46.31441" lon="10.54367">
        <ele>2102.850450178</ele>
        <time>2018-09-21T18:10:57.014Z</time>
      </trkpt>
      <trkpt lat="46.3144" lon="10.54381">
        <ele>2102.2510516113</ele>
        <time>2018-09-21T18:11:03.002Z</time>
      </trkpt>
      <trkpt lat="46.31434" lon="10.54392">
        <ele>2101.1652425279</ele>
        <time>2018-09-21T18:11:10.001Z</time>
      </trkpt>
      <trkpt lat="46.31425" lon="10.54399">
        <ele>2100.0501864684</ele>
        <time>2018-09-21T18:11:16.000Z</time>
      </trkpt>
      <trkpt lat="46.31418" lon="10.54407">
        <ele>2098.1379864935</ele>
        <time>2018-09-21T18:11:22.005Z</time>
      </trkpt>
      <trkpt lat="46.31413" lon="10.54419">
        <ele>2096.30109636</ele>
        <time>2018-09-21T18:11:29.015Z</time>
      </trkpt>
      <trkpt lat="46.3141" lon="10.54432">
        <ele>2095.1048835301</ele>
        <time>2018-09-21T18:11:35.014Z</time>
      </trkpt>
      <trkpt lat="46.31404" lon="10.54443">
        <ele>2095</ele>
        <time>2018-09-21T18:11:41.000Z</time>
      </trkpt>
      <trkpt lat="46.314" lon="10.54456">
        <ele>2095</ele>
        <time>2018-09-21T18:11:48.000Z</time>
      </trkpt>
      <trkpt lat="46.31392" lon="10.54467">
        <ele>2095</ele>
        <time>2018-09-21T18:11:54.014Z</time>
      </trkpt>
      <trkpt lat="46.31384" lon="10.54475">
        <ele>2093.6066070529</ele>
        <time>2018-09-21T18:11:59.000Z</time>
      </trkpt>
      <trkpt lat="46.31375" lon="10.54481">
        <ele>2091.2042054201</ele>
        <time>2018-09-21T18:12:05.000Z</time>
      </trkpt>
      <trkpt lat="46.31364" lon="10.54483">
        <ele>2090.35100032</ele>
        <time>2018-09-21T18:12:12.000Z</time>
      </trkpt>
      <trkpt lat="46.31355" lon="10.54479">
        <ele>2089.30200064</ele>
        <time>2018-09-21T18:12:19.000Z</time>
      </trkpt>
      <trkpt lat="46.31346" lon="10.54481">
        <ele>2087.7000994138</ele>
        <time>2018-09-21T18:12:27.014Z</time>
      </trkpt>
      <trkpt lat="46.31342" lon="10.54493">
        <ele>2086.3070777815</ele>
        <time>2018-09-21T18:12:34.000Z</time>
      </trkpt>
      <trkpt lat="46.31335" lon="10.54505">
        <ele>2083.4082246019</ele>
        <time>2018-09-21T18:12:42.000Z</time>
      </trkpt>
      <trkpt lat="46.31326" lon="10.54505">
        <ele>2081.8527671146</ele>
        <time>2018-09-21T18:12:47.000Z</time>
      </trkpt>
      <trkpt lat="46.31317" lon="10.545">
        <ele>2081.3582014229</ele>
        <time>2018-09-21T18:12:52.005Z</time>
      </trkpt>
      <trkpt lat="46.3131" lon="10.54492">
        <ele>2080.5840090688</ele>
        <time>2018-09-21T18:12:57.000Z</time>
      </trkpt>
      <trkpt lat="46.31303" lon="10.5448">
        <ele>2078.7621467206</ele>
        <time>2018-09-21T18:13:03.000Z</time>
      </trkpt>
      <trkpt lat="46.31296" lon="10.5447">
        <ele>2076.6501494186</ele>
        <time>2018-09-21T18:13:10.014Z</time>
      </trkpt>
      <trkpt lat="46.31288" lon="10.54463">
        <ele>2074.7037037986</ele>
        <time>2018-09-21T18:13:17.000Z</time>
      </trkpt>
      <trkpt lat="46.31278" lon="10.54461">
        <ele>2073.5025029822</ele>
        <time>2018-09-21T18:13:23.000Z</time>
      </trkpt>
      <trkpt lat="46.31269" lon="10.54464">
        <ele>2073</ele>
        <time>2018-09-21T18:13:28.001Z</time>
      </trkpt>
      <trkpt lat="46.3126" lon="10.54467">
        <ele>2073</ele>
        <time>2018-09-21T18:13:34.002Z</time>
      </trkpt>
      <trkpt lat="46.31249" lon="10.54467">
        <ele>2072.45100032</ele>
        <time>2018-09-21T18:13:41.000Z</time>
      </trkpt>
      <trkpt lat="46.31238" lon="10.54464">
        <ele>2072</ele>
        <time>2018-09-21T18:13:47.000Z</time>
      </trkpt>
      <trkpt lat="46.31229" lon="10.5446">
        <ele>2072</ele>
        <time>2018-09-21T18:13:53.000Z</time>
      </trkpt>
      <trkpt lat="46.31221" lon="10.54454">
        <ele>2071.5074770863</ele>
        <time>2018-09-21T18:13:58.000Z</time>
      </trkpt>
      <trkpt lat="46.31213" lon="10.54446">
        <ele>2070.5104684314</ele>
        <time>2018-09-21T18:14:03.000Z</time>
      </trkpt>
      <trkpt lat="46.31205" lon="10.5444">
        <ele>2069.3064250602</ele>
        <time>2018-09-21T18:14:09.014Z</time>
      </trkpt>
      <trkpt lat="46.31196" lon="10.54439">
        <ele>2067.8549512358</ele>
        <time>2018-09-21T18:14:17.014Z</time>
      </trkpt>
      <trkpt lat="46.31188" lon="10.54434">
        <ele>2067.0791263198</ele>
        <time>2018-09-21T18:14:25.005Z</time>
      </trkpt>
      <trkpt lat="46.31178" lon="10.54431">
        <ele>2065.5195879717</ele>
        <time>2018-09-21T18:14:33.000Z</time>
      </trkpt>
      <trkpt lat="46.31169" lon="10.54427">
        <ele>2064.5035036625</ele>
        <time>2018-09-21T18:14:38.000Z</time>
      </trkpt>
      <trkpt lat="46.3116" lon="10.54421">
        <ele>2063.3021029663</ele>
        <time>2018-09-21T18:14:44.001Z</time>
      </trkpt>
      <trkpt lat="46.3115" lon="10.54418">
        <ele>2062.0999001318</ele>
        <time>2018-09-21T18:14:50.015Z</time>
      </trkpt>
      <trkpt lat="46.3114" lon="10.54414">
        <ele>2061.1008988135</ele>
        <time>2018-09-21T18:14:55.015Z</time>
      </trkpt>
      <trkpt lat="46.31131" lon="10.54417">
        <ele>2060.100100068</ele>
        <time>2018-09-21T18:15:00.015Z</time>
      </trkpt>
      <trkpt lat="46.31122" lon="10.54422">
        <ele>2058.7496</ele>
        <time>2018-09-21T18:15:08.014Z</time>
      </trkpt>
      <trkpt lat="46.31115" lon="10.54432">
        <ele>2057.8992018518</ele>
        <time>2018-09-21T18:15:16.015Z</time>
      </trkpt>
      <trkpt lat="46.31106" lon="10.54437">
        <ele>2056.9011972223</ele>
        <time>2018-09-21T18:15:21.015Z</time>
      </trkpt>
      <trkpt lat="46.31096" lon="10.54439">
        <ele>2055.558557739</ele>
        <time>2018-09-21T18:15:27.000Z</time>
      </trkpt>
      <trkpt lat="46.31087" lon="10.54434">
        <ele>2053.4522511464</ele>
        <time>2018-09-21T18:15:34.014Z</time>
      </trkpt>
      <trkpt lat="46.31073" lon="10.54432">
        <ele>2052.3576655643</ele>
        <time>2018-09-21T18:15:42.014Z</time>
      </trkpt>
      <trkpt lat="46.31062" lon="10.54433">
        <ele>2051.5801818662</ele>
        <time>2018-09-21T18:15:47.014Z</time>
      </trkpt>
      <trkpt lat="46.31053" lon="10.54437">
        <ele>2050.0634978567</ele>
        <time>2018-09-21T18:15:52.014Z</time>
      </trkpt>
      <trkpt lat="46.31043" lon="10.54439">
        <ele>2048.25105033</ele>
        <time>2018-09-21T18:15:58.014Z</time>
      </trkpt>
      <trkpt lat="46.31033" lon="10.54438">
        <ele>2046.4492491053</ele>
        <time>2018-09-21T18:16:04.014Z</time>
      </trkpt>
      <trkpt lat="46.31024" lon="10.54439">
        <ele>2046</ele>
        <time>2018-09-21T18:16:09.014Z</time>
      </trkpt>
      <trkpt lat="46.31015" lon="10.54439">
        <ele>2046</ele>
        <time>2018-09-21T18:16:14.014Z</time>
      </trkpt>
      <trkpt lat="46.31007" lon="10.54431">
        <ele>2045.5558182601</ele>
        <time>2018-09-21T18:16:20.014Z</time>
      </trkpt>
      <trkpt lat="46.30997" lon="10.54431">
        <ele>2045.0627213019</ele>
        <time>2018-09-21T18:16:25.014Z</time>
      </trkpt>
      <trkpt lat="46.30987" lon="10.54434">
        <ele>2044.5574032893</ele>
        <time>2018-09-21T18:16:30.014Z</time>
      </trkpt>
      <trkpt lat="46.30978" lon="10.54441">
        <ele>2044.1517240395</ele>
        <time>2018-09-21T18:16:34.014Z</time>
      </trkpt>
      <trkpt lat="46.30967" lon="10.54454">
        <ele>2043.2992</ele>
        <time>2018-09-21T18:16:39.014Z</time>
      </trkpt>
      <trkpt lat="46.30958" lon="10.54461">
        <ele>2041.2495502096</ele>
        <time>2018-09-21T18:16:48.014Z</time>
      </trkpt>
      <trkpt lat="46.30949" lon="10.54462">
        <ele>2038.00140044</ele>
        <time>2018-09-21T18:16:58.014Z</time>
      </trkpt>
      <trkpt lat="46.30954" lon="10.54473">
        <ele>2035</ele>
        <time>2018-09-21T18:17:12.001Z</time>
      </trkpt>
      <trkpt lat="46.30963" lon="10.54466">
        <ele>2035</ele>
        <time>2018-09-21T18:17:17.001Z</time>
      </trkpt>
      <trkpt lat="46.30972" lon="10.54464">
        <ele>2035</ele>
        <time>2018-09-21T18:17:24.014Z</time>
      </trkpt>
      <trkpt lat="46.30981" lon="10.54459">
        <ele>2034.6835000737</ele>
        <time>2018-09-21T18:17:29.001Z</time>
      </trkpt>
      <trkpt lat="46.30991" lon="10.54457">
        <ele>2034.0479611103</ele>
        <time>2018-09-21T18:17:36.011Z</time>
      </trkpt>
      <trkpt lat="46.30997" lon="10.54468">
        <ele>2031.8391323395</ele>
        <time>2018-09-21T18:17:43.001Z</time>
      </trkpt>
      <trkpt lat="46.31003" lon="10.5448">
        <ele>2030.6509486197</ele>
        <time>2018-09-21T18:17:49.004Z</time>
      </trkpt>
      <trkpt lat="46.31008" lon="10.54492">
        <ele>2030.1517484601</ele>
        <time>2018-09-21T18:17:54.001Z</time>
      </trkpt>
      <trkpt lat="46.31011" lon="10.54506">
        <ele>2029.1299037639</ele>
        <time>2018-09-21T18:18:00.001Z</time>
      </trkpt>
      <trkpt lat="46.31009" lon="10.5452">
        <ele>2027.9797736156</ele>
        <time>2018-09-21T18:18:06.016Z</time>
      </trkpt>
      <trkpt lat="46.31007" lon="10.54534">
        <ele>2027.155831135</ele>
        <time>2018-09-21T18:18:14.000Z</time>
      </trkpt>
      <trkpt lat="46.31006" lon="10.54549">
        <ele>2025.34820096</ele>
        <time>2018-09-21T18:18:21.016Z</time>
      </trkpt>
      <trkpt lat="46.31005" lon="10.54563">
        <ele>2023.7022982465</ele>
        <time>2018-09-21T18:18:27.000Z</time>
      </trkpt>
      <trkpt lat="46.31004" lon="10.54579">
        <ele>2022.5032971839</ele>
        <time>2018-09-21T18:18:33.001Z</time>
      </trkpt>
      <trkpt lat="46.31001" lon="10.54593">
        <ele>2021.5033037827</ele>
        <time>2018-09-21T18:18:38.001Z</time>
      </trkpt>
      <trkpt lat="46.30998" lon="10.54607">
        <ele>2020.3021029663</ele>
        <time>2018-09-21T18:18:44.001Z</time>
      </trkpt>
      <trkpt lat="46.30998" lon="10.54622">
        <ele>2019.1525947482</ele>
        <time>2018-09-21T18:18:54.001Z</time>
      </trkpt>
      <trkpt lat="46.30999" lon="10.54637">
        <ele>2018.4503006331</ele>
        <time>2018-09-21T18:19:01.016Z</time>
      </trkpt>
      <trkpt lat="46.30997" lon="10.54652">
        <ele>2017.94940032</ele>
        <time>2018-09-21T18:19:06.016Z</time>
      </trkpt>
      <trkpt lat="46.30993" lon="10.54665">
        <ele>2017.44940032</ele>
        <time>2018-09-21T18:19:11.016Z</time>
      </trkpt>
      <trkpt lat="46.30986" lon="10.54674">
        <ele>2016.5032906113</ele>
        <time>2018-09-21T18:19:18.001Z</time>
      </trkpt>
      <trkpt lat="46.30994" lon="10.54679">
        <ele>2014.9045123487</ele>
        <time>2018-09-21T18:19:26.016Z</time>
      </trkpt>
      <trkpt lat="46.31004" lon="10.54675">
        <ele>2013.9017045681</ele>
        <time>2018-09-21T18:19:31.015Z</time>
      </trkpt>
      <trkpt lat="46.31014" lon="10.54677">
        <ele>2012.85100032</ele>
        <time>2018-09-21T18:19:37.000Z</time>
      </trkpt>
      <trkpt lat="46.31023" lon="10.54681">
        <ele>2012.05049984</ele>
        <time>2018-09-21T18:19:45.005Z</time>
      </trkpt>
      <trkpt lat="46.3103" lon="10.54689">
        <ele>2010.9000998682</ele>
        <time>2018-09-21T18:19:51.015Z</time>
      </trkpt>
      <trkpt lat="46.31036" lon="10.54701">
        <ele>2009.901902574</ele>
        <time>2018-09-21T18:19:56.010Z</time>
      </trkpt>
      <trkpt lat="46.31044" lon="10.5471">
        <ele>2008.5025029822</ele>
        <time>2018-09-21T18:20:03.000Z</time>
      </trkpt>
      <trkpt lat="46.31054" lon="10.54713">
        <ele>2008</ele>
        <time>2018-09-21T18:20:08.000Z</time>
      </trkpt>
      <trkpt lat="46.31064" lon="10.54715">
        <ele>2008</ele>
        <time>2018-09-21T18:20:14.000Z</time>
      </trkpt>
      <trkpt lat="46.31074" lon="10.54718">
        <ele>2006.9053379755</ele>
        <time>2018-09-21T18:20:21.015Z</time>
      </trkpt>
      <trkpt lat="46.31084" lon="10.54716">
        <ele>2005.3109579659</ele>
        <time>2018-09-21T18:20:29.000Z</time>
      </trkpt>
      <trkpt lat="46.31093" lon="10.54715">
        <ele>2004.1263573943</ele>
        <time>2018-09-21T18:20:35.000Z</time>
      </trkpt>
      <trkpt lat="46.31104" lon="10.54715">
        <ele>2003.1209677419</ele>
        <time>2018-09-21T18:20:40.000Z</time>
      </trkpt>
      <trkpt lat="46.31114" lon="10.54715">
        <ele>2002.1129032258</ele>
        <time>2018-09-21T18:20:45.000Z</time>
      </trkpt>
      <trkpt lat="46.31121" lon="10.54706">
        <ele>2001.4522088353</ele>
        <time>2018-09-21T18:20:51.016Z</time>
      </trkpt>
      <trkpt lat="46.3113" lon="10.54701">
        <ele>2000.808309238</ele>
        <time>2018-09-21T18:20:56.016Z</time>
      </trkpt>
      <trkpt lat="46.3114" lon="10.54697">
        <ele>1998.8759426857</ele>
        <time>2018-09-21T18:21:01.016Z</time>
      </trkpt>
      <trkpt lat="46.31149" lon="10.54696">
        <ele>1997</ele>
        <time>2018-09-21T18:21:06.015Z</time>
      </trkpt>
      <trkpt lat="46.31159" lon="10.54698">
        <ele>1997</ele>
        <time>2018-09-21T18:21:13.001Z</time>
      </trkpt>
      <trkpt lat="46.31168" lon="10.54701">
        <ele>1996.7641359486</ele>
        <time>2018-09-21T18:21:18.001Z</time>
      </trkpt>
      <trkpt lat="46.31178" lon="10.54703">
        <ele>1996.0633363639</ele>
        <time>2018-09-21T18:21:25.016Z</time>
      </trkpt>
      <trkpt lat="46.31187" lon="10.54706">
        <ele>1995.5572007742</ele>
        <time>2018-09-21T18:21:30.016Z</time>
      </trkpt>
      <trkpt lat="46.31196" lon="10.5471">
        <ele>1994.95090048</ele>
        <time>2018-09-21T18:21:36.001Z</time>
      </trkpt>
      <trkpt lat="46.31202" lon="10.54722">
        <ele>1994.15100032</ele>
        <time>2018-09-21T18:21:44.000Z</time>
      </trkpt>
      <trkpt lat="46.31206" lon="10.54735">
        <ele>1994</ele>
        <time>2018-09-21T18:21:49.001Z</time>
      </trkpt>
      <trkpt lat="46.31202" lon="10.54749">
        <ele>1994</ele>
        <time>2018-09-21T18:21:54.001Z</time>
      </trkpt>
      <trkpt lat="46.31193" lon="10.54754">
        <ele>1993.0999001882</ele>
        <time>2018-09-21T18:22:00.016Z</time>
      </trkpt>
      <trkpt lat="46.31183" lon="10.54753">
        <ele>1991.85090048</ele>
        <time>2018-09-21T18:22:07.001Z</time>
      </trkpt>
      <trkpt lat="46.31174" lon="10.54755">
        <ele>1991.25090048</ele>
        <time>2018-09-21T18:22:13.001Z</time>
      </trkpt>
      <trkpt lat="46.31164" lon="10.54758">
        <ele>1990.65090048</ele>
        <time>2018-09-21T18:22:19.001Z</time>
      </trkpt>
      <trkpt lat="46.31155" lon="10.54763">
        <ele>1990.04940032</ele>
        <time>2018-09-21T18:22:25.016Z</time>
      </trkpt>
      <trkpt lat="46.31145" lon="10.54768">
        <ele>1989.25090048</ele>
        <time>2018-09-21T18:22:33.001Z</time>
      </trkpt>
      <trkpt lat="46.31137" lon="10.54773">
        <ele>1988.1284333483</ele>
        <time>2018-09-21T18:22:40.016Z</time>
      </trkpt>
      <trkpt lat="46.31129" lon="10.5478">
        <ele>1986.9687690693</ele>
        <time>2018-09-21T18:22:46.001Z</time>
      </trkpt>
      <trkpt lat="46.31122" lon="10.5479">
        <ele>1985.9346432481</ele>
        <time>2018-09-21T18:22:51.001Z</time>
      </trkpt>
      <trkpt lat="46.31115" lon="10.54799">
        <ele>1984.70380032</ele>
        <time>2018-09-21T18:22:57.001Z</time>
      </trkpt>
      <trkpt lat="46.31107" lon="10.54807">
        <ele>1983.30380032</ele>
        <time>2018-09-21T18:23:04.001Z</time>
      </trkpt>
      <trkpt lat="46.311" lon="10.54815">
        <ele>1982.5033037827</ele>
        <time>2018-09-21T18:23:08.001Z</time>
      </trkpt>
      <trkpt lat="46.31093" lon="10.54827">
        <ele>1981.4996995396</ele>
        <time>2018-09-21T18:23:13.014Z</time>
      </trkpt>
      <trkpt lat="46.31084" lon="10.54831">
        <ele>1980.64940032</ele>
        <time>2018-09-21T18:23:19.016Z</time>
      </trkpt>
      <trkpt lat="46.31074" lon="10.54835">
        <ele>1980.0507008</ele>
        <time>2018-09-21T18:23:25.003Z</time>
      </trkpt>
      <trkpt lat="46.31066" lon="10.54844">
        <ele>1979.1080449309</ele>
        <time>2018-09-21T18:23:30.001Z</time>
      </trkpt>
      <trkpt lat="46.3106" lon="10.54854">
        <ele>1978.1149965871</ele>
        <time>2018-09-21T18:23:35.001Z</time>
      </trkpt>
      <trkpt lat="46.31054" lon="10.54865">
        <ele>1976.5053384912</ele>
        <time>2018-09-21T18:23:43.001Z</time>
      </trkpt>
      <trkpt lat="46.31048" lon="10.54876">
        <ele>1975.65994222</ele>
        <time>2018-09-21T18:23:49.016Z</time>
      </trkpt>
      <trkpt lat="46.3104" lon="10.54885">
        <ele>1975.1749763181</ele>
        <time>2018-09-21T18:23:54.016Z</time>
      </trkpt>
      <trkpt lat="46.31032" lon="10.54893">
        <ele>1973.7055748047</ele>
        <time>2018-09-21T18:24:00.001Z</time>
      </trkpt>
      <trkpt lat="46.31022" lon="10.54896">
        <ele>1971.7545818311</ele>
        <time>2018-09-21T18:24:08.001Z</time>
      </trkpt>
      <trkpt lat="46.31013" lon="10.54897">
        <ele>1971.2619711489</ele>
        <time>2018-09-21T18:24:13.001Z</time>
      </trkpt>
      <trkpt lat="46.31005" lon="10.54908">
        <ele>1970.5249245045</ele>
        <time>2018-09-21T18:24:18.014Z</time>
      </trkpt>
      <trkpt lat="46.30997" lon="10.54915">
        <ele>1969.1118057188</ele>
        <time>2018-09-21T18:24:25.016Z</time>
      </trkpt>
      <trkpt lat="46.3099" lon="10.54925">
        <ele>1967.9474803101</ele>
        <time>2018-09-21T18:24:31.001Z</time>
      </trkpt>
      <trkpt lat="46.30983" lon="10.54936">
        <ele>1966.9888216019</ele>
        <time>2018-09-21T18:24:36.001Z</time>
      </trkpt>
      <trkpt lat="46.30976" lon="10.54947">
        <ele>1966.4839877698</ele>
        <time>2018-09-21T18:24:41.014Z</time>
      </trkpt>
      <trkpt lat="46.30971" lon="10.54958">
        <ele>1965.9800003167</ele>
        <time>2018-09-21T18:24:46.014Z</time>
      </trkpt>
      <trkpt lat="46.30963" lon="10.54967">
        <ele>1965.3614432076</ele>
        <time>2018-09-21T18:24:52.014Z</time>
      </trkpt>
      <trkpt lat="46.30953" lon="10.54973">
        <ele>1964.25105033</ele>
        <time>2018-09-21T18:24:58.014Z</time>
      </trkpt>
      <trkpt lat="46.30946" lon="10.54981">
        <ele>1962.7495493095</ele>
        <time>2018-09-21T18:25:03.014Z</time>
      </trkpt>
      <trkpt lat="46.30938" lon="10.5499">
        <ele>1961.6496</ele>
        <time>2018-09-21T18:25:09.014Z</time>
      </trkpt>
      <trkpt lat="46.3093" lon="10.55">
        <ele>1961.0496</ele>
        <time>2018-09-21T18:25:15.014Z</time>
      </trkpt>
      <trkpt lat="46.30922" lon="10.55009">
        <ele>1959.9079365079</ele>
        <time>2018-09-21T18:25:21.014Z</time>
      </trkpt>
      <trkpt lat="46.30914" lon="10.55017">
        <ele>1958.8564516129</ele>
        <time>2018-09-21T18:25:27.014Z</time>
      </trkpt>
      <trkpt lat="46.30905" lon="10.55023">
        <ele>1958.2516129032</ele>
        <time>2018-09-21T18:25:33.014Z</time>
      </trkpt>
      <trkpt lat="46.30896" lon="10.55029">
        <ele>1957.2992</ele>
        <time>2018-09-21T18:25:39.014Z</time>
      </trkpt>
      <trkpt lat="46.30887" lon="10.55035">
        <ele>1956.09880064</ele>
        <time>2018-09-21T18:25:45.016Z</time>
      </trkpt>
      <trkpt lat="46.30878" lon="10.55041">
        <ele>1954.9028977112</ele>
        <time>2018-09-21T18:25:51.001Z</time>
      </trkpt>
      <trkpt lat="46.3087" lon="10.55046">
        <ele>1953.5033037827</ele>
        <time>2018-09-21T18:25:58.001Z</time>
      </trkpt>
      <trkpt lat="46.3086" lon="10.55051">
        <ele>1952.0994991473</ele>
        <time>2018-09-21T18:26:05.013Z</time>
      </trkpt>
      <trkpt lat="46.30852" lon="10.55057">
        <ele>1951.54940032</ele>
        <time>2018-09-21T18:26:10.016Z</time>
      </trkpt>
      <trkpt lat="46.30843" lon="10.55062">
        <ele>1951.0496</ele>
        <time>2018-09-21T18:26:15.014Z</time>
      </trkpt>
      <trkpt lat="46.30834" lon="10.55067">
        <ele>1949.716568184</ele>
        <time>2018-09-21T18:26:22.017Z</time>
      </trkpt>
      <trkpt lat="46.30824" lon="10.55072">
        <ele>1948.5586209761</ele>
        <time>2018-09-21T18:26:30.002Z</time>
      </trkpt>
      <trkpt lat="46.30815" lon="10.55074">
        <ele>1948.0515219138</ele>
        <time>2018-09-21T18:26:35.002Z</time>
      </trkpt>
      <trkpt lat="46.30805" lon="10.55075">
        <ele>1946.3719386561</ele>
        <time>2018-09-21T18:26:41.002Z</time>
      </trkpt>
      <trkpt lat="46.30797" lon="10.55068">
        <ele>1944.0406493964</ele>
        <time>2018-09-21T18:26:48.002Z</time>
      </trkpt>
      <trkpt lat="46.30788" lon="10.55063">
        <ele>1941.2046499348</ele>
        <time>2018-09-21T18:26:55.014Z</time>
      </trkpt>
      <trkpt lat="46.30778" lon="10.55068">
        <ele>1938.8710705267</ele>
        <time>2018-09-21T18:27:01.002Z</time>
      </trkpt>
      <trkpt lat="46.30769" lon="10.55062">
        <ele>1936.5434480226</ele>
        <time>2018-09-21T18:27:08.032Z</time>
      </trkpt>
      <trkpt lat="46.30759" lon="10.55064">
        <ele>1935.1048517168</ele>
        <time>2018-09-21T18:27:15.002Z</time>
      </trkpt>
      <trkpt lat="46.30751" lon="10.55071">
        <ele>1933.7014016</ele>
        <time>2018-09-21T18:27:22.003Z</time>
      </trkpt>
      <trkpt lat="46.30742" lon="10.55076">
        <ele>1932.0055901034</ele>
        <time>2018-09-21T18:27:28.001Z</time>
      </trkpt>
      <trkpt lat="46.30733" lon="10.5508">
        <ele>1929.6051874524</ele>
        <time>2018-09-21T18:27:34.014Z</time>
      </trkpt>
      <trkpt lat="46.30724" lon="10.55084">
        <ele>1927.3524063472</ele>
        <time>2018-09-21T18:27:41.011Z</time>
      </trkpt>
      <trkpt lat="46.30726" lon="10.55071">
        <ele>1925.7022982465</ele>
        <time>2018-09-21T18:27:47.000Z</time>
      </trkpt>
      <trkpt lat="46.3073" lon="10.55058">
        <ele>1924.3036964008</ele>
        <time>2018-09-21T18:27:54.000Z</time>
      </trkpt>
      <trkpt lat="46.30734" lon="10.55045">
        <ele>1923.5679844376</ele>
        <time>2018-09-21T18:28:00.000Z</time>
      </trkpt>
      <trkpt lat="46.3074" lon="10.55035">
        <ele>1922.9871789991</ele>
        <time>2018-09-21T18:28:06.015Z</time>
      </trkpt>
      <trkpt lat="46.3074" lon="10.5502">
        <ele>1922.3731284109</ele>
        <time>2018-09-21T18:28:12.002Z</time>
      </trkpt>
      <trkpt lat="46.30731" lon="10.55024">
        <ele>1921.5213787165</ele>
        <time>2018-09-21T18:28:18.002Z</time>
      </trkpt>
      <trkpt lat="46.30722" lon="10.55033">
        <ele>1920.3055736395</ele>
        <time>2018-09-21T18:28:24.002Z</time>
      </trkpt>
      <trkpt lat="46.30715" lon="10.55042">
        <ele>1919.44950016</ele>
        <time>2018-09-21T18:28:31.015Z</time>
      </trkpt>
      <trkpt lat="46.30706" lon="10.55048">
        <ele>1918.50160128</ele>
        <time>2018-09-21T18:28:38.002Z</time>
      </trkpt>
      <trkpt lat="46.30697" lon="10.55056">
        <ele>1917.4992</ele>
        <time>2018-09-21T18:28:43.014Z</time>
      </trkpt>
      <trkpt lat="46.30688" lon="10.55061">
        <ele>1915.953448137</ele>
        <time>2018-09-21T18:28:49.002Z</time>
      </trkpt>
      <trkpt lat="46.3068" lon="10.55069">
        <ele>1914.151946662</ele>
        <time>2018-09-21T18:28:55.013Z</time>
      </trkpt>
      <trkpt lat="46.30673" lon="10.55077">
        <ele>1912.9123022222</ele>
        <time>2018-09-21T18:29:01.002Z</time>
      </trkpt>
      <trkpt lat="46.30666" lon="10.55085">
        <ele>1911.9592337569</ele>
        <time>2018-09-21T18:29:06.004Z</time>
      </trkpt>
      <trkpt lat="46.30657" lon="10.55093">
        <ele>1911.3539864044</ele>
        <time>2018-09-21T18:29:12.002Z</time>
      </trkpt>
      <trkpt lat="46.30649" lon="10.55098">
        <ele>1910.5128068777</ele>
        <time>2018-09-21T18:29:18.002Z</time>
      </trkpt>
      <trkpt lat="46.3064" lon="10.55097">
        <ele>1908.9158658476</ele>
        <time>2018-09-21T18:29:26.014Z</time>
      </trkpt>
      <trkpt lat="46.30636" lon="10.55084">
        <ele>1906.4636654129</ele>
        <time>2018-09-21T18:29:34.000Z</time>
      </trkpt>
      <trkpt lat="46.30636" lon="10.5507">
        <ele>1903.8053964613</ele>
        <time>2018-09-21T18:29:41.002Z</time>
      </trkpt>
      <trkpt lat="46.30636" lon="10.55057">
        <ele>1901.556</ele>
        <time>2018-09-21T18:29:47.000Z</time>
      </trkpt>
      <trkpt lat="46.30636" lon="10.55043">
        <ele>1898.8070083501</ele>
        <time>2018-09-21T18:29:56.002Z</time>
      </trkpt>
      <trkpt lat="46.30638" lon="10.55029">
        <ele>1895.6030066537</ele>
        <time>2018-09-21T18:30:04.004Z</time>
      </trkpt>
      <trkpt lat="46.30638" lon="10.55015">
        <ele>1893.5094347537</ele>
        <time>2018-09-21T18:30:13.015Z</time>
      </trkpt>
      <trkpt lat="46.30641" lon="10.55002">
        <ele>1891.9750265654</ele>
        <time>2018-09-21T18:30:19.000Z</time>
      </trkpt>
      <trkpt lat="46.30648" lon="10.54992">
        <ele>1890.1753242519</ele>
        <time>2018-09-21T18:30:25.005Z</time>
      </trkpt>
      <trkpt lat="46.30656" lon="10.54982">
        <ele>1890</ele>
        <time>2018-09-21T18:30:31.005Z</time>
      </trkpt>
      <trkpt lat="46.30663" lon="10.54971">
        <ele>1890</ele>
        <time>2018-09-21T18:30:38.010Z</time>
      </trkpt>
      <trkpt lat="46.30669" lon="10.5496">
        <ele>1889.7047031977</ele>
        <time>2018-09-21T18:30:47.005Z</time>
      </trkpt>
      <trkpt lat="46.30666" lon="10.54948">
        <ele>1888.1037043111</ele>
        <time>2018-09-21T18:30:55.002Z</time>
      </trkpt>
      <trkpt lat="46.30659" lon="10.54939">
        <ele>1888.644333268</ele>
        <time>2018-09-21T18:31:02.002Z</time>
      </trkpt>
      <trkpt lat="46.30654" lon="10.54928">
        <ele>1889</ele>
        <time>2018-09-21T18:31:08.014Z</time>
      </trkpt>
      <trkpt lat="46.30647" lon="10.54918">
        <ele>1889</ele>
        <time>2018-09-21T18:31:15.002Z</time>
      </trkpt>
      <trkpt lat="46.30642" lon="10.54907">
        <ele>1889.64919936</ele>
        <time>2018-09-21T18:31:22.002Z</time>
      </trkpt>
      <trkpt lat="46.30636" lon="10.54896">
        <ele>1890.4474097211</ele>
        <time>2018-09-21T18:31:30.002Z</time>
      </trkpt>
      <trkpt lat="46.30628" lon="10.54889">
        <ele>1891.8912908665</ele>
        <time>2018-09-21T18:31:40.002Z</time>
      </trkpt>
      <trkpt lat="46.3062" lon="10.54881">
        <ele>1893.6474948954</ele>
        <time>2018-09-21T18:31:52.002Z</time>
      </trkpt>
      <trkpt lat="46.30611" lon="10.54877">
        <ele>1894</ele>
        <time>2018-09-21T18:31:59.002Z</time>
      </trkpt>
      <trkpt lat="46.30603" lon="10.54872">
        <ele>1894.6970051558</ele>
        <time>2018-09-21T18:32:09.002Z</time>
      </trkpt>
      <trkpt lat="46.30594" lon="10.54863">
        <ele>1896</ele>
        <time>2018-09-21T18:32:18.002Z</time>
      </trkpt>
      <trkpt lat="46.30585" lon="10.54863">
        <ele>1895.9046843798</ele>
        <time>2018-09-21T18:32:26.002Z</time>
      </trkpt>
      <trkpt lat="46.30574" lon="10.54864">
        <ele>1893.7661929019</ele>
        <time>2018-09-21T18:32:33.002Z</time>
      </trkpt>
      <trkpt lat="46.30564" lon="10.54861">
        <ele>1892.2627233216</ele>
        <time>2018-09-21T18:32:38.002Z</time>
      </trkpt>
      <trkpt lat="46.30554" lon="10.54858">
        <ele>1890.4875742722</ele>
        <time>2018-09-21T18:32:44.002Z</time>
      </trkpt>
      <trkpt lat="46.30544" lon="10.54858">
        <ele>1889.5580538819</ele>
        <time>2018-09-21T18:32:50.012Z</time>
      </trkpt>
      <trkpt lat="46.30535" lon="10.54859">
        <ele>1889.05146973</ele>
        <time>2018-09-21T18:32:55.012Z</time>
      </trkpt>
      <trkpt lat="46.30525" lon="10.54856">
        <ele>1888.2510516113</ele>
        <time>2018-09-21T18:33:03.002Z</time>
      </trkpt>
      <trkpt lat="46.30516" lon="10.54858">
        <ele>1887.65080064</ele>
        <time>2018-09-21T18:33:09.002Z</time>
      </trkpt>
      <trkpt lat="46.30506" lon="10.54858">
        <ele>1886.9510920635</ele>
        <time>2018-09-21T18:33:16.003Z</time>
      </trkpt>
      <trkpt lat="46.30496" lon="10.54855">
        <ele>1886.2567466667</ele>
        <time>2018-09-21T18:33:23.002Z</time>
      </trkpt>
      <trkpt lat="46.30487" lon="10.5485">
        <ele>1885.45880064</ele>
        <time>2018-09-21T18:33:31.002Z</time>
      </trkpt>
      <trkpt lat="46.30478" lon="10.54843">
        <ele>1885</ele>
        <time>2018-09-21T18:33:37.002Z</time>
      </trkpt>
      <trkpt lat="46.30469" lon="10.54837">
        <ele>1885</ele>
        <time>2018-09-21T18:33:44.012Z</time>
      </trkpt>
      <trkpt lat="46.3046" lon="10.5484">
        <ele>1884.5651505333</ele>
        <time>2018-09-21T18:33:50.002Z</time>
      </trkpt>
      <trkpt lat="46.30453" lon="10.54848">
        <ele>1883.9664949852</ele>
        <time>2018-09-21T18:33:56.002Z</time>
      </trkpt>
      <trkpt lat="46.30446" lon="10.54857">
        <ele>1882.5185123413</ele>
        <time>2018-09-21T18:34:03.003Z</time>
      </trkpt>
      <trkpt lat="46.30438" lon="10.54867">
        <ele>1882</ele>
        <time>2018-09-21T18:34:10.002Z</time>
      </trkpt>
      <trkpt lat="46.30429" lon="10.54869">
        <ele>1881.325674749</ele>
        <time>2018-09-21T18:34:19.013Z</time>
      </trkpt>
      <trkpt lat="46.30421" lon="10.54877">
        <ele>1879.9491829508</ele>
        <time>2018-09-21T18:34:26.004Z</time>
      </trkpt>
      <trkpt lat="46.30412" lon="10.54881">
        <ele>1876.261067541</ele>
        <time>2018-09-21T18:34:35.003Z</time>
      </trkpt>
      <trkpt lat="46.30404" lon="10.54888">
        <ele>1871.2616421053</ele>
        <time>2018-09-21T18:34:45.003Z</time>
      </trkpt>
      <trkpt lat="46.30395" lon="10.54892">
        <ele>1868.7662693783</ele>
        <time>2018-09-21T18:34:53.003Z</time>
      </trkpt>
      <trkpt lat="46.30385" lon="10.54895">
        <ele>1865.0080469968</ele>
        <time>2018-09-21T18:35:03.005Z</time>
      </trkpt>
      <trkpt lat="46.30377" lon="10.54902">
        <ele>1862.3059760956</ele>
        <time>2018-09-21T18:35:14.014Z</time>
      </trkpt>
      <trkpt lat="46.30368" lon="10.54905">
        <ele>1859.8104443373</ele>
        <time>2018-09-21T18:35:21.002Z</time>
      </trkpt>
      <trkpt lat="46.30358" lon="10.54909">
        <ele>1855.3984</ele>
        <time>2018-09-21T18:35:32.014Z</time>
      </trkpt>
      <trkpt lat="46.30349" lon="10.54912">
        <ele>1851.8103384877</ele>
        <time>2018-09-21T18:35:41.017Z</time>
      </trkpt>
      <trkpt lat="46.30343" lon="10.54922">
        <ele>1847.7585907912</ele>
        <time>2018-09-21T18:35:53.004Z</time>
      </trkpt>
      <trkpt lat="46.30335" lon="10.5493">
        <ele>1844.0038066855</ele>
        <time>2018-09-21T18:36:03.003Z</time>
      </trkpt>
      <trkpt lat="46.30325" lon="10.54925">
        <ele>1841.19720192</ele>
        <time>2018-09-21T18:36:10.017Z</time>
      </trkpt>
      <trkpt lat="46.30323" lon="10.54912">
        <ele>1838.5572715084</ele>
        <time>2018-09-21T18:36:17.002Z</time>
      </trkpt>
      <trkpt lat="46.30315" lon="10.54905">
        <ele>1836.4801182007</ele>
        <time>2018-09-21T18:36:24.002Z</time>
      </trkpt>
      <trkpt lat="46.30307" lon="10.54898">
        <ele>1835.6687561195</ele>
        <time>2018-09-21T18:36:29.002Z</time>
      </trkpt>
      <trkpt lat="46.30298" lon="10.5489">
        <ele>1834.98280064</ele>
        <time>2018-09-21T18:36:36.002Z</time>
      </trkpt>
      <trkpt lat="46.30288" lon="10.54889">
        <ele>1834.48280064</ele>
        <time>2018-09-21T18:36:41.002Z</time>
      </trkpt>
      <trkpt lat="46.3028" lon="10.54885">
        <ele>1833.9822503966</ele>
        <time>2018-09-21T18:36:46.002Z</time>
      </trkpt>
      <trkpt lat="46.3027" lon="10.54889">
        <ele>1833.3618160947</ele>
        <time>2018-09-21T18:36:52.014Z</time>
      </trkpt>
      <trkpt lat="46.3026" lon="10.54893">
        <ele>1831.2107785777</ele>
        <time>2018-09-21T18:37:00.002Z</time>
      </trkpt>
      <trkpt lat="46.30251" lon="10.54895">
        <ele>1828.7043112978</ele>
        <time>2018-09-21T18:37:07.014Z</time>
      </trkpt>
      <trkpt lat="46.3024" lon="10.54896">
        <ele>1827.3001000119</ele>
        <time>2018-09-21T18:37:14.014Z</time>
      </trkpt>
      <trkpt lat="46.3023" lon="10.54893">
        <ele>1826.2992</ele>
        <time>2018-09-21T18:37:19.014Z</time>
      </trkpt>
      <trkpt lat="46.30219" lon="10.54894">
        <ele>1824.6995004034</ele>
        <time>2018-09-21T18:37:27.014Z</time>
      </trkpt>
      <trkpt lat="46.3021" lon="10.54895">
        <ele>1823.7004990851</ele>
        <time>2018-09-21T18:37:32.014Z</time>
      </trkpt>
      <trkpt lat="46.302" lon="10.54899">
        <ele>1821.3583655777</ele>
        <time>2018-09-21T18:37:41.014Z</time>
      </trkpt>
      <trkpt lat="46.30191" lon="10.54905">
        <ele>1818.6614477108</ele>
        <time>2018-09-21T18:37:50.004Z</time>
      </trkpt>
      <trkpt lat="46.30181" lon="10.54909">
        <ele>1815.7572600577</ele>
        <time>2018-09-21T18:37:58.003Z</time>
      </trkpt>
      <trkpt lat="46.30172" lon="10.5491">
        <ele>1812.7487485089</ele>
        <time>2018-09-21T18:38:04.014Z</time>
      </trkpt>
      <trkpt lat="46.30163" lon="10.54908">
        <ele>1810.3540473459</ele>
        <time>2018-09-21T18:38:51.002Z</time>
      </trkpt>
      <trkpt lat="46.30154" lon="10.5491">
        <ele>1808.9515522077</ele>
        <time>2018-09-21T18:38:56.004Z</time>
      </trkpt>
      <trkpt lat="46.30144" lon="10.54912">
        <ele>1808.4500499059</ele>
        <time>2018-09-21T18:39:01.014Z</time>
      </trkpt>
      <trkpt lat="46.30134" lon="10.54915">
        <ele>1807.6992</ele>
        <time>2018-09-21T18:39:07.014Z</time>
      </trkpt>
      <trkpt lat="46.30124" lon="10.54918">
        <ele>1806.5014016</ele>
        <time>2018-09-21T18:39:13.003Z</time>
      </trkpt>
      <trkpt lat="46.30114" lon="10.54917">
        <ele>1804.9564050188</ele>
        <time>2018-09-21T18:39:19.013Z</time>
      </trkpt>
      <trkpt lat="46.30104" lon="10.54919">
        <ele>1802.5705262426</ele>
        <time>2018-09-21T18:39:27.003Z</time>
      </trkpt>
      <trkpt lat="46.30094" lon="10.54919">
        <ele>1800.4545264898</ele>
        <time>2018-09-21T18:39:34.014Z</time>
      </trkpt>
      <trkpt lat="46.30085" lon="10.5492">
        <ele>1798.986519655</ele>
        <time>2018-09-21T18:39:39.003Z</time>
      </trkpt>
      <trkpt lat="46.30076" lon="10.54921">
        <ele>1797.5319124634</ele>
        <time>2018-09-21T18:39:44.002Z</time>
      </trkpt>
      <trkpt lat="46.30066" lon="10.54918">
        <ele>1795.9291319008</ele>
        <time>2018-09-21T18:39:51.013Z</time>
      </trkpt>
      <trkpt lat="46.30057" lon="10.54918">
        <ele>1794.5014016</ele>
        <time>2018-09-21T18:39:58.003Z</time>
      </trkpt>
      <trkpt lat="46.30048" lon="10.5492">
        <ele>1793.5014016</ele>
        <time>2018-09-21T18:40:03.003Z</time>
      </trkpt>
      <trkpt lat="46.30036" lon="10.54919">
        <ele>1792.6507008</ele>
        <time>2018-09-21T18:40:09.003Z</time>
      </trkpt>
      <trkpt lat="46.30027" lon="10.54916">
        <ele>1792.15080064</ele>
        <time>2018-09-21T18:40:14.002Z</time>
      </trkpt>
      <trkpt lat="46.30017" lon="10.54915">
        <ele>1791.3020992774</ele>
        <time>2018-09-21T18:40:19.003Z</time>
      </trkpt>
      <trkpt lat="46.30007" lon="10.54911">
        <ele>1789.851848584</ele>
        <time>2018-09-21T18:40:27.003Z</time>
      </trkpt>
      <trkpt lat="46.29999" lon="10.54907">
        <ele>1789.3523479248</ele>
        <time>2018-09-21T18:40:32.003Z</time>
      </trkpt>
      <trkpt lat="46.29989" lon="10.54903">
        <ele>1788.8538232838</ele>
        <time>2018-09-21T18:40:37.002Z</time>
      </trkpt>
      <trkpt lat="46.29979" lon="10.54901">
        <ele>1788.1586894431</ele>
        <time>2018-09-21T18:40:44.002Z</time>
      </trkpt>
      <trkpt lat="46.29971" lon="10.54894">
        <ele>1787.4547937986</ele>
        <time>2018-09-21T18:40:51.003Z</time>
      </trkpt>
      <trkpt lat="46.29961" lon="10.54889">
        <ele>1786.4992</ele>
        <time>2018-09-21T18:40:58.014Z</time>
      </trkpt>
      <trkpt lat="46.29954" lon="10.54882">
        <ele>1785.5014016</ele>
        <time>2018-09-21T18:41:03.003Z</time>
      </trkpt>
      <trkpt lat="46.29946" lon="10.54873">
        <ele>1785</ele>
        <time>2018-09-21T18:41:09.003Z</time>
      </trkpt>
      <trkpt lat="46.29937" lon="10.54865">
        <ele>1785</ele>
        <time>2018-09-21T18:41:16.003Z</time>
      </trkpt>
      <trkpt lat="46.29929" lon="10.54855">
        <ele>1785</ele>
        <time>2018-09-21T18:41:22.003Z</time>
      </trkpt>
      <trkpt lat="46.29912" lon="10.5486">
        <ele>1784.5546562388</ele>
        <time>2018-09-21T18:41:27.003Z</time>
      </trkpt>
      <trkpt lat="46.29908" lon="10.54848">
        <ele>1782.149248721</ele>
        <time>2018-09-21T18:41:35.013Z</time>
      </trkpt>
      <trkpt lat="46.29901" lon="10.54838">
        <ele>1781.4550603175</ele>
        <time>2018-09-21T18:41:41.003Z</time>
      </trkpt>
      <trkpt lat="46.29894" lon="10.54829">
        <ele>1780.5731140618</ele>
        <time>2018-09-21T18:41:47.003Z</time>
      </trkpt>
      <trkpt lat="46.2989" lon="10.54842">
        <ele>1778.1531708047</ele>
        <time>2018-09-21T18:41:55.013Z</time>
      </trkpt>
      <trkpt lat="46.29887" lon="10.54856">
        <ele>1778</ele>
        <time>2018-09-21T18:42:00.013Z</time>
      </trkpt>
      <trkpt lat="46.29886" lon="10.5487">
        <ele>1778</ele>
        <time>2018-09-21T18:42:06.003Z</time>
      </trkpt>
      <trkpt lat="46.29885" lon="10.54884">
        <ele>1778</ele>
        <time>2018-09-21T18:42:12.003Z</time>
      </trkpt>
      <trkpt lat="46.29883" lon="10.54897">
        <ele>1777.30340096</ele>
        <time>2018-09-21T18:42:19.003Z</time>
      </trkpt>
      <trkpt lat="46.29882" lon="10.54911">
        <ele>1776</ele>
        <time>2018-09-21T18:42:26.003Z</time>
      </trkpt>
      <trkpt lat="46.2988" lon="10.54925">
        <ele>1776</ele>
        <time>2018-09-21T18:42:34.003Z</time>
      </trkpt>
      <trkpt lat="46.29878" lon="10.54938">
        <ele>1776</ele>
        <time>2018-09-21T18:42:40.013Z</time>
      </trkpt>
      <trkpt lat="46.29874" lon="10.54952">
        <ele>1776</ele>
        <time>2018-09-21T18:42:47.003Z</time>
      </trkpt>
      <trkpt lat="46.29871" lon="10.54966">
        <ele>1776</ele>
        <time>2018-09-21T18:42:54.003Z</time>
      </trkpt>
      <trkpt lat="46.29873" lon="10.54979">
        <ele>1776.849112426</ele>
        <time>2018-09-21T18:43:00.013Z</time>
      </trkpt>
      <trkpt lat="46.29876" lon="10.54993">
        <ele>1778</ele>
        <time>2018-09-21T18:43:09.003Z</time>
      </trkpt>
      <trkpt lat="46.29881" lon="10.55005">
        <ele>1778</ele>
        <time>2018-09-21T18:43:14.003Z</time>
      </trkpt>
      <trkpt lat="46.2988" lon="10.55018">
        <ele>1778.84829952</ele>
        <time>2018-09-21T18:43:24.003Z</time>
      </trkpt>
      <trkpt lat="46.29874" lon="10.55029">
        <ele>1780.7442860408</ele>
        <time>2018-09-21T18:43:43.014Z</time>
      </trkpt>
      <trkpt lat="46.29871" lon="10.55042">
        <ele>1781</ele>
        <time>2018-09-21T18:43:52.014Z</time>
      </trkpt>
      <trkpt lat="46.29881" lon="10.55038">
        <ele>1781.0487663728</ele>
        <time>2018-09-21T18:44:26.014Z</time>
      </trkpt>
      <trkpt lat="46.29879" lon="10.55022">
        <ele>1780</ele>
        <time>2018-09-21T18:45:24.014Z</time>
      </trkpt>
      <trkpt lat="46.29882" lon="10.55048">
        <ele>1781.25059968</ele>
        <time>2018-09-21T18:45:43.014Z</time>
      </trkpt>
      <trkpt lat="46.2988" lon="10.55035">
        <ele>1781</ele>
        <time>2018-09-21T18:46:01.014Z</time>
      </trkpt>
      <trkpt lat="46.29894" lon="10.55005">
        <ele>1781</ele>
        <time>2018-09-21T18:46:29.014Z</time>
      </trkpt>
      <trkpt lat="46.29887" lon="10.55027">
        <ele>1781</ele>
        <time>2018-09-21T18:46:48.014Z</time>
      </trkpt>
      <trkpt lat="46.29885" lon="10.55046">
        <ele>1781</ele>
        <time>2018-09-21T18:46:54.014Z</time>
      </trkpt>
      <trkpt lat="46.29878" lon="10.55056">
        <ele>1781</ele>
        <time>2018-09-21T18:46:57.014Z</time>
      </trkpt>
      <trkpt lat="46.2988" lon="10.55069">
        <ele>1781</ele>
        <time>2018-09-21T18:47:08.014Z</time>
      </trkpt>
      <trkpt lat="46.2988" lon="10.55086">
        <ele>1781</ele>
        <time>2018-09-21T18:47:14.014Z</time>
      </trkpt>
      <trkpt lat="46.29883" lon="10.55052">
        <ele>1781</ele>
        <time>2018-09-21T18:47:34.014Z</time>
      </trkpt>
      <trkpt lat="46.29879" lon="10.5504">
        <ele>1780.6544013755</ele>
        <time>2018-09-21T18:47:39.014Z</time>
      </trkpt>
      <trkpt lat="46.29873" lon="10.55028">
        <ele>1780</ele>
        <time>2018-09-21T18:49:49.014Z</time>
      </trkpt>
      <trkpt lat="46.29881" lon="10.55055">
        <ele>1780</ele>
        <time>2018-09-21T18:51:10.014Z</time>
      </trkpt>
      <trkpt lat="46.29877" lon="10.55041">
        <ele>1780</ele>
        <time>2018-09-21T18:51:12.014Z</time>
      </trkpt>
      <trkpt lat="46.29874" lon="10.5501">
        <ele>1779.258019015</ele>
        <time>2018-09-21T18:51:33.014Z</time>
      </trkpt>
      <trkpt lat="46.2987" lon="10.5504">
        <ele>1780</ele>
        <time>2018-09-21T18:52:26.014Z</time>
      </trkpt>
      <trkpt lat="46.29882" lon="10.55037">
        <ele>1779.05059968</ele>
        <time>2018-09-21T18:56:35.014Z</time>
      </trkpt>
      <trkpt lat="46.29872" lon="10.55038">
        <ele>1779</ele>
        <time>2018-09-21T18:57:25.014Z</time>
      </trkpt>
      <trkpt lat="46.29882" lon="10.55037">
        <ele>1779</ele>
        <time>2018-09-21T18:58:22.014Z</time>
      </trkpt>
      <trkpt lat="46.29873" lon="10.55027">
        <ele>1779</ele>
        <time>2018-09-21T18:58:45.014Z</time>
      </trkpt>
      <trkpt lat="46.29878" lon="10.55042">
        <ele>1779</ele>
        <time>2018-09-21T18:58:52.014Z</time>
      </trkpt>
      <trkpt lat="46.29873" lon="10.55055">
        <ele>1778.05059968</ele>
        <time>2018-09-21T18:59:05.014Z</time>
      </trkpt>
      <trkpt lat="46.29865" lon="10.5506">
        <ele>1778</ele>
        <time>2018-09-21T18:59:08.014Z</time>
      </trkpt>
      <trkpt lat="46.29855" lon="10.55055">
        <ele>1778</ele>
        <time>2018-09-21T18:59:11.014Z</time>
      </trkpt>
      <trkpt lat="46.29864" lon="10.55051">
        <ele>1778</ele>
        <time>2018-09-21T18:59:22.014Z</time>
      </trkpt>
      <trkpt lat="46.29854" lon="10.55051">
        <ele>1779</ele>
        <time>2018-09-21T18:59:39.014Z</time>
      </trkpt>
      <trkpt lat="46.2986" lon="10.55039">
        <ele>1779</ele>
        <time>2018-09-21T18:59:45.014Z</time>
      </trkpt>
      <trkpt lat="46.29859" lon="10.55025">
        <ele>1779</ele>
        <time>2018-09-21T18:59:54.014Z</time>
      </trkpt>
      <trkpt lat="46.29849" lon="10.55038">
        <ele>1778.6533726984</ele>
        <time>2018-09-21T19:00:29.014Z</time>
      </trkpt>
      <trkpt lat="46.29867" lon="10.55036">
        <ele>1779.3476621207</ele>
        <time>2018-09-21T19:00:59.014Z</time>
      </trkpt>
      <trkpt lat="46.29878" lon="10.55033">
        <ele>1779.8548737753</ele>
        <time>2018-09-21T19:01:07.014Z</time>
      </trkpt>
      <trkpt lat="46.29886" lon="10.55026">
        <ele>1779.75059968</ele>
        <time>2018-09-21T19:02:28.014Z</time>
      </trkpt>
      <trkpt lat="46.29894" lon="10.55018">
        <ele>1777.6443674308</ele>
        <time>2018-09-21T19:02:49.119Z</time>
      </trkpt>
      <trkpt lat="46.29896" lon="10.55031">
        <ele>1777.1377528745</ele>
        <time>2018-09-21T19:02:57.001Z</time>
      </trkpt>
      <trkpt lat="46.29903" lon="10.55041">
        <ele>1777.8475711741</ele>
        <time>2018-09-21T19:03:04.014Z</time>
      </trkpt>
      <trkpt lat="46.29911" lon="10.55049">
        <ele>1778.5405320454</ele>
        <time>2018-09-21T19:03:11.001Z</time>
      </trkpt>
      <trkpt lat="46.29919" lon="10.55058">
        <ele>1779.6392355021</ele>
        <time>2018-09-21T19:03:22.014Z</time>
      </trkpt>
      <trkpt lat="46.29928" lon="10.55065">
        <ele>1780</ele>
        <time>2018-09-21T19:03:30.014Z</time>
      </trkpt>
      <trkpt lat="46.29937" lon="10.55068">
        <ele>1780.4847395984</ele>
        <time>2018-09-21T19:03:38.014Z</time>
      </trkpt>
      <trkpt lat="46.29946" lon="10.55074">
        <ele>1782</ele>
        <time>2018-09-21T19:03:48.001Z</time>
      </trkpt>
      <trkpt lat="46.29955" lon="10.55074">
        <ele>1782.0115266421</ele>
        <time>2018-09-21T19:03:56.001Z</time>
      </trkpt>
      <trkpt lat="46.29965" lon="10.55074">
        <ele>1783</ele>
        <time>2018-09-21T19:04:06.000Z</time>
      </trkpt>
      <trkpt lat="46.29974" lon="10.55072">
        <ele>1783.74819968</ele>
        <time>2018-09-21T19:04:23.002Z</time>
      </trkpt>
      <trkpt lat="46.29985" lon="10.55072">
        <ele>1784.4496</ele>
        <time>2018-09-21T19:04:30.016Z</time>
      </trkpt>
      <trkpt lat="46.29995" lon="10.55072">
        <ele>1785.24819968</ele>
        <time>2018-09-21T19:04:38.002Z</time>
      </trkpt>
      <trkpt lat="46.30004" lon="10.55072">
        <ele>1786.04809984</ele>
        <time>2018-09-21T19:04:46.001Z</time>
      </trkpt>
      <trkpt lat="46.30014" lon="10.55072">
        <ele>1786.55929984</ele>
        <time>2018-09-21T19:04:51.113Z</time>
      </trkpt>
      <trkpt lat="46.30021" lon="10.55064">
        <ele>1787.1436892311</ele>
        <time>2018-09-21T19:04:57.000Z</time>
      </trkpt>
      <trkpt lat="46.30031" lon="10.55065">
        <ele>1787.8233004593</ele>
        <time>2018-09-21T19:05:04.000Z</time>
      </trkpt>
      <trkpt lat="46.30041" lon="10.55064">
        <ele>1788.5269581545</ele>
        <time>2018-09-21T19:05:11.000Z</time>
      </trkpt>
      <trkpt lat="46.3005" lon="10.55066">
        <ele>1789.5420467543</ele>
        <time>2018-09-21T19:05:21.000Z</time>
      </trkpt>
      <trkpt lat="46.30059" lon="10.55064">
        <ele>1790</ele>
        <time>2018-09-21T19:05:30.015Z</time>
      </trkpt>
      <trkpt lat="46.30069" lon="10.55066">
        <ele>1790.696</ele>
        <time>2018-09-21T19:05:39.000Z</time>
      </trkpt>
      <trkpt lat="46.30079" lon="10.55067">
        <ele>1792.348</ele>
        <time>2018-09-21T19:05:49.000Z</time>
      </trkpt>
      <trkpt lat="46.30089" lon="10.55065">
        <ele>1793.348</ele>
        <time>2018-09-21T19:05:59.000Z</time>
      </trkpt>
      <trkpt lat="46.30099" lon="10.55067">
        <ele>1794.2401741693</ele>
        <time>2018-09-21T19:06:08.001Z</time>
      </trkpt>
      <trkpt lat="46.30109" lon="10.55065">
        <ele>1795.0156154654</ele>
        <time>2018-09-21T19:06:16.001Z</time>
      </trkpt>
      <trkpt lat="46.30119" lon="10.55064">
        <ele>1795.8428128752</ele>
        <time>2018-09-21T19:06:24.000Z</time>
      </trkpt>
      <trkpt lat="46.30129" lon="10.55064">
        <ele>1796.74819968</ele>
        <time>2018-09-21T19:06:33.002Z</time>
      </trkpt>
      <trkpt lat="46.30139" lon="10.55062">
        <ele>1798.69639936</ele>
        <time>2018-09-21T19:06:44.002Z</time>
      </trkpt>
      <trkpt lat="46.30149" lon="10.55062">
        <ele>1799.9496</ele>
        <time>2018-09-21T19:06:55.016Z</time>
      </trkpt>
      <trkpt lat="46.30158" lon="10.55063">
        <ele>1800.0164957377</ele>
        <time>2018-09-21T19:07:06.001Z</time>
      </trkpt>
      <trkpt lat="46.30168" lon="10.55062">
        <ele>1800.9401639344</ele>
        <time>2018-09-21T19:07:15.016Z</time>
      </trkpt>
      <trkpt lat="46.30178" lon="10.55059">
        <ele>1801.9387833495</ele>
        <time>2018-09-21T19:07:25.016Z</time>
      </trkpt>
      <trkpt lat="46.30188" lon="10.55057">
        <ele>1803.2883715392</ele>
        <time>2018-09-21T19:07:32.001Z</time>
      </trkpt>
      <trkpt lat="46.30197" lon="10.55058">
        <ele>1804.34809984</ele>
        <time>2018-09-21T19:07:39.001Z</time>
      </trkpt>
      <trkpt lat="46.30206" lon="10.55063">
        <ele>1805.4937311821</ele>
        <time>2018-09-21T19:07:48.001Z</time>
      </trkpt>
      <trkpt lat="46.30215" lon="10.55068">
        <ele>1807.2438317332</ele>
        <time>2018-09-21T19:07:58.001Z</time>
      </trkpt>
      <trkpt lat="46.30224" lon="10.55076">
        <ele>1808.140211507</ele>
        <time>2018-09-21T19:08:07.001Z</time>
      </trkpt>
      <trkpt lat="46.30229" lon="10.55088">
        <ele>1809.6319035983</ele>
        <time>2018-09-21T19:08:22.001Z</time>
      </trkpt>
      <trkpt lat="46.30234" lon="10.551">
        <ele>1811.2783026251</ele>
        <time>2018-09-21T19:08:32.001Z</time>
      </trkpt>
      <trkpt lat="46.3024" lon="10.55109">
        <ele>1813.0942945844</ele>
        <time>2018-09-21T19:08:46.001Z</time>
      </trkpt>
      <trkpt lat="46.30246" lon="10.55119">
        <ele>1815.14809984</ele>
        <time>2018-09-21T19:08:57.001Z</time>
      </trkpt>
      <trkpt lat="46.30254" lon="10.55127">
        <ele>1816.69619968</ele>
        <time>2018-09-21T19:09:09.001Z</time>
      </trkpt>
      <trkpt lat="46.30262" lon="10.55133">
        <ele>1818.54809984</ele>
        <time>2018-09-21T19:09:21.001Z</time>
      </trkpt>
      <trkpt lat="46.30268" lon="10.55144">
        <ele>1821.24809984</ele>
        <time>2018-09-21T19:09:38.001Z</time>
      </trkpt>
      <trkpt lat="46.30276" lon="10.55151">
        <ele>1822.8992</ele>
        <time>2018-09-21T19:09:50.016Z</time>
      </trkpt>
      <trkpt lat="46.30282" lon="10.5516">
        <ele>1825.2949051892</ele>
        <time>2018-09-21T19:10:02.001Z</time>
      </trkpt>
      <trkpt lat="46.30283" lon="10.55173">
        <ele>1827.0227462295</ele>
        <time>2018-09-21T19:10:16.001Z</time>
      </trkpt>
      <trkpt lat="46.30292" lon="10.55177">
        <ele>1829.1368795503</ele>
        <time>2018-09-21T19:10:27.001Z</time>
      </trkpt>
      <trkpt lat="46.30302" lon="10.55177">
        <ele>1830.34809984</ele>
        <time>2018-09-21T19:10:39.001Z</time>
      </trkpt>
      <trkpt lat="46.30311" lon="10.5518">
        <ele>1833.0373179628</ele>
        <time>2018-09-21T19:10:56.001Z</time>
      </trkpt>
      <trkpt lat="46.30319" lon="10.55186">
        <ele>1835.34809984</ele>
        <time>2018-09-21T19:11:09.001Z</time>
      </trkpt>
      <trkpt lat="46.30324" lon="10.55175">
        <ele>1836.44940032</ele>
        <time>2018-09-21T19:12:20.014Z</time>
      </trkpt>
      <trkpt lat="46.30334" lon="10.55178">
        <ele>1838.0925370245</ele>
        <time>2018-09-21T19:13:21.010Z</time>
      </trkpt>
      <trkpt lat="46.30342" lon="10.55183">
        <ele>1840.4934674996</ele>
        <time>2018-09-21T19:13:33.000Z</time>
      </trkpt>
      <trkpt lat="46.30351" lon="10.55189">
        <ele>1843.64819968</ele>
        <time>2018-09-21T19:13:52.002Z</time>
      </trkpt>
      <trkpt lat="46.3036" lon="10.55193">
        <ele>1846.0284229046</ele>
        <time>2018-09-21T19:14:06.017Z</time>
      </trkpt>
      <trkpt lat="46.30369" lon="10.55191">
        <ele>1848.696</ele>
        <time>2018-09-21T19:14:19.000Z</time>
      </trkpt>
      <trkpt lat="46.30378" lon="10.55186">
        <ele>1850</ele>
        <time>2018-09-21T19:14:33.000Z</time>
      </trkpt>
      <trkpt lat="46.30387" lon="10.55181">
        <ele>1853.04969984</ele>
        <time>2018-09-21T19:14:46.017Z</time>
      </trkpt>
      <trkpt lat="46.30394" lon="10.55172">
        <ele>1854.24950016</ele>
        <time>2018-09-21T19:14:58.015Z</time>
      </trkpt>
      <trkpt lat="46.30405" lon="10.55169">
        <ele>1856.096</ele>
        <time>2018-09-21T19:15:11.000Z</time>
      </trkpt>
      <trkpt lat="46.30414" lon="10.55168">
        <ele>1857.696</ele>
        <time>2018-09-21T19:15:19.000Z</time>
      </trkpt>
      <trkpt lat="46.30423" lon="10.55166">
        <ele>1859.548</ele>
        <time>2018-09-21T19:15:31.000Z</time>
      </trkpt>
      <trkpt lat="46.30432" lon="10.55158">
        <ele>1860.74919936</ele>
        <time>2018-09-21T19:15:43.012Z</time>
      </trkpt>
      <trkpt lat="46.30441" lon="10.55153">
        <ele>1862.49840128</ele>
        <time>2018-09-21T19:15:58.012Z</time>
      </trkpt>
      <trkpt lat="46.30446" lon="10.55142">
        <ele>1864.89639936</ele>
        <time>2018-09-21T19:16:10.002Z</time>
      </trkpt>
      <trkpt lat="46.30454" lon="10.55134">
        <ele>1868.1490503573</ele>
        <time>2018-09-21T19:16:27.012Z</time>
      </trkpt>
      <trkpt lat="46.30456" lon="10.55121">
        <ele>1870.49680128</ele>
        <time>2018-09-21T19:16:43.014Z</time>
      </trkpt>
      <trkpt lat="46.30462" lon="10.55111">
        <ele>1873.34940032</ele>
        <time>2018-09-21T19:16:59.014Z</time>
      </trkpt>
      <trkpt lat="46.30465" lon="10.55099">
        <ele>1876.09880064</ele>
        <time>2018-09-21T19:17:21.014Z</time>
      </trkpt>
      <trkpt lat="46.30474" lon="10.55101">
        <ele>1879.4352143997</ele>
        <time>2018-09-21T19:17:40.014Z</time>
      </trkpt>
      <trkpt lat="46.30481" lon="10.55111">
        <ele>1881.6865977314</ele>
        <time>2018-09-21T19:17:54.000Z</time>
      </trkpt>
      <trkpt lat="46.30485" lon="10.55122">
        <ele>1884.0248962656</ele>
        <time>2018-09-21T19:18:06.000Z</time>
      </trkpt>
      <trkpt lat="46.30486" lon="10.55135">
        <ele>1885.6846473029</ele>
        <time>2018-09-21T19:18:14.000Z</time>
      </trkpt>
      <trkpt lat="46.30491" lon="10.55147">
        <ele>1886</ele>
        <time>2018-09-21T19:18:25.015Z</time>
      </trkpt>
      <trkpt lat="46.30498" lon="10.55159">
        <ele>1886</ele>
        <time>2018-09-21T19:18:34.112Z</time>
      </trkpt>
      <trkpt lat="46.30501" lon="10.55171">
        <ele>1887.0999001882</ele>
        <time>2018-09-21T19:18:41.014Z</time>
      </trkpt>
      <trkpt lat="46.30504" lon="10.55185">
        <ele>1888</ele>
        <time>2018-09-21T19:18:50.014Z</time>
      </trkpt>
      <trkpt lat="46.30498" lon="10.55199">
        <ele>1888.24940032</ele>
        <time>2018-09-21T19:18:58.014Z</time>
      </trkpt>
      <trkpt lat="46.3049" lon="10.55207">
        <ele>1889.34940032</ele>
        <time>2018-09-21T19:19:09.014Z</time>
      </trkpt>
      <trkpt lat="46.30485" lon="10.55218">
        <ele>1890.49880064</ele>
        <time>2018-09-21T19:19:18.014Z</time>
      </trkpt>
      <trkpt lat="46.3048" lon="10.5523">
        <ele>1892</ele>
        <time>2018-09-21T19:19:27.014Z</time>
      </trkpt>
      <trkpt lat="46.30473" lon="10.55237">
        <ele>1892</ele>
        <time>2018-09-21T19:19:34.014Z</time>
      </trkpt>
      <trkpt lat="46.30466" lon="10.55246">
        <ele>1892.64940032</ele>
        <time>2018-09-21T19:19:42.014Z</time>
      </trkpt>
      <trkpt lat="46.3046" lon="10.55256">
        <ele>1893.4462762435</ele>
        <time>2018-09-21T19:19:50.014Z</time>
      </trkpt>
      <trkpt lat="46.30454" lon="10.55267">
        <ele>1894</ele>
        <time>2018-09-21T19:19:57.014Z</time>
      </trkpt>
      <trkpt lat="46.30449" lon="10.55279">
        <ele>1894</ele>
        <time>2018-09-21T19:20:06.014Z</time>
      </trkpt>
      <trkpt lat="46.30441" lon="10.55288">
        <ele>1894</ele>
        <time>2018-09-21T19:20:15.014Z</time>
      </trkpt>
      <trkpt lat="46.30432" lon="10.55294">
        <ele>1895.49880064</ele>
        <time>2018-09-21T19:20:23.014Z</time>
      </trkpt>
      <trkpt lat="46.30424" lon="10.55302">
        <ele>1896</ele>
        <time>2018-09-21T19:20:30.014Z</time>
      </trkpt>
      <trkpt lat="46.30419" lon="10.55314">
        <ele>1896.8842968562</ele>
        <time>2018-09-21T19:20:40.014Z</time>
      </trkpt>
      <trkpt lat="46.30414" lon="10.55327">
        <ele>1898.2419013022</ele>
        <time>2018-09-21T19:20:48.014Z</time>
      </trkpt>
      <trkpt lat="46.30408" lon="10.55338">
        <ele>1899.1206397096</ele>
        <time>2018-09-21T19:20:56.999Z</time>
      </trkpt>
      <trkpt lat="46.304" lon="10.55348">
        <ele>1901.296</ele>
        <time>2018-09-21T19:21:12.000Z</time>
      </trkpt>
      <trkpt lat="46.30391" lon="10.55352">
        <ele>1903.0879221151</ele>
        <time>2018-09-21T19:21:21.014Z</time>
      </trkpt>
      <trkpt lat="46.30381" lon="10.55355">
        <ele>1904.3269756751</ele>
        <time>2018-09-21T19:21:29.014Z</time>
      </trkpt>
      <trkpt lat="46.30373" lon="10.55359">
        <ele>1905.0014586667</ele>
        <time>2018-09-21T19:21:36.014Z</time>
      </trkpt>
      <trkpt lat="46.30363" lon="10.55365">
        <ele>1906.1425406452</ele>
        <time>2018-09-21T19:21:47.014Z</time>
      </trkpt>
      <trkpt lat="46.30355" lon="10.55374">
        <ele>1907.69880064</ele>
        <time>2018-09-21T19:21:59.014Z</time>
      </trkpt>
      <trkpt lat="46.30348" lon="10.55382">
        <ele>1909.6911972491</ele>
        <time>2018-09-21T19:22:09.014Z</time>
      </trkpt>
      <trkpt lat="46.3034" lon="10.55392">
        <ele>1911.5373256925</ele>
        <time>2018-09-21T19:22:21.014Z</time>
      </trkpt>
      <trkpt lat="46.30333" lon="10.554">
        <ele>1912.33640064</ele>
        <time>2018-09-21T19:22:29.014Z</time>
      </trkpt>
      <trkpt lat="46.30326" lon="10.5541">
        <ele>1913.4421484281</ele>
        <time>2018-09-21T19:22:40.014Z</time>
      </trkpt>
      <trkpt lat="46.30319" lon="10.55419">
        <ele>1914.24940032</ele>
        <time>2018-09-21T19:22:48.014Z</time>
      </trkpt>
      <trkpt lat="46.30311" lon="10.55428">
        <ele>1915.6900301489</ele>
        <time>2018-09-21T19:22:59.015Z</time>
      </trkpt>
      <trkpt lat="46.30303" lon="10.55434">
        <ele>1917.8780691328</ele>
        <time>2018-09-21T19:23:10.014Z</time>
      </trkpt>
      <trkpt lat="46.30295" lon="10.55442">
        <ele>1920.4952673499</ele>
        <time>2018-09-21T19:23:23.014Z</time>
      </trkpt>
      <trkpt lat="46.30287" lon="10.55449">
        <ele>1921.84940032</ele>
        <time>2018-09-21T19:23:34.014Z</time>
      </trkpt>
      <trkpt lat="46.30277" lon="10.55453">
        <ele>1922.74940032</ele>
        <time>2018-09-21T19:23:43.014Z</time>
      </trkpt>
      <trkpt lat="46.30268" lon="10.55456">
        <ele>1924.29799936</ele>
        <time>2018-09-21T19:23:52.010Z</time>
      </trkpt>
      <trkpt lat="46.3026" lon="10.55466">
        <ele>1926.9740095072</ele>
        <time>2018-09-21T19:24:06.002Z</time>
      </trkpt>
      <trkpt lat="46.30254" lon="10.55478">
        <ele>1929.1379974773</ele>
        <time>2018-09-21T19:24:17.000Z</time>
      </trkpt>
      <trkpt lat="46.30248" lon="10.55487">
        <ele>1930.4262428159</ele>
        <time>2018-09-21T19:24:28.014Z</time>
      </trkpt>
      <trkpt lat="46.30242" lon="10.55497">
        <ele>1932.0175378588</ele>
        <time>2018-09-21T19:24:36.014Z</time>
      </trkpt>
      <trkpt lat="46.30236" lon="10.55507">
        <ele>1934.2501499301</ele>
        <time>2018-09-21T19:24:48.014Z</time>
      </trkpt>
      <trkpt lat="46.30228" lon="10.55514">
        <ele>1935.49880064</ele>
        <time>2018-09-21T19:24:58.014Z</time>
      </trkpt>
      <trkpt lat="46.30218" lon="10.55522">
        <ele>1937.892552487</ele>
        <time>2018-09-21T19:25:10.014Z</time>
      </trkpt>
      <trkpt lat="46.30209" lon="10.55529">
        <ele>1939.891037548</ele>
        <time>2018-09-21T19:25:20.014Z</time>
      </trkpt>
      <trkpt lat="46.30198" lon="10.55536">
        <ele>1941</ele>
        <time>2018-09-21T19:25:28.004Z</time>
      </trkpt>
      <trkpt lat="46.30188" lon="10.55538">
        <ele>1942.09880064</ele>
        <time>2018-09-21T19:25:41.014Z</time>
      </trkpt>
      <trkpt lat="46.30197" lon="10.55543">
        <ele>1946.0229600584</ele>
        <time>2018-09-21T19:26:06.004Z</time>
      </trkpt>
      <trkpt lat="46.30206" lon="10.55545">
        <ele>1948.0177206008</ele>
        <time>2018-09-21T19:26:16.002Z</time>
      </trkpt>
      <trkpt lat="46.30215" lon="10.55551">
        <ele>1948.9912369149</ele>
        <time>2018-09-21T19:26:26.000Z</time>
      </trkpt>
      <trkpt lat="46.30224" lon="10.55554">
        <ele>1949.096</ele>
        <time>2018-09-21T19:26:36.000Z</time>
      </trkpt>
      <trkpt lat="46.30234" lon="10.55554">
        <ele>1950.89799936</ele>
        <time>2018-09-21T19:26:45.010Z</time>
      </trkpt>
      <trkpt lat="46.30244" lon="10.55553">
        <ele>1952.69700096</ele>
        <time>2018-09-21T19:26:54.005Z</time>
      </trkpt>
      <trkpt lat="46.30253" lon="10.55552">
        <ele>1953.7440357891</ele>
        <time>2018-09-21T19:27:03.005Z</time>
      </trkpt>
      <trkpt lat="46.30262" lon="10.55549">
        <ele>1955.2548825</ele>
        <time>2018-09-21T19:27:12.005Z</time>
      </trkpt>
      <trkpt lat="46.30273" lon="10.55547">
        <ele>1956.4323710894</ele>
        <time>2018-09-21T19:27:20.014Z</time>
      </trkpt>
      <trkpt lat="46.30282" lon="10.55547">
        <ele>1957.44950016</ele>
        <time>2018-09-21T19:27:30.015Z</time>
      </trkpt>
      <trkpt lat="46.30291" lon="10.55545">
        <ele>1958.89900032</ele>
        <time>2018-09-21T19:27:40.015Z</time>
      </trkpt>
      <trkpt lat="46.30301" lon="10.55546">
        <ele>1960</ele>
        <time>2018-09-21T19:27:52.000Z</time>
      </trkpt>
      <trkpt lat="46.3031" lon="10.55543">
        <ele>1961.29700096</ele>
        <time>2018-09-21T19:28:02.005Z</time>
      </trkpt>
      <trkpt lat="46.30319" lon="10.5554">
        <ele>1963.0980987073</ele>
        <time>2018-09-21T19:28:11.005Z</time>
      </trkpt>
      <trkpt lat="46.30329" lon="10.55538">
        <ele>1964</ele>
        <time>2018-09-21T19:28:23.004Z</time>
      </trkpt>
      <trkpt lat="46.30339" lon="10.55533">
        <ele>1964.54829952</ele>
        <time>2018-09-21T19:28:31.003Z</time>
      </trkpt>
      <trkpt lat="46.30347" lon="10.55527">
        <ele>1965.89900032</ele>
        <time>2018-09-21T19:28:40.015Z</time>
      </trkpt>
      <trkpt lat="46.30355" lon="10.55522">
        <ele>1967.24850048</ele>
        <time>2018-09-21T19:28:48.005Z</time>
      </trkpt>
      <trkpt lat="46.30364" lon="10.55517">
        <ele>1968.49679872</ele>
        <time>2018-09-21T19:28:58.004Z</time>
      </trkpt>
      <trkpt lat="46.30373" lon="10.55515">
        <ele>1970.548</ele>
        <time>2018-09-21T19:29:11.000Z</time>
      </trkpt>
      <trkpt lat="46.30383" lon="10.55512">
        <ele>1971.6961053974</ele>
        <time>2018-09-21T19:29:19.004Z</time>
      </trkpt>
      <trkpt lat="46.30391" lon="10.55504">
        <ele>1973</ele>
        <time>2018-09-21T19:29:27.004Z</time>
      </trkpt>
      <trkpt lat="46.30399" lon="10.55496">
        <ele>1973</ele>
        <time>2018-09-21T19:29:35.012Z</time>
      </trkpt>
      <trkpt lat="46.30408" lon="10.5549">
        <ele>1974.295592596</ele>
        <time>2018-09-21T19:29:42.005Z</time>
      </trkpt>
      <trkpt lat="46.30416" lon="10.55483">
        <ele>1975.44930048</ele>
        <time>2018-09-21T19:29:50.013Z</time>
      </trkpt>
      <trkpt lat="46.30425" lon="10.55477">
        <ele>1976.3477054516</ele>
        <time>2018-09-21T19:29:59.004Z</time>
      </trkpt>
      <trkpt lat="46.30434" lon="10.55471">
        <ele>1977.1462548847</ele>
        <time>2018-09-21T19:30:07.004Z</time>
      </trkpt>
      <trkpt lat="46.30427" lon="10.55481">
        <ele>1980.4307139009</ele>
        <time>2018-09-21T19:30:30.015Z</time>
      </trkpt>
      <trkpt lat="46.30419" lon="10.55488">
        <ele>1981.24839936</ele>
        <time>2018-09-21T19:30:38.004Z</time>
      </trkpt>
      <trkpt lat="46.30412" lon="10.55497">
        <ele>1982.29619968</ele>
        <time>2018-09-21T19:30:47.001Z</time>
      </trkpt>
      <trkpt lat="46.30409" lon="10.55509">
        <ele>1984.0466799471</ele>
        <time>2018-09-21T19:30:56.005Z</time>
      </trkpt>
      <trkpt lat="46.30406" lon="10.55523">
        <ele>1985.0216441279</ele>
        <time>2018-09-21T19:31:06.014Z</time>
      </trkpt>
      <trkpt lat="46.30402" lon="10.55536">
        <ele>1986.8926131588</ele>
        <time>2018-09-21T19:31:15.004Z</time>
      </trkpt>
      <trkpt lat="46.30398" lon="10.55549">
        <ele>1987</ele>
        <time>2018-09-21T19:31:25.000Z</time>
      </trkpt>
      <trkpt lat="46.30391" lon="10.55558">
        <ele>1988.8947368421</ele>
        <time>2018-09-21T19:31:35.000Z</time>
      </trkpt>
      <trkpt lat="46.30383" lon="10.55566">
        <ele>1989</ele>
        <time>2018-09-21T19:31:45.001Z</time>
      </trkpt>
      <trkpt lat="46.30376" lon="10.55576">
        <ele>1990.6919960472</ele>
        <time>2018-09-21T19:31:54.000Z</time>
      </trkpt>
      <trkpt lat="46.3037" lon="10.55588">
        <ele>1992.2952184861</ele>
        <time>2018-09-21T19:32:07.002Z</time>
      </trkpt>
      <trkpt lat="46.30367" lon="10.556">
        <ele>1994.6880484462</ele>
        <time>2018-09-21T19:32:19.014Z</time>
      </trkpt>
      <trkpt lat="46.30358" lon="10.55608">
        <ele>1996.1417836365</ele>
        <time>2018-09-21T19:32:27.015Z</time>
      </trkpt>
      <trkpt lat="46.3035" lon="10.55615">
        <ele>1997.6883288134</ele>
        <time>2018-09-21T19:32:39.001Z</time>
      </trkpt>
      <trkpt lat="46.30343" lon="10.55622">
        <ele>1999.3392234009</ele>
        <time>2018-09-21T19:32:49.014Z</time>
      </trkpt>
      <trkpt lat="46.30335" lon="10.5563">
        <ele>2000.0183292991</ele>
        <time>2018-09-21T19:32:56.000Z</time>
      </trkpt>
      <trkpt lat="46.30327" lon="10.55635">
        <ele>2000.8331971214</ele>
        <time>2018-09-21T19:33:04.002Z</time>
      </trkpt>
      <trkpt lat="46.30318" lon="10.55641">
        <ele>2001.7449392713</ele>
        <time>2018-09-21T19:33:13.000Z</time>
      </trkpt>
      <trkpt lat="46.30309" lon="10.55647">
        <ele>2004.54550144</ele>
        <time>2018-09-21T19:33:24.005Z</time>
      </trkpt>
      <trkpt lat="46.30301" lon="10.55653">
        <ele>2006.8338499552</ele>
        <time>2018-09-21T19:33:35.001Z</time>
      </trkpt>
      <trkpt lat="46.30293" lon="10.55662">
        <ele>2008.0443725461</ele>
        <time>2018-09-21T19:33:46.001Z</time>
      </trkpt>
      <trkpt lat="46.30285" lon="10.55666">
        <ele>2008.9668817712</ele>
        <time>2018-09-21T19:33:56.001Z</time>
      </trkpt>
      <trkpt lat="46.30275" lon="10.55671">
        <ele>2011.0396446798</ele>
        <time>2018-09-21T19:34:06.001Z</time>
      </trkpt>
      <trkpt lat="46.30268" lon="10.55678">
        <ele>2013</ele>
        <time>2018-09-21T19:34:16.001Z</time>
      </trkpt>
      <trkpt lat="46.3026" lon="10.55685">
        <ele>2013</ele>
        <time>2018-09-21T19:34:24.001Z</time>
      </trkpt>
      <trkpt lat="46.30251" lon="10.55691">
        <ele>2014.6744325921</ele>
        <time>2018-09-21T19:34:34.001Z</time>
      </trkpt>
      <trkpt lat="46.30243" lon="10.557">
        <ele>2015.8411461787</ele>
        <time>2018-09-21T19:34:44.011Z</time>
      </trkpt>
      <trkpt lat="46.30235" lon="10.55708">
        <ele>2017.4952673499</ele>
        <time>2018-09-21T19:34:53.014Z</time>
      </trkpt>
      <trkpt lat="46.30227" lon="10.55715">
        <ele>2018.84950016</ele>
        <time>2018-09-21T19:35:04.015Z</time>
      </trkpt>
      <trkpt lat="46.30219" lon="10.5572">
        <ele>2020.89619968</ele>
        <time>2018-09-21T19:35:15.001Z</time>
      </trkpt>
      <trkpt lat="46.3022" lon="10.55733">
        <ele>2022.64950016</ele>
        <time>2018-09-21T19:35:32.015Z</time>
      </trkpt>
      <trkpt lat="46.30229" lon="10.5573">
        <ele>2023.7400587964</ele>
        <time>2018-09-21T19:35:43.002Z</time>
      </trkpt>
      <trkpt lat="46.30238" lon="10.55729">
        <ele>2025.0859451036</ele>
        <time>2018-09-21T19:35:51.000Z</time>
      </trkpt>
      <trkpt lat="46.30247" lon="10.55726">
        <ele>2027.094612755</ele>
        <time>2018-09-21T19:36:01.004Z</time>
      </trkpt>
      <trkpt lat="46.30256" lon="10.55723">
        <ele>2028</ele>
        <time>2018-09-21T19:36:12.014Z</time>
      </trkpt>
      <trkpt lat="46.30265" lon="10.55721">
        <ele>2028.6474577396</ele>
        <time>2018-09-21T19:36:22.014Z</time>
      </trkpt>
      <trkpt lat="46.30275" lon="10.55723">
        <ele>2030.945336151</ele>
        <time>2018-09-21T19:36:32.015Z</time>
      </trkpt>
      <trkpt lat="46.30284" lon="10.55722">
        <ele>2033.2926291634</ele>
        <time>2018-09-21T19:36:42.009Z</time>
      </trkpt>
      <trkpt lat="46.30294" lon="10.55722">
        <ele>2034.6475900402</ele>
        <time>2018-09-21T19:36:52.010Z</time>
      </trkpt>
      <trkpt lat="46.30303" lon="10.55726">
        <ele>2035.84850048</ele>
        <time>2018-09-21T19:37:04.005Z</time>
      </trkpt>
      <trkpt lat="46.30312" lon="10.55722">
        <ele>2037.8875637453</ele>
        <time>2018-09-21T19:37:15.005Z</time>
      </trkpt>
      <trkpt lat="46.30321" lon="10.55722">
        <ele>2039.0044974059</ele>
        <time>2018-09-21T19:37:26.003Z</time>
      </trkpt>
      <trkpt lat="46.3033" lon="10.55722">
        <ele>2039.9461302092</ele>
        <time>2018-09-21T19:37:35.005Z</time>
      </trkpt>
      <trkpt lat="46.3034" lon="10.5572">
        <ele>2041.4940138884</ele>
        <time>2018-09-21T19:37:43.005Z</time>
      </trkpt>
      <trkpt lat="46.30349" lon="10.55717">
        <ele>2042.5431420799</ele>
        <time>2018-09-21T19:37:51.004Z</time>
      </trkpt>
      <trkpt lat="46.30359" lon="10.55717">
        <ele>2043.5447587097</ele>
        <time>2018-09-21T19:38:01.004Z</time>
      </trkpt>
      <trkpt lat="46.30368" lon="10.55717">
        <ele>2044.5435092309</ele>
        <time>2018-09-21T19:38:11.004Z</time>
      </trkpt>
      <trkpt lat="46.30377" lon="10.55717">
        <ele>2045.6849663984</ele>
        <time>2018-09-21T19:38:19.004Z</time>
      </trkpt>
      <trkpt lat="46.30386" lon="10.55721">
        <ele>2047.646368365</ele>
        <time>2018-09-21T19:38:32.016Z</time>
      </trkpt>
      <trkpt lat="46.30396" lon="10.55721">
        <ele>2049.0914575786</ele>
        <time>2018-09-21T19:38:41.000Z</time>
      </trkpt>
      <trkpt lat="46.30404" lon="10.55716">
        <ele>2050</ele>
        <time>2018-09-21T19:38:48.000Z</time>
      </trkpt>
      <trkpt lat="46.30414" lon="10.55714">
        <ele>2050.0770932303</ele>
        <time>2018-09-21T19:38:56.004Z</time>
      </trkpt>
      <trkpt lat="46.30424" lon="10.55712">
        <ele>2051.9392917329</ele>
        <time>2018-09-21T19:39:06.004Z</time>
      </trkpt>
      <trkpt lat="46.30434" lon="10.5571">
        <ele>2052.943852729</ele>
        <time>2018-09-21T19:39:15.004Z</time>
      </trkpt>
      <trkpt lat="46.30444" lon="10.55706">
        <ele>2054.89680128</ele>
        <time>2018-09-21T19:39:25.004Z</time>
      </trkpt>
      <trkpt lat="46.30453" lon="10.557">
        <ele>2057.0749285917</ele>
        <time>2018-09-21T19:39:36.000Z</time>
      </trkpt>
      <trkpt lat="46.30461" lon="10.55693">
        <ele>2058.9969260317</ele>
        <time>2018-09-21T19:39:46.004Z</time>
      </trkpt>
      <trkpt lat="46.30468" lon="10.55683">
        <ele>2059.9665044261</ele>
        <time>2018-09-21T19:39:56.004Z</time>
      </trkpt>
      <trkpt lat="46.30474" lon="10.55672">
        <ele>2062.8219575652</ele>
        <time>2018-09-21T19:40:05.004Z</time>
      </trkpt>
      <trkpt lat="46.30481" lon="10.55663">
        <ele>2063.8478430003</ele>
        <time>2018-09-21T19:40:14.003Z</time>
      </trkpt>
      <trkpt lat="46.30488" lon="10.55654">
        <ele>2064</ele>
        <time>2018-09-21T19:40:23.004Z</time>
      </trkpt>
      <trkpt lat="46.30496" lon="10.55644">
        <ele>2065.4932538951</ele>
        <time>2018-09-21T19:40:33.004Z</time>
      </trkpt>
      <trkpt lat="46.30492" lon="10.55657">
        <ele>2069.8958873086</ele>
        <time>2018-09-21T19:40:55.001Z</time>
      </trkpt>
      <trkpt lat="46.30488" lon="10.55669">
        <ele>2070</ele>
        <time>2018-09-21T19:41:04.001Z</time>
      </trkpt>
      <trkpt lat="46.30486" lon="10.55683">
        <ele>2070.8405352914</ele>
        <time>2018-09-21T19:41:14.001Z</time>
      </trkpt>
      <trkpt lat="46.30485" lon="10.55696">
        <ele>2072.292835748</ele>
        <time>2018-09-21T19:41:22.016Z</time>
      </trkpt>
      <trkpt lat="46.30483" lon="10.55709">
        <ele>2073.89639936</ele>
        <time>2018-09-21T19:41:30.002Z</time>
      </trkpt>
      <trkpt lat="46.30477" lon="10.55723">
        <ele>2075.54940032</ele>
        <time>2018-09-21T19:41:41.014Z</time>
      </trkpt>
      <trkpt lat="46.30468" lon="10.55729">
        <ele>2076</ele>
        <time>2018-09-21T19:41:48.001Z</time>
      </trkpt>
      <trkpt lat="46.3046" lon="10.55737">
        <ele>2076.2938488889</ele>
        <time>2018-09-21T19:41:57.001Z</time>
      </trkpt>
      <trkpt lat="46.30452" lon="10.55744">
        <ele>2078.0808464516</ele>
        <time>2018-09-21T19:42:06.001Z</time>
      </trkpt>
      <trkpt lat="46.30445" lon="10.55753">
        <ele>2079.8983870968</ele>
        <time>2018-09-21T19:42:15.016Z</time>
      </trkpt>
      <trkpt lat="46.30437" lon="10.5576">
        <ele>2080.9401986156</ele>
        <time>2018-09-21T19:42:25.016Z</time>
      </trkpt>
      <trkpt lat="46.30429" lon="10.55768">
        <ele>2081.8465655941</ele>
        <time>2018-09-21T19:42:34.001Z</time>
      </trkpt>
      <trkpt lat="46.30421" lon="10.55774">
        <ele>2083.8803972311</ele>
        <time>2018-09-21T19:42:45.016Z</time>
      </trkpt>
      <trkpt lat="46.30412" lon="10.5578">
        <ele>2085.9944275172</ele>
        <time>2018-09-21T19:42:56.001Z</time>
      </trkpt>
      <trkpt lat="46.30404" lon="10.55787">
        <ele>2086.9148682134</ele>
        <time>2018-09-21T19:43:05.014Z</time>
      </trkpt>
      <trkpt lat="46.30397" lon="10.55796">
        <ele>2089.087693444</ele>
        <time>2018-09-21T19:43:16.001Z</time>
      </trkpt>
      <trkpt lat="46.30388" lon="10.55804">
        <ele>2090.9108480323</ele>
        <time>2018-09-21T19:43:26.001Z</time>
      </trkpt>
      <trkpt lat="46.30381" lon="10.55812">
        <ele>2092.04809984</ele>
        <time>2018-09-21T19:43:36.001Z</time>
      </trkpt>
      <trkpt lat="46.30372" lon="10.5582">
        <ele>2092.94819968</ele>
        <time>2018-09-21T19:43:45.002Z</time>
      </trkpt>
      <trkpt lat="46.30363" lon="10.55825">
        <ele>2094.69619968</ele>
        <time>2018-09-21T19:43:54.001Z</time>
      </trkpt>
      <trkpt lat="46.30354" lon="10.55831">
        <ele>2095.74909952</ele>
        <time>2018-09-21T19:44:03.011Z</time>
      </trkpt>
      <trkpt lat="46.30345" lon="10.55833">
        <ele>2096.54809984</ele>
        <time>2018-09-21T19:44:11.001Z</time>
      </trkpt>
      <trkpt lat="46.30337" lon="10.5584">
        <ele>2097.69819904</ele>
        <time>2018-09-21T19:44:19.011Z</time>
      </trkpt>
      <trkpt lat="46.30327" lon="10.5584">
        <ele>2099.1428157046</ele>
        <time>2018-09-21T19:44:27.001Z</time>
      </trkpt>
      <trkpt lat="46.30318" lon="10.5584">
        <ele>2100.0115266421</ele>
        <time>2018-09-21T19:44:36.001Z</time>
      </trkpt>
      <trkpt lat="46.30308" lon="10.5584">
        <ele>2100.9462094467</ele>
        <time>2018-09-21T19:44:45.002Z</time>
      </trkpt>
      <trkpt lat="46.30299" lon="10.55841">
        <ele>2101</ele>
        <time>2018-09-21T19:44:52.002Z</time>
      </trkpt>
      <trkpt lat="46.30289" lon="10.55842">
        <ele>2101</ele>
        <time>2018-09-21T19:45:01.014Z</time>
      </trkpt>
      <trkpt lat="46.3028" lon="10.55849">
        <ele>2102.09880064</ele>
        <time>2018-09-21T19:45:11.014Z</time>
      </trkpt>
      <trkpt lat="46.3027" lon="10.55853">
        <ele>2103.6985017218</ele>
        <time>2018-09-21T19:45:19.016Z</time>
      </trkpt>
      <trkpt lat="46.3026" lon="10.55849">
        <ele>2107.2438431251</ele>
        <time>2018-09-21T19:45:33.002Z</time>
      </trkpt>
      <trkpt lat="46.30249" lon="10.55851">
        <ele>2108.54819968</ele>
        <time>2018-09-21T19:45:41.002Z</time>
      </trkpt>
      <trkpt lat="46.30239" lon="10.55855">
        <ele>2109</ele>
        <time>2018-09-21T19:45:50.014Z</time>
      </trkpt>
      <trkpt lat="46.30228" lon="10.55857">
        <ele>2109.29680128</ele>
        <time>2018-09-21T19:45:57.004Z</time>
      </trkpt>
      <trkpt lat="46.30219" lon="10.55853">
        <ele>2110.89619968</ele>
        <time>2018-09-21T19:46:05.001Z</time>
      </trkpt>
      <trkpt lat="46.3021" lon="10.55855">
        <ele>2112.8182155112</ele>
        <time>2018-09-21T19:46:15.002Z</time>
      </trkpt>
      <trkpt lat="46.302" lon="10.5586">
        <ele>2115.2868331138</ele>
        <time>2018-09-21T19:46:32.002Z</time>
      </trkpt>
      <trkpt lat="46.30192" lon="10.55861">
        <ele>2117.4968892267</ele>
        <time>2018-09-21T19:46:43.012Z</time>
      </trkpt>
      <trkpt lat="46.30183" lon="10.55865">
        <ele>2118</ele>
        <time>2018-09-21T19:46:52.014Z</time>
      </trkpt>
      <trkpt lat="46.30174" lon="10.5587">
        <ele>2117.5080282285</ele>
        <time>2018-09-21T19:46:58.002Z</time>
      </trkpt>
      <trkpt lat="46.30164" lon="10.55869">
        <ele>2116.3165495553</ele>
        <time>2018-09-21T19:47:04.013Z</time>
      </trkpt>
      <trkpt lat="46.30154" lon="10.55867">
        <ele>2116.5418090318</ele>
        <time>2018-09-21T19:47:11.001Z</time>
      </trkpt>
      <trkpt lat="46.30146" lon="10.55874">
        <ele>2117</ele>
        <time>2018-09-21T19:47:24.012Z</time>
      </trkpt>
      <trkpt lat="46.30139" lon="10.55884">
        <ele>2117.94819968</ele>
        <time>2018-09-21T19:47:35.002Z</time>
      </trkpt>
      <trkpt lat="46.30138" lon="10.55897">
        <ele>2121.0876786504</ele>
        <time>2018-09-21T19:47:51.004Z</time>
      </trkpt>
      <trkpt lat="46.3013" lon="10.55902">
        <ele>2124.2899092235</ele>
        <time>2018-09-21T19:48:07.001Z</time>
      </trkpt>
      <trkpt lat="46.30126" lon="10.55914">
        <ele>2129.94809984</ele>
        <time>2018-09-21T19:48:35.001Z</time>
      </trkpt>
      <trkpt lat="46.30119" lon="10.55923">
        <ele>2135.2846916678</ele>
        <time>2018-09-21T19:49:07.002Z</time>
      </trkpt>
      <trkpt lat="46.30112" lon="10.55932">
        <ele>2139.031437425</ele>
        <time>2018-09-21T19:49:26.002Z</time>
      </trkpt>
      <trkpt lat="46.30106" lon="10.55942">
        <ele>2144.6460759089</ele>
        <time>2018-09-21T19:50:02.002Z</time>
      </trkpt>
      <trkpt lat="46.30099" lon="10.5595">
        <ele>2148.6870248706</ele>
        <time>2018-09-21T19:50:29.002Z</time>
      </trkpt>
      <trkpt lat="46.30092" lon="10.55959">
        <ele>2154.8423032874</ele>
        <time>2018-09-21T19:50:54.002Z</time>
      </trkpt>
      <trkpt lat="46.30089" lon="10.55972">
        <ele>2160.09639936</ele>
        <time>2018-09-21T19:51:21.002Z</time>
      </trkpt>
      <trkpt lat="46.3008" lon="10.55969">
        <ele>2162.683232528</ele>
        <time>2018-09-21T19:51:39.002Z</time>
      </trkpt>
      <trkpt lat="46.30071" lon="10.55965">
        <ele>2168</ele>
        <time>2018-09-21T19:52:06.002Z</time>
      </trkpt>
      <trkpt lat="46.30062" lon="10.55967">
        <ele>2170.5144259288</ele>
        <time>2018-09-21T19:52:24.002Z</time>
      </trkpt>
      <trkpt lat="46.30055" lon="10.55974">
        <ele>2171.6689466376</ele>
        <time>2018-09-21T19:52:38.014Z</time>
      </trkpt>
      <trkpt lat="46.30047" lon="10.55981">
        <ele>2176.6929349072</ele>
        <time>2018-09-21T19:52:59.002Z</time>
      </trkpt>
      <trkpt lat="46.30045" lon="10.55994">
        <ele>2180.84819968</ele>
        <time>2018-09-21T19:53:24.002Z</time>
      </trkpt>
      <trkpt lat="46.30048" lon="10.56007">
        <ele>2184.4928491417</ele>
        <time>2018-09-21T19:53:43.002Z</time>
      </trkpt>
      <trkpt lat="46.30039" lon="10.56008">
        <ele>2187.3461227222</ele>
        <time>2018-09-21T19:53:59.002Z</time>
      </trkpt>
      <trkpt lat="46.30029" lon="10.56011">
        <ele>2189.0909444449</ele>
        <time>2018-09-21T19:54:11.002Z</time>
      </trkpt>
      <trkpt lat="46.30021" lon="10.56017">
        <ele>2192.0432432294</ele>
        <time>2018-09-21T19:54:26.002Z</time>
      </trkpt>
      <trkpt lat="46.30015" lon="10.56028">
        <ele>2194.0929709237</ele>
        <time>2018-09-21T19:54:41.003Z</time>
      </trkpt>
      <trkpt lat="46.30024" lon="10.56031">
        <ele>2195.8414679365</ele>
        <time>2018-09-21T19:54:54.002Z</time>
      </trkpt>
      <trkpt lat="46.30033" lon="10.5603">
        <ele>2196</ele>
        <time>2018-09-21T19:55:02.004Z</time>
      </trkpt>
      <trkpt lat="46.30043" lon="10.56032">
        <ele>2197.447410996</ele>
        <time>2018-09-21T19:55:20.012Z</time>
      </trkpt>
      <trkpt lat="46.30052" lon="10.56039">
        <ele>2198.888135948</ele>
        <time>2018-09-21T19:55:30.014Z</time>
      </trkpt>
      <trkpt lat="46.30061" lon="10.56044">
        <ele>2200.4406374502</ele>
        <time>2018-09-21T19:55:40.014Z</time>
      </trkpt>
      <trkpt lat="46.30069" lon="10.5605">
        <ele>2201</ele>
        <time>2018-09-21T19:55:48.004Z</time>
      </trkpt>
      <trkpt lat="46.30078" lon="10.56058">
        <ele>2201.09659904</ele>
        <time>2018-09-21T19:55:56.003Z</time>
      </trkpt>
      <trkpt lat="46.30086" lon="10.56062">
        <ele>2202.69679872</ele>
        <time>2018-09-21T19:56:04.004Z</time>
      </trkpt>
      <trkpt lat="46.30094" lon="10.56068">
        <ele>2203.7454189641</ele>
        <time>2018-09-21T19:56:13.004Z</time>
      </trkpt>
      <trkpt lat="46.30101" lon="10.56077">
        <ele>2205.6955810442</ele>
        <time>2018-09-21T19:56:24.004Z</time>
      </trkpt>
      <trkpt lat="46.30111" lon="10.56075">
        <ele>2206.7423606349</ele>
        <time>2018-09-21T19:56:33.003Z</time>
      </trkpt>
      <trkpt lat="46.30121" lon="10.56076">
        <ele>2207.7441210069</ele>
        <time>2018-09-21T19:56:43.004Z</time>
      </trkpt>
      <trkpt lat="46.3013" lon="10.56073">
        <ele>2208.5448556387</ele>
        <time>2018-09-21T19:56:51.004Z</time>
      </trkpt>
      <trkpt lat="46.3014" lon="10.56074">
        <ele>2209.4471890763</ele>
        <time>2018-09-21T19:57:00.014Z</time>
      </trkpt>
      <trkpt lat="46.30148" lon="10.56081">
        <ele>2210.4471646399</ele>
        <time>2018-09-21T19:57:10.014Z</time>
      </trkpt>
      <trkpt lat="46.30157" lon="10.56085">
        <ele>2211.4912574098</ele>
        <time>2018-09-21T19:57:18.014Z</time>
      </trkpt>
      <trkpt lat="46.30166" lon="10.5609">
        <ele>2213.1478094024</ele>
        <time>2018-09-21T19:57:27.004Z</time>
      </trkpt>
      <trkpt lat="46.30175" lon="10.56094">
        <ele>2214.2446439256</ele>
        <time>2018-09-21T19:57:38.004Z</time>
      </trkpt>
      <trkpt lat="46.30184" lon="10.56098">
        <ele>2215.2439355826</ele>
        <time>2018-09-21T19:57:48.004Z</time>
      </trkpt>
      <trkpt lat="46.30193" lon="10.56095">
        <ele>2215.9407560657</ele>
        <time>2018-09-21T19:57:55.014Z</time>
      </trkpt>
      <trkpt lat="46.30202" lon="10.56095">
        <ele>2216.8468211191</ele>
        <time>2018-09-21T19:58:04.002Z</time>
      </trkpt>
      <trkpt lat="46.30193" lon="10.56098">
        <ele>2218.49639936</ele>
        <time>2018-09-21T19:58:13.002Z</time>
      </trkpt>
      <trkpt lat="46.30184" lon="10.56101">
        <ele>2219.6487517758</ele>
        <time>2018-09-21T19:58:22.014Z</time>
      </trkpt>
      <trkpt lat="46.30174" lon="10.56103">
        <ele>2220</ele>
        <time>2018-09-21T19:58:29.112Z</time>
      </trkpt>
      <trkpt lat="46.30164" lon="10.56104">
        <ele>2220.642434834</ele>
        <time>2018-09-21T19:58:39.002Z</time>
      </trkpt>
      <trkpt lat="46.30155" lon="10.56102">
        <ele>2221.9339477491</ele>
        <time>2018-09-21T19:58:46.002Z</time>
      </trkpt>
      <trkpt lat="46.30145" lon="10.56101">
        <ele>2223.0106019197</ele>
        <time>2018-09-21T19:58:56.002Z</time>
      </trkpt>
      <trkpt lat="46.30136" lon="10.56102">
        <ele>2223.8432438042</ele>
        <time>2018-09-21T19:59:04.012Z</time>
      </trkpt>
      <trkpt lat="46.30126" lon="10.56103">
        <ele>2224.74819968</ele>
        <time>2018-09-21T19:59:13.002Z</time>
      </trkpt>
      <trkpt lat="46.30116" lon="10.56104">
        <ele>2225.5471058185</ele>
        <time>2018-09-21T19:59:21.002Z</time>
      </trkpt>
      <trkpt lat="46.30107" lon="10.56099">
        <ele>2226.8941884446</ele>
        <time>2018-09-21T19:59:30.002Z</time>
      </trkpt>
      <trkpt lat="46.30099" lon="10.56095">
        <ele>2228.4455262374</ele>
        <time>2018-09-21T19:59:40.002Z</time>
      </trkpt>
      <trkpt lat="46.30089" lon="10.56092">
        <ele>2229.3452705644</ele>
        <time>2018-09-21T19:59:49.012Z</time>
      </trkpt>
      <trkpt lat="46.30082" lon="10.56099">
        <ele>2230.2934648988</ele>
        <time>2018-09-21T19:59:57.002Z</time>
      </trkpt>
      <trkpt lat="46.30077" lon="10.5611">
        <ele>2231.8776243185</ele>
        <time>2018-09-21T20:00:05.002Z</time>
      </trkpt>
      <trkpt lat="46.30072" lon="10.56121">
        <ele>2232</ele>
        <time>2018-09-21T20:00:13.002Z</time>
      </trkpt>
      <trkpt lat="46.30067" lon="10.56132">
        <ele>2232</ele>
        <time>2018-09-21T20:00:21.002Z</time>
      </trkpt>
      <trkpt lat="46.30062" lon="10.56144">
        <ele>2232.89639936</ele>
        <time>2018-09-21T20:00:30.002Z</time>
      </trkpt>
      <trkpt lat="46.30056" lon="10.56155">
        <ele>2234.54819968</ele>
        <time>2018-09-21T20:00:41.002Z</time>
      </trkpt>
      <trkpt lat="46.30061" lon="10.56166">
        <ele>2236.94519808</ele>
        <time>2018-09-21T20:00:52.004Z</time>
      </trkpt>
      <trkpt lat="46.30071" lon="10.56167">
        <ele>2238.5461150598</ele>
        <time>2018-09-21T20:01:01.003Z</time>
      </trkpt>
      <trkpt lat="46.3008" lon="10.56169">
        <ele>2240.2939746185</ele>
        <time>2018-09-21T20:01:12.004Z</time>
      </trkpt>
      <trkpt lat="46.30089" lon="10.56165">
        <ele>2241.64839936</ele>
        <time>2018-09-21T20:01:22.004Z</time>
      </trkpt>
      <trkpt lat="46.30096" lon="10.56155">
        <ele>2242.5445883473</ele>
        <time>2018-09-21T20:01:31.004Z</time>
      </trkpt>
      <trkpt lat="46.30104" lon="10.56148">
        <ele>2243</ele>
        <time>2018-09-21T20:01:40.004Z</time>
      </trkpt>
      <trkpt lat="46.30105" lon="10.56161">
        <ele>2245.861152</ele>
        <time>2018-09-21T20:02:02.002Z</time>
      </trkpt>
      <trkpt lat="46.301" lon="10.56173">
        <ele>2247</ele>
        <time>2018-09-21T20:02:11.003Z</time>
      </trkpt>
      <trkpt lat="46.30095" lon="10.56183">
        <ele>2248.2956952807</ele>
        <time>2018-09-21T20:02:22.002Z</time>
      </trkpt>
      <trkpt lat="46.30088" lon="10.56193">
        <ele>2249.6444325125</ele>
        <time>2018-09-21T20:02:32.003Z</time>
      </trkpt>
      <trkpt lat="46.30081" lon="10.56203">
        <ele>2251.6364166673</ele>
        <time>2018-09-21T20:02:41.002Z</time>
      </trkpt>
      <trkpt lat="46.30073" lon="10.56211">
        <ele>2253</ele>
        <time>2018-09-21T20:02:52.003Z</time>
      </trkpt>
      <trkpt lat="46.30066" lon="10.5622">
        <ele>2253.6454910753</ele>
        <time>2018-09-21T20:03:02.002Z</time>
      </trkpt>
      <trkpt lat="46.30059" lon="10.56229">
        <ele>2254.6475949354</ele>
        <time>2018-09-21T20:03:12.003Z</time>
      </trkpt>
      <trkpt lat="46.30054" lon="10.5624">
        <ele>2256.94820096</ele>
        <time>2018-09-21T20:03:22.014Z</time>
      </trkpt>
      <trkpt lat="46.30044" lon="10.56243">
        <ele>2258.6457166534</ele>
        <time>2018-09-21T20:03:32.003Z</time>
      </trkpt>
      <trkpt lat="46.30035" lon="10.56243">
        <ele>2259.7482936546</ele>
        <time>2018-09-21T20:03:43.013Z</time>
      </trkpt>
      <trkpt lat="46.30026" lon="10.56243">
        <ele>2262.24790144</ele>
        <time>2018-09-21T20:03:53.013Z</time>
      </trkpt>
      <trkpt lat="46.30016" lon="10.56244">
        <ele>2263.9435819124</ele>
        <time>2018-09-21T20:04:05.003Z</time>
      </trkpt>
      <trkpt lat="46.30007" lon="10.56244">
        <ele>2266.09659904</ele>
        <time>2018-09-21T20:04:16.003Z</time>
      </trkpt>
      <trkpt lat="46.29997" lon="10.56246">
        <ele>2268.4976060663</ele>
        <time>2018-09-21T20:04:28.013Z</time>
      </trkpt>
      <trkpt lat="46.29988" lon="10.56245">
        <ele>2270.8943885246</ele>
        <time>2018-09-21T20:04:40.003Z</time>
      </trkpt>
      <trkpt lat="46.29978" lon="10.56243">
        <ele>2272.84829952</ele>
        <time>2018-09-21T20:04:54.003Z</time>
      </trkpt>
      <trkpt lat="46.29969" lon="10.56239">
        <ele>2273.84829952</ele>
        <time>2018-09-21T20:05:04.003Z</time>
      </trkpt>
      <trkpt lat="46.2996" lon="10.56232">
        <ele>2274</ele>
        <time>2018-09-21T20:05:14.003Z</time>
      </trkpt>
      <trkpt lat="46.29953" lon="10.56225">
        <ele>2274.6322246202</ele>
        <time>2018-09-21T20:05:22.002Z</time>
      </trkpt>
      <trkpt lat="46.29946" lon="10.56214">
        <ele>2275.8479956085</ele>
        <time>2018-09-21T20:05:34.003Z</time>
      </trkpt>
      <trkpt lat="46.29938" lon="10.5622">
        <ele>2279.0409817773</ele>
        <time>2018-09-21T20:05:49.003Z</time>
      </trkpt>
      <trkpt lat="46.29942" lon="10.56232">
        <ele>2281.4810823166</ele>
        <time>2018-09-21T20:05:58.012Z</time>
      </trkpt>
      <trkpt lat="46.29947" lon="10.56243">
        <ele>2283.0126160041</ele>
        <time>2018-09-21T20:06:06.002Z</time>
      </trkpt>
      <trkpt lat="46.29953" lon="10.56254">
        <ele>2284.2457090591</ele>
        <time>2018-09-21T20:06:18.012Z</time>
      </trkpt>
      <trkpt lat="46.29959" lon="10.56264">
        <ele>2285.6900497077</ele>
        <time>2018-09-21T20:06:29.003Z</time>
      </trkpt>
      <trkpt lat="46.29967" lon="10.56271">
        <ele>2287.2482078088</ele>
        <time>2018-09-21T20:06:38.012Z</time>
      </trkpt>
      <trkpt lat="46.29973" lon="10.56283">
        <ele>2288.2462856225</ele>
        <time>2018-09-21T20:06:48.013Z</time>
      </trkpt>
      <trkpt lat="46.29979" lon="10.56294">
        <ele>2289.146831301</ele>
        <time>2018-09-21T20:06:57.003Z</time>
      </trkpt>
      <trkpt lat="46.29986" lon="10.56302">
        <ele>2290.0771723137</ele>
        <time>2018-09-21T20:07:06.002Z</time>
      </trkpt>
      <trkpt lat="46.29994" lon="10.56309">
        <ele>2291.8953529565</ele>
        <time>2018-09-21T20:07:15.002Z</time>
      </trkpt>
      <trkpt lat="46.30003" lon="10.56316">
        <ele>2293.495593109</ele>
        <time>2018-09-21T20:07:28.013Z</time>
      </trkpt>
      <trkpt lat="46.30013" lon="10.56319">
        <ele>2295</ele>
        <time>2018-09-21T20:07:40.014Z</time>
      </trkpt>
      <trkpt lat="46.30024" lon="10.56321">
        <ele>2295.49880064</ele>
        <time>2018-09-21T20:07:48.014Z</time>
      </trkpt>
      <trkpt lat="46.30031" lon="10.56329">
        <ele>2297.8943292798</ele>
        <time>2018-09-21T20:08:00.014Z</time>
      </trkpt>
      <trkpt lat="46.3004" lon="10.56336">
        <ele>2299.4469346904</ele>
        <time>2018-09-21T20:08:10.017Z</time>
      </trkpt>
      <trkpt lat="46.30048" lon="10.5634">
        <ele>2300.2869307375</ele>
        <time>2018-09-21T20:08:17.002Z</time>
      </trkpt>
      <trkpt lat="46.30058" lon="10.56348">
        <ele>2302.21820032</ele>
        <time>2018-09-21T20:08:28.032Z</time>
      </trkpt>
      <trkpt lat="46.30066" lon="10.56357">
        <ele>2303.0157187125</ele>
        <time>2018-09-21T20:08:36.002Z</time>
      </trkpt>
      <trkpt lat="46.30056" lon="10.56358">
        <ele>2306.24520192</ele>
        <time>2018-09-21T20:08:53.004Z</time>
      </trkpt>
      <trkpt lat="46.30047" lon="10.56356">
        <ele>2307.8466068481</ele>
        <time>2018-09-21T20:09:04.003Z</time>
      </trkpt>
      <trkpt lat="46.30038" lon="10.56353">
        <ele>2309.8907077971</ele>
        <time>2018-09-21T20:09:15.003Z</time>
      </trkpt>
      <trkpt lat="46.30028" lon="10.56351">
        <ele>2311.0069106574</ele>
        <time>2018-09-21T20:09:26.003Z</time>
      </trkpt>
      <trkpt lat="46.30019" lon="10.5635">
        <ele>2313.14829952</ele>
        <time>2018-09-21T20:09:37.003Z</time>
      </trkpt>
      <trkpt lat="46.30009" lon="10.56353">
        <ele>2314.8912509638</ele>
        <time>2018-09-21T20:09:50.003Z</time>
      </trkpt>
      <trkpt lat="46.30001" lon="10.56349">
        <ele>2316.5455726652</ele>
        <time>2018-09-21T20:10:01.003Z</time>
      </trkpt>
      <trkpt lat="46.29994" lon="10.56339">
        <ele>2317.6470059222</ele>
        <time>2018-09-21T20:10:12.003Z</time>
      </trkpt>
      <trkpt lat="46.29985" lon="10.56332">
        <ele>2319.695791137</ele>
        <time>2018-09-21T20:10:24.002Z</time>
      </trkpt>
      <trkpt lat="46.29975" lon="10.56329">
        <ele>2321.69659904</ele>
        <time>2018-09-21T20:10:34.003Z</time>
      </trkpt>
      <trkpt lat="46.29967" lon="10.56337">
        <ele>2322</ele>
        <time>2018-09-21T20:10:42.013Z</time>
      </trkpt>
      <trkpt lat="46.29966" lon="10.56352">
        <ele>2322</ele>
        <time>2018-09-21T20:10:50.003Z</time>
      </trkpt>
      <trkpt lat="46.29961" lon="10.56363">
        <ele>2321.9521312831</ele>
        <time>2018-09-21T20:10:56.003Z</time>
      </trkpt>
      <trkpt lat="46.29956" lon="10.56374">
        <ele>2321.1593657592</ele>
        <time>2018-09-21T20:11:04.002Z</time>
      </trkpt>
      <trkpt lat="46.29949" lon="10.56385">
        <ele>2321</ele>
        <time>2018-09-21T20:11:11.003Z</time>
      </trkpt>
      <trkpt lat="46.29942" lon="10.56395">
        <ele>2321</ele>
        <time>2018-09-21T20:11:17.012Z</time>
      </trkpt>
      <trkpt lat="46.29932" lon="10.56392">
        <ele>2321.1207579701</ele>
        <time>2018-09-21T20:11:26.003Z</time>
      </trkpt>
      <trkpt lat="46.29923" lon="10.56389">
        <ele>2323.752338559</ele>
        <time>2018-09-21T20:11:35.003Z</time>
      </trkpt>
      <trkpt lat="46.29913" lon="10.5639">
        <ele>2325.6862452331</ele>
        <time>2018-09-21T20:11:44.003Z</time>
      </trkpt>
      <trkpt lat="46.29904" lon="10.56392">
        <ele>2326</ele>
        <time>2018-09-21T20:11:52.013Z</time>
      </trkpt>
      <trkpt lat="46.29895" lon="10.56393">
        <ele>2326.54840064</ele>
        <time>2018-09-21T20:12:01.004Z</time>
      </trkpt>
      <trkpt lat="46.29885" lon="10.56396">
        <ele>2328.09659904</ele>
        <time>2018-09-21T20:12:11.003Z</time>
      </trkpt>
      <trkpt lat="46.29876" lon="10.56399">
        <ele>2329.892337319</ele>
        <time>2018-09-21T20:12:20.004Z</time>
      </trkpt>
      <trkpt lat="46.2987" lon="10.56411">
        <ele>2331.343987595</ele>
        <time>2018-09-21T20:12:29.003Z</time>
      </trkpt>
      <trkpt lat="46.29865" lon="10.56423">
        <ele>2332.2942819801</ele>
        <time>2018-09-21T20:12:37.017Z</time>
      </trkpt>
      <trkpt lat="46.29858" lon="10.56433">
        <ele>2333.8962878704</ele>
        <time>2018-09-21T20:12:45.003Z</time>
      </trkpt>
      <trkpt lat="46.29852" lon="10.56443">
        <ele>2334</ele>
        <time>2018-09-21T20:12:54.002Z</time>
      </trkpt>
      <trkpt lat="46.2985" lon="10.56456">
        <ele>2335.9377385469</ele>
        <time>2018-09-21T20:13:02.011Z</time>
      </trkpt>
      <trkpt lat="46.29849" lon="10.56469">
        <ele>2337.54819968</ele>
        <time>2018-09-21T20:13:11.002Z</time>
      </trkpt>
      <trkpt lat="46.29852" lon="10.56483">
        <ele>2338.8921386323</ele>
        <time>2018-09-21T20:13:20.003Z</time>
      </trkpt>
      <trkpt lat="46.2985" lon="10.56497">
        <ele>2340.6476386259</ele>
        <time>2018-09-21T20:13:32.014Z</time>
      </trkpt>
      <trkpt lat="46.29842" lon="10.56505">
        <ele>2341.64930048</ele>
        <time>2018-09-21T20:13:42.013Z</time>
      </trkpt>
      <trkpt lat="46.29833" lon="10.56511">
        <ele>2342.7439365446</ele>
        <time>2018-09-21T20:13:53.004Z</time>
      </trkpt>
      <trkpt lat="46.29826" lon="10.56517">
        <ele>2343.7467800382</ele>
        <time>2018-09-21T20:14:03.003Z</time>
      </trkpt>
      <trkpt lat="46.2982" lon="10.56528">
        <ele>2346.54790144</ele>
        <time>2018-09-21T20:14:14.013Z</time>
      </trkpt>
      <trkpt lat="46.29813" lon="10.56539">
        <ele>2347.74829952</ele>
        <time>2018-09-21T20:14:23.003Z</time>
      </trkpt>
      <trkpt lat="46.29811" lon="10.56552">
        <ele>2348.84819968</ele>
        <time>2018-09-21T20:14:34.002Z</time>
      </trkpt>
      <trkpt lat="46.29818" lon="10.5656">
        <ele>2351.0156154654</ele>
        <time>2018-09-21T20:14:46.001Z</time>
      </trkpt>
      <trkpt lat="46.29826" lon="10.56564">
        <ele>2352.0957292248</ele>
        <time>2018-09-21T20:14:56.002Z</time>
      </trkpt>
      <trkpt lat="46.29835" lon="10.56569">
        <ele>2354.1421732966</ele>
        <time>2018-09-21T20:15:07.016Z</time>
      </trkpt>
      <trkpt lat="46.29843" lon="10.56577">
        <ele>2355.4469046473</ele>
        <time>2018-09-21T20:15:18.002Z</time>
      </trkpt>
      <trkpt lat="46.29851" lon="10.56581">
        <ele>2356.9478418324</ele>
        <time>2018-09-21T20:15:26.002Z</time>
      </trkpt>
      <trkpt lat="46.2986" lon="10.56588">
        <ele>2357.9439390476</ele>
        <time>2018-09-21T20:15:35.002Z</time>
      </trkpt>
      <trkpt lat="46.29869" lon="10.56592">
        <ele>2358</ele>
        <time>2018-09-21T20:15:44.002Z</time>
      </trkpt>
      <trkpt lat="46.29878" lon="10.56596">
        <ele>2359.4908379283</ele>
        <time>2018-09-21T20:15:53.004Z</time>
      </trkpt>
      <trkpt lat="46.29887" lon="10.566">
        <ele>2362.4942227888</ele>
        <time>2018-09-21T20:16:08.001Z</time>
      </trkpt>
      <trkpt lat="46.29896" lon="10.56606">
        <ele>2364.3454817671</ele>
        <time>2018-09-21T20:16:19.001Z</time>
      </trkpt>
      <trkpt lat="46.29904" lon="10.56613">
        <ele>2365.4949144583</ele>
        <time>2018-09-21T20:16:28.002Z</time>
      </trkpt>
      <trkpt lat="46.29912" lon="10.56621">
        <ele>2367.8893100146</ele>
        <time>2018-09-21T20:16:40.001Z</time>
      </trkpt>
      <trkpt lat="46.2992" lon="10.56627">
        <ele>2369.243856062</ele>
        <time>2018-09-21T20:16:48.001Z</time>
      </trkpt>
      <trkpt lat="46.29929" lon="10.56633">
        <ele>2370</ele>
        <time>2018-09-21T20:16:56.002Z</time>
      </trkpt>
      <trkpt lat="46.29937" lon="10.56639">
        <ele>2370</ele>
        <time>2018-09-21T20:17:05.002Z</time>
      </trkpt>
      <trkpt lat="46.29947" lon="10.56641">
        <ele>2370.94840064</ele>
        <time>2018-09-21T20:17:15.004Z</time>
      </trkpt>
      <trkpt lat="46.29954" lon="10.5665">
        <ele>2373.7423716874</ele>
        <time>2018-09-21T20:17:28.002Z</time>
      </trkpt>
      <trkpt lat="46.29955" lon="10.56663">
        <ele>2376</ele>
        <time>2018-09-21T20:17:39.003Z</time>
      </trkpt>
      <trkpt lat="46.29954" lon="10.56677">
        <ele>2376.6691635486</ele>
        <time>2018-09-21T20:17:49.003Z</time>
      </trkpt>
      <trkpt lat="46.29953" lon="10.56691">
        <ele>2378.3164245712</ele>
        <time>2018-09-21T20:17:58.974Z</time>
      </trkpt>
      <trkpt lat="46.29948" lon="10.56702">
        <ele>2379.3445773834</ele>
        <time>2018-09-21T20:18:09.013Z</time>
      </trkpt>
      <trkpt lat="46.2994" lon="10.56709">
        <ele>2380.3410593698</ele>
        <time>2018-09-21T20:18:19.014Z</time>
      </trkpt>
      <trkpt lat="46.29934" lon="10.5672">
        <ele>2381.8888001974</ele>
        <time>2018-09-21T20:18:30.014Z</time>
      </trkpt>
      <trkpt lat="46.29929" lon="10.56732">
        <ele>2383.4485035998</ele>
        <time>2018-09-21T20:18:40.014Z</time>
      </trkpt>
      <trkpt lat="46.29925" lon="10.56743">
        <ele>2384.44740096</ele>
        <time>2018-09-21T20:18:50.014Z</time>
      </trkpt>
      <trkpt lat="46.29924" lon="10.56757">
        <ele>2385.3480969311</ele>
        <time>2018-09-21T20:18:59.014Z</time>
      </trkpt>
      <trkpt lat="46.29922" lon="10.5677">
        <ele>2386.14940032</ele>
        <time>2018-09-21T20:19:07.014Z</time>
      </trkpt>
      <trkpt lat="46.29921" lon="10.56783">
        <ele>2387.1480562638</ele>
        <time>2018-09-21T20:19:17.005Z</time>
      </trkpt>
      <trkpt lat="46.29925" lon="10.56796">
        <ele>2388.4366085253</ele>
        <time>2018-09-21T20:19:27.001Z</time>
      </trkpt>
      <trkpt lat="46.29932" lon="10.56805">
        <ele>2391.1478043259</ele>
        <time>2018-09-21T20:19:37.001Z</time>
      </trkpt>
      <trkpt lat="46.2994" lon="10.56813">
        <ele>2392.3455090807</ele>
        <time>2018-09-21T20:19:49.002Z</time>
      </trkpt>
      <trkpt lat="46.29948" lon="10.56818">
        <ele>2393.6911640161</ele>
        <time>2018-09-21T20:19:59.002Z</time>
      </trkpt>
      <trkpt lat="46.29957" lon="10.5682">
        <ele>2395.8967092653</ele>
        <time>2018-09-21T20:20:10.017Z</time>
      </trkpt>
      <trkpt lat="46.29967" lon="10.56823">
        <ele>2397.5468400551</ele>
        <time>2018-09-21T20:20:21.002Z</time>
      </trkpt>
      <trkpt lat="46.29976" lon="10.56826">
        <ele>2398.5424336958</ele>
        <time>2018-09-21T20:20:31.004Z</time>
      </trkpt>
      <trkpt lat="46.29985" lon="10.56827">
        <ele>2399.4429720341</ele>
        <time>2018-09-21T20:20:40.011Z</time>
      </trkpt>
      <trkpt lat="46.29994" lon="10.56824">
        <ele>2400.7446774908</ele>
        <time>2018-09-21T20:20:53.004Z</time>
      </trkpt>
      <trkpt lat="46.30002" lon="10.5682">
        <ele>2402.8776255253</ele>
        <time>2018-09-21T20:21:02.004Z</time>
      </trkpt>
      <trkpt lat="46.30011" lon="10.56817">
        <ele>2404.8430193694</ele>
        <time>2018-09-21T20:21:14.002Z</time>
      </trkpt>
      <trkpt lat="46.30021" lon="10.56815">
        <ele>2406.89819904</ele>
        <time>2018-09-21T20:21:25.011Z</time>
      </trkpt>
      <trkpt lat="46.3003" lon="10.56819">
        <ele>2407</ele>
        <time>2018-09-21T20:21:35.012Z</time>
      </trkpt>
      <trkpt lat="46.30038" lon="10.56823">
        <ele>2407.9750459739</ele>
        <time>2018-09-21T20:21:46.002Z</time>
      </trkpt>
      <trkpt lat="46.30048" lon="10.56823">
        <ele>2410.0921452874</ele>
        <time>2018-09-21T20:21:56.001Z</time>
      </trkpt>
      <trkpt lat="46.30057" lon="10.56827">
        <ele>2412.0085770711</ele>
        <time>2018-09-21T20:22:06.001Z</time>
      </trkpt>
      <trkpt lat="46.30067" lon="10.56831">
        <ele>2413.6828438494</ele>
        <time>2018-09-21T20:22:14.004Z</time>
      </trkpt>
      <trkpt lat="46.30077" lon="10.5683">
        <ele>2413.45159936</ele>
        <time>2018-09-21T20:22:21.004Z</time>
      </trkpt>
      <trkpt lat="46.30087" lon="10.56829">
        <ele>2413</ele>
        <time>2018-09-21T20:22:29.004Z</time>
      </trkpt>
      <trkpt lat="46.30096" lon="10.56828">
        <ele>2413</ele>
        <time>2018-09-21T20:22:35.014Z</time>
      </trkpt>
      <trkpt lat="46.30105" lon="10.56828">
        <ele>2413.64850048</ele>
        <time>2018-09-21T20:22:42.005Z</time>
      </trkpt>
      <trkpt lat="46.30115" lon="10.5683">
        <ele>2414</ele>
        <time>2018-09-21T20:22:50.016Z</time>
      </trkpt>
      <trkpt lat="46.30123" lon="10.56836">
        <ele>2414</ele>
        <time>2018-09-21T20:22:58.001Z</time>
      </trkpt>
      <trkpt lat="46.30133" lon="10.5684">
        <ele>2414</ele>
        <time>2018-09-21T20:23:05.016Z</time>
      </trkpt>
      <trkpt lat="46.30142" lon="10.56843">
        <ele>2414.84809984</ele>
        <time>2018-09-21T20:23:14.001Z</time>
      </trkpt>
      <trkpt lat="46.30152" lon="10.5684">
        <ele>2415</ele>
        <time>2018-09-21T20:23:21.001Z</time>
      </trkpt>
      <trkpt lat="46.30162" lon="10.56838">
        <ele>2415.2847942912</ele>
        <time>2018-09-21T20:23:27.004Z</time>
      </trkpt>
      <trkpt lat="46.30171" lon="10.56838">
        <ele>2416.6946612511</ele>
        <time>2018-09-21T20:23:34.004Z</time>
      </trkpt>
      <trkpt lat="46.3018" lon="10.56837">
        <ele>2417.64839936</ele>
        <time>2018-09-21T20:23:42.004Z</time>
      </trkpt>
      <trkpt lat="46.30189" lon="10.56835">
        <ele>2418.8934394316</ele>
        <time>2018-09-21T20:23:50.014Z</time>
      </trkpt>
      <trkpt lat="46.30198" lon="10.5683">
        <ele>2420</ele>
        <time>2018-09-21T20:23:58.004Z</time>
      </trkpt>
      <trkpt lat="46.30207" lon="10.56827">
        <ele>2420.0465826228</ele>
        <time>2018-09-21T20:24:06.004Z</time>
      </trkpt>
      <trkpt lat="46.30216" lon="10.56825">
        <ele>2420.6240607895</ele>
        <time>2018-09-21T20:24:12.004Z</time>
      </trkpt>
      <trkpt lat="46.30225" lon="10.56823">
        <ele>2422.0601467006</ele>
        <time>2018-09-21T20:24:21.004Z</time>
      </trkpt>
      <trkpt lat="46.30235" lon="10.56824">
        <ele>2423</ele>
        <time>2018-09-21T20:24:34.004Z</time>
      </trkpt>
      <trkpt lat="46.30244" lon="10.56819">
        <ele>2423.5464602843</ele>
        <time>2018-09-21T20:24:41.001Z</time>
      </trkpt>
      <trkpt lat="46.30253" lon="10.56815">
        <ele>2424.3318264615</ele>
        <time>2018-09-21T20:24:49.001Z</time>
      </trkpt>
      <trkpt lat="46.30262" lon="10.56815">
        <ele>2425.0053286538</ele>
        <time>2018-09-21T20:24:56.001Z</time>
      </trkpt>
      <trkpt lat="46.30272" lon="10.56814">
        <ele>2425.841587575</ele>
        <time>2018-09-21T20:25:04.004Z</time>
      </trkpt>
      <trkpt lat="46.30279" lon="10.56806">
        <ele>2426.6426160214</ele>
        <time>2018-09-21T20:25:12.004Z</time>
      </trkpt>
      <trkpt lat="46.30286" lon="10.56796">
        <ele>2427.4444000987</ele>
        <time>2018-09-21T20:25:20.014Z</time>
      </trkpt>
      <trkpt lat="46.30293" lon="10.56787">
        <ele>2428</ele>
        <time>2018-09-21T20:25:28.001Z</time>
      </trkpt>
      <trkpt lat="46.30298" lon="10.56775">
        <ele>2428</ele>
        <time>2018-09-21T20:25:36.001Z</time>
      </trkpt>
      <trkpt lat="46.30298" lon="10.56761">
        <ele>2428.9463075106</ele>
        <time>2018-09-21T20:25:45.011Z</time>
      </trkpt>
      <trkpt lat="46.30302" lon="10.56747">
        <ele>2431.0077254228</ele>
        <time>2018-09-21T20:25:56.014Z</time>
      </trkpt>
      <trkpt lat="46.30308" lon="10.56738">
        <ele>2432.2971079411</ele>
        <time>2018-09-21T20:26:07.010Z</time>
      </trkpt>
      <trkpt lat="46.30314" lon="10.56727">
        <ele>2434.44509952</ele>
        <time>2018-09-21T20:26:20.001Z</time>
      </trkpt>
      <trkpt lat="46.30318" lon="10.56715">
        <ele>2435.4449542282</ele>
        <time>2018-09-21T20:26:30.004Z</time>
      </trkpt>
      <trkpt lat="46.30321" lon="10.56702">
        <ele>2437.4947804016</ele>
        <time>2018-09-21T20:26:43.004Z</time>
      </trkpt>
      <trkpt lat="46.3033" lon="10.56696">
        <ele>2439.4938146068</ele>
        <time>2018-09-21T20:26:53.004Z</time>
      </trkpt>
      <trkpt lat="46.30339" lon="10.56692">
        <ele>2440.8480956485</ele>
        <time>2018-09-21T20:27:04.004Z</time>
      </trkpt>
      <trkpt lat="46.30347" lon="10.56683">
        <ele>2444</ele>
        <time>2018-09-21T20:27:17.014Z</time>
      </trkpt>
      <trkpt lat="46.30356" lon="10.56685">
        <ele>2444.0115266421</ele>
        <time>2018-09-21T20:27:26.001Z</time>
      </trkpt>
      <trkpt lat="46.30362" lon="10.56695">
        <ele>2445.14909952</ele>
        <time>2018-09-21T20:27:37.011Z</time>
      </trkpt>
      <trkpt lat="46.30366" lon="10.56709">
        <ele>2446.44809984</ele>
        <time>2018-09-21T20:27:50.001Z</time>
      </trkpt>
      <trkpt lat="46.30372" lon="10.5672">
        <ele>2447.2356124553</ele>
        <time>2018-09-21T20:27:58.001Z</time>
      </trkpt>
      <trkpt lat="46.30378" lon="10.56731">
        <ele>2447.9952519644</ele>
        <time>2018-09-21T20:28:06.000Z</time>
      </trkpt>
      <trkpt lat="46.30384" lon="10.56741">
        <ele>2448.7338966052</ele>
        <time>2018-09-21T20:28:13.000Z</time>
      </trkpt>
      <trkpt lat="46.3039" lon="10.56753">
        <ele>2449.6475572809</ele>
        <time>2018-09-21T20:28:22.015Z</time>
      </trkpt>
      <trkpt lat="46.30391" lon="10.56767">
        <ele>2450</ele>
        <time>2018-09-21T20:28:33.000Z</time>
      </trkpt>
      <trkpt lat="46.30393" lon="10.56782">
        <ele>2450.6479922892</ele>
        <time>2018-09-21T20:28:42.014Z</time>
      </trkpt>
      <trkpt lat="46.3039" lon="10.56795">
        <ele>2452.3441680258</ele>
        <time>2018-09-21T20:28:50.014Z</time>
      </trkpt>
      <trkpt lat="46.30384" lon="10.56805">
        <ele>2454</ele>
        <time>2018-09-21T20:28:58.004Z</time>
      </trkpt>
      <trkpt lat="46.30379" lon="10.56817">
        <ele>2454.2470119522</ele>
        <time>2018-09-21T20:29:08.000Z</time>
      </trkpt>
      <trkpt lat="46.30374" lon="10.56829">
        <ele>2455.0438683808</ele>
        <time>2018-09-21T20:29:16.000Z</time>
      </trkpt>
      <trkpt lat="46.30369" lon="10.56841">
        <ele>2455.9430700082</ele>
        <time>2018-09-21T20:29:25.019Z</time>
      </trkpt>
      <trkpt lat="46.30363" lon="10.56851">
        <ele>2456.746324027</ele>
        <time>2018-09-21T20:29:33.001Z</time>
      </trkpt>
      <trkpt lat="46.30354" lon="10.56858">
        <ele>2457.9437372922</ele>
        <time>2018-09-21T20:29:45.014Z</time>
      </trkpt>
      <trkpt lat="46.30345" lon="10.56859">
        <ele>2459.6949683348</ele>
        <time>2018-09-21T20:29:54.004Z</time>
      </trkpt>
      <trkpt lat="46.30335" lon="10.56858">
        <ele>2460</ele>
        <time>2018-09-21T20:30:02.001Z</time>
      </trkpt>
      <trkpt lat="46.30326" lon="10.56859">
        <ele>2460</ele>
        <time>2018-09-21T20:30:10.014Z</time>
      </trkpt>
      <trkpt lat="46.30317" lon="10.56862">
        <ele>2460</ele>
        <time>2018-09-21T20:30:17.014Z</time>
      </trkpt>
      <trkpt lat="46.30308" lon="10.56864">
        <ele>2460</ele>
        <time>2018-09-21T20:30:24.004Z</time>
      </trkpt>
      <trkpt lat="46.30298" lon="10.56865">
        <ele>2460.8212968275</ele>
        <time>2018-09-21T20:30:34.004Z</time>
      </trkpt>
      <trkpt lat="46.30295" lon="10.56878">
        <ele>2461.8429161223</ele>
        <time>2018-09-21T20:30:44.001Z</time>
      </trkpt>
      <trkpt lat="46.30297" lon="10.5689">
        <ele>2466.544</ele>
        <time>2018-09-21T20:31:04.000Z</time>
      </trkpt>
      <trkpt lat="46.30291" lon="10.56902">
        <ele>2470.54850048</ele>
        <time>2018-09-21T20:31:24.015Z</time>
      </trkpt>
      <trkpt lat="46.30294" lon="10.56915">
        <ele>2472.2848611952</ele>
        <time>2018-09-21T20:31:37.000Z</time>
      </trkpt>
      <trkpt lat="46.30298" lon="10.56928">
        <ele>2474.2411707798</ele>
        <time>2018-09-21T20:31:48.000Z</time>
      </trkpt>
      <trkpt lat="46.30299" lon="10.56941">
        <ele>2475</ele>
        <time>2018-09-21T20:31:57.004Z</time>
      </trkpt>
      <trkpt lat="46.303" lon="10.56954">
        <ele>2475.09679872</ele>
        <time>2018-09-21T20:32:06.004Z</time>
      </trkpt>
      <trkpt lat="46.30307" lon="10.56945">
        <ele>2477</ele>
        <time>2018-09-21T20:32:18.014Z</time>
      </trkpt>
      <trkpt lat="46.30318" lon="10.56935">
        <ele>2477</ele>
        <time>2018-09-21T20:32:21.014Z</time>
      </trkpt>
      <trkpt lat="46.30331" lon="10.56918">
        <ele>2477</ele>
        <time>2018-09-21T20:32:23.014Z</time>
      </trkpt>
      <trkpt lat="46.30341" lon="10.56903">
        <ele>2477</ele>
        <time>2018-09-21T20:32:25.014Z</time>
      </trkpt>
      <trkpt lat="46.30347" lon="10.56888">
        <ele>2477</ele>
        <time>2018-09-21T20:32:27.014Z</time>
      </trkpt>
      <trkpt lat="46.30378" lon="10.56879">
        <ele>2477</ele>
        <time>2018-09-21T20:33:30.014Z</time>
      </trkpt>
      <trkpt lat="46.30358" lon="10.569">
        <ele>2477</ele>
        <time>2018-09-21T20:33:31.014Z</time>
      </trkpt>
      <trkpt lat="46.30349" lon="10.56907">
        <ele>2477</ele>
        <time>2018-09-21T20:33:32.014Z</time>
      </trkpt>
      <trkpt lat="46.3034" lon="10.56916">
        <ele>2477</ele>
        <time>2018-09-21T20:33:34.014Z</time>
      </trkpt>
      <trkpt lat="46.30332" lon="10.56926">
        <ele>2476.8553723463</ele>
        <time>2018-09-21T20:33:37.014Z</time>
      </trkpt>
      <trkpt lat="46.30323" lon="10.56932">
        <ele>2476.564955993</ele>
        <time>2018-09-21T20:33:40.014Z</time>
      </trkpt>
      <trkpt lat="46.30315" lon="10.56937">
        <ele>2476.1777341886</ele>
        <time>2018-09-21T20:33:44.014Z</time>
      </trkpt>
      <trkpt lat="46.30325" lon="10.56918">
        <ele>2476</ele>
        <time>2018-09-21T20:33:56.014Z</time>
      </trkpt>
      <trkpt lat="46.30317" lon="10.5694">
        <ele>2479</ele>
        <time>2018-09-21T20:42:28.012Z</time>
      </trkpt>
      <trkpt lat="46.3031" lon="10.5695">
        <ele>2479</ele>
        <time>2018-09-21T20:42:30.014Z</time>
      </trkpt>
      <trkpt lat="46.30297" lon="10.56966">
        <ele>2479</ele>
        <time>2018-09-21T20:42:32.014Z</time>
      </trkpt>
      <trkpt lat="46.30288" lon="10.5696">
        <ele>2479</ele>
        <time>2018-09-21T20:42:36.014Z</time>
      </trkpt>
      <trkpt lat="46.30295" lon="10.56952">
        <ele>2479</ele>
        <time>2018-09-21T20:42:45.113Z</time>
      </trkpt>
      <trkpt lat="46.30287" lon="10.5696">
        <ele>2476.9073695617</ele>
        <time>2018-09-21T20:44:01.005Z</time>
      </trkpt>
      <trkpt lat="46.30281" lon="10.5697">
        <ele>2474.36649856</ele>
        <time>2018-09-21T20:44:11.005Z</time>
      </trkpt>
      <trkpt lat="46.30277" lon="10.56983">
        <ele>2469.8784283871</ele>
        <time>2018-09-21T20:44:26.002Z</time>
      </trkpt>
      <trkpt lat="46.30269" lon="10.56989">
        <ele>2465.9565847228</ele>
        <time>2018-09-21T20:44:39.005Z</time>
      </trkpt>
      <trkpt lat="46.3026" lon="10.56995">
        <ele>2463.7074137347</ele>
        <time>2018-09-21T20:44:47.000Z</time>
      </trkpt>
      <trkpt lat="46.30249" lon="10.56999">
        <ele>2462.3046090231</ele>
        <time>2018-09-21T20:44:54.000Z</time>
      </trkpt>
      <trkpt lat="46.3024" lon="10.57004">
        <ele>2462</ele>
        <time>2018-09-21T20:45:04.002Z</time>
      </trkpt>
      <trkpt lat="46.30231" lon="10.57011">
        <ele>2462</ele>
        <time>2018-09-21T20:45:14.005Z</time>
      </trkpt>
      <trkpt lat="46.30223" lon="10.57018">
        <ele>2463.090457517</ele>
        <time>2018-09-21T20:45:21.005Z</time>
      </trkpt>
      <trkpt lat="46.30215" lon="10.57025">
        <ele>2464.4458755386</ele>
        <time>2018-09-21T20:45:30.012Z</time>
      </trkpt>
      <trkpt lat="46.30207" lon="10.57031">
        <ele>2465.24819968</ele>
        <time>2018-09-21T20:45:48.002Z</time>
      </trkpt>
      <trkpt lat="46.30199" lon="10.5704">
        <ele>2467</ele>
        <time>2018-09-21T20:46:08.002Z</time>
      </trkpt>
      <trkpt lat="46.30191" lon="10.57048">
        <ele>2467</ele>
        <time>2018-09-21T20:46:18.002Z</time>
      </trkpt>
      <trkpt lat="46.30185" lon="10.57059">
        <ele>2467.2306927922</ele>
        <time>2018-09-21T20:46:27.030Z</time>
      </trkpt>
      <trkpt lat="46.30183" lon="10.57072">
        <ele>2469</ele>
        <time>2018-09-21T20:46:36.003Z</time>
      </trkpt>
      <trkpt lat="46.30183" lon="10.57086">
        <ele>2469</ele>
        <time>2018-09-21T20:46:45.014Z</time>
      </trkpt>
      <trkpt lat="46.30184" lon="10.57101">
        <ele>2469.8449198406</ele>
        <time>2018-09-21T20:46:54.003Z</time>
      </trkpt>
      <trkpt lat="46.30182" lon="10.57115">
        <ele>2470</ele>
        <time>2018-09-21T20:47:03.000Z</time>
      </trkpt>
      <trkpt lat="46.30181" lon="10.57129">
        <ele>2471.2927204649</ele>
        <time>2018-09-21T20:47:12.003Z</time>
      </trkpt>
      <trkpt lat="46.30178" lon="10.57141">
        <ele>2472.4463531497</ele>
        <time>2018-09-21T20:47:20.018Z</time>
      </trkpt>
      <trkpt lat="46.30176" lon="10.57155">
        <ele>2473.14450048</ele>
        <time>2018-09-21T20:47:27.005Z</time>
      </trkpt>
      <trkpt lat="46.30169" lon="10.57165">
        <ele>2474</ele>
        <time>2018-09-21T20:47:36.005Z</time>
      </trkpt>
      <trkpt lat="46.3016" lon="10.57169">
        <ele>2474</ele>
        <time>2018-09-21T20:47:44.004Z</time>
      </trkpt>
      <trkpt lat="46.30151" lon="10.57175">
        <ele>2474.9452188048</ele>
        <time>2018-09-21T20:47:55.010Z</time>
      </trkpt>
      <trkpt lat="46.30142" lon="10.57179">
        <ele>2475.7402185533</ele>
        <time>2018-09-21T20:48:03.014Z</time>
      </trkpt>
      <trkpt lat="46.30134" lon="10.57187">
        <ele>2476</ele>
        <time>2018-09-21T20:48:09.000Z</time>
      </trkpt>
      <trkpt lat="46.30126" lon="10.57189">
        <ele>2476.2489026739</ele>
        <time>2018-09-21T20:48:18.014Z</time>
      </trkpt>
      <trkpt lat="46.30118" lon="10.57197">
        <ele>2477.2422734222</ele>
        <time>2018-09-21T20:48:27.970Z</time>
      </trkpt>
      <trkpt lat="46.30108" lon="10.57202">
        <ele>2478</ele>
        <time>2018-09-21T20:48:39.014Z</time>
      </trkpt>
      <trkpt lat="46.301" lon="10.57209">
        <ele>2478.2741935484</ele>
        <time>2018-09-21T20:48:47.000Z</time>
      </trkpt>
      <trkpt lat="46.30091" lon="10.57215">
        <ele>2480.0455826506</ele>
        <time>2018-09-21T20:48:56.014Z</time>
      </trkpt>
      <trkpt lat="46.30082" lon="10.57216">
        <ele>2480.6469873092</ele>
        <time>2018-09-21T20:49:02.004Z</time>
      </trkpt>
      <trkpt lat="46.30073" lon="10.57219">
        <ele>2481.6455267464</ele>
        <time>2018-09-21T20:49:12.014Z</time>
      </trkpt>
      <trkpt lat="46.30064" lon="10.57225">
        <ele>2482.44349952</ele>
        <time>2018-09-21T20:49:20.015Z</time>
      </trkpt>
      <trkpt lat="46.30058" lon="10.57235">
        <ele>2483.7231523401</ele>
        <time>2018-09-21T20:49:33.014Z</time>
      </trkpt>
      <trkpt lat="46.3005" lon="10.5724">
        <ele>2484.6357447934</ele>
        <time>2018-09-21T20:49:42.014Z</time>
      </trkpt>
      <trkpt lat="46.3004" lon="10.57244">
        <ele>2485.4483973076</ele>
        <time>2018-09-21T20:49:50.015Z</time>
      </trkpt>
      <trkpt lat="46.3003" lon="10.57246">
        <ele>2486.348</ele>
        <time>2018-09-21T20:49:59.000Z</time>
      </trkpt>
      <trkpt lat="46.30022" lon="10.57255">
        <ele>2488.296</ele>
        <time>2018-09-21T20:50:12.000Z</time>
      </trkpt>
      <trkpt lat="46.30013" lon="10.57259">
        <ele>2489.54940032</ele>
        <time>2018-09-21T20:50:21.014Z</time>
      </trkpt>
      <trkpt lat="46.30005" lon="10.57266">
        <ele>2490.44850048</ele>
        <time>2018-09-21T20:50:30.005Z</time>
      </trkpt>
      <trkpt lat="46.29995" lon="10.57269">
        <ele>2491.2470119522</ele>
        <time>2018-09-21T20:50:38.000Z</time>
      </trkpt>
      <trkpt lat="46.29987" lon="10.57272">
        <ele>2492.4471890763</ele>
        <time>2018-09-21T20:50:50.014Z</time>
      </trkpt>
      <trkpt lat="46.29977" lon="10.57274">
        <ele>2493.1425818003</ele>
        <time>2018-09-21T20:50:57.000Z</time>
      </trkpt>
      <trkpt lat="46.29969" lon="10.57267">
        <ele>2494.0236999742</ele>
        <time>2018-09-21T20:51:06.014Z</time>
      </trkpt>
      <trkpt lat="46.2996" lon="10.57263">
        <ele>2496.14790016</ele>
        <time>2018-09-21T20:51:16.999Z</time>
      </trkpt>
      <trkpt lat="46.29951" lon="10.57257">
        <ele>2497.4968133864</ele>
        <time>2018-09-21T20:51:28.014Z</time>
      </trkpt>
      <trkpt lat="46.29941" lon="10.57259">
        <ele>2499.2432701118</ele>
        <time>2018-09-21T20:51:38.000Z</time>
      </trkpt>
      <trkpt lat="46.29932" lon="10.57257">
        <ele>2500</ele>
        <time>2018-09-21T20:51:47.014Z</time>
      </trkpt>
      <trkpt lat="46.29923" lon="10.57253">
        <ele>2500</ele>
        <time>2018-09-21T20:51:56.004Z</time>
      </trkpt>
      <trkpt lat="46.29914" lon="10.57253">
        <ele>2501.0019150981</ele>
        <time>2018-09-21T20:52:06.000Z</time>
      </trkpt>
      <trkpt lat="46.29905" lon="10.57249">
        <ele>2501.9597706786</ele>
        <time>2018-09-21T20:52:16.000Z</time>
      </trkpt>
      <trkpt lat="46.29895" lon="10.57249">
        <ele>2504.2978090837</ele>
        <time>2018-09-21T20:52:27.015Z</time>
      </trkpt>
      <trkpt lat="46.29886" lon="10.57248">
        <ele>2506.5261118601</ele>
        <time>2018-09-21T20:52:41.000Z</time>
      </trkpt>
      <trkpt lat="46.29877" lon="10.57251">
        <ele>2507</ele>
        <time>2018-09-21T20:52:49.000Z</time>
      </trkpt>
      <trkpt lat="46.29866" lon="10.57252">
        <ele>2507.8321881587</ele>
        <time>2018-09-21T20:53:04.000Z</time>
      </trkpt>
      <trkpt lat="46.29857" lon="10.57255">
        <ele>2509.0728731984</ele>
        <time>2018-09-21T20:53:11.010Z</time>
      </trkpt>
      <trkpt lat="46.29848" lon="10.57262">
        <ele>2510.5458202766</ele>
        <time>2018-09-21T20:53:21.010Z</time>
      </trkpt>
      <trkpt lat="46.29838" lon="10.57264">
        <ele>2511.5473109163</ele>
        <time>2018-09-21T20:53:31.015Z</time>
      </trkpt>
      <trkpt lat="46.29829" lon="10.5727">
        <ele>2513.0855988997</ele>
        <time>2018-09-21T20:53:56.015Z</time>
      </trkpt>
      <trkpt lat="46.2982" lon="10.57274">
        <ele>2514.6938569003</ele>
        <time>2018-09-21T20:54:04.000Z</time>
      </trkpt>
      <trkpt lat="46.29811" lon="10.5728">
        <ele>2515.748</ele>
        <time>2018-09-21T20:54:13.000Z</time>
      </trkpt>
      <trkpt lat="46.29801" lon="10.57284">
        <ele>2517.4915249479</ele>
        <time>2018-09-21T20:54:23.000Z</time>
      </trkpt>
      <trkpt lat="46.29792" lon="10.57288">
        <ele>2518.9596793451</ele>
        <time>2018-09-21T20:54:35.118Z</time>
      </trkpt>
      <trkpt lat="46.29783" lon="10.57294">
        <ele>2519.9943067966</ele>
        <time>2018-09-21T20:54:46.000Z</time>
      </trkpt>
      <trkpt lat="46.29775" lon="10.57301">
        <ele>2520.9450316753</ele>
        <time>2018-09-21T20:54:55.000Z</time>
      </trkpt>
      <trkpt lat="46.29765" lon="10.573">
        <ele>2521</ele>
        <time>2018-09-21T20:55:05.000Z</time>
      </trkpt>
      <trkpt lat="46.29756" lon="10.57294">
        <ele>2522.4790023977</ele>
        <time>2018-09-21T20:55:13.014Z</time>
      </trkpt>
      <trkpt lat="46.29747" lon="10.57291">
        <ele>2523.84809984</ele>
        <time>2018-09-21T20:55:24.001Z</time>
      </trkpt>
      <trkpt lat="46.29738" lon="10.57285">
        <ele>2524.8446215139</ele>
        <time>2018-09-21T20:55:34.000Z</time>
      </trkpt>
      <trkpt lat="46.29729" lon="10.57287">
        <ele>2526.2959845783</ele>
        <time>2018-09-21T20:55:42.014Z</time>
      </trkpt>
      <trkpt lat="46.2972" lon="10.57287">
        <ele>2528.6922313944</ele>
        <time>2018-09-21T20:55:54.015Z</time>
      </trkpt>
      <trkpt lat="46.29711" lon="10.57288">
        <ele>2530.03838446</ele>
        <time>2018-09-21T20:56:06.000Z</time>
      </trkpt>
      <trkpt lat="46.29702" lon="10.57291">
        <ele>2532.9324043372</ele>
        <time>2018-09-21T20:56:22.000Z</time>
      </trkpt>
      <trkpt lat="46.29693" lon="10.57296">
        <ele>2534</ele>
        <time>2018-09-21T20:56:31.014Z</time>
      </trkpt>
      <trkpt lat="46.29683" lon="10.57297">
        <ele>2534.94940032</ele>
        <time>2018-09-21T20:56:45.014Z</time>
      </trkpt>
      <trkpt lat="46.29675" lon="10.5729">
        <ele>2538.3376501205</ele>
        <time>2018-09-21T20:57:00.001Z</time>
      </trkpt>
      <trkpt lat="46.29666" lon="10.57284">
        <ele>2542.74940032</ele>
        <time>2018-09-21T20:57:23.014Z</time>
      </trkpt>
      <trkpt lat="46.29658" lon="10.57278">
        <ele>2547.2884880758</ele>
        <time>2018-09-21T20:57:47.001Z</time>
      </trkpt>
      <trkpt lat="46.29649" lon="10.57275">
        <ele>2549</ele>
        <time>2018-09-21T20:58:05.003Z</time>
      </trkpt>
      <trkpt lat="46.2964" lon="10.57274">
        <ele>2551.25929984</ele>
        <time>2018-09-21T20:58:18.113Z</time>
      </trkpt>
      <trkpt lat="46.2963" lon="10.57271">
        <ele>2552.348</ele>
        <time>2018-09-21T20:58:29.000Z</time>
      </trkpt>
      <trkpt lat="46.29621" lon="10.57269">
        <ele>2552.2548806374</ele>
        <time>2018-09-21T20:58:43.001Z</time>
      </trkpt>
      <trkpt lat="46.29612" lon="10.57271">
        <ele>2551.1526104418</ele>
        <time>2018-09-21T20:58:54.000Z</time>
      </trkpt>
      <trkpt lat="46.29604" lon="10.57264">
        <ele>2552.7973451231</ele>
        <time>2018-09-21T20:59:05.001Z</time>
      </trkpt>
      <trkpt lat="46.29595" lon="10.5726">
        <ele>2553.8406352053</ele>
        <time>2018-09-21T20:59:14.014Z</time>
      </trkpt>
      <trkpt lat="46.29586" lon="10.57255">
        <ele>2555.8992</ele>
        <time>2018-09-21T20:59:25.016Z</time>
      </trkpt>
      <trkpt lat="46.29578" lon="10.57247">
        <ele>2557.836365392</ele>
        <time>2018-09-21T20:59:35.014Z</time>
      </trkpt>
      <trkpt lat="46.29569" lon="10.57248">
        <ele>2560.3476621207</ele>
        <time>2018-09-21T20:59:49.014Z</time>
      </trkpt>
      <trkpt lat="46.29559" lon="10.57244">
        <ele>2562.4876875315</ele>
        <time>2018-09-21T21:00:03.001Z</time>
      </trkpt>
      <trkpt lat="46.2955" lon="10.57244">
        <ele>2563.0949918429</ele>
        <time>2018-09-21T21:00:16.014Z</time>
      </trkpt>
      <trkpt lat="46.29542" lon="10.57239">
        <ele>2565.6932546032</ele>
        <time>2018-09-21T21:00:29.014Z</time>
      </trkpt>
      <trkpt lat="46.29534" lon="10.5723">
        <ele>2567</ele>
        <time>2018-09-21T21:00:43.002Z</time>
      </trkpt>
      <trkpt lat="46.29526" lon="10.57224">
        <ele>2567.24940032</ele>
        <time>2018-09-21T21:00:48.014Z</time>
      </trkpt>
      <trkpt lat="46.29527" lon="10.5721">
        <ele>2568.7398598872</ele>
        <time>2018-09-21T21:00:58.001Z</time>
      </trkpt>
      <trkpt lat="46.29521" lon="10.57199">
        <ele>2571.647283797</ele>
        <time>2018-09-21T21:01:12.014Z</time>
      </trkpt>
      <trkpt lat="46.29512" lon="10.57197">
        <ele>2572.635392</ele>
        <time>2018-09-21T21:01:22.001Z</time>
      </trkpt>
      <trkpt lat="46.29504" lon="10.57191">
        <ele>2575</ele>
        <time>2018-09-21T21:01:39.014Z</time>
      </trkpt>
      <trkpt lat="46.29497" lon="10.57181">
        <ele>2576.29639936</ele>
        <time>2018-09-21T21:01:52.002Z</time>
      </trkpt>
      <trkpt lat="46.29488" lon="10.57174">
        <ele>2578.2906282889</ele>
        <time>2018-09-21T21:02:07.014Z</time>
      </trkpt>
      <trkpt lat="46.29479" lon="10.57167">
        <ele>2579.8340104354</ele>
        <time>2018-09-21T21:02:15.001Z</time>
      </trkpt>
      <trkpt lat="46.29472" lon="10.5716">
        <ele>2582.0992</ele>
        <time>2018-09-21T21:02:26.016Z</time>
      </trkpt>
      <trkpt lat="46.29464" lon="10.57152">
        <ele>2584</ele>
        <time>2018-09-21T21:02:41.014Z</time>
      </trkpt>
      <trkpt lat="46.29455" lon="10.57151">
        <ele>2586.5387388865</ele>
        <time>2018-09-21T21:02:54.014Z</time>
      </trkpt>
      <trkpt lat="46.29449" lon="10.5714">
        <ele>2588.4458706295</ele>
        <time>2018-09-21T21:03:10.001Z</time>
      </trkpt>
      <trkpt lat="46.2944" lon="10.57133">
        <ele>2589.8486435864</ele>
        <time>2018-09-21T21:03:24.014Z</time>
      </trkpt>
      <trkpt lat="46.29435" lon="10.57121">
        <ele>2591.4873015873</ele>
        <time>2018-09-21T21:03:33.016Z</time>
      </trkpt>
      <trkpt lat="46.29426" lon="10.57116">
        <ele>2595.4334622412</ele>
        <time>2018-09-21T21:03:50.002Z</time>
      </trkpt>
      <trkpt lat="46.29417" lon="10.57115">
        <ele>2599.7834825181</ele>
        <time>2018-09-21T21:04:10.001Z</time>
      </trkpt>
      <trkpt lat="46.29408" lon="10.57114">
        <ele>2605.9860403376</ele>
        <time>2018-09-21T21:04:36.001Z</time>
      </trkpt>
      <trkpt lat="46.29406" lon="10.57127">
        <ele>2610</ele>
        <time>2018-09-21T21:05:08.001Z</time>
      </trkpt>
      <trkpt lat="46.29415" lon="10.57131">
        <ele>2610.4316951481</ele>
        <time>2018-09-21T21:05:20.001Z</time>
      </trkpt>
      <trkpt lat="46.29419" lon="10.57143">
        <ele>2616</ele>
        <time>2018-09-21T21:05:38.001Z</time>
      </trkpt>
      <trkpt lat="46.29424" lon="10.57154">
        <ele>2617.8479478365</ele>
        <time>2018-09-21T21:06:04.001Z</time>
      </trkpt>
      <trkpt lat="46.29429" lon="10.57165">
        <ele>2621.84429952</ele>
        <time>2018-09-21T21:06:25.001Z</time>
      </trkpt>
      <trkpt lat="46.2942" lon="10.57168">
        <ele>2627.69619968</ele>
        <time>2018-09-21T21:06:59.001Z</time>
      </trkpt>
      <trkpt lat="46.29411" lon="10.57165">
        <ele>2630.6242317778</ele>
        <time>2018-09-21T21:07:10.972Z</time>
      </trkpt>
      <trkpt lat="46.29401" lon="10.57161">
        <ele>2632</ele>
        <time>2018-09-21T21:07:25.014Z</time>
      </trkpt>
      <trkpt lat="46.29394" lon="10.57152">
        <ele>2632.2932671957</ele>
        <time>2018-09-21T21:07:37.001Z</time>
      </trkpt>
      <trkpt lat="46.29386" lon="10.57147">
        <ele>2636.5781820909</ele>
        <time>2018-09-21T21:07:52.001Z</time>
      </trkpt>
      <trkpt lat="46.29377" lon="10.57141">
        <ele>2639.44760064</ele>
        <time>2018-09-21T21:08:10.016Z</time>
      </trkpt>
      <trkpt lat="46.29369" lon="10.57132">
        <ele>2644.3321427027</ele>
        <time>2018-09-21T21:08:29.001Z</time>
      </trkpt>
      <trkpt lat="46.29363" lon="10.57122">
        <ele>2645.737708</ele>
        <time>2018-09-21T21:08:43.002Z</time>
      </trkpt>
      <trkpt lat="46.29354" lon="10.57119">
        <ele>2650.84820096</ele>
        <time>2018-09-21T21:09:05.014Z</time>
      </trkpt>
      <trkpt lat="46.29348" lon="10.57108">
        <ele>2652.09639936</ele>
        <time>2018-09-21T21:09:21.002Z</time>
      </trkpt>
      <trkpt lat="46.29345" lon="10.57095">
        <ele>2653.6430552381</ele>
        <time>2018-09-21T21:09:32.002Z</time>
      </trkpt>
      <trkpt lat="46.29343" lon="10.57081">
        <ele>2655.4181834872</ele>
        <time>2018-09-21T21:09:47.000Z</time>
      </trkpt>
      <trkpt lat="46.29346" lon="10.57068">
        <ele>2659.0951049255</ele>
        <time>2018-09-21T21:10:01.001Z</time>
      </trkpt>
      <trkpt lat="46.2934" lon="10.57059">
        <ele>2661.4949144583</ele>
        <time>2018-09-21T21:10:18.002Z</time>
      </trkpt>
      <trkpt lat="46.29331" lon="10.57052">
        <ele>2666.2414863381</ele>
        <time>2018-09-21T21:10:40.014Z</time>
      </trkpt>
      <trkpt lat="46.29324" lon="10.57062">
        <ele>2671.846016255</ele>
        <time>2018-09-21T21:11:04.014Z</time>
      </trkpt>
      <trkpt lat="46.29317" lon="10.5707">
        <ele>2674.245955723</ele>
        <time>2018-09-21T21:11:23.014Z</time>
      </trkpt>
      <trkpt lat="46.29312" lon="10.57081">
        <ele>2676</ele>
        <time>2018-09-21T21:11:44.014Z</time>
      </trkpt>
      <trkpt lat="46.29303" lon="10.57082">
        <ele>2678</ele>
        <time>2018-09-21T21:12:40.000Z</time>
      </trkpt>
      <trkpt lat="46.29295" lon="10.57075">
        <ele>2676.7104424096</ele>
        <time>2018-09-21T21:12:57.002Z</time>
      </trkpt>
      <trkpt lat="46.29285" lon="10.57075">
        <ele>2674.50159872</ele>
        <time>2018-09-21T21:13:08.012Z</time>
      </trkpt>
      <trkpt lat="46.29277" lon="10.5707">
        <ele>2672.25239808</ele>
        <time>2018-09-21T21:13:18.012Z</time>
      </trkpt>
      <trkpt lat="46.29274" lon="10.57083">
        <ele>2668.5079687649</ele>
        <time>2018-09-21T21:13:33.010Z</time>
      </trkpt>
      <trkpt lat="46.29277" lon="10.57097">
        <ele>2666.3042159036</ele>
        <time>2018-09-21T21:13:44.005Z</time>
      </trkpt>
      <trkpt lat="46.29276" lon="10.5711">
        <ele>2663.5091439569</ele>
        <time>2018-09-21T21:13:58.012Z</time>
      </trkpt>
      <trkpt lat="46.29279" lon="10.57123">
        <ele>2659.3605436145</ele>
        <time>2018-09-21T21:14:21.003Z</time>
      </trkpt>
      <trkpt lat="46.29284" lon="10.57134">
        <ele>2657.15180032</ele>
        <time>2018-09-21T21:14:34.002Z</time>
      </trkpt>
      <trkpt lat="46.29275" lon="10.57136">
        <ele>2655.0147733333</ele>
        <time>2018-09-21T21:14:46.002Z</time>
      </trkpt>
      <trkpt lat="46.29264" lon="10.57137">
        <ele>2648.7555895285</ele>
        <time>2018-09-21T21:15:08.017Z</time>
      </trkpt>
      <trkpt lat="46.29255" lon="10.57138">
        <ele>2646.658681778</ele>
        <time>2018-09-21T21:15:20.000Z</time>
      </trkpt>
      <trkpt lat="46.29246" lon="10.5714">
        <ele>2635.3068507394</ele>
        <time>2018-09-21T21:15:55.002Z</time>
      </trkpt>
      <trkpt lat="46.29236" lon="10.57141">
        <ele>2632.1569705652</ele>
        <time>2018-09-21T21:16:05.002Z</time>
      </trkpt>
      <trkpt lat="46.2923" lon="10.57153">
        <ele>2629.9595627092</ele>
        <time>2018-09-21T21:16:19.002Z</time>
      </trkpt>
      <trkpt lat="46.29222" lon="10.57158">
        <ele>2626.6620491566</ele>
        <time>2018-09-21T21:16:30.002Z</time>
      </trkpt>
      <trkpt lat="46.29222" lon="10.57172">
        <ele>2623.560019602</ele>
        <time>2018-09-21T21:16:47.001Z</time>
      </trkpt>
      <trkpt lat="46.2922" lon="10.57185">
        <ele>2619.7060253815</ele>
        <time>2018-09-21T21:17:02.004Z</time>
      </trkpt>
      <trkpt lat="46.29218" lon="10.57198">
        <ele>2619</ele>
        <time>2018-09-21T21:17:10.002Z</time>
      </trkpt>
      <trkpt lat="46.29211" lon="10.57206">
        <ele>2619.691364498</ele>
        <time>2018-09-21T21:17:19.003Z</time>
      </trkpt>
      <trkpt lat="46.29207" lon="10.57219">
        <ele>2622.09700096</ele>
        <time>2018-09-21T21:17:31.005Z</time>
      </trkpt>
      <trkpt lat="46.29206" lon="10.57232">
        <ele>2622.6531875697</ele>
        <time>2018-09-21T21:17:39.002Z</time>
      </trkpt>
      <trkpt lat="46.29211" lon="10.57243">
        <ele>2621.083105605</ele>
        <time>2018-09-21T21:18:05.004Z</time>
      </trkpt>
      <trkpt lat="46.29209" lon="10.57256">
        <ele>2616.9562097184</ele>
        <time>2018-09-21T21:18:16.001Z</time>
      </trkpt>
      <trkpt lat="46.29213" lon="10.57268">
        <ele>2611.2608424096</ele>
        <time>2018-09-21T21:18:38.014Z</time>
      </trkpt>
      <trkpt lat="46.29217" lon="10.5728">
        <ele>2605.8225799233</ele>
        <time>2018-09-21T21:18:56.004Z</time>
      </trkpt>
      <trkpt lat="46.29211" lon="10.57292">
        <ele>2600.9186047104</ele>
        <time>2018-09-21T21:19:11.004Z</time>
      </trkpt>
      <trkpt lat="46.29206" lon="10.57303">
        <ele>2598.710303864</ele>
        <time>2018-09-21T21:19:22.004Z</time>
      </trkpt>
      <trkpt lat="46.292" lon="10.57313">
        <ele>2593.9555895946</ele>
        <time>2018-09-21T21:19:36.003Z</time>
      </trkpt>
      <trkpt lat="46.29197" lon="10.57326">
        <ele>2589.3643137245</ele>
        <time>2018-09-21T21:19:51.005Z</time>
      </trkpt>
      <trkpt lat="46.29198" lon="10.5734">
        <ele>2587.6754499416</ele>
        <time>2018-09-21T21:19:59.004Z</time>
      </trkpt>
      <trkpt lat="46.29194" lon="10.57352">
        <ele>2587.0120380773</ele>
        <time>2018-09-21T21:20:06.003Z</time>
      </trkpt>
      <trkpt lat="46.29192" lon="10.57366">
        <ele>2586.8668787899</ele>
        <time>2018-09-21T21:20:16.005Z</time>
      </trkpt>
      <trkpt lat="46.29187" lon="10.57378">
        <ele>2584.1224162847</ele>
        <time>2018-09-21T21:20:26.004Z</time>
      </trkpt>
      <trkpt lat="46.29186" lon="10.57392">
        <ele>2579.3353266165</ele>
        <time>2018-09-21T21:20:35.005Z</time>
      </trkpt>
      <trkpt lat="46.29181" lon="10.57403">
        <ele>2577.710303864</ele>
        <time>2018-09-21T21:20:42.004Z</time>
      </trkpt>
      <trkpt lat="46.29176" lon="10.57415">
        <ele>2576.25059968</ele>
        <time>2018-09-21T21:20:53.014Z</time>
      </trkpt>
      <trkpt lat="46.29166" lon="10.57416">
        <ele>2573.80680192</ele>
        <time>2018-09-21T21:21:01.003Z</time>
      </trkpt>
      <trkpt lat="46.29159" lon="10.57425">
        <ele>2570.90119936</ele>
        <time>2018-09-21T21:21:11.014Z</time>
      </trkpt>
      <trkpt lat="46.29157" lon="10.57438">
        <ele>2569.25179904</ele>
        <time>2018-09-21T21:21:18.014Z</time>
      </trkpt>
      <trkpt lat="46.29148" lon="10.57443">
        <ele>2567.15179904</ele>
        <time>2018-09-21T21:21:25.014Z</time>
      </trkpt>
      <trkpt lat="46.29142" lon="10.57453">
        <ele>2563.60239872</ele>
        <time>2018-09-21T21:21:34.014Z</time>
      </trkpt>
      <trkpt lat="46.29136" lon="10.57463">
        <ele>2561.36488</ele>
        <time>2018-09-21T21:21:41.014Z</time>
      </trkpt>
      <trkpt lat="46.29131" lon="10.57473">
        <ele>2559.2886037178</ele>
        <time>2018-09-21T21:21:48.014Z</time>
      </trkpt>
      <trkpt lat="46.29126" lon="10.57484">
        <ele>2557.2257340515</ele>
        <time>2018-09-21T21:21:55.014Z</time>
      </trkpt>
      <trkpt lat="46.29121" lon="10.57496">
        <ele>2555.087728368</ele>
        <time>2018-09-21T21:22:02.014Z</time>
      </trkpt>
      <trkpt lat="46.29117" lon="10.57508">
        <ele>2553.6729163636</ele>
        <time>2018-09-21T21:22:09.014Z</time>
      </trkpt>
      <trkpt lat="46.29112" lon="10.5752">
        <ele>2553.0101321212</ele>
        <time>2018-09-21T21:22:16.013Z</time>
      </trkpt>
      <trkpt lat="46.29106" lon="10.5753">
        <ele>2551.5353177872</ele>
        <time>2018-09-21T21:22:23.004Z</time>
      </trkpt>
      <trkpt lat="46.29098" lon="10.5754">
        <ele>2549.2139461355</ele>
        <time>2018-09-21T21:22:30.003Z</time>
      </trkpt>
      <trkpt lat="46.29091" lon="10.5755">
        <ele>2546.4262440883</ele>
        <time>2018-09-21T21:22:37.003Z</time>
      </trkpt>
      <trkpt lat="46.29086" lon="10.57563">
        <ele>2543.2449254838</ele>
        <time>2018-09-21T21:22:45.004Z</time>
      </trkpt>
      <trkpt lat="46.29078" lon="10.57572">
        <ele>2540.8210069844</ele>
        <time>2018-09-21T21:22:51.013Z</time>
      </trkpt>
      <trkpt lat="46.2907" lon="10.57579">
        <ele>2537.7585024</ele>
        <time>2018-09-21T21:22:58.003Z</time>
      </trkpt>
      <trkpt lat="46.29062" lon="10.57587">
        <ele>2534.2585024</ele>
        <time>2018-09-21T21:23:05.003Z</time>
      </trkpt>
      <trkpt lat="46.29055" lon="10.57598">
        <ele>2532.05510144</ele>
        <time>2018-09-21T21:23:12.003Z</time>
      </trkpt>
      <trkpt lat="46.29049" lon="10.57607">
        <ele>2528.91020288</ele>
        <time>2018-09-21T21:23:19.003Z</time>
      </trkpt>
      <trkpt lat="46.29043" lon="10.57619">
        <ele>2524.70340096</ele>
        <time>2018-09-21T21:23:27.003Z</time>
      </trkpt>
      <trkpt lat="46.29037" lon="10.57631">
        <ele>2522.11020288</ele>
        <time>2018-09-21T21:23:37.003Z</time>
      </trkpt>
      <trkpt lat="46.29031" lon="10.57643">
        <ele>2517.90960384</ele>
        <time>2018-09-21T21:23:44.004Z</time>
      </trkpt>
      <trkpt lat="46.29026" lon="10.57654">
        <ele>2515.90139904</ele>
        <time>2018-09-21T21:23:51.013Z</time>
      </trkpt>
      <trkpt lat="46.29018" lon="10.57662">
        <ele>2514.40680192</ele>
        <time>2018-09-21T21:23:57.003Z</time>
      </trkpt>
      <trkpt lat="46.29011" lon="10.57671">
        <ele>2512.00639744</ele>
        <time>2018-09-21T21:24:03.004Z</time>
      </trkpt>
      <trkpt lat="46.29004" lon="10.57681">
        <ele>2509.90139904</ele>
        <time>2018-09-21T21:24:11.013Z</time>
      </trkpt>
      <trkpt lat="46.28999" lon="10.57694">
        <ele>2508.5565717928</ele>
        <time>2018-09-21T21:24:17.004Z</time>
      </trkpt>
      <trkpt lat="46.28998" lon="10.57708">
        <ele>2506.4649421514</ele>
        <time>2018-09-21T21:24:24.004Z</time>
      </trkpt>
      <trkpt lat="46.28997" lon="10.57722">
        <ele>2504.3706160956</ele>
        <time>2018-09-21T21:24:31.013Z</time>
      </trkpt>
      <trkpt lat="46.28993" lon="10.57735">
        <ele>2501.7158508679</ele>
        <time>2018-09-21T21:24:39.003Z</time>
      </trkpt>
      <trkpt lat="46.28991" lon="10.57748">
        <ele>2499.0705642264</ele>
        <time>2018-09-21T21:24:46.013Z</time>
      </trkpt>
      <trkpt lat="46.2899" lon="10.57761">
        <ele>2497.139745641</ele>
        <time>2018-09-21T21:24:52.004Z</time>
      </trkpt>
      <trkpt lat="46.28989" lon="10.57775">
        <ele>2495.3063403009</ele>
        <time>2018-09-21T21:24:58.004Z</time>
      </trkpt>
      <trkpt lat="46.28985" lon="10.57789">
        <ele>2493.0329215615</ele>
        <time>2018-09-21T21:25:06.014Z</time>
      </trkpt>
      <trkpt lat="46.28982" lon="10.57801">
        <ele>2492.267943849</ele>
        <time>2018-09-21T21:25:13.004Z</time>
      </trkpt>
      <trkpt lat="46.28981" lon="10.57816">
        <ele>2491.4527885259</ele>
        <time>2018-09-21T21:25:21.014Z</time>
      </trkpt>
      <trkpt lat="46.28977" lon="10.57828">
        <ele>2490.7646438626</ele>
        <time>2018-09-21T21:25:28.003Z</time>
      </trkpt>
      <trkpt lat="46.28969" lon="10.57837">
        <ele>2489.9698612476</ele>
        <time>2018-09-21T21:25:36.013Z</time>
      </trkpt>
      <trkpt lat="46.28961" lon="10.57845">
        <ele>2487.0844191527</ele>
        <time>2018-09-21T21:25:43.003Z</time>
      </trkpt>
      <trkpt lat="46.28952" lon="10.5785">
        <ele>2484.673510592</ele>
        <time>2018-09-21T21:25:50.003Z</time>
      </trkpt>
      <trkpt lat="46.28944" lon="10.57857">
        <ele>2482.90099968</ele>
        <time>2018-09-21T21:25:56.015Z</time>
      </trkpt>
      <trkpt lat="46.28936" lon="10.57864">
        <ele>2481.90099968</ele>
        <time>2018-09-21T21:26:01.015Z</time>
      </trkpt>
      <trkpt lat="46.28927" lon="10.57871">
        <ele>2480.85159936</ele>
        <time>2018-09-21T21:26:07.004Z</time>
      </trkpt>
      <trkpt lat="46.2892" lon="10.5788">
        <ele>2480.15170048</ele>
        <time>2018-09-21T21:26:14.003Z</time>
      </trkpt>
      <trkpt lat="46.28912" lon="10.57887">
        <ele>2479.4499008765</ele>
        <time>2018-09-21T21:26:21.043Z</time>
      </trkpt>
      <trkpt lat="46.28903" lon="10.57892">
        <ele>2478.8629513253</ele>
        <time>2018-09-21T21:26:26.015Z</time>
      </trkpt>
      <trkpt lat="46.28893" lon="10.57896">
        <ele>2476.7581339759</ele>
        <time>2018-09-21T21:26:33.003Z</time>
      </trkpt>
      <trkpt lat="46.28883" lon="10.57898">
        <ele>2475.5058714447</ele>
        <time>2018-09-21T21:26:38.003Z</time>
      </trkpt>
      <trkpt lat="46.28874" lon="10.57901">
        <ele>2474.5104463317</ele>
        <time>2018-09-21T21:26:43.005Z</time>
      </trkpt>
      <trkpt lat="46.28864" lon="10.57903">
        <ele>2473.6549751461</ele>
        <time>2018-09-21T21:26:49.003Z</time>
      </trkpt>
      <trkpt lat="46.28854" lon="10.57903">
        <ele>2472.9532253795</ele>
        <time>2018-09-21T21:26:56.013Z</time>
      </trkpt>
      <trkpt lat="46.28844" lon="10.57904">
        <ele>2472.0044593521</ele>
        <time>2018-09-21T21:27:06.013Z</time>
      </trkpt>
      <trkpt lat="46.28833" lon="10.57905">
        <ele>2471.2691585813</ele>
        <time>2018-09-21T21:27:13.003Z</time>
      </trkpt>
      <trkpt lat="46.28824" lon="10.57898">
        <ele>2469.9050191165</ele>
        <time>2018-09-21T21:27:21.013Z</time>
      </trkpt>
      <trkpt lat="46.28817" lon="10.5789">
        <ele>2468.9046325869</ele>
        <time>2018-09-21T21:27:26.014Z</time>
      </trkpt>
      <trkpt lat="46.28811" lon="10.57876">
        <ele>2467.749034749</ele>
        <time>2018-09-21T21:27:32.000Z</time>
      </trkpt>
      <trkpt lat="46.28807" lon="10.57864">
        <ele>2467</ele>
        <time>2018-09-21T21:27:37.973Z</time>
      </trkpt>
      <trkpt lat="46.28802" lon="10.57852">
        <ele>2467</ele>
        <time>2018-09-21T21:27:44.003Z</time>
      </trkpt>
      <trkpt lat="46.28795" lon="10.57841">
        <ele>2465.70340096</ele>
        <time>2018-09-21T21:27:52.003Z</time>
      </trkpt>
      <trkpt lat="46.28789" lon="10.57831">
        <ele>2463.5161383267</ele>
        <time>2018-09-21T21:27:58.003Z</time>
      </trkpt>
      <trkpt lat="46.28784" lon="10.57818">
        <ele>2459</ele>
        <time>2018-09-21T21:28:06.015Z</time>
      </trkpt>
      <trkpt lat="46.28779" lon="10.57807">
        <ele>2459</ele>
        <time>2018-09-21T21:28:11.013Z</time>
      </trkpt>
      <trkpt lat="46.28774" lon="10.57796">
        <ele>2458.00640256</ele>
        <time>2018-09-21T21:28:18.004Z</time>
      </trkpt>
      <trkpt lat="46.28767" lon="10.57786">
        <ele>2455.60640256</ele>
        <time>2018-09-21T21:28:24.004Z</time>
      </trkpt>
      <trkpt lat="46.2876" lon="10.57776">
        <ele>2452.824551176</ele>
        <time>2018-09-21T21:28:31.013Z</time>
      </trkpt>
      <trkpt lat="46.28751" lon="10.57769">
        <ele>2450.2793341935</ele>
        <time>2018-09-21T21:28:38.003Z</time>
      </trkpt>
      <trkpt lat="46.28742" lon="10.57764">
        <ele>2448.1533251613</ele>
        <time>2018-09-21T21:28:45.033Z</time>
      </trkpt>
      <trkpt lat="46.28733" lon="10.57761">
        <ele>2445.0207597472</ele>
        <time>2018-09-21T21:28:53.003Z</time>
      </trkpt>
      <trkpt lat="46.28723" lon="10.57759">
        <ele>2441.7695807229</ele>
        <time>2018-09-21T21:29:00.003Z</time>
      </trkpt>
      <trkpt lat="46.28714" lon="10.57756">
        <ele>2438.10320128</ele>
        <time>2018-09-21T21:29:10.004Z</time>
      </trkpt>
      <trkpt lat="46.28705" lon="10.57754">
        <ele>2434.2622174238</ele>
        <time>2018-09-21T21:29:21.012Z</time>
      </trkpt>
      <trkpt lat="46.28696" lon="10.57754">
        <ele>2430.963064469</ele>
        <time>2018-09-21T21:29:29.003Z</time>
      </trkpt>
      <trkpt lat="46.28686" lon="10.57752">
        <ele>2426.9263476718</ele>
        <time>2018-09-21T21:29:39.003Z</time>
      </trkpt>
      <trkpt lat="46.28677" lon="10.57747">
        <ele>2422.7129210102</ele>
        <time>2018-09-21T21:29:47.004Z</time>
      </trkpt>
      <trkpt lat="46.28669" lon="10.57741">
        <ele>2420.8815041989</ele>
        <time>2018-09-21T21:29:56.013Z</time>
      </trkpt>
      <trkpt lat="46.28662" lon="10.57731">
        <ele>2418.1709552013</ele>
        <time>2018-09-21T21:30:05.003Z</time>
      </trkpt>
      <trkpt lat="46.28654" lon="10.57723">
        <ele>2416.5161666963</ele>
        <time>2018-09-21T21:30:13.004Z</time>
      </trkpt>
      <trkpt lat="46.28647" lon="10.57713">
        <ele>2414.6664677274</ele>
        <time>2018-09-21T21:30:20.004Z</time>
      </trkpt>
      <trkpt lat="46.28638" lon="10.57709">
        <ele>2413.1558893554</ele>
        <time>2018-09-21T21:30:25.004Z</time>
      </trkpt>
      <trkpt lat="46.28628" lon="10.57703">
        <ele>2412.4515962964</ele>
        <time>2018-09-21T21:30:31.015Z</time>
      </trkpt>
      <trkpt lat="46.28618" lon="10.577">
        <ele>2411.8580007424</ele>
        <time>2018-09-21T21:30:37.004Z</time>
      </trkpt>
      <trkpt lat="46.28608" lon="10.57698">
        <ele>2411.1780788584</ele>
        <time>2018-09-21T21:30:44.014Z</time>
      </trkpt>
      <trkpt lat="46.28599" lon="10.5769">
        <ele>2408.868042236</ele>
        <time>2018-09-21T21:30:51.004Z</time>
      </trkpt>
      <trkpt lat="46.28591" lon="10.57683">
        <ele>2406.670387185</ele>
        <time>2018-09-21T21:30:59.004Z</time>
      </trkpt>
      <trkpt lat="46.28582" lon="10.57683">
        <ele>2406.0081365398</ele>
        <time>2018-09-21T21:31:06.004Z</time>
      </trkpt>
      <trkpt lat="46.28572" lon="10.57678">
        <ele>2404.5334028307</ele>
        <time>2018-09-21T21:31:13.005Z</time>
      </trkpt>
      <trkpt lat="46.28563" lon="10.57675">
        <ele>2402.35300096</ele>
        <time>2018-09-21T21:31:21.010Z</time>
      </trkpt>
      <trkpt lat="46.28553" lon="10.57674">
        <ele>2400.25510144</ele>
        <time>2018-09-21T21:31:28.003Z</time>
      </trkpt>
      <trkpt lat="46.28544" lon="10.57671">
        <ele>2398.15510144</ele>
        <time>2018-09-21T21:31:35.003Z</time>
      </trkpt>
      <trkpt lat="46.28535" lon="10.57667">
        <ele>2394.2529984</ele>
        <time>2018-09-21T21:31:43.014Z</time>
      </trkpt>
      <trkpt lat="46.28525" lon="10.57662">
        <ele>2391.50119936</ele>
        <time>2018-09-21T21:31:53.014Z</time>
      </trkpt>
      <trkpt lat="46.28515" lon="10.57663">
        <ele>2388.40239872</ele>
        <time>2018-09-21T21:32:02.014Z</time>
      </trkpt>
      <trkpt lat="46.28506" lon="10.57664">
        <ele>2386.25510144</ele>
        <time>2018-09-21T21:32:08.003Z</time>
      </trkpt>
      <trkpt lat="46.28497" lon="10.57665">
        <ele>2382.7761364727</ele>
        <time>2018-09-21T21:32:18.002Z</time>
      </trkpt>
      <trkpt lat="46.28489" lon="10.57673">
        <ele>2378.3271594884</ele>
        <time>2018-09-21T21:32:27.003Z</time>
      </trkpt>
      <trkpt lat="46.28486" lon="10.57686">
        <ele>2373.3205255638</ele>
        <time>2018-09-21T21:32:39.000Z</time>
      </trkpt>
      <trkpt lat="46.28478" lon="10.57695">
        <ele>2371.266364199</ele>
        <time>2018-09-21T21:32:47.973Z</time>
      </trkpt>
      <trkpt lat="46.28471" lon="10.57702">
        <ele>2368.7580032</ele>
        <time>2018-09-21T21:32:56.004Z</time>
      </trkpt>
      <trkpt lat="46.28463" lon="10.57709">
        <ele>2364.7585024</ele>
        <time>2018-09-21T21:33:04.003Z</time>
      </trkpt>
      <trkpt lat="46.28455" lon="10.57716">
        <ele>2361.45540096</ele>
        <time>2018-09-21T21:33:14.002Z</time>
      </trkpt>
      <trkpt lat="46.28447" lon="10.57723">
        <ele>2357.10419712</ele>
        <time>2018-09-21T21:33:22.013Z</time>
      </trkpt>
      <trkpt lat="46.28438" lon="10.57728">
        <ele>2353.30360064</ele>
        <time>2018-09-21T21:33:34.002Z</time>
      </trkpt>
      <trkpt lat="46.2843" lon="10.57736">
        <ele>2350.7659675275</ele>
        <time>2018-09-21T21:33:43.004Z</time>
      </trkpt>
      <trkpt lat="46.28423" lon="10.57745">
        <ele>2347.404492109</ele>
        <time>2018-09-21T21:33:50.004Z</time>
      </trkpt>
      <trkpt lat="46.28417" lon="10.57755">
        <ele>2341.3278332885</ele>
        <time>2018-09-21T21:34:01.004Z</time>
      </trkpt>
      <trkpt lat="46.28409" lon="10.57764">
        <ele>2337.50319872</ele>
        <time>2018-09-21T21:34:13.004Z</time>
      </trkpt>
      <trkpt lat="46.28404" lon="10.57775">
        <ele>2333.7562411209</ele>
        <time>2018-09-21T21:34:22.014Z</time>
      </trkpt>
      <trkpt lat="46.28398" lon="10.57785">
        <ele>2329.4558566708</ele>
        <time>2018-09-21T21:34:34.002Z</time>
      </trkpt>
      <trkpt lat="46.28391" lon="10.57795">
        <ele>2326.15510144</ele>
        <time>2018-09-21T21:34:45.003Z</time>
      </trkpt>
      <trkpt lat="46.28385" lon="10.57805">
        <ele>2322.7107607968</ele>
        <time>2018-09-21T21:34:56.004Z</time>
      </trkpt>
      <trkpt lat="46.28377" lon="10.57812">
        <ele>2317.3328713944</ele>
        <time>2018-09-21T21:35:05.003Z</time>
      </trkpt>
      <trkpt lat="46.28369" lon="10.57819">
        <ele>2314.4656616868</ele>
        <time>2018-09-21T21:35:13.974Z</time>
      </trkpt>
      <trkpt lat="46.2836" lon="10.57821">
        <ele>2311.815539761</ele>
        <time>2018-09-21T21:35:21.003Z</time>
      </trkpt>
      <trkpt lat="46.2835" lon="10.57821">
        <ele>2308.9626486747</ele>
        <time>2018-09-21T21:35:29.004Z</time>
      </trkpt>
      <trkpt lat="46.28341" lon="10.57825">
        <ele>2306.70119936</ele>
        <time>2018-09-21T21:35:37.014Z</time>
      </trkpt>
      <trkpt lat="46.28331" lon="10.57831">
        <ele>2305.50319872</ele>
        <time>2018-09-21T21:35:43.004Z</time>
      </trkpt>
      <trkpt lat="46.28322" lon="10.57834">
        <ele>2304.3040966407</ele>
        <time>2018-09-21T21:35:49.003Z</time>
      </trkpt>
      <trkpt lat="46.28313" lon="10.57834">
        <ele>2302.764</ele>
        <time>2018-09-21T21:35:56.002Z</time>
      </trkpt>
      <trkpt lat="46.28304" lon="10.57838">
        <ele>2298.762496</ele>
        <time>2018-09-21T21:36:04.005Z</time>
      </trkpt>
      <trkpt lat="46.28295" lon="10.57842">
        <ele>2297.3509505182</ele>
        <time>2018-09-21T21:36:12.014Z</time>
      </trkpt>
      <trkpt lat="46.28285" lon="10.57843">
        <ele>2296.25510144</ele>
        <time>2018-09-21T21:36:18.003Z</time>
      </trkpt>
      <trkpt lat="46.28276" lon="10.57847">
        <ele>2293</ele>
        <time>2018-09-21T21:37:09.002Z</time>
      </trkpt>
      <trkpt lat="46.28267" lon="10.57848">
        <ele>2292.85159936</ele>
        <time>2018-09-21T21:37:17.004Z</time>
      </trkpt>
      <trkpt lat="46.28258" lon="10.5785">
        <ele>2292.35160064</ele>
        <time>2018-09-21T21:37:22.004Z</time>
      </trkpt>
      <trkpt lat="46.28249" lon="10.57849">
        <ele>2291.55629952</ele>
        <time>2018-09-21T21:37:26.999Z</time>
      </trkpt>
      <trkpt lat="46.28239" lon="10.57848">
        <ele>2289.45449856</ele>
        <time>2018-09-21T21:37:34.005Z</time>
      </trkpt>
      <trkpt lat="46.28229" lon="10.57849">
        <ele>2287.6811783529</ele>
        <time>2018-09-21T21:37:40.004Z</time>
      </trkpt>
      <trkpt lat="46.28219" lon="10.57847">
        <ele>2286.2105863529</ele>
        <time>2018-09-21T21:37:45.004Z</time>
      </trkpt>
      <trkpt lat="46.28209" lon="10.57846">
        <ele>2284.7175523265</ele>
        <time>2018-09-21T21:37:52.004Z</time>
      </trkpt>
      <trkpt lat="46.28198" lon="10.57845">
        <ele>2283.00640256</ele>
        <time>2018-09-21T21:37:58.004Z</time>
      </trkpt>
      <trkpt lat="46.28188" lon="10.57844">
        <ele>2280.60640256</ele>
        <time>2018-09-21T21:38:04.004Z</time>
      </trkpt>
      <trkpt lat="46.28179" lon="10.57846">
        <ele>2279.45100032</ele>
        <time>2018-09-21T21:38:11.010Z</time>
      </trkpt>
      <trkpt lat="46.2817" lon="10.57847">
        <ele>2278.90119936</ele>
        <time>2018-09-21T21:38:16.014Z</time>
      </trkpt>
      <trkpt lat="46.28161" lon="10.57853">
        <ele>2277.70320128</ele>
        <time>2018-09-21T21:38:22.004Z</time>
      </trkpt>
      <trkpt lat="46.28154" lon="10.57862">
        <ele>2276.55479808</ele>
        <time>2018-09-21T21:38:27.004Z</time>
      </trkpt>
      <trkpt lat="46.28149" lon="10.57872">
        <ele>2275.05480192</ele>
        <time>2018-09-21T21:38:32.004Z</time>
      </trkpt>
      <trkpt lat="46.28141" lon="10.5788">
        <ele>2273.25449856</ele>
        <time>2018-09-21T21:38:38.005Z</time>
      </trkpt>
      <trkpt lat="46.28133" lon="10.57888">
        <ele>2271.15479808</ele>
        <time>2018-09-21T21:38:45.004Z</time>
      </trkpt>
      <trkpt lat="46.28126" lon="10.57896">
        <ele>2269.70320128</ele>
        <time>2018-09-21T21:38:52.004Z</time>
      </trkpt>
      <trkpt lat="46.28117" lon="10.57904">
        <ele>2268.268436348</ele>
        <time>2018-09-21T21:38:58.000Z</time>
      </trkpt>
      <trkpt lat="46.2811" lon="10.57913">
        <ele>2266.2023571138</ele>
        <time>2018-09-21T21:39:05.004Z</time>
      </trkpt>
      <trkpt lat="46.28105" lon="10.57925">
        <ele>2264.0733480128</ele>
        <time>2018-09-21T21:39:12.003Z</time>
      </trkpt>
      <trkpt lat="46.281" lon="10.57936">
        <ele>2262.0195098053</ele>
        <time>2018-09-21T21:39:19.004Z</time>
      </trkpt>
      <trkpt lat="46.28096" lon="10.57949">
        <ele>2260.0472759758</ele>
        <time>2018-09-21T21:39:26.012Z</time>
      </trkpt>
      <trkpt lat="46.28096" lon="10.57964">
        <ele>2258.85059968</ele>
        <time>2018-09-21T21:39:37.014Z</time>
      </trkpt>
      <trkpt lat="46.28101" lon="10.57976">
        <ele>2258.05180032</ele>
        <time>2018-09-21T21:39:45.002Z</time>
      </trkpt>
      <trkpt lat="46.28109" lon="10.57987">
        <ele>2258.74940032</ele>
        <time>2018-09-21T21:39:53.014Z</time>
      </trkpt>
      <trkpt lat="46.28115" lon="10.57972">
        <ele>2258</ele>
        <time>2018-09-21T21:40:15.014Z</time>
      </trkpt>
      <trkpt lat="46.28117" lon="10.57985">
        <ele>2259.2367515749</ele>
        <time>2018-09-21T21:40:32.014Z</time>
      </trkpt>
      <trkpt lat="46.28119" lon="10.57999">
        <ele>2259.0539178446</ele>
        <time>2018-09-21T21:40:45.014Z</time>
      </trkpt>
      <trkpt lat="46.2811" lon="10.58">
        <ele>2259</ele>
        <time>2018-09-21T21:41:50.014Z</time>
      </trkpt>
      <trkpt lat="46.28118" lon="10.58006">
        <ele>2258.05059968</ele>
        <time>2018-09-21T21:42:25.014Z</time>
      </trkpt>
      <trkpt lat="46.28118" lon="10.57992">
        <ele>2258.74940032</ele>
        <time>2018-09-21T21:42:43.014Z</time>
      </trkpt>
      <trkpt lat="46.28128" lon="10.57987">
        <ele>2259.8502502982</ele>
        <time>2018-09-21T21:43:04.014Z</time>
      </trkpt>
      <trkpt lat="46.28149" lon="10.58012">
        <ele>2259.1910468212</ele>
        <time>2018-09-21T21:43:24.014Z</time>
      </trkpt>
      <trkpt lat="46.2814" lon="10.58004">
        <ele>2259.104632519</ele>
        <time>2018-09-21T21:43:27.014Z</time>
      </trkpt>
      <trkpt lat="46.28131" lon="10.58001">
        <ele>2259.5256848669</ele>
        <time>2018-09-21T21:43:31.014Z</time>
      </trkpt>
      <trkpt lat="46.28122" lon="10.58002">
        <ele>2260</ele>
        <time>2018-09-21T21:43:37.014Z</time>
      </trkpt>
      <trkpt lat="46.28121" lon="10.57988">
        <ele>2260</ele>
        <time>2018-09-21T21:43:53.014Z</time>
      </trkpt>
      <trkpt lat="46.28126" lon="10.57999">
        <ele>2260</ele>
        <time>2018-09-21T21:45:09.014Z</time>
      </trkpt>
      <trkpt lat="46.28117" lon="10.57995">
        <ele>2260</ele>
        <time>2018-09-21T21:45:39.014Z</time>
      </trkpt>
      <trkpt lat="46.28126" lon="10.57996">
        <ele>2259.55059968</ele>
        <time>2018-09-21T21:46:00.014Z</time>
      </trkpt>
      <trkpt lat="46.28124" lon="10.5798">
        <ele>2260</ele>
        <time>2018-09-21T21:46:32.014Z</time>
      </trkpt>
      <trkpt lat="46.28117" lon="10.57989">
        <ele>2259</ele>
        <time>2018-09-21T21:47:09.014Z</time>
      </trkpt>
      <trkpt lat="46.28116" lon="10.58003">
        <ele>2258.50360064</ele>
        <time>2018-09-21T21:48:58.002Z</time>
      </trkpt>
      <trkpt lat="46.28116" lon="10.58016">
        <ele>2256.50380032</ele>
        <time>2018-09-21T21:49:08.001Z</time>
      </trkpt>
      <trkpt lat="46.28113" lon="10.58029">
        <ele>2254.8520960333</ele>
        <time>2018-09-21T21:49:17.002Z</time>
      </trkpt>
      <trkpt lat="46.2812" lon="10.58039">
        <ele>2254.1531925929</ele>
        <time>2018-09-21T21:49:24.005Z</time>
      </trkpt>
      <trkpt lat="46.28115" lon="10.58052">
        <ele>2252.7054103693</ele>
        <time>2018-09-21T21:49:32.000Z</time>
      </trkpt>
      <trkpt lat="46.28106" lon="10.58058">
        <ele>2251.109344503</ele>
        <time>2018-09-21T21:49:40.000Z</time>
      </trkpt>
      <trkpt lat="46.28097" lon="10.58063">
        <ele>2249.82600192</ele>
        <time>2018-09-21T21:49:46.015Z</time>
      </trkpt>
      <trkpt lat="46.28089" lon="10.5807">
        <ele>2246.6316032</ele>
        <time>2018-09-21T21:49:54.001Z</time>
      </trkpt>
      <trkpt lat="46.28096" lon="10.58081">
        <ele>2244.7080490676</ele>
        <time>2018-09-21T21:50:02.001Z</time>
      </trkpt>
      <trkpt lat="46.28103" lon="10.58089">
        <ele>2244.5490511246</ele>
        <time>2018-09-21T21:50:11.016Z</time>
      </trkpt>
      <trkpt lat="46.28111" lon="10.58098">
        <ele>2245.4476475043</ele>
        <time>2018-09-21T21:50:20.002Z</time>
      </trkpt>
      <trkpt lat="46.28118" lon="10.58107">
        <ele>2245.756428261</ele>
        <time>2018-09-21T21:50:28.002Z</time>
      </trkpt>
      <trkpt lat="46.28126" lon="10.58113">
        <ele>2244.9068974649</ele>
        <time>2018-09-21T21:50:36.016Z</time>
      </trkpt>
      <trkpt lat="46.28136" lon="10.58116">
        <ele>2242.7813392496</ele>
        <time>2018-09-21T21:50:43.002Z</time>
      </trkpt>
      <trkpt lat="46.28144" lon="10.58119">
        <ele>2240.6637190227</ele>
        <time>2018-09-21T21:50:50.002Z</time>
      </trkpt>
      <trkpt lat="46.28154" lon="10.58123">
        <ele>2238.4268619357</ele>
        <time>2018-09-21T21:50:57.003Z</time>
      </trkpt>
      <trkpt lat="46.28163" lon="10.58129">
        <ele>2235.3358471619</ele>
        <time>2018-09-21T21:51:05.001Z</time>
      </trkpt>
      <trkpt lat="46.28171" lon="10.58136">
        <ele>2233.5218661212</ele>
        <time>2018-09-21T21:51:13.002Z</time>
      </trkpt>
      <trkpt lat="46.28178" lon="10.58144">
        <ele>2232.45030016</ele>
        <time>2018-09-21T21:51:21.017Z</time>
      </trkpt>
      <trkpt lat="46.28183" lon="10.58156">
        <ele>2231.7040961292</ele>
        <time>2018-09-21T21:51:27.001Z</time>
      </trkpt>
      <trkpt lat="46.28183" lon="10.5817">
        <ele>2230.5052945471</ele>
        <time>2018-09-21T21:51:33.001Z</time>
      </trkpt>
      <trkpt lat="46.28177" lon="10.58182">
        <ele>2229.1102492877</ele>
        <time>2018-09-21T21:51:40.001Z</time>
      </trkpt>
      <trkpt lat="46.28171" lon="10.58194">
        <ele>2227.5711288989</ele>
        <time>2018-09-21T21:51:47.001Z</time>
      </trkpt>
      <trkpt lat="46.28165" lon="10.58204">
        <ele>2225.7602625418</ele>
        <time>2018-09-21T21:51:53.001Z</time>
      </trkpt>
      <trkpt lat="46.28159" lon="10.58215">
        <ele>2223.6925823677</ele>
        <time>2018-09-21T21:51:59.001Z</time>
      </trkpt>
      <trkpt lat="46.28153" lon="10.58225">
        <ele>2221.0578391911</ele>
        <time>2018-09-21T21:52:06.016Z</time>
      </trkpt>
      <trkpt lat="46.28147" lon="10.58237">
        <ele>2221</ele>
        <time>2018-09-21T21:52:14.001Z</time>
      </trkpt>
      <trkpt lat="46.28146" lon="10.58251">
        <ele>2220.15190016</ele>
        <time>2018-09-21T21:52:24.001Z</time>
      </trkpt>
      <trkpt lat="46.28143" lon="10.58264">
        <ele>2220.74809984</ele>
        <time>2018-09-21T21:52:33.001Z</time>
      </trkpt>
      <trkpt lat="46.2814" lon="10.58276">
        <ele>2221.74940032</ele>
        <time>2018-09-21T21:52:43.014Z</time>
      </trkpt>
      <trkpt lat="46.2814" lon="10.58289">
        <ele>2222</ele>
        <time>2018-09-21T21:52:54.002Z</time>
      </trkpt>
      <trkpt lat="46.28135" lon="10.58301">
        <ele>2222.8432402372</ele>
        <time>2018-09-21T21:53:04.001Z</time>
      </trkpt>
      <trkpt lat="46.28126" lon="10.58306">
        <ele>2223.74809984</ele>
        <time>2018-09-21T21:53:13.001Z</time>
      </trkpt>
      <trkpt lat="46.28117" lon="10.5831">
        <ele>2224</ele>
        <time>2018-09-21T21:53:21.001Z</time>
      </trkpt>
      <trkpt lat="46.28109" lon="10.58318">
        <ele>2224.4496</ele>
        <time>2018-09-21T21:53:30.016Z</time>
      </trkpt>
      <trkpt lat="46.281" lon="10.58324">
        <ele>2226.8992</ele>
        <time>2018-09-21T21:53:45.016Z</time>
      </trkpt>
      <trkpt lat="46.28095" lon="10.58337">
        <ele>2228.8534431493</ele>
        <time>2018-09-21T21:53:57.031Z</time>
      </trkpt>
      <trkpt lat="46.28089" lon="10.58346">
        <ele>2228.0349326594</ele>
        <time>2018-09-21T21:54:06.001Z</time>
      </trkpt>
      <trkpt lat="46.28083" lon="10.58356">
        <ele>2229.8764060075</ele>
        <time>2018-09-21T21:54:15.015Z</time>
      </trkpt>
      <trkpt lat="46.28074" lon="10.58363">
        <ele>2230</ele>
        <time>2018-09-21T21:54:23.001Z</time>
      </trkpt>
      <trkpt lat="46.28066" lon="10.58368">
        <ele>2230</ele>
        <time>2018-09-21T21:54:30.016Z</time>
      </trkpt>
      <trkpt lat="46.28059" lon="10.58379">
        <ele>2228.9048950745</ele>
        <time>2018-09-21T21:54:41.001Z</time>
      </trkpt>
      <trkpt lat="46.28055" lon="10.58391">
        <ele>2227.1036953778</ele>
        <time>2018-09-21T21:54:50.016Z</time>
      </trkpt>
      <trkpt lat="46.28059" lon="10.58404">
        <ele>2225.6531061142</ele>
        <time>2018-09-21T21:54:59.002Z</time>
      </trkpt>
      <trkpt lat="46.28062" lon="10.58417">
        <ele>2225</ele>
        <time>2018-09-21T21:55:09.001Z</time>
      </trkpt>
      <trkpt lat="46.28065" lon="10.5843">
        <ele>2225.29619968</ele>
        <time>2018-09-21T21:55:17.001Z</time>
      </trkpt>
      <trkpt lat="46.28068" lon="10.58443">
        <ele>2227.4413040316</ele>
        <time>2018-09-21T21:55:29.986Z</time>
      </trkpt>
      <trkpt lat="46.28067" lon="10.58456">
        <ele>2229.287651498</ele>
        <time>2018-09-21T21:55:42.001Z</time>
      </trkpt>
      <trkpt lat="46.28062" lon="10.58468">
        <ele>2230</ele>
        <time>2018-09-21T21:55:55.016Z</time>
      </trkpt>
      <trkpt lat="46.2806" lon="10.58481">
        <ele>2230</ele>
        <time>2018-09-21T21:56:08.001Z</time>
      </trkpt>
      <trkpt lat="46.28059" lon="10.58494">
        <ele>2229.85190016</ele>
        <time>2018-09-21T21:56:17.001Z</time>
      </trkpt>
      <trkpt lat="46.28053" lon="10.58504">
        <ele>2229.0504</ele>
        <time>2018-09-21T21:56:25.016Z</time>
      </trkpt>
      <trkpt lat="46.28054" lon="10.58518">
        <ele>2227.50380032</ele>
        <time>2018-09-21T21:56:33.001Z</time>
      </trkpt>
      <trkpt lat="46.28052" lon="10.58532">
        <ele>2227</ele>
        <time>2018-09-21T21:56:42.001Z</time>
      </trkpt>
      <trkpt lat="46.28047" lon="10.58545">
        <ele>2226.5504</ele>
        <time>2018-09-21T21:56:50.016Z</time>
      </trkpt>
      <trkpt lat="46.28045" lon="10.58558">
        <ele>2224.95570048</ele>
        <time>2018-09-21T21:56:59.001Z</time>
      </trkpt>
      <trkpt lat="46.28045" lon="10.58572">
        <ele>2223</ele>
        <time>2018-09-21T21:57:09.001Z</time>
      </trkpt>
      <trkpt lat="46.28038" lon="10.58584">
        <ele>2223</ele>
        <time>2018-09-21T21:57:17.001Z</time>
      </trkpt>
      <trkpt lat="46.28032" lon="10.58594">
        <ele>2223</ele>
        <time>2018-09-21T21:57:25.016Z</time>
      </trkpt>
      <trkpt lat="46.28026" lon="10.58605">
        <ele>2222.2596910579</ele>
        <time>2018-09-21T21:57:33.001Z</time>
      </trkpt>
      <trkpt lat="46.28021" lon="10.58616">
        <ele>2222</ele>
        <time>2018-09-21T21:57:45.016Z</time>
      </trkpt>
      <trkpt lat="46.28021" lon="10.5863">
        <ele>2219.1512</ele>
        <time>2018-09-21T21:57:55.016Z</time>
      </trkpt>
      <trkpt lat="46.28018" lon="10.58642">
        <ele>2216.7823127273</ele>
        <time>2018-09-21T21:58:03.001Z</time>
      </trkpt>
      <trkpt lat="46.28017" lon="10.58656">
        <ele>2216</ele>
        <time>2018-09-21T21:58:14.001Z</time>
      </trkpt>
      <trkpt lat="46.28013" lon="10.58669">
        <ele>2216</ele>
        <time>2018-09-21T21:58:25.016Z</time>
      </trkpt>
      <trkpt lat="46.28009" lon="10.58681">
        <ele>2215.1520521635</ele>
        <time>2018-09-21T21:58:34.001Z</time>
      </trkpt>
      <trkpt lat="46.28002" lon="10.58691">
        <ele>2215.84809984</ele>
        <time>2018-09-21T21:58:44.001Z</time>
      </trkpt>
      <trkpt lat="46.27997" lon="10.58701">
        <ele>2216</ele>
        <time>2018-09-21T21:58:52.001Z</time>
      </trkpt>
      <trkpt lat="46.27992" lon="10.58712">
        <ele>2214.7228612199</ele>
        <time>2018-09-21T21:59:02.001Z</time>
      </trkpt>
      <trkpt lat="46.27991" lon="10.58726">
        <ele>2212.7466288965</ele>
        <time>2018-09-21T21:59:12.001Z</time>
      </trkpt>
      <trkpt lat="46.27984" lon="10.58736">
        <ele>2212</ele>
        <time>2018-09-21T21:59:20.016Z</time>
      </trkpt>
      <trkpt lat="46.27977" lon="10.58746">
        <ele>2212</ele>
        <time>2018-09-21T21:59:29.001Z</time>
      </trkpt>
      <trkpt lat="46.27969" lon="10.58756">
        <ele>2211.7523952111</ele>
        <time>2018-09-21T21:59:38.001Z</time>
      </trkpt>
      <trkpt lat="46.27962" lon="10.58764">
        <ele>2211</ele>
        <time>2018-09-21T21:59:46.001Z</time>
      </trkpt>
      <trkpt lat="46.27955" lon="10.58772">
        <ele>2211</ele>
        <time>2018-09-21T21:59:53.001Z</time>
      </trkpt>
      <trkpt lat="46.27943" lon="10.58779">
        <ele>2209.1297504</ele>
        <time>2018-09-21T22:00:03.001Z</time>
      </trkpt>
      <trkpt lat="46.27935" lon="10.58786">
        <ele>2207.5520484482</ele>
        <time>2018-09-21T22:00:12.004Z</time>
      </trkpt>
      <trkpt lat="46.27925" lon="10.5879">
        <ele>2207</ele>
        <time>2018-09-21T22:00:21.004Z</time>
      </trkpt>
      <trkpt lat="46.27916" lon="10.58794">
        <ele>2206.85190016</ele>
        <time>2018-09-21T22:00:29.001Z</time>
      </trkpt>
      <trkpt lat="46.27906" lon="10.58798">
        <ele>2206.15180032</ele>
        <time>2018-09-21T22:00:36.002Z</time>
      </trkpt>
      <trkpt lat="46.27897" lon="10.58804">
        <ele>2204.721106606</ele>
        <time>2018-09-21T22:00:44.004Z</time>
      </trkpt>
      <trkpt lat="46.27888" lon="10.58805">
        <ele>2203.6836181818</ele>
        <time>2018-09-21T22:00:51.001Z</time>
      </trkpt>
      <trkpt lat="46.27879" lon="10.58808">
        <ele>2203.0206448485</ele>
        <time>2018-09-21T22:00:58.002Z</time>
      </trkpt>
      <trkpt lat="46.27868" lon="10.58808">
        <ele>2202.1632262629</ele>
        <time>2018-09-21T22:01:06.002Z</time>
      </trkpt>
      <trkpt lat="46.27859" lon="10.58808">
        <ele>2200.2231919836</ele>
        <time>2018-09-21T22:01:12.002Z</time>
      </trkpt>
      <trkpt lat="46.27849" lon="10.58809">
        <ele>2197.2722485498</ele>
        <time>2018-09-21T22:01:20.014Z</time>
      </trkpt>
      <trkpt lat="46.2784" lon="10.58813">
        <ele>2194.555242695</ele>
        <time>2018-09-21T22:01:29.004Z</time>
      </trkpt>
      <trkpt lat="46.27831" lon="10.58816">
        <ele>2192.1576395309</ele>
        <time>2018-09-21T22:01:37.004Z</time>
      </trkpt>
      <trkpt lat="46.27822" lon="10.5882">
        <ele>2191.131844889</ele>
        <time>2018-09-21T22:01:42.001Z</time>
      </trkpt>
      <trkpt lat="46.27813" lon="10.58822">
        <ele>2189.9462439015</ele>
        <time>2018-09-21T22:01:48.004Z</time>
      </trkpt>
      <trkpt lat="46.27804" lon="10.58822">
        <ele>2187.1655986807</ele>
        <time>2018-09-21T22:01:57.004Z</time>
      </trkpt>
      <trkpt lat="46.27794" lon="10.58821">
        <ele>2185.5026061707</ele>
        <time>2018-09-21T22:02:05.012Z</time>
      </trkpt>
      <trkpt lat="46.27784" lon="10.58823">
        <ele>2183.0586833109</ele>
        <time>2018-09-21T22:02:14.004Z</time>
      </trkpt>
      <trkpt lat="46.27775" lon="10.58825">
        <ele>2180.6991256451</ele>
        <time>2018-09-21T22:02:22.002Z</time>
      </trkpt>
      <trkpt lat="46.27766" lon="10.5883">
        <ele>2178.344890764</ele>
        <time>2018-09-21T22:02:31.004Z</time>
      </trkpt>
      <trkpt lat="46.27757" lon="10.58833">
        <ele>2176.30360064</ele>
        <time>2018-09-21T22:02:41.002Z</time>
      </trkpt>
      <trkpt lat="46.27757" lon="10.58848">
        <ele>2173.1077832225</ele>
        <time>2018-09-21T22:02:57.000Z</time>
      </trkpt>
      <trkpt lat="46.27764" lon="10.58855">
        <ele>2171</ele>
        <time>2018-09-21T22:03:14.014Z</time>
      </trkpt>
      <trkpt lat="46.27774" lon="10.58851">
        <ele>2173.2440138884</ele>
        <time>2018-09-21T22:03:25.015Z</time>
      </trkpt>
      <trkpt lat="46.27782" lon="10.58859">
        <ele>2174.7371871398</ele>
        <time>2018-09-21T22:03:40.015Z</time>
      </trkpt>
      <trkpt lat="46.27789" lon="10.58868">
        <ele>2177</ele>
        <time>2018-09-21T22:03:55.015Z</time>
      </trkpt>
      <trkpt lat="46.27795" lon="10.58878">
        <ele>2178.74820096</ele>
        <time>2018-09-21T22:04:10.014Z</time>
      </trkpt>
      <trkpt lat="46.27802" lon="10.58889">
        <ele>2181.84809984</ele>
        <time>2018-09-21T22:04:26.001Z</time>
      </trkpt>
      <trkpt lat="46.278" lon="10.58902">
        <ele>2183.09619968</ele>
        <time>2018-09-21T22:04:38.001Z</time>
      </trkpt>
      <trkpt lat="46.27797" lon="10.58914">
        <ele>2185.14809984</ele>
        <time>2018-09-21T22:04:49.001Z</time>
      </trkpt>
      <trkpt lat="46.27794" lon="10.58928">
        <ele>2187.4824927454</ele>
        <time>2018-09-21T22:05:05.014Z</time>
      </trkpt>
      <trkpt lat="46.2779" lon="10.5894">
        <ele>2189.24899968</ele>
        <time>2018-09-21T22:05:20.010Z</time>
      </trkpt>
      <trkpt lat="46.27789" lon="10.58953">
        <ele>2191.8220959299</ele>
        <time>2018-09-21T22:05:37.004Z</time>
      </trkpt>
      <trkpt lat="46.27786" lon="10.58966">
        <ele>2195</ele>
        <time>2018-09-21T22:05:52.014Z</time>
      </trkpt>
      <trkpt lat="46.27783" lon="10.58978">
        <ele>2197.148</ele>
        <time>2018-09-21T22:06:09.000Z</time>
      </trkpt>
      <trkpt lat="46.2778" lon="10.58991">
        <ele>2199.944</ele>
        <time>2018-09-21T22:06:24.000Z</time>
      </trkpt>
      <trkpt lat="46.27777" lon="10.59004">
        <ele>2201.981019934</ele>
        <time>2018-09-21T22:06:39.985Z</time>
      </trkpt>
      <trkpt lat="46.27776" lon="10.59017">
        <ele>2205</ele>
        <time>2018-09-21T22:06:53.000Z</time>
      </trkpt>
      <trkpt lat="46.27773" lon="10.5903">
        <ele>2206</ele>
        <time>2018-09-21T22:07:08.002Z</time>
      </trkpt>
      <trkpt lat="46.27769" lon="10.59042">
        <ele>2207.344</ele>
        <time>2018-09-21T22:07:22.000Z</time>
      </trkpt>
      <trkpt lat="46.27764" lon="10.59054">
        <ele>2209</ele>
        <time>2018-09-21T22:07:33.003Z</time>
      </trkpt>
      <trkpt lat="46.27762" lon="10.59067">
        <ele>2209</ele>
        <time>2018-09-21T22:07:44.000Z</time>
      </trkpt>
      <trkpt lat="46.27759" lon="10.59081">
        <ele>2210.8969043427</ele>
        <time>2018-09-21T22:07:57.014Z</time>
      </trkpt>
      <trkpt lat="46.27758" lon="10.59094">
        <ele>2212.04459904</ele>
        <time>2018-09-21T22:08:11.002Z</time>
      </trkpt>
      <trkpt lat="46.27752" lon="10.59105">
        <ele>2214</ele>
        <time>2018-09-21T22:08:26.000Z</time>
      </trkpt>
      <trkpt lat="46.27746" lon="10.59116">
        <ele>2216.1406934554</ele>
        <time>2018-09-21T22:08:39.031Z</time>
      </trkpt>
      <trkpt lat="46.27741" lon="10.59126">
        <ele>2218.0073407567</ele>
        <time>2018-09-21T22:08:51.004Z</time>
      </trkpt>
      <trkpt lat="46.27734" lon="10.59135">
        <ele>2220</ele>
        <time>2018-09-21T22:09:03.012Z</time>
      </trkpt>
      <trkpt lat="46.2773" lon="10.59147">
        <ele>2220.84839936</ele>
        <time>2018-09-21T22:09:16.004Z</time>
      </trkpt>
      <trkpt lat="46.27724" lon="10.59157">
        <ele>2221.9500505734</ele>
        <time>2018-09-21T22:09:27.030Z</time>
      </trkpt>
      <trkpt lat="46.27717" lon="10.59166">
        <ele>2223.148</ele>
        <time>2018-09-21T22:09:39.000Z</time>
      </trkpt>
      <trkpt lat="46.27711" lon="10.59177">
        <ele>2225.29639936</ele>
        <time>2018-09-21T22:09:54.002Z</time>
      </trkpt>
      <trkpt lat="46.27706" lon="10.59188">
        <ele>2226.84819968</ele>
        <time>2018-09-21T22:10:06.002Z</time>
      </trkpt>
      <trkpt lat="46.277" lon="10.59199">
        <ele>2228.5540939306</ele>
        <time>2018-09-21T22:10:19.000Z</time>
      </trkpt>
      <trkpt lat="46.27694" lon="10.59209">
        <ele>2232.6963048779</ele>
        <time>2018-09-21T22:10:31.005Z</time>
      </trkpt>
      <trkpt lat="46.27689" lon="10.59219">
        <ele>2234</ele>
        <time>2018-09-21T22:10:47.005Z</time>
      </trkpt>
      <trkpt lat="46.27684" lon="10.59231">
        <ele>2238.0992</ele>
        <time>2018-09-21T22:11:03.016Z</time>
      </trkpt>
      <trkpt lat="46.27678" lon="10.59241">
        <ele>2239</ele>
        <time>2018-09-21T22:11:17.000Z</time>
      </trkpt>
      <trkpt lat="46.27673" lon="10.59253">
        <ele>2240.896</ele>
        <time>2018-09-21T22:11:32.000Z</time>
      </trkpt>
      <trkpt lat="46.27682" lon="10.59257">
        <ele>2244.670972562</ele>
        <time>2018-09-21T22:12:00.005Z</time>
      </trkpt>
      <trkpt lat="46.2769" lon="10.59252">
        <ele>2247</ele>
        <time>2018-09-21T22:12:14.010Z</time>
      </trkpt>
      <trkpt lat="46.27699" lon="10.59248">
        <ele>2250.85049984</ele>
        <time>2018-09-21T22:12:29.015Z</time>
      </trkpt>
      <trkpt lat="46.27707" lon="10.59246">
        <ele>2250.54809984</ele>
        <time>2018-09-21T22:12:43.001Z</time>
      </trkpt>
      <trkpt lat="46.27714" lon="10.59238">
        <ele>2252.2454824096</ele>
        <time>2018-09-21T22:13:00.005Z</time>
      </trkpt>
      <trkpt lat="46.27723" lon="10.59233">
        <ele>2253.64950016</ele>
        <time>2018-09-21T22:13:14.015Z</time>
      </trkpt>
      <trkpt lat="46.27731" lon="10.59228">
        <ele>2255.8706115215</ele>
        <time>2018-09-21T22:13:27.004Z</time>
      </trkpt>
      <trkpt lat="46.2774" lon="10.59223">
        <ele>2258.34940032</ele>
        <time>2018-09-21T22:13:41.014Z</time>
      </trkpt>
      <trkpt lat="46.27749" lon="10.59219">
        <ele>2259.6474577396</ele>
        <time>2018-09-21T22:13:54.014Z</time>
      </trkpt>
      <trkpt lat="46.27758" lon="10.59212">
        <ele>2261.8984960958</ele>
        <time>2018-09-21T22:14:07.014Z</time>
      </trkpt>
      <trkpt lat="46.27767" lon="10.59206">
        <ele>2263.0367958736</ele>
        <time>2018-09-21T22:14:21.014Z</time>
      </trkpt>
      <trkpt lat="46.27776" lon="10.59202">
        <ele>2265</ele>
        <time>2018-09-21T22:14:36.014Z</time>
      </trkpt>
      <trkpt lat="46.27785" lon="10.59202">
        <ele>2267.34550144</ele>
        <time>2018-09-21T22:14:52.005Z</time>
      </trkpt>
      <trkpt lat="46.27793" lon="10.592">
        <ele>2271</ele>
        <time>2018-09-21T22:15:11.000Z</time>
      </trkpt>
      <trkpt lat="46.27803" lon="10.59205">
        <ele>2274.4970056667</ele>
        <time>2018-09-21T22:15:30.010Z</time>
      </trkpt>
      <trkpt lat="46.27812" lon="10.59204">
        <ele>2276.49900032</ele>
        <time>2018-09-21T22:15:50.015Z</time>
      </trkpt>
      <trkpt lat="46.2782" lon="10.59197">
        <ele>2279.6422180549</ele>
        <time>2018-09-21T22:16:03.005Z</time>
      </trkpt>
      <trkpt lat="46.2783" lon="10.59192">
        <ele>2281</ele>
        <time>2018-09-21T22:16:12.004Z</time>
      </trkpt>
      <trkpt lat="46.27833" lon="10.59205">
        <ele>2285.49799936</ele>
        <time>2018-09-21T22:16:40.010Z</time>
      </trkpt>
      <trkpt lat="46.27824" lon="10.5921">
        <ele>2289.84489856</ele>
        <time>2018-09-21T22:16:57.003Z</time>
      </trkpt>
      <trkpt lat="46.27818" lon="10.5922">
        <ele>2290.5456626774</ele>
        <time>2018-09-21T22:17:13.003Z</time>
      </trkpt>
      <trkpt lat="46.27813" lon="10.59231">
        <ele>2293.8188054348</ele>
        <time>2018-09-21T22:17:27.003Z</time>
      </trkpt>
      <trkpt lat="46.27822" lon="10.59234">
        <ele>2296.0475483331</ele>
        <time>2018-09-21T22:17:58.005Z</time>
      </trkpt>
      <trkpt lat="46.27831" lon="10.59236">
        <ele>2297.2387219326</ele>
        <time>2018-09-21T22:18:09.986Z</time>
      </trkpt>
      <trkpt lat="46.2784" lon="10.59235">
        <ele>2298</ele>
        <time>2018-09-21T22:18:23.000Z</time>
      </trkpt>
      <trkpt lat="46.27833" lon="10.59246">
        <ele>2303</ele>
        <time>2018-09-21T22:18:57.003Z</time>
      </trkpt>
      <trkpt lat="46.27826" lon="10.59255">
        <ele>2306</ele>
        <time>2018-09-21T22:19:14.004Z</time>
      </trkpt>
      <trkpt lat="46.27821" lon="10.59266">
        <ele>2309</ele>
        <time>2018-09-21T22:19:29.003Z</time>
      </trkpt>
      <trkpt lat="46.27814" lon="10.59276">
        <ele>2311.7338009224</ele>
        <time>2018-09-21T22:19:43.004Z</time>
      </trkpt>
      <trkpt lat="46.27823" lon="10.59279">
        <ele>2314.65159936</ele>
        <time>2018-09-21T22:20:01.004Z</time>
      </trkpt>
      <trkpt lat="46.27832" lon="10.5928">
        <ele>2316.24850048</ele>
        <time>2018-09-21T22:20:15.015Z</time>
      </trkpt>
      <trkpt lat="46.27841" lon="10.59281">
        <ele>2317.4409134647</ele>
        <time>2018-09-21T22:20:32.030Z</time>
      </trkpt>
      <trkpt lat="46.2785" lon="10.59281">
        <ele>2320.89679872</ele>
        <time>2018-09-21T22:20:52.004Z</time>
      </trkpt>
      <trkpt lat="46.2786" lon="10.59279">
        <ele>2322.84850048</ele>
        <time>2018-09-21T22:21:06.005Z</time>
      </trkpt>
      <trkpt lat="46.27869" lon="10.5928">
        <ele>2324.5713588016</ele>
        <time>2018-09-21T22:21:22.005Z</time>
      </trkpt>
      <trkpt lat="46.27878" lon="10.59282">
        <ele>2328.5850111324</ele>
        <time>2018-09-21T22:21:37.005Z</time>
      </trkpt>
      <trkpt lat="46.27873" lon="10.59292">
        <ele>2333.4981030164</ele>
        <time>2018-09-21T22:22:10.013Z</time>
      </trkpt>
      <trkpt lat="46.27867" lon="10.59303">
        <ele>2335</ele>
        <time>2018-09-21T22:22:26.003Z</time>
      </trkpt>
      <trkpt lat="46.2786" lon="10.59312">
        <ele>2338.44550144</ele>
        <time>2018-09-21T22:22:39.005Z</time>
      </trkpt>
      <trkpt lat="46.27858" lon="10.59325">
        <ele>2341</ele>
        <time>2018-09-21T22:22:55.009Z</time>
      </trkpt>
      <trkpt lat="46.27856" lon="10.59338">
        <ele>2343</ele>
        <time>2018-09-21T22:23:15.013Z</time>
      </trkpt>
      <trkpt lat="46.27853" lon="10.59352">
        <ele>2349.0835854449</ele>
        <time>2018-09-21T22:23:38.005Z</time>
      </trkpt>
      <trkpt lat="46.2785" lon="10.59364">
        <ele>2352.6949046777</ele>
        <time>2018-09-21T22:23:56.003Z</time>
      </trkpt>
      <trkpt lat="46.27847" lon="10.59377">
        <ele>2354.3856869117</ele>
        <time>2018-09-21T22:24:11.005Z</time>
      </trkpt>
      <trkpt lat="46.27845" lon="10.59389">
        <ele>2357</ele>
        <time>2018-09-21T22:24:22.005Z</time>
      </trkpt>
      <trkpt lat="46.27844" lon="10.59403">
        <ele>2357.5457717957</ele>
        <time>2018-09-21T22:24:33.005Z</time>
      </trkpt>
      <trkpt lat="46.27848" lon="10.59414">
        <ele>2358.4220007517</ele>
        <time>2018-09-21T22:24:49.004Z</time>
      </trkpt>
      <trkpt lat="46.27857" lon="10.59414">
        <ele>2362</ele>
        <time>2018-09-21T22:25:11.004Z</time>
      </trkpt>
      <trkpt lat="46.2786" lon="10.59427">
        <ele>2362</ele>
        <time>2018-09-21T22:25:23.004Z</time>
      </trkpt>
      <trkpt lat="46.27865" lon="10.59437">
        <ele>2362.6456911556</ele>
        <time>2018-09-21T22:25:34.004Z</time>
      </trkpt>
      <trkpt lat="46.27873" lon="10.59445">
        <ele>2364.2889327892</ele>
        <time>2018-09-21T22:25:44.004Z</time>
      </trkpt>
      <trkpt lat="46.2788" lon="10.59454">
        <ele>2365</ele>
        <time>2018-09-21T22:25:55.974Z</time>
      </trkpt>
      <trkpt lat="46.27887" lon="10.59464">
        <ele>2367.04839936</ele>
        <time>2018-09-21T22:26:08.004Z</time>
      </trkpt>
      <trkpt lat="46.27895" lon="10.59473">
        <ele>2368.1476623754</ele>
        <time>2018-09-21T22:26:19.004Z</time>
      </trkpt>
      <trkpt lat="46.27903" lon="10.5948">
        <ele>2369.1438325035</ele>
        <time>2018-09-21T22:26:29.004Z</time>
      </trkpt>
      <trkpt lat="46.2791" lon="10.59488">
        <ele>2370.2963203538</ele>
        <time>2018-09-21T22:26:39.029Z</time>
      </trkpt>
      <trkpt lat="46.27918" lon="10.59497">
        <ele>2372</ele>
        <time>2018-09-21T22:26:49.004Z</time>
      </trkpt>
      <trkpt lat="46.27926" lon="10.59502">
        <ele>2373.8813942707</ele>
        <time>2018-09-21T22:27:07.004Z</time>
      </trkpt>
      <trkpt lat="46.27936" lon="10.59504">
        <ele>2376.64839936</ele>
        <time>2018-09-21T22:27:24.004Z</time>
      </trkpt>
      <trkpt lat="46.27945" lon="10.59509">
        <ele>2381.9065649421</ele>
        <time>2018-09-21T22:27:38.004Z</time>
      </trkpt>
      <trkpt lat="46.27955" lon="10.5951">
        <ele>2380.1191913693</ele>
        <time>2018-09-21T22:27:49.029Z</time>
      </trkpt>
      <trkpt lat="46.27964" lon="10.59512">
        <ele>2382.7846746379</ele>
        <time>2018-09-21T22:28:02.004Z</time>
      </trkpt>
      <trkpt lat="46.27972" lon="10.59516">
        <ele>2385</ele>
        <time>2018-09-21T22:28:16.002Z</time>
      </trkpt>
      <trkpt lat="46.27981" lon="10.59521">
        <ele>2388.9474534897</ele>
        <time>2018-09-21T22:28:37.004Z</time>
      </trkpt>
      <trkpt lat="46.2799" lon="10.59524">
        <ele>2390</ele>
        <time>2018-09-21T22:28:56.004Z</time>
      </trkpt>
      <trkpt lat="46.27998" lon="10.59528">
        <ele>2391.59300974</ele>
        <time>2018-09-21T22:29:09.004Z</time>
      </trkpt>
      <trkpt lat="46.28008" lon="10.5953">
        <ele>2396.5900618115</ele>
        <time>2018-09-21T22:29:29.004Z</time>
      </trkpt>
      <trkpt lat="46.28015" lon="10.59537">
        <ele>2400</ele>
        <time>2018-09-21T22:29:46.004Z</time>
      </trkpt>
      <trkpt lat="46.28024" lon="10.59541">
        <ele>2403</ele>
        <time>2018-09-21T22:29:58.004Z</time>
      </trkpt>
      <trkpt lat="46.28032" lon="10.59548">
        <ele>2403.5467601845</ele>
        <time>2018-09-21T22:30:13.004Z</time>
      </trkpt>
      <trkpt lat="46.28041" lon="10.59553">
        <ele>2406.9417443553</ele>
        <time>2018-09-21T22:30:28.003Z</time>
      </trkpt>
      <trkpt lat="46.28048" lon="10.59561">
        <ele>2407.84839936</ele>
        <time>2018-09-21T22:30:46.004Z</time>
      </trkpt>
      <trkpt lat="46.28056" lon="10.5957">
        <ele>2409.6530459123</ele>
        <time>2018-09-21T22:31:01.004Z</time>
      </trkpt>
      <trkpt lat="46.28063" lon="10.59578">
        <ele>2415</ele>
        <time>2018-09-21T22:31:25.014Z</time>
      </trkpt>
      <trkpt lat="46.28062" lon="10.59591">
        <ele>2415.147609243</ele>
        <time>2018-09-21T22:31:39.002Z</time>
      </trkpt>
      <trkpt lat="46.28059" lon="10.59605">
        <ele>2417.2939746185</ele>
        <time>2018-09-21T22:31:54.004Z</time>
      </trkpt>
      <trkpt lat="46.28059" lon="10.59618">
        <ele>2418.0929859123</ele>
        <time>2018-09-21T22:32:08.004Z</time>
      </trkpt>
      <trkpt lat="46.28057" lon="10.59632">
        <ele>2420</ele>
        <time>2018-09-21T22:32:23.004Z</time>
      </trkpt>
      <trkpt lat="46.28061" lon="10.59644">
        <ele>2421.1478094024</ele>
        <time>2018-09-21T22:32:39.004Z</time>
      </trkpt>
      <trkpt lat="46.28064" lon="10.59657">
        <ele>2423.4967877912</ele>
        <time>2018-09-21T22:32:55.014Z</time>
      </trkpt>
      <trkpt lat="46.28064" lon="10.59671">
        <ele>2425.5695885823</ele>
        <time>2018-09-21T22:33:09.004Z</time>
      </trkpt>
      <trkpt lat="46.28066" lon="10.59684">
        <ele>2429</ele>
        <time>2018-09-21T22:33:20.014Z</time>
      </trkpt>
      <trkpt lat="46.28068" lon="10.59697">
        <ele>2429.643686505</ele>
        <time>2018-09-21T22:33:34.004Z</time>
      </trkpt>
      <trkpt lat="46.2807" lon="10.5971">
        <ele>2430.9194734428</ele>
        <time>2018-09-21T22:33:47.003Z</time>
      </trkpt>
      <trkpt lat="46.28073" lon="10.59722">
        <ele>2434.5162263794</ele>
        <time>2018-09-21T22:34:04.003Z</time>
      </trkpt>
      <trkpt lat="46.28072" lon="10.59736">
        <ele>2438.44839936</ele>
        <time>2018-09-21T22:34:22.004Z</time>
      </trkpt>
      <trkpt lat="46.28075" lon="10.59748">
        <ele>2440.0393192503</ele>
        <time>2018-09-21T22:34:41.004Z</time>
      </trkpt>
      <trkpt lat="46.28081" lon="10.59759">
        <ele>2443.4902722536</ele>
        <time>2018-09-21T22:35:00.014Z</time>
      </trkpt>
      <trkpt lat="46.28081" lon="10.59772">
        <ele>2446.1449805623</ele>
        <time>2018-09-21T22:35:19.004Z</time>
      </trkpt>
      <trkpt lat="46.28078" lon="10.59785">
        <ele>2447.6432533333</ele>
        <time>2018-09-21T22:35:34.004Z</time>
      </trkpt>
      <trkpt lat="46.28079" lon="10.59798">
        <ele>2450.9359337916</ele>
        <time>2018-09-21T22:35:48.003Z</time>
      </trkpt>
      <trkpt lat="46.28079" lon="10.59812">
        <ele>2453.7279164659</ele>
        <time>2018-09-21T22:36:03.004Z</time>
      </trkpt>
      <trkpt lat="46.2808" lon="10.59825">
        <ele>2456</ele>
        <time>2018-09-21T22:36:15.014Z</time>
      </trkpt>
      <trkpt lat="46.28089" lon="10.59832">
        <ele>2460.6383943273</ele>
        <time>2018-09-21T22:36:43.004Z</time>
      </trkpt>
      <trkpt lat="46.28098" lon="10.59827">
        <ele>2462</ele>
        <time>2018-09-21T22:36:56.002Z</time>
      </trkpt>
      <trkpt lat="46.28107" lon="10.59824">
        <ele>2465</ele>
        <time>2018-09-21T22:37:09.034Z</time>
      </trkpt>
      <trkpt lat="46.28116" lon="10.59823">
        <ele>2465</ele>
        <time>2018-09-21T22:37:23.003Z</time>
      </trkpt>
      <trkpt lat="46.28126" lon="10.59824">
        <ele>2465.7501502302</ele>
        <time>2018-09-21T22:37:35.014Z</time>
      </trkpt>
      <trkpt lat="46.28135" lon="10.59822">
        <ele>2468.2442756627</ele>
        <time>2018-09-21T22:37:55.011Z</time>
      </trkpt>
      <trkpt lat="46.28144" lon="10.59824">
        <ele>2472</ele>
        <time>2018-09-21T22:38:15.014Z</time>
      </trkpt>
      <trkpt lat="46.28153" lon="10.59828">
        <ele>2473.0409817773</ele>
        <time>2018-09-21T22:38:31.003Z</time>
      </trkpt>
      <trkpt lat="46.28162" lon="10.59829">
        <ele>2477</ele>
        <time>2018-09-21T22:38:52.004Z</time>
      </trkpt>
      <trkpt lat="46.28171" lon="10.59827">
        <ele>2480.0436178109</ele>
        <time>2018-09-21T22:39:08.014Z</time>
      </trkpt>
      <trkpt lat="46.28166" lon="10.59816">
        <ele>2482.2843562555</ele>
        <time>2018-09-21T22:39:24.016Z</time>
      </trkpt>
      <trkpt lat="46.2816" lon="10.59807">
        <ele>2485.24509952</ele>
        <time>2018-09-21T22:39:39.971Z</time>
      </trkpt>
      <trkpt lat="46.28169" lon="10.59809">
        <ele>2488.4703136064</ele>
        <time>2018-09-21T22:39:59.971Z</time>
      </trkpt>
      <trkpt lat="46.28178" lon="10.59806">
        <ele>2492.6212769803</ele>
        <time>2018-09-21T22:40:24.014Z</time>
      </trkpt>
      <trkpt lat="46.28186" lon="10.59803">
        <ele>2495.1556533333</ele>
        <time>2018-09-21T22:40:48.033Z</time>
      </trkpt>
      <trkpt lat="46.28196" lon="10.598">
        <ele>2499.1962225394</ele>
        <time>2018-09-21T22:41:08.004Z</time>
      </trkpt>
      <trkpt lat="46.28192" lon="10.59788">
        <ele>2505.0478129318</ele>
        <time>2018-09-21T22:41:48.001Z</time>
      </trkpt>
      <trkpt lat="46.28184" lon="10.5978">
        <ele>2507.4931583054</ele>
        <time>2018-09-21T22:42:05.001Z</time>
      </trkpt>
      <trkpt lat="46.28194" lon="10.59778">
        <ele>2513.1425406452</ele>
        <time>2018-09-21T22:42:39.014Z</time>
      </trkpt>
      <trkpt lat="46.28202" lon="10.59772">
        <ele>2521.7747301173</ele>
        <time>2018-09-21T22:43:17.004Z</time>
      </trkpt>
      <trkpt lat="46.28211" lon="10.5977">
        <ele>2525.9597519785</ele>
        <time>2018-09-21T22:43:45.000Z</time>
      </trkpt>
      <trkpt lat="46.28218" lon="10.5976">
        <ele>2529.6441473016</ele>
        <time>2018-09-21T22:44:04.013Z</time>
      </trkpt>
      <trkpt lat="46.28226" lon="10.59752">
        <ele>2532</ele>
        <time>2018-09-21T22:44:24.014Z</time>
      </trkpt>
      <trkpt lat="46.28234" lon="10.59747">
        <ele>2538.3432464516</ele>
        <time>2018-09-21T22:44:51.005Z</time>
      </trkpt>
      <trkpt lat="46.28243" lon="10.59752">
        <ele>2539</ele>
        <time>2018-09-21T22:45:03.002Z</time>
      </trkpt>
      <trkpt lat="46.28252" lon="10.59755">
        <ele>2539</ele>
        <time>2018-09-21T22:45:17.003Z</time>
      </trkpt>
      <trkpt lat="46.28258" lon="10.59764">
        <ele>2542.152852964</ele>
        <time>2018-09-21T22:45:36.003Z</time>
      </trkpt>
      <trkpt lat="46.28268" lon="10.59766">
        <ele>2542</ele>
        <time>2018-09-21T22:45:47.014Z</time>
      </trkpt>
      <trkpt lat="46.28278" lon="10.59769">
        <ele>2545.3041905336</ele>
        <time>2018-09-21T22:45:59.044Z</time>
      </trkpt>
      <trkpt lat="46.28285" lon="10.59776">
        <ele>2547.0478087649</ele>
        <time>2018-09-21T22:46:18.000Z</time>
      </trkpt>
      <trkpt lat="46.28294" lon="10.59779">
        <ele>2549.281031728</ele>
        <time>2018-09-21T22:46:34.010Z</time>
      </trkpt>
      <trkpt lat="46.28304" lon="10.59782">
        <ele>2553</ele>
        <time>2018-09-21T22:46:49.039Z</time>
      </trkpt>
      <trkpt lat="46.28314" lon="10.59781">
        <ele>2552.3039834263</ele>
        <time>2018-09-21T22:47:01.014Z</time>
      </trkpt>
      <trkpt lat="46.28323" lon="10.59784">
        <ele>2551</ele>
        <time>2018-09-21T22:47:11.001Z</time>
      </trkpt>
      <trkpt lat="46.28331" lon="10.59792">
        <ele>2551.1922516172</ele>
        <time>2018-09-21T22:47:28.004Z</time>
      </trkpt>
      <trkpt lat="46.28339" lon="10.59798">
        <ele>2556.291750047</ele>
        <time>2018-09-21T22:47:44.010Z</time>
      </trkpt>
      <trkpt lat="46.28347" lon="10.59804">
        <ele>2558</ele>
        <time>2018-09-21T22:48:02.002Z</time>
      </trkpt>
      <trkpt lat="46.28357" lon="10.59807">
        <ele>2558</ele>
        <time>2018-09-21T22:48:11.003Z</time>
      </trkpt>
      <trkpt lat="46.28365" lon="10.59814">
        <ele>2559.0900292737</ele>
        <time>2018-09-21T22:48:23.002Z</time>
      </trkpt>
      <trkpt lat="46.28372" lon="10.59824">
        <ele>2560</ele>
        <time>2018-09-21T22:48:31.002Z</time>
      </trkpt>
      <trkpt lat="46.28378" lon="10.59834">
        <ele>2560.34819968</ele>
        <time>2018-09-21T22:48:41.002Z</time>
      </trkpt>
      <trkpt lat="46.28383" lon="10.59847">
        <ele>2561.3470125896</ele>
        <time>2018-09-21T22:48:51.004Z</time>
      </trkpt>
      <trkpt lat="46.28387" lon="10.59859">
        <ele>2562.2453808835</ele>
        <time>2018-09-21T22:49:00.004Z</time>
      </trkpt>
      <trkpt lat="46.28395" lon="10.59866">
        <ele>2563.73559808</ele>
        <time>2018-09-21T22:49:09.972Z</time>
      </trkpt>
      <trkpt lat="46.28403" lon="10.59873">
        <ele>2566</ele>
        <time>2018-09-21T22:49:24.012Z</time>
      </trkpt>
      <trkpt lat="46.2841" lon="10.59881">
        <ele>2566</ele>
        <time>2018-09-21T22:49:35.001Z</time>
      </trkpt>
      <trkpt lat="46.28416" lon="10.59892">
        <ele>2567.1467692642</ele>
        <time>2018-09-21T22:49:49.042Z</time>
      </trkpt>
      <trkpt lat="46.28421" lon="10.59902">
        <ele>2568.4269988197</ele>
        <time>2018-09-21T22:50:02.002Z</time>
      </trkpt>
      <trkpt lat="46.28429" lon="10.59911">
        <ele>2572.2420172404</ele>
        <time>2018-09-21T22:50:14.017Z</time>
      </trkpt>
      <trkpt lat="46.28437" lon="10.59913">
        <ele>2575</ele>
        <time>2018-09-21T22:50:28.002Z</time>
      </trkpt>
      <trkpt lat="46.28447" lon="10.59914">
        <ele>2575.05180032</ele>
        <time>2018-09-21T22:51:07.002Z</time>
      </trkpt>
      <trkpt lat="46.28456" lon="10.59919">
        <ele>2569.0260207266</ele>
        <time>2018-09-21T22:51:19.972Z</time>
      </trkpt>
      <trkpt lat="46.28459" lon="10.59932">
        <ele>2564.6255811885</ele>
        <time>2018-09-21T22:51:31.002Z</time>
      </trkpt>
      <trkpt lat="46.28459" lon="10.59945">
        <ele>2561.2734203953</ele>
        <time>2018-09-21T22:51:39.971Z</time>
      </trkpt>
      <trkpt lat="46.28466" lon="10.59955">
        <ele>2558.5818830769</ele>
        <time>2018-09-21T22:51:49.017Z</time>
      </trkpt>
      <trkpt lat="46.28468" lon="10.59969">
        <ele>2554.622355807</ele>
        <time>2018-09-21T22:52:01.002Z</time>
      </trkpt>
      <trkpt lat="46.28471" lon="10.59981">
        <ele>2551.5796981525</ele>
        <time>2018-09-21T22:52:09.017Z</time>
      </trkpt>
      <trkpt lat="46.28475" lon="10.59994">
        <ele>2549.4630306024</ele>
        <time>2018-09-21T22:52:16.002Z</time>
      </trkpt>
      <trkpt lat="46.28477" lon="10.60007">
        <ele>2546.0082091665</ele>
        <time>2018-09-21T22:52:25.002Z</time>
      </trkpt>
      <trkpt lat="46.28477" lon="10.60022">
        <ele>2542.4101690416</ele>
        <time>2018-09-21T22:52:34.014Z</time>
      </trkpt>
      <trkpt lat="46.28476" lon="10.60036">
        <ele>2540.3075236293</ele>
        <time>2018-09-21T22:52:41.002Z</time>
      </trkpt>
      <trkpt lat="46.28486" lon="10.60036">
        <ele>2537.656</ele>
        <time>2018-09-21T22:52:52.000Z</time>
      </trkpt>
      <trkpt lat="46.28489" lon="10.60022">
        <ele>2535.8598659094</ele>
        <time>2018-09-21T22:52:58.003Z</time>
      </trkpt>
      <trkpt lat="46.28496" lon="10.60012">
        <ele>2533.5393606433</ele>
        <time>2018-09-21T22:53:06.001Z</time>
      </trkpt>
      <trkpt lat="46.28503" lon="10.60003">
        <ele>2531.7357287979</ele>
        <time>2018-09-21T22:53:14.017Z</time>
      </trkpt>
      <trkpt lat="46.28508" lon="10.5999">
        <ele>2530.455443871</ele>
        <time>2018-09-21T22:53:23.002Z</time>
      </trkpt>
      <trkpt lat="46.2851" lon="10.59977">
        <ele>2527.9205992185</ele>
        <time>2018-09-21T22:53:31.003Z</time>
      </trkpt>
      <trkpt lat="46.28518" lon="10.59982">
        <ele>2521.1561818191</ele>
        <time>2018-09-21T22:53:47.002Z</time>
      </trkpt>
      <trkpt lat="46.28526" lon="10.59992">
        <ele>2518.4115544223</ele>
        <time>2018-09-21T22:53:54.017Z</time>
      </trkpt>
      <trkpt lat="46.2853" lon="10.60004">
        <ele>2514.7700819277</ele>
        <time>2018-09-21T22:54:02.002Z</time>
      </trkpt>
      <trkpt lat="46.28529" lon="10.60017">
        <ele>2511.8493575947</ele>
        <time>2018-09-21T22:54:09.043Z</time>
      </trkpt>
      <trkpt lat="46.28538" lon="10.60018">
        <ele>2510.5817535484</ele>
        <time>2018-09-21T22:54:19.013Z</time>
      </trkpt>
      <trkpt lat="46.28547" lon="10.60011">
        <ele>2508</ele>
        <time>2018-09-21T22:54:28.002Z</time>
      </trkpt>
      <trkpt lat="46.28556" lon="10.60009">
        <ele>2508</ele>
        <time>2018-09-21T22:54:35.002Z</time>
      </trkpt>
      <trkpt lat="46.28566" lon="10.60007">
        <ele>2508</ele>
        <time>2018-09-21T22:54:43.001Z</time>
      </trkpt>
      <trkpt lat="46.28573" lon="10.60015">
        <ele>2508</ele>
        <time>2018-09-21T22:54:54.017Z</time>
      </trkpt>
      <trkpt lat="46.28573" lon="10.60029">
        <ele>2507.0093747527</ele>
        <time>2018-09-21T22:55:00.004Z</time>
      </trkpt>
      <trkpt lat="46.28574" lon="10.60043">
        <ele>2503.8652105703</ele>
        <time>2018-09-21T22:55:08.002Z</time>
      </trkpt>
      <trkpt lat="46.28581" lon="10.60051">
        <ele>2502.0714713775</ele>
        <time>2018-09-21T22:55:14.017Z</time>
      </trkpt>
      <trkpt lat="46.2858" lon="10.60066">
        <ele>2500.2764876605</ele>
        <time>2018-09-21T22:55:20.000Z</time>
      </trkpt>
      <trkpt lat="46.28578" lon="10.60078">
        <ele>2498.7628655458</ele>
        <time>2018-09-21T22:55:25.000Z</time>
      </trkpt>
      <trkpt lat="46.28581" lon="10.60091">
        <ele>2497.5531410399</ele>
        <time>2018-09-21T22:55:32.002Z</time>
      </trkpt>
      <trkpt lat="46.28586" lon="10.60102">
        <ele>2496.855183054</ele>
        <time>2018-09-21T22:55:39.017Z</time>
      </trkpt>
      <trkpt lat="46.28589" lon="10.60115">
        <ele>2496.0669302482</ele>
        <time>2018-09-21T22:55:47.002Z</time>
      </trkpt>
      <trkpt lat="46.28588" lon="10.60128">
        <ele>2494.3765229268</ele>
        <time>2018-09-21T22:55:53.005Z</time>
      </trkpt>
      <trkpt lat="46.28579" lon="10.60133">
        <ele>2492.40320256</ele>
        <time>2018-09-21T22:55:59.012Z</time>
      </trkpt>
      <trkpt lat="46.28568" lon="10.60136">
        <ele>2489.60720128</ele>
        <time>2018-09-21T22:56:06.002Z</time>
      </trkpt>
      <trkpt lat="46.28559" lon="10.60139">
        <ele>2487.989376</ele>
        <time>2018-09-21T22:56:18.001Z</time>
      </trkpt>
      <trkpt lat="46.2855" lon="10.60136">
        <ele>2485</ele>
        <time>2018-09-21T22:57:22.003Z</time>
      </trkpt>
      <trkpt lat="46.28558" lon="10.60142">
        <ele>2485.24909952</ele>
        <time>2018-09-21T22:57:30.011Z</time>
      </trkpt>
      <trkpt lat="46.28551" lon="10.60133">
        <ele>2486</ele>
        <time>2018-09-21T22:58:57.001Z</time>
      </trkpt>
      <trkpt lat="46.28561" lon="10.60136">
        <ele>2485.8504</ele>
        <time>2018-09-21T22:59:09.016Z</time>
      </trkpt>
      <trkpt lat="46.2857" lon="10.60143">
        <ele>2485.25059968</ele>
        <time>2018-09-21T22:59:15.014Z</time>
      </trkpt>
      <trkpt lat="46.28575" lon="10.60154">
        <ele>2484.0430090007</ele>
        <time>2018-09-21T22:59:20.001Z</time>
      </trkpt>
      <trkpt lat="46.2858" lon="10.60167">
        <ele>2480.9647980179</ele>
        <time>2018-09-21T22:59:28.003Z</time>
      </trkpt>
      <trkpt lat="46.28576" lon="10.6018">
        <ele>2478.4719609647</ele>
        <time>2018-09-21T22:59:36.005Z</time>
      </trkpt>
      <trkpt lat="46.28569" lon="10.60187">
        <ele>2477.65159936</ele>
        <time>2018-09-21T22:59:41.004Z</time>
      </trkpt>
      <trkpt lat="46.28569" lon="10.602">
        <ele>2477</ele>
        <time>2018-09-21T22:59:48.001Z</time>
      </trkpt>
      <trkpt lat="46.28578" lon="10.60205">
        <ele>2477</ele>
        <time>2018-09-21T22:59:55.001Z</time>
      </trkpt>
      <trkpt lat="46.28586" lon="10.60213">
        <ele>2474.3014858148</ele>
        <time>2018-09-21T23:00:03.001Z</time>
      </trkpt>
      <trkpt lat="46.28594" lon="10.60219">
        <ele>2471.0163406551</ele>
        <time>2018-09-21T23:00:11.001Z</time>
      </trkpt>
      <trkpt lat="46.28603" lon="10.60219">
        <ele>2469.2545031674</ele>
        <time>2018-09-21T23:00:17.003Z</time>
      </trkpt>
      <trkpt lat="46.28613" lon="10.6022">
        <ele>2466.7967114645</ele>
        <time>2018-09-21T23:00:25.016Z</time>
      </trkpt>
      <trkpt lat="46.28621" lon="10.60223">
        <ele>2464.5048387097</ele>
        <time>2018-09-21T23:00:35.016Z</time>
      </trkpt>
      <trkpt lat="46.28631" lon="10.60226">
        <ele>2462.20680192</ele>
        <time>2018-09-21T23:00:42.003Z</time>
      </trkpt>
      <trkpt lat="46.2864" lon="10.60229">
        <ele>2459.2653437886</ele>
        <time>2018-09-21T23:00:49.986Z</time>
      </trkpt>
      <trkpt lat="46.28649" lon="10.60236">
        <ele>2456.5119834077</ele>
        <time>2018-09-21T23:01:00.013Z</time>
      </trkpt>
      <trkpt lat="46.28658" lon="10.60242">
        <ele>2454.3968053632</ele>
        <time>2018-09-21T23:01:09.031Z</time>
      </trkpt>
      <trkpt lat="46.28666" lon="10.60248">
        <ele>2451.6143697337</ele>
        <time>2018-09-21T23:01:16.001Z</time>
      </trkpt>
      <trkpt lat="46.28676" lon="10.60253">
        <ele>2448.8108217646</ele>
        <time>2018-09-21T23:01:23.002Z</time>
      </trkpt>
      <trkpt lat="46.28685" lon="10.60251">
        <ele>2445.35479808</ele>
        <time>2018-09-21T23:01:33.004Z</time>
      </trkpt>
      <trkpt lat="46.28683" lon="10.60238">
        <ele>2443.25149952</ele>
        <time>2018-09-21T23:01:40.015Z</time>
      </trkpt>
      <trkpt lat="46.28683" lon="10.60224">
        <ele>2441.456</ele>
        <time>2018-09-21T23:01:46.000Z</time>
      </trkpt>
      <trkpt lat="46.28691" lon="10.60217">
        <ele>2440.10119936</ele>
        <time>2018-09-21T23:01:52.014Z</time>
      </trkpt>
      <trkpt lat="46.287" lon="10.60217">
        <ele>2439.10340096</ele>
        <time>2018-09-21T23:01:57.003Z</time>
      </trkpt>
      <trkpt lat="46.28709" lon="10.60224">
        <ele>2434.9040880864</ele>
        <time>2018-09-21T23:02:08.001Z</time>
      </trkpt>
      <trkpt lat="46.28718" lon="10.60229">
        <ele>2433.9044862518</ele>
        <time>2018-09-21T23:02:13.014Z</time>
      </trkpt>
      <trkpt lat="46.28727" lon="10.60233">
        <ele>2431.9063198897</ele>
        <time>2018-09-21T23:02:23.002Z</time>
      </trkpt>
      <trkpt lat="46.28735" lon="10.6024">
        <ele>2430.1324298571</ele>
        <time>2018-09-21T23:02:32.001Z</time>
      </trkpt>
      <trkpt lat="46.28744" lon="10.60243">
        <ele>2428.6301966064</ele>
        <time>2018-09-21T23:02:39.042Z</time>
      </trkpt>
      <trkpt lat="46.28754" lon="10.60245">
        <ele>2426.7814893794</ele>
        <time>2018-09-21T23:02:45.001Z</time>
      </trkpt>
      <trkpt lat="46.28763" lon="10.6025">
        <ele>2424.65570048</ele>
        <time>2018-09-21T23:02:52.001Z</time>
      </trkpt>
      <trkpt lat="46.2877" lon="10.60258">
        <ele>2422.01960192</ele>
        <time>2018-09-21T23:02:59.971Z</time>
      </trkpt>
      <trkpt lat="46.28772" lon="10.60271">
        <ele>2419.60760064</ele>
        <time>2018-09-21T23:03:06.001Z</time>
      </trkpt>
      <trkpt lat="46.28775" lon="10.60285">
        <ele>2417.7008</ele>
        <time>2018-09-21T23:03:14.016Z</time>
      </trkpt>
      <trkpt lat="46.28772" lon="10.60298">
        <ele>2415.904</ele>
        <time>2018-09-21T23:03:23.000Z</time>
      </trkpt>
      <trkpt lat="46.2878" lon="10.60292">
        <ele>2414.5537848606</ele>
        <time>2018-09-21T23:03:32.000Z</time>
      </trkpt>
      <trkpt lat="46.28782" lon="10.60305">
        <ele>2412.303213494</ele>
        <time>2018-09-21T23:03:46.010Z</time>
      </trkpt>
      <trkpt lat="46.28783" lon="10.60319">
        <ele>2409.1804762515</ele>
        <time>2018-09-21T23:03:57.003Z</time>
      </trkpt>
      <trkpt lat="46.28783" lon="10.60333">
        <ele>2406.90380032</ele>
        <time>2018-09-21T23:04:08.001Z</time>
      </trkpt>
      <trkpt lat="46.28793" lon="10.60334">
        <ele>2404.5104684314</ele>
        <time>2018-09-21T23:04:19.975Z</time>
      </trkpt>
      <trkpt lat="46.28797" lon="10.6032">
        <ele>2402.2654357692</ele>
        <time>2018-09-21T23:04:30.001Z</time>
      </trkpt>
      <trkpt lat="46.28807" lon="10.60324">
        <ele>2399.5158644177</ele>
        <time>2018-09-21T23:04:39.971Z</time>
      </trkpt>
      <trkpt lat="46.28812" lon="10.60335">
        <ele>2398.3022085141</ele>
        <time>2018-09-21T23:04:46.015Z</time>
      </trkpt>
      <trkpt lat="46.28813" lon="10.60349">
        <ele>2394.6151394422</ele>
        <time>2018-09-21T23:04:56.016Z</time>
      </trkpt>
      <trkpt lat="46.28822" lon="10.60343">
        <ele>2389.45179904</ele>
        <time>2018-09-21T23:05:16.014Z</time>
      </trkpt>
      <trkpt lat="46.28829" lon="10.60334">
        <ele>2387.0672609524</ele>
        <time>2018-09-21T23:05:24.014Z</time>
      </trkpt>
      <trkpt lat="46.28838" lon="10.60336">
        <ele>2384.66512</ele>
        <time>2018-09-21T23:05:32.014Z</time>
      </trkpt>
      <trkpt lat="46.28843" lon="10.60348">
        <ele>2382.5666340804</ele>
        <time>2018-09-21T23:05:42.014Z</time>
      </trkpt>
      <trkpt lat="46.28852" lon="10.60354">
        <ele>2380.0922104782</ele>
        <time>2018-09-21T23:05:54.014Z</time>
      </trkpt>
      <trkpt lat="46.28862" lon="10.60354">
        <ele>2377.35179904</ele>
        <time>2018-09-21T23:06:03.014Z</time>
      </trkpt>
      <trkpt lat="46.28871" lon="10.60354">
        <ele>2374.95179904</ele>
        <time>2018-09-21T23:06:11.014Z</time>
      </trkpt>
      <trkpt lat="46.28876" lon="10.60366">
        <ele>2371.9627961905</ele>
        <time>2018-09-21T23:06:21.005Z</time>
      </trkpt>
      <trkpt lat="46.28884" lon="10.60374">
        <ele>2368.9257779501</ele>
        <time>2018-09-21T23:06:38.000Z</time>
      </trkpt>
      <trkpt lat="46.28892" lon="10.60381">
        <ele>2367.5183552316</ele>
        <time>2018-09-21T23:06:45.016Z</time>
      </trkpt>
      <trkpt lat="46.28901" lon="10.60387">
        <ele>2366.4553432258</ele>
        <time>2018-09-21T23:06:53.003Z</time>
      </trkpt>
      <trkpt lat="46.2891" lon="10.6039">
        <ele>2363.80760064</ele>
        <time>2018-09-21T23:07:03.001Z</time>
      </trkpt>
      <trkpt lat="46.28916" lon="10.60399">
        <ele>2360.7089644622</ele>
        <time>2018-09-21T23:07:14.001Z</time>
      </trkpt>
      <trkpt lat="46.28924" lon="10.60405">
        <ele>2358.059940241</ele>
        <time>2018-09-21T23:07:24.001Z</time>
      </trkpt>
      <trkpt lat="46.28929" lon="10.60416">
        <ele>2356.4562501587</ele>
        <time>2018-09-21T23:07:33.001Z</time>
      </trkpt>
      <trkpt lat="46.28936" lon="10.60427">
        <ele>2354.23799808</ele>
        <time>2018-09-21T23:07:42.005Z</time>
      </trkpt>
      <trkpt lat="46.2894" lon="10.60439">
        <ele>2351.1530245161</ele>
        <time>2018-09-21T23:07:56.002Z</time>
      </trkpt>
      <trkpt lat="46.28944" lon="10.60451">
        <ele>2347.252</ele>
        <time>2018-09-21T23:08:05.016Z</time>
      </trkpt>
      <trkpt lat="46.2895" lon="10.6046">
        <ele>2343.5763109677</ele>
        <time>2018-09-21T23:08:19.001Z</time>
      </trkpt>
      <trkpt lat="46.28952" lon="10.60474">
        <ele>2341.1560464516</ele>
        <time>2018-09-21T23:08:27.004Z</time>
      </trkpt>
      <trkpt lat="46.28949" lon="10.60487">
        <ele>2340</ele>
        <time>2018-09-21T23:09:27.005Z</time>
      </trkpt>
      <trkpt lat="46.28949" lon="10.605">
        <ele>2337.1904761905</ele>
        <time>2018-09-21T23:09:37.000Z</time>
      </trkpt>
      <trkpt lat="46.28948" lon="10.60513">
        <ele>2334.7051792829</ele>
        <time>2018-09-21T23:09:49.000Z</time>
      </trkpt>
      <trkpt lat="46.28951" lon="10.60527">
        <ele>2332.5572279518</ele>
        <time>2018-09-21T23:09:59.030Z</time>
      </trkpt>
      <trkpt lat="46.28953" lon="10.60539">
        <ele>2329.85149952</ele>
        <time>2018-09-21T23:10:09.005Z</time>
      </trkpt>
      <trkpt lat="46.28957" lon="10.60552">
        <ele>2328.8087649402</ele>
        <time>2018-09-21T23:10:18.000Z</time>
      </trkpt>
      <trkpt lat="46.28966" lon="10.6055">
        <ele>2325.2227098008</ele>
        <time>2018-09-21T23:10:27.001Z</time>
      </trkpt>
      <trkpt lat="46.28973" lon="10.60542">
        <ele>2322.0120481928</ele>
        <time>2018-09-21T23:10:35.000Z</time>
      </trkpt>
      <trkpt lat="46.28981" lon="10.60534">
        <ele>2319.30180096</ele>
        <time>2018-09-21T23:10:46.011Z</time>
      </trkpt>
      <trkpt lat="46.28989" lon="10.60528">
        <ele>2317.50340096</ele>
        <time>2018-09-21T23:10:55.003Z</time>
      </trkpt>
      <trkpt lat="46.28998" lon="10.60522">
        <ele>2314.6594982402</ele>
        <time>2018-09-21T23:11:11.018Z</time>
      </trkpt>
      <trkpt lat="46.29007" lon="10.60527">
        <ele>2313.2696191676</ele>
        <time>2018-09-21T23:11:20.000Z</time>
      </trkpt>
      <trkpt lat="46.29016" lon="10.60533">
        <ele>2311.1566404228</ele>
        <time>2018-09-21T23:11:27.001Z</time>
      </trkpt>
      <trkpt lat="46.29024" lon="10.60541">
        <ele>2311</ele>
        <time>2018-09-21T23:11:35.003Z</time>
      </trkpt>
      <trkpt lat="46.29033" lon="10.60546">
        <ele>2309.95179904</ele>
        <time>2018-09-21T23:11:41.014Z</time>
      </trkpt>
      <trkpt lat="46.29044" lon="10.60546">
        <ele>2308.15179904</ele>
        <time>2018-09-21T23:11:47.014Z</time>
      </trkpt>
      <trkpt lat="46.29054" lon="10.60548">
        <ele>2308</ele>
        <time>2018-09-21T23:11:54.003Z</time>
      </trkpt>
      <trkpt lat="46.29066" lon="10.60554">
        <ele>2306.4044516258</ele>
        <time>2018-09-21T23:12:03.014Z</time>
      </trkpt>
      <trkpt lat="46.29076" lon="10.60556">
        <ele>2304.7803510137</ele>
        <time>2018-09-21T23:12:09.974Z</time>
      </trkpt>
      <trkpt lat="46.29069" lon="10.60564">
        <ele>2299.7714167331</ele>
        <time>2018-09-21T23:12:34.003Z</time>
      </trkpt>
      <trkpt lat="46.2906" lon="10.60567">
        <ele>2296.6584327711</ele>
        <time>2018-09-21T23:12:42.014Z</time>
      </trkpt>
      <trkpt lat="46.2905" lon="10.60569">
        <ele>2294.2649691114</ele>
        <time>2018-09-21T23:12:49.975Z</time>
      </trkpt>
      <trkpt lat="46.29041" lon="10.60571">
        <ele>2291.90799872</ele>
        <time>2018-09-21T23:12:58.000Z</time>
      </trkpt>
      <trkpt lat="46.29031" lon="10.60574">
        <ele>2290.30699776</ele>
        <time>2018-09-21T23:13:06.005Z</time>
      </trkpt>
      <trkpt lat="46.29024" lon="10.60582">
        <ele>2287.7574976</ele>
        <time>2018-09-21T23:13:18.005Z</time>
      </trkpt>
      <trkpt lat="46.2902" lon="10.60596">
        <ele>2283.7574976</ele>
        <time>2018-09-21T23:13:26.005Z</time>
      </trkpt>
      <trkpt lat="46.29014" lon="10.60607">
        <ele>2281.70320128</ele>
        <time>2018-09-21T23:13:34.004Z</time>
      </trkpt>
      <trkpt lat="46.29019" lon="10.60617">
        <ele>2277.308243477</ele>
        <time>2018-09-21T23:13:51.003Z</time>
      </trkpt>
      <trkpt lat="46.29029" lon="10.60617">
        <ele>2275.8746218327</ele>
        <time>2018-09-21T23:13:58.005Z</time>
      </trkpt>
      <trkpt lat="46.29039" lon="10.60619">
        <ele>2273.4549840741</ele>
        <time>2018-09-21T23:14:06.014Z</time>
      </trkpt>
      <trkpt lat="46.29046" lon="10.60628">
        <ele>2269.9016908742</ele>
        <time>2018-09-21T23:14:18.014Z</time>
      </trkpt>
      <trkpt lat="46.29055" lon="10.60634">
        <ele>2268.3124372736</ele>
        <time>2018-09-21T23:14:26.000Z</time>
      </trkpt>
      <trkpt lat="46.29064" lon="10.60642">
        <ele>2266.9055270254</ele>
        <time>2018-09-21T23:14:33.015Z</time>
      </trkpt>
      <trkpt lat="46.29071" lon="10.60652">
        <ele>2264.608</ele>
        <time>2018-09-21T23:14:41.000Z</time>
      </trkpt>
      <trkpt lat="46.29079" lon="10.6066">
        <ele>2261.704</ele>
        <time>2018-09-21T23:14:49.000Z</time>
      </trkpt>
      <trkpt lat="46.29083" lon="10.60672">
        <ele>2259.85149952</ele>
        <time>2018-09-21T23:14:58.015Z</time>
      </trkpt>
      <trkpt lat="46.29082" lon="10.60686">
        <ele>2257.15479808</ele>
        <time>2018-09-21T23:15:07.004Z</time>
      </trkpt>
      <trkpt lat="46.29085" lon="10.60699">
        <ele>2254.8423076923</ele>
        <time>2018-09-21T23:15:15.000Z</time>
      </trkpt>
      <trkpt lat="46.2909" lon="10.60711">
        <ele>2252.9444546137</ele>
        <time>2018-09-21T23:15:23.013Z</time>
      </trkpt>
      <trkpt lat="46.29098" lon="10.60719">
        <ele>2250.9736031872</ele>
        <time>2018-09-21T23:15:31.005Z</time>
      </trkpt>
      <trkpt lat="46.29103" lon="10.6073">
        <ele>2248.713419588</ele>
        <time>2018-09-21T23:15:39.030Z</time>
      </trkpt>
      <trkpt lat="46.29112" lon="10.60726">
        <ele>2245.90180096</ele>
        <time>2018-09-21T23:15:53.011Z</time>
      </trkpt>
      <trkpt lat="46.29116" lon="10.60713">
        <ele>2243.6597217437</ele>
        <time>2018-09-21T23:16:02.001Z</time>
      </trkpt>
      <trkpt lat="46.29124" lon="10.60706">
        <ele>2242</ele>
        <time>2018-09-21T23:16:11.001Z</time>
      </trkpt>
      <trkpt lat="46.29133" lon="10.60702">
        <ele>2241.1126515663</ele>
        <time>2018-09-21T23:16:19.033Z</time>
      </trkpt>
      <trkpt lat="46.29142" lon="10.60702">
        <ele>2237.3295190361</ele>
        <time>2018-09-21T23:16:25.313Z</time>
      </trkpt>
      <trkpt lat="46.29151" lon="10.60695">
        <ele>2233.1924966452</ele>
        <time>2018-09-21T23:16:37.000Z</time>
      </trkpt>
      <trkpt lat="46.2916" lon="10.60693">
        <ele>2231.6735547158</ele>
        <time>2018-09-21T23:16:42.014Z</time>
      </trkpt>
      <trkpt lat="46.29169" lon="10.60689">
        <ele>2228.95179904</ele>
        <time>2018-09-21T23:16:51.014Z</time>
      </trkpt>
      <trkpt lat="46.29174" lon="10.60678">
        <ele>2226.9008</ele>
        <time>2018-09-21T23:16:58.016Z</time>
      </trkpt>
      <trkpt lat="46.29177" lon="10.60666">
        <ele>2225.50380032</ele>
        <time>2018-09-21T23:17:05.001Z</time>
      </trkpt>
      <trkpt lat="46.2918" lon="10.60653">
        <ele>2225</ele>
        <time>2018-09-21T23:17:12.001Z</time>
      </trkpt>
      <trkpt lat="46.29186" lon="10.60644">
        <ele>2224.851747565</ele>
        <time>2018-09-21T23:17:19.004Z</time>
      </trkpt>
      <trkpt lat="46.29192" lon="10.60633">
        <ele>2224.1525476612</ele>
        <time>2018-09-21T23:17:26.003Z</time>
      </trkpt>
      <trkpt lat="46.29199" lon="10.60623">
        <ele>2222.0558574396</ele>
        <time>2018-09-21T23:17:34.004Z</time>
      </trkpt>
      <trkpt lat="46.29208" lon="10.60621">
        <ele>2221</ele>
        <time>2018-09-21T23:17:43.010Z</time>
      </trkpt>
      <trkpt lat="46.29215" lon="10.60629">
        <ele>2220.552</ele>
        <time>2018-09-21T23:17:52.000Z</time>
      </trkpt>
      <trkpt lat="46.29217" lon="10.60642">
        <ele>2219.705472543</ele>
        <time>2018-09-21T23:17:59.000Z</time>
      </trkpt>
      <trkpt lat="46.2922" lon="10.60656">
        <ele>2218.1134322351</ele>
        <time>2018-09-21T23:18:07.000Z</time>
      </trkpt>
      <trkpt lat="46.29222" lon="10.6067">
        <ele>2217.35699968</ele>
        <time>2018-09-21T23:18:14.000Z</time>
      </trkpt>
      <trkpt lat="46.29224" lon="10.60683">
        <ele>2214.3566561265</ele>
        <time>2018-09-21T23:18:23.010Z</time>
      </trkpt>
      <trkpt lat="46.29224" lon="10.60697">
        <ele>2211.7787996595</ele>
        <time>2018-09-21T23:18:29.999Z</time>
      </trkpt>
      <trkpt lat="46.29225" lon="10.60711">
        <ele>2211</ele>
        <time>2018-09-21T23:18:49.029Z</time>
      </trkpt>
      <trkpt lat="46.29233" lon="10.60719">
        <ele>2211</ele>
        <time>2018-09-21T23:18:57.004Z</time>
      </trkpt>
      <trkpt lat="46.29241" lon="10.60726">
        <ele>2207.9506479121</ele>
        <time>2018-09-21T23:19:08.015Z</time>
      </trkpt>
      <trkpt lat="46.29242" lon="10.60739">
        <ele>2207.2537385432</ele>
        <time>2018-09-21T23:19:15.005Z</time>
      </trkpt>
      <trkpt lat="46.29241" lon="10.60753">
        <ele>2204.2597784585</ele>
        <time>2018-09-21T23:19:23.014Z</time>
      </trkpt>
      <trkpt lat="46.29244" lon="10.60765">
        <ele>2199.4674637906</ele>
        <time>2018-09-21T23:19:36.004Z</time>
      </trkpt>
      <trkpt lat="46.29244" lon="10.60779">
        <ele>2196.7582897662</ele>
        <time>2018-09-21T23:19:45.005Z</time>
      </trkpt>
      <trkpt lat="46.29246" lon="10.60793">
        <ele>2194</ele>
        <time>2018-09-21T23:20:05.005Z</time>
      </trkpt>
      <trkpt lat="46.29244" lon="10.60806">
        <ele>2192.0583805563</ele>
        <time>2018-09-21T23:20:14.005Z</time>
      </trkpt>
      <trkpt lat="46.29243" lon="10.60819">
        <ele>2188</ele>
        <time>2018-09-21T23:20:29.974Z</time>
      </trkpt>
      <trkpt lat="46.29253" lon="10.60821">
        <ele>2188</ele>
        <time>2018-09-21T23:20:56.004Z</time>
      </trkpt>
      <trkpt lat="46.29263" lon="10.60825">
        <ele>2185.0074045221</ele>
        <time>2018-09-21T23:21:05.004Z</time>
      </trkpt>
      <trkpt lat="46.29261" lon="10.60838">
        <ele>2183.10320128</ele>
        <time>2018-09-21T23:21:12.004Z</time>
      </trkpt>
      <trkpt lat="46.29256" lon="10.6085">
        <ele>2180.60239872</ele>
        <time>2018-09-21T23:21:21.014Z</time>
      </trkpt>
      <trkpt lat="46.29263" lon="10.60858">
        <ele>2174.6608948785</ele>
        <time>2018-09-21T23:21:39.014Z</time>
      </trkpt>
      <trkpt lat="46.29268" lon="10.60871">
        <ele>2170.65330048</ele>
        <time>2018-09-21T23:21:52.009Z</time>
      </trkpt>
      <trkpt lat="46.2926" lon="10.60879">
        <ele>2168.25480192</ele>
        <time>2018-09-21T23:22:00.004Z</time>
      </trkpt>
      <trkpt lat="46.29254" lon="10.60892">
        <ele>2165.40599808</ele>
        <time>2018-09-21T23:22:09.005Z</time>
      </trkpt>
      <trkpt lat="46.29258" lon="10.60904">
        <ele>2158.20639744</ele>
        <time>2018-09-21T23:22:27.004Z</time>
      </trkpt>
      <trkpt lat="46.29265" lon="10.60912">
        <ele>2156.30320128</ele>
        <time>2018-09-21T23:22:36.004Z</time>
      </trkpt>
      <trkpt lat="46.29275" lon="10.6092">
        <ele>2154.65179904</ele>
        <time>2018-09-21T23:22:42.014Z</time>
      </trkpt>
      <trkpt lat="46.29285" lon="10.60927">
        <ele>2152.1020969757</ele>
        <time>2018-09-21T23:22:52.014Z</time>
      </trkpt>
      <trkpt lat="46.29293" lon="10.60934">
        <ele>2150.3509505182</ele>
        <time>2018-09-21T23:23:04.014Z</time>
      </trkpt>
      <trkpt lat="46.29298" lon="10.60945">
        <ele>2147.80239872</ele>
        <time>2018-09-21T23:23:13.014Z</time>
      </trkpt>
      <trkpt lat="46.29307" lon="10.60955">
        <ele>2144.90220032</ele>
        <time>2018-09-21T23:23:23.009Z</time>
      </trkpt>
      <trkpt lat="46.29312" lon="10.60966">
        <ele>2143.50320128</ele>
        <time>2018-09-21T23:23:30.004Z</time>
      </trkpt>
      <trkpt lat="46.29321" lon="10.60964">
        <ele>2142.30320128</ele>
        <time>2018-09-21T23:23:36.004Z</time>
      </trkpt>
      <trkpt lat="46.29334" lon="10.60965">
        <ele>2142</ele>
        <time>2018-09-21T23:23:44.014Z</time>
      </trkpt>
      <trkpt lat="46.29343" lon="10.60968">
        <ele>2139.8111541036</ele>
        <time>2018-09-21T23:23:53.014Z</time>
      </trkpt>
      <trkpt lat="46.29347" lon="10.60979">
        <ele>2136.3048199197</ele>
        <time>2018-09-21T23:24:06.002Z</time>
      </trkpt>
      <trkpt lat="46.29344" lon="10.60993">
        <ele>2134.0634197609</ele>
        <time>2018-09-21T23:24:14.014Z</time>
      </trkpt>
      <trkpt lat="46.2934" lon="10.61005">
        <ele>2131.3711696059</ele>
        <time>2018-09-21T23:24:23.004Z</time>
      </trkpt>
      <trkpt lat="46.29332" lon="10.61015">
        <ele>2127.5524156611</ele>
        <time>2018-09-21T23:24:45.004Z</time>
      </trkpt>
      <trkpt lat="46.29328" lon="10.61027">
        <ele>2126.032916914</ele>
        <time>2018-09-21T23:24:50.974Z</time>
      </trkpt>
      <trkpt lat="46.2932" lon="10.61037">
        <ele>2123.90360064</ele>
        <time>2018-09-21T23:24:58.002Z</time>
      </trkpt>
      <trkpt lat="46.29312" lon="10.61042">
        <ele>2122.30320128</ele>
        <time>2018-09-21T23:25:06.004Z</time>
      </trkpt>
      <trkpt lat="46.29303" lon="10.61045">
        <ele>2120.3567293777</ele>
        <time>2018-09-21T23:25:13.014Z</time>
      </trkpt>
      <trkpt lat="46.29294" lon="10.6105">
        <ele>2116.7570695309</ele>
        <time>2018-09-21T23:25:25.004Z</time>
      </trkpt>
      <trkpt lat="46.29284" lon="10.61051">
        <ele>2114.5106450183</ele>
        <time>2018-09-21T23:25:35.004Z</time>
      </trkpt>
      <trkpt lat="46.29276" lon="10.61057">
        <ele>2112.2174892969</ele>
        <time>2018-09-21T23:25:42.004Z</time>
      </trkpt>
      <trkpt lat="46.29268" lon="10.61065">
        <ele>2109.2584725498</ele>
        <time>2018-09-21T23:25:50.014Z</time>
      </trkpt>
      <trkpt lat="46.29277" lon="10.61066">
        <ele>2106.3547936695</ele>
        <time>2018-09-21T23:26:04.004Z</time>
      </trkpt>
      <trkpt lat="46.29285" lon="10.61076">
        <ele>2103.45179904</ele>
        <time>2018-09-21T23:26:16.014Z</time>
      </trkpt>
      <trkpt lat="46.29283" lon="10.61088">
        <ele>2101.3149968413</ele>
        <time>2018-09-21T23:26:26.004Z</time>
      </trkpt>
      <trkpt lat="46.29274" lon="10.61094">
        <ele>2099.3679031873</ele>
        <time>2018-09-21T23:26:33.014Z</time>
      </trkpt>
      <trkpt lat="46.29265" lon="10.61101">
        <ele>2097.7100388755</ele>
        <time>2018-09-21T23:26:39.004Z</time>
      </trkpt>
      <trkpt lat="46.29255" lon="10.61101">
        <ele>2095.50119936</ele>
        <time>2018-09-21T23:26:50.014Z</time>
      </trkpt>
      <trkpt lat="46.29245" lon="10.61102">
        <ele>2094.30119936</ele>
        <time>2018-09-21T23:26:56.014Z</time>
      </trkpt>
      <trkpt lat="46.29236" lon="10.61099">
        <ele>2092.6091781935</ele>
        <time>2018-09-21T23:27:01.004Z</time>
      </trkpt>
      <trkpt lat="46.29226" lon="10.61097">
        <ele>2087.8100163142</ele>
        <time>2018-09-21T23:27:13.004Z</time>
      </trkpt>
      <trkpt lat="46.29217" lon="10.61096">
        <ele>2085.55179904</ele>
        <time>2018-09-21T23:27:19.014Z</time>
      </trkpt>
      <trkpt lat="46.29207" lon="10.61094">
        <ele>2083.15479808</ele>
        <time>2018-09-21T23:27:27.004Z</time>
      </trkpt>
      <trkpt lat="46.29199" lon="10.61101">
        <ele>2079.45159936</ele>
        <time>2018-09-21T23:27:43.004Z</time>
      </trkpt>
      <trkpt lat="46.2919" lon="10.61106">
        <ele>2078.2757006856</ele>
        <time>2018-09-21T23:27:50.014Z</time>
      </trkpt>
      <trkpt lat="46.29187" lon="10.61119">
        <ele>2072.622956071</ele>
        <time>2018-09-21T23:28:06.014Z</time>
      </trkpt>
      <trkpt lat="46.29195" lon="10.61124">
        <ele>2068.95179904</ele>
        <time>2018-09-21T23:28:21.014Z</time>
      </trkpt>
      <trkpt lat="46.29201" lon="10.61135">
        <ele>2067.45179904</ele>
        <time>2018-09-21T23:28:26.014Z</time>
      </trkpt>
      <trkpt lat="46.29201" lon="10.6115">
        <ele>2065.05179904</ele>
        <time>2018-09-21T23:28:34.014Z</time>
      </trkpt>
      <trkpt lat="46.29192" lon="10.61156">
        <ele>2063.2430016</ele>
        <time>2018-09-21T23:28:39.034Z</time>
      </trkpt>
      <trkpt lat="46.29183" lon="10.61162">
        <ele>2058.69819904</ele>
        <time>2018-09-21T23:28:49.029Z</time>
      </trkpt>
      <trkpt lat="46.29176" lon="10.61172">
        <ele>2057.30119936</ele>
        <time>2018-09-21T23:28:56.014Z</time>
      </trkpt>
      <trkpt lat="46.29171" lon="10.61184">
        <ele>2055.70320128</ele>
        <time>2018-09-21T23:29:04.004Z</time>
      </trkpt>
      <trkpt lat="46.29162" lon="10.61191">
        <ele>2053.0556864228</ele>
        <time>2018-09-21T23:29:14.014Z</time>
      </trkpt>
      <trkpt lat="46.29156" lon="10.61204">
        <ele>2051.2839674331</ele>
        <time>2018-09-21T23:29:21.113Z</time>
      </trkpt>
      <trkpt lat="46.29147" lon="10.61212">
        <ele>2049.40239872</ele>
        <time>2018-09-21T23:29:29.014Z</time>
      </trkpt>
      <trkpt lat="46.2914" lon="10.61221">
        <ele>2047.00639744</ele>
        <time>2018-09-21T23:29:35.004Z</time>
      </trkpt>
      <trkpt lat="46.29132" lon="10.61229">
        <ele>2044.10139904</ele>
        <time>2018-09-21T23:29:47.013Z</time>
      </trkpt>
      <trkpt lat="46.29124" lon="10.61235">
        <ele>2041.75540096</ele>
        <time>2018-09-21T23:29:55.002Z</time>
      </trkpt>
      <trkpt lat="46.29117" lon="10.61246">
        <ele>2040.10119936</ele>
        <time>2018-09-21T23:30:02.014Z</time>
      </trkpt>
      <trkpt lat="46.2911" lon="10.61256">
        <ele>2037.95479808</ele>
        <time>2018-09-21T23:30:11.004Z</time>
      </trkpt>
      <trkpt lat="46.29107" lon="10.6127">
        <ele>2035.25480192</ele>
        <time>2018-09-21T23:30:20.004Z</time>
      </trkpt>
      <trkpt lat="46.29101" lon="10.61281">
        <ele>2033.15179904</ele>
        <time>2018-09-21T23:30:27.014Z</time>
      </trkpt>
      <trkpt lat="46.29099" lon="10.61295">
        <ele>2031.50319872</ele>
        <time>2018-09-21T23:30:35.004Z</time>
      </trkpt>
      <trkpt lat="46.29095" lon="10.61307">
        <ele>2029.9129815383</ele>
        <time>2018-09-21T23:30:43.004Z</time>
      </trkpt>
      <trkpt lat="46.29093" lon="10.6132">
        <ele>2028.6575168008</ele>
        <time>2018-09-21T23:30:51.004Z</time>
      </trkpt>
      <trkpt lat="46.29087" lon="10.61332">
        <ele>2027.9531467812</ele>
        <time>2018-09-21T23:30:58.004Z</time>
      </trkpt>
      <trkpt lat="46.29083" lon="10.61344">
        <ele>2027.2755073845</ele>
        <time>2018-09-21T23:31:05.004Z</time>
      </trkpt>
      <trkpt lat="46.29078" lon="10.61357">
        <ele>2025.7124726021</ele>
        <time>2018-09-21T23:31:12.013Z</time>
      </trkpt>
      <trkpt lat="46.29072" lon="10.61366">
        <ele>2023.5668308085</ele>
        <time>2018-09-21T23:31:19.004Z</time>
      </trkpt>
      <trkpt lat="46.2907" lon="10.61379">
        <ele>2021.1805335584</ele>
        <time>2018-09-21T23:31:27.014Z</time>
      </trkpt>
      <trkpt lat="46.29065" lon="10.61392">
        <ele>2018.7624218102</ele>
        <time>2018-09-21T23:31:35.004Z</time>
      </trkpt>
      <trkpt lat="46.2906" lon="10.61404">
        <ele>2016.35479808</ele>
        <time>2018-09-21T23:31:43.004Z</time>
      </trkpt>
      <trkpt lat="46.29064" lon="10.61416">
        <ele>2013.95179904</ele>
        <time>2018-09-21T23:31:51.014Z</time>
      </trkpt>
      <trkpt lat="46.29066" lon="10.61429">
        <ele>2011.0107588845</ele>
        <time>2018-09-21T23:32:00.003Z</time>
      </trkpt>
      <trkpt lat="46.2906" lon="10.6144">
        <ele>2007.9559092891</ele>
        <time>2018-09-21T23:32:08.004Z</time>
      </trkpt>
      <trkpt lat="46.29053" lon="10.61449">
        <ele>2007.2607741773</ele>
        <time>2018-09-21T23:32:15.004Z</time>
      </trkpt>
      <trkpt lat="46.29049" lon="10.61463">
        <ele>2005.6732077406</ele>
        <time>2018-09-21T23:32:22.004Z</time>
      </trkpt>
      <trkpt lat="46.29042" lon="10.61474">
        <ele>2004</ele>
        <time>2018-09-21T23:32:31.004Z</time>
      </trkpt>
      <trkpt lat="46.29036" lon="10.61486">
        <ele>2003.9573453247</ele>
        <time>2018-09-21T23:32:38.004Z</time>
      </trkpt>
      <trkpt lat="46.29032" lon="10.61498">
        <ele>2003.352716203</ele>
        <time>2018-09-21T23:32:44.014Z</time>
      </trkpt>
      <trkpt lat="46.29024" lon="10.61507">
        <ele>2001.9911178378</ele>
        <time>2018-09-21T23:32:51.004Z</time>
      </trkpt>
      <trkpt lat="46.29017" lon="10.61516">
        <ele>2000.2536661004</ele>
        <time>2018-09-21T23:32:57.004Z</time>
      </trkpt>
      <trkpt lat="46.29011" lon="10.61526">
        <ele>1999.1531835093</ele>
        <time>2018-09-21T23:33:02.004Z</time>
      </trkpt>
      <trkpt lat="46.29008" lon="10.6154">
        <ele>1997.8591910405</ele>
        <time>2018-09-21T23:33:09.014Z</time>
      </trkpt>
      <trkpt lat="46.29007" lon="10.61555">
        <ele>1997.2541406034</ele>
        <time>2018-09-21T23:33:15.004Z</time>
      </trkpt>
      <trkpt lat="46.29006" lon="10.6157">
        <ele>1996.4570287252</ele>
        <time>2018-09-21T23:33:23.004Z</time>
      </trkpt>
      <trkpt lat="46.29003" lon="10.61582">
        <ele>1995.0396786726</ele>
        <time>2018-09-21T23:33:30.004Z</time>
      </trkpt>
      <trkpt lat="46.28998" lon="10.61594">
        <ele>1992.2199380754</ele>
        <time>2018-09-21T23:33:37.004Z</time>
      </trkpt>
      <trkpt lat="46.28995" lon="10.61607">
        <ele>1992</ele>
        <time>2018-09-21T23:33:45.003Z</time>
      </trkpt>
      <trkpt lat="46.28991" lon="10.6162">
        <ele>1991.65159936</ele>
        <time>2018-09-21T23:33:51.004Z</time>
      </trkpt>
      <trkpt lat="46.28987" lon="10.61633">
        <ele>1991.05170048</ele>
        <time>2018-09-21T23:33:57.003Z</time>
      </trkpt>
      <trkpt lat="46.28982" lon="10.61645">
        <ele>1989.90340096</ele>
        <time>2018-09-21T23:34:03.003Z</time>
      </trkpt>
      <trkpt lat="46.28979" lon="10.61658">
        <ele>1989</ele>
        <time>2018-09-21T23:34:10.004Z</time>
      </trkpt>
      <trkpt lat="46.28975" lon="10.6167">
        <ele>1988.9203739664</ele>
        <time>2018-09-21T23:34:18.004Z</time>
      </trkpt>
      <trkpt lat="46.28971" lon="10.61682">
        <ele>1985.8133371455</ele>
        <time>2018-09-21T23:34:24.013Z</time>
      </trkpt>
      <trkpt lat="46.28964" lon="10.61692">
        <ele>1983.25480192</ele>
        <time>2018-09-21T23:34:30.004Z</time>
      </trkpt>
      <trkpt lat="46.28961" lon="10.61705">
        <ele>1980.69619968</ele>
        <time>2018-09-21T23:34:39.039Z</time>
      </trkpt>
      <trkpt lat="46.28955" lon="10.61717">
        <ele>1978.857523495</ele>
        <time>2018-09-21T23:34:48.003Z</time>
      </trkpt>
      <trkpt lat="46.28949" lon="10.61729">
        <ele>1976.202655403</ele>
        <time>2018-09-21T23:34:57.003Z</time>
      </trkpt>
      <trkpt lat="46.28944" lon="10.6174">
        <ele>1974.0699885021</ele>
        <time>2018-09-21T23:35:04.014Z</time>
      </trkpt>
      <trkpt lat="46.28938" lon="10.6175">
        <ele>1972.7530823042</ele>
        <time>2018-09-21T23:35:10.004Z</time>
      </trkpt>
      <trkpt lat="46.28933" lon="10.61761">
        <ele>1972.1567604569</ele>
        <time>2018-09-21T23:35:16.003Z</time>
      </trkpt>
      <trkpt lat="46.28925" lon="10.61771">
        <ele>1970.5062364628</ele>
        <time>2018-09-21T23:35:25.004Z</time>
      </trkpt>
      <trkpt lat="46.28919" lon="10.61781">
        <ele>1968.35479808</ele>
        <time>2018-09-21T23:35:33.004Z</time>
      </trkpt>
      <trkpt lat="46.28911" lon="10.61791">
        <ele>1963.7824544801</ele>
        <time>2018-09-21T23:35:44.013Z</time>
      </trkpt>
      <trkpt lat="46.28903" lon="10.61801">
        <ele>1961.1132199029</ele>
        <time>2018-09-21T23:35:52.004Z</time>
      </trkpt>
      <trkpt lat="46.28898" lon="10.61813">
        <ele>1960</ele>
        <time>2018-09-21T23:36:01.003Z</time>
      </trkpt>
      <trkpt lat="46.28894" lon="10.61827">
        <ele>1959.7589483548</ele>
        <time>2018-09-21T23:36:10.014Z</time>
      </trkpt>
      <trkpt lat="46.28886" lon="10.61836">
        <ele>1959.3544992856</ele>
        <time>2018-09-21T23:36:14.014Z</time>
      </trkpt>
      <trkpt lat="46.28881" lon="10.61847">
        <ele>1958.65059968</ele>
        <time>2018-09-21T23:36:21.014Z</time>
      </trkpt>
      <trkpt lat="46.28879" lon="10.61863">
        <ele>1958.45059968</ele>
        <time>2018-09-21T23:36:23.014Z</time>
      </trkpt>
      <trkpt lat="46.28881" lon="10.61849">
        <ele>1958</ele>
        <time>2018-09-21T23:36:29.014Z</time>
      </trkpt>
      <trkpt lat="46.28884" lon="10.61834">
        <ele>1959</ele>
        <time>2018-09-21T23:37:06.014Z</time>
      </trkpt>
      <trkpt lat="46.28883" lon="10.6185">
        <ele>1959.74940032</ele>
        <time>2018-09-21T23:37:15.014Z</time>
      </trkpt>
      <trkpt lat="46.28872" lon="10.61846">
        <ele>1959</ele>
        <time>2018-09-21T23:37:44.014Z</time>
      </trkpt>
      <trkpt lat="46.2888" lon="10.61854">
        <ele>1958.65059968</ele>
        <time>2018-09-21T23:38:01.014Z</time>
      </trkpt>
      <trkpt lat="46.28885" lon="10.61841">
        <ele>1958.75059968</ele>
        <time>2018-09-21T23:38:40.014Z</time>
      </trkpt>
      <trkpt lat="46.28888" lon="10.61828">
        <ele>1959.14940032</ele>
        <time>2018-09-21T23:38:59.014Z</time>
      </trkpt>
      <trkpt lat="46.28888" lon="10.61842">
        <ele>1959</ele>
        <time>2018-09-21T23:40:05.014Z</time>
      </trkpt>
      <trkpt lat="46.28892" lon="10.6183">
        <ele>1959</ele>
        <time>2018-09-21T23:40:25.014Z</time>
      </trkpt>
      <trkpt lat="46.28882" lon="10.61834">
        <ele>1958.6617614441</ele>
        <time>2018-09-21T23:40:31.014Z</time>
      </trkpt>
      <trkpt lat="46.28891" lon="10.61833">
        <ele>1958</ele>
        <time>2018-09-21T23:40:43.014Z</time>
      </trkpt>
      <trkpt lat="46.28885" lon="10.61843">
        <ele>1958</ele>
        <time>2018-09-21T23:40:49.014Z</time>
      </trkpt>
      <trkpt lat="46.28887" lon="10.61828">
        <ele>1958.24940032</ele>
        <time>2018-09-21T23:41:00.014Z</time>
      </trkpt>
      <trkpt lat="46.28896" lon="10.61827">
        <ele>1959</ele>
        <time>2018-09-21T23:41:10.014Z</time>
      </trkpt>
      <trkpt lat="46.28902" lon="10.61815">
        <ele>1959</ele>
        <time>2018-09-21T23:41:14.014Z</time>
      </trkpt>
      <trkpt lat="46.28902" lon="10.61801">
        <ele>1959</ele>
        <time>2018-09-21T23:41:19.014Z</time>
      </trkpt>
      <trkpt lat="46.28901" lon="10.61787">
        <ele>1959</ele>
        <time>2018-09-21T23:41:25.003Z</time>
      </trkpt>
      <trkpt lat="46.28908" lon="10.61777">
        <ele>1960.54829952</ele>
        <time>2018-09-21T23:41:53.003Z</time>
      </trkpt>
      <trkpt lat="46.28912" lon="10.61765">
        <ele>1962.2850341439</ele>
        <time>2018-09-21T23:42:04.003Z</time>
      </trkpt>
      <trkpt lat="46.2891" lon="10.61752">
        <ele>1963.93940096</ele>
        <time>2018-09-21T23:42:17.004Z</time>
      </trkpt>
      <trkpt lat="46.289" lon="10.61755">
        <ele>1965.0478727445</ele>
        <time>2018-09-21T23:42:28.004Z</time>
      </trkpt>
      <trkpt lat="46.28891" lon="10.61754">
        <ele>1966.1409632129</ele>
        <time>2018-09-21T23:42:39.034Z</time>
      </trkpt>
      <trkpt lat="46.28882" lon="10.61759">
        <ele>1967</ele>
        <time>2018-09-21T23:42:48.004Z</time>
      </trkpt>
      <trkpt lat="46.28873" lon="10.61763">
        <ele>1967</ele>
        <time>2018-09-21T23:42:56.014Z</time>
      </trkpt>
      <trkpt lat="46.28864" lon="10.61762">
        <ele>1965.5046935479</ele>
        <time>2018-09-21T23:43:05.004Z</time>
      </trkpt>
      <trkpt lat="46.28855" lon="10.61759">
        <ele>1965</ele>
        <time>2018-09-21T23:43:16.014Z</time>
      </trkpt>
      <trkpt lat="46.28846" lon="10.61756">
        <ele>1967.24839936</ele>
        <time>2018-09-21T23:43:30.004Z</time>
      </trkpt>
      <trkpt lat="46.28837" lon="10.61753">
        <ele>1968.24850048</ele>
        <time>2018-09-21T23:43:40.005Z</time>
      </trkpt>
      <trkpt lat="46.28828" lon="10.61748">
        <ele>1969</ele>
        <time>2018-09-21T23:43:49.030Z</time>
      </trkpt>
      <trkpt lat="46.28819" lon="10.61749">
        <ele>1969</ele>
        <time>2018-09-21T23:43:59.004Z</time>
      </trkpt>
      <trkpt lat="46.28809" lon="10.61751">
        <ele>1969</ele>
        <time>2018-09-21T23:44:09.974Z</time>
      </trkpt>
      <trkpt lat="46.288" lon="10.6175">
        <ele>1969.7472367446</ele>
        <time>2018-09-21T23:44:25.005Z</time>
      </trkpt>
      <trkpt lat="46.28791" lon="10.61753">
        <ele>1970.743297162</ele>
        <time>2018-09-21T23:44:35.005Z</time>
      </trkpt>
      <trkpt lat="46.28781" lon="10.61754">
        <ele>1973.4853729891</ele>
        <time>2018-09-21T23:44:49.969Z</time>
      </trkpt>
      <trkpt lat="46.28771" lon="10.61755">
        <ele>1974.5549305786</ele>
        <time>2018-09-21T23:45:02.004Z</time>
      </trkpt>
      <trkpt lat="46.28763" lon="10.61758">
        <ele>1975.4919231132</ele>
        <time>2018-09-21T23:45:15.002Z</time>
      </trkpt>
      <trkpt lat="46.28753" lon="10.61762">
        <ele>1977.1504490846</ele>
        <time>2018-09-21T23:45:29.029Z</time>
      </trkpt>
      <trkpt lat="46.28744" lon="10.6176">
        <ele>1980.9518414175</ele>
        <time>2018-09-21T23:45:48.004Z</time>
      </trkpt>
      <trkpt lat="46.28739" lon="10.61771">
        <ele>1980.3447800803</ele>
        <time>2018-09-21T23:46:01.004Z</time>
      </trkpt>
      <trkpt lat="46.28728" lon="10.6177">
        <ele>1983.5961979271</ele>
        <time>2018-09-21T23:46:14.014Z</time>
      </trkpt>
      <trkpt lat="46.2872" lon="10.61778">
        <ele>1986</ele>
        <time>2018-09-21T23:46:31.004Z</time>
      </trkpt>
      <trkpt lat="46.28711" lon="10.61784">
        <ele>1988.5429127902</ele>
        <time>2018-09-21T23:46:46.004Z</time>
      </trkpt>
      <trkpt lat="46.28702" lon="10.61784">
        <ele>1989.6492771294</ele>
        <time>2018-09-21T23:47:00.969Z</time>
      </trkpt>
      <trkpt lat="46.28692" lon="10.61785">
        <ele>1991</ele>
        <time>2018-09-21T23:47:16.004Z</time>
      </trkpt>
      <trkpt lat="46.28683" lon="10.61787">
        <ele>1995.8486422999</ele>
        <time>2018-09-21T23:47:36.004Z</time>
      </trkpt>
      <trkpt lat="46.28681" lon="10.61774">
        <ele>2000</ele>
        <time>2018-09-21T23:48:06.002Z</time>
      </trkpt>
      <trkpt lat="46.28683" lon="10.6176">
        <ele>2002.7470069442</ele>
        <time>2018-09-21T23:48:25.005Z</time>
      </trkpt>
      <trkpt lat="46.28687" lon="10.61748">
        <ele>2008</ele>
        <time>2018-09-21T23:48:42.004Z</time>
      </trkpt>
      <trkpt lat="46.28693" lon="10.61737">
        <ele>2008</ele>
        <time>2018-09-21T23:48:57.002Z</time>
      </trkpt>
      <trkpt lat="46.28696" lon="10.61724">
        <ele>2010.342358551</ele>
        <time>2018-09-21T23:49:11.999Z</time>
      </trkpt>
      <trkpt lat="46.28694" lon="10.6171">
        <ele>2012.9484489454</ele>
        <time>2018-09-21T23:49:27.005Z</time>
      </trkpt>
      <trkpt lat="46.28684" lon="10.61715">
        <ele>2018.4491292529</ele>
        <time>2018-09-21T23:50:05.012Z</time>
      </trkpt>
      <trkpt lat="46.28675" lon="10.61718">
        <ele>2021.34370048</ele>
        <time>2018-09-21T23:50:21.999Z</time>
      </trkpt>
      <trkpt lat="46.28666" lon="10.61721">
        <ele>2023</ele>
        <time>2018-09-21T23:50:36.999Z</time>
      </trkpt>
      <trkpt lat="46.28659" lon="10.61729">
        <ele>2023.9492989504</ele>
        <time>2018-09-21T23:50:47.014Z</time>
      </trkpt>
      <trkpt lat="46.28652" lon="10.61738">
        <ele>2026.641699921</ele>
        <time>2018-09-21T23:51:04.014Z</time>
      </trkpt>
      <trkpt lat="46.28643" lon="10.61741">
        <ele>2030</ele>
        <time>2018-09-21T23:51:21.004Z</time>
      </trkpt>
      <trkpt lat="46.28635" lon="10.6175">
        <ele>2031.4957749671</ele>
        <time>2018-09-21T23:51:35.014Z</time>
      </trkpt>
      <trkpt lat="46.28632" lon="10.61736">
        <ele>2036</ele>
        <time>2018-09-21T23:51:59.014Z</time>
      </trkpt>
      <trkpt lat="46.2863" lon="10.61722">
        <ele>2037.0408770358</ele>
        <time>2018-09-21T23:52:11.000Z</time>
      </trkpt>
      <trkpt lat="46.28635" lon="10.61711">
        <ele>2040.697894226</ele>
        <time>2018-09-21T23:52:26.014Z</time>
      </trkpt>
      <trkpt lat="46.28625" lon="10.61713">
        <ele>2046.3428166661</ele>
        <time>2018-09-21T23:52:52.005Z</time>
      </trkpt>
      <trkpt lat="46.28619" lon="10.61723">
        <ele>2049.3105718532</ele>
        <time>2018-09-21T23:53:12.014Z</time>
      </trkpt>
      <trkpt lat="46.28611" lon="10.61734">
        <ele>2053</ele>
        <time>2018-09-21T23:53:35.014Z</time>
      </trkpt>
      <trkpt lat="46.28602" lon="10.6174">
        <ele>2056.2945675941</ele>
        <time>2018-09-21T23:53:54.014Z</time>
      </trkpt>
      <trkpt lat="46.28593" lon="10.61742">
        <ele>2057</ele>
        <time>2018-09-21T23:54:02.004Z</time>
      </trkpt>
      <trkpt lat="46.28588" lon="10.61755">
        <ele>2057</ele>
        <time>2018-09-21T23:54:14.014Z</time>
      </trkpt>
      <trkpt lat="46.2858" lon="10.61764">
        <ele>2057.44940032</ele>
        <time>2018-09-21T23:54:22.014Z</time>
      </trkpt>
      <trkpt lat="46.28575" lon="10.61775">
        <ele>2058</ele>
        <time>2018-09-21T23:54:31.014Z</time>
      </trkpt>
      <trkpt lat="46.28571" lon="10.61787">
        <ele>2059.4898213109</ele>
        <time>2018-09-21T23:54:45.014Z</time>
      </trkpt>
      <trkpt lat="46.28566" lon="10.61798">
        <ele>2060</ele>
        <time>2018-09-21T23:54:54.014Z</time>
      </trkpt>
      <trkpt lat="46.28558" lon="10.61807">
        <ele>2060.54979968</ele>
        <time>2018-09-21T23:55:03.018Z</time>
      </trkpt>
      <trkpt lat="46.28548" lon="10.61812">
        <ele>2062.9346577368</ele>
        <time>2018-09-21T23:55:14.014Z</time>
      </trkpt>
      <trkpt lat="46.28539" lon="10.61814">
        <ele>2064</ele>
        <time>2018-09-21T23:55:23.014Z</time>
      </trkpt>
      <trkpt lat="46.28533" lon="10.61824">
        <ele>2065.4958074225</ele>
        <time>2018-09-21T23:55:40.004Z</time>
      </trkpt>
      <trkpt lat="46.28526" lon="10.61834">
        <ele>2067.8431842294</ele>
        <time>2018-09-21T23:55:56.014Z</time>
      </trkpt>
      <trkpt lat="46.28518" lon="10.61842">
        <ele>2071.7545816733</ele>
        <time>2018-09-21T23:56:07.014Z</time>
      </trkpt>
      <trkpt lat="46.28513" lon="10.61853">
        <ele>2074.9102906965</ele>
        <time>2018-09-21T23:56:25.014Z</time>
      </trkpt>
      <trkpt lat="46.28503" lon="10.61858">
        <ele>2076.741649644</ele>
        <time>2018-09-21T23:56:35.014Z</time>
      </trkpt>
      <trkpt lat="46.28493" lon="10.61859">
        <ele>2081.64940032</ele>
        <time>2018-09-21T23:57:04.014Z</time>
      </trkpt>
      <trkpt lat="46.28488" lon="10.61872">
        <ele>2087.6898422311</ele>
        <time>2018-09-21T23:57:36.013Z</time>
      </trkpt>
      <trkpt lat="46.28484" lon="10.61883">
        <ele>2095.4010011929</ele>
        <time>2018-09-21T23:58:06.014Z</time>
      </trkpt>
      <trkpt lat="46.28481" lon="10.61896">
        <ele>2098.74940032</ele>
        <time>2018-09-21T23:58:35.014Z</time>
      </trkpt>
      <trkpt lat="46.28478" lon="10.61908">
        <ele>2102.2954548617</ele>
        <time>2018-09-21T23:58:49.015Z</time>
      </trkpt>
      <trkpt lat="46.28483" lon="10.61922">
        <ele>2103.8762852174</ele>
        <time>2018-09-21T23:58:57.014Z</time>
      </trkpt>
      <trkpt lat="46.28481" lon="10.61935">
        <ele>2104</ele>
        <time>2018-09-21T23:59:06.012Z</time>
      </trkpt>
      <trkpt lat="46.28472" lon="10.61946">
        <ele>2103.3547936695</ele>
        <time>2018-09-21T23:59:14.004Z</time>
      </trkpt>
      <trkpt lat="46.28468" lon="10.61959">
        <ele>2102.5046668506</ele>
        <time>2018-09-21T23:59:20.014Z</time>
      </trkpt>
      <trkpt lat="46.28467" lon="10.61974">
        <ele>2101.74940032</ele>
        <time>2018-09-21T23:59:55.014Z</time>
      </trkpt>
      <trkpt lat="46.28462" lon="10.61987">
        <ele>2102</ele>
        <time>2018-09-22T00:00:05.014Z</time>
      </trkpt>
      <trkpt lat="46.28456" lon="10.61997">
        <ele>2102</ele>
        <time>2018-09-22T00:00:12.001Z</time>
      </trkpt>
      <trkpt lat="46.28453" lon="10.62011">
        <ele>2102</ele>
        <time>2018-09-22T00:00:21.014Z</time>
      </trkpt>
      <trkpt lat="46.28444" lon="10.62019">
        <ele>2101.9543715524</ele>
        <time>2018-09-22T00:00:28.014Z</time>
      </trkpt>
      <trkpt lat="46.28434" lon="10.62023">
        <ele>2101.252261547</ele>
        <time>2018-09-22T00:00:35.000Z</time>
      </trkpt>
      <trkpt lat="46.28427" lon="10.62031">
        <ele>2101</ele>
        <time>2018-09-22T00:00:41.014Z</time>
      </trkpt>
      <trkpt lat="46.28418" lon="10.62039">
        <ele>2101</ele>
        <time>2018-09-22T00:00:47.014Z</time>
      </trkpt>
      <trkpt lat="46.28408" lon="10.62043">
        <ele>2101</ele>
        <time>2018-09-22T00:00:53.014Z</time>
      </trkpt>
      <trkpt lat="46.28403" lon="10.62056">
        <ele>2100.7643576281</ele>
        <time>2018-09-22T00:01:00.014Z</time>
      </trkpt>
      <trkpt lat="46.28393" lon="10.62056">
        <ele>2100</ele>
        <time>2018-09-22T00:01:10.005Z</time>
      </trkpt>
      <trkpt lat="46.28384" lon="10.62062">
        <ele>2100</ele>
        <time>2018-09-22T00:01:17.015Z</time>
      </trkpt>
      <trkpt lat="46.28375" lon="10.62067">
        <ele>2100</ele>
        <time>2018-09-22T00:01:25.001Z</time>
      </trkpt>
      <trkpt lat="46.28367" lon="10.62074">
        <ele>2100</ele>
        <time>2018-09-22T00:01:31.014Z</time>
      </trkpt>
      <trkpt lat="46.28359" lon="10.62081">
        <ele>2100</ele>
        <time>2018-09-22T00:01:36.014Z</time>
      </trkpt>
      <trkpt lat="46.28352" lon="10.62091">
        <ele>2100</ele>
        <time>2018-09-22T00:01:45.014Z</time>
      </trkpt>
      <trkpt lat="46.28346" lon="10.62101">
        <ele>2100</ele>
        <time>2018-09-22T00:01:53.014Z</time>
      </trkpt>
      <trkpt lat="46.28337" lon="10.62107">
        <ele>2099.65180032</ele>
        <time>2018-09-22T00:02:01.002Z</time>
      </trkpt>
      <trkpt lat="46.28328" lon="10.62114">
        <ele>2099</ele>
        <time>2018-09-22T00:02:08.000Z</time>
      </trkpt>
      <trkpt lat="46.2832" lon="10.62122">
        <ele>2099</ele>
        <time>2018-09-22T00:02:15.014Z</time>
      </trkpt>
      <trkpt lat="46.28309" lon="10.62127">
        <ele>2098.45100032</ele>
        <time>2018-09-22T00:02:23.010Z</time>
      </trkpt>
      <trkpt lat="46.283" lon="10.62127">
        <ele>2098</ele>
        <time>2018-09-22T00:02:32.004Z</time>
      </trkpt>
      <trkpt lat="46.28295" lon="10.6214">
        <ele>2098</ele>
        <time>2018-09-22T00:02:42.014Z</time>
      </trkpt>
      <trkpt lat="46.28288" lon="10.62151">
        <ele>2098</ele>
        <time>2018-09-22T00:02:47.014Z</time>
      </trkpt>
      <trkpt lat="46.28281" lon="10.62159">
        <ele>2098</ele>
        <time>2018-09-22T00:02:55.000Z</time>
      </trkpt>
      <trkpt lat="46.28274" lon="10.62169">
        <ele>2097.65059968</ele>
        <time>2018-09-22T00:03:01.014Z</time>
      </trkpt>
      <trkpt lat="46.2827" lon="10.62183">
        <ele>2097.05059968</ele>
        <time>2018-09-22T00:03:07.014Z</time>
      </trkpt>
      <trkpt lat="46.28262" lon="10.62194">
        <ele>2097</ele>
        <time>2018-09-22T00:03:13.004Z</time>
      </trkpt>
      <trkpt lat="46.28259" lon="10.62206">
        <ele>2096.75190016</ele>
        <time>2018-09-22T00:03:20.001Z</time>
      </trkpt>
      <trkpt lat="46.28252" lon="10.62216">
        <ele>2096.3496</ele>
        <time>2018-09-22T00:03:31.016Z</time>
      </trkpt>
      <trkpt lat="46.28241" lon="10.6222">
        <ele>2097</ele>
        <time>2018-09-22T00:03:38.014Z</time>
      </trkpt>
      <trkpt lat="46.28232" lon="10.62227">
        <ele>2097</ele>
        <time>2018-09-22T00:03:45.014Z</time>
      </trkpt>
      <trkpt lat="46.28225" lon="10.62236">
        <ele>2097.5483040628</ele>
        <time>2018-09-22T00:03:53.014Z</time>
      </trkpt>
      <trkpt lat="46.28218" lon="10.62246">
        <ele>2097.3056094233</ele>
        <time>2018-09-22T00:04:01.005Z</time>
      </trkpt>
      <trkpt lat="46.28209" lon="10.62248">
        <ele>2096</ele>
        <time>2018-09-22T00:04:11.002Z</time>
      </trkpt>
      <trkpt lat="46.28197" lon="10.62252">
        <ele>2096</ele>
        <time>2018-09-22T00:04:17.114Z</time>
      </trkpt>
      <trkpt lat="46.28188" lon="10.62257">
        <ele>2096</ele>
        <time>2018-09-22T00:04:22.000Z</time>
      </trkpt>
      <trkpt lat="46.28179" lon="10.62262">
        <ele>2095.8504946379</ele>
        <time>2018-09-22T00:04:29.030Z</time>
      </trkpt>
      <trkpt lat="46.2817" lon="10.62266">
        <ele>2095.03838446</ele>
        <time>2018-09-22T00:04:38.000Z</time>
      </trkpt>
      <trkpt lat="46.28161" lon="10.62269">
        <ele>2095.74545471</ele>
        <time>2018-09-22T00:04:45.000Z</time>
      </trkpt>
      <trkpt lat="46.28153" lon="10.62275">
        <ele>2096</ele>
        <time>2018-09-22T00:04:53.014Z</time>
      </trkpt>
      <trkpt lat="46.28147" lon="10.62286">
        <ele>2095.6633368754</ele>
        <time>2018-09-22T00:05:01.000Z</time>
      </trkpt>
      <trkpt lat="46.28139" lon="10.62296">
        <ele>2094.962082738</ele>
        <time>2018-09-22T00:05:08.015Z</time>
      </trkpt>
      <trkpt lat="46.28133" lon="10.62306">
        <ele>2094</ele>
        <time>2018-09-22T00:05:18.015Z</time>
      </trkpt>
      <trkpt lat="46.28124" lon="10.62311">
        <ele>2094</ele>
        <time>2018-09-22T00:05:27.005Z</time>
      </trkpt>
      <trkpt lat="46.28115" lon="10.62317">
        <ele>2094</ele>
        <time>2018-09-22T00:05:34.014Z</time>
      </trkpt>
      <trkpt lat="46.28107" lon="10.62326">
        <ele>2094</ele>
        <time>2018-09-22T00:05:40.000Z</time>
      </trkpt>
      <trkpt lat="46.28099" lon="10.62335">
        <ele>2094</ele>
        <time>2018-09-22T00:05:47.014Z</time>
      </trkpt>
      <trkpt lat="46.28093" lon="10.62345">
        <ele>2092.7426901817</ele>
        <time>2018-09-22T00:05:54.014Z</time>
      </trkpt>
      <trkpt lat="46.28088" lon="10.62357">
        <ele>2092</ele>
        <time>2018-09-22T00:06:02.003Z</time>
      </trkpt>
      <trkpt lat="46.28082" lon="10.62367">
        <ele>2092</ele>
        <time>2018-09-22T00:06:08.014Z</time>
      </trkpt>
      <trkpt lat="46.28077" lon="10.62378">
        <ele>2092</ele>
        <time>2018-09-22T00:06:15.014Z</time>
      </trkpt>
      <trkpt lat="46.28074" lon="10.62393">
        <ele>2084.2967234807</ele>
        <time>2018-09-22T00:06:59.014Z</time>
      </trkpt>
      <trkpt lat="46.28067" lon="10.62403">
        <ele>2085.8856008308</ele>
        <time>2018-09-22T00:07:07.014Z</time>
      </trkpt>
      <trkpt lat="46.28061" lon="10.62414">
        <ele>2088.843805146</ele>
        <time>2018-09-22T00:07:17.003Z</time>
      </trkpt>
      <trkpt lat="46.28054" lon="10.62424">
        <ele>2089</ele>
        <time>2018-09-22T00:07:25.005Z</time>
      </trkpt>
      <trkpt lat="46.28046" lon="10.62431">
        <ele>2089</ele>
        <time>2018-09-22T00:07:34.014Z</time>
      </trkpt>
      <trkpt lat="46.28037" lon="10.62433">
        <ele>2090.0923694779</ele>
        <time>2018-09-22T00:07:43.000Z</time>
      </trkpt>
      <trkpt lat="46.28028" lon="10.62431">
        <ele>2091</ele>
        <time>2018-09-22T00:07:51.001Z</time>
      </trkpt>
      <trkpt lat="46.28019" lon="10.62431">
        <ele>2090.8533790197</ele>
        <time>2018-09-22T00:07:59.045Z</time>
      </trkpt>
      <trkpt lat="46.28009" lon="10.62433">
        <ele>2090.1503011461</ele>
        <time>2018-09-22T00:08:19.040Z</time>
      </trkpt>
      <trkpt lat="46.27999" lon="10.62431">
        <ele>2090.7479966345</ele>
        <time>2018-09-22T00:08:25.005Z</time>
      </trkpt>
      <trkpt lat="46.27992" lon="10.62422">
        <ele>2090.65190016</ele>
        <time>2018-09-22T00:08:31.001Z</time>
      </trkpt>
      <trkpt lat="46.27984" lon="10.62413">
        <ele>2089.7025846822</ele>
        <time>2018-09-22T00:08:39.016Z</time>
      </trkpt>
      <trkpt lat="46.27976" lon="10.6241">
        <ele>2086.3741258339</ele>
        <time>2018-09-22T00:08:53.005Z</time>
      </trkpt>
      <trkpt lat="46.27966" lon="10.6241">
        <ele>2078.6287484993</ele>
        <time>2018-09-22T00:09:16.000Z</time>
      </trkpt>
      <trkpt lat="46.27958" lon="10.62403">
        <ele>2074.9598610359</ele>
        <time>2018-09-22T00:09:31.001Z</time>
      </trkpt>
      <trkpt lat="46.27952" lon="10.62392">
        <ele>2071.7725879518</ele>
        <time>2018-09-22T00:09:40.005Z</time>
      </trkpt>
      <trkpt lat="46.27946" lon="10.6238">
        <ele>2067.8509470466</ele>
        <time>2018-09-22T00:09:49.015Z</time>
      </trkpt>
      <trkpt lat="46.27942" lon="10.62367">
        <ele>2067.0548357951</ele>
        <time>2018-09-22T00:09:57.000Z</time>
      </trkpt>
      <trkpt lat="46.27935" lon="10.62358">
        <ele>2063.207824821</ele>
        <time>2018-09-22T00:10:07.002Z</time>
      </trkpt>
      <trkpt lat="46.27927" lon="10.62349">
        <ele>2061.30099968</ele>
        <time>2018-09-22T00:10:16.015Z</time>
      </trkpt>
      <trkpt lat="46.2792" lon="10.62341">
        <ele>2057.6016</ele>
        <time>2018-09-22T00:10:26.016Z</time>
      </trkpt>
      <trkpt lat="46.27911" lon="10.62335">
        <ele>2052.408</ele>
        <time>2018-09-22T00:10:39.000Z</time>
      </trkpt>
      <trkpt lat="46.27903" lon="10.62331">
        <ele>2048.5561441938</ele>
        <time>2018-09-22T00:10:49.001Z</time>
      </trkpt>
      <trkpt lat="46.27894" lon="10.62325">
        <ele>2045.5045030616</ele>
        <time>2018-09-22T00:11:00.005Z</time>
      </trkpt>
      <trkpt lat="46.2789" lon="10.62313">
        <ele>2043.9520917928</ele>
        <time>2018-09-22T00:11:08.001Z</time>
      </trkpt>
      <trkpt lat="46.27888" lon="10.62297">
        <ele>2043.3543827888</ele>
        <time>2018-09-22T00:11:14.002Z</time>
      </trkpt>
      <trkpt lat="46.27885" lon="10.62284">
        <ele>2042.7549198394</ele>
        <time>2018-09-22T00:11:20.001Z</time>
      </trkpt>
      <trkpt lat="46.27879" lon="10.62273">
        <ele>2042.44809984</ele>
        <time>2018-09-22T00:11:32.001Z</time>
      </trkpt>
      <trkpt lat="46.2787" lon="10.62265">
        <ele>2043.44809984</ele>
        <time>2018-09-22T00:11:42.001Z</time>
      </trkpt>
      <trkpt lat="46.27864" lon="10.62256">
        <ele>2044</ele>
        <time>2018-09-22T00:11:51.016Z</time>
      </trkpt>
      <trkpt lat="46.27857" lon="10.62247">
        <ele>2043.85180032</ele>
        <time>2018-09-22T00:11:59.002Z</time>
      </trkpt>
      <trkpt lat="46.27853" lon="10.62235">
        <ele>2043.15049984</ele>
        <time>2018-09-22T00:12:06.015Z</time>
      </trkpt>
      <trkpt lat="46.27847" lon="10.62225">
        <ele>2042.4700480093</ele>
        <time>2018-09-22T00:12:13.005Z</time>
      </trkpt>
      <trkpt lat="46.27839" lon="10.62215">
        <ele>2041.7821770884</ele>
        <time>2018-09-22T00:12:19.972Z</time>
      </trkpt>
      <trkpt lat="46.27835" lon="10.62203">
        <ele>2040.95149952</ele>
        <time>2018-09-22T00:12:28.005Z</time>
      </trkpt>
      <trkpt lat="46.27832" lon="10.6219">
        <ele>2040.252</ele>
        <time>2018-09-22T00:12:35.000Z</time>
      </trkpt>
      <trkpt lat="46.27831" lon="10.62177">
        <ele>2039.4529938223</ele>
        <time>2018-09-22T00:12:43.001Z</time>
      </trkpt>
      <trkpt lat="46.27825" lon="10.62166">
        <ele>2038.5527056977</ele>
        <time>2018-09-22T00:12:52.004Z</time>
      </trkpt>
      <trkpt lat="46.27821" lon="10.62153">
        <ele>2037.85180032</ele>
        <time>2018-09-22T00:12:59.002Z</time>
      </trkpt>
      <trkpt lat="46.27815" lon="10.62143">
        <ele>2037.052</ele>
        <time>2018-09-22T00:13:07.000Z</time>
      </trkpt>
      <trkpt lat="46.27809" lon="10.62132">
        <ele>2035.902296712</ele>
        <time>2018-09-22T00:13:13.014Z</time>
      </trkpt>
      <trkpt lat="46.27803" lon="10.62121">
        <ele>2035</ele>
        <time>2018-09-22T00:13:21.000Z</time>
      </trkpt>
      <trkpt lat="46.27799" lon="10.6211">
        <ele>2035</ele>
        <time>2018-09-22T00:13:27.016Z</time>
      </trkpt>
      <trkpt lat="46.27798" lon="10.62095">
        <ele>2034.151204498</ele>
        <time>2018-09-22T00:13:36.014Z</time>
      </trkpt>
      <trkpt lat="46.27797" lon="10.62081">
        <ele>2034.84839936</ele>
        <time>2018-09-22T00:13:46.004Z</time>
      </trkpt>
      <trkpt lat="46.27794" lon="10.62068">
        <ele>2035</ele>
        <time>2018-09-22T00:13:54.003Z</time>
      </trkpt>
      <trkpt lat="46.27792" lon="10.62054">
        <ele>2034.6524951074</ele>
        <time>2018-09-22T00:14:01.002Z</time>
      </trkpt>
      <trkpt lat="46.27786" lon="10.62044">
        <ele>2034</ele>
        <time>2018-09-22T00:14:11.003Z</time>
      </trkpt>
      <trkpt lat="46.27779" lon="10.62033">
        <ele>2033.9539378811</ele>
        <time>2018-09-22T00:14:18.002Z</time>
      </trkpt>
      <trkpt lat="46.27773" lon="10.62023">
        <ele>2033.1560310569</ele>
        <time>2018-09-22T00:14:26.005Z</time>
      </trkpt>
      <trkpt lat="46.27771" lon="10.6201">
        <ele>2031.7067347275</ele>
        <time>2018-09-22T00:14:34.004Z</time>
      </trkpt>
      <trkpt lat="46.27771" lon="10.61997">
        <ele>2030.55079936</ele>
        <time>2018-09-22T00:14:42.012Z</time>
      </trkpt>
      <trkpt lat="46.27765" lon="10.61984">
        <ele>2030.74940032</ele>
        <time>2018-09-22T00:14:55.014Z</time>
      </trkpt>
      <trkpt lat="46.27765" lon="10.61971">
        <ele>2031</ele>
        <time>2018-09-22T00:15:02.017Z</time>
      </trkpt>
      <trkpt lat="46.27762" lon="10.61958">
        <ele>2030.75180032</ele>
        <time>2018-09-22T00:15:10.002Z</time>
      </trkpt>
      <trkpt lat="46.27756" lon="10.61946">
        <ele>2029.9550609337</ele>
        <time>2018-09-22T00:15:18.004Z</time>
      </trkpt>
      <trkpt lat="46.27752" lon="10.61934">
        <ele>2029.1184766926</ele>
        <time>2018-09-22T00:15:27.014Z</time>
      </trkpt>
      <trkpt lat="46.27747" lon="10.61922">
        <ele>2029.7274114055</ele>
        <time>2018-09-22T00:15:35.004Z</time>
      </trkpt>
      <trkpt lat="46.27742" lon="10.6191">
        <ele>2030</ele>
        <time>2018-09-22T00:15:44.002Z</time>
      </trkpt>
      <trkpt lat="46.27738" lon="10.61898">
        <ele>2029.6525947482</ele>
        <time>2018-09-22T00:15:51.001Z</time>
      </trkpt>
      <trkpt lat="46.27732" lon="10.61886">
        <ele>2028.9535070438</ele>
        <time>2018-09-22T00:15:58.004Z</time>
      </trkpt>
      <trkpt lat="46.27729" lon="10.61873">
        <ele>2028.2520033655</ele>
        <time>2018-09-22T00:16:05.005Z</time>
      </trkpt>
      <trkpt lat="46.27724" lon="10.61861">
        <ele>2025.8202809891</ele>
        <time>2018-09-22T00:16:13.002Z</time>
      </trkpt>
      <trkpt lat="46.27719" lon="10.61849">
        <ele>2024</ele>
        <time>2018-09-22T00:16:21.002Z</time>
      </trkpt>
      <trkpt lat="46.27715" lon="10.61837">
        <ele>2023.9538919257</ele>
        <time>2018-09-22T00:16:28.002Z</time>
      </trkpt>
      <trkpt lat="46.27713" lon="10.61822">
        <ele>2023.1552899607</ele>
        <time>2018-09-22T00:16:36.004Z</time>
      </trkpt>
      <trkpt lat="46.27709" lon="10.61809">
        <ele>2023</ele>
        <time>2018-09-22T00:16:42.014Z</time>
      </trkpt>
      <trkpt lat="46.2771" lon="10.61793">
        <ele>2022.7518487119</ele>
        <time>2018-09-22T00:16:50.004Z</time>
      </trkpt>
      <trkpt lat="46.27706" lon="10.6178">
        <ele>2022</ele>
        <time>2018-09-22T00:16:58.002Z</time>
      </trkpt>
      <trkpt lat="46.27702" lon="10.61768">
        <ele>2022</ele>
        <time>2018-09-22T00:17:05.001Z</time>
      </trkpt>
      <trkpt lat="46.27696" lon="10.61757">
        <ele>2022</ele>
        <time>2018-09-22T00:17:11.001Z</time>
      </trkpt>
      <trkpt lat="46.27691" lon="10.61744">
        <ele>2021.9520878237</ele>
        <time>2018-09-22T00:17:18.002Z</time>
      </trkpt>
      <trkpt lat="46.27691" lon="10.61731">
        <ele>2021.1568597014</ele>
        <time>2018-09-22T00:17:26.002Z</time>
      </trkpt>
      <trkpt lat="46.27687" lon="10.61718">
        <ele>2018.8185128811</ele>
        <time>2018-09-22T00:17:33.001Z</time>
      </trkpt>
      <trkpt lat="46.2768" lon="10.61708">
        <ele>2017</ele>
        <time>2018-09-22T00:17:41.001Z</time>
      </trkpt>
      <trkpt lat="46.27674" lon="10.61697">
        <ele>2017</ele>
        <time>2018-09-22T00:17:49.002Z</time>
      </trkpt>
      <trkpt lat="46.27673" lon="10.61684">
        <ele>2017</ele>
        <time>2018-09-22T00:17:56.002Z</time>
      </trkpt>
      <trkpt lat="46.27669" lon="10.6167">
        <ele>2015.705788874</ele>
        <time>2018-09-22T00:18:04.004Z</time>
      </trkpt>
      <trkpt lat="46.27665" lon="10.61657">
        <ele>2015</ele>
        <time>2018-09-22T00:18:11.002Z</time>
      </trkpt>
      <trkpt lat="46.27659" lon="10.61646">
        <ele>2015.04819968</ele>
        <time>2018-09-22T00:18:18.002Z</time>
      </trkpt>
      <trkpt lat="46.27653" lon="10.61634">
        <ele>2016</ele>
        <time>2018-09-22T00:18:28.002Z</time>
      </trkpt>
      <trkpt lat="46.2765" lon="10.61622">
        <ele>2016</ele>
        <time>2018-09-22T00:18:35.004Z</time>
      </trkpt>
      <trkpt lat="46.27646" lon="10.61609">
        <ele>2014.9344367539</ele>
        <time>2018-09-22T00:18:43.002Z</time>
      </trkpt>
      <trkpt lat="46.27642" lon="10.61598">
        <ele>2014.34819968</ele>
        <time>2018-09-22T00:18:51.002Z</time>
      </trkpt>
      <trkpt lat="46.27637" lon="10.61586">
        <ele>2015</ele>
        <time>2018-09-22T00:18:58.002Z</time>
      </trkpt>
      <trkpt lat="46.27635" lon="10.61573">
        <ele>2015</ele>
        <time>2018-09-22T00:19:06.002Z</time>
      </trkpt>
      <trkpt lat="46.27634" lon="10.61559">
        <ele>2015</ele>
        <time>2018-09-22T00:19:16.002Z</time>
      </trkpt>
      <trkpt lat="46.27629" lon="10.61547">
        <ele>2015</ele>
        <time>2018-09-22T00:19:23.003Z</time>
      </trkpt>
      <trkpt lat="46.27626" lon="10.61535">
        <ele>2014.8521956741</ele>
        <time>2018-09-22T00:19:29.001Z</time>
      </trkpt>
      <trkpt lat="46.2762" lon="10.61525">
        <ele>2014.3531933593</ele>
        <time>2018-09-22T00:19:34.001Z</time>
      </trkpt>
      <trkpt lat="46.27615" lon="10.61513">
        <ele>2013.4526054011</ele>
        <time>2018-09-22T00:19:43.003Z</time>
      </trkpt>
      <trkpt lat="46.27611" lon="10.61499">
        <ele>2013.24839936</ele>
        <time>2018-09-22T00:19:50.004Z</time>
      </trkpt>
      <trkpt lat="46.27612" lon="10.61485">
        <ele>2013.84829952</ele>
        <time>2018-09-22T00:19:56.003Z</time>
      </trkpt>
      <trkpt lat="46.27606" lon="10.61474">
        <ele>2012.504</ele>
        <time>2018-09-22T00:20:05.000Z</time>
      </trkpt>
      <trkpt lat="46.276" lon="10.61463">
        <ele>2011.15170048</ele>
        <time>2018-09-22T00:20:16.003Z</time>
      </trkpt>
      <trkpt lat="46.27598" lon="10.6145">
        <ele>2011.7473527264</ele>
        <time>2018-09-22T00:20:25.001Z</time>
      </trkpt>
      <trkpt lat="46.27593" lon="10.61439">
        <ele>2012</ele>
        <time>2018-09-22T00:20:32.016Z</time>
      </trkpt>
      <trkpt lat="46.2759" lon="10.61427">
        <ele>2012</ele>
        <time>2018-09-22T00:20:39.003Z</time>
      </trkpt>
      <trkpt lat="46.27586" lon="10.61414">
        <ele>2012</ele>
        <time>2018-09-22T00:20:46.001Z</time>
      </trkpt>
      <trkpt lat="46.27578" lon="10.61406">
        <ele>2011.45190016</ele>
        <time>2018-09-22T00:20:53.001Z</time>
      </trkpt>
      <trkpt lat="46.2757" lon="10.61397">
        <ele>2010.75190016</ele>
        <time>2018-09-22T00:21:00.001Z</time>
      </trkpt>
      <trkpt lat="46.27563" lon="10.61388">
        <ele>2010</ele>
        <time>2018-09-22T00:21:08.001Z</time>
      </trkpt>
      <trkpt lat="46.27558" lon="10.61375">
        <ele>2010</ele>
        <time>2018-09-22T00:21:15.003Z</time>
      </trkpt>
      <trkpt lat="46.2755" lon="10.61365">
        <ele>2009.3051894963</ele>
        <time>2018-09-22T00:21:21.001Z</time>
      </trkpt>
      <trkpt lat="46.27544" lon="10.61355">
        <ele>2008.105787852</ele>
        <time>2018-09-22T00:21:27.010Z</time>
      </trkpt>
      <trkpt lat="46.27545" lon="10.61341">
        <ele>2007.252204728</ele>
        <time>2018-09-22T00:21:35.003Z</time>
      </trkpt>
      <trkpt lat="46.27542" lon="10.61328">
        <ele>2007.6756535633</ele>
        <time>2018-09-22T00:21:41.003Z</time>
      </trkpt>
      <trkpt lat="46.27537" lon="10.61316">
        <ele>2008.87990016</ele>
        <time>2018-09-22T00:21:49.031Z</time>
      </trkpt>
      <trkpt lat="46.27531" lon="10.61307">
        <ele>2008.08169984</ele>
        <time>2018-09-22T00:21:57.013Z</time>
      </trkpt>
      <trkpt lat="46.27526" lon="10.61295">
        <ele>2008</ele>
        <time>2018-09-22T00:22:04.003Z</time>
      </trkpt>
      <trkpt lat="46.27522" lon="10.61283">
        <ele>2007.4526936225</ele>
        <time>2018-09-22T00:22:13.004Z</time>
      </trkpt>
      <trkpt lat="46.27516" lon="10.61273">
        <ele>2006.8534067473</ele>
        <time>2018-09-22T00:22:19.003Z</time>
      </trkpt>
      <trkpt lat="46.2751" lon="10.61262">
        <ele>2006.0508010897</ele>
        <time>2018-09-22T00:22:27.013Z</time>
      </trkpt>
      <trkpt lat="46.27506" lon="10.61249">
        <ele>2006.6470059222</ele>
        <time>2018-09-22T00:22:34.003Z</time>
      </trkpt>
      <trkpt lat="46.27505" lon="10.61235">
        <ele>2007</ele>
        <time>2018-09-22T00:22:42.013Z</time>
      </trkpt>
      <trkpt lat="46.27499" lon="10.61223">
        <ele>2006.70519808</ele>
        <time>2018-09-22T00:22:49.004Z</time>
      </trkpt>
      <trkpt lat="46.27493" lon="10.61213">
        <ele>2005.30540032</ele>
        <time>2018-09-22T00:22:56.003Z</time>
      </trkpt>
      <trkpt lat="46.27489" lon="10.612">
        <ele>2004.3520524198</ele>
        <time>2018-09-22T00:23:04.003Z</time>
      </trkpt>
      <trkpt lat="46.27484" lon="10.61188">
        <ele>2004.44930048</ele>
        <time>2018-09-22T00:23:12.013Z</time>
      </trkpt>
      <trkpt lat="46.27476" lon="10.61179">
        <ele>2005</ele>
        <time>2018-09-22T00:23:19.001Z</time>
      </trkpt>
      <trkpt lat="46.2747" lon="10.61168">
        <ele>2005</ele>
        <time>2018-09-22T00:23:27.013Z</time>
      </trkpt>
      <trkpt lat="46.27464" lon="10.61158">
        <ele>2005</ele>
        <time>2018-09-22T00:23:33.004Z</time>
      </trkpt>
      <trkpt lat="46.27461" lon="10.61145">
        <ele>2005</ele>
        <time>2018-09-22T00:23:40.003Z</time>
      </trkpt>
      <trkpt lat="46.27457" lon="10.61132">
        <ele>2005</ele>
        <time>2018-09-22T00:23:48.003Z</time>
      </trkpt>
      <trkpt lat="46.27453" lon="10.61119">
        <ele>2005</ele>
        <time>2018-09-22T00:23:56.003Z</time>
      </trkpt>
      <trkpt lat="46.27451" lon="10.61107">
        <ele>2005</ele>
        <time>2018-09-22T00:24:03.002Z</time>
      </trkpt>
      <trkpt lat="46.27445" lon="10.61096">
        <ele>2005</ele>
        <time>2018-09-22T00:24:11.003Z</time>
      </trkpt>
      <trkpt lat="46.27441" lon="10.61082">
        <ele>2005</ele>
        <time>2018-09-22T00:24:19.003Z</time>
      </trkpt>
      <trkpt lat="46.27437" lon="10.6107">
        <ele>2005</ele>
        <time>2018-09-22T00:24:25.003Z</time>
      </trkpt>
      <trkpt lat="46.27434" lon="10.61058">
        <ele>2004.652</ele>
        <time>2018-09-22T00:24:31.000Z</time>
      </trkpt>
      <trkpt lat="46.2743" lon="10.61045">
        <ele>2003.8519963925</ele>
        <time>2018-09-22T00:24:39.003Z</time>
      </trkpt>
      <trkpt lat="46.27427" lon="10.61031">
        <ele>2003.0525937262</ele>
        <time>2018-09-22T00:24:47.013Z</time>
      </trkpt>
      <trkpt lat="46.27423" lon="10.61019">
        <ele>2003.7259720143</ele>
        <time>2018-09-22T00:24:55.003Z</time>
      </trkpt>
      <trkpt lat="46.27416" lon="10.61009">
        <ele>2004</ele>
        <time>2018-09-22T00:25:01.001Z</time>
      </trkpt>
      <trkpt lat="46.27409" lon="10.60999">
        <ele>2003.95170048</ele>
        <time>2018-09-22T00:25:08.003Z</time>
      </trkpt>
      <trkpt lat="46.27407" lon="10.60986">
        <ele>2003.15170048</ele>
        <time>2018-09-22T00:25:16.003Z</time>
      </trkpt>
      <trkpt lat="46.27407" lon="10.60972">
        <ele>2002.3523479248</ele>
        <time>2018-09-22T00:25:24.003Z</time>
      </trkpt>
      <trkpt lat="46.27405" lon="10.60958">
        <ele>2002</ele>
        <time>2018-09-22T00:25:32.013Z</time>
      </trkpt>
      <trkpt lat="46.27405" lon="10.60945">
        <ele>2002</ele>
        <time>2018-09-22T00:25:40.014Z</time>
      </trkpt>
      <trkpt lat="46.27402" lon="10.60931">
        <ele>2002.0465396338</ele>
        <time>2018-09-22T00:25:48.014Z</time>
      </trkpt>
      <trkpt lat="46.27402" lon="10.60917">
        <ele>2002.8478430003</ele>
        <time>2018-09-22T00:25:56.003Z</time>
      </trkpt>
      <trkpt lat="46.27401" lon="10.60903">
        <ele>2003.6458160956</ele>
        <time>2018-09-22T00:26:04.004Z</time>
      </trkpt>
      <trkpt lat="46.27401" lon="10.6089">
        <ele>2003.5538159036</ele>
        <time>2018-09-22T00:26:12.004Z</time>
      </trkpt>
      <trkpt lat="46.27397" lon="10.60877">
        <ele>2002.85190016</ele>
        <time>2018-09-22T00:26:19.001Z</time>
      </trkpt>
      <trkpt lat="46.27392" lon="10.60866">
        <ele>2002.15190016</ele>
        <time>2018-09-22T00:26:26.001Z</time>
      </trkpt>
      <trkpt lat="46.27387" lon="10.60855">
        <ele>2002.54840064</ele>
        <time>2018-09-22T00:26:33.004Z</time>
      </trkpt>
      <trkpt lat="46.2738" lon="10.60845">
        <ele>2003</ele>
        <time>2018-09-22T00:26:39.004Z</time>
      </trkpt>
      <trkpt lat="46.27375" lon="10.60832">
        <ele>2003</ele>
        <time>2018-09-22T00:26:47.004Z</time>
      </trkpt>
      <trkpt lat="46.27369" lon="10.60822">
        <ele>2003</ele>
        <time>2018-09-22T00:26:54.004Z</time>
      </trkpt>
      <trkpt lat="46.27364" lon="10.60809">
        <ele>2003</ele>
        <time>2018-09-22T00:27:02.004Z</time>
      </trkpt>
      <trkpt lat="46.27362" lon="10.60796">
        <ele>2003</ele>
        <time>2018-09-22T00:27:12.001Z</time>
      </trkpt>
      <trkpt lat="46.27357" lon="10.60783">
        <ele>2003</ele>
        <time>2018-09-22T00:27:20.014Z</time>
      </trkpt>
      <trkpt lat="46.27362" lon="10.60772">
        <ele>2003</ele>
        <time>2018-09-22T00:27:27.004Z</time>
      </trkpt>
      <trkpt lat="46.27363" lon="10.60759">
        <ele>2001.055553776</ele>
        <time>2018-09-22T00:27:34.005Z</time>
      </trkpt>
      <trkpt lat="46.27364" lon="10.60745">
        <ele>1998.95479808</ele>
        <time>2018-09-22T00:27:41.004Z</time>
      </trkpt>
      <trkpt lat="46.27366" lon="10.60733">
        <ele>1996.50119936</ele>
        <time>2018-09-22T00:27:50.014Z</time>
      </trkpt>
      <trkpt lat="46.27362" lon="10.6072">
        <ele>1995</ele>
        <time>2018-09-22T00:28:02.002Z</time>
      </trkpt>
      <trkpt lat="46.27353" lon="10.60721">
        <ele>1995.1248449484</ele>
        <time>2018-09-22T00:28:09.031Z</time>
      </trkpt>
      <trkpt lat="46.27344" lon="10.60727">
        <ele>1996.34819968</ele>
        <time>2018-09-22T00:28:21.002Z</time>
      </trkpt>
      <trkpt lat="46.27334" lon="10.60728">
        <ele>1997</ele>
        <time>2018-09-22T00:28:28.002Z</time>
      </trkpt>
      <trkpt lat="46.27325" lon="10.60721">
        <ele>1997</ele>
        <time>2018-09-22T00:28:35.014Z</time>
      </trkpt>
      <trkpt lat="46.2732" lon="10.60708">
        <ele>1997</ele>
        <time>2018-09-22T00:28:43.004Z</time>
      </trkpt>
      <trkpt lat="46.27312" lon="10.60702">
        <ele>1997</ele>
        <time>2018-09-22T00:28:52.002Z</time>
      </trkpt>
      <trkpt lat="46.27303" lon="10.60696">
        <ele>1998.3432562136</ele>
        <time>2018-09-22T00:29:02.002Z</time>
      </trkpt>
      <trkpt lat="46.27293" lon="10.60694">
        <ele>2001.49740032</ele>
        <time>2018-09-22T00:29:15.017Z</time>
      </trkpt>
      <trkpt lat="46.27286" lon="10.60684">
        <ele>2002</ele>
        <time>2018-09-22T00:29:25.014Z</time>
      </trkpt>
      <trkpt lat="46.27281" lon="10.60672">
        <ele>2002</ele>
        <time>2018-09-22T00:29:33.001Z</time>
      </trkpt>
      <trkpt lat="46.27276" lon="10.60661">
        <ele>2002</ele>
        <time>2018-09-22T00:29:40.011Z</time>
      </trkpt>
      <trkpt lat="46.27271" lon="10.60649">
        <ele>2002</ele>
        <time>2018-09-22T00:29:46.004Z</time>
      </trkpt>
      <trkpt lat="46.27265" lon="10.60638">
        <ele>2002</ele>
        <time>2018-09-22T00:29:53.004Z</time>
      </trkpt>
      <trkpt lat="46.27259" lon="10.60626">
        <ele>2001.55190016</ele>
        <time>2018-09-22T00:30:02.001Z</time>
      </trkpt>
      <trkpt lat="46.27252" lon="10.60615">
        <ele>2001</ele>
        <time>2018-09-22T00:30:09.002Z</time>
      </trkpt>
      <trkpt lat="46.27246" lon="10.60605">
        <ele>2001</ele>
        <time>2018-09-22T00:30:15.017Z</time>
      </trkpt>
      <trkpt lat="46.27238" lon="10.60596">
        <ele>2000.6529047516</ele>
        <time>2018-09-22T00:30:21.004Z</time>
      </trkpt>
      <trkpt lat="46.27232" lon="10.60586">
        <ele>1999.9530103593</ele>
        <time>2018-09-22T00:30:28.004Z</time>
      </trkpt>
      <trkpt lat="46.27229" lon="10.60572">
        <ele>1999.0792232517</ele>
        <time>2018-09-22T00:30:37.004Z</time>
      </trkpt>
      <trkpt lat="46.27225" lon="10.60558">
        <ele>1999</ele>
        <time>2018-09-22T00:30:44.003Z</time>
      </trkpt>
      <trkpt lat="46.27221" lon="10.60546">
        <ele>1998.55160064</ele>
        <time>2018-09-22T00:30:52.004Z</time>
      </trkpt>
      <trkpt lat="46.27216" lon="10.60534">
        <ele>1997.75059968</ele>
        <time>2018-09-22T00:31:00.014Z</time>
      </trkpt>
      <trkpt lat="46.27209" lon="10.60523">
        <ele>1997.15190016</ele>
        <time>2018-09-22T00:31:06.001Z</time>
      </trkpt>
      <trkpt lat="46.27204" lon="10.60511">
        <ele>1997</ele>
        <time>2018-09-22T00:31:14.003Z</time>
      </trkpt>
      <trkpt lat="46.272" lon="10.60498">
        <ele>1997</ele>
        <time>2018-09-22T00:31:21.001Z</time>
      </trkpt>
      <trkpt lat="46.27194" lon="10.60487">
        <ele>1996.95190016</ele>
        <time>2018-09-22T00:31:28.001Z</time>
      </trkpt>
      <trkpt lat="46.27188" lon="10.60478">
        <ele>1996.25059968</ele>
        <time>2018-09-22T00:31:35.014Z</time>
      </trkpt>
      <trkpt lat="46.2718" lon="10.60467">
        <ele>1996</ele>
        <time>2018-09-22T00:31:42.001Z</time>
      </trkpt>
      <trkpt lat="46.27175" lon="10.60454">
        <ele>1995.8558445893</ele>
        <time>2018-09-22T00:31:48.001Z</time>
      </trkpt>
      <trkpt lat="46.2717" lon="10.60441">
        <ele>1994.0576422162</ele>
        <time>2018-09-22T00:31:54.001Z</time>
      </trkpt>
      <trkpt lat="46.27166" lon="10.60428">
        <ele>1992.4520512666</ele>
        <time>2018-09-22T00:32:03.004Z</time>
      </trkpt>
      <trkpt lat="46.27163" lon="10.60416">
        <ele>1992</ele>
        <time>2018-09-22T00:32:11.003Z</time>
      </trkpt>
      <trkpt lat="46.27159" lon="10.60404">
        <ele>1992</ele>
        <time>2018-09-22T00:32:18.001Z</time>
      </trkpt>
      <trkpt lat="46.27153" lon="10.60392">
        <ele>1992</ele>
        <time>2018-09-22T00:32:24.002Z</time>
      </trkpt>
      <trkpt lat="46.27148" lon="10.60381">
        <ele>1991.3058919659</ele>
        <time>2018-09-22T00:32:31.004Z</time>
      </trkpt>
      <trkpt lat="46.27142" lon="10.6037">
        <ele>1989.9536926443</ele>
        <time>2018-09-22T00:32:38.004Z</time>
      </trkpt>
      <trkpt lat="46.27137" lon="10.60359">
        <ele>1989.1552899607</ele>
        <time>2018-09-22T00:32:46.004Z</time>
      </trkpt>
      <trkpt lat="46.27131" lon="10.60348">
        <ele>1988.4534130121</ele>
        <time>2018-09-22T00:32:53.004Z</time>
      </trkpt>
      <trkpt lat="46.27128" lon="10.60335">
        <ele>1987.75059968</ele>
        <time>2018-09-22T00:33:00.014Z</time>
      </trkpt>
      <trkpt lat="46.27124" lon="10.60322">
        <ele>1987</ele>
        <time>2018-09-22T00:33:08.004Z</time>
      </trkpt>
      <trkpt lat="46.27121" lon="10.60309">
        <ele>1987</ele>
        <time>2018-09-22T00:33:15.016Z</time>
      </trkpt>
      <trkpt lat="46.27115" lon="10.60297">
        <ele>1986.45159936</ele>
        <time>2018-09-22T00:33:23.004Z</time>
      </trkpt>
      <trkpt lat="46.2711" lon="10.60286">
        <ele>1985.8526369282</ele>
        <time>2018-09-22T00:33:29.001Z</time>
      </trkpt>
      <trkpt lat="46.27104" lon="10.60273">
        <ele>1985.1559206069</ele>
        <time>2018-09-22T00:33:36.003Z</time>
      </trkpt>
      <trkpt lat="46.27101" lon="10.6026">
        <ele>1984.5544726659</ele>
        <time>2018-09-22T00:33:42.003Z</time>
      </trkpt>
      <trkpt lat="46.27095" lon="10.60251">
        <ele>1984</ele>
        <time>2018-09-22T00:33:49.004Z</time>
      </trkpt>
      <trkpt lat="46.27092" lon="10.60237">
        <ele>1984</ele>
        <time>2018-09-22T00:33:56.004Z</time>
      </trkpt>
      <trkpt lat="46.27088" lon="10.60223">
        <ele>1984.545829131</ele>
        <time>2018-09-22T00:34:03.001Z</time>
      </trkpt>
      <trkpt lat="46.27079" lon="10.60215">
        <ele>1984.7575731215</ele>
        <time>2018-09-22T00:34:10.017Z</time>
      </trkpt>
      <trkpt lat="46.27072" lon="10.60206">
        <ele>1984.0792232517</ele>
        <time>2018-09-22T00:34:17.004Z</time>
      </trkpt>
      <trkpt lat="46.27067" lon="10.60194">
        <ele>1983.28040064</ele>
        <time>2018-09-22T00:34:25.016Z</time>
      </trkpt>
      <trkpt lat="46.27062" lon="10.60182">
        <ele>1981.7253619631</ele>
        <time>2018-09-22T00:34:34.002Z</time>
      </trkpt>
      <trkpt lat="46.27053" lon="10.60178">
        <ele>1981</ele>
        <time>2018-09-22T00:34:42.005Z</time>
      </trkpt>
      <trkpt lat="46.27048" lon="10.60165">
        <ele>1980.25179904</ele>
        <time>2018-09-22T00:34:50.014Z</time>
      </trkpt>
      <trkpt lat="46.27044" lon="10.60153">
        <ele>1978.45480192</ele>
        <time>2018-09-22T00:34:56.004Z</time>
      </trkpt>
      <trkpt lat="46.27042" lon="10.6014">
        <ele>1978.54829952</ele>
        <time>2018-09-22T00:35:03.003Z</time>
      </trkpt>
      <trkpt lat="46.27039" lon="10.60127">
        <ele>1979.14829952</ele>
        <time>2018-09-22T00:35:09.003Z</time>
      </trkpt>
      <trkpt lat="46.27037" lon="10.60114">
        <ele>1979.84839936</ele>
        <time>2018-09-22T00:35:16.004Z</time>
      </trkpt>
      <trkpt lat="46.27036" lon="10.60101">
        <ele>1980</ele>
        <time>2018-09-22T00:35:23.005Z</time>
      </trkpt>
      <trkpt lat="46.27035" lon="10.60087">
        <ele>1980</ele>
        <time>2018-09-22T00:35:31.004Z</time>
      </trkpt>
      <trkpt lat="46.27031" lon="10.60074">
        <ele>1980</ele>
        <time>2018-09-22T00:35:37.003Z</time>
      </trkpt>
      <trkpt lat="46.27029" lon="10.60061">
        <ele>1980.7335059413</ele>
        <time>2018-09-22T00:35:45.013Z</time>
      </trkpt>
      <trkpt lat="46.27027" lon="10.60046">
        <ele>1981</ele>
        <time>2018-09-22T00:35:53.003Z</time>
      </trkpt>
      <trkpt lat="46.27025" lon="10.60033">
        <ele>1981</ele>
        <time>2018-09-22T00:36:00.013Z</time>
      </trkpt>
      <trkpt lat="46.27023" lon="10.6002">
        <ele>1981</ele>
        <time>2018-09-22T00:36:07.004Z</time>
      </trkpt>
      <trkpt lat="46.27021" lon="10.60006">
        <ele>1982.69880064</ele>
        <time>2018-09-22T00:36:16.014Z</time>
      </trkpt>
      <trkpt lat="46.27017" lon="10.59993">
        <ele>1983</ele>
        <time>2018-09-22T00:36:25.014Z</time>
      </trkpt>
      <trkpt lat="46.27015" lon="10.5998">
        <ele>1983.5489494138</ele>
        <time>2018-09-22T00:36:33.014Z</time>
      </trkpt>
      <trkpt lat="46.27013" lon="10.59967">
        <ele>1984</ele>
        <time>2018-09-22T00:36:41.014Z</time>
      </trkpt>
      <trkpt lat="46.27012" lon="10.59954">
        <ele>1983.9585532876</ele>
        <time>2018-09-22T00:36:48.014Z</time>
      </trkpt>
      <trkpt lat="46.2701" lon="10.5994">
        <ele>1983.078788167</ele>
        <time>2018-09-22T00:36:57.014Z</time>
      </trkpt>
      <trkpt lat="46.27009" lon="10.59926">
        <ele>1985.2221659198</ele>
        <time>2018-09-22T00:37:05.005Z</time>
      </trkpt>
      <trkpt lat="46.27008" lon="10.59911">
        <ele>1986</ele>
        <time>2018-09-22T00:37:13.003Z</time>
      </trkpt>
      <trkpt lat="46.27006" lon="10.59898">
        <ele>1986.24829952</ele>
        <time>2018-09-22T00:37:20.003Z</time>
      </trkpt>
      <trkpt lat="46.27003" lon="10.59885">
        <ele>1987</ele>
        <time>2018-09-22T00:37:28.003Z</time>
      </trkpt>
      <trkpt lat="46.26998" lon="10.59874">
        <ele>1987</ele>
        <time>2018-09-22T00:37:34.013Z</time>
      </trkpt>
      <trkpt lat="46.26993" lon="10.59863">
        <ele>1987.4376871186</ele>
        <time>2018-09-22T00:37:42.000Z</time>
      </trkpt>
      <trkpt lat="46.26987" lon="10.59851">
        <ele>1988</ele>
        <time>2018-09-22T00:37:49.015Z</time>
      </trkpt>
      <trkpt lat="46.26981" lon="10.5984">
        <ele>1988</ele>
        <time>2018-09-22T00:37:56.005Z</time>
      </trkpt>
      <trkpt lat="46.26975" lon="10.5983">
        <ele>1986.9081676494</ele>
        <time>2018-09-22T00:38:03.001Z</time>
      </trkpt>
      <trkpt lat="46.26971" lon="10.59818">
        <ele>1986.145582008</ele>
        <time>2018-09-22T00:38:09.010Z</time>
      </trkpt>
      <trkpt lat="46.26965" lon="10.59809">
        <ele>1986.7474904418</ele>
        <time>2018-09-22T00:38:15.005Z</time>
      </trkpt>
      <trkpt lat="46.26961" lon="10.59795">
        <ele>1987</ele>
        <time>2018-09-22T00:38:23.005Z</time>
      </trkpt>
      <trkpt lat="46.26956" lon="10.59782">
        <ele>1987</ele>
        <time>2018-09-22T00:38:29.013Z</time>
      </trkpt>
      <trkpt lat="46.26954" lon="10.59769">
        <ele>1987</ele>
        <time>2018-09-22T00:38:38.005Z</time>
      </trkpt>
      <trkpt lat="46.2695" lon="10.59755">
        <ele>1987</ele>
        <time>2018-09-22T00:38:45.003Z</time>
      </trkpt>
      <trkpt lat="46.26948" lon="10.59741">
        <ele>1987</ele>
        <time>2018-09-22T00:38:52.002Z</time>
      </trkpt>
      <trkpt lat="46.26947" lon="10.59727">
        <ele>1987.14950016</ele>
        <time>2018-09-22T00:38:59.015Z</time>
      </trkpt>
      <trkpt lat="46.26945" lon="10.59714">
        <ele>1987.74829952</ele>
        <time>2018-09-22T00:39:05.003Z</time>
      </trkpt>
      <trkpt lat="46.26942" lon="10.597">
        <ele>1987.35049984</ele>
        <time>2018-09-22T00:39:14.015Z</time>
      </trkpt>
      <trkpt lat="46.26937" lon="10.59686">
        <ele>1987</ele>
        <time>2018-09-22T00:39:21.001Z</time>
      </trkpt>
      <trkpt lat="46.26932" lon="10.59676">
        <ele>1987</ele>
        <time>2018-09-22T00:39:27.002Z</time>
      </trkpt>
      <trkpt lat="46.26926" lon="10.59665">
        <ele>1987.6383509366</ele>
        <time>2018-09-22T00:39:34.012Z</time>
      </trkpt>
      <trkpt lat="46.26921" lon="10.59654">
        <ele>1987.7530350656</ele>
        <time>2018-09-22T00:39:40.002Z</time>
      </trkpt>
      <trkpt lat="46.26916" lon="10.59642">
        <ele>1987.1560199502</ele>
        <time>2018-09-22T00:39:46.002Z</time>
      </trkpt>
      <trkpt lat="46.26912" lon="10.59631">
        <ele>1986.5542706961</ele>
        <time>2018-09-22T00:39:52.005Z</time>
      </trkpt>
      <trkpt lat="46.26908" lon="10.59617">
        <ele>1986.34829952</ele>
        <time>2018-09-22T00:40:01.003Z</time>
      </trkpt>
      <trkpt lat="46.26908" lon="10.59604">
        <ele>1986.94819968</ele>
        <time>2018-09-22T00:40:07.002Z</time>
      </trkpt>
      <trkpt lat="46.26902" lon="10.59592">
        <ele>1987</ele>
        <time>2018-09-22T00:40:14.015Z</time>
      </trkpt>
      <trkpt lat="46.26899" lon="10.59578">
        <ele>1986.65190016</ele>
        <time>2018-09-22T00:40:21.001Z</time>
      </trkpt>
      <trkpt lat="46.26895" lon="10.59566">
        <ele>1986.05159936</ele>
        <time>2018-09-22T00:40:27.004Z</time>
      </trkpt>
      <trkpt lat="46.26891" lon="10.59553">
        <ele>1985.55180032</ele>
        <time>2018-09-22T00:40:32.002Z</time>
      </trkpt>
      <trkpt lat="46.26887" lon="10.5954">
        <ele>1985.05180032</ele>
        <time>2018-09-22T00:40:37.002Z</time>
      </trkpt>
      <trkpt lat="46.26882" lon="10.59527">
        <ele>1984.4679614956</ele>
        <time>2018-09-22T00:40:43.000Z</time>
      </trkpt>
      <trkpt lat="46.26877" lon="10.59515">
        <ele>1983.7780412556</ele>
        <time>2018-09-22T00:40:49.973Z</time>
      </trkpt>
      <trkpt lat="46.2687" lon="10.59504">
        <ele>1983.0530923237</ele>
        <time>2018-09-22T00:40:57.005Z</time>
      </trkpt>
      <trkpt lat="46.26862" lon="10.59495">
        <ele>1982.45190016</ele>
        <time>2018-09-22T00:41:03.001Z</time>
      </trkpt>
      <trkpt lat="46.26856" lon="10.59485">
        <ele>1981.8547888893</ele>
        <time>2018-09-22T00:41:08.005Z</time>
      </trkpt>
      <trkpt lat="46.2685" lon="10.59474">
        <ele>1980.0568859445</ele>
        <time>2018-09-22T00:41:14.010Z</time>
      </trkpt>
      <trkpt lat="46.26843" lon="10.59463">
        <ele>1979</ele>
        <time>2018-09-22T00:41:22.005Z</time>
      </trkpt>
      <trkpt lat="46.26835" lon="10.59453">
        <ele>1978.759980685</ele>
        <time>2018-09-22T00:41:28.001Z</time>
      </trkpt>
      <trkpt lat="46.2683" lon="10.59442">
        <ele>1976.2649691114</ele>
        <time>2018-09-22T00:41:33.001Z</time>
      </trkpt>
      <trkpt lat="46.26826" lon="10.59429">
        <ele>1973.852003622</ele>
        <time>2018-09-22T00:41:39.017Z</time>
      </trkpt>
      <trkpt lat="46.26822" lon="10.59416">
        <ele>1973.2525048481</ele>
        <time>2018-09-22T00:41:45.000Z</time>
      </trkpt>
      <trkpt lat="46.26815" lon="10.59405">
        <ele>1973</ele>
        <time>2018-09-22T00:41:53.000Z</time>
      </trkpt>
      <trkpt lat="46.26808" lon="10.59395">
        <ele>1972.70160128</ele>
        <time>2018-09-22T00:41:59.012Z</time>
      </trkpt>
      <trkpt lat="46.26802" lon="10.59385">
        <ele>1971.70099968</ele>
        <time>2018-09-22T00:42:04.015Z</time>
      </trkpt>
      <trkpt lat="46.26793" lon="10.59374">
        <ele>1970.752</ele>
        <time>2018-09-22T00:42:10.000Z</time>
      </trkpt>
      <trkpt lat="46.26787" lon="10.59363">
        <ele>1970.152</ele>
        <time>2018-09-22T00:42:16.000Z</time>
      </trkpt>
      <trkpt lat="46.2678" lon="10.59351">
        <ele>1969.55180032</ele>
        <time>2018-09-22T00:42:22.002Z</time>
      </trkpt>
      <trkpt lat="46.26775" lon="10.5934">
        <ele>1969</ele>
        <time>2018-09-22T00:42:28.000Z</time>
      </trkpt>
      <trkpt lat="46.26771" lon="10.59328">
        <ele>1969</ele>
        <time>2018-09-22T00:42:35.002Z</time>
      </trkpt>
      <trkpt lat="46.26768" lon="10.59315">
        <ele>1969</ele>
        <time>2018-09-22T00:42:44.015Z</time>
      </trkpt>
      <trkpt lat="46.26767" lon="10.59301">
        <ele>1969.5477475723</ele>
        <time>2018-09-22T00:42:53.002Z</time>
      </trkpt>
      <trkpt lat="46.26766" lon="10.59287">
        <ele>1970.348</ele>
        <time>2018-09-22T00:43:01.000Z</time>
      </trkpt>
      <trkpt lat="46.26764" lon="10.59274">
        <ele>1971.29900032</ele>
        <time>2018-09-22T00:43:09.015Z</time>
      </trkpt>
      <trkpt lat="46.26761" lon="10.5926">
        <ele>1972.89639936</ele>
        <time>2018-09-22T00:43:17.002Z</time>
      </trkpt>
      <trkpt lat="46.26756" lon="10.59247">
        <ele>1973.6490509967</ele>
        <time>2018-09-22T00:43:24.017Z</time>
      </trkpt>
      <trkpt lat="46.26754" lon="10.59233">
        <ele>1974.4474476244</ele>
        <time>2018-09-22T00:43:32.000Z</time>
      </trkpt>
      <trkpt lat="46.26752" lon="10.59219">
        <ele>1975</ele>
        <time>2018-09-22T00:43:38.001Z</time>
      </trkpt>
      <trkpt lat="46.26751" lon="10.59205">
        <ele>1975</ele>
        <time>2018-09-22T00:43:45.003Z</time>
      </trkpt>
      <trkpt lat="46.26753" lon="10.59192">
        <ele>1975</ele>
        <time>2018-09-22T00:43:52.001Z</time>
      </trkpt>
      <trkpt lat="46.26755" lon="10.59178">
        <ele>1974.8754128926</ele>
        <time>2018-09-22T00:43:59.046Z</time>
      </trkpt>
      <trkpt lat="46.26756" lon="10.59164">
        <ele>1974.2603305785</ele>
        <time>2018-09-22T00:44:05.000Z</time>
      </trkpt>
      <trkpt lat="46.26755" lon="10.59151">
        <ele>1974</ele>
        <time>2018-09-22T00:44:11.005Z</time>
      </trkpt>
      <trkpt lat="46.26753" lon="10.59136">
        <ele>1974</ele>
        <time>2018-09-22T00:44:17.002Z</time>
      </trkpt>
      <trkpt lat="46.26751" lon="10.59122">
        <ele>1974</ele>
        <time>2018-09-22T00:44:23.002Z</time>
      </trkpt>
      <trkpt lat="46.26748" lon="10.59108">
        <ele>1974</ele>
        <time>2018-09-22T00:44:30.000Z</time>
      </trkpt>
      <trkpt lat="46.26745" lon="10.59095">
        <ele>1974</ele>
        <time>2018-09-22T00:44:36.002Z</time>
      </trkpt>
      <trkpt lat="46.2674" lon="10.59084">
        <ele>1974</ele>
        <time>2018-09-22T00:44:42.002Z</time>
      </trkpt>
      <trkpt lat="46.26735" lon="10.59073">
        <ele>1974</ele>
        <time>2018-09-22T00:44:48.002Z</time>
      </trkpt>
      <trkpt lat="46.26727" lon="10.59067">
        <ele>1974</ele>
        <time>2018-09-22T00:44:54.016Z</time>
      </trkpt>
      <trkpt lat="46.26716" lon="10.59071">
        <ele>1972.7622634595</ele>
        <time>2018-09-22T00:45:00.003Z</time>
      </trkpt>
      <trkpt lat="46.26707" lon="10.59078">
        <ele>1970.2597617586</ele>
        <time>2018-09-22T00:45:05.003Z</time>
      </trkpt>
      <trkpt lat="46.26702" lon="10.59089">
        <ele>1968.70139904</ele>
        <time>2018-09-22T00:45:09.013Z</time>
      </trkpt>
      <trkpt lat="46.26701" lon="10.59104">
        <ele>1967.70139904</ele>
        <time>2018-09-22T00:45:14.013Z</time>
      </trkpt>
      <trkpt lat="46.26701" lon="10.59119">
        <ele>1966.85069952</ele>
        <time>2018-09-22T00:45:19.013Z</time>
      </trkpt>
      <trkpt lat="46.26701" lon="10.59133">
        <ele>1966.45190016</ele>
        <time>2018-09-22T00:45:23.001Z</time>
      </trkpt>
      <trkpt lat="46.26699" lon="10.59146">
        <ele>1966.05170048</ele>
        <time>2018-09-22T00:45:27.003Z</time>
      </trkpt>
      <trkpt lat="46.267" lon="10.59162">
        <ele>1965.5543745181</ele>
        <time>2018-09-22T00:45:32.003Z</time>
      </trkpt>
      <trkpt lat="46.26701" lon="10.59175">
        <ele>1965.1567604569</ele>
        <time>2018-09-22T00:45:36.003Z</time>
      </trkpt>
      <trkpt lat="46.26703" lon="10.59188">
        <ele>1964.7564833027</ele>
        <time>2018-09-22T00:45:40.003Z</time>
      </trkpt>
      <trkpt lat="46.26703" lon="10.59202">
        <ele>1964.3530655065</ele>
        <time>2018-09-22T00:45:44.017Z</time>
      </trkpt>
      <trkpt lat="46.26703" lon="10.59218">
        <ele>1963.8510510988</ele>
        <time>2018-09-22T00:45:49.018Z</time>
      </trkpt>
      <trkpt lat="46.26704" lon="10.59234">
        <ele>1963.3508505783</ele>
        <time>2018-09-22T00:45:54.015Z</time>
      </trkpt>
      <trkpt lat="46.26706" lon="10.5925">
        <ele>1962.7097086076</ele>
        <time>2018-09-22T00:45:59.015Z</time>
      </trkpt>
      <trkpt lat="46.26708" lon="10.59264">
        <ele>1961.9353413994</ele>
        <time>2018-09-22T00:46:03.003Z</time>
      </trkpt>
      <trkpt lat="46.26711" lon="10.59276">
        <ele>1961.1582526395</ele>
        <time>2018-09-22T00:46:07.005Z</time>
      </trkpt>
      <trkpt lat="46.26712" lon="10.59291">
        <ele>1959.705669744</ele>
        <time>2018-09-22T00:46:12.005Z</time>
      </trkpt>
      <trkpt lat="46.2671" lon="10.59306">
        <ele>1958.1592769711</ele>
        <time>2018-09-22T00:46:17.005Z</time>
      </trkpt>
      <trkpt lat="46.26709" lon="10.59318">
        <ele>1957.65170048</ele>
        <time>2018-09-22T00:46:21.003Z</time>
      </trkpt>
      <trkpt lat="46.26705" lon="10.59333">
        <ele>1957.15170048</ele>
        <time>2018-09-22T00:46:26.003Z</time>
      </trkpt>
      <trkpt lat="46.26701" lon="10.59346">
        <ele>1956.652</ele>
        <time>2018-09-22T00:46:31.000Z</time>
      </trkpt>
      <trkpt lat="46.26699" lon="10.5936">
        <ele>1956.25149952</ele>
        <time>2018-09-22T00:46:35.005Z</time>
      </trkpt>
      <trkpt lat="46.26697" lon="10.59376">
        <ele>1955.50299904</ele>
        <time>2018-09-22T00:46:40.005Z</time>
      </trkpt>
      <trkpt lat="46.26697" lon="10.5939">
        <ele>1954.50340096</ele>
        <time>2018-09-22T00:46:45.003Z</time>
      </trkpt>
      <trkpt lat="46.267" lon="10.59406">
        <ele>1953.25449856</ele>
        <time>2018-09-22T00:46:50.005Z</time>
      </trkpt>
      <trkpt lat="46.26703" lon="10.5942">
        <ele>1951.75510144</ele>
        <time>2018-09-22T00:46:55.003Z</time>
      </trkpt>
      <trkpt lat="46.26706" lon="10.59436">
        <ele>1950.7593996899</ele>
        <time>2018-09-22T00:47:00.003Z</time>
      </trkpt>
      <trkpt lat="46.26707" lon="10.59451">
        <ele>1950.2750003101</ele>
        <time>2018-09-22T00:47:05.002Z</time>
      </trkpt>
      <trkpt lat="46.2671" lon="10.59466">
        <ele>1949.5599180165</ele>
        <time>2018-09-22T00:47:09.970Z</time>
      </trkpt>
      <trkpt lat="46.26707" lon="10.59479">
        <ele>1948.7250009917</ele>
        <time>2018-09-22T00:47:14.011Z</time>
      </trkpt>
      <trkpt lat="46.26701" lon="10.59491">
        <ele>1947.85090048</ele>
        <time>2018-09-22T00:47:19.011Z</time>
      </trkpt>
      <trkpt lat="46.26695" lon="10.59503">
        <ele>1947.25170048</ele>
        <time>2018-09-22T00:47:25.003Z</time>
      </trkpt>
      <trkpt lat="46.2669" lon="10.59516">
        <ele>1945.51020288</ele>
        <time>2018-09-22T00:47:30.003Z</time>
      </trkpt>
      <trkpt lat="46.26687" lon="10.59528">
        <ele>1942.51020288</ele>
        <time>2018-09-22T00:47:35.003Z</time>
      </trkpt>
      <trkpt lat="46.26682" lon="10.59541">
        <ele>1940.75170048</ele>
        <time>2018-09-22T00:47:40.003Z</time>
      </trkpt>
      <trkpt lat="46.26678" lon="10.59554">
        <ele>1940.25170048</ele>
        <time>2018-09-22T00:47:45.003Z</time>
      </trkpt>
      <trkpt lat="46.26677" lon="10.59568">
        <ele>1940</ele>
        <time>2018-09-22T00:47:50.003Z</time>
      </trkpt>
      <trkpt lat="46.26672" lon="10.59582">
        <ele>1940</ele>
        <time>2018-09-22T00:47:56.003Z</time>
      </trkpt>
      <trkpt lat="46.26668" lon="10.59596">
        <ele>1938.20760064</ele>
        <time>2018-09-22T00:48:02.001Z</time>
      </trkpt>
      <trkpt lat="46.26662" lon="10.59606">
        <ele>1936.20680192</ele>
        <time>2018-09-22T00:48:07.003Z</time>
      </trkpt>
      <trkpt lat="46.26655" lon="10.59616">
        <ele>1935.45170048</ele>
        <time>2018-09-22T00:48:13.003Z</time>
      </trkpt>
      <trkpt lat="46.26647" lon="10.59624">
        <ele>1934.00760064</ele>
        <time>2018-09-22T00:48:20.001Z</time>
      </trkpt>
      <trkpt lat="46.2664" lon="10.59633">
        <ele>1931.20680192</ele>
        <time>2018-09-22T00:48:27.003Z</time>
      </trkpt>
      <trkpt lat="46.26633" lon="10.59642">
        <ele>1928.80680192</ele>
        <time>2018-09-22T00:48:33.003Z</time>
      </trkpt>
      <trkpt lat="46.26625" lon="10.59652">
        <ele>1926.85090048</ele>
        <time>2018-09-22T00:48:39.011Z</time>
      </trkpt>
      <trkpt lat="46.26618" lon="10.59662">
        <ele>1926.25180032</ele>
        <time>2018-09-22T00:48:45.002Z</time>
      </trkpt>
      <trkpt lat="46.26613" lon="10.59673">
        <ele>1925.3042961212</ele>
        <time>2018-09-22T00:48:51.002Z</time>
      </trkpt>
      <trkpt lat="46.26608" lon="10.59685">
        <ele>1924.3054942835</ele>
        <time>2018-09-22T00:48:56.001Z</time>
      </trkpt>
      <trkpt lat="46.26604" lon="10.59698">
        <ele>1922.215170162</ele>
        <time>2018-09-22T00:49:02.001Z</time>
      </trkpt>
      <trkpt lat="46.266" lon="10.59711">
        <ele>1920.2183663276</ele>
        <time>2018-09-22T00:49:07.003Z</time>
      </trkpt>
      <trkpt lat="46.26597" lon="10.59727">
        <ele>1919.4532600853</ele>
        <time>2018-09-22T00:49:13.001Z</time>
      </trkpt>
      <trkpt lat="46.26593" lon="10.59739">
        <ele>1918.9036733573</ele>
        <time>2018-09-22T00:49:18.005Z</time>
      </trkpt>
      <trkpt lat="46.26591" lon="10.59752">
        <ele>1917.9114207233</ele>
        <time>2018-09-22T00:49:23.001Z</time>
      </trkpt>
      <trkpt lat="46.26588" lon="10.59765">
        <ele>1916.9584096543</ele>
        <time>2018-09-22T00:49:28.003Z</time>
      </trkpt>
      <trkpt lat="46.26585" lon="10.59778">
        <ele>1916.4548848193</ele>
        <time>2018-09-22T00:49:33.003Z</time>
      </trkpt>
      <trkpt lat="46.26582" lon="10.5979">
        <ele>1915.90299904</ele>
        <time>2018-09-22T00:49:38.005Z</time>
      </trkpt>
      <trkpt lat="46.2658" lon="10.59803">
        <ele>1914.90119936</ele>
        <time>2018-09-22T00:49:43.014Z</time>
      </trkpt>
      <trkpt lat="46.26575" lon="10.59815">
        <ele>1913.95059968</ele>
        <time>2018-09-22T00:49:48.014Z</time>
      </trkpt>
      <trkpt lat="46.26568" lon="10.59825">
        <ele>1913.45059968</ele>
        <time>2018-09-22T00:49:53.014Z</time>
      </trkpt>
      <trkpt lat="46.26562" lon="10.59835">
        <ele>1912.90119936</ele>
        <time>2018-09-22T00:49:58.014Z</time>
      </trkpt>
      <trkpt lat="46.26555" lon="10.59844">
        <ele>1911.90119936</ele>
        <time>2018-09-22T00:50:03.014Z</time>
      </trkpt>
      <trkpt lat="46.26549" lon="10.59853">
        <ele>1911</ele>
        <time>2018-09-22T00:50:08.014Z</time>
      </trkpt>
      <trkpt lat="46.26542" lon="10.59863">
        <ele>1911</ele>
        <time>2018-09-22T00:50:13.014Z</time>
      </trkpt>
      <trkpt lat="46.26536" lon="10.59874">
        <ele>1910.9824804229</ele>
        <time>2018-09-22T00:50:18.014Z</time>
      </trkpt>
      <trkpt lat="46.2653" lon="10.59884">
        <ele>1909.9397279033</ele>
        <time>2018-09-22T00:50:23.014Z</time>
      </trkpt>
      <trkpt lat="46.26524" lon="10.59895">
        <ele>1908.701795578</ele>
        <time>2018-09-22T00:50:29.014Z</time>
      </trkpt>
      <trkpt lat="46.26517" lon="10.59906">
        <ele>1907.7037909485</ele>
        <time>2018-09-22T00:50:34.014Z</time>
      </trkpt>
      <trkpt lat="46.26513" lon="10.59919">
        <ele>1906.6522514027</ele>
        <time>2018-09-22T00:50:41.014Z</time>
      </trkpt>
      <trkpt lat="46.26514" lon="10.59933">
        <ele>1906.052752896</ele>
        <time>2018-09-22T00:50:47.003Z</time>
      </trkpt>
      <trkpt lat="46.26512" lon="10.59947">
        <ele>1905.2508504502</ele>
        <time>2018-09-22T00:50:55.014Z</time>
      </trkpt>
      <trkpt lat="46.26506" lon="10.59958">
        <ele>1904.3236906727</ele>
        <time>2018-09-22T00:51:01.003Z</time>
      </trkpt>
      <trkpt lat="46.26506" lon="10.59972">
        <ele>1903.1584465035</ele>
        <time>2018-09-22T00:51:07.004Z</time>
      </trkpt>
      <trkpt lat="46.26508" lon="10.59986">
        <ele>1903</ele>
        <time>2018-09-22T00:51:14.004Z</time>
      </trkpt>
      <trkpt lat="46.26509" lon="10.6">
        <ele>1902.652945983</ele>
        <time>2018-09-22T00:51:21.004Z</time>
      </trkpt>
      <trkpt lat="46.26508" lon="10.60014">
        <ele>1902</ele>
        <time>2018-09-22T00:51:28.004Z</time>
      </trkpt>
      <trkpt lat="46.26509" lon="10.60029">
        <ele>1902</ele>
        <time>2018-09-22T00:51:36.005Z</time>
      </trkpt>
      <trkpt lat="46.26507" lon="10.60043">
        <ele>1902</ele>
        <time>2018-09-22T00:51:43.004Z</time>
      </trkpt>
      <trkpt lat="46.26499" lon="10.60053">
        <ele>1901.65159936</ele>
        <time>2018-09-22T00:51:51.004Z</time>
      </trkpt>
      <trkpt lat="46.26489" lon="10.60052">
        <ele>1900.90320128</ele>
        <time>2018-09-22T00:51:58.004Z</time>
      </trkpt>
      <trkpt lat="46.26479" lon="10.60047">
        <ele>1899.50119936</ele>
        <time>2018-09-22T00:52:05.014Z</time>
      </trkpt>
      <trkpt lat="46.2647" lon="10.60047">
        <ele>1899</ele>
        <time>2018-09-22T00:52:10.014Z</time>
      </trkpt>
      <trkpt lat="46.26461" lon="10.60045">
        <ele>1899</ele>
        <time>2018-09-22T00:52:15.012Z</time>
      </trkpt>
      <trkpt lat="46.26453" lon="10.6004">
        <ele>1898.5010990613</ele>
        <time>2018-09-22T00:52:20.017Z</time>
      </trkpt>
      <trkpt lat="46.26444" lon="10.60037">
        <ele>1897.3052948029</ele>
        <time>2018-09-22T00:52:26.002Z</time>
      </trkpt>
      <trkpt lat="46.26435" lon="10.60043">
        <ele>1896.5521526159</ele>
        <time>2018-09-22T00:52:32.004Z</time>
      </trkpt>
      <trkpt lat="46.26427" lon="10.60051">
        <ele>1895.85190016</ele>
        <time>2018-09-22T00:52:39.001Z</time>
      </trkpt>
      <trkpt lat="46.2642" lon="10.60059">
        <ele>1895.15160064</ele>
        <time>2018-09-22T00:52:46.004Z</time>
      </trkpt>
      <trkpt lat="46.26412" lon="10.60067">
        <ele>1893.9174734586</ele>
        <time>2018-09-22T00:52:53.003Z</time>
      </trkpt>
      <trkpt lat="46.26402" lon="10.60071">
        <ele>1892.8577501576</ele>
        <time>2018-09-22T00:52:58.001Z</time>
      </trkpt>
      <trkpt lat="46.26393" lon="10.60073">
        <ele>1890.4249261439</ele>
        <time>2018-09-22T00:53:04.004Z</time>
      </trkpt>
      <trkpt lat="46.26384" lon="10.60074">
        <ele>1888.65159936</ele>
        <time>2018-09-22T00:53:11.004Z</time>
      </trkpt>
      <trkpt lat="46.26374" lon="10.60075">
        <ele>1887.7668625715</ele>
        <time>2018-09-22T00:53:18.004Z</time>
      </trkpt>
      <trkpt lat="46.26364" lon="10.60072">
        <ele>1884.3901740947</ele>
        <time>2018-09-22T00:53:25.014Z</time>
      </trkpt>
      <trkpt lat="46.26355" lon="10.60066">
        <ele>1882.6773386627</ele>
        <time>2018-09-22T00:53:31.004Z</time>
      </trkpt>
      <trkpt lat="46.26346" lon="10.60059">
        <ele>1882.0538465223</ele>
        <time>2018-09-22T00:53:37.002Z</time>
      </trkpt>
      <trkpt lat="46.26336" lon="10.60059">
        <ele>1882</ele>
        <time>2018-09-22T00:53:44.001Z</time>
      </trkpt>
      <trkpt lat="46.26326" lon="10.60064">
        <ele>1881.5573548848</ele>
        <time>2018-09-22T00:53:52.004Z</time>
      </trkpt>
      <trkpt lat="46.26319" lon="10.60074">
        <ele>1880.8565362978</ele>
        <time>2018-09-22T00:53:58.004Z</time>
      </trkpt>
      <trkpt lat="46.26315" lon="10.60087">
        <ele>1878.4249261439</ele>
        <time>2018-09-22T00:54:04.004Z</time>
      </trkpt>
      <trkpt lat="46.26313" lon="10.60101">
        <ele>1877</ele>
        <time>2018-09-22T00:54:11.004Z</time>
      </trkpt>
      <trkpt lat="46.2631" lon="10.60113">
        <ele>1876.9535070438</ele>
        <time>2018-09-22T00:54:18.004Z</time>
      </trkpt>
      <trkpt lat="46.26306" lon="10.60126">
        <ele>1876.2511017227</ele>
        <time>2018-09-22T00:54:25.014Z</time>
      </trkpt>
      <trkpt lat="46.26302" lon="10.60138">
        <ele>1876</ele>
        <time>2018-09-22T00:54:31.002Z</time>
      </trkpt>
      <trkpt lat="46.26296" lon="10.60151">
        <ele>1876</ele>
        <time>2018-09-22T00:54:37.004Z</time>
      </trkpt>
      <trkpt lat="46.26292" lon="10.60164">
        <ele>1876</ele>
        <time>2018-09-22T00:54:43.002Z</time>
      </trkpt>
      <trkpt lat="46.26288" lon="10.60177">
        <ele>1875.85159936</ele>
        <time>2018-09-22T00:54:49.004Z</time>
      </trkpt>
      <trkpt lat="46.26284" lon="10.6019">
        <ele>1875.25059968</ele>
        <time>2018-09-22T00:54:55.014Z</time>
      </trkpt>
      <trkpt lat="46.26283" lon="10.60204">
        <ele>1874.55180032</ele>
        <time>2018-09-22T00:55:02.002Z</time>
      </trkpt>
      <trkpt lat="46.26283" lon="10.60219">
        <ele>1874</ele>
        <time>2018-09-22T00:55:10.017Z</time>
      </trkpt>
      <trkpt lat="46.26285" lon="10.60232">
        <ele>1873.9527891633</ele>
        <time>2018-09-22T00:55:18.004Z</time>
      </trkpt>
      <trkpt lat="46.26281" lon="10.60244">
        <ele>1873.2545810359</ele>
        <time>2018-09-22T00:55:25.014Z</time>
      </trkpt>
      <trkpt lat="46.26277" lon="10.60256">
        <ele>1872.4540705273</ele>
        <time>2018-09-22T00:55:33.002Z</time>
      </trkpt>
      <trkpt lat="46.26274" lon="10.6027">
        <ele>1872</ele>
        <time>2018-09-22T00:55:39.002Z</time>
      </trkpt>
      <trkpt lat="46.26275" lon="10.60286">
        <ele>1872</ele>
        <time>2018-09-22T00:55:47.004Z</time>
      </trkpt>
      <trkpt lat="46.26276" lon="10.60299">
        <ele>1871.3690894965</ele>
        <time>2018-09-22T00:55:54.004Z</time>
      </trkpt>
      <trkpt lat="46.26277" lon="10.60313">
        <ele>1870.7574161833</ele>
        <time>2018-09-22T00:56:00.014Z</time>
      </trkpt>
      <trkpt lat="46.2628" lon="10.60326">
        <ele>1870.1531788809</ele>
        <time>2018-09-22T00:56:06.002Z</time>
      </trkpt>
      <trkpt lat="46.26282" lon="10.6034">
        <ele>1870</ele>
        <time>2018-09-22T00:56:13.002Z</time>
      </trkpt>
      <trkpt lat="46.26282" lon="10.60353">
        <ele>1870</ele>
        <time>2018-09-22T00:56:19.004Z</time>
      </trkpt>
      <trkpt lat="46.2628" lon="10.60367">
        <ele>1870</ele>
        <time>2018-09-22T00:56:25.017Z</time>
      </trkpt>
      <trkpt lat="46.26282" lon="10.6038">
        <ele>1870</ele>
        <time>2018-09-22T00:56:31.004Z</time>
      </trkpt>
      <trkpt lat="46.26284" lon="10.60393">
        <ele>1870</ele>
        <time>2018-09-22T00:56:39.033Z</time>
      </trkpt>
      <trkpt lat="46.26284" lon="10.60407">
        <ele>1870</ele>
        <time>2018-09-22T00:56:45.012Z</time>
      </trkpt>
      <trkpt lat="46.26284" lon="10.60421">
        <ele>1870</ele>
        <time>2018-09-22T00:56:51.004Z</time>
      </trkpt>
      <trkpt lat="46.26282" lon="10.60435">
        <ele>1869.9506502939</ele>
        <time>2018-09-22T00:56:58.004Z</time>
      </trkpt>
      <trkpt lat="46.26279" lon="10.60447">
        <ele>1869.25055017</ele>
        <time>2018-09-22T00:57:05.012Z</time>
      </trkpt>
      <trkpt lat="46.26276" lon="10.60462">
        <ele>1869</ele>
        <time>2018-09-22T00:57:12.004Z</time>
      </trkpt>
      <trkpt lat="46.26274" lon="10.60475">
        <ele>1868.9519370957</ele>
        <time>2018-09-22T00:57:18.004Z</time>
      </trkpt>
      <trkpt lat="46.26272" lon="10.60488">
        <ele>1868.3563063813</ele>
        <time>2018-09-22T00:57:24.002Z</time>
      </trkpt>
      <trkpt lat="46.2627" lon="10.60502">
        <ele>1867.7571002641</ele>
        <time>2018-09-22T00:57:30.002Z</time>
      </trkpt>
      <trkpt lat="46.26268" lon="10.60515">
        <ele>1867.1528704622</ele>
        <time>2018-09-22T00:57:36.002Z</time>
      </trkpt>
      <trkpt lat="46.26266" lon="10.60528">
        <ele>1866.45080064</ele>
        <time>2018-09-22T00:57:43.012Z</time>
      </trkpt>
      <trkpt lat="46.26264" lon="10.60542">
        <ele>1865.7590695607</ele>
        <time>2018-09-22T00:57:50.004Z</time>
      </trkpt>
      <trkpt lat="46.26261" lon="10.60557">
        <ele>1865.0803109741</ele>
        <time>2018-09-22T00:57:57.002Z</time>
      </trkpt>
      <trkpt lat="46.26259" lon="10.60572">
        <ele>1863.0891654371</ele>
        <time>2018-09-22T00:58:04.002Z</time>
      </trkpt>
      <trkpt lat="46.26257" lon="10.60585">
        <ele>1861.75190016</ele>
        <time>2018-09-22T00:58:10.001Z</time>
      </trkpt>
      <trkpt lat="46.26254" lon="10.60598">
        <ele>1861.15190016</ele>
        <time>2018-09-22T00:58:16.001Z</time>
      </trkpt>
      <trkpt lat="46.2625" lon="10.6061">
        <ele>1860.5523476691</ele>
        <time>2018-09-22T00:58:22.001Z</time>
      </trkpt>
      <trkpt lat="46.26245" lon="10.60623">
        <ele>1860</ele>
        <time>2018-09-22T00:58:28.012Z</time>
      </trkpt>
      <trkpt lat="46.2624" lon="10.60635">
        <ele>1860</ele>
        <time>2018-09-22T00:58:34.002Z</time>
      </trkpt>
      <trkpt lat="46.26236" lon="10.60648">
        <ele>1860</ele>
        <time>2018-09-22T00:58:41.002Z</time>
      </trkpt>
      <trkpt lat="46.26233" lon="10.60661">
        <ele>1859.7537437774</ele>
        <time>2018-09-22T00:58:48.013Z</time>
      </trkpt>
      <trkpt lat="46.2623" lon="10.60673">
        <ele>1856.262238965</ele>
        <time>2018-09-22T00:58:55.003Z</time>
      </trkpt>
      <trkpt lat="46.26227" lon="10.60686">
        <ele>1854.5049053838</ele>
        <time>2018-09-22T00:59:00.003Z</time>
      </trkpt>
      <trkpt lat="46.26224" lon="10.60701">
        <ele>1853.3039044472</ele>
        <time>2018-09-22T00:59:06.002Z</time>
      </trkpt>
      <trkpt lat="46.26224" lon="10.60714">
        <ele>1852.4540765302</ele>
        <time>2018-09-22T00:59:13.012Z</time>
      </trkpt>
      <trkpt lat="46.26221" lon="10.60727">
        <ele>1851.8567403504</ele>
        <time>2018-09-22T00:59:19.004Z</time>
      </trkpt>
      <trkpt lat="46.26217" lon="10.60741">
        <ele>1851.2533204046</ele>
        <time>2018-09-22T00:59:25.002Z</time>
      </trkpt>
      <trkpt lat="46.26214" lon="10.60756">
        <ele>1850.6523954666</ele>
        <time>2018-09-22T00:59:31.003Z</time>
      </trkpt>
      <trkpt lat="46.26209" lon="10.60767">
        <ele>1850.0538916113</ele>
        <time>2018-09-22T00:59:37.000Z</time>
      </trkpt>
      <trkpt lat="46.26205" lon="10.60781">
        <ele>1848.7438298211</ele>
        <time>2018-09-22T00:59:44.003Z</time>
      </trkpt>
      <trkpt lat="46.26204" lon="10.60795">
        <ele>1847.3453055423</ele>
        <time>2018-09-22T00:59:51.002Z</time>
      </trkpt>
      <trkpt lat="46.26203" lon="10.6081">
        <ele>1845.0417000772</ele>
        <time>2018-09-22T01:00:00.002Z</time>
      </trkpt>
      <trkpt lat="46.26196" lon="10.60822">
        <ele>1842.3389973745</ele>
        <time>2018-09-22T01:00:07.002Z</time>
      </trkpt>
      <trkpt lat="46.26186" lon="10.60828">
        <ele>1841.5711614938</ele>
        <time>2018-09-22T01:00:12.014Z</time>
      </trkpt>
      <trkpt lat="46.26176" lon="10.60831">
        <ele>1840.7529984</ele>
        <time>2018-09-22T01:00:18.014Z</time>
      </trkpt>
      <trkpt lat="46.26167" lon="10.60832">
        <ele>1837.2534976</ele>
        <time>2018-09-22T01:00:25.013Z</time>
      </trkpt>
      <trkpt lat="46.26156" lon="10.60834">
        <ele>1834.6141301856</ele>
        <time>2018-09-22T01:00:31.002Z</time>
      </trkpt>
      <trkpt lat="46.26145" lon="10.60835">
        <ele>1831.5702361905</ele>
        <time>2018-09-22T01:00:39.014Z</time>
      </trkpt>
      <trkpt lat="46.26135" lon="10.60835">
        <ele>1829.1892838095</ele>
        <time>2018-09-22T01:00:47.014Z</time>
      </trkpt>
      <trkpt lat="46.26126" lon="10.60839">
        <ele>1825.6145710122</ele>
        <time>2018-09-22T01:00:56.012Z</time>
      </trkpt>
      <trkpt lat="46.26117" lon="10.60845">
        <ele>1823.056457079</ele>
        <time>2018-09-22T01:01:04.002Z</time>
      </trkpt>
      <trkpt lat="46.26109" lon="10.60854">
        <ele>1821.0322311256</ele>
        <time>2018-09-22T01:01:10.012Z</time>
      </trkpt>
      <trkpt lat="46.26101" lon="10.6086">
        <ele>1818.3176734337</ele>
        <time>2018-09-22T01:01:17.002Z</time>
      </trkpt>
      <trkpt lat="46.26094" lon="10.6085">
        <ele>1818</ele>
        <time>2018-09-22T01:01:25.013Z</time>
      </trkpt>
      <trkpt lat="46.26089" lon="10.60838">
        <ele>1818</ele>
        <time>2018-09-22T01:01:31.003Z</time>
      </trkpt>
      <trkpt lat="46.26081" lon="10.60831">
        <ele>1818</ele>
        <time>2018-09-22T01:01:37.003Z</time>
      </trkpt>
      <trkpt lat="46.26072" lon="10.60824">
        <ele>1818.54819968</ele>
        <time>2018-09-22T01:01:43.002Z</time>
      </trkpt>
      <trkpt lat="46.26065" lon="10.60815">
        <ele>1819</ele>
        <time>2018-09-22T01:01:49.002Z</time>
      </trkpt>
      <trkpt lat="46.26058" lon="10.60807">
        <ele>1819</ele>
        <time>2018-09-22T01:01:55.015Z</time>
      </trkpt>
      <trkpt lat="46.26051" lon="10.60796">
        <ele>1818.30299904</ele>
        <time>2018-09-22T01:02:01.005Z</time>
      </trkpt>
      <trkpt lat="46.26044" lon="10.60785">
        <ele>1817.30299904</ele>
        <time>2018-09-22T01:02:06.005Z</time>
      </trkpt>
      <trkpt lat="46.26035" lon="10.60776">
        <ele>1816.30340096</ele>
        <time>2018-09-22T01:02:11.003Z</time>
      </trkpt>
      <trkpt lat="46.26027" lon="10.60767">
        <ele>1815.30299904</ele>
        <time>2018-09-22T01:02:16.005Z</time>
      </trkpt>
      <trkpt lat="46.26022" lon="10.60754">
        <ele>1815</ele>
        <time>2018-09-22T01:02:21.003Z</time>
      </trkpt>
      <trkpt lat="46.26017" lon="10.60742">
        <ele>1815</ele>
        <time>2018-09-22T01:02:25.013Z</time>
      </trkpt>
      <trkpt lat="46.26016" lon="10.60729">
        <ele>1814.85170048</ele>
        <time>2018-09-22T01:02:29.003Z</time>
      </trkpt>
      <trkpt lat="46.26014" lon="10.60715">
        <ele>1813.85180032</ele>
        <time>2018-09-22T01:02:39.002Z</time>
      </trkpt>
      <trkpt lat="46.26012" lon="10.60701">
        <ele>1811.14829952</ele>
        <time>2018-09-22T01:03:09.003Z</time>
      </trkpt>
      <trkpt lat="46.2601" lon="10.60688">
        <ele>1811.94829952</ele>
        <time>2018-09-22T01:03:17.003Z</time>
      </trkpt>
      <trkpt lat="46.26008" lon="10.60673">
        <ele>1812</ele>
        <time>2018-09-22T01:03:25.003Z</time>
      </trkpt>
      <trkpt lat="46.26005" lon="10.60661">
        <ele>1812</ele>
        <time>2018-09-22T01:03:31.013Z</time>
      </trkpt>
      <trkpt lat="46.26001" lon="10.60646">
        <ele>1812</ele>
        <time>2018-09-22T01:03:37.003Z</time>
      </trkpt>
      <trkpt lat="46.26" lon="10.60632">
        <ele>1811.45149952</ele>
        <time>2018-09-22T01:03:43.005Z</time>
      </trkpt>
      <trkpt lat="46.25999" lon="10.60618">
        <ele>1810.85170048</ele>
        <time>2018-09-22T01:03:49.003Z</time>
      </trkpt>
      <trkpt lat="46.26" lon="10.60604">
        <ele>1810.15069952</ele>
        <time>2018-09-22T01:03:56.013Z</time>
      </trkpt>
      <trkpt lat="46.25996" lon="10.60589">
        <ele>1810</ele>
        <time>2018-09-22T01:04:03.003Z</time>
      </trkpt>
      <trkpt lat="46.25994" lon="10.60575">
        <ele>1810</ele>
        <time>2018-09-22T01:04:09.002Z</time>
      </trkpt>
      <trkpt lat="46.25993" lon="10.60558">
        <ele>1809.9038815216</ele>
        <time>2018-09-22T01:04:18.003Z</time>
      </trkpt>
      <trkpt lat="46.25991" lon="10.60545">
        <ele>1809.1078613677</ele>
        <time>2018-09-22T01:04:22.003Z</time>
      </trkpt>
      <trkpt lat="46.25989" lon="10.6053">
        <ele>1808.3098492529</ele>
        <time>2018-09-22T01:04:26.013Z</time>
      </trkpt>
      <trkpt lat="46.25989" lon="10.60514">
        <ele>1807.6539691565</ele>
        <time>2018-09-22T01:04:31.013Z</time>
      </trkpt>
      <trkpt lat="46.25984" lon="10.605">
        <ele>1807.1514567553</ele>
        <time>2018-09-22T01:04:36.013Z</time>
      </trkpt>
      <trkpt lat="46.25978" lon="10.60488">
        <ele>1807.448</ele>
        <time>2018-09-22T01:04:42.000Z</time>
      </trkpt>
      <trkpt lat="46.25974" lon="10.60476">
        <ele>1808</ele>
        <time>2018-09-22T01:04:48.003Z</time>
      </trkpt>
      <trkpt lat="46.25968" lon="10.60465">
        <ele>1808</ele>
        <time>2018-09-22T01:04:54.000Z</time>
      </trkpt>
      <trkpt lat="46.2596" lon="10.6046">
        <ele>1808</ele>
        <time>2018-09-22T01:05:01.017Z</time>
      </trkpt>
      <trkpt lat="46.25949" lon="10.60459">
        <ele>1808</ele>
        <time>2018-09-22T01:05:08.002Z</time>
      </trkpt>
      <trkpt lat="46.2594" lon="10.60464">
        <ele>1808</ele>
        <time>2018-09-22T01:05:17.005Z</time>
      </trkpt>
      <trkpt lat="46.25934" lon="10.60475">
        <ele>1808</ele>
        <time>2018-09-22T01:05:25.002Z</time>
      </trkpt>
      <trkpt lat="46.25929" lon="10.60487">
        <ele>1808</ele>
        <time>2018-09-22T01:05:33.004Z</time>
      </trkpt>
      <trkpt lat="46.25927" lon="10.60501">
        <ele>1808.14850048</ele>
        <time>2018-09-22T01:05:39.005Z</time>
      </trkpt>
      <trkpt lat="46.25925" lon="10.60516">
        <ele>1808.948</ele>
        <time>2018-09-22T01:05:47.000Z</time>
      </trkpt>
      <trkpt lat="46.25924" lon="10.60529">
        <ele>1809</ele>
        <time>2018-09-22T01:05:54.004Z</time>
      </trkpt>
      <trkpt lat="46.25922" lon="10.60542">
        <ele>1810.0616128482</ele>
        <time>2018-09-22T01:06:03.002Z</time>
      </trkpt>
      <trkpt lat="46.25921" lon="10.60557">
        <ele>1811.8612989428</ele>
        <time>2018-09-22T01:06:12.003Z</time>
      </trkpt>
      <trkpt lat="46.2592" lon="10.60571">
        <ele>1813.49659904</ele>
        <time>2018-09-22T01:06:20.003Z</time>
      </trkpt>
      <trkpt lat="46.25922" lon="10.60584">
        <ele>1815</ele>
        <time>2018-09-22T01:06:28.002Z</time>
      </trkpt>
      <trkpt lat="46.25919" lon="10.60597">
        <ele>1815</ele>
        <time>2018-09-22T01:06:37.005Z</time>
      </trkpt>
      <trkpt lat="46.25911" lon="10.60605">
        <ele>1816.4804941938</ele>
        <time>2018-09-22T01:06:45.003Z</time>
      </trkpt>
      <trkpt lat="46.25902" lon="10.60608">
        <ele>1817.44819968</ele>
        <time>2018-09-22T01:06:52.002Z</time>
      </trkpt>
      <trkpt lat="46.25892" lon="10.60604">
        <ele>1818</ele>
        <time>2018-09-22T01:07:00.003Z</time>
      </trkpt>
      <trkpt lat="46.25886" lon="10.60595">
        <ele>1818.0929859123</ele>
        <time>2018-09-22T01:07:08.004Z</time>
      </trkpt>
      <trkpt lat="46.25879" lon="10.60585">
        <ele>1819.6983973076</ele>
        <time>2018-09-22T01:07:16.015Z</time>
      </trkpt>
      <trkpt lat="46.25871" lon="10.60579">
        <ele>1820.74829952</ele>
        <time>2018-09-22T01:07:25.003Z</time>
      </trkpt>
      <trkpt lat="46.25863" lon="10.60572">
        <ele>1821.64819968</ele>
        <time>2018-09-22T01:07:34.002Z</time>
      </trkpt>
      <trkpt lat="46.25857" lon="10.60562">
        <ele>1823.296</ele>
        <time>2018-09-22T01:07:44.000Z</time>
      </trkpt>
      <trkpt lat="46.25849" lon="10.60554">
        <ele>1824</ele>
        <time>2018-09-22T01:07:53.003Z</time>
      </trkpt>
      <trkpt lat="46.25843" lon="10.60544">
        <ele>1824.89659904</ele>
        <time>2018-09-22T01:08:02.003Z</time>
      </trkpt>
      <trkpt lat="46.25835" lon="10.60537">
        <ele>1826.2478040705</ele>
        <time>2018-09-22T01:08:10.003Z</time>
      </trkpt>
      <trkpt lat="46.25828" lon="10.60528">
        <ele>1827.2931865054</ele>
        <time>2018-09-22T01:08:19.003Z</time>
      </trkpt>
      <trkpt lat="46.25822" lon="10.60516">
        <ele>1829.14850048</ele>
        <time>2018-09-22T01:08:29.005Z</time>
      </trkpt>
      <trkpt lat="46.25816" lon="10.60507">
        <ele>1830</ele>
        <time>2018-09-22T01:08:38.005Z</time>
      </trkpt>
      <trkpt lat="46.2581" lon="10.60496">
        <ele>1830</ele>
        <time>2018-09-22T01:08:47.003Z</time>
      </trkpt>
      <trkpt lat="46.25806" lon="10.60484">
        <ele>1830.919551751</ele>
        <time>2018-09-22T01:08:57.003Z</time>
      </trkpt>
      <trkpt lat="46.258" lon="10.60473">
        <ele>1832.6889585763</ele>
        <time>2018-09-22T01:09:06.013Z</time>
      </trkpt>
      <trkpt lat="46.25795" lon="10.60462">
        <ele>1834.2588332372</ele>
        <time>2018-09-22T01:09:14.003Z</time>
      </trkpt>
      <trkpt lat="46.2579" lon="10.6045">
        <ele>1835.4315780992</ele>
        <time>2018-09-22T01:09:22.002Z</time>
      </trkpt>
      <trkpt lat="46.25785" lon="10.60438">
        <ele>1836.4487507528</ele>
        <time>2018-09-22T01:09:32.002Z</time>
      </trkpt>
      <trkpt lat="46.2578" lon="10.60426">
        <ele>1837.69900032</ele>
        <time>2018-09-22T01:09:41.015Z</time>
      </trkpt>
      <trkpt lat="46.25776" lon="10.60413">
        <ele>1839.2485479884</ele>
        <time>2018-09-22T01:09:50.003Z</time>
      </trkpt>
      <trkpt lat="46.25772" lon="10.604">
        <ele>1840.1491500976</ele>
        <time>2018-09-22T01:09:59.003Z</time>
      </trkpt>
      <trkpt lat="46.25767" lon="10.60388">
        <ele>1841.4965046143</ele>
        <time>2018-09-22T01:10:10.005Z</time>
      </trkpt>
      <trkpt lat="46.25765" lon="10.60374">
        <ele>1843</ele>
        <time>2018-09-22T01:10:19.003Z</time>
      </trkpt>
      <trkpt lat="46.25759" lon="10.60362">
        <ele>1843</ele>
        <time>2018-09-22T01:10:26.013Z</time>
      </trkpt>
      <trkpt lat="46.25755" lon="10.60349">
        <ele>1843.64839936</ele>
        <time>2018-09-22T01:10:34.004Z</time>
      </trkpt>
      <trkpt lat="46.25754" lon="10.60335">
        <ele>1844</ele>
        <time>2018-09-22T01:10:40.014Z</time>
      </trkpt>
      <trkpt lat="46.2575" lon="10.60322">
        <ele>1844</ele>
        <time>2018-09-22T01:10:45.014Z</time>
      </trkpt>
      <trkpt lat="46.25747" lon="10.60309">
        <ele>1844</ele>
        <time>2018-09-22T01:10:53.003Z</time>
      </trkpt>
      <trkpt lat="46.25746" lon="10.60296">
        <ele>1844.347257636</ele>
        <time>2018-09-22T01:11:01.003Z</time>
      </trkpt>
      <trkpt lat="46.25744" lon="10.60283">
        <ele>1845</ele>
        <time>2018-09-22T01:11:08.003Z</time>
      </trkpt>
      <trkpt lat="46.25743" lon="10.60268">
        <ele>1845</ele>
        <time>2018-09-22T01:11:17.005Z</time>
      </trkpt>
      <trkpt lat="46.25738" lon="10.60255">
        <ele>1845.4489515121</ele>
        <time>2018-09-22T01:11:22.014Z</time>
      </trkpt>
      <trkpt lat="46.25738" lon="10.6024">
        <ele>1846</ele>
        <time>2018-09-22T01:11:29.014Z</time>
      </trkpt>
      <trkpt lat="46.25739" lon="10.60226">
        <ele>1846.0493509848</ele>
        <time>2018-09-22T01:11:38.014Z</time>
      </trkpt>
      <trkpt lat="46.25739" lon="10.60212">
        <ele>1847</ele>
        <time>2018-09-22T01:11:48.005Z</time>
      </trkpt>
      <trkpt lat="46.25736" lon="10.60198">
        <ele>1847</ele>
        <time>2018-09-22T01:11:54.002Z</time>
      </trkpt>
      <trkpt lat="46.25734" lon="10.60184">
        <ele>1847</ele>
        <time>2018-09-22T01:12:02.004Z</time>
      </trkpt>
      <trkpt lat="46.25733" lon="10.60169">
        <ele>1847.1438404209</ele>
        <time>2018-09-22T01:12:09.003Z</time>
      </trkpt>
      <trkpt lat="46.25731" lon="10.60155">
        <ele>1847.9208535648</ele>
        <time>2018-09-22T01:12:17.014Z</time>
      </trkpt>
      <trkpt lat="46.25729" lon="10.60141">
        <ele>1848.6178169793</ele>
        <time>2018-09-22T01:12:24.002Z</time>
      </trkpt>
      <trkpt lat="46.25728" lon="10.60127">
        <ele>1849.5343290948</ele>
        <time>2018-09-22T01:12:33.003Z</time>
      </trkpt>
      <trkpt lat="46.25724" lon="10.60113">
        <ele>1850.448</ele>
        <time>2018-09-22T01:12:42.000Z</time>
      </trkpt>
      <trkpt lat="46.25722" lon="10.60098">
        <ele>1851</ele>
        <time>2018-09-22T01:12:48.014Z</time>
      </trkpt>
      <trkpt lat="46.25719" lon="10.60084">
        <ele>1851</ele>
        <time>2018-09-22T01:12:55.003Z</time>
      </trkpt>
      <trkpt lat="46.25715" lon="10.60071">
        <ele>1851</ele>
        <time>2018-09-22T01:13:03.003Z</time>
      </trkpt>
      <trkpt lat="46.25711" lon="10.60058">
        <ele>1851</ele>
        <time>2018-09-22T01:13:09.014Z</time>
      </trkpt>
      <trkpt lat="46.25708" lon="10.60041">
        <ele>1851.29880064</ele>
        <time>2018-09-22T01:13:19.014Z</time>
      </trkpt>
      <trkpt lat="46.25705" lon="10.60027">
        <ele>1853</ele>
        <time>2018-09-22T01:13:28.014Z</time>
      </trkpt>
      <trkpt lat="46.25702" lon="10.60015">
        <ele>1853</ele>
        <time>2018-09-22T01:13:36.004Z</time>
      </trkpt>
      <trkpt lat="46.25703" lon="10.60001">
        <ele>1853.54930048</ele>
        <time>2018-09-22T01:13:43.013Z</time>
      </trkpt>
      <trkpt lat="46.25704" lon="10.59987">
        <ele>1854</ele>
        <time>2018-09-22T01:13:50.005Z</time>
      </trkpt>
      <trkpt lat="46.25701" lon="10.59974">
        <ele>1854</ele>
        <time>2018-09-22T01:13:58.013Z</time>
      </trkpt>
      <trkpt lat="46.25699" lon="10.5996">
        <ele>1854</ele>
        <time>2018-09-22T01:14:06.004Z</time>
      </trkpt>
      <trkpt lat="46.25693" lon="10.59948">
        <ele>1854</ele>
        <time>2018-09-22T01:14:13.014Z</time>
      </trkpt>
      <trkpt lat="46.25691" lon="10.59935">
        <ele>1854.34840064</ele>
        <time>2018-09-22T01:14:21.004Z</time>
      </trkpt>
      <trkpt lat="46.25688" lon="10.59921">
        <ele>1855.1492511166</ele>
        <time>2018-09-22T01:14:29.014Z</time>
      </trkpt>
      <trkpt lat="46.25688" lon="10.59907">
        <ele>1855.9474534897</ele>
        <time>2018-09-22T01:14:37.004Z</time>
      </trkpt>
      <trkpt lat="46.25687" lon="10.59894">
        <ele>1856</ele>
        <time>2018-09-22T01:14:44.018Z</time>
      </trkpt>
      <trkpt lat="46.25685" lon="10.5988">
        <ele>1856.3479516797</ele>
        <time>2018-09-22T01:14:51.003Z</time>
      </trkpt>
      <trkpt lat="46.25682" lon="10.59867">
        <ele>1857.1488489613</ele>
        <time>2018-09-22T01:14:59.017Z</time>
      </trkpt>
      <trkpt lat="46.25682" lon="10.59853">
        <ele>1858.04829952</ele>
        <time>2018-09-22T01:15:08.003Z</time>
      </trkpt>
      <trkpt lat="46.25681" lon="10.59839">
        <ele>1858.84829952</ele>
        <time>2018-09-22T01:15:16.003Z</time>
      </trkpt>
      <trkpt lat="46.25679" lon="10.59826">
        <ele>1859</ele>
        <time>2018-09-22T01:15:23.003Z</time>
      </trkpt>
      <trkpt lat="46.25676" lon="10.59813">
        <ele>1859.2225253101</ele>
        <time>2018-09-22T01:15:30.003Z</time>
      </trkpt>
      <trkpt lat="46.25673" lon="10.598">
        <ele>1859.8817213892</ele>
        <time>2018-09-22T01:15:37.003Z</time>
      </trkpt>
      <trkpt lat="46.2567" lon="10.59787">
        <ele>1860</ele>
        <time>2018-09-22T01:15:43.003Z</time>
      </trkpt>
      <trkpt lat="46.25667" lon="10.59775">
        <ele>1860</ele>
        <time>2018-09-22T01:15:50.003Z</time>
      </trkpt>
      <trkpt lat="46.25665" lon="10.59762">
        <ele>1860</ele>
        <time>2018-09-22T01:15:57.004Z</time>
      </trkpt>
      <trkpt lat="46.25666" lon="10.59747">
        <ele>1860.84839936</ele>
        <time>2018-09-22T01:16:06.004Z</time>
      </trkpt>
      <trkpt lat="46.25662" lon="10.59733">
        <ele>1861.6480694591</ele>
        <time>2018-09-22T01:16:14.013Z</time>
      </trkpt>
      <trkpt lat="46.25661" lon="10.59719">
        <ele>1862</ele>
        <time>2018-09-22T01:16:22.003Z</time>
      </trkpt>
      <trkpt lat="46.2566" lon="10.59706">
        <ele>1862.49479936</ele>
        <time>2018-09-22T01:16:30.004Z</time>
      </trkpt>
      <trkpt lat="46.25663" lon="10.59692">
        <ele>1864</ele>
        <time>2018-09-22T01:16:38.003Z</time>
      </trkpt>
      <trkpt lat="46.25661" lon="10.59679">
        <ele>1864</ele>
        <time>2018-09-22T01:16:45.001Z</time>
      </trkpt>
      <trkpt lat="46.25658" lon="10.59666">
        <ele>1864.44839936</ele>
        <time>2018-09-22T01:16:52.004Z</time>
      </trkpt>
      <trkpt lat="46.25656" lon="10.59653">
        <ele>1865</ele>
        <time>2018-09-22T01:17:00.004Z</time>
      </trkpt>
      <trkpt lat="46.25651" lon="10.59641">
        <ele>1865</ele>
        <time>2018-09-22T01:17:07.003Z</time>
      </trkpt>
      <trkpt lat="46.2565" lon="10.59628">
        <ele>1865.7480476483</ele>
        <time>2018-09-22T01:17:15.003Z</time>
      </trkpt>
      <trkpt lat="46.25649" lon="10.59614">
        <ele>1866.54840064</ele>
        <time>2018-09-22T01:17:23.004Z</time>
      </trkpt>
      <trkpt lat="46.25648" lon="10.59601">
        <ele>1867</ele>
        <time>2018-09-22T01:17:30.003Z</time>
      </trkpt>
      <trkpt lat="46.25645" lon="10.59587">
        <ele>1867.04839936</ele>
        <time>2018-09-22T01:17:38.004Z</time>
      </trkpt>
      <trkpt lat="46.25642" lon="10.59575">
        <ele>1867.84839936</ele>
        <time>2018-09-22T01:17:46.004Z</time>
      </trkpt>
      <trkpt lat="46.25642" lon="10.59562">
        <ele>1868.64930048</ele>
        <time>2018-09-22T01:17:54.013Z</time>
      </trkpt>
      <trkpt lat="46.25642" lon="10.59547">
        <ele>1869.4422081627</ele>
        <time>2018-09-22T01:18:02.004Z</time>
      </trkpt>
      <trkpt lat="46.25645" lon="10.59534">
        <ele>1870</ele>
        <time>2018-09-22T01:18:09.014Z</time>
      </trkpt>
      <trkpt lat="46.25648" lon="10.59522">
        <ele>1870</ele>
        <time>2018-09-22T01:18:16.003Z</time>
      </trkpt>
      <trkpt lat="46.25648" lon="10.59509">
        <ele>1870</ele>
        <time>2018-09-22T01:18:22.003Z</time>
      </trkpt>
      <trkpt lat="46.25649" lon="10.59494">
        <ele>1870.1492511166</ele>
        <time>2018-09-22T01:18:29.014Z</time>
      </trkpt>
      <trkpt lat="46.25652" lon="10.59481">
        <ele>1870.8474523388</ele>
        <time>2018-09-22T01:18:36.003Z</time>
      </trkpt>
      <trkpt lat="46.25656" lon="10.59468">
        <ele>1871.5318749557</ele>
        <time>2018-09-22T01:18:43.003Z</time>
      </trkpt>
      <trkpt lat="46.25657" lon="10.59454">
        <ele>1872</ele>
        <time>2018-09-22T01:18:51.003Z</time>
      </trkpt>
      <trkpt lat="46.25656" lon="10.59441">
        <ele>1872.0474471119</ele>
        <time>2018-09-22T01:18:58.004Z</time>
      </trkpt>
      <trkpt lat="46.25662" lon="10.59429">
        <ele>1872.8481477163</ele>
        <time>2018-09-22T01:19:06.003Z</time>
      </trkpt>
      <trkpt lat="46.25664" lon="10.59415">
        <ele>1873</ele>
        <time>2018-09-22T01:19:14.013Z</time>
      </trkpt>
      <trkpt lat="46.25671" lon="10.59406">
        <ele>1873.34819968</ele>
        <time>2018-09-22T01:19:21.002Z</time>
      </trkpt>
      <trkpt lat="46.25676" lon="10.59392">
        <ele>1874</ele>
        <time>2018-09-22T01:19:29.014Z</time>
      </trkpt>
      <trkpt lat="46.2568" lon="10.5938">
        <ele>1874</ele>
        <time>2018-09-22T01:19:36.003Z</time>
      </trkpt>
      <trkpt lat="46.25682" lon="10.59367">
        <ele>1874.6461696784</ele>
        <time>2018-09-22T01:19:44.014Z</time>
      </trkpt>
      <trkpt lat="46.25684" lon="10.59352">
        <ele>1875.4437434414</ele>
        <time>2018-09-22T01:19:52.003Z</time>
      </trkpt>
      <trkpt lat="46.2568" lon="10.59339">
        <ele>1876.1458840161</ele>
        <time>2018-09-22T01:19:59.013Z</time>
      </trkpt>
      <trkpt lat="46.25678" lon="10.59326">
        <ele>1876.7472886747</ele>
        <time>2018-09-22T01:20:05.003Z</time>
      </trkpt>
      <trkpt lat="46.25677" lon="10.59313">
        <ele>1877</ele>
        <time>2018-09-22T01:20:13.004Z</time>
      </trkpt>
      <trkpt lat="46.25676" lon="10.593">
        <ele>1877.3463383258</ele>
        <time>2018-09-22T01:20:21.003Z</time>
      </trkpt>
      <trkpt lat="46.25675" lon="10.59287">
        <ele>1878</ele>
        <time>2018-09-22T01:20:28.004Z</time>
      </trkpt>
      <trkpt lat="46.25675" lon="10.59272">
        <ele>1878</ele>
        <time>2018-09-22T01:20:35.003Z</time>
      </trkpt>
      <trkpt lat="46.25673" lon="10.59259">
        <ele>1878</ele>
        <time>2018-09-22T01:20:43.003Z</time>
      </trkpt>
      <trkpt lat="46.2567" lon="10.59245">
        <ele>1878.44829952</ele>
        <time>2018-09-22T01:20:52.003Z</time>
      </trkpt>
      <trkpt lat="46.25668" lon="10.59232">
        <ele>1879</ele>
        <time>2018-09-22T01:21:00.003Z</time>
      </trkpt>
      <trkpt lat="46.25666" lon="10.59218">
        <ele>1879</ele>
        <time>2018-09-22T01:21:07.003Z</time>
      </trkpt>
      <trkpt lat="46.25661" lon="10.59207">
        <ele>1879</ele>
        <time>2018-09-22T01:21:13.014Z</time>
      </trkpt>
      <trkpt lat="46.25657" lon="10.59194">
        <ele>1879.14940032</ele>
        <time>2018-09-22T01:21:19.014Z</time>
      </trkpt>
      <trkpt lat="46.25654" lon="10.5918">
        <ele>1880</ele>
        <time>2018-09-22T01:21:28.003Z</time>
      </trkpt>
      <trkpt lat="46.2565" lon="10.59168">
        <ele>1880</ele>
        <time>2018-09-22T01:21:34.003Z</time>
      </trkpt>
      <trkpt lat="46.25646" lon="10.59156">
        <ele>1880</ele>
        <time>2018-09-22T01:21:41.003Z</time>
      </trkpt>
      <trkpt lat="46.25644" lon="10.59142">
        <ele>1880</ele>
        <time>2018-09-22T01:21:49.003Z</time>
      </trkpt>
      <trkpt lat="46.25641" lon="10.59128">
        <ele>1880</ele>
        <time>2018-09-22T01:21:55.014Z</time>
      </trkpt>
      <trkpt lat="46.25639" lon="10.59115">
        <ele>1879.6721944442</ele>
        <time>2018-09-22T01:22:01.003Z</time>
      </trkpt>
      <trkpt lat="46.2564" lon="10.59101">
        <ele>1879.1474472401</ele>
        <time>2018-09-22T01:22:09.003Z</time>
      </trkpt>
      <trkpt lat="46.25637" lon="10.59087">
        <ele>1879.7491495498</ele>
        <time>2018-09-22T01:22:15.014Z</time>
      </trkpt>
      <trkpt lat="46.25633" lon="10.59073">
        <ele>1880</ele>
        <time>2018-09-22T01:22:22.014Z</time>
      </trkpt>
      <trkpt lat="46.25629" lon="10.59059">
        <ele>1879.8609375</ele>
        <time>2018-09-22T01:22:29.004Z</time>
      </trkpt>
      <trkpt lat="46.25631" lon="10.59046">
        <ele>1879.07978625</ele>
        <time>2018-09-22T01:22:37.003Z</time>
      </trkpt>
      <trkpt lat="46.25633" lon="10.59031">
        <ele>1879.7405147979</ele>
        <time>2018-09-22T01:22:45.003Z</time>
      </trkpt>
      <trkpt lat="46.25632" lon="10.59017">
        <ele>1880</ele>
        <time>2018-09-22T01:22:51.014Z</time>
      </trkpt>
      <trkpt lat="46.25631" lon="10.59002">
        <ele>1880.1475484612</ele>
        <time>2018-09-22T01:22:59.004Z</time>
      </trkpt>
      <trkpt lat="46.25627" lon="10.58989">
        <ele>1881</ele>
        <time>2018-09-22T01:23:08.004Z</time>
      </trkpt>
      <trkpt lat="46.25622" lon="10.58978">
        <ele>1881</ele>
        <time>2018-09-22T01:23:15.003Z</time>
      </trkpt>
      <trkpt lat="46.25615" lon="10.58967">
        <ele>1881.546659367</ele>
        <time>2018-09-22T01:23:23.003Z</time>
      </trkpt>
      <trkpt lat="46.25611" lon="10.58955">
        <ele>1882</ele>
        <time>2018-09-22T01:23:30.004Z</time>
      </trkpt>
      <trkpt lat="46.2561" lon="10.58942">
        <ele>1882</ele>
        <time>2018-09-22T01:23:37.003Z</time>
      </trkpt>
      <trkpt lat="46.25609" lon="10.58929">
        <ele>1882</ele>
        <time>2018-09-22T01:23:45.004Z</time>
      </trkpt>
      <trkpt lat="46.2561" lon="10.58915">
        <ele>1882.3476621207</ele>
        <time>2018-09-22T01:23:51.014Z</time>
      </trkpt>
      <trkpt lat="46.25612" lon="10.58902">
        <ele>1883</ele>
        <time>2018-09-22T01:23:58.003Z</time>
      </trkpt>
      <trkpt lat="46.25613" lon="10.58889">
        <ele>1883</ele>
        <time>2018-09-22T01:24:04.003Z</time>
      </trkpt>
      <trkpt lat="46.25615" lon="10.58876">
        <ele>1883</ele>
        <time>2018-09-22T01:24:12.003Z</time>
      </trkpt>
      <trkpt lat="46.25616" lon="10.58861">
        <ele>1883.14829952</ele>
        <time>2018-09-22T01:24:19.003Z</time>
      </trkpt>
      <trkpt lat="46.25616" lon="10.58846">
        <ele>1883.84930048</ele>
        <time>2018-09-22T01:24:26.013Z</time>
      </trkpt>
      <trkpt lat="46.2562" lon="10.58834">
        <ele>1884</ele>
        <time>2018-09-22T01:24:34.002Z</time>
      </trkpt>
      <trkpt lat="46.25621" lon="10.5882">
        <ele>1884</ele>
        <time>2018-09-22T01:24:42.004Z</time>
      </trkpt>
      <trkpt lat="46.25622" lon="10.58806">
        <ele>1884</ele>
        <time>2018-09-22T01:24:49.003Z</time>
      </trkpt>
      <trkpt lat="46.25625" lon="10.58792">
        <ele>1884</ele>
        <time>2018-09-22T01:24:58.001Z</time>
      </trkpt>
      <trkpt lat="46.25626" lon="10.58777">
        <ele>1884</ele>
        <time>2018-09-22T01:25:06.014Z</time>
      </trkpt>
      <trkpt lat="46.2563" lon="10.58764">
        <ele>1884.5344333423</ele>
        <time>2018-09-22T01:25:13.004Z</time>
      </trkpt>
      <trkpt lat="46.2563" lon="10.5875">
        <ele>1885</ele>
        <time>2018-09-22T01:25:20.003Z</time>
      </trkpt>
      <trkpt lat="46.25633" lon="10.58738">
        <ele>1885</ele>
        <time>2018-09-22T01:25:26.014Z</time>
      </trkpt>
      <trkpt lat="46.25636" lon="10.58726">
        <ele>1885.54829952</ele>
        <time>2018-09-22T01:25:33.003Z</time>
      </trkpt>
      <trkpt lat="46.25636" lon="10.58712">
        <ele>1886</ele>
        <time>2018-09-22T01:25:40.003Z</time>
      </trkpt>
      <trkpt lat="46.25637" lon="10.58697">
        <ele>1886</ele>
        <time>2018-09-22T01:25:47.003Z</time>
      </trkpt>
      <trkpt lat="46.25638" lon="10.58682">
        <ele>1886</ele>
        <time>2018-09-22T01:25:55.003Z</time>
      </trkpt>
      <trkpt lat="46.25638" lon="10.58668">
        <ele>1886.54840064</ele>
        <time>2018-09-22T01:26:03.004Z</time>
      </trkpt>
      <trkpt lat="46.25638" lon="10.58654">
        <ele>1887.24829952</ele>
        <time>2018-09-22T01:26:10.003Z</time>
      </trkpt>
      <trkpt lat="46.25639" lon="10.5864">
        <ele>1888</ele>
        <time>2018-09-22T01:26:18.003Z</time>
      </trkpt>
      <trkpt lat="46.25641" lon="10.58627">
        <ele>1888</ele>
        <time>2018-09-22T01:26:24.003Z</time>
      </trkpt>
      <trkpt lat="46.25643" lon="10.58613">
        <ele>1888</ele>
        <time>2018-09-22T01:26:32.003Z</time>
      </trkpt>
      <trkpt lat="46.25644" lon="10.58601">
        <ele>1888.14819968</ele>
        <time>2018-09-22T01:26:39.002Z</time>
      </trkpt>
      <trkpt lat="46.25646" lon="10.58588">
        <ele>1888.94840064</ele>
        <time>2018-09-22T01:26:47.004Z</time>
      </trkpt>
      <trkpt lat="46.25653" lon="10.58578">
        <ele>1889.74829952</ele>
        <time>2018-09-22T01:26:55.003Z</time>
      </trkpt>
      <trkpt lat="46.25659" lon="10.58569">
        <ele>1890.44829952</ele>
        <time>2018-09-22T01:27:02.003Z</time>
      </trkpt>
      <trkpt lat="46.25666" lon="10.58561">
        <ele>1891</ele>
        <time>2018-09-22T01:27:08.003Z</time>
      </trkpt>
      <trkpt lat="46.25673" lon="10.58549">
        <ele>1891</ele>
        <time>2018-09-22T01:27:15.003Z</time>
      </trkpt>
      <trkpt lat="46.2568" lon="10.58539">
        <ele>1891</ele>
        <time>2018-09-22T01:27:22.003Z</time>
      </trkpt>
      <trkpt lat="46.25682" lon="10.58526">
        <ele>1891.0444774297</ele>
        <time>2018-09-22T01:27:28.003Z</time>
      </trkpt>
      <trkpt lat="46.25688" lon="10.58516">
        <ele>1891.7472886747</ele>
        <time>2018-09-22T01:27:35.003Z</time>
      </trkpt>
      <trkpt lat="46.25691" lon="10.58503">
        <ele>1892</ele>
        <time>2018-09-22T01:27:42.003Z</time>
      </trkpt>
      <trkpt lat="46.25694" lon="10.58489">
        <ele>1892.14829952</ele>
        <time>2018-09-22T01:27:49.003Z</time>
      </trkpt>
      <trkpt lat="46.25695" lon="10.58475">
        <ele>1892.84930048</ele>
        <time>2018-09-22T01:27:56.013Z</time>
      </trkpt>
      <trkpt lat="46.25698" lon="10.58462">
        <ele>1892.55170048</ele>
        <time>2018-09-22T01:28:02.003Z</time>
      </trkpt>
      <trkpt lat="46.25699" lon="10.58447">
        <ele>1892</ele>
        <time>2018-09-22T01:28:08.003Z</time>
      </trkpt>
      <trkpt lat="46.25702" lon="10.58434">
        <ele>1892</ele>
        <time>2018-09-22T01:28:15.003Z</time>
      </trkpt>
      <trkpt lat="46.25705" lon="10.58421">
        <ele>1892</ele>
        <time>2018-09-22T01:28:21.014Z</time>
      </trkpt>
      <trkpt lat="46.25667" lon="10.58409">
        <ele>1895</ele>
        <time>2018-09-22T01:30:50.014Z</time>
      </trkpt>
      <trkpt lat="46.25676" lon="10.5841">
        <ele>1895</ele>
        <time>2018-09-22T01:30:54.014Z</time>
      </trkpt>
      <trkpt lat="46.25685" lon="10.58412">
        <ele>1895</ele>
        <time>2018-09-22T01:30:57.014Z</time>
      </trkpt>
      <trkpt lat="46.25695" lon="10.58415">
        <ele>1895</ele>
        <time>2018-09-22T01:31:02.014Z</time>
      </trkpt>
      <trkpt lat="46.25701" lon="10.58405">
        <ele>1896</ele>
        <time>2018-09-22T01:31:27.002Z</time>
      </trkpt>
      <trkpt lat="46.25709" lon="10.58409">
        <ele>1895</ele>
        <time>2018-09-22T01:32:09.002Z</time>
      </trkpt>
      <trkpt lat="46.25702" lon="10.58401">
        <ele>1895</ele>
        <time>2018-09-22T01:32:23.004Z</time>
      </trkpt>
      <trkpt lat="46.25708" lon="10.58391">
        <ele>1895</ele>
        <time>2018-09-22T01:32:38.004Z</time>
      </trkpt>
      <trkpt lat="46.25707" lon="10.58377">
        <ele>1895</ele>
        <time>2018-09-22T01:32:46.002Z</time>
      </trkpt>
      <trkpt lat="46.25703" lon="10.58363">
        <ele>1895</ele>
        <time>2018-09-22T01:32:53.004Z</time>
      </trkpt>
      <trkpt lat="46.25698" lon="10.58352">
        <ele>1895</ele>
        <time>2018-09-22T01:33:01.004Z</time>
      </trkpt>
      <trkpt lat="46.25695" lon="10.58338">
        <ele>1895</ele>
        <time>2018-09-22T01:33:09.004Z</time>
      </trkpt>
      <trkpt lat="46.25692" lon="10.58325">
        <ele>1895</ele>
        <time>2018-09-22T01:33:15.014Z</time>
      </trkpt>
      <trkpt lat="46.25689" lon="10.58312">
        <ele>1895</ele>
        <time>2018-09-22T01:33:21.004Z</time>
      </trkpt>
      <trkpt lat="46.25692" lon="10.58299">
        <ele>1895</ele>
        <time>2018-09-22T01:33:27.004Z</time>
      </trkpt>
      <trkpt lat="46.25687" lon="10.58286">
        <ele>1895</ele>
        <time>2018-09-22T01:33:35.014Z</time>
      </trkpt>
      <trkpt lat="46.25684" lon="10.58271">
        <ele>1895</ele>
        <time>2018-09-22T01:33:43.014Z</time>
      </trkpt>
      <trkpt lat="46.25689" lon="10.58258">
        <ele>1894</ele>
        <time>2018-09-22T01:34:05.003Z</time>
      </trkpt>
      <trkpt lat="46.25691" lon="10.58244">
        <ele>1894</ele>
        <time>2018-09-22T01:34:13.012Z</time>
      </trkpt>
      <trkpt lat="46.25697" lon="10.58232">
        <ele>1894.2452566008</ele>
        <time>2018-09-22T01:34:20.002Z</time>
      </trkpt>
      <trkpt lat="46.25702" lon="10.58221">
        <ele>1895</ele>
        <time>2018-09-22T01:34:28.012Z</time>
      </trkpt>
      <trkpt lat="46.25697" lon="10.58209">
        <ele>1895</ele>
        <time>2018-09-22T01:34:35.004Z</time>
      </trkpt>
      <trkpt lat="46.25693" lon="10.58197">
        <ele>1894.6747410851</ele>
        <time>2018-09-22T01:34:41.002Z</time>
      </trkpt>
      <trkpt lat="46.25691" lon="10.58183">
        <ele>1894</ele>
        <time>2018-09-22T01:34:49.002Z</time>
      </trkpt>
      <trkpt lat="46.25689" lon="10.5817">
        <ele>1894</ele>
        <time>2018-09-22T01:34:55.004Z</time>
      </trkpt>
      <trkpt lat="46.25688" lon="10.58156">
        <ele>1894</ele>
        <time>2018-09-22T01:35:02.002Z</time>
      </trkpt>
      <trkpt lat="46.25687" lon="10.58143">
        <ele>1894</ele>
        <time>2018-09-22T01:35:10.003Z</time>
      </trkpt>
      <trkpt lat="46.25683" lon="10.5813">
        <ele>1894</ele>
        <time>2018-09-22T01:35:17.004Z</time>
      </trkpt>
      <trkpt lat="46.25686" lon="10.58116">
        <ele>1894</ele>
        <time>2018-09-22T01:35:25.004Z</time>
      </trkpt>
      <trkpt lat="46.25686" lon="10.58102">
        <ele>1894</ele>
        <time>2018-09-22T01:35:32.002Z</time>
      </trkpt>
      <trkpt lat="46.25683" lon="10.58088">
        <ele>1893.95059968</ele>
        <time>2018-09-22T01:35:38.014Z</time>
      </trkpt>
      <trkpt lat="46.25684" lon="10.58074">
        <ele>1893.15160064</ele>
        <time>2018-09-22T01:35:46.004Z</time>
      </trkpt>
      <trkpt lat="46.25681" lon="10.5806">
        <ele>1893</ele>
        <time>2018-09-22T01:35:54.004Z</time>
      </trkpt>
      <trkpt lat="46.2568" lon="10.58045">
        <ele>1892.30360064</ele>
        <time>2018-09-22T01:36:01.002Z</time>
      </trkpt>
      <trkpt lat="46.25678" lon="10.58031">
        <ele>1891.10319872</ele>
        <time>2018-09-22T01:36:07.004Z</time>
      </trkpt>
      <trkpt lat="46.25675" lon="10.58018">
        <ele>1891</ele>
        <time>2018-09-22T01:36:14.002Z</time>
      </trkpt>
      <trkpt lat="46.25675" lon="10.58003">
        <ele>1891</ele>
        <time>2018-09-22T01:36:21.004Z</time>
      </trkpt>
      <trkpt lat="46.25671" lon="10.57989">
        <ele>1891.0492525466</ele>
        <time>2018-09-22T01:36:28.014Z</time>
      </trkpt>
      <trkpt lat="46.25671" lon="10.57975">
        <ele>1891.7461619155</ele>
        <time>2018-09-22T01:36:35.004Z</time>
      </trkpt>
      <trkpt lat="46.25672" lon="10.57962">
        <ele>1892</ele>
        <time>2018-09-22T01:36:42.004Z</time>
      </trkpt>
      <trkpt lat="46.25672" lon="10.57948">
        <ele>1892</ele>
        <time>2018-09-22T01:36:49.004Z</time>
      </trkpt>
      <trkpt lat="46.25673" lon="10.57935">
        <ele>1892</ele>
        <time>2018-09-22T01:36:56.004Z</time>
      </trkpt>
      <trkpt lat="46.25672" lon="10.57921">
        <ele>1891.35160064</ele>
        <time>2018-09-22T01:37:04.004Z</time>
      </trkpt>
      <trkpt lat="46.25673" lon="10.57908">
        <ele>1891</ele>
        <time>2018-09-22T01:37:11.004Z</time>
      </trkpt>
      <trkpt lat="46.25673" lon="10.57893">
        <ele>1891</ele>
        <time>2018-09-22T01:37:19.002Z</time>
      </trkpt>
      <trkpt lat="46.25673" lon="10.57879">
        <ele>1891</ele>
        <time>2018-09-22T01:37:27.002Z</time>
      </trkpt>
      <trkpt lat="46.25674" lon="10.57865">
        <ele>1891</ele>
        <time>2018-09-22T01:37:35.004Z</time>
      </trkpt>
      <trkpt lat="46.25673" lon="10.57852">
        <ele>1891</ele>
        <time>2018-09-22T01:37:41.004Z</time>
      </trkpt>
      <trkpt lat="46.25675" lon="10.57838">
        <ele>1890.9820244628</ele>
        <time>2018-09-22T01:37:48.014Z</time>
      </trkpt>
      <trkpt lat="46.25675" lon="10.57824">
        <ele>1890.2599166942</ele>
        <time>2018-09-22T01:37:55.004Z</time>
      </trkpt>
      <trkpt lat="46.25678" lon="10.57811">
        <ele>1889.10320128</ele>
        <time>2018-09-22T01:38:02.004Z</time>
      </trkpt>
      <trkpt lat="46.25681" lon="10.57797">
        <ele>1888</ele>
        <time>2018-09-22T01:38:09.004Z</time>
      </trkpt>
      <trkpt lat="46.2568" lon="10.57784">
        <ele>1888</ele>
        <time>2018-09-22T01:38:17.004Z</time>
      </trkpt>
      <trkpt lat="46.2568" lon="10.57771">
        <ele>1887.1616607115</ele>
        <time>2018-09-22T01:38:26.004Z</time>
      </trkpt>
      <trkpt lat="46.25676" lon="10.57758">
        <ele>1887</ele>
        <time>2018-09-22T01:38:33.014Z</time>
      </trkpt>
      <trkpt lat="46.25672" lon="10.57746">
        <ele>1886.75160064</ele>
        <time>2018-09-22T01:38:40.004Z</time>
      </trkpt>
      <trkpt lat="46.25666" lon="10.57734">
        <ele>1885.95069952</ele>
        <time>2018-09-22T01:38:48.013Z</time>
      </trkpt>
      <trkpt lat="46.2566" lon="10.57723">
        <ele>1885.25149952</ele>
        <time>2018-09-22T01:38:55.005Z</time>
      </trkpt>
      <trkpt lat="46.25659" lon="10.5771">
        <ele>1884.10320128</ele>
        <time>2018-09-22T01:39:02.004Z</time>
      </trkpt>
      <trkpt lat="46.25657" lon="10.57695">
        <ele>1883</ele>
        <time>2018-09-22T01:39:09.003Z</time>
      </trkpt>
      <trkpt lat="46.2565" lon="10.57687">
        <ele>1883</ele>
        <time>2018-09-22T01:39:15.004Z</time>
      </trkpt>
      <trkpt lat="46.25643" lon="10.57677">
        <ele>1882.45059968</ele>
        <time>2018-09-22T01:39:23.014Z</time>
      </trkpt>
      <trkpt lat="46.25641" lon="10.57662">
        <ele>1882</ele>
        <time>2018-09-22T01:39:30.005Z</time>
      </trkpt>
      <trkpt lat="46.25636" lon="10.57649">
        <ele>1882</ele>
        <time>2018-09-22T01:39:36.005Z</time>
      </trkpt>
      <trkpt lat="46.25632" lon="10.57636">
        <ele>1882</ele>
        <time>2018-09-22T01:39:43.015Z</time>
      </trkpt>
      <trkpt lat="46.25634" lon="10.57622">
        <ele>1881.55180032</ele>
        <time>2018-09-22T01:39:52.002Z</time>
      </trkpt>
      <trkpt lat="46.25632" lon="10.57608">
        <ele>1881</ele>
        <time>2018-09-22T01:39:59.005Z</time>
      </trkpt>
      <trkpt lat="46.25627" lon="10.57595">
        <ele>1881</ele>
        <time>2018-09-22T01:40:06.005Z</time>
      </trkpt>
      <trkpt lat="46.25621" lon="10.57585">
        <ele>1881</ele>
        <time>2018-09-22T01:40:13.010Z</time>
      </trkpt>
      <trkpt lat="46.25614" lon="10.57577">
        <ele>1881</ele>
        <time>2018-09-22T01:40:18.015Z</time>
      </trkpt>
      <trkpt lat="46.25606" lon="10.57569">
        <ele>1881</ele>
        <time>2018-09-22T01:40:23.009Z</time>
      </trkpt>
      <trkpt lat="46.25598" lon="10.57561">
        <ele>1881</ele>
        <time>2018-09-22T01:40:28.014Z</time>
      </trkpt>
      <trkpt lat="46.2559" lon="10.57552">
        <ele>1881</ele>
        <time>2018-09-22T01:40:33.013Z</time>
      </trkpt>
      <trkpt lat="46.25584" lon="10.57541">
        <ele>1880.65159936</ele>
        <time>2018-09-22T01:40:41.004Z</time>
      </trkpt>
      <trkpt lat="46.25577" lon="10.57531">
        <ele>1879.9529753262</ele>
        <time>2018-09-22T01:40:48.010Z</time>
      </trkpt>
      <trkpt lat="46.25573" lon="10.5752">
        <ele>1879.1857966592</ele>
        <time>2018-09-22T01:40:56.004Z</time>
      </trkpt>
      <trkpt lat="46.25566" lon="10.57509">
        <ele>1877.5252592733</ele>
        <time>2018-09-22T01:41:05.004Z</time>
      </trkpt>
      <trkpt lat="46.25559" lon="10.57498">
        <ele>1877</ele>
        <time>2018-09-22T01:41:12.004Z</time>
      </trkpt>
      <trkpt lat="46.2555" lon="10.57492">
        <ele>1877</ele>
        <time>2018-09-22T01:41:18.014Z</time>
      </trkpt>
      <trkpt lat="46.25539" lon="10.57489">
        <ele>1877</ele>
        <time>2018-09-22T01:41:25.004Z</time>
      </trkpt>
      <trkpt lat="46.2553" lon="10.57485">
        <ele>1877.6950948724</ele>
        <time>2018-09-22T01:41:31.002Z</time>
      </trkpt>
      <trkpt lat="46.25522" lon="10.5748">
        <ele>1879</ele>
        <time>2018-09-22T01:41:39.005Z</time>
      </trkpt>
      <trkpt lat="46.25513" lon="10.57471">
        <ele>1879</ele>
        <time>2018-09-22T01:41:47.005Z</time>
      </trkpt>
      <trkpt lat="46.25507" lon="10.5746">
        <ele>1879</ele>
        <time>2018-09-22T01:41:55.005Z</time>
      </trkpt>
      <trkpt lat="46.25502" lon="10.57449">
        <ele>1879.5476424626</ele>
        <time>2018-09-22T01:42:03.010Z</time>
      </trkpt>
      <trkpt lat="46.25499" lon="10.57435">
        <ele>1880</ele>
        <time>2018-09-22T01:42:11.014Z</time>
      </trkpt>
      <trkpt lat="46.25492" lon="10.57424">
        <ele>1880.2900975285</ele>
        <time>2018-09-22T01:42:19.014Z</time>
      </trkpt>
      <trkpt lat="46.25486" lon="10.57414">
        <ele>1881.8434946215</ele>
        <time>2018-09-22T01:42:27.014Z</time>
      </trkpt>
      <trkpt lat="46.25479" lon="10.57405">
        <ele>1882</ele>
        <time>2018-09-22T01:42:35.014Z</time>
      </trkpt>
      <trkpt lat="46.25473" lon="10.57395">
        <ele>1883.0887768943</ele>
        <time>2018-09-22T01:42:43.014Z</time>
      </trkpt>
      <trkpt lat="46.25468" lon="10.57384">
        <ele>1884.3490513803</ele>
        <time>2018-09-22T01:42:51.014Z</time>
      </trkpt>
      <trkpt lat="46.25462" lon="10.57373">
        <ele>1885.1485491416</ele>
        <time>2018-09-22T01:42:59.014Z</time>
      </trkpt>
      <trkpt lat="46.25456" lon="10.57362">
        <ele>1885.9493496859</ele>
        <time>2018-09-22T01:43:07.014Z</time>
      </trkpt>
      <trkpt lat="46.2545" lon="10.5735">
        <ele>1886.848</ele>
        <time>2018-09-22T01:43:16.000Z</time>
      </trkpt>
      <trkpt lat="46.25445" lon="10.57337">
        <ele>1888.69700096</ele>
        <time>2018-09-22T01:43:26.005Z</time>
      </trkpt>
      <trkpt lat="46.25439" lon="10.57326">
        <ele>1889.74969984</ele>
        <time>2018-09-22T01:43:35.017Z</time>
      </trkpt>
      <trkpt lat="46.25432" lon="10.57316">
        <ele>1890.89880064</ele>
        <time>2018-09-22T01:43:42.014Z</time>
      </trkpt>
      <trkpt lat="46.25429" lon="10.57303">
        <ele>1892</ele>
        <time>2018-09-22T01:43:50.005Z</time>
      </trkpt>
      <trkpt lat="46.25427" lon="10.57288">
        <ele>1892</ele>
        <time>2018-09-22T01:43:58.017Z</time>
      </trkpt>
      <trkpt lat="46.25425" lon="10.57275">
        <ele>1892</ele>
        <time>2018-09-22T01:44:07.005Z</time>
      </trkpt>
      <trkpt lat="46.25423" lon="10.57262">
        <ele>1892.5316716821</ele>
        <time>2018-09-22T01:44:13.010Z</time>
      </trkpt>
      <trkpt lat="46.25423" lon="10.57247">
        <ele>1893</ele>
        <time>2018-09-22T01:44:21.004Z</time>
      </trkpt>
      <trkpt lat="46.25421" lon="10.57234">
        <ele>1893</ele>
        <time>2018-09-22T01:44:28.010Z</time>
      </trkpt>
      <trkpt lat="46.25419" lon="10.57219">
        <ele>1893</ele>
        <time>2018-09-22T01:44:36.004Z</time>
      </trkpt>
      <trkpt lat="46.25417" lon="10.57204">
        <ele>1893</ele>
        <time>2018-09-22T01:44:43.015Z</time>
      </trkpt>
      <trkpt lat="46.25411" lon="10.57194">
        <ele>1892.8521478049</ele>
        <time>2018-09-22T01:44:49.000Z</time>
      </trkpt>
      <trkpt lat="46.25404" lon="10.57185">
        <ele>1892.3526471457</ele>
        <time>2018-09-22T01:44:54.000Z</time>
      </trkpt>
      <trkpt lat="46.25399" lon="10.57174">
        <ele>1891.7522515308</ele>
        <time>2018-09-22T01:45:00.005Z</time>
      </trkpt>
      <trkpt lat="46.25396" lon="10.57159">
        <ele>1891.1516511226</ele>
        <time>2018-09-22T01:45:06.005Z</time>
      </trkpt>
      <trkpt lat="46.25393" lon="10.57146">
        <ele>1890.55149952</ele>
        <time>2018-09-22T01:45:12.005Z</time>
      </trkpt>
      <trkpt lat="46.25389" lon="10.57132">
        <ele>1889.50320128</ele>
        <time>2018-09-22T01:45:20.004Z</time>
      </trkpt>
      <trkpt lat="46.25385" lon="10.57119">
        <ele>1888.10299904</ele>
        <time>2018-09-22T01:45:27.005Z</time>
      </trkpt>
      <trkpt lat="46.25383" lon="10.57104">
        <ele>1887.45100032</ele>
        <time>2018-09-22T01:45:33.010Z</time>
      </trkpt>
      <trkpt lat="46.25383" lon="10.57089">
        <ele>1886.30299904</ele>
        <time>2018-09-22T01:45:41.005Z</time>
      </trkpt>
      <trkpt lat="46.25382" lon="10.57075">
        <ele>1885.30320128</ele>
        <time>2018-09-22T01:45:46.004Z</time>
      </trkpt>
      <trkpt lat="46.2538" lon="10.57062">
        <ele>1883.9030971918</ele>
        <time>2018-09-22T01:45:53.010Z</time>
      </trkpt>
      <trkpt lat="46.25378" lon="10.57049">
        <ele>1882.9039039347</ele>
        <time>2018-09-22T01:45:58.010Z</time>
      </trkpt>
      <trkpt lat="46.25378" lon="10.57035">
        <ele>1881.7045045992</ele>
        <time>2018-09-22T01:46:04.001Z</time>
      </trkpt>
      <trkpt lat="46.25378" lon="10.5702">
        <ele>1881</ele>
        <time>2018-09-22T01:46:11.000Z</time>
      </trkpt>
      <trkpt lat="46.25377" lon="10.57007">
        <ele>1880.9630187759</ele>
        <time>2018-09-22T01:46:18.015Z</time>
      </trkpt>
      <trkpt lat="46.25377" lon="10.56994">
        <ele>1880.3565350009</ele>
        <time>2018-09-22T01:46:24.001Z</time>
      </trkpt>
      <trkpt lat="46.25383" lon="10.56981">
        <ele>1879.75190016</ele>
        <time>2018-09-22T01:46:30.001Z</time>
      </trkpt>
      <trkpt lat="46.25388" lon="10.5697">
        <ele>1879.05190016</ele>
        <time>2018-09-22T01:46:37.001Z</time>
      </trkpt>
      <trkpt lat="46.25394" lon="10.5696">
        <ele>1877.9008</ele>
        <time>2018-09-22T01:46:43.016Z</time>
      </trkpt>
      <trkpt lat="46.25394" lon="10.56946">
        <ele>1876.40599808</ele>
        <time>2018-09-22T01:46:49.005Z</time>
      </trkpt>
      <trkpt lat="46.2539" lon="10.56933">
        <ele>1873.60599808</ele>
        <time>2018-09-22T01:46:56.005Z</time>
      </trkpt>
      <trkpt lat="46.25389" lon="10.56919">
        <ele>1871.70299904</ele>
        <time>2018-09-22T01:47:04.005Z</time>
      </trkpt>
      <trkpt lat="46.25386" lon="10.56905">
        <ele>1871.4299426825</ele>
        <time>2018-09-22T01:47:12.000Z</time>
      </trkpt>
      <trkpt lat="46.25379" lon="10.56897">
        <ele>1871.9855215767</ele>
        <time>2018-09-22T01:47:18.010Z</time>
      </trkpt>
      <trkpt lat="46.25369" lon="10.56891">
        <ele>1870.7466381811</ele>
        <time>2018-09-22T01:47:24.000Z</time>
      </trkpt>
      <trkpt lat="46.25361" lon="10.56886">
        <ele>1869.5176584403</ele>
        <time>2018-09-22T01:47:30.000Z</time>
      </trkpt>
      <trkpt lat="46.25351" lon="10.56882">
        <ele>1868.3037331814</ele>
        <time>2018-09-22T01:47:36.015Z</time>
      </trkpt>
      <trkpt lat="46.25342" lon="10.56875">
        <ele>1866.9050945551</ele>
        <time>2018-09-22T01:47:43.000Z</time>
      </trkpt>
      <trkpt lat="46.25332" lon="10.56874">
        <ele>1865.6511507824</ele>
        <time>2018-09-22T01:47:51.015Z</time>
      </trkpt>
      <trkpt lat="46.25322" lon="10.56867">
        <ele>1865.1507503821</ele>
        <time>2018-09-22T01:47:56.014Z</time>
      </trkpt>
      <trkpt lat="46.25319" lon="10.56853">
        <ele>1862.808</ele>
        <time>2018-09-22T01:48:03.000Z</time>
      </trkpt>
      <trkpt lat="46.2532" lon="10.56839">
        <ele>1860.8520480646</ele>
        <time>2018-09-22T01:48:09.001Z</time>
      </trkpt>
      <trkpt lat="46.25326" lon="10.56826">
        <ele>1859.90579968</ele>
        <time>2018-09-22T01:48:18.001Z</time>
      </trkpt>
      <trkpt lat="46.25334" lon="10.56818">
        <ele>1858.70579968</ele>
        <time>2018-09-22T01:48:24.001Z</time>
      </trkpt>
      <trkpt lat="46.25342" lon="10.56812">
        <ele>1857.70579968</ele>
        <time>2018-09-22T01:48:29.001Z</time>
      </trkpt>
      <trkpt lat="46.25352" lon="10.56808">
        <ele>1856.5049984</ele>
        <time>2018-09-22T01:48:35.005Z</time>
      </trkpt>
      <trkpt lat="46.25361" lon="10.56808">
        <ele>1856</ele>
        <time>2018-09-22T01:48:42.016Z</time>
      </trkpt>
      <trkpt lat="46.25371" lon="10.56807">
        <ele>1855.758737548</ele>
        <time>2018-09-22T01:48:50.005Z</time>
      </trkpt>
      <trkpt lat="46.2538" lon="10.568">
        <ele>1855.0780588253</ele>
        <time>2018-09-22T01:48:57.016Z</time>
      </trkpt>
      <trkpt lat="46.25388" lon="10.56793">
        <ele>1852.4051558962</ele>
        <time>2018-09-22T01:49:02.015Z</time>
      </trkpt>
      <trkpt lat="46.25393" lon="10.56783">
        <ele>1848.70380032</ele>
        <time>2018-09-22T01:49:09.001Z</time>
      </trkpt>
      <trkpt lat="46.25402" lon="10.56776">
        <ele>1847.30380032</ele>
        <time>2018-09-22T01:49:16.001Z</time>
      </trkpt>
      <trkpt lat="46.25412" lon="10.5677">
        <ele>1844.752</ele>
        <time>2018-09-22T01:49:22.016Z</time>
      </trkpt>
      <trkpt lat="46.25419" lon="10.56761">
        <ele>1841.55510144</ele>
        <time>2018-09-22T01:49:29.003Z</time>
      </trkpt>
      <trkpt lat="46.25423" lon="10.56749">
        <ele>1838.85510144</ele>
        <time>2018-09-22T01:49:38.003Z</time>
      </trkpt>
      <trkpt lat="46.25425" lon="10.56735">
        <ele>1835.90299904</ele>
        <time>2018-09-22T01:49:48.005Z</time>
      </trkpt>
      <trkpt lat="46.25427" lon="10.56721">
        <ele>1834.30380032</ele>
        <time>2018-09-22T01:49:56.001Z</time>
      </trkpt>
      <trkpt lat="46.25431" lon="10.56707">
        <ele>1832.704294331</ele>
        <time>2018-09-22T01:50:04.005Z</time>
      </trkpt>
      <trkpt lat="46.25436" lon="10.56695">
        <ele>1830.2093906763</ele>
        <time>2018-09-22T01:50:12.011Z</time>
      </trkpt>
      <trkpt lat="46.25441" lon="10.56682">
        <ele>1827.9553722777</ele>
        <time>2018-09-22T01:50:18.001Z</time>
      </trkpt>
      <trkpt lat="46.25445" lon="10.56671">
        <ele>1827.2778316102</ele>
        <time>2018-09-22T01:50:25.000Z</time>
      </trkpt>
      <trkpt lat="46.25446" lon="10.56657">
        <ele>1824.8518144172</ele>
        <time>2018-09-22T01:50:32.016Z</time>
      </trkpt>
      <trkpt lat="46.25447" lon="10.56643">
        <ele>1821.256</ele>
        <time>2018-09-22T01:50:40.000Z</time>
      </trkpt>
      <trkpt lat="46.25445" lon="10.56629">
        <ele>1819.456</ele>
        <time>2018-09-22T01:50:46.000Z</time>
      </trkpt>
      <trkpt lat="46.25446" lon="10.56615">
        <ele>1817.90380032</ele>
        <time>2018-09-22T01:50:53.001Z</time>
      </trkpt>
      <trkpt lat="46.25452" lon="10.56603">
        <ele>1816.504</ele>
        <time>2018-09-22T01:51:00.000Z</time>
      </trkpt>
      <trkpt lat="46.25452" lon="10.5659">
        <ele>1815</ele>
        <time>2018-09-22T01:51:09.000Z</time>
      </trkpt>
      <trkpt lat="46.25455" lon="10.56576">
        <ele>1815</ele>
        <time>2018-09-22T01:51:16.001Z</time>
      </trkpt>
      <trkpt lat="46.25454" lon="10.56562">
        <ele>1814.30299904</ele>
        <time>2018-09-22T01:51:21.005Z</time>
      </trkpt>
      <trkpt lat="46.25454" lon="10.56548">
        <ele>1813.30320128</ele>
        <time>2018-09-22T01:51:26.004Z</time>
      </trkpt>
      <trkpt lat="46.25456" lon="10.56535">
        <ele>1811.45190016</ele>
        <time>2018-09-22T01:51:43.001Z</time>
      </trkpt>
      <trkpt lat="46.25458" lon="10.56522">
        <ele>1810.75190016</ele>
        <time>2018-09-22T01:51:50.001Z</time>
      </trkpt>
      <trkpt lat="46.25459" lon="10.56507">
        <ele>1810.0504</ele>
        <time>2018-09-22T01:51:57.016Z</time>
      </trkpt>
      <trkpt lat="46.25461" lon="10.56494">
        <ele>1809.45190016</ele>
        <time>2018-09-22T01:52:03.001Z</time>
      </trkpt>
      <trkpt lat="46.25461" lon="10.56481">
        <ele>1808.95190016</ele>
        <time>2018-09-22T01:52:08.001Z</time>
      </trkpt>
      <trkpt lat="46.25462" lon="10.56466">
        <ele>1808.35190016</ele>
        <time>2018-09-22T01:52:14.001Z</time>
      </trkpt>
      <trkpt lat="46.25466" lon="10.56452">
        <ele>1807.65190016</ele>
        <time>2018-09-22T01:52:21.001Z</time>
      </trkpt>
      <trkpt lat="46.2547" lon="10.56438">
        <ele>1806.952</ele>
        <time>2018-09-22T01:52:28.000Z</time>
      </trkpt>
      <trkpt lat="46.25475" lon="10.56427">
        <ele>1806.252</ele>
        <time>2018-09-22T01:52:35.000Z</time>
      </trkpt>
      <trkpt lat="46.25473" lon="10.56411">
        <ele>1805.3039834263</ele>
        <time>2018-09-22T01:52:41.014Z</time>
      </trkpt>
      <trkpt lat="46.25468" lon="10.56399">
        <ele>1804.5071706773</ele>
        <time>2018-09-22T01:52:45.014Z</time>
      </trkpt>
      <trkpt lat="46.25464" lon="10.56387">
        <ele>1803.854015743</ele>
        <time>2018-09-22T01:52:49.014Z</time>
      </trkpt>
      <trkpt lat="46.25459" lon="10.56372">
        <ele>1803.3520077108</ele>
        <time>2018-09-22T01:52:54.014Z</time>
      </trkpt>
      <trkpt lat="46.25456" lon="10.5636">
        <ele>1802.55179904</ele>
        <time>2018-09-22T01:52:59.014Z</time>
      </trkpt>
      <trkpt lat="46.25453" lon="10.56345">
        <ele>1800.75179904</ele>
        <time>2018-09-22T01:53:05.014Z</time>
      </trkpt>
      <trkpt lat="46.25452" lon="10.5633">
        <ele>1799.6509486197</ele>
        <time>2018-09-22T01:53:11.014Z</time>
      </trkpt>
      <trkpt lat="46.25453" lon="10.56316">
        <ele>1799.0515478287</ele>
        <time>2018-09-22T01:53:17.014Z</time>
      </trkpt>
      <trkpt lat="46.25453" lon="10.56301">
        <ele>1797.9021011725</ele>
        <time>2018-09-22T01:53:23.014Z</time>
      </trkpt>
      <trkpt lat="46.25454" lon="10.56287">
        <ele>1796.8549512358</ele>
        <time>2018-09-22T01:53:29.014Z</time>
      </trkpt>
      <trkpt lat="46.25464" lon="10.56284">
        <ele>1796.4666019625</ele>
        <time>2018-09-22T01:53:33.014Z</time>
      </trkpt>
      <trkpt lat="46.25473" lon="10.56284">
        <ele>1796.1753400076</ele>
        <time>2018-09-22T01:53:36.014Z</time>
      </trkpt>
      <trkpt lat="46.25477" lon="10.5627">
        <ele>1795.4659796889</ele>
        <time>2018-09-22T01:53:43.000Z</time>
      </trkpt>
      <trkpt lat="46.25477" lon="10.56255">
        <ele>1794.00760064</ele>
        <time>2018-09-22T01:53:50.001Z</time>
      </trkpt>
      <trkpt lat="46.25477" lon="10.56242">
        <ele>1791.2016</ele>
        <time>2018-09-22T01:53:57.016Z</time>
      </trkpt>
      <trkpt lat="46.25475" lon="10.56228">
        <ele>1790.25190016</ele>
        <time>2018-09-22T01:54:05.001Z</time>
      </trkpt>
      <trkpt lat="46.25476" lon="10.56214">
        <ele>1789.65190016</ele>
        <time>2018-09-22T01:54:11.001Z</time>
      </trkpt>
      <trkpt lat="46.25478" lon="10.562">
        <ele>1788.90380032</ele>
        <time>2018-09-22T01:54:18.001Z</time>
      </trkpt>
      <trkpt lat="46.25478" lon="10.56185">
        <ele>1787.50319872</ele>
        <time>2018-09-22T01:54:25.004Z</time>
      </trkpt>
      <trkpt lat="46.25478" lon="10.56171">
        <ele>1786.1020969757</ele>
        <time>2018-09-22T01:54:32.014Z</time>
      </trkpt>
      <trkpt lat="46.25479" lon="10.56158">
        <ele>1784.7049030775</ele>
        <time>2018-09-22T01:54:39.004Z</time>
      </trkpt>
      <trkpt lat="46.25481" lon="10.56144">
        <ele>1783.5037022611</ele>
        <time>2018-09-22T01:54:45.004Z</time>
      </trkpt>
      <trkpt lat="46.25483" lon="10.5613">
        <ele>1782.50380032</ele>
        <time>2018-09-22T01:54:50.001Z</time>
      </trkpt>
      <trkpt lat="46.25484" lon="10.56116">
        <ele>1781.304</ele>
        <time>2018-09-22T01:54:56.000Z</time>
      </trkpt>
      <trkpt lat="46.25486" lon="10.56104">
        <ele>1779.90279936</ele>
        <time>2018-09-22T01:55:03.006Z</time>
      </trkpt>
      <trkpt lat="46.25488" lon="10.5609">
        <ele>1778.7541130637</ele>
        <time>2018-09-22T01:55:10.001Z</time>
      </trkpt>
      <trkpt lat="46.25489" lon="10.56077">
        <ele>1778.05886987</ele>
        <time>2018-09-22T01:55:17.016Z</time>
      </trkpt>
      <trkpt lat="46.25489" lon="10.56062">
        <ele>1776.9120081011</ele>
        <time>2018-09-22T01:55:23.001Z</time>
      </trkpt>
      <trkpt lat="46.2549" lon="10.56049">
        <ele>1775.90380032</ele>
        <time>2018-09-22T01:55:28.001Z</time>
      </trkpt>
      <trkpt lat="46.25491" lon="10.56035">
        <ele>1774.70380032</ele>
        <time>2018-09-22T01:55:34.001Z</time>
      </trkpt>
      <trkpt lat="46.25492" lon="10.56021">
        <ele>1772.60760064</ele>
        <time>2018-09-22T01:55:41.001Z</time>
      </trkpt>
      <trkpt lat="46.25494" lon="10.56007">
        <ele>1770</ele>
        <time>2018-09-22T01:55:48.001Z</time>
      </trkpt>
      <trkpt lat="46.25495" lon="10.55993">
        <ele>1770</ele>
        <time>2018-09-22T01:55:54.000Z</time>
      </trkpt>
      <trkpt lat="46.25497" lon="10.5598">
        <ele>1769.020335959</ele>
        <time>2018-09-22T01:56:00.001Z</time>
      </trkpt>
      <trkpt lat="46.25498" lon="10.55967">
        <ele>1766.2503443239</ele>
        <time>2018-09-22T01:56:07.016Z</time>
      </trkpt>
      <trkpt lat="46.25498" lon="10.55953">
        <ele>1765.2552179112</ele>
        <time>2018-09-22T01:56:15.001Z</time>
      </trkpt>
      <trkpt lat="46.255" lon="10.55938">
        <ele>1763.6089912037</ele>
        <time>2018-09-22T01:56:21.001Z</time>
      </trkpt>
      <trkpt lat="46.25501" lon="10.55924">
        <ele>1761.2053933923</ele>
        <time>2018-09-22T01:56:27.016Z</time>
      </trkpt>
      <trkpt lat="46.25503" lon="10.5591">
        <ele>1760.3522522996</ele>
        <time>2018-09-22T01:56:34.001Z</time>
      </trkpt>
      <trkpt lat="46.25507" lon="10.55898">
        <ele>1759.3234943233</ele>
        <time>2018-09-22T01:56:41.004Z</time>
      </trkpt>
      <trkpt lat="46.2551" lon="10.55884">
        <ele>1757.7494866801</ele>
        <time>2018-09-22T01:56:49.035Z</time>
      </trkpt>
      <trkpt lat="46.25512" lon="10.55871">
        <ele>1756.3125788454</ele>
        <time>2018-09-22T01:56:56.004Z</time>
      </trkpt>
      <trkpt lat="46.25513" lon="10.55857">
        <ele>1755.10119936</ele>
        <time>2018-09-22T01:57:02.014Z</time>
      </trkpt>
      <trkpt lat="46.25514" lon="10.55844">
        <ele>1753.9032979511</ele>
        <time>2018-09-22T01:57:08.004Z</time>
      </trkpt>
      <trkpt lat="46.25517" lon="10.55831">
        <ele>1752.7050948108</ele>
        <time>2018-09-22T01:57:14.001Z</time>
      </trkpt>
      <trkpt lat="46.25519" lon="10.55817">
        <ele>1751.5053051434</ele>
        <time>2018-09-22T01:57:20.001Z</time>
      </trkpt>
      <trkpt lat="46.25518" lon="10.55804">
        <ele>1750.304104327</ele>
        <time>2018-09-22T01:57:26.001Z</time>
      </trkpt>
      <trkpt lat="46.2552" lon="10.55791">
        <ele>1748.65179904</ele>
        <time>2018-09-22T01:57:32.014Z</time>
      </trkpt>
      <trkpt lat="46.25522" lon="10.55777">
        <ele>1746.85190016</ele>
        <time>2018-09-22T01:57:39.001Z</time>
      </trkpt>
      <trkpt lat="46.25522" lon="10.55764">
        <ele>1746.15190016</ele>
        <time>2018-09-22T01:57:46.001Z</time>
      </trkpt>
      <trkpt lat="46.25524" lon="10.55749">
        <ele>1745.45190016</ele>
        <time>2018-09-22T01:57:53.001Z</time>
      </trkpt>
      <trkpt lat="46.25524" lon="10.55735">
        <ele>1744.3058828934</ele>
        <time>2018-09-22T01:58:01.001Z</time>
      </trkpt>
      <trkpt lat="46.25522" lon="10.55722">
        <ele>1742.95490048</ele>
        <time>2018-09-22T01:58:08.001Z</time>
      </trkpt>
      <trkpt lat="46.25517" lon="10.55709">
        <ele>1742.25490048</ele>
        <time>2018-09-22T01:58:15.001Z</time>
      </trkpt>
      <trkpt lat="46.25512" lon="10.55697">
        <ele>1741.3077239102</ele>
        <time>2018-09-22T01:58:21.001Z</time>
      </trkpt>
      <trkpt lat="46.25507" lon="10.55685">
        <ele>1739.95190016</ele>
        <time>2018-09-22T01:58:28.001Z</time>
      </trkpt>
      <trkpt lat="46.25502" lon="10.55671">
        <ele>1739.25190016</ele>
        <time>2018-09-22T01:58:35.001Z</time>
      </trkpt>
      <trkpt lat="46.25499" lon="10.55659">
        <ele>1739</ele>
        <time>2018-09-22T01:58:42.016Z</time>
      </trkpt>
      <trkpt lat="46.25495" lon="10.55646">
        <ele>1738.70380032</ele>
        <time>2018-09-22T01:58:49.001Z</time>
      </trkpt>
      <trkpt lat="46.25491" lon="10.55632">
        <ele>1737.50380032</ele>
        <time>2018-09-22T01:58:55.001Z</time>
      </trkpt>
      <trkpt lat="46.25487" lon="10.5562">
        <ele>1736.50380032</ele>
        <time>2018-09-22T01:59:00.001Z</time>
      </trkpt>
      <trkpt lat="46.25482" lon="10.55608">
        <ele>1735.50380032</ele>
        <time>2018-09-22T01:59:05.001Z</time>
      </trkpt>
      <trkpt lat="46.25478" lon="10.55594">
        <ele>1735</ele>
        <time>2018-09-22T01:59:11.001Z</time>
      </trkpt>
      <trkpt lat="46.25474" lon="10.5558">
        <ele>1735</ele>
        <time>2018-09-22T01:59:17.016Z</time>
      </trkpt>
      <trkpt lat="46.25469" lon="10.55568">
        <ele>1734.35190016</ele>
        <time>2018-09-22T01:59:24.001Z</time>
      </trkpt>
      <trkpt lat="46.25464" lon="10.55557">
        <ele>1733.5556325692</ele>
        <time>2018-09-22T01:59:32.017Z</time>
      </trkpt>
      <trkpt lat="46.2546" lon="10.55544">
        <ele>1732.724494251</ele>
        <time>2018-09-22T01:59:39.001Z</time>
      </trkpt>
      <trkpt lat="46.25455" lon="10.55531">
        <ele>1731.509717247</ele>
        <time>2018-09-22T01:59:45.002Z</time>
      </trkpt>
      <trkpt lat="46.25452" lon="10.55519">
        <ele>1730.7595931783</ele>
        <time>2018-09-22T01:59:50.001Z</time>
      </trkpt>
      <trkpt lat="46.25448" lon="10.55505">
        <ele>1730.1781978295</ele>
        <time>2018-09-22T01:59:56.001Z</time>
      </trkpt>
      <trkpt lat="46.25446" lon="10.55492">
        <ele>1729.1371900826</ele>
        <time>2018-09-22T02:00:02.016Z</time>
      </trkpt>
      <trkpt lat="46.25442" lon="10.55479">
        <ele>1728</ele>
        <time>2018-09-22T02:00:08.002Z</time>
      </trkpt>
      <trkpt lat="46.25438" lon="10.55467">
        <ele>1728</ele>
        <time>2018-09-22T02:00:16.003Z</time>
      </trkpt>
      <trkpt lat="46.25433" lon="10.55454">
        <ele>1726.7045045992</ele>
        <time>2018-09-22T02:00:24.001Z</time>
      </trkpt>
      <trkpt lat="46.25428" lon="10.55443">
        <ele>1725.65180032</ele>
        <time>2018-09-22T02:00:31.002Z</time>
      </trkpt>
      <trkpt lat="46.25421" lon="10.55433">
        <ele>1724.90360064</ele>
        <time>2018-09-22T02:00:38.002Z</time>
      </trkpt>
      <trkpt lat="46.25416" lon="10.55421">
        <ele>1723.50380032</ele>
        <time>2018-09-22T02:00:45.001Z</time>
      </trkpt>
      <trkpt lat="46.25412" lon="10.55407">
        <ele>1722.5504</ele>
        <time>2018-09-22T02:00:52.016Z</time>
      </trkpt>
      <trkpt lat="46.25407" lon="10.55395">
        <ele>1722.14809984</ele>
        <time>2018-09-22T02:00:59.001Z</time>
      </trkpt>
      <trkpt lat="46.25401" lon="10.55385">
        <ele>1723</ele>
        <time>2018-09-22T02:01:10.001Z</time>
      </trkpt>
      <trkpt lat="46.25394" lon="10.55373">
        <ele>1723</ele>
        <time>2018-09-22T02:01:16.001Z</time>
      </trkpt>
      <trkpt lat="46.25389" lon="10.5536">
        <ele>1722.45180032</ele>
        <time>2018-09-22T02:01:23.002Z</time>
      </trkpt>
      <trkpt lat="46.25384" lon="10.55348">
        <ele>1721.7047815139</ele>
        <time>2018-09-22T02:01:29.002Z</time>
      </trkpt>
      <trkpt lat="46.25379" lon="10.55338">
        <ele>1720.509363506</ele>
        <time>2018-09-22T02:01:35.003Z</time>
      </trkpt>
      <trkpt lat="46.25375" lon="10.55325">
        <ele>1719.5526104418</ele>
        <time>2018-09-22T02:01:42.016Z</time>
      </trkpt>
      <trkpt lat="46.25376" lon="10.55311">
        <ele>1718.7052738564</ele>
        <time>2018-09-22T02:01:49.001Z</time>
      </trkpt>
      <trkpt lat="46.25372" lon="10.55299">
        <ele>1717.1102481545</ele>
        <time>2018-09-22T02:01:57.016Z</time>
      </trkpt>
      <trkpt lat="46.25366" lon="10.55288">
        <ele>1716.454170869</ele>
        <time>2018-09-22T02:02:03.001Z</time>
      </trkpt>
      <trkpt lat="46.25359" lon="10.55276">
        <ele>1715.7040961292</ele>
        <time>2018-09-22T02:02:09.001Z</time>
      </trkpt>
      <trkpt lat="46.25354" lon="10.55265">
        <ele>1714.5052945472</ele>
        <time>2018-09-22T02:02:15.001Z</time>
      </trkpt>
      <trkpt lat="46.25351" lon="10.55251">
        <ele>1713.5509507745</ele>
        <time>2018-09-22T02:02:22.016Z</time>
      </trkpt>
      <trkpt lat="46.25349" lon="10.55237">
        <ele>1712.951996137</ele>
        <time>2018-09-22T02:02:28.001Z</time>
      </trkpt>
      <trkpt lat="46.25346" lon="10.55225">
        <ele>1712.3531933593</ele>
        <time>2018-09-22T02:02:34.001Z</time>
      </trkpt>
      <trkpt lat="46.25345" lon="10.5521">
        <ele>1711.5514026123</ele>
        <time>2018-09-22T02:02:42.017Z</time>
      </trkpt>
      <trkpt lat="46.25344" lon="10.55195">
        <ele>1710.85180032</ele>
        <time>2018-09-22T02:02:49.002Z</time>
      </trkpt>
      <trkpt lat="46.25343" lon="10.55182">
        <ele>1710.15190016</ele>
        <time>2018-09-22T02:02:56.001Z</time>
      </trkpt>
      <trkpt lat="46.25342" lon="10.55169">
        <ele>1709.1275724256</ele>
        <time>2018-09-22T02:03:02.013Z</time>
      </trkpt>
      <trkpt lat="46.25341" lon="10.55154">
        <ele>1708</ele>
        <time>2018-09-22T02:03:08.001Z</time>
      </trkpt>
      <trkpt lat="46.25338" lon="10.55141">
        <ele>1708</ele>
        <time>2018-09-22T02:03:15.014Z</time>
      </trkpt>
      <trkpt lat="46.25338" lon="10.55127">
        <ele>1708</ele>
        <time>2018-09-22T02:03:22.014Z</time>
      </trkpt>
      <trkpt lat="46.25338" lon="10.55113">
        <ele>1708</ele>
        <time>2018-09-22T02:03:29.014Z</time>
      </trkpt>
      <trkpt lat="46.25338" lon="10.551">
        <ele>1708</ele>
        <time>2018-09-22T02:03:36.014Z</time>
      </trkpt>
      <trkpt lat="46.25338" lon="10.55085">
        <ele>1706.35179904</ele>
        <time>2018-09-22T02:03:43.014Z</time>
      </trkpt>
      <trkpt lat="46.25337" lon="10.5507">
        <ele>1704.75059968</ele>
        <time>2018-09-22T02:03:50.014Z</time>
      </trkpt>
      <trkpt lat="46.25337" lon="10.55055">
        <ele>1704.05059968</ele>
        <time>2018-09-22T02:03:57.014Z</time>
      </trkpt>
      <trkpt lat="46.25336" lon="10.55041">
        <ele>1702.0537446725</ele>
        <time>2018-09-22T02:04:04.014Z</time>
      </trkpt>
      <trkpt lat="46.25337" lon="10.55027">
        <ele>1700.7513507904</ele>
        <time>2018-09-22T02:04:10.014Z</time>
      </trkpt>
      <trkpt lat="46.25337" lon="10.55012">
        <ele>1700.1508503221</ele>
        <time>2018-09-22T02:04:16.013Z</time>
      </trkpt>
      <trkpt lat="46.25336" lon="10.54997">
        <ele>1699.55180032</ele>
        <time>2018-09-22T02:04:22.002Z</time>
      </trkpt>
      <trkpt lat="46.25335" lon="10.54982">
        <ele>1698.70360064</ele>
        <time>2018-09-22T02:04:29.002Z</time>
      </trkpt>
      <trkpt lat="46.25335" lon="10.54968">
        <ele>1697.50360064</ele>
        <time>2018-09-22T02:04:35.002Z</time>
      </trkpt>
      <trkpt lat="46.25334" lon="10.54955">
        <ele>1696.3064563078</ele>
        <time>2018-09-22T02:04:41.012Z</time>
      </trkpt>
      <trkpt lat="46.25333" lon="10.54941">
        <ele>1695.1167837563</ele>
        <time>2018-09-22T02:04:47.002Z</time>
      </trkpt>
      <trkpt lat="46.25332" lon="10.54927">
        <ele>1693.7096587265</ele>
        <time>2018-09-22T02:04:54.003Z</time>
      </trkpt>
      <trkpt lat="46.25332" lon="10.54913">
        <ele>1692.30360064</ele>
        <time>2018-09-22T02:05:01.012Z</time>
      </trkpt>
      <trkpt lat="46.25331" lon="10.549">
        <ele>1690.8526526999</ele>
        <time>2018-09-22T02:05:09.002Z</time>
      </trkpt>
      <trkpt lat="46.25329" lon="10.54887">
        <ele>1690.1504505624</ele>
        <time>2018-09-22T02:05:16.017Z</time>
      </trkpt>
      <trkpt lat="46.25328" lon="10.54873">
        <ele>1688.90360064</ele>
        <time>2018-09-22T02:05:23.002Z</time>
      </trkpt>
      <trkpt lat="46.25328" lon="10.54859">
        <ele>1687.85180032</ele>
        <time>2018-09-22T02:05:29.002Z</time>
      </trkpt>
      <trkpt lat="46.25327" lon="10.54843">
        <ele>1687.25180032</ele>
        <time>2018-09-22T02:05:35.002Z</time>
      </trkpt>
      <trkpt lat="46.25325" lon="10.54829">
        <ele>1686.75180032</ele>
        <time>2018-09-22T02:05:40.002Z</time>
      </trkpt>
      <trkpt lat="46.25325" lon="10.54814">
        <ele>1686.15069952</ele>
        <time>2018-09-22T02:05:46.013Z</time>
      </trkpt>
      <trkpt lat="46.25325" lon="10.54801">
        <ele>1685.10360064</ele>
        <time>2018-09-22T02:05:52.002Z</time>
      </trkpt>
      <trkpt lat="46.25325" lon="10.54788">
        <ele>1683.55510144</ele>
        <time>2018-09-22T02:05:59.003Z</time>
      </trkpt>
      <trkpt lat="46.25326" lon="10.54774">
        <ele>1681.45090048</ele>
        <time>2018-09-22T02:06:06.017Z</time>
      </trkpt>
      <trkpt lat="46.25327" lon="10.54761">
        <ele>1681</ele>
        <time>2018-09-22T02:06:13.002Z</time>
      </trkpt>
      <trkpt lat="46.25328" lon="10.54746">
        <ele>1680.75180032</ele>
        <time>2018-09-22T02:06:20.002Z</time>
      </trkpt>
      <trkpt lat="46.25329" lon="10.54732">
        <ele>1680.05180032</ele>
        <time>2018-09-22T02:06:27.002Z</time>
      </trkpt>
      <trkpt lat="46.25337" lon="10.54724">
        <ele>1679.0479520633</ele>
        <time>2018-09-22T02:06:38.000Z</time>
      </trkpt>
      <trkpt lat="46.25345" lon="10.54719">
        <ele>1680.2477484692</ele>
        <time>2018-09-22T02:06:50.005Z</time>
      </trkpt>
      <trkpt lat="46.25351" lon="10.54707">
        <ele>1681</ele>
        <time>2018-09-22T02:06:58.002Z</time>
      </trkpt>
      <trkpt lat="46.25356" lon="10.54695">
        <ele>1681</ele>
        <time>2018-09-22T02:07:05.005Z</time>
      </trkpt>
      <trkpt lat="46.25363" lon="10.54685">
        <ele>1681</ele>
        <time>2018-09-22T02:07:11.010Z</time>
      </trkpt>
      <trkpt lat="46.25369" lon="10.54673">
        <ele>1681</ele>
        <time>2018-09-22T02:07:18.002Z</time>
      </trkpt>
      <trkpt lat="46.25375" lon="10.54661">
        <ele>1681</ele>
        <time>2018-09-22T02:07:25.004Z</time>
      </trkpt>
      <trkpt lat="46.25381" lon="10.5465">
        <ele>1680.6518030289</ele>
        <time>2018-09-22T02:07:31.015Z</time>
      </trkpt>
      <trkpt lat="46.25385" lon="10.54638">
        <ele>1680</ele>
        <time>2018-09-22T02:07:39.002Z</time>
      </trkpt>
      <trkpt lat="46.25391" lon="10.54626">
        <ele>1680</ele>
        <time>2018-09-22T02:07:46.012Z</time>
      </trkpt>
      <trkpt lat="46.25397" lon="10.54615">
        <ele>1680.74790016</ele>
        <time>2018-09-22T02:07:54.999Z</time>
      </trkpt>
      <trkpt lat="46.25402" lon="10.54603">
        <ele>1681</ele>
        <time>2018-09-22T02:08:05.000Z</time>
      </trkpt>
      <trkpt lat="46.25408" lon="10.54593">
        <ele>1682.0945891177</ele>
        <time>2018-09-22T02:08:13.002Z</time>
      </trkpt>
      <trkpt lat="46.25414" lon="10.54582">
        <ele>1683.64940032</ele>
        <time>2018-09-22T02:08:24.014Z</time>
      </trkpt>
      <trkpt lat="46.2542" lon="10.54572">
        <ele>1685.29679872</ele>
        <time>2018-09-22T02:08:34.004Z</time>
      </trkpt>
      <trkpt lat="46.25419" lon="10.54558">
        <ele>1686.74940032</ele>
        <time>2018-09-22T02:08:45.014Z</time>
      </trkpt>
      <trkpt lat="46.25416" lon="10.54546">
        <ele>1689.6957038788</ele>
        <time>2018-09-22T02:09:01.002Z</time>
      </trkpt>
      <trkpt lat="46.25421" lon="10.54535">
        <ele>1691.6902580102</ele>
        <time>2018-09-22T02:09:11.002Z</time>
      </trkpt>
      <trkpt lat="46.25425" lon="10.54522">
        <ele>1693</ele>
        <time>2018-09-22T02:09:20.014Z</time>
      </trkpt>
      <trkpt lat="46.25434" lon="10.54521">
        <ele>1694.0688666846</ele>
        <time>2018-09-22T02:09:33.004Z</time>
      </trkpt>
      <trkpt lat="46.25438" lon="10.54508">
        <ele>1695.54819968</ele>
        <time>2018-09-22T02:09:43.002Z</time>
      </trkpt>
      <trkpt lat="46.25439" lon="10.54494">
        <ele>1696</ele>
        <time>2018-09-22T02:09:51.002Z</time>
      </trkpt>
      <trkpt lat="46.25439" lon="10.54479">
        <ele>1695.7511509105</ele>
        <time>2018-09-22T02:10:00.016Z</time>
      </trkpt>
      <trkpt lat="46.25438" lon="10.54466">
        <ele>1695.1519522236</ele>
        <time>2018-09-22T02:10:06.002Z</time>
      </trkpt>
      <trkpt lat="46.25433" lon="10.54453">
        <ele>1695.5434224986</ele>
        <time>2018-09-22T02:10:13.014Z</time>
      </trkpt>
      <trkpt lat="46.25432" lon="10.54438">
        <ele>1696.2413544967</ele>
        <time>2018-09-22T02:10:20.017Z</time>
      </trkpt>
      <trkpt lat="46.2543" lon="10.54422">
        <ele>1697</ele>
        <time>2018-09-22T02:10:29.014Z</time>
      </trkpt>
      <trkpt lat="46.25429" lon="10.54408">
        <ele>1697</ele>
        <time>2018-09-22T02:10:36.002Z</time>
      </trkpt>
      <trkpt lat="46.25432" lon="10.54396">
        <ele>1697</ele>
        <time>2018-09-22T02:10:42.002Z</time>
      </trkpt>
      <trkpt lat="46.25429" lon="10.54382">
        <ele>1697.89639936</ele>
        <time>2018-09-22T02:10:52.002Z</time>
      </trkpt>
      <trkpt lat="46.25432" lon="10.54368">
        <ele>1699.24839936</ele>
        <time>2018-09-22T02:11:00.004Z</time>
      </trkpt>
      <trkpt lat="46.25436" lon="10.54355">
        <ele>1700.0494516293</ele>
        <time>2018-09-22T02:11:08.016Z</time>
      </trkpt>
      <trkpt lat="46.25437" lon="10.54341">
        <ele>1700.9453632876</ele>
        <time>2018-09-22T02:11:17.002Z</time>
      </trkpt>
      <trkpt lat="46.25439" lon="10.54326">
        <ele>1701</ele>
        <time>2018-09-22T02:11:25.004Z</time>
      </trkpt>
      <trkpt lat="46.25442" lon="10.54313">
        <ele>1701</ele>
        <time>2018-09-22T02:11:33.014Z</time>
      </trkpt>
      <trkpt lat="46.2544" lon="10.54298">
        <ele>1700.7508456918</ele>
        <time>2018-09-22T02:11:40.014Z</time>
      </trkpt>
      <trkpt lat="46.25438" lon="10.54284">
        <ele>1700.1550252434</ele>
        <time>2018-09-22T02:11:46.002Z</time>
      </trkpt>
      <trkpt lat="46.25431" lon="10.54273">
        <ele>1700</ele>
        <time>2018-09-22T02:11:54.014Z</time>
      </trkpt>
      <trkpt lat="46.25428" lon="10.54259">
        <ele>1700</ele>
        <time>2018-09-22T02:12:03.014Z</time>
      </trkpt>
      <trkpt lat="46.25428" lon="10.54245">
        <ele>1700</ele>
        <time>2018-09-22T02:12:09.015Z</time>
      </trkpt>
      <trkpt lat="46.25429" lon="10.54231">
        <ele>1700</ele>
        <time>2018-09-22T02:12:16.014Z</time>
      </trkpt>
      <trkpt lat="46.25428" lon="10.54217">
        <ele>1699.3512482242</ele>
        <time>2018-09-22T02:12:24.014Z</time>
      </trkpt>
      <trkpt lat="46.25425" lon="10.54204">
        <ele>1699</ele>
        <time>2018-09-22T02:12:31.002Z</time>
      </trkpt>
      <trkpt lat="46.25419" lon="10.54193">
        <ele>1699.2498957525</ele>
        <time>2018-09-22T02:12:39.032Z</time>
      </trkpt>
      <trkpt lat="46.25418" lon="10.5418">
        <ele>1700.4773189129</ele>
        <time>2018-09-22T02:12:44.985Z</time>
      </trkpt>
      <trkpt lat="46.25422" lon="10.54167">
        <ele>1701.44839936</ele>
        <time>2018-09-22T02:12:52.004Z</time>
      </trkpt>
      <trkpt lat="46.25425" lon="10.54154">
        <ele>1702</ele>
        <time>2018-09-22T02:13:00.014Z</time>
      </trkpt>
      <trkpt lat="46.25424" lon="10.5414">
        <ele>1702</ele>
        <time>2018-09-22T02:13:06.015Z</time>
      </trkpt>
      <trkpt lat="46.25421" lon="10.54126">
        <ele>1702</ele>
        <time>2018-09-22T02:13:14.002Z</time>
      </trkpt>
      <trkpt lat="46.25413" lon="10.54122">
        <ele>1702.34919936</ele>
        <time>2018-09-22T02:13:21.012Z</time>
      </trkpt>
      <trkpt lat="46.25407" lon="10.54111">
        <ele>1703.3369338745</ele>
        <time>2018-09-22T02:13:31.014Z</time>
      </trkpt>
      <trkpt lat="46.25405" lon="10.54096">
        <ele>1703.9143683439</ele>
        <time>2018-09-22T02:13:37.002Z</time>
      </trkpt>
      <trkpt lat="46.25408" lon="10.54082">
        <ele>1704.5320877152</ele>
        <time>2018-09-22T02:13:43.014Z</time>
      </trkpt>
      <trkpt lat="46.2541" lon="10.54069">
        <ele>1705.2474209524</ele>
        <time>2018-09-22T02:13:50.014Z</time>
      </trkpt>
      <trkpt lat="46.25415" lon="10.54056">
        <ele>1705.9408736508</ele>
        <time>2018-09-22T02:13:57.004Z</time>
      </trkpt>
      <trkpt lat="46.25415" lon="10.54042">
        <ele>1706.6465729032</ele>
        <time>2018-09-22T02:14:04.014Z</time>
      </trkpt>
      <trkpt lat="46.25416" lon="10.54027">
        <ele>1707</ele>
        <time>2018-09-22T02:14:13.014Z</time>
      </trkpt>
      <trkpt lat="46.25415" lon="10.54013">
        <ele>1707.34940032</ele>
        <time>2018-09-22T02:14:21.014Z</time>
      </trkpt>
      <trkpt lat="46.25411" lon="10.54">
        <ele>1708.0377399676</ele>
        <time>2018-09-22T02:15:28.014Z</time>
      </trkpt>
      <trkpt lat="46.25412" lon="10.53987">
        <ele>1708.9456097048</ele>
        <time>2018-09-22T02:15:37.011Z</time>
      </trkpt>
      <trkpt lat="46.25413" lon="10.53972">
        <ele>1710.6461517753</ele>
        <time>2018-09-22T02:15:46.003Z</time>
      </trkpt>
      <trkpt lat="46.25413" lon="10.53958">
        <ele>1711.741649644</ele>
        <time>2018-09-22T02:15:55.014Z</time>
      </trkpt>
      <trkpt lat="46.25413" lon="10.53942">
        <ele>1712</ele>
        <time>2018-09-22T02:16:04.004Z</time>
      </trkpt>
      <trkpt lat="46.25413" lon="10.53929">
        <ele>1712.34809984</ele>
        <time>2018-09-22T02:16:11.001Z</time>
      </trkpt>
      <trkpt lat="46.25417" lon="10.53915">
        <ele>1713.4979035358</ele>
        <time>2018-09-22T02:16:20.012Z</time>
      </trkpt>
      <trkpt lat="46.2542" lon="10.53898">
        <ele>1715</ele>
        <time>2018-09-22T02:16:29.014Z</time>
      </trkpt>
      <trkpt lat="46.25421" lon="10.53883">
        <ele>1715</ele>
        <time>2018-09-22T02:16:37.001Z</time>
      </trkpt>
      <trkpt lat="46.25418" lon="10.53869">
        <ele>1715</ele>
        <time>2018-09-22T02:16:45.014Z</time>
      </trkpt>
      <trkpt lat="46.25418" lon="10.53853">
        <ele>1715</ele>
        <time>2018-09-22T02:16:51.001Z</time>
      </trkpt>
      <trkpt lat="46.25417" lon="10.5384">
        <ele>1715</ele>
        <time>2018-09-22T02:16:58.014Z</time>
      </trkpt>
      <trkpt lat="46.25421" lon="10.53827">
        <ele>1715</ele>
        <time>2018-09-22T02:17:06.004Z</time>
      </trkpt>
      <trkpt lat="46.25422" lon="10.53813">
        <ele>1716.2839599423</ele>
        <time>2018-09-22T02:17:14.004Z</time>
      </trkpt>
      <trkpt lat="46.25426" lon="10.53799">
        <ele>1717</ele>
        <time>2018-09-22T02:17:23.005Z</time>
      </trkpt>
      <trkpt lat="46.25427" lon="10.53786">
        <ele>1717</ele>
        <time>2018-09-22T02:17:30.014Z</time>
      </trkpt>
      <trkpt lat="46.25428" lon="10.53772">
        <ele>1717.0776542213</ele>
        <time>2018-09-22T02:17:38.014Z</time>
      </trkpt>
      <trkpt lat="46.25428" lon="10.53758">
        <ele>1718.4932259634</ele>
        <time>2018-09-22T02:17:45.014Z</time>
      </trkpt>
      <trkpt lat="46.25431" lon="10.53745">
        <ele>1719.34809984</ele>
        <time>2018-09-22T02:17:51.001Z</time>
      </trkpt>
      <trkpt lat="46.25433" lon="10.53731">
        <ele>1719.8523712253</ele>
        <time>2018-09-22T02:17:59.014Z</time>
      </trkpt>
      <trkpt lat="46.25439" lon="10.53719">
        <ele>1719.2604736759</ele>
        <time>2018-09-22T02:18:05.004Z</time>
      </trkpt>
      <trkpt lat="46.25444" lon="10.53705">
        <ele>1719.5428132793</ele>
        <time>2018-09-22T02:18:13.003Z</time>
      </trkpt>
      <trkpt lat="46.25447" lon="10.53693">
        <ele>1720.34809984</ele>
        <time>2018-09-22T02:18:21.001Z</time>
      </trkpt>
      <trkpt lat="46.25452" lon="10.53682">
        <ele>1721.49700096</ele>
        <time>2018-09-22T02:18:30.005Z</time>
      </trkpt>
      <trkpt lat="46.25457" lon="10.53672">
        <ele>1723.29619968</ele>
        <time>2018-09-22T02:18:39.001Z</time>
      </trkpt>
      <trkpt lat="46.25465" lon="10.53663">
        <ele>1725.2399419667</ele>
        <time>2018-09-22T02:18:50.001Z</time>
      </trkpt>
      <trkpt lat="46.25471" lon="10.53653">
        <ele>1726.0298136448</ele>
        <time>2018-09-22T02:18:58.004Z</time>
      </trkpt>
      <trkpt lat="46.2548" lon="10.53647">
        <ele>1727.6881996269</ele>
        <time>2018-09-22T02:19:06.014Z</time>
      </trkpt>
      <trkpt lat="46.2549" lon="10.53644">
        <ele>1728</ele>
        <time>2018-09-22T02:19:14.001Z</time>
      </trkpt>
      <trkpt lat="46.25499" lon="10.53646">
        <ele>1728.34740096</ele>
        <time>2018-09-22T02:19:21.014Z</time>
      </trkpt>
      <trkpt lat="46.25509" lon="10.53648">
        <ele>1729</ele>
        <time>2018-09-22T02:19:30.014Z</time>
      </trkpt>
      <trkpt lat="46.25519" lon="10.53643">
        <ele>1729</ele>
        <time>2018-09-22T02:19:35.004Z</time>
      </trkpt>
      <trkpt lat="46.25528" lon="10.5364">
        <ele>1729</ele>
        <time>2018-09-22T02:19:40.001Z</time>
      </trkpt>
      <trkpt lat="46.25537" lon="10.53634">
        <ele>1729</ele>
        <time>2018-09-22T02:19:47.015Z</time>
      </trkpt>
      <trkpt lat="46.25544" lon="10.53625">
        <ele>1729</ele>
        <time>2018-09-22T02:19:56.014Z</time>
      </trkpt>
      <trkpt lat="46.25549" lon="10.53613">
        <ele>1729</ele>
        <time>2018-09-22T02:20:04.014Z</time>
      </trkpt>
      <trkpt lat="46.2555" lon="10.53599">
        <ele>1729.4461840964</ele>
        <time>2018-09-22T02:20:12.004Z</time>
      </trkpt>
      <trkpt lat="46.25555" lon="10.53588">
        <ele>1730</ele>
        <time>2018-09-22T02:20:19.004Z</time>
      </trkpt>
      <trkpt lat="46.25561" lon="10.53577">
        <ele>1730</ele>
        <time>2018-09-22T02:20:26.001Z</time>
      </trkpt>
      <trkpt lat="46.25568" lon="10.53568">
        <ele>1730</ele>
        <time>2018-09-22T02:20:34.004Z</time>
      </trkpt>
      <trkpt lat="46.25562" lon="10.53558">
        <ele>1729.15059968</ele>
        <time>2018-09-22T02:20:56.014Z</time>
      </trkpt>
      <trkpt lat="46.25563" lon="10.53571">
        <ele>1729</ele>
        <time>2018-09-22T02:21:23.014Z</time>
      </trkpt>
      <trkpt lat="46.25561" lon="10.53554">
        <ele>1729</ele>
        <time>2018-09-22T02:21:43.014Z</time>
      </trkpt>
      <trkpt lat="46.25561" lon="10.53538">
        <ele>1729</ele>
        <time>2018-09-22T02:21:48.014Z</time>
      </trkpt>
      <trkpt lat="46.25558" lon="10.53525">
        <ele>1729</ele>
        <time>2018-09-22T02:21:53.014Z</time>
      </trkpt>
      <trkpt lat="46.25563" lon="10.53538">
        <ele>1728.4666019625</ele>
        <time>2018-09-22T02:22:03.014Z</time>
      </trkpt>
      <trkpt lat="46.25554" lon="10.53544">
        <ele>1728</ele>
        <time>2018-09-22T02:22:16.014Z</time>
      </trkpt>
      <trkpt lat="46.25564" lon="10.53552">
        <ele>1729.25059968</ele>
        <time>2018-09-22T02:22:45.014Z</time>
      </trkpt>
      <trkpt lat="46.25569" lon="10.53562">
        <ele>1729.54940032</ele>
        <time>2018-09-22T02:22:53.014Z</time>
      </trkpt>
      <trkpt lat="46.25577" lon="10.5357">
        <ele>1730</ele>
        <time>2018-09-22T02:23:07.014Z</time>
      </trkpt>
      <trkpt lat="46.25586" lon="10.53575">
        <ele>1730.8418746667</ele>
        <time>2018-09-22T02:23:16.002Z</time>
      </trkpt>
      <trkpt lat="46.25595" lon="10.5358">
        <ele>1731</ele>
        <time>2018-09-22T02:23:26.004Z</time>
      </trkpt>
      <trkpt lat="46.25604" lon="10.53583">
        <ele>1731.7437928917</ele>
        <time>2018-09-22T02:23:35.010Z</time>
      </trkpt>
      <trkpt lat="46.25614" lon="10.53581">
        <ele>1732</ele>
        <time>2018-09-22T02:23:42.000Z</time>
      </trkpt>
      <trkpt lat="46.25621" lon="10.53571">
        <ele>1731.852</ele>
        <time>2018-09-22T02:23:49.000Z</time>
      </trkpt>
      <trkpt lat="46.25627" lon="10.53562">
        <ele>1731.15160064</ele>
        <time>2018-09-22T02:23:56.004Z</time>
      </trkpt>
      <trkpt lat="46.25634" lon="10.5355">
        <ele>1731</ele>
        <time>2018-09-22T02:24:04.000Z</time>
      </trkpt>
      <trkpt lat="46.25641" lon="10.53541">
        <ele>1731</ele>
        <time>2018-09-22T02:24:10.014Z</time>
      </trkpt>
      <trkpt lat="46.25648" lon="10.53532">
        <ele>1731</ele>
        <time>2018-09-22T02:24:18.014Z</time>
      </trkpt>
      <trkpt lat="46.25656" lon="10.53524">
        <ele>1731</ele>
        <time>2018-09-22T02:24:25.014Z</time>
      </trkpt>
      <trkpt lat="46.25665" lon="10.53518">
        <ele>1730.65059968</ele>
        <time>2018-09-22T02:24:31.014Z</time>
      </trkpt>
      <trkpt lat="46.25673" lon="10.53512">
        <ele>1730.05059968</ele>
        <time>2018-09-22T02:24:37.014Z</time>
      </trkpt>
      <trkpt lat="46.25683" lon="10.53507">
        <ele>1730</ele>
        <time>2018-09-22T02:24:45.005Z</time>
      </trkpt>
      <trkpt lat="46.25692" lon="10.53502">
        <ele>1730</ele>
        <time>2018-09-22T02:24:52.005Z</time>
      </trkpt>
      <trkpt lat="46.25699" lon="10.53493">
        <ele>1730</ele>
        <time>2018-09-22T02:24:59.005Z</time>
      </trkpt>
      <trkpt lat="46.25707" lon="10.53485">
        <ele>1730</ele>
        <time>2018-09-22T02:25:06.005Z</time>
      </trkpt>
      <trkpt lat="46.25711" lon="10.53472">
        <ele>1730.6296117253</ele>
        <time>2018-09-22T02:25:14.005Z</time>
      </trkpt>
      <trkpt lat="46.25714" lon="10.5346">
        <ele>1731.3283505672</ele>
        <time>2018-09-22T02:25:21.005Z</time>
      </trkpt>
      <trkpt lat="46.25719" lon="10.53447">
        <ele>1731.9468047484</ele>
        <time>2018-09-22T02:25:27.004Z</time>
      </trkpt>
      <trkpt lat="46.25725" lon="10.53437">
        <ele>1731.45059968</ele>
        <time>2018-09-22T02:25:33.014Z</time>
      </trkpt>
      <trkpt lat="46.25732" lon="10.53428">
        <ele>1730.75149952</ele>
        <time>2018-09-22T02:25:40.005Z</time>
      </trkpt>
      <trkpt lat="46.25739" lon="10.53417">
        <ele>1730.14790016</ele>
        <time>2018-09-22T02:25:48.999Z</time>
      </trkpt>
      <trkpt lat="46.25746" lon="10.53408">
        <ele>1731</ele>
        <time>2018-09-22T02:25:58.015Z</time>
      </trkpt>
      <trkpt lat="46.25754" lon="10.53401">
        <ele>1731</ele>
        <time>2018-09-22T02:26:04.005Z</time>
      </trkpt>
      <trkpt lat="46.25763" lon="10.53395">
        <ele>1731</ele>
        <time>2018-09-22T02:26:10.004Z</time>
      </trkpt>
      <trkpt lat="46.25772" lon="10.53393">
        <ele>1731</ele>
        <time>2018-09-22T02:26:16.005Z</time>
      </trkpt>
      <trkpt lat="46.25781" lon="10.53391">
        <ele>1730.55160064</ele>
        <time>2018-09-22T02:26:22.004Z</time>
      </trkpt>
      <trkpt lat="46.2579" lon="10.53385">
        <ele>1729.70319872</ele>
        <time>2018-09-22T02:26:29.004Z</time>
      </trkpt>
      <trkpt lat="46.25798" lon="10.53381">
        <ele>1728.30320128</ele>
        <time>2018-09-22T02:26:36.004Z</time>
      </trkpt>
      <trkpt lat="46.25806" lon="10.53373">
        <ele>1726.5194848603</ele>
        <time>2018-09-22T02:26:45.004Z</time>
      </trkpt>
      <trkpt lat="46.25809" lon="10.53361">
        <ele>1725.5567238202</ele>
        <time>2018-09-22T02:26:52.014Z</time>
      </trkpt>
      <trkpt lat="46.25813" lon="10.53348">
        <ele>1725.2481512881</ele>
        <time>2018-09-22T02:27:00.004Z</time>
      </trkpt>
      <trkpt lat="46.25816" lon="10.53335">
        <ele>1726.1475484612</ele>
        <time>2018-09-22T02:27:09.004Z</time>
      </trkpt>
      <trkpt lat="46.2582" lon="10.53323">
        <ele>1727.548</ele>
        <time>2018-09-22T02:27:23.000Z</time>
      </trkpt>
      <trkpt lat="46.25824" lon="10.53311">
        <ele>1729.69700096</ele>
        <time>2018-09-22T02:27:36.005Z</time>
      </trkpt>
      <trkpt lat="46.25831" lon="10.53302">
        <ele>1731.848553157</ele>
        <time>2018-09-22T02:27:47.114Z</time>
      </trkpt>
      <trkpt lat="46.25838" lon="10.53292">
        <ele>1732</ele>
        <time>2018-09-22T02:27:54.004Z</time>
      </trkpt>
      <trkpt lat="46.25846" lon="10.53286">
        <ele>1731.7536141365</ele>
        <time>2018-09-22T02:28:00.014Z</time>
      </trkpt>
      <trkpt lat="46.25856" lon="10.53281">
        <ele>1731</ele>
        <time>2018-09-22T02:28:08.014Z</time>
      </trkpt>
      <trkpt lat="46.25865" lon="10.53278">
        <ele>1731</ele>
        <time>2018-09-22T02:28:15.004Z</time>
      </trkpt>
      <trkpt lat="46.25874" lon="10.53275">
        <ele>1730.3234943233</ele>
        <time>2018-09-22T02:28:21.004Z</time>
      </trkpt>
      <trkpt lat="46.25884" lon="10.53276">
        <ele>1728.9620644698</ele>
        <time>2018-09-22T02:28:28.004Z</time>
      </trkpt>
      <trkpt lat="46.25894" lon="10.53276">
        <ele>1727.310515009</ele>
        <time>2018-09-22T02:28:36.014Z</time>
      </trkpt>
      <trkpt lat="46.25904" lon="10.53284">
        <ele>1725.90119936</ele>
        <time>2018-09-22T02:28:43.014Z</time>
      </trkpt>
      <trkpt lat="46.25913" lon="10.53289">
        <ele>1724.5636892808</ele>
        <time>2018-09-22T02:28:52.014Z</time>
      </trkpt>
      <trkpt lat="46.25922" lon="10.53295">
        <ele>1724.0792232517</ele>
        <time>2018-09-22T02:28:57.004Z</time>
      </trkpt>
      <trkpt lat="46.25931" lon="10.53295">
        <ele>1721.8622666308</ele>
        <time>2018-09-22T02:29:03.004Z</time>
      </trkpt>
      <trkpt lat="46.25938" lon="10.53286">
        <ele>1719.8519483243</ele>
        <time>2018-09-22T02:29:09.002Z</time>
      </trkpt>
      <trkpt lat="46.25947" lon="10.53287">
        <ele>1719.3522481845</ele>
        <time>2018-09-22T02:29:14.004Z</time>
      </trkpt>
      <trkpt lat="46.25957" lon="10.53287">
        <ele>1716.7602569737</ele>
        <time>2018-09-22T02:29:22.005Z</time>
      </trkpt>
      <trkpt lat="46.25967" lon="10.53283">
        <ele>1712.95479808</ele>
        <time>2018-09-22T02:29:31.004Z</time>
      </trkpt>
      <trkpt lat="46.25976" lon="10.53279">
        <ele>1710.90320128</ele>
        <time>2018-09-22T02:29:38.004Z</time>
      </trkpt>
      <trkpt lat="46.25985" lon="10.5328">
        <ele>1709.90319872</ele>
        <time>2018-09-22T02:29:43.004Z</time>
      </trkpt>
      <trkpt lat="46.25995" lon="10.53283">
        <ele>1708.85159936</ele>
        <time>2018-09-22T02:29:49.004Z</time>
      </trkpt>
      <trkpt lat="46.26005" lon="10.53284">
        <ele>1708.05059968</ele>
        <time>2018-09-22T02:29:57.014Z</time>
      </trkpt>
      <trkpt lat="46.26017" lon="10.5328">
        <ele>1708</ele>
        <time>2018-09-22T02:30:05.014Z</time>
      </trkpt>
      <trkpt lat="46.26022" lon="10.53269">
        <ele>1708</ele>
        <time>2018-09-22T02:30:15.000Z</time>
      </trkpt>
      <trkpt lat="46.26023" lon="10.53254">
        <ele>1708</ele>
        <time>2018-09-22T02:30:23.000Z</time>
      </trkpt>
      <trkpt lat="46.26026" lon="10.5324">
        <ele>1708</ele>
        <time>2018-09-22T02:30:30.004Z</time>
      </trkpt>
      <trkpt lat="46.26027" lon="10.53227">
        <ele>1708</ele>
        <time>2018-09-22T02:30:36.004Z</time>
      </trkpt>
      <trkpt lat="46.26029" lon="10.53214">
        <ele>1707.1103187302</ele>
        <time>2018-09-22T02:30:42.004Z</time>
      </trkpt>
      <trkpt lat="46.26029" lon="10.53199">
        <ele>1705.8574593548</ele>
        <time>2018-09-22T02:30:49.014Z</time>
      </trkpt>
      <trkpt lat="46.2603" lon="10.53184">
        <ele>1705.1528232258</ele>
        <time>2018-09-22T02:30:56.004Z</time>
      </trkpt>
      <trkpt lat="46.2603" lon="10.53169">
        <ele>1704.35160064</ele>
        <time>2018-09-22T02:31:04.004Z</time>
      </trkpt>
      <trkpt lat="46.26029" lon="10.53155">
        <ele>1704</ele>
        <time>2018-09-22T02:31:10.009Z</time>
      </trkpt>
      <trkpt lat="46.2603" lon="10.53142">
        <ele>1704</ele>
        <time>2018-09-22T02:31:15.014Z</time>
      </trkpt>
      <trkpt lat="46.26031" lon="10.53129">
        <ele>1703.5538159036</ele>
        <time>2018-09-22T02:31:22.004Z</time>
      </trkpt>
      <trkpt lat="46.26031" lon="10.53115">
        <ele>1703</ele>
        <time>2018-09-22T02:31:30.014Z</time>
      </trkpt>
      <trkpt lat="46.26032" lon="10.531">
        <ele>1702.9840747933</ele>
        <time>2018-09-22T02:31:38.004Z</time>
      </trkpt>
      <trkpt lat="46.26035" lon="10.53087">
        <ele>1702.2591515999</ele>
        <time>2018-09-22T02:31:45.014Z</time>
      </trkpt>
      <trkpt lat="46.26039" lon="10.53072">
        <ele>1702</ele>
        <time>2018-09-22T02:31:51.110Z</time>
      </trkpt>
      <trkpt lat="46.26037" lon="10.53058">
        <ele>1702</ele>
        <time>2018-09-22T02:31:58.004Z</time>
      </trkpt>
      <trkpt lat="46.26036" lon="10.53044">
        <ele>1702</ele>
        <time>2018-09-22T02:32:07.004Z</time>
      </trkpt>
      <trkpt lat="46.26037" lon="10.53031">
        <ele>1702.84839936</ele>
        <time>2018-09-22T02:32:16.004Z</time>
      </trkpt>
      <trkpt lat="46.2604" lon="10.53018">
        <ele>1703.7402575698</ele>
        <time>2018-09-22T02:32:25.004Z</time>
      </trkpt>
      <trkpt lat="46.26043" lon="10.53005">
        <ele>1704</ele>
        <time>2018-09-22T02:32:34.014Z</time>
      </trkpt>
      <trkpt lat="46.26045" lon="10.52992">
        <ele>1704.4972984193</ele>
        <time>2018-09-22T02:32:40.014Z</time>
      </trkpt>
      <trkpt lat="46.26049" lon="10.5298">
        <ele>1706.49860096</ele>
        <time>2018-09-22T02:32:50.013Z</time>
      </trkpt>
      <trkpt lat="46.26048" lon="10.52966">
        <ele>1708.49679872</ele>
        <time>2018-09-22T02:33:00.004Z</time>
      </trkpt>
      <trkpt lat="46.2605" lon="10.52953">
        <ele>1710</ele>
        <time>2018-09-22T02:33:10.014Z</time>
      </trkpt>
      <trkpt lat="46.2605" lon="10.52939">
        <ele>1710.2682409267</ele>
        <time>2018-09-22T02:33:19.014Z</time>
      </trkpt>
      <trkpt lat="46.26051" lon="10.52926">
        <ele>1711.8397245171</ele>
        <time>2018-09-22T02:33:27.005Z</time>
      </trkpt>
      <trkpt lat="46.2605" lon="10.52913">
        <ele>1712</ele>
        <time>2018-09-22T02:33:34.005Z</time>
      </trkpt>
      <trkpt lat="46.26053" lon="10.52899">
        <ele>1712</ele>
        <time>2018-09-22T02:33:42.014Z</time>
      </trkpt>
      <trkpt lat="46.26056" lon="10.52885">
        <ele>1712</ele>
        <time>2018-09-22T02:33:48.004Z</time>
      </trkpt>
      <trkpt lat="46.26056" lon="10.52871">
        <ele>1711.950796494</ele>
        <time>2018-09-22T02:33:58.014Z</time>
      </trkpt>
      <trkpt lat="46.26058" lon="10.52857">
        <ele>1711.254681753</ele>
        <time>2018-09-22T02:34:05.003Z</time>
      </trkpt>
      <trkpt lat="46.26057" lon="10.52844">
        <ele>1711</ele>
        <time>2018-09-22T02:34:12.015Z</time>
      </trkpt>
      <trkpt lat="46.26056" lon="10.5283">
        <ele>1711.04940032</ele>
        <time>2018-09-22T02:34:18.014Z</time>
      </trkpt>
      <trkpt lat="46.26058" lon="10.52815">
        <ele>1711.54840064</ele>
        <time>2018-09-22T02:34:23.004Z</time>
      </trkpt>
      <trkpt lat="46.26062" lon="10.52802">
        <ele>1712</ele>
        <time>2018-09-22T02:34:32.014Z</time>
      </trkpt>
      <trkpt lat="46.26064" lon="10.52789">
        <ele>1711.9518929084</ele>
        <time>2018-09-22T02:34:38.003Z</time>
      </trkpt>
      <trkpt lat="46.26069" lon="10.52778">
        <ele>1711.4538849402</ele>
        <time>2018-09-22T02:34:43.003Z</time>
      </trkpt>
      <trkpt lat="46.2607" lon="10.52764">
        <ele>1710.7555108653</ele>
        <time>2018-09-22T02:34:50.000Z</time>
      </trkpt>
      <trkpt lat="46.26069" lon="10.52751">
        <ele>1710.0538074894</ele>
        <time>2018-09-22T02:34:57.003Z</time>
      </trkpt>
      <trkpt lat="46.26066" lon="10.52736">
        <ele>1710</ele>
        <time>2018-09-22T02:35:05.004Z</time>
      </trkpt>
      <trkpt lat="46.26069" lon="10.52724">
        <ele>1710</ele>
        <time>2018-09-22T02:35:11.003Z</time>
      </trkpt>
      <trkpt lat="46.26073" lon="10.52711">
        <ele>1710</ele>
        <time>2018-09-22T02:35:17.003Z</time>
      </trkpt>
      <trkpt lat="46.26076" lon="10.52697">
        <ele>1710</ele>
        <time>2018-09-22T02:35:24.003Z</time>
      </trkpt>
      <trkpt lat="46.26081" lon="10.52686">
        <ele>1710</ele>
        <time>2018-09-22T02:35:31.014Z</time>
      </trkpt>
      <trkpt lat="46.26084" lon="10.52673">
        <ele>1709.9602010762</ele>
        <time>2018-09-22T02:35:38.014Z</time>
      </trkpt>
      <trkpt lat="46.26089" lon="10.52658">
        <ele>1709.1521207906</ele>
        <time>2018-09-22T02:35:46.014Z</time>
      </trkpt>
      <trkpt lat="46.26093" lon="10.52646">
        <ele>1709.74840064</ele>
        <time>2018-09-22T02:35:55.004Z</time>
      </trkpt>
      <trkpt lat="46.26096" lon="10.52631">
        <ele>1709.6617614441</ele>
        <time>2018-09-22T02:36:01.014Z</time>
      </trkpt>
      <trkpt lat="46.26102" lon="10.52618">
        <ele>1708.9832646531</ele>
        <time>2018-09-22T02:36:08.014Z</time>
      </trkpt>
      <trkpt lat="46.2611" lon="10.52611">
        <ele>1708.2701022041</ele>
        <time>2018-09-22T02:36:15.003Z</time>
      </trkpt>
      <trkpt lat="46.26117" lon="10.52601">
        <ele>1707.6598576857</ele>
        <time>2018-09-22T02:36:21.014Z</time>
      </trkpt>
      <trkpt lat="46.26126" lon="10.52588">
        <ele>1707</ele>
        <time>2018-09-22T02:36:29.014Z</time>
      </trkpt>
      <trkpt lat="46.26127" lon="10.52575">
        <ele>1707</ele>
        <time>2018-09-22T02:36:37.014Z</time>
      </trkpt>
      <trkpt lat="46.26132" lon="10.52562">
        <ele>1707</ele>
        <time>2018-09-22T02:36:44.043Z</time>
      </trkpt>
      <trkpt lat="46.26136" lon="10.52549">
        <ele>1706.65059968</ele>
        <time>2018-09-22T02:36:51.014Z</time>
      </trkpt>
      <trkpt lat="46.2614" lon="10.52537">
        <ele>1706</ele>
        <time>2018-09-22T02:36:58.014Z</time>
      </trkpt>
      <trkpt lat="46.26145" lon="10.52524">
        <ele>1706</ele>
        <time>2018-09-22T02:37:05.014Z</time>
      </trkpt>
      <trkpt lat="46.26151" lon="10.52514">
        <ele>1706</ele>
        <time>2018-09-22T02:37:12.005Z</time>
      </trkpt>
      <trkpt lat="46.26159" lon="10.52505">
        <ele>1706</ele>
        <time>2018-09-22T02:37:20.014Z</time>
      </trkpt>
      <trkpt lat="46.26167" lon="10.52495">
        <ele>1706</ele>
        <time>2018-09-22T02:37:26.003Z</time>
      </trkpt>
      <trkpt lat="46.26176" lon="10.52491">
        <ele>1705.2532199618</ele>
        <time>2018-09-22T02:37:35.003Z</time>
      </trkpt>
      <trkpt lat="46.26184" lon="10.52484">
        <ele>1704.552</ele>
        <time>2018-09-22T02:37:42.000Z</time>
      </trkpt>
      <trkpt lat="46.26193" lon="10.52476">
        <ele>1704</ele>
        <time>2018-09-22T02:37:49.014Z</time>
      </trkpt>
      <trkpt lat="46.26204" lon="10.52477">
        <ele>1704</ele>
        <time>2018-09-22T02:37:55.003Z</time>
      </trkpt>
      <trkpt lat="46.26213" lon="10.52478">
        <ele>1703.1502064198</ele>
        <time>2018-09-22T02:38:02.010Z</time>
      </trkpt>
      <trkpt lat="46.26223" lon="10.5248">
        <ele>1702.1205754733</ele>
        <time>2018-09-22T02:38:07.014Z</time>
      </trkpt>
      <trkpt lat="46.26232" lon="10.52488">
        <ele>1702</ele>
        <time>2018-09-22T02:38:14.111Z</time>
      </trkpt>
      <trkpt lat="46.26241" lon="10.52491">
        <ele>1702</ele>
        <time>2018-09-22T02:38:19.003Z</time>
      </trkpt>
      <trkpt lat="46.26252" lon="10.5249">
        <ele>1701.957980158</ele>
        <time>2018-09-22T02:38:28.014Z</time>
      </trkpt>
      <trkpt lat="46.26261" lon="10.52494">
        <ele>1700.9301734525</ele>
        <time>2018-09-22T02:38:33.004Z</time>
      </trkpt>
      <trkpt lat="46.26271" lon="10.52498">
        <ele>1699.70099968</ele>
        <time>2018-09-22T02:38:39.015Z</time>
      </trkpt>
      <trkpt lat="46.26278" lon="10.52507">
        <ele>1698.30340096</ele>
        <time>2018-09-22T02:38:46.003Z</time>
      </trkpt>
      <trkpt lat="46.26288" lon="10.52512">
        <ele>1698</ele>
        <time>2018-09-22T02:38:53.014Z</time>
      </trkpt>
      <trkpt lat="46.26297" lon="10.52516">
        <ele>1698.49880064</ele>
        <time>2018-09-22T02:39:00.014Z</time>
      </trkpt>
      <trkpt lat="46.26305" lon="10.52525">
        <ele>1700.1472637285</ele>
        <time>2018-09-22T02:39:09.000Z</time>
      </trkpt>
      <trkpt lat="46.26311" lon="10.52537">
        <ele>1700.9446772361</ele>
        <time>2018-09-22T02:39:17.014Z</time>
      </trkpt>
      <trkpt lat="46.26317" lon="10.52549">
        <ele>1701</ele>
        <time>2018-09-22T02:39:23.003Z</time>
      </trkpt>
      <trkpt lat="46.26325" lon="10.52556">
        <ele>1701.44920064</ele>
        <time>2018-09-22T02:39:32.012Z</time>
      </trkpt>
      <trkpt lat="46.26332" lon="10.52568">
        <ele>1702.44899968</ele>
        <time>2018-09-22T02:39:42.010Z</time>
      </trkpt>
      <trkpt lat="46.26339" lon="10.52576">
        <ele>1703.24850048</ele>
        <time>2018-09-22T02:39:50.005Z</time>
      </trkpt>
      <trkpt lat="46.26348" lon="10.52584">
        <ele>1704</ele>
        <time>2018-09-22T02:39:58.003Z</time>
      </trkpt>
      <trkpt lat="46.26356" lon="10.52588">
        <ele>1704</ele>
        <time>2018-09-22T02:40:05.003Z</time>
      </trkpt>
      <trkpt lat="46.26366" lon="10.52588">
        <ele>1704.6476520752</ele>
        <time>2018-09-22T02:40:14.003Z</time>
      </trkpt>
      <trkpt lat="46.26375" lon="10.52588">
        <ele>1706.6791290432</ele>
        <time>2018-09-22T02:40:26.018Z</time>
      </trkpt>
      <trkpt lat="46.26384" lon="10.52588">
        <ele>1708.6284398381</ele>
        <time>2018-09-22T02:40:33.003Z</time>
      </trkpt>
      <trkpt lat="46.26393" lon="10.52594">
        <ele>1710</ele>
        <time>2018-09-22T02:40:40.000Z</time>
      </trkpt>
      <trkpt lat="46.26403" lon="10.52593">
        <ele>1709.306176255</ele>
        <time>2018-09-22T02:40:51.003Z</time>
      </trkpt>
      <trkpt lat="46.26411" lon="10.52589">
        <ele>1706.2870876529</ele>
        <time>2018-09-22T02:41:02.005Z</time>
      </trkpt>
      <trkpt lat="46.26422" lon="10.5259">
        <ele>1703.5787993948</ele>
        <time>2018-09-22T02:41:12.013Z</time>
      </trkpt>
      <trkpt lat="46.26431" lon="10.52593">
        <ele>1700.0155369476</ele>
        <time>2018-09-22T02:41:25.004Z</time>
      </trkpt>
      <trkpt lat="46.26441" lon="10.52595">
        <ele>1698.45159936</ele>
        <time>2018-09-22T02:41:33.004Z</time>
      </trkpt>
      <trkpt lat="46.2645" lon="10.52593">
        <ele>1696.76</ele>
        <time>2018-09-22T02:41:40.000Z</time>
      </trkpt>
      <trkpt lat="46.26459" lon="10.52598">
        <ele>1690.4429844785</ele>
        <time>2018-09-22T02:41:59.000Z</time>
      </trkpt>
      <trkpt lat="46.26466" lon="10.52606">
        <ele>1686.6553901783</ele>
        <time>2018-09-22T02:42:11.014Z</time>
      </trkpt>
      <trkpt lat="46.26474" lon="10.52614">
        <ele>1685.05440256</ele>
        <time>2018-09-22T02:42:20.004Z</time>
      </trkpt>
      <trkpt lat="46.26478" lon="10.52626">
        <ele>1681.3190270445</ele>
        <time>2018-09-22T02:42:31.004Z</time>
      </trkpt>
      <trkpt lat="46.26484" lon="10.52637">
        <ele>1679.85170048</ele>
        <time>2018-09-22T02:42:39.003Z</time>
      </trkpt>
      <trkpt lat="46.26492" lon="10.52646">
        <ele>1679.15059968</ele>
        <time>2018-09-22T02:42:46.014Z</time>
      </trkpt>
      <trkpt lat="46.26496" lon="10.52658">
        <ele>1675.7580032</ele>
        <time>2018-09-22T02:42:54.004Z</time>
      </trkpt>
      <trkpt lat="46.26502" lon="10.52668">
        <ele>1671.75510144</ele>
        <time>2018-09-22T02:43:05.003Z</time>
      </trkpt>
      <trkpt lat="46.26511" lon="10.52672">
        <ele>1670.152</ele>
        <time>2018-09-22T02:43:16.000Z</time>
      </trkpt>
      <trkpt lat="46.26521" lon="10.52676">
        <ele>1668.50119936</ele>
        <time>2018-09-22T02:43:25.014Z</time>
      </trkpt>
      <trkpt lat="46.26528" lon="10.52685">
        <ele>1668</ele>
        <time>2018-09-22T02:43:32.004Z</time>
      </trkpt>
      <trkpt lat="46.26534" lon="10.52695">
        <ele>1668</ele>
        <time>2018-09-22T02:43:38.014Z</time>
      </trkpt>
      <trkpt lat="46.26539" lon="10.52709">
        <ele>1668</ele>
        <time>2018-09-22T02:43:45.013Z</time>
      </trkpt>
      <trkpt lat="46.26541" lon="10.52721">
        <ele>1670.14840064</ele>
        <time>2018-09-22T02:43:59.004Z</time>
      </trkpt>
      <trkpt lat="46.26544" lon="10.52734">
        <ele>1671</ele>
        <time>2018-09-22T02:44:08.003Z</time>
      </trkpt>
      <trkpt lat="46.26548" lon="10.52747">
        <ele>1671</ele>
        <time>2018-09-22T02:44:15.013Z</time>
      </trkpt>
      <trkpt lat="46.26553" lon="10.52758">
        <ele>1670.0538074894</ele>
        <time>2018-09-22T02:44:27.003Z</time>
      </trkpt>
      <trkpt lat="46.26558" lon="10.52747">
        <ele>1666</ele>
        <time>2018-09-22T02:44:38.014Z</time>
      </trkpt>
      <trkpt lat="46.26562" lon="10.52734">
        <ele>1666</ele>
        <time>2018-09-22T02:44:45.014Z</time>
      </trkpt>
      <trkpt lat="46.26565" lon="10.52721">
        <ele>1665.6629744268</ele>
        <time>2018-09-22T02:44:51.017Z</time>
      </trkpt>
      <trkpt lat="46.26572" lon="10.5271">
        <ele>1663.3054762226</ele>
        <time>2018-09-22T02:45:06.014Z</time>
      </trkpt>
      <trkpt lat="46.26574" lon="10.52697">
        <ele>1661.70119936</ele>
        <time>2018-09-22T02:45:14.014Z</time>
      </trkpt>
      <trkpt lat="46.2658" lon="10.52686">
        <ele>1657.60239872</ele>
        <time>2018-09-22T02:45:26.014Z</time>
      </trkpt>
      <trkpt lat="46.26585" lon="10.52674">
        <ele>1657</ele>
        <time>2018-09-22T02:45:33.014Z</time>
      </trkpt>
      <trkpt lat="46.26595" lon="10.52661">
        <ele>1655.759201993</ele>
        <time>2018-09-22T02:45:40.014Z</time>
      </trkpt>
      <trkpt lat="46.26602" lon="10.52648">
        <ele>1652.7741264156</ele>
        <time>2018-09-22T02:45:46.014Z</time>
      </trkpt>
      <trkpt lat="46.26611" lon="10.52641">
        <ele>1649.90119936</ele>
        <time>2018-09-22T02:45:58.014Z</time>
      </trkpt>
      <trkpt lat="46.26617" lon="10.52631">
        <ele>1647.5592909528</ele>
        <time>2018-09-22T02:46:09.014Z</time>
      </trkpt>
      <trkpt lat="46.26625" lon="10.52623">
        <ele>1645.1994082043</ele>
        <time>2018-09-22T02:46:17.014Z</time>
      </trkpt>
      <trkpt lat="46.26633" lon="10.52616">
        <ele>1644.3591876091</ele>
        <time>2018-09-22T02:46:24.002Z</time>
      </trkpt>
      <trkpt lat="46.26642" lon="10.52611">
        <ele>1643.3156630335</ele>
        <time>2018-09-22T02:46:31.013Z</time>
      </trkpt>
      <trkpt lat="46.2665" lon="10.52606">
        <ele>1642.1332006674</ele>
        <time>2018-09-22T02:46:37.014Z</time>
      </trkpt>
      <trkpt lat="46.26658" lon="10.52595">
        <ele>1641.0742552211</ele>
        <time>2018-09-22T02:46:47.003Z</time>
      </trkpt>
      <trkpt lat="46.26666" lon="10.52587">
        <ele>1640.2564992447</ele>
        <time>2018-09-22T02:46:55.014Z</time>
      </trkpt>
      <trkpt lat="46.26675" lon="10.52583">
        <ele>1638.6306171734</ele>
        <time>2018-09-22T02:47:02.112Z</time>
      </trkpt>
      <trkpt lat="46.26684" lon="10.52579">
        <ele>1636.4285736361</ele>
        <time>2018-09-22T02:47:09.000Z</time>
      </trkpt>
      <trkpt lat="46.26693" lon="10.52582">
        <ele>1632.9536917496</ele>
        <time>2018-09-22T02:47:18.003Z</time>
      </trkpt>
      <trkpt lat="46.26702" lon="10.52583">
        <ele>1632.3773728468</ele>
        <time>2018-09-22T02:47:24.014Z</time>
      </trkpt>
      <trkpt lat="46.26712" lon="10.52584">
        <ele>1631.1610773738</ele>
        <time>2018-09-22T02:47:32.002Z</time>
      </trkpt>
      <trkpt lat="46.26721" lon="10.52581">
        <ele>1629.5740662526</ele>
        <time>2018-09-22T02:47:39.017Z</time>
      </trkpt>
      <trkpt lat="46.2673" lon="10.52577">
        <ele>1627.7586264352</ele>
        <time>2018-09-22T02:47:45.014Z</time>
      </trkpt>
      <trkpt lat="46.26739" lon="10.52573">
        <ele>1626.10119936</ele>
        <time>2018-09-22T02:47:52.014Z</time>
      </trkpt>
      <trkpt lat="46.26748" lon="10.52569">
        <ele>1624.70119936</ele>
        <time>2018-09-22T02:47:59.014Z</time>
      </trkpt>
      <trkpt lat="46.26757" lon="10.52571">
        <ele>1623.30139904</ele>
        <time>2018-09-22T02:48:06.013Z</time>
      </trkpt>
      <trkpt lat="46.26766" lon="10.52575">
        <ele>1622.1514479605</ele>
        <time>2018-09-22T02:48:16.014Z</time>
      </trkpt>
      <trkpt lat="46.26775" lon="10.5257">
        <ele>1620.2320164427</ele>
        <time>2018-09-22T02:48:22.003Z</time>
      </trkpt>
      <trkpt lat="46.26785" lon="10.5257">
        <ele>1617.6602839602</ele>
        <time>2018-09-22T02:48:31.003Z</time>
      </trkpt>
      <trkpt lat="46.26794" lon="10.5257">
        <ele>1616.90340096</ele>
        <time>2018-09-22T02:48:38.003Z</time>
      </trkpt>
      <trkpt lat="46.26803" lon="10.52576">
        <ele>1615.50119936</ele>
        <time>2018-09-22T02:48:45.014Z</time>
      </trkpt>
      <trkpt lat="46.26812" lon="10.52582">
        <ele>1610.2595008</ele>
        <time>2018-09-22T02:48:57.001Z</time>
      </trkpt>
      <trkpt lat="46.26819" lon="10.52589">
        <ele>1608.30340096</ele>
        <time>2018-09-22T02:49:06.003Z</time>
      </trkpt>
      <trkpt lat="46.26826" lon="10.52599">
        <ele>1606.304</ele>
        <time>2018-09-22T02:49:16.000Z</time>
      </trkpt>
      <trkpt lat="46.26832" lon="10.52608">
        <ele>1602.2585024</ele>
        <time>2018-09-22T02:49:25.003Z</time>
      </trkpt>
      <trkpt lat="46.2684" lon="10.52617">
        <ele>1600.1049791235</ele>
        <time>2018-09-22T02:49:32.013Z</time>
      </trkpt>
      <trkpt lat="46.26846" lon="10.52628">
        <ele>1599.3107569721</ele>
        <time>2018-09-22T02:49:36.000Z</time>
      </trkpt>
      <trkpt lat="46.26855" lon="10.52633">
        <ele>1597.0560231325</ele>
        <time>2018-09-22T02:49:44.014Z</time>
      </trkpt>
      <trkpt lat="46.26862" lon="10.52641">
        <ele>1594.95510144</ele>
        <time>2018-09-22T02:49:51.003Z</time>
      </trkpt>
      <trkpt lat="46.26872" lon="10.52645">
        <ele>1591.05179904</ele>
        <time>2018-09-22T02:50:04.014Z</time>
      </trkpt>
      <trkpt lat="46.26878" lon="10.52656">
        <ele>1589.35170048</ele>
        <time>2018-09-22T02:50:14.003Z</time>
      </trkpt>
      <trkpt lat="46.26882" lon="10.52669">
        <ele>1586.2585024</ele>
        <time>2018-09-22T02:50:23.003Z</time>
      </trkpt>
      <trkpt lat="46.26883" lon="10.52683">
        <ele>1583.7145611462</ele>
        <time>2018-09-22T02:50:29.000Z</time>
      </trkpt>
      <trkpt lat="46.26889" lon="10.52693">
        <ele>1582.3620043547</ele>
        <time>2018-09-22T02:50:36.013Z</time>
      </trkpt>
      <trkpt lat="46.26891" lon="10.52707">
        <ele>1581.2712091803</ele>
        <time>2018-09-22T02:50:45.003Z</time>
      </trkpt>
      <trkpt lat="46.2689" lon="10.52693">
        <ele>1579.5106381323</ele>
        <time>2018-09-22T02:50:55.000Z</time>
      </trkpt>
      <trkpt lat="46.26891" lon="10.52677">
        <ele>1576.4357333657</ele>
        <time>2018-09-22T02:51:04.014Z</time>
      </trkpt>
      <trkpt lat="46.26888" lon="10.52664">
        <ele>1575</ele>
        <time>2018-09-22T02:51:09.014Z</time>
      </trkpt>
      <trkpt lat="46.26896" lon="10.52651">
        <ele>1575</ele>
        <time>2018-09-22T02:51:21.014Z</time>
      </trkpt>
      <trkpt lat="46.26901" lon="10.52638">
        <ele>1575</ele>
        <time>2018-09-22T02:51:27.002Z</time>
      </trkpt>
      <trkpt lat="46.26908" lon="10.52626">
        <ele>1575</ele>
        <time>2018-09-22T02:51:34.014Z</time>
      </trkpt>
      <trkpt lat="46.26915" lon="10.52617">
        <ele>1575</ele>
        <time>2018-09-22T02:51:46.014Z</time>
      </trkpt>
      <trkpt lat="46.26922" lon="10.52608">
        <ele>1575</ele>
        <time>2018-09-22T02:51:52.014Z</time>
      </trkpt>
      <trkpt lat="46.26931" lon="10.526">
        <ele>1574.50380032</ele>
        <time>2018-09-22T02:52:00.001Z</time>
      </trkpt>
      <trkpt lat="46.26939" lon="10.52592">
        <ele>1573.4458336508</ele>
        <time>2018-09-22T02:52:12.014Z</time>
      </trkpt>
      <trkpt lat="46.26944" lon="10.5258">
        <ele>1574</ele>
        <time>2018-09-22T02:52:18.014Z</time>
      </trkpt>
      <trkpt lat="46.2695" lon="10.52568">
        <ele>1574</ele>
        <time>2018-09-22T02:52:25.014Z</time>
      </trkpt>
      <trkpt lat="46.26956" lon="10.52559">
        <ele>1573.3018972394</ele>
        <time>2018-09-22T02:52:31.014Z</time>
      </trkpt>
      <trkpt lat="46.26963" lon="10.52548">
        <ele>1572.1030956573</ele>
        <time>2018-09-22T02:52:37.014Z</time>
      </trkpt>
      <trkpt lat="46.26972" lon="10.52544">
        <ele>1570.7019010364</ele>
        <time>2018-09-22T02:52:44.014Z</time>
      </trkpt>
      <trkpt lat="46.26979" lon="10.52537">
        <ele>1570.54940032</ele>
        <time>2018-09-22T02:52:53.014Z</time>
      </trkpt>
      <trkpt lat="46.26988" lon="10.52536">
        <ele>1571.44940032</ele>
        <time>2018-09-22T02:53:02.014Z</time>
      </trkpt>
      <trkpt lat="46.26998" lon="10.52534">
        <ele>1572.4425465564</ele>
        <time>2018-09-22T02:53:12.003Z</time>
      </trkpt>
      <trkpt lat="46.27008" lon="10.52537">
        <ele>1573.4563110174</ele>
        <time>2018-09-22T02:53:20.000Z</time>
      </trkpt>
      <trkpt lat="46.27018" lon="10.5254">
        <ele>1574.8182525401</ele>
        <time>2018-09-22T02:53:27.014Z</time>
      </trkpt>
      <trkpt lat="46.27026" lon="10.52531">
        <ele>1575</ele>
        <time>2018-09-22T02:53:36.014Z</time>
      </trkpt>
      <trkpt lat="46.27035" lon="10.52525">
        <ele>1574.3695146442</ele>
        <time>2018-09-22T02:53:44.014Z</time>
      </trkpt>
      <trkpt lat="46.27043" lon="10.5252">
        <ele>1573.5575091882</ele>
        <time>2018-09-22T02:53:49.986Z</time>
      </trkpt>
      <trkpt lat="46.27052" lon="10.52526">
        <ele>1572.1217557067</ele>
        <time>2018-09-22T02:53:57.014Z</time>
      </trkpt>
      <trkpt lat="46.27059" lon="10.52518">
        <ele>1569.2403551903</ele>
        <time>2018-09-22T02:54:07.002Z</time>
      </trkpt>
      <trkpt lat="46.27068" lon="10.52513">
        <ele>1565.7529984</ele>
        <time>2018-09-22T02:54:22.014Z</time>
      </trkpt>
      <trkpt lat="46.27076" lon="10.52504">
        <ele>1561.6271098638</ele>
        <time>2018-09-22T02:54:31.014Z</time>
      </trkpt>
      <trkpt lat="46.27081" lon="10.52493">
        <ele>1559.269544531</ele>
        <time>2018-09-22T02:54:37.014Z</time>
      </trkpt>
      <trkpt lat="46.27088" lon="10.52482">
        <ele>1556.020771962</ele>
        <time>2018-09-22T02:54:45.014Z</time>
      </trkpt>
      <trkpt lat="46.27096" lon="10.52476">
        <ele>1553.50119936</ele>
        <time>2018-09-22T02:54:55.014Z</time>
      </trkpt>
      <trkpt lat="46.27104" lon="10.52469">
        <ele>1550.00239872</ele>
        <time>2018-09-22T02:55:05.014Z</time>
      </trkpt>
      <trkpt lat="46.27112" lon="10.52464">
        <ele>1545.60239872</ele>
        <time>2018-09-22T02:55:16.014Z</time>
      </trkpt>
      <trkpt lat="46.2712" lon="10.52458">
        <ele>1544.35170048</ele>
        <time>2018-09-22T02:55:24.003Z</time>
      </trkpt>
      <trkpt lat="46.27126" lon="10.52448">
        <ele>1538.0053828896</ele>
        <time>2018-09-22T02:55:40.014Z</time>
      </trkpt>
      <trkpt lat="46.27129" lon="10.52436">
        <ele>1534.3058111781</ele>
        <time>2018-09-22T02:55:51.014Z</time>
      </trkpt>
      <trkpt lat="46.27133" lon="10.52422">
        <ele>1530.7525513505</ele>
        <time>2018-09-22T02:56:05.014Z</time>
      </trkpt>
      <trkpt lat="46.27134" lon="10.52409">
        <ele>1529.15049984</ele>
        <time>2018-09-22T02:56:16.015Z</time>
      </trkpt>
      <trkpt lat="46.27135" lon="10.52394">
        <ele>1527.65179904</ele>
        <time>2018-09-22T02:56:22.014Z</time>
      </trkpt>
      <trkpt lat="46.27136" lon="10.52378">
        <ele>1526</ele>
        <time>2018-09-22T02:56:30.014Z</time>
      </trkpt>
      <trkpt lat="46.27137" lon="10.52365">
        <ele>1526</ele>
        <time>2018-09-22T02:56:36.016Z</time>
      </trkpt>
      <trkpt lat="46.27135" lon="10.52352">
        <ele>1526</ele>
        <time>2018-09-22T02:56:44.000Z</time>
      </trkpt>
      <trkpt lat="46.27125" lon="10.52354">
        <ele>1525.0399230255</ele>
        <time>2018-09-22T02:56:50.015Z</time>
      </trkpt>
      <trkpt lat="46.27117" lon="10.52347">
        <ele>1521.9600006334</ele>
        <time>2018-09-22T02:56:58.014Z</time>
      </trkpt>
      <trkpt lat="46.27114" lon="10.52335">
        <ele>1520</ele>
        <time>2018-09-22T02:57:13.001Z</time>
      </trkpt>
      <trkpt lat="46.27106" lon="10.52327">
        <ele>1518.70119936</ele>
        <time>2018-09-22T02:57:39.014Z</time>
      </trkpt>
      <trkpt lat="46.27098" lon="10.52321">
        <ele>1517.50119936</ele>
        <time>2018-09-22T02:57:45.014Z</time>
      </trkpt>
      <trkpt lat="46.27093" lon="10.5231">
        <ele>1513.7594773713</ele>
        <time>2018-09-22T02:57:54.014Z</time>
      </trkpt>
      <trkpt lat="46.27085" lon="10.52301">
        <ele>1510.3545071875</ele>
        <time>2018-09-22T02:58:03.014Z</time>
      </trkpt>
      <trkpt lat="46.27077" lon="10.52295">
        <ele>1508.7535569961</ele>
        <time>2018-09-22T02:58:10.014Z</time>
      </trkpt>
      <trkpt lat="46.27068" lon="10.52293">
        <ele>1508.0618573913</ele>
        <time>2018-09-22T02:58:17.014Z</time>
      </trkpt>
      <trkpt lat="46.27059" lon="10.52293">
        <ele>1503.5218604049</ele>
        <time>2018-09-22T02:58:25.014Z</time>
      </trkpt>
      <trkpt lat="46.27052" lon="10.52285">
        <ele>1500.50119936</ele>
        <time>2018-09-22T02:58:35.014Z</time>
      </trkpt>
      <trkpt lat="46.27054" lon="10.52271">
        <ele>1499.2504</ele>
        <time>2018-09-22T02:58:45.016Z</time>
      </trkpt>
      <trkpt lat="46.27061" lon="10.52263">
        <ele>1496.2030016</ele>
        <time>2018-09-22T02:58:53.114Z</time>
      </trkpt>
      <trkpt lat="46.27067" lon="10.5225">
        <ele>1492.20239872</ele>
        <time>2018-09-22T02:59:02.014Z</time>
      </trkpt>
      <trkpt lat="46.27076" lon="10.52244">
        <ele>1489.75059968</ele>
        <time>2018-09-22T02:59:10.014Z</time>
      </trkpt>
      <trkpt lat="46.27086" lon="10.52238">
        <ele>1489.15079936</ele>
        <time>2018-09-22T02:59:16.012Z</time>
      </trkpt>
      <trkpt lat="46.27096" lon="10.52233">
        <ele>1488.3531869323</ele>
        <time>2018-09-22T02:59:24.014Z</time>
      </trkpt>
      <trkpt lat="46.27104" lon="10.52229">
        <ele>1487.7130353713</ele>
        <time>2018-09-22T02:59:29.002Z</time>
      </trkpt>
      <trkpt lat="46.27113" lon="10.52223">
        <ele>1486.519203827</ele>
        <time>2018-09-22T02:59:35.001Z</time>
      </trkpt>
      <trkpt lat="46.27123" lon="10.52216">
        <ele>1485.1111998026</ele>
        <time>2018-09-22T02:59:42.014Z</time>
      </trkpt>
      <trkpt lat="46.27132" lon="10.52207">
        <ele>1483.2529984</ele>
        <time>2018-09-22T02:59:49.014Z</time>
      </trkpt>
      <trkpt lat="46.2714" lon="10.52198">
        <ele>1480.2590016</ele>
        <time>2018-09-22T02:59:55.002Z</time>
      </trkpt>
      <trkpt lat="46.27149" lon="10.52195">
        <ele>1478.5205801675</ele>
        <time>2018-09-22T03:00:00.001Z</time>
      </trkpt>
      <trkpt lat="46.27157" lon="10.52188">
        <ele>1476.9726438044</ele>
        <time>2018-09-22T03:00:08.002Z</time>
      </trkpt>
      <trkpt lat="46.27167" lon="10.52184">
        <ele>1475.3150260112</ele>
        <time>2018-09-22T03:00:16.000Z</time>
      </trkpt>
      <trkpt lat="46.27178" lon="10.52181">
        <ele>1474.1656180216</ele>
        <time>2018-09-22T03:00:26.014Z</time>
      </trkpt>
      <trkpt lat="46.27186" lon="10.52173">
        <ele>1471.7652739615</ele>
        <time>2018-09-22T03:00:35.015Z</time>
      </trkpt>
      <trkpt lat="46.27189" lon="10.5216">
        <ele>1469.05179904</ele>
        <time>2018-09-22T03:00:44.014Z</time>
      </trkpt>
      <trkpt lat="46.27179" lon="10.52164">
        <ele>1465.75570048</ele>
        <time>2018-09-22T03:00:55.001Z</time>
      </trkpt>
      <trkpt lat="46.27169" lon="10.52162">
        <ele>1463.902296712</ele>
        <time>2018-09-22T03:01:03.014Z</time>
      </trkpt>
      <trkpt lat="46.27159" lon="10.52159">
        <ele>1462.3025014446</ele>
        <time>2018-09-22T03:01:11.014Z</time>
      </trkpt>
      <trkpt lat="46.27152" lon="10.5215">
        <ele>1460.7047706053</ele>
        <time>2018-09-22T03:01:19.005Z</time>
      </trkpt>
      <trkpt lat="46.27144" lon="10.52141">
        <ele>1458.7855161597</ele>
        <time>2018-09-22T03:01:28.113Z</time>
      </trkpt>
      <trkpt lat="46.27134" lon="10.52138">
        <ele>1455.6060353198</ele>
        <time>2018-09-22T03:01:36.014Z</time>
      </trkpt>
      <trkpt lat="46.27126" lon="10.52133">
        <ele>1453.7098512907</ele>
        <time>2018-09-22T03:01:44.003Z</time>
      </trkpt>
      <trkpt lat="46.27118" lon="10.52125">
        <ele>1451.358290538</ele>
        <time>2018-09-22T03:01:53.015Z</time>
      </trkpt>
      <trkpt lat="46.27111" lon="10.52116">
        <ele>1448.60760064</ele>
        <time>2018-09-22T03:02:01.001Z</time>
      </trkpt>
      <trkpt lat="46.27105" lon="10.52106">
        <ele>1445.6983009625</ele>
        <time>2018-09-22T03:02:09.030Z</time>
      </trkpt>
      <trkpt lat="46.27097" lon="10.52098">
        <ele>1443.903481724</ele>
        <time>2018-09-22T03:02:18.015Z</time>
      </trkpt>
      <trkpt lat="46.27089" lon="10.52088">
        <ele>1442.1154240489</ele>
        <time>2018-09-22T03:02:27.000Z</time>
      </trkpt>
      <trkpt lat="46.27083" lon="10.52079">
        <ele>1439.4572423065</ele>
        <time>2018-09-22T03:02:36.005Z</time>
      </trkpt>
      <trkpt lat="46.27077" lon="10.5207">
        <ele>1437.05449856</ele>
        <time>2018-09-22T03:02:44.005Z</time>
      </trkpt>
      <trkpt lat="46.27068" lon="10.52064">
        <ele>1433.45179904</ele>
        <time>2018-09-22T03:02:56.014Z</time>
      </trkpt>
      <trkpt lat="46.27069" lon="10.5205">
        <ele>1428.8976671402</ele>
        <time>2018-09-22T03:03:08.001Z</time>
      </trkpt>
      <trkpt lat="46.27077" lon="10.52045">
        <ele>1426.2688038154</ele>
        <time>2018-09-22T03:03:17.018Z</time>
      </trkpt>
      <trkpt lat="46.27088" lon="10.52041">
        <ele>1424.7344469415</ele>
        <time>2018-09-22T03:03:24.002Z</time>
      </trkpt>
      <trkpt lat="46.27099" lon="10.5204">
        <ele>1423.75190016</ele>
        <time>2018-09-22T03:03:30.001Z</time>
      </trkpt>
      <trkpt lat="46.27108" lon="10.5204">
        <ele>1423.25190016</ele>
        <time>2018-09-22T03:03:35.001Z</time>
      </trkpt>
      <trkpt lat="46.27118" lon="10.52039">
        <ele>1421.95570048</ele>
        <time>2018-09-22T03:03:41.001Z</time>
      </trkpt>
      <trkpt lat="46.27127" lon="10.52038">
        <ele>1420.15149952</ele>
        <time>2018-09-22T03:03:47.015Z</time>
      </trkpt>
      <trkpt lat="46.27136" lon="10.5204">
        <ele>1418.90360064</ele>
        <time>2018-09-22T03:03:53.002Z</time>
      </trkpt>
      <trkpt lat="46.27145" lon="10.52037">
        <ele>1418</ele>
        <time>2018-09-22T03:04:00.000Z</time>
      </trkpt>
      <trkpt lat="46.27153" lon="10.5203">
        <ele>1417.2745098039</ele>
        <time>2018-09-22T03:04:09.000Z</time>
      </trkpt>
      <trkpt lat="46.27162" lon="10.52023">
        <ele>1413.3450980392</ele>
        <time>2018-09-22T03:04:17.016Z</time>
      </trkpt>
      <trkpt lat="46.27171" lon="10.52015">
        <ele>1410.7708173061</ele>
        <time>2018-09-22T03:04:25.002Z</time>
      </trkpt>
      <trkpt lat="46.27179" lon="10.52007">
        <ele>1407.808</ele>
        <time>2018-09-22T03:04:33.000Z</time>
      </trkpt>
      <trkpt lat="46.27187" lon="10.51997">
        <ele>1404.608</ele>
        <time>2018-09-22T03:04:41.000Z</time>
      </trkpt>
      <trkpt lat="46.27195" lon="10.51989">
        <ele>1401.5625617143</ele>
        <time>2018-09-22T03:04:49.000Z</time>
      </trkpt>
      <trkpt lat="46.27203" lon="10.51979">
        <ele>1399.193596471</ele>
        <time>2018-09-22T03:04:57.015Z</time>
      </trkpt>
      <trkpt lat="46.27211" lon="10.51973">
        <ele>1397.116072381</ele>
        <time>2018-09-22T03:05:04.000Z</time>
      </trkpt>
      <trkpt lat="46.2722" lon="10.5197">
        <ele>1394.6650298013</ele>
        <time>2018-09-22T03:05:11.014Z</time>
      </trkpt>
      <trkpt lat="46.2723" lon="10.51965">
        <ele>1391.8588579431</ele>
        <time>2018-09-22T03:05:18.000Z</time>
      </trkpt>
      <trkpt lat="46.27238" lon="10.51961">
        <ele>1390.0570567185</ele>
        <time>2018-09-22T03:05:24.000Z</time>
      </trkpt>
      <trkpt lat="46.27247" lon="10.51959">
        <ele>1387.65090048</ele>
        <time>2018-09-22T03:05:32.017Z</time>
      </trkpt>
      <trkpt lat="46.27242" lon="10.51949">
        <ele>1379.88140032</ele>
        <time>2018-09-22T03:05:58.113Z</time>
      </trkpt>
      <trkpt lat="46.27233" lon="10.51947">
        <ele>1379.10200064</ele>
        <time>2018-09-22T03:06:02.010Z</time>
      </trkpt>
      <trkpt lat="46.27224" lon="10.51944">
        <ele>1377.75059968</ele>
        <time>2018-09-22T03:06:10.014Z</time>
      </trkpt>
      <trkpt lat="46.27215" lon="10.51946">
        <ele>1377.35059968</ele>
        <time>2018-09-22T03:06:14.014Z</time>
      </trkpt>
      <trkpt lat="46.27207" lon="10.51937">
        <ele>1373.8838737099</ele>
        <time>2018-09-22T03:06:24.014Z</time>
      </trkpt>
      <trkpt lat="46.27197" lon="10.51934">
        <ele>1371.1494766434</ele>
        <time>2018-09-22T03:06:32.014Z</time>
      </trkpt>
      <trkpt lat="46.27186" lon="10.51933">
        <ele>1369.50340096</ele>
        <time>2018-09-22T03:06:40.003Z</time>
      </trkpt>
      <trkpt lat="46.27177" lon="10.5193">
        <ele>1367.85179904</ele>
        <time>2018-09-22T03:06:48.014Z</time>
      </trkpt>
      <trkpt lat="46.27166" lon="10.5193">
        <ele>1365.456</ele>
        <time>2018-09-22T03:06:56.000Z</time>
      </trkpt>
      <trkpt lat="46.27157" lon="10.51928">
        <ele>1363.35570048</ele>
        <time>2018-09-22T03:07:03.001Z</time>
      </trkpt>
      <trkpt lat="46.27148" lon="10.51924">
        <ele>1361.30380032</ele>
        <time>2018-09-22T03:07:11.001Z</time>
      </trkpt>
      <trkpt lat="46.27139" lon="10.51921">
        <ele>1359.501697503</ele>
        <time>2018-09-22T03:07:20.014Z</time>
      </trkpt>
      <trkpt lat="46.27131" lon="10.51916">
        <ele>1357.7665660007</ele>
        <time>2018-09-22T03:07:28.113Z</time>
      </trkpt>
      <trkpt lat="46.27122" lon="10.51913">
        <ele>1355.0090086858</ele>
        <time>2018-09-22T03:07:35.000Z</time>
      </trkpt>
      <trkpt lat="46.27113" lon="10.51907">
        <ele>1353.4679614956</ele>
        <time>2018-09-22T03:07:43.000Z</time>
      </trkpt>
      <trkpt lat="46.27104" lon="10.51903">
        <ele>1352.6307223955</ele>
        <time>2018-09-22T03:07:49.014Z</time>
      </trkpt>
      <trkpt lat="46.27094" lon="10.519">
        <ele>1349.70299904</ele>
        <time>2018-09-22T03:07:59.005Z</time>
      </trkpt>
      <trkpt lat="46.27086" lon="10.51893">
        <ele>1347.85190016</ele>
        <time>2018-09-22T03:08:09.001Z</time>
      </trkpt>
      <trkpt lat="46.2708" lon="10.51882">
        <ele>1346.8069632022</ele>
        <time>2018-09-22T03:08:18.005Z</time>
      </trkpt>
      <trkpt lat="46.27069" lon="10.51872">
        <ele>1343.6193011325</ele>
        <time>2018-09-22T03:08:26.014Z</time>
      </trkpt>
      <trkpt lat="46.2706" lon="10.51867">
        <ele>1342.2625118352</ele>
        <time>2018-09-22T03:08:30.016Z</time>
      </trkpt>
      <trkpt lat="46.27052" lon="10.51859">
        <ele>1340.1564828442</ele>
        <time>2018-09-22T03:08:37.001Z</time>
      </trkpt>
      <trkpt lat="46.27047" lon="10.51848">
        <ele>1339.25049984</ele>
        <time>2018-09-22T03:08:45.015Z</time>
      </trkpt>
      <trkpt lat="46.27041" lon="10.51835">
        <ele>1339</ele>
        <time>2018-09-22T03:08:53.001Z</time>
      </trkpt>
      <trkpt lat="46.27034" lon="10.51826">
        <ele>1338.6538619551</ele>
        <time>2018-09-22T03:09:01.001Z</time>
      </trkpt>
      <trkpt lat="46.27025" lon="10.51823">
        <ele>1338.0520563457</ele>
        <time>2018-09-22T03:09:07.001Z</time>
      </trkpt>
      <trkpt lat="46.27015" lon="10.51821">
        <ele>1337.35190016</ele>
        <time>2018-09-22T03:09:14.001Z</time>
      </trkpt>
      <trkpt lat="46.27005" lon="10.51822">
        <ele>1336.65059968</ele>
        <time>2018-09-22T03:09:21.014Z</time>
      </trkpt>
      <trkpt lat="46.26994" lon="10.51819">
        <ele>1335.9520850585</ele>
        <time>2018-09-22T03:09:28.014Z</time>
      </trkpt>
      <trkpt lat="46.26985" lon="10.51814">
        <ele>1335.3710968392</ele>
        <time>2018-09-22T03:09:34.004Z</time>
      </trkpt>
      <trkpt lat="46.26976" lon="10.5181">
        <ele>1334.7746129287</ele>
        <time>2018-09-22T03:09:40.014Z</time>
      </trkpt>
      <trkpt lat="46.26967" lon="10.5181">
        <ele>1334.1552116096</ele>
        <time>2018-09-22T03:09:46.016Z</time>
      </trkpt>
      <trkpt lat="46.26959" lon="10.51804">
        <ele>1333.95190016</ele>
        <time>2018-09-22T03:09:58.001Z</time>
      </trkpt>
      <trkpt lat="46.26951" lon="10.51795">
        <ele>1333.05190016</ele>
        <time>2018-09-22T03:10:07.001Z</time>
      </trkpt>
      <trkpt lat="46.26942" lon="10.51792">
        <ele>1333</ele>
        <time>2018-09-22T03:10:14.001Z</time>
      </trkpt>
      <trkpt lat="46.26933" lon="10.51791">
        <ele>1332.8527835529</ele>
        <time>2018-09-22T03:10:19.001Z</time>
      </trkpt>
      <trkpt lat="46.2692" lon="10.51788">
        <ele>1332.0562627077</ele>
        <time>2018-09-22T03:10:27.014Z</time>
      </trkpt>
      <trkpt lat="46.26911" lon="10.51788">
        <ele>1331.755130949</ele>
        <time>2018-09-22T03:10:30.014Z</time>
      </trkpt>
      <trkpt lat="46.26904" lon="10.51778">
        <ele>1330.95190016</ele>
        <time>2018-09-22T03:10:38.001Z</time>
      </trkpt>
      <trkpt lat="46.26893" lon="10.51776">
        <ele>1330.25190016</ele>
        <time>2018-09-22T03:10:45.001Z</time>
      </trkpt>
      <trkpt lat="46.26883" lon="10.5178">
        <ele>1329.75190016</ele>
        <time>2018-09-22T03:10:50.001Z</time>
      </trkpt>
      <trkpt lat="46.26874" lon="10.51786">
        <ele>1329.1504</ele>
        <time>2018-09-22T03:10:56.016Z</time>
      </trkpt>
      <trkpt lat="46.26865" lon="10.51793">
        <ele>1328</ele>
        <time>2018-09-22T03:11:10.001Z</time>
      </trkpt>
      <trkpt lat="46.26857" lon="10.518">
        <ele>1327.75190016</ele>
        <time>2018-09-22T03:11:20.001Z</time>
      </trkpt>
      <trkpt lat="46.26848" lon="10.51805">
        <ele>1327.05190016</ele>
        <time>2018-09-22T03:11:27.001Z</time>
      </trkpt>
      <trkpt lat="46.2684" lon="10.51812">
        <ele>1326.45190016</ele>
        <time>2018-09-22T03:11:33.001Z</time>
      </trkpt>
      <trkpt lat="46.2683" lon="10.51816">
        <ele>1325.7533800376</ele>
        <time>2018-09-22T03:11:40.001Z</time>
      </trkpt>
      <trkpt lat="46.26819" lon="10.5182">
        <ele>1324.9576466528</ele>
        <time>2018-09-22T03:11:48.001Z</time>
      </trkpt>
      <trkpt lat="46.2681" lon="10.51819">
        <ele>1324.3540245338</ele>
        <time>2018-09-22T03:11:54.001Z</time>
      </trkpt>
      <trkpt lat="46.26801" lon="10.51817">
        <ele>1323.7040961292</ele>
        <time>2018-09-22T03:11:59.001Z</time>
      </trkpt>
      <trkpt lat="46.2679" lon="10.51817">
        <ele>1322.9048950745</ele>
        <time>2018-09-22T03:12:03.001Z</time>
      </trkpt>
      <trkpt lat="46.26781" lon="10.51814">
        <ele>1322.1056940198</ele>
        <time>2018-09-22T03:12:07.001Z</time>
      </trkpt>
      <trkpt lat="46.26772" lon="10.51812">
        <ele>1322</ele>
        <time>2018-09-22T03:12:12.001Z</time>
      </trkpt>
      <trkpt lat="46.26763" lon="10.51808">
        <ele>1321.95190016</ele>
        <time>2018-09-22T03:12:18.001Z</time>
      </trkpt>
      <trkpt lat="46.26755" lon="10.518">
        <ele>1321.25149952</ele>
        <time>2018-09-22T03:12:25.005Z</time>
      </trkpt>
      <trkpt lat="46.26747" lon="10.51794">
        <ele>1320.6504</ele>
        <time>2018-09-22T03:12:31.016Z</time>
      </trkpt>
      <trkpt lat="46.26738" lon="10.51786">
        <ele>1320</ele>
        <time>2018-09-22T03:12:39.001Z</time>
      </trkpt>
      <trkpt lat="46.26729" lon="10.51782">
        <ele>1320</ele>
        <time>2018-09-22T03:12:44.999Z</time>
      </trkpt>
      <trkpt lat="46.2672" lon="10.51774">
        <ele>1320</ele>
        <time>2018-09-22T03:12:53.001Z</time>
      </trkpt>
      <trkpt lat="46.26712" lon="10.5177">
        <ele>1319.7549198394</ele>
        <time>2018-09-22T03:13:00.001Z</time>
      </trkpt>
      <trkpt lat="46.26703" lon="10.51762">
        <ele>1319</ele>
        <time>2018-09-22T03:13:08.001Z</time>
      </trkpt>
      <trkpt lat="46.26694" lon="10.51759">
        <ele>1319</ele>
        <time>2018-09-22T03:13:15.001Z</time>
      </trkpt>
      <trkpt lat="46.26685" lon="10.51752">
        <ele>1318.55190016</ele>
        <time>2018-09-22T03:13:22.001Z</time>
      </trkpt>
      <trkpt lat="46.26676" lon="10.51748">
        <ele>1318</ele>
        <time>2018-09-22T03:13:29.002Z</time>
      </trkpt>
      <trkpt lat="46.26669" lon="10.51738">
        <ele>1318</ele>
        <time>2018-09-22T03:13:35.005Z</time>
      </trkpt>
      <trkpt lat="46.26676" lon="10.51728">
        <ele>1317.55149952</ele>
        <time>2018-09-22T03:13:42.005Z</time>
      </trkpt>
      <trkpt lat="46.26685" lon="10.51725">
        <ele>1316.95149952</ele>
        <time>2018-09-22T03:13:48.005Z</time>
      </trkpt>
      <trkpt lat="46.26687" lon="10.51713">
        <ele>1316.15059968</ele>
        <time>2018-09-22T03:13:56.014Z</time>
      </trkpt>
      <trkpt lat="46.26681" lon="10.51703">
        <ele>1315.3602171325</ele>
        <time>2018-09-22T03:14:04.001Z</time>
      </trkpt>
      <trkpt lat="46.26672" lon="10.51696">
        <ele>1315</ele>
        <time>2018-09-22T03:14:10.001Z</time>
      </trkpt>
      <trkpt lat="46.26666" lon="10.51685">
        <ele>1315</ele>
        <time>2018-09-22T03:14:17.004Z</time>
      </trkpt>
      <trkpt lat="46.2666" lon="10.51676">
        <ele>1315</ele>
        <time>2018-09-22T03:14:25.001Z</time>
      </trkpt>
      <trkpt lat="46.26649" lon="10.5167">
        <ele>1315</ele>
        <time>2018-09-22T03:14:33.014Z</time>
      </trkpt>
      <trkpt lat="46.26641" lon="10.51667">
        <ele>1315</ele>
        <time>2018-09-22T03:14:38.014Z</time>
      </trkpt>
      <trkpt lat="46.26629" lon="10.51669">
        <ele>1315</ele>
        <time>2018-09-22T03:14:43.014Z</time>
      </trkpt>
      <trkpt lat="46.26619" lon="10.51669">
        <ele>1314.90380032</ele>
        <time>2018-09-22T03:14:48.001Z</time>
      </trkpt>
      <trkpt lat="46.2661" lon="10.51669">
        <ele>1313.90299904</ele>
        <time>2018-09-22T03:14:53.005Z</time>
      </trkpt>
      <trkpt lat="46.266" lon="10.51666">
        <ele>1312.00760064</ele>
        <time>2018-09-22T03:15:00.001Z</time>
      </trkpt>
      <trkpt lat="46.26591" lon="10.51665">
        <ele>1310.00760064</ele>
        <time>2018-09-22T03:15:05.001Z</time>
      </trkpt>
      <trkpt lat="46.2658" lon="10.51663">
        <ele>1309</ele>
        <time>2018-09-22T03:15:10.001Z</time>
      </trkpt>
      <trkpt lat="46.2657" lon="10.51663">
        <ele>1309</ele>
        <time>2018-09-22T03:15:15.001Z</time>
      </trkpt>
      <trkpt lat="46.26562" lon="10.51661">
        <ele>1309</ele>
        <time>2018-09-22T03:15:22.001Z</time>
      </trkpt>
      <trkpt lat="46.26552" lon="10.51658">
        <ele>1307.9633606478</ele>
        <time>2018-09-22T03:15:38.002Z</time>
      </trkpt>
      <trkpt lat="46.26542" lon="10.51656">
        <ele>1307.4569833198</ele>
        <time>2018-09-22T03:15:43.005Z</time>
      </trkpt>
      <trkpt lat="46.26533" lon="10.51652">
        <ele>1306.9533011552</ele>
        <time>2018-09-22T03:15:48.001Z</time>
      </trkpt>
      <trkpt lat="46.26523" lon="10.51651">
        <ele>1306.4666019625</ele>
        <time>2018-09-22T03:15:53.014Z</time>
      </trkpt>
      <trkpt lat="46.26515" lon="10.51646">
        <ele>1305.9812380907</ele>
        <time>2018-09-22T03:15:58.002Z</time>
      </trkpt>
      <trkpt lat="46.26505" lon="10.51641">
        <ele>1305.4655666577</ele>
        <time>2018-09-22T03:16:03.004Z</time>
      </trkpt>
      <trkpt lat="46.26496" lon="10.51636">
        <ele>1305</ele>
        <time>2018-09-22T03:16:10.004Z</time>
      </trkpt>
      <trkpt lat="46.26485" lon="10.51633">
        <ele>1305</ele>
        <time>2018-09-22T03:16:17.002Z</time>
      </trkpt>
      <trkpt lat="46.26477" lon="10.51626">
        <ele>1304.2540870219</ele>
        <time>2018-09-22T03:16:25.002Z</time>
      </trkpt>
      <trkpt lat="46.2647" lon="10.51618">
        <ele>1303.25190016</ele>
        <time>2018-09-22T03:16:35.001Z</time>
      </trkpt>
      <trkpt lat="46.26462" lon="10.51609">
        <ele>1302.45170048</ele>
        <time>2018-09-22T03:16:43.003Z</time>
      </trkpt>
      <trkpt lat="46.26453" lon="10.51602">
        <ele>1302</ele>
        <time>2018-09-22T03:16:51.014Z</time>
      </trkpt>
      <trkpt lat="46.26444" lon="10.51596">
        <ele>1302</ele>
        <time>2018-09-22T03:16:55.002Z</time>
      </trkpt>
      <trkpt lat="46.26436" lon="10.51587">
        <ele>1301.85159936</ele>
        <time>2018-09-22T03:16:59.004Z</time>
      </trkpt>
      <trkpt lat="46.26429" lon="10.51578">
        <ele>1301.452</ele>
        <time>2018-09-22T03:17:03.000Z</time>
      </trkpt>
      <trkpt lat="46.26421" lon="10.51567">
        <ele>1300.9523247629</ele>
        <time>2018-09-22T03:17:08.002Z</time>
      </trkpt>
      <trkpt lat="46.26412" lon="10.51559">
        <ele>1300.3588531406</ele>
        <time>2018-09-22T03:17:14.002Z</time>
      </trkpt>
      <trkpt lat="46.26403" lon="10.51551">
        <ele>1299.7598582034</ele>
        <time>2018-09-22T03:17:20.005Z</time>
      </trkpt>
      <trkpt lat="46.26394" lon="10.51543">
        <ele>1299.0520723323</ele>
        <time>2018-09-22T03:17:27.005Z</time>
      </trkpt>
      <trkpt lat="46.26386" lon="10.51536">
        <ele>1299</ele>
        <time>2018-09-22T03:17:35.004Z</time>
      </trkpt>
      <trkpt lat="46.26379" lon="10.51526">
        <ele>1299</ele>
        <time>2018-09-22T03:17:43.005Z</time>
      </trkpt>
      <trkpt lat="46.26371" lon="10.5152">
        <ele>1298.6507491391</ele>
        <time>2018-09-22T03:17:51.016Z</time>
      </trkpt>
      <trkpt lat="46.26363" lon="10.51512">
        <ele>1297.9524516669</ele>
        <time>2018-09-22T03:17:58.005Z</time>
      </trkpt>
      <trkpt lat="46.26357" lon="10.51502">
        <ele>1297.2508504502</ele>
        <time>2018-09-22T03:18:05.014Z</time>
      </trkpt>
      <trkpt lat="46.26347" lon="10.51497">
        <ele>1297</ele>
        <time>2018-09-22T03:18:10.012Z</time>
      </trkpt>
      <trkpt lat="46.26339" lon="10.51488">
        <ele>1297</ele>
        <time>2018-09-22T03:18:15.012Z</time>
      </trkpt>
      <trkpt lat="46.26329" lon="10.5148">
        <ele>1297</ele>
        <time>2018-09-22T03:18:20.015Z</time>
      </trkpt>
      <trkpt lat="46.26321" lon="10.51472">
        <ele>1297</ele>
        <time>2018-09-22T03:18:26.002Z</time>
      </trkpt>
      <trkpt lat="46.26314" lon="10.51462">
        <ele>1296.55160064</ele>
        <time>2018-09-22T03:18:32.004Z</time>
      </trkpt>
      <trkpt lat="46.26305" lon="10.51456">
        <ele>1296</ele>
        <time>2018-09-22T03:18:38.002Z</time>
      </trkpt>
      <trkpt lat="46.26297" lon="10.51447">
        <ele>1296</ele>
        <time>2018-09-22T03:18:44.004Z</time>
      </trkpt>
      <trkpt lat="46.26288" lon="10.51439">
        <ele>1295.7608430522</ele>
        <time>2018-09-22T03:18:50.012Z</time>
      </trkpt>
      <trkpt lat="46.26282" lon="10.51428">
        <ele>1295.0578313253</ele>
        <time>2018-09-22T03:18:57.014Z</time>
      </trkpt>
      <trkpt lat="46.26276" lon="10.51417">
        <ele>1292.9820443284</ele>
        <time>2018-09-22T03:19:08.004Z</time>
      </trkpt>
      <trkpt lat="46.2627" lon="10.51407">
        <ele>1292.3628490775</ele>
        <time>2018-09-22T03:19:14.004Z</time>
      </trkpt>
      <trkpt lat="46.26263" lon="10.51395">
        <ele>1292</ele>
        <time>2018-09-22T03:19:20.004Z</time>
      </trkpt>
      <trkpt lat="46.26256" lon="10.51386">
        <ele>1292</ele>
        <time>2018-09-22T03:19:25.004Z</time>
      </trkpt>
      <trkpt lat="46.26251" lon="10.51375">
        <ele>1291.75160064</ele>
        <time>2018-09-22T03:19:30.004Z</time>
      </trkpt>
      <trkpt lat="46.26245" lon="10.51364">
        <ele>1290.95059968</ele>
        <time>2018-09-22T03:19:38.014Z</time>
      </trkpt>
      <trkpt lat="46.26238" lon="10.5138">
        <ele>1290.65059968</ele>
        <time>2018-09-22T03:19:41.014Z</time>
      </trkpt>
      <trkpt lat="46.26232" lon="10.5137">
        <ele>1289.8513429178</ele>
        <time>2018-09-22T03:19:49.014Z</time>
      </trkpt>
      <trkpt lat="46.26229" lon="10.51356">
        <ele>1289.4533328409</ele>
        <time>2018-09-22T03:19:53.014Z</time>
      </trkpt>
      <trkpt lat="46.26228" lon="10.51341">
        <ele>1289.0553227639</ele>
        <time>2018-09-22T03:19:57.014Z</time>
      </trkpt>
      <trkpt lat="46.26227" lon="10.51328">
        <ele>1289</ele>
        <time>2018-09-22T03:20:05.014Z</time>
      </trkpt>
      <trkpt lat="46.2623" lon="10.51311">
        <ele>1289</ele>
        <time>2018-09-22T03:20:16.014Z</time>
      </trkpt>
      <trkpt lat="46.2623" lon="10.51297">
        <ele>1289</ele>
        <time>2018-09-22T03:20:24.014Z</time>
      </trkpt>
      <trkpt lat="46.26222" lon="10.51288">
        <ele>1289</ele>
        <time>2018-09-22T03:20:31.014Z</time>
      </trkpt>
      <trkpt lat="46.26212" lon="10.51288">
        <ele>1289</ele>
        <time>2018-09-22T03:20:36.014Z</time>
      </trkpt>
      <trkpt lat="46.26206" lon="10.51277">
        <ele>1289</ele>
        <time>2018-09-22T03:20:41.012Z</time>
      </trkpt>
      <trkpt lat="46.26201" lon="10.51265">
        <ele>1288.85180032</ele>
        <time>2018-09-22T03:20:49.002Z</time>
      </trkpt>
      <trkpt lat="46.26201" lon="10.51251">
        <ele>1288.15059968</ele>
        <time>2018-09-22T03:20:56.014Z</time>
      </trkpt>
      <trkpt lat="46.26198" lon="10.51237">
        <ele>1287.10119936</ele>
        <time>2018-09-22T03:21:02.014Z</time>
      </trkpt>
      <trkpt lat="46.26193" lon="10.51222">
        <ele>1285.6614337984</ele>
        <time>2018-09-22T03:21:11.014Z</time>
      </trkpt>
      <trkpt lat="46.26195" lon="10.51208">
        <ele>1285.0800384496</ele>
        <time>2018-09-22T03:21:17.014Z</time>
      </trkpt>
      <trkpt lat="46.26194" lon="10.51195">
        <ele>1284.2759352157</ele>
        <time>2018-09-22T03:21:25.001Z</time>
      </trkpt>
      <trkpt lat="46.2619" lon="10.51182">
        <ele>1284.3270922709</ele>
        <time>2018-09-22T03:21:31.014Z</time>
      </trkpt>
      <trkpt lat="46.26185" lon="10.51169">
        <ele>1285</ele>
        <time>2018-09-22T03:21:38.014Z</time>
      </trkpt>
      <trkpt lat="46.26186" lon="10.51156">
        <ele>1285</ele>
        <time>2018-09-22T03:21:43.002Z</time>
      </trkpt>
      <trkpt lat="46.26184" lon="10.51142">
        <ele>1284.95059968</ele>
        <time>2018-09-22T03:21:48.014Z</time>
      </trkpt>
      <trkpt lat="46.26179" lon="10.5113">
        <ele>1284.45059968</ele>
        <time>2018-09-22T03:21:53.014Z</time>
      </trkpt>
      <trkpt lat="46.26169" lon="10.51128">
        <ele>1283.95170048</ele>
        <time>2018-09-22T03:21:58.003Z</time>
      </trkpt>
      <trkpt lat="46.26168" lon="10.51114">
        <ele>1283</ele>
        <time>2018-09-22T03:22:09.002Z</time>
      </trkpt>
      <trkpt lat="46.26162" lon="10.51102">
        <ele>1282.5585723873</ele>
        <time>2018-09-22T03:22:22.014Z</time>
      </trkpt>
      <trkpt lat="46.26152" lon="10.51097">
        <ele>1282.1621401505</ele>
        <time>2018-09-22T03:22:26.014Z</time>
      </trkpt>
      <trkpt lat="46.26148" lon="10.51085">
        <ele>1280.5352592829</ele>
        <time>2018-09-22T03:22:35.003Z</time>
      </trkpt>
      <trkpt lat="46.26144" lon="10.5107">
        <ele>1279.3806072034</ele>
        <time>2018-09-22T03:22:44.014Z</time>
      </trkpt>
      <trkpt lat="46.26137" lon="10.51058">
        <ele>1279.0867779008</ele>
        <time>2018-09-22T03:22:47.014Z</time>
      </trkpt>
      <trkpt lat="46.26131" lon="10.51048">
        <ele>1278.7802496667</ele>
        <time>2018-09-22T03:22:50.014Z</time>
      </trkpt>
      <trkpt lat="46.26126" lon="10.51037">
        <ele>1278.1576929116</ele>
        <time>2018-09-22T03:22:56.003Z</time>
      </trkpt>
      <trkpt lat="46.26118" lon="10.51032">
        <ele>1276.7063738645</ele>
        <time>2018-09-22T03:23:04.014Z</time>
      </trkpt>
      <trkpt lat="46.26106" lon="10.51034">
        <ele>1275.9554223293</ele>
        <time>2018-09-22T03:23:08.004Z</time>
      </trkpt>
      <trkpt lat="46.26091" lon="10.51028">
        <ele>1275.2516061044</ele>
        <time>2018-09-22T03:23:15.014Z</time>
      </trkpt>
      <trkpt lat="46.2608" lon="10.51016">
        <ele>1274.55059968</ele>
        <time>2018-09-22T03:23:22.014Z</time>
      </trkpt>
      <trkpt lat="46.26076" lon="10.51004">
        <ele>1273.65059968</ele>
        <time>2018-09-22T03:23:31.014Z</time>
      </trkpt>
      <trkpt lat="46.26068" lon="10.50995">
        <ele>1273</ele>
        <time>2018-09-22T03:23:40.014Z</time>
      </trkpt>
      <trkpt lat="46.2606" lon="10.50988">
        <ele>1273</ele>
        <time>2018-09-22T03:23:45.014Z</time>
      </trkpt>
      <trkpt lat="46.2605" lon="10.50982">
        <ele>1272.75059968</ele>
        <time>2018-09-22T03:23:50.014Z</time>
      </trkpt>
      <trkpt lat="46.26041" lon="10.50983">
        <ele>1272</ele>
        <time>2018-09-22T03:23:58.014Z</time>
      </trkpt>
      <trkpt lat="46.26033" lon="10.50993">
        <ele>1272</ele>
        <time>2018-09-22T03:24:04.002Z</time>
      </trkpt>
      <trkpt lat="46.26023" lon="10.50998">
        <ele>1274.3466273016</ele>
        <time>2018-09-22T03:24:31.014Z</time>
      </trkpt>
      <trkpt lat="46.26015" lon="10.51007">
        <ele>1275</ele>
        <time>2018-09-22T03:24:38.003Z</time>
      </trkpt>
      <trkpt lat="46.26011" lon="10.51019">
        <ele>1275</ele>
        <time>2018-09-22T03:24:45.014Z</time>
      </trkpt>
      <trkpt lat="46.26007" lon="10.51031">
        <ele>1275.5446686807</ele>
        <time>2018-09-22T03:24:53.014Z</time>
      </trkpt>
      <trkpt lat="46.26003" lon="10.51048">
        <ele>1276.4391288376</ele>
        <time>2018-09-22T03:24:59.014Z</time>
      </trkpt>
      <trkpt lat="46.26001" lon="10.51062">
        <ele>1279</ele>
        <time>2018-09-22T03:25:08.014Z</time>
      </trkpt>
      <trkpt lat="46.25998" lon="10.51075">
        <ele>1279</ele>
        <time>2018-09-22T03:25:13.002Z</time>
      </trkpt>
      <trkpt lat="46.25994" lon="10.51087">
        <ele>1279</ele>
        <time>2018-09-22T03:25:20.002Z</time>
      </trkpt>
      <trkpt lat="46.25989" lon="10.51099">
        <ele>1278.9624761814</ele>
        <time>2018-09-22T03:25:28.002Z</time>
      </trkpt>
      <trkpt lat="46.25985" lon="10.51111">
        <ele>1277.5189704043</ele>
        <time>2018-09-22T03:25:35.003Z</time>
      </trkpt>
      <trkpt lat="46.25985" lon="10.51124">
        <ele>1276.5903113183</ele>
        <time>2018-09-22T03:25:42.002Z</time>
      </trkpt>
      <trkpt lat="46.25983" lon="10.51139">
        <ele>1276.1229442791</ele>
        <time>2018-09-22T03:25:47.115Z</time>
      </trkpt>
      <trkpt lat="46.25981" lon="10.51152">
        <ele>1276</ele>
        <time>2018-09-22T03:25:53.003Z</time>
      </trkpt>
      <trkpt lat="46.2598" lon="10.51166">
        <ele>1275.720605918</ele>
        <time>2018-09-22T03:25:59.003Z</time>
      </trkpt>
      <trkpt lat="46.25977" lon="10.5118">
        <ele>1274.3044432779</ele>
        <time>2018-09-22T03:26:06.013Z</time>
      </trkpt>
      <trkpt lat="46.25975" lon="10.51193">
        <ele>1274</ele>
        <time>2018-09-22T03:26:13.114Z</time>
      </trkpt>
      <trkpt lat="46.25974" lon="10.51207">
        <ele>1273.85170048</ele>
        <time>2018-09-22T03:26:19.003Z</time>
      </trkpt>
      <trkpt lat="46.25967" lon="10.51218">
        <ele>1273</ele>
        <time>2018-09-22T03:26:28.002Z</time>
      </trkpt>
      <trkpt lat="46.2597" lon="10.51231">
        <ele>1273</ele>
        <time>2018-09-22T03:26:35.003Z</time>
      </trkpt>
      <trkpt lat="46.25965" lon="10.51243">
        <ele>1272.1522945484</ele>
        <time>2018-09-22T03:26:46.014Z</time>
      </trkpt>
      <trkpt lat="46.25961" lon="10.51258">
        <ele>1272</ele>
        <time>2018-09-22T03:26:53.014Z</time>
      </trkpt>
      <trkpt lat="46.25956" lon="10.51271">
        <ele>1272</ele>
        <time>2018-09-22T03:26:57.013Z</time>
      </trkpt>
      <trkpt lat="46.25953" lon="10.51286">
        <ele>1272</ele>
        <time>2018-09-22T03:27:07.014Z</time>
      </trkpt>
      <trkpt lat="46.25947" lon="10.51297">
        <ele>1272</ele>
        <time>2018-09-22T03:27:11.014Z</time>
      </trkpt>
      <trkpt lat="46.25943" lon="10.51309">
        <ele>1272</ele>
        <time>2018-09-22T03:27:17.002Z</time>
      </trkpt>
      <trkpt lat="46.2594" lon="10.51322">
        <ele>1271.4539701857</ele>
        <time>2018-09-22T03:27:23.003Z</time>
      </trkpt>
      <trkpt lat="46.25936" lon="10.51334">
        <ele>1271</ele>
        <time>2018-09-22T03:27:31.014Z</time>
      </trkpt>
      <trkpt lat="46.25934" lon="10.51347">
        <ele>1271</ele>
        <time>2018-09-22T03:27:38.014Z</time>
      </trkpt>
      <trkpt lat="46.2593" lon="10.51359">
        <ele>1271</ele>
        <time>2018-09-22T03:27:46.014Z</time>
      </trkpt>
      <trkpt lat="46.25925" lon="10.51373">
        <ele>1271.7491495498</ele>
        <time>2018-09-22T03:27:55.014Z</time>
      </trkpt>
      <trkpt lat="46.25921" lon="10.51386">
        <ele>1272</ele>
        <time>2018-09-22T03:28:02.013Z</time>
      </trkpt>
      <trkpt lat="46.25917" lon="10.51399">
        <ele>1272</ele>
        <time>2018-09-22T03:28:08.014Z</time>
      </trkpt>
      <trkpt lat="46.25925" lon="10.51406">
        <ele>1272</ele>
        <time>2018-09-22T03:28:12.014Z</time>
      </trkpt>
      <trkpt lat="46.25919" lon="10.51416">
        <ele>1272.04940032</ele>
        <time>2018-09-22T03:28:18.014Z</time>
      </trkpt>
      <trkpt lat="46.2591" lon="10.51423">
        <ele>1272.74940032</ele>
        <time>2018-09-22T03:28:25.014Z</time>
      </trkpt>
      <trkpt lat="46.25903" lon="10.51433">
        <ele>1273</ele>
        <time>2018-09-22T03:28:32.003Z</time>
      </trkpt>
      <trkpt lat="46.25895" lon="10.51441">
        <ele>1273</ele>
        <time>2018-09-22T03:28:40.014Z</time>
      </trkpt>
      <trkpt lat="46.25886" lon="10.51446">
        <ele>1273</ele>
        <time>2018-09-22T03:28:49.014Z</time>
      </trkpt>
      <trkpt lat="46.2588" lon="10.51458">
        <ele>1273</ele>
        <time>2018-09-22T03:28:57.014Z</time>
      </trkpt>
      <trkpt lat="46.25876" lon="10.51473">
        <ele>1273.2309429508</ele>
        <time>2018-09-22T03:29:00.014Z</time>
      </trkpt>
      <trkpt lat="46.25868" lon="10.51481">
        <ele>1273.9469259016</ele>
        <time>2018-09-22T03:29:07.002Z</time>
      </trkpt>
      <trkpt lat="46.25862" lon="10.51493">
        <ele>1274</ele>
        <time>2018-09-22T03:29:13.002Z</time>
      </trkpt>
      <trkpt lat="46.25855" lon="10.51503">
        <ele>1274.24819968</ele>
        <time>2018-09-22T03:29:20.002Z</time>
      </trkpt>
      <trkpt lat="46.25848" lon="10.51513">
        <ele>1274.94829952</ele>
        <time>2018-09-22T03:29:27.003Z</time>
      </trkpt>
      <trkpt lat="46.2584" lon="10.51523">
        <ele>1275</ele>
        <time>2018-09-22T03:29:35.004Z</time>
      </trkpt>
      <trkpt lat="46.25835" lon="10.51533">
        <ele>1275</ele>
        <time>2018-09-22T03:29:45.003Z</time>
      </trkpt>
      <trkpt lat="46.25829" lon="10.51545">
        <ele>1275</ele>
        <time>2018-09-22T03:29:52.003Z</time>
      </trkpt>
      <trkpt lat="46.25824" lon="10.51556">
        <ele>1275.14829952</ele>
        <time>2018-09-22T03:29:59.003Z</time>
      </trkpt>
      <trkpt lat="46.25817" lon="10.51564">
        <ele>1275.74819968</ele>
        <time>2018-09-22T03:30:05.002Z</time>
      </trkpt>
      <trkpt lat="46.2581" lon="10.51573">
        <ele>1276</ele>
        <time>2018-09-22T03:30:13.003Z</time>
      </trkpt>
      <trkpt lat="46.25802" lon="10.51581">
        <ele>1276</ele>
        <time>2018-09-22T03:30:20.003Z</time>
      </trkpt>
      <trkpt lat="46.25795" lon="10.51591">
        <ele>1276</ele>
        <time>2018-09-22T03:30:26.013Z</time>
      </trkpt>
      <trkpt lat="46.25786" lon="10.51597">
        <ele>1276</ele>
        <time>2018-09-22T03:30:33.003Z</time>
      </trkpt>
      <trkpt lat="46.25777" lon="10.51603">
        <ele>1276</ele>
        <time>2018-09-22T03:30:41.013Z</time>
      </trkpt>
      <trkpt lat="46.25769" lon="10.5161">
        <ele>1276</ele>
        <time>2018-09-22T03:30:48.014Z</time>
      </trkpt>
      <trkpt lat="46.25762" lon="10.51621">
        <ele>1276</ele>
        <time>2018-09-22T03:30:54.003Z</time>
      </trkpt>
      <trkpt lat="46.25752" lon="10.51629">
        <ele>1276</ele>
        <time>2018-09-22T03:31:02.113Z</time>
      </trkpt>
      <trkpt lat="46.25745" lon="10.51639">
        <ele>1276.04829952</ele>
        <time>2018-09-22T03:31:08.003Z</time>
      </trkpt>
      <trkpt lat="46.25738" lon="10.51646">
        <ele>1276.84950016</ele>
        <time>2018-09-22T03:31:16.015Z</time>
      </trkpt>
      <trkpt lat="46.25736" lon="10.51661">
        <ele>1277</ele>
        <time>2018-09-22T03:31:25.014Z</time>
      </trkpt>
      <trkpt lat="46.25729" lon="10.51673">
        <ele>1277</ele>
        <time>2018-09-22T03:31:32.014Z</time>
      </trkpt>
      <trkpt lat="46.25719" lon="10.51676">
        <ele>1277</ele>
        <time>2018-09-22T03:31:34.013Z</time>
      </trkpt>
      <trkpt lat="46.25708" lon="10.51675">
        <ele>1277</ele>
        <time>2018-09-22T03:31:37.003Z</time>
      </trkpt>
      <trkpt lat="46.25703" lon="10.51662">
        <ele>1278</ele>
        <time>2018-09-22T03:31:56.003Z</time>
      </trkpt>
      <trkpt lat="46.25695" lon="10.51653">
        <ele>1278</ele>
        <time>2018-09-22T03:32:03.003Z</time>
      </trkpt>
      <trkpt lat="46.25686" lon="10.51647">
        <ele>1278</ele>
        <time>2018-09-22T03:32:10.003Z</time>
      </trkpt>
      <trkpt lat="46.25678" lon="10.51639">
        <ele>1278</ele>
        <time>2018-09-22T03:32:17.003Z</time>
      </trkpt>
      <trkpt lat="46.25677" lon="10.51653">
        <ele>1278.2481512881</ele>
        <time>2018-09-22T03:32:30.004Z</time>
      </trkpt>
      <trkpt lat="46.25677" lon="10.51667">
        <ele>1279</ele>
        <time>2018-09-22T03:32:38.014Z</time>
      </trkpt>
      <trkpt lat="46.25674" lon="10.51677">
        <ele>1279</ele>
        <time>2018-09-22T03:32:46.003Z</time>
      </trkpt>
    </trkseg>
  </trk>
</gpx>